<?xml version='1.0' encoding='UTF-8'?><gpx version="1.1" creator="JPX - https://github.com/jenetics/jpx" xmlns="http://www.topografix.com/GPX/1/1"><trk><trkseg><trkpt lat="45.507683" lon="10.4634103"><ele>182.0</ele><time>2026-03-29T06:57:38.702Z</time></trkpt><trkpt lat="45.507637" lon="10.4634739"><ele>182.0</ele><time>2026-03-29T06:57:42.701Z</time></trkpt><trkpt lat="45.5076425" lon="10.4635673"><ele>182.0</ele><time>2026-03-29T06:57:47.701Z</time></trkpt><trkpt lat="45.5077121" lon="10.4635873"><ele>182.0</ele><time>2026-03-29T06:58:38.703Z</time></trkpt><trkpt lat="45.5077778" lon="10.463593"><ele>182.0</ele><time>2026-03-29T06:58:54.702Z</time></trkpt><trkpt lat="45.5078463" lon="10.4635959"><ele>182.0</ele><time>2026-03-29T06:59:31.702Z</time></trkpt><trkpt lat="45.5079185" lon="10.4635886"><ele>182.0</ele><time>2026-03-29T07:00:19.703Z</time></trkpt><trkpt lat="45.5079827" lon="10.4635876"><ele>182.85714285714286</ele><time>2026-03-29T07:01:22.702Z</time></trkpt><trkpt lat="45.5080462" lon="10.4635783"><ele>183.71428571428572</ele><time>2026-03-29T07:01:52.702Z</time></trkpt><trkpt lat="45.5081148" lon="10.4635566"><ele>184.57142857142856</ele><time>2026-03-29T07:02:45.703Z</time></trkpt><trkpt lat="45.5081891" lon="10.4635395"><ele>185.42857142857144</ele><time>2026-03-29T07:02:53.702Z</time></trkpt><trkpt lat="45.5082556" lon="10.4635225"><ele>186.28571428571428</ele><time>2026-03-29T07:02:55.703Z</time></trkpt><trkpt lat="45.5083302" lon="10.4635274"><ele>187.14285714285714</ele><time>2026-03-29T07:02:57.703Z</time></trkpt><trkpt lat="45.5083961" lon="10.4635914"><ele>188.0</ele><time>2026-03-29T07:02:59.702Z</time></trkpt><trkpt lat="45.5085211" lon="10.4636202"><ele>188.0</ele><time>2026-03-29T07:03:01.702Z</time></trkpt><trkpt lat="45.5085992" lon="10.4636079"><ele>188.0</ele><time>2026-03-29T07:03:02.702Z</time></trkpt><trkpt lat="45.5086863" lon="10.4635838"><ele>188.0</ele><time>2026-03-29T07:03:03.702Z</time></trkpt><trkpt lat="45.508784" lon="10.4635514"><ele>188.0</ele><time>2026-03-29T07:03:04.703Z</time></trkpt><trkpt lat="45.5088893" lon="10.4635176"><ele>188.0</ele><time>2026-03-29T07:03:05.703Z</time></trkpt><trkpt lat="45.5090024" lon="10.4634815"><ele>187.5</ele><time>2026-03-29T07:03:06.702Z</time></trkpt><trkpt lat="45.5091203" lon="10.463446"><ele>187.0</ele><time>2026-03-29T07:03:07.702Z</time></trkpt><trkpt lat="45.5092447" lon="10.4634065"><ele>186.5</ele><time>2026-03-29T07:03:08.703Z</time></trkpt><trkpt lat="45.5093751" lon="10.4633679"><ele>186.0</ele><time>2026-03-29T07:03:09.702Z</time></trkpt><trkpt lat="45.5095152" lon="10.4633224"><ele>186.66666666666666</ele><time>2026-03-29T07:03:10.703Z</time></trkpt><trkpt lat="45.5096604" lon="10.463267"><ele>187.33333333333331</ele><time>2026-03-29T07:03:11.703Z</time></trkpt><trkpt lat="45.5098065" lon="10.4632134"><ele>188.0</ele><time>2026-03-29T07:03:12.703Z</time></trkpt><trkpt lat="45.5099543" lon="10.4631648"><ele>188.0</ele><time>2026-03-29T07:03:13.703Z</time></trkpt><trkpt lat="45.5101033" lon="10.4631121"><ele>188.0</ele><time>2026-03-29T07:03:14.703Z</time></trkpt><trkpt lat="45.510249" lon="10.4630633"><ele>188.0</ele><time>2026-03-29T07:03:15.702Z</time></trkpt><trkpt lat="45.5103927" lon="10.4630165"><ele>188.0</ele><time>2026-03-29T07:03:16.702Z</time></trkpt><trkpt lat="45.5105353" lon="10.4629674"><ele>188.0</ele><time>2026-03-29T07:03:17.702Z</time></trkpt><trkpt lat="45.5106775" lon="10.4629165"><ele>188.0</ele><time>2026-03-29T07:03:18.704Z</time></trkpt><trkpt lat="45.5108199" lon="10.462866"><ele>188.0</ele><time>2026-03-29T07:03:19.702Z</time></trkpt><trkpt lat="45.5109632" lon="10.4628146"><ele>188.0</ele><time>2026-03-29T07:03:20.703Z</time></trkpt><trkpt lat="45.511105" lon="10.4627668"><ele>188.0</ele><time>2026-03-29T07:03:21.703Z</time></trkpt><trkpt lat="45.5112519" lon="10.4627186"><ele>188.0</ele><time>2026-03-29T07:03:22.703Z</time></trkpt><trkpt lat="45.5113978" lon="10.4626689"><ele>188.0</ele><time>2026-03-29T07:03:23.703Z</time></trkpt><trkpt lat="45.5115475" lon="10.462617"><ele>188.33333333333331</ele><time>2026-03-29T07:03:24.704Z</time></trkpt><trkpt lat="45.5116999" lon="10.4625666"><ele>188.66666666666666</ele><time>2026-03-29T07:03:25.703Z</time></trkpt><trkpt lat="45.5118566" lon="10.4625162"><ele>189.0</ele><time>2026-03-29T07:03:26.703Z</time></trkpt><trkpt lat="45.5120189" lon="10.4624726"><ele>189.66666666666666</ele><time>2026-03-29T07:03:27.702Z</time></trkpt><trkpt lat="45.5121882" lon="10.4624364"><ele>190.33333333333331</ele><time>2026-03-29T07:03:28.702Z</time></trkpt><trkpt lat="45.5123593" lon="10.4624099"><ele>191.0</ele><time>2026-03-29T07:03:29.702Z</time></trkpt><trkpt lat="45.5125326" lon="10.4623886"><ele>191.0</ele><time>2026-03-29T07:03:30.702Z</time></trkpt><trkpt lat="45.5127051" lon="10.4623756"><ele>191.0</ele><time>2026-03-29T07:03:31.702Z</time></trkpt><trkpt lat="45.51288" lon="10.4623674"><ele>191.0</ele><time>2026-03-29T07:03:32.703Z</time></trkpt><trkpt lat="45.5130539" lon="10.4623573"><ele>191.66666666666666</ele><time>2026-03-29T07:03:33.703Z</time></trkpt><trkpt lat="45.5132275" lon="10.4623416"><ele>192.33333333333331</ele><time>2026-03-29T07:03:34.703Z</time></trkpt><trkpt lat="45.5133999" lon="10.4623298"><ele>193.0</ele><time>2026-03-29T07:03:35.703Z</time></trkpt><trkpt lat="45.5135596" lon="10.4623249"><ele>193.0</ele><time>2026-03-29T07:03:36.703Z</time></trkpt><trkpt lat="45.5137033" lon="10.4623189"><ele>193.0</ele><time>2026-03-29T07:03:37.702Z</time></trkpt><trkpt lat="45.5138389" lon="10.462307"><ele>193.0</ele><time>2026-03-29T07:03:38.703Z</time></trkpt><trkpt lat="45.5139609" lon="10.462298"><ele>193.0</ele><time>2026-03-29T07:03:39.703Z</time></trkpt><trkpt lat="45.5140686" lon="10.4622911"><ele>193.16666666666666</ele><time>2026-03-29T07:03:40.703Z</time></trkpt><trkpt lat="45.5141577" lon="10.4622866"><ele>193.33333333333331</ele><time>2026-03-29T07:03:41.703Z</time></trkpt><trkpt lat="45.5142308" lon="10.4622828"><ele>193.5</ele><time>2026-03-29T07:03:42.703Z</time></trkpt><trkpt lat="45.5143136" lon="10.4623447"><ele>193.66666666666669</ele><time>2026-03-29T07:03:44.702Z</time></trkpt><trkpt lat="45.5143432" lon="10.4624528"><ele>193.83333333333334</ele><time>2026-03-29T07:03:46.703Z</time></trkpt><trkpt lat="45.5143396" lon="10.4625752"><ele>194.0</ele><time>2026-03-29T07:03:48.702Z</time></trkpt><trkpt lat="45.5143374" lon="10.4627051"><ele>194.00000000000003</ele><time>2026-03-29T07:03:50.703Z</time></trkpt><trkpt lat="45.5143305" lon="10.4628586"><ele>194.0</ele><time>2026-03-29T07:03:52.702Z</time></trkpt><trkpt lat="45.5143252" lon="10.4629487"><ele>194.0</ele><time>2026-03-29T07:03:53.703Z</time></trkpt><trkpt lat="45.5143229" lon="10.4630457"><ele>194.0</ele><time>2026-03-29T07:03:54.703Z</time></trkpt><trkpt lat="45.5143181" lon="10.4631599"><ele>194.00000000000003</ele><time>2026-03-29T07:03:55.703Z</time></trkpt><trkpt lat="45.5143131" lon="10.4632796"><ele>194.0</ele><time>2026-03-29T07:03:56.702Z</time></trkpt><trkpt lat="45.5143067" lon="10.4633938"><ele>194.00000000000003</ele><time>2026-03-29T07:03:57.703Z</time></trkpt><trkpt lat="45.5143029" lon="10.4635122"><ele>194.0</ele><time>2026-03-29T07:03:58.703Z</time></trkpt><trkpt lat="45.5143" lon="10.4636276"><ele>194.0</ele><time>2026-03-29T07:03:59.703Z</time></trkpt><trkpt lat="45.5142971" lon="10.4637452"><ele>194.0</ele><time>2026-03-29T07:04:00.703Z</time></trkpt><trkpt lat="45.5142915" lon="10.4638501"><ele>194.00000000000003</ele><time>2026-03-29T07:04:01.702Z</time></trkpt><trkpt lat="45.5142842" lon="10.4640119"><ele>194.0</ele><time>2026-03-29T07:04:03.702Z</time></trkpt><trkpt lat="45.5142774" lon="10.4641511"><ele>193.79999999999998</ele><time>2026-03-29T07:04:05.703Z</time></trkpt><trkpt lat="45.5142699" lon="10.4643151"><ele>193.6</ele><time>2026-03-29T07:04:07.702Z</time></trkpt><trkpt lat="45.5142681" lon="10.4644203"><ele>193.4</ele><time>2026-03-29T07:04:08.702Z</time></trkpt><trkpt lat="45.5142612" lon="10.4645468"><ele>193.2</ele><time>2026-03-29T07:04:09.703Z</time></trkpt><trkpt lat="45.5142548" lon="10.4646985"><ele>193.0</ele><time>2026-03-29T07:04:10.703Z</time></trkpt><trkpt lat="45.5142474" lon="10.464868"><ele>193.0</ele><time>2026-03-29T07:04:11.703Z</time></trkpt><trkpt lat="45.5142415" lon="10.4650507"><ele>193.0</ele><time>2026-03-29T07:04:12.702Z</time></trkpt><trkpt lat="45.5142351" lon="10.4652395"><ele>193.0</ele><time>2026-03-29T07:04:13.702Z</time></trkpt><trkpt lat="45.5142257" lon="10.465433"><ele>193.0</ele><time>2026-03-29T07:04:14.702Z</time></trkpt><trkpt lat="45.5142172" lon="10.4656336"><ele>193.5</ele><time>2026-03-29T07:04:15.703Z</time></trkpt><trkpt lat="45.5142101" lon="10.465839"><ele>194.0</ele><time>2026-03-29T07:04:16.703Z</time></trkpt><trkpt lat="45.5142022" lon="10.4660459"><ele>194.5</ele><time>2026-03-29T07:04:17.702Z</time></trkpt><trkpt lat="45.5141949" lon="10.4662457"><ele>195.0</ele><time>2026-03-29T07:04:18.702Z</time></trkpt><trkpt lat="45.5141872" lon="10.4664517"><ele>195.25</ele><time>2026-03-29T07:04:19.702Z</time></trkpt><trkpt lat="45.5141803" lon="10.4666533"><ele>195.5</ele><time>2026-03-29T07:04:20.702Z</time></trkpt><trkpt lat="45.5141724" lon="10.4668484"><ele>195.75</ele><time>2026-03-29T07:04:21.703Z</time></trkpt><trkpt lat="45.5141656" lon="10.4670446"><ele>196.0</ele><time>2026-03-29T07:04:22.702Z</time></trkpt><trkpt lat="45.5141567" lon="10.4672385"><ele>196.75</ele><time>2026-03-29T07:04:23.702Z</time></trkpt><trkpt lat="45.5141472" lon="10.467427"><ele>197.5</ele><time>2026-03-29T07:04:24.703Z</time></trkpt><trkpt lat="45.5141408" lon="10.4676111"><ele>198.25</ele><time>2026-03-29T07:04:25.702Z</time></trkpt><trkpt lat="45.5141342" lon="10.4678013"><ele>199.0</ele><time>2026-03-29T07:04:26.703Z</time></trkpt><trkpt lat="45.5141263" lon="10.4679874"><ele>199.25</ele><time>2026-03-29T07:04:27.702Z</time></trkpt><trkpt lat="45.5141188" lon="10.4681799"><ele>199.5</ele><time>2026-03-29T07:04:28.702Z</time></trkpt><trkpt lat="45.5141119" lon="10.4683711"><ele>199.75</ele><time>2026-03-29T07:04:29.703Z</time></trkpt><trkpt lat="45.5141042" lon="10.4685386"><ele>200.0</ele><time>2026-03-29T07:04:30.703Z</time></trkpt><trkpt lat="45.5140995" lon="10.4686951"><ele>200.00000000000003</ele><time>2026-03-29T07:04:31.703Z</time></trkpt><trkpt lat="45.5140931" lon="10.4688427"><ele>200.0</ele><time>2026-03-29T07:04:32.702Z</time></trkpt><trkpt lat="45.5140874" lon="10.46897"><ele>200.0</ele><time>2026-03-29T07:04:33.702Z</time></trkpt><trkpt lat="45.5140811" lon="10.4690662"><ele>200.0</ele><time>2026-03-29T07:04:34.703Z</time></trkpt><trkpt lat="45.5140961" lon="10.4691752"><ele>200.00000000000003</ele><time>2026-03-29T07:04:36.703Z</time></trkpt><trkpt lat="45.5141842" lon="10.4692387"><ele>200.0</ele><time>2026-03-29T07:04:38.703Z</time></trkpt><trkpt lat="45.5142695" lon="10.469247"><ele>200.0</ele><time>2026-03-29T07:04:39.703Z</time></trkpt><trkpt lat="45.5143802" lon="10.4692399"><ele>200.0</ele><time>2026-03-29T07:04:40.702Z</time></trkpt><trkpt lat="45.5144871" lon="10.4692324"><ele>200.0</ele><time>2026-03-29T07:04:41.702Z</time></trkpt><trkpt lat="45.5145702" lon="10.4692314"><ele>200.0</ele><time>2026-03-29T07:04:42.702Z</time></trkpt><trkpt lat="45.5146464" lon="10.4692242"><ele>200.0</ele><time>2026-03-29T07:04:43.703Z</time></trkpt><trkpt lat="45.5147451" lon="10.4692222"><ele>200.0</ele><time>2026-03-29T07:04:44.702Z</time></trkpt><trkpt lat="45.514828" lon="10.4692287"><ele>200.0</ele><time>2026-03-29T07:04:45.702Z</time></trkpt><trkpt lat="45.5149204" lon="10.4692321"><ele>200.0</ele><time>2026-03-29T07:04:46.703Z</time></trkpt><trkpt lat="45.5150125" lon="10.4692379"><ele>200.0</ele><time>2026-03-29T07:04:47.703Z</time></trkpt><trkpt lat="45.5151067" lon="10.4692475"><ele>200.0</ele><time>2026-03-29T07:04:48.702Z</time></trkpt><trkpt lat="45.5151967" lon="10.4692595"><ele>200.0</ele><time>2026-03-29T07:04:49.702Z</time></trkpt><trkpt lat="45.5152941" lon="10.4692711"><ele>200.0</ele><time>2026-03-29T07:04:50.703Z</time></trkpt><trkpt lat="45.515398" lon="10.469282"><ele>200.0</ele><time>2026-03-29T07:04:51.702Z</time></trkpt><trkpt lat="45.5155045" lon="10.4692928"><ele>200.0</ele><time>2026-03-29T07:04:52.702Z</time></trkpt><trkpt lat="45.5156065" lon="10.4693042"><ele>200.0</ele><time>2026-03-29T07:04:53.702Z</time></trkpt><trkpt lat="45.515694" lon="10.4693158"><ele>200.4</ele><time>2026-03-29T07:04:54.703Z</time></trkpt><trkpt lat="45.5157897" lon="10.4693379"><ele>200.8</ele><time>2026-03-29T07:04:55.702Z</time></trkpt><trkpt lat="45.5158911" lon="10.4693549"><ele>201.2</ele><time>2026-03-29T07:04:56.702Z</time></trkpt><trkpt lat="45.5160011" lon="10.4693618"><ele>201.6</ele><time>2026-03-29T07:04:57.702Z</time></trkpt><trkpt lat="45.5161138" lon="10.4693778"><ele>202.0</ele><time>2026-03-29T07:04:58.704Z</time></trkpt><trkpt lat="45.516216" lon="10.469394"><ele>202.6</ele><time>2026-03-29T07:04:59.703Z</time></trkpt><trkpt lat="45.5163153" lon="10.469407"><ele>203.2</ele><time>2026-03-29T07:05:00.702Z</time></trkpt><trkpt lat="45.5164218" lon="10.4694178"><ele>203.8</ele><time>2026-03-29T07:05:01.702Z</time></trkpt><trkpt lat="45.516532" lon="10.4694194"><ele>204.4</ele><time>2026-03-29T07:05:02.703Z</time></trkpt><trkpt lat="45.5166276" lon="10.4694209"><ele>205.0</ele><time>2026-03-29T07:05:03.703Z</time></trkpt><trkpt lat="45.5167157" lon="10.4694229"><ele>204.99999999999997</ele><time>2026-03-29T07:05:04.702Z</time></trkpt><trkpt lat="45.5167931" lon="10.4694215"><ele>205.0</ele><time>2026-03-29T07:05:05.702Z</time></trkpt><trkpt lat="45.5168734" lon="10.4694189"><ele>205.0</ele><time>2026-03-29T07:05:06.702Z</time></trkpt><trkpt lat="45.5169549" lon="10.4694168"><ele>205.0</ele><time>2026-03-29T07:05:07.703Z</time></trkpt><trkpt lat="45.5170317" lon="10.4694156"><ele>204.99999999999997</ele><time>2026-03-29T07:05:08.703Z</time></trkpt><trkpt lat="45.5170977" lon="10.4694128"><ele>205.0</ele><time>2026-03-29T07:05:09.702Z</time></trkpt><trkpt lat="45.5172058" lon="10.4694159"><ele>204.83333333333331</ele><time>2026-03-29T07:05:11.703Z</time></trkpt><trkpt lat="45.5172715" lon="10.4694647"><ele>204.66666666666666</ele><time>2026-03-29T07:05:13.702Z</time></trkpt><trkpt lat="45.5172812" lon="10.4695736"><ele>204.5</ele><time>2026-03-29T07:05:15.703Z</time></trkpt><trkpt lat="45.517255" lon="10.469675"><ele>204.33333333333331</ele><time>2026-03-29T07:05:16.702Z</time></trkpt><trkpt lat="45.5172193" lon="10.4698108"><ele>204.16666666666666</ele><time>2026-03-29T07:05:17.702Z</time></trkpt><trkpt lat="45.5171857" lon="10.4699564"><ele>204.0</ele><time>2026-03-29T07:05:18.703Z</time></trkpt><trkpt lat="45.5171501" lon="10.4701306"><ele>204.75</ele><time>2026-03-29T07:05:19.703Z</time></trkpt><trkpt lat="45.5171075" lon="10.4703352"><ele>205.5</ele><time>2026-03-29T07:05:20.703Z</time></trkpt><trkpt lat="45.5170623" lon="10.4705196"><ele>206.25</ele><time>2026-03-29T07:05:21.702Z</time></trkpt><trkpt lat="45.5170022" lon="10.470695"><ele>207.0</ele><time>2026-03-29T07:05:22.702Z</time></trkpt><trkpt lat="45.5169145" lon="10.4708713"><ele>207.33333333333331</ele><time>2026-03-29T07:05:23.702Z</time></trkpt><trkpt lat="45.5167981" lon="10.4710549"><ele>207.66666666666666</ele><time>2026-03-29T07:05:24.703Z</time></trkpt><trkpt lat="45.516675" lon="10.4712476"><ele>208.0</ele><time>2026-03-29T07:05:25.703Z</time></trkpt><trkpt lat="45.516576" lon="10.4714219"><ele>208.75</ele><time>2026-03-29T07:05:26.702Z</time></trkpt><trkpt lat="45.5164894" lon="10.4715894"><ele>209.5</ele><time>2026-03-29T07:05:27.702Z</time></trkpt><trkpt lat="45.5164258" lon="10.4717385"><ele>210.25</ele><time>2026-03-29T07:05:28.703Z</time></trkpt><trkpt lat="45.5163774" lon="10.4718858"><ele>211.0</ele><time>2026-03-29T07:05:29.702Z</time></trkpt><trkpt lat="45.5163347" lon="10.4720747"><ele>212.0</ele><time>2026-03-29T07:05:30.702Z</time></trkpt><trkpt lat="45.5163152" lon="10.4722758"><ele>213.0</ele><time>2026-03-29T07:05:31.702Z</time></trkpt><trkpt lat="45.5163008" lon="10.4724739"><ele>214.0</ele><time>2026-03-29T07:05:32.703Z</time></trkpt><trkpt lat="45.5162731" lon="10.4726279"><ele>215.0</ele><time>2026-03-29T07:05:33.702Z</time></trkpt><trkpt lat="45.5162437" lon="10.4727424"><ele>215.83333333333334</ele><time>2026-03-29T07:05:34.702Z</time></trkpt><trkpt lat="45.5162228" lon="10.4728355"><ele>216.66666666666669</ele><time>2026-03-29T07:05:35.702Z</time></trkpt><trkpt lat="45.5162347" lon="10.4729818"><ele>217.5</ele><time>2026-03-29T07:05:37.703Z</time></trkpt><trkpt lat="45.5162782" lon="10.4730502"><ele>218.33333333333331</ele><time>2026-03-29T07:05:38.703Z</time></trkpt><trkpt lat="45.5163198" lon="10.4731224"><ele>219.16666666666666</ele><time>2026-03-29T07:05:39.702Z</time></trkpt><trkpt lat="45.5164206" lon="10.4732023"><ele>220.0</ele><time>2026-03-29T07:05:40.702Z</time></trkpt><trkpt lat="45.5165672" lon="10.4732794"><ele>220.0</ele><time>2026-03-29T07:05:41.703Z</time></trkpt><trkpt lat="45.5166825" lon="10.4733113"><ele>220.0</ele><time>2026-03-29T07:05:42.703Z</time></trkpt><trkpt lat="45.5167962" lon="10.4733188"><ele>220.0</ele><time>2026-03-29T07:05:43.703Z</time></trkpt><trkpt lat="45.5169128" lon="10.4733212"><ele>220.0</ele><time>2026-03-29T07:05:44.702Z</time></trkpt><trkpt lat="45.5170334" lon="10.4733205"><ele>220.0</ele><time>2026-03-29T07:05:45.702Z</time></trkpt><trkpt lat="45.5171782" lon="10.4733146"><ele>220.0</ele><time>2026-03-29T07:05:46.702Z</time></trkpt><trkpt lat="45.5173425" lon="10.4732969"><ele>220.0</ele><time>2026-03-29T07:05:47.703Z</time></trkpt><trkpt lat="45.5175209" lon="10.4732652"><ele>220.0</ele><time>2026-03-29T07:05:48.702Z</time></trkpt><trkpt lat="45.5177287" lon="10.473215"><ele>220.0</ele><time>2026-03-29T07:05:49.702Z</time></trkpt><trkpt lat="45.5178981" lon="10.4731554"><ele>220.0</ele><time>2026-03-29T07:05:50.703Z</time></trkpt><trkpt lat="45.5180574" lon="10.4730714"><ele>219.33333333333331</ele><time>2026-03-29T07:05:51.702Z</time></trkpt><trkpt lat="45.5182175" lon="10.4729685"><ele>218.66666666666669</ele><time>2026-03-29T07:05:52.702Z</time></trkpt><trkpt lat="45.5183754" lon="10.4728263"><ele>218.0</ele><time>2026-03-29T07:05:53.703Z</time></trkpt><trkpt lat="45.518533" lon="10.4726864"><ele>218.0</ele><time>2026-03-29T07:05:54.702Z</time></trkpt><trkpt lat="45.5186998" lon="10.4725487"><ele>218.0</ele><time>2026-03-29T07:05:55.703Z</time></trkpt><trkpt lat="45.5188832" lon="10.4724012"><ele>218.0</ele><time>2026-03-29T07:05:56.703Z</time></trkpt><trkpt lat="45.5190664" lon="10.4722474"><ele>216.66666666666669</ele><time>2026-03-29T07:05:57.702Z</time></trkpt><trkpt lat="45.5192396" lon="10.4721051"><ele>215.33333333333331</ele><time>2026-03-29T07:05:58.703Z</time></trkpt><trkpt lat="45.5194019" lon="10.4719734"><ele>214.0</ele><time>2026-03-29T07:05:59.702Z</time></trkpt><trkpt lat="45.5195451" lon="10.4718403"><ele>215.25</ele><time>2026-03-29T07:06:00.703Z</time></trkpt><trkpt lat="45.5196742" lon="10.4717143"><ele>216.5</ele><time>2026-03-29T07:06:01.703Z</time></trkpt><trkpt lat="45.5197942" lon="10.4716056"><ele>217.75</ele><time>2026-03-29T07:06:02.703Z</time></trkpt><trkpt lat="45.5199121" lon="10.4715058"><ele>219.0</ele><time>2026-03-29T07:06:03.702Z</time></trkpt><trkpt lat="45.5200315" lon="10.4714245"><ele>219.0</ele><time>2026-03-29T07:06:04.702Z</time></trkpt><trkpt lat="45.5201593" lon="10.471365"><ele>219.0</ele><time>2026-03-29T07:06:05.703Z</time></trkpt><trkpt lat="45.5202759" lon="10.4713221"><ele>219.0</ele><time>2026-03-29T07:06:06.703Z</time></trkpt><trkpt lat="45.5203799" lon="10.4712787"><ele>219.0</ele><time>2026-03-29T07:06:07.703Z</time></trkpt><trkpt lat="45.5204735" lon="10.4712478"><ele>219.16666666666666</ele><time>2026-03-29T07:06:08.702Z</time></trkpt><trkpt lat="45.5205407" lon="10.4712384"><ele>219.33333333333331</ele><time>2026-03-29T07:06:09.703Z</time></trkpt><trkpt lat="45.5206137" lon="10.4712719"><ele>219.5</ele><time>2026-03-29T07:06:11.702Z</time></trkpt><trkpt lat="45.5206308" lon="10.4713618"><ele>219.66666666666666</ele><time>2026-03-29T07:06:13.702Z</time></trkpt><trkpt lat="45.5206287" lon="10.4714625"><ele>219.83333333333331</ele><time>2026-03-29T07:06:14.702Z</time></trkpt><trkpt lat="45.5206289" lon="10.4716206"><ele>220.0</ele><time>2026-03-29T07:06:15.702Z</time></trkpt><trkpt lat="45.5206356" lon="10.471791"><ele>220.0</ele><time>2026-03-29T07:06:16.702Z</time></trkpt><trkpt lat="45.5206406" lon="10.4719659"><ele>220.0</ele><time>2026-03-29T07:06:17.703Z</time></trkpt><trkpt lat="45.520649" lon="10.4721502"><ele>220.0</ele><time>2026-03-29T07:06:18.703Z</time></trkpt><trkpt lat="45.5206465" lon="10.4723453"><ele>220.0</ele><time>2026-03-29T07:06:19.702Z</time></trkpt><trkpt lat="45.5206212" lon="10.4725494"><ele>222.0</ele><time>2026-03-29T07:06:20.702Z</time></trkpt><trkpt lat="45.5205719" lon="10.472756"><ele>224.0</ele><time>2026-03-29T07:06:21.702Z</time></trkpt><trkpt lat="45.5205045" lon="10.4729627"><ele>226.0</ele><time>2026-03-29T07:06:22.703Z</time></trkpt><trkpt lat="45.520436" lon="10.4731775"><ele>229.33333333333331</ele><time>2026-03-29T07:06:23.702Z</time></trkpt><trkpt lat="45.5203735" lon="10.4733976"><ele>232.66666666666669</ele><time>2026-03-29T07:06:24.703Z</time></trkpt><trkpt lat="45.5203152" lon="10.4736224"><ele>236.0</ele><time>2026-03-29T07:06:25.703Z</time></trkpt><trkpt lat="45.5202618" lon="10.4738521"><ele>237.33333333333334</ele><time>2026-03-29T07:06:26.702Z</time></trkpt><trkpt lat="45.5202131" lon="10.4740801"><ele>238.66666666666669</ele><time>2026-03-29T07:06:27.702Z</time></trkpt><trkpt lat="45.5201693" lon="10.4743079"><ele>240.0</ele><time>2026-03-29T07:06:28.702Z</time></trkpt><trkpt lat="45.5201331" lon="10.4745288"><ele>239.75</ele><time>2026-03-29T07:06:29.702Z</time></trkpt><trkpt lat="45.5200976" lon="10.4747356"><ele>239.5</ele><time>2026-03-29T07:06:30.702Z</time></trkpt><trkpt lat="45.5200638" lon="10.4749408"><ele>239.25</ele><time>2026-03-29T07:06:31.703Z</time></trkpt><trkpt lat="45.520031" lon="10.4751507"><ele>239.0</ele><time>2026-03-29T07:06:32.702Z</time></trkpt><trkpt lat="45.5199996" lon="10.4753537"><ele>239.0</ele><time>2026-03-29T07:06:33.703Z</time></trkpt><trkpt lat="45.5199672" lon="10.4755559"><ele>239.0</ele><time>2026-03-29T07:06:34.703Z</time></trkpt><trkpt lat="45.5199378" lon="10.4757595"><ele>239.0</ele><time>2026-03-29T07:06:35.703Z</time></trkpt><trkpt lat="45.5199083" lon="10.4759611"><ele>239.0</ele><time>2026-03-29T07:06:36.702Z</time></trkpt><trkpt lat="45.5198794" lon="10.4761579"><ele>238.75</ele><time>2026-03-29T07:06:37.703Z</time></trkpt><trkpt lat="45.5198487" lon="10.47636"><ele>238.5</ele><time>2026-03-29T07:06:38.702Z</time></trkpt><trkpt lat="45.5198156" lon="10.476567"><ele>238.25</ele><time>2026-03-29T07:06:39.703Z</time></trkpt><trkpt lat="45.5197801" lon="10.4767798"><ele>238.0</ele><time>2026-03-29T07:06:40.703Z</time></trkpt><trkpt lat="45.5197447" lon="10.4769901"><ele>239.75</ele><time>2026-03-29T07:06:41.703Z</time></trkpt><trkpt lat="45.5197127" lon="10.4771976"><ele>241.5</ele><time>2026-03-29T07:06:42.702Z</time></trkpt><trkpt lat="45.5196879" lon="10.4773961"><ele>243.25</ele><time>2026-03-29T07:06:43.702Z</time></trkpt><trkpt lat="45.5196712" lon="10.4775795"><ele>245.0</ele><time>2026-03-29T07:06:44.703Z</time></trkpt><trkpt lat="45.5196625" lon="10.4777528"><ele>245.0</ele><time>2026-03-29T07:06:45.703Z</time></trkpt><trkpt lat="45.5196637" lon="10.4779069"><ele>245.0</ele><time>2026-03-29T07:06:46.702Z</time></trkpt><trkpt lat="45.5196723" lon="10.4780458"><ele>245.0</ele><time>2026-03-29T07:06:47.703Z</time></trkpt><trkpt lat="45.5196826" lon="10.4781778"><ele>245.0</ele><time>2026-03-29T07:06:48.702Z</time></trkpt><trkpt lat="45.5196982" lon="10.4783077"><ele>245.0</ele><time>2026-03-29T07:06:49.702Z</time></trkpt><trkpt lat="45.5197234" lon="10.4784374"><ele>246.0</ele><time>2026-03-29T07:06:50.702Z</time></trkpt><trkpt lat="45.5197538" lon="10.4785636"><ele>247.0</ele><time>2026-03-29T07:06:51.702Z</time></trkpt><trkpt lat="45.5197816" lon="10.4786875"><ele>248.0</ele><time>2026-03-29T07:06:52.703Z</time></trkpt><trkpt lat="45.5197963" lon="10.4788168"><ele>249.0</ele><time>2026-03-29T07:06:53.703Z</time></trkpt><trkpt lat="45.5197899" lon="10.4789553"><ele>250.0</ele><time>2026-03-29T07:06:54.703Z</time></trkpt><trkpt lat="45.5197601" lon="10.479099"><ele>250.25</ele><time>2026-03-29T07:06:55.703Z</time></trkpt><trkpt lat="45.5197039" lon="10.4792471"><ele>250.5</ele><time>2026-03-29T07:06:56.703Z</time></trkpt><trkpt lat="45.519628" lon="10.4794024"><ele>250.75</ele><time>2026-03-29T07:06:57.703Z</time></trkpt><trkpt lat="45.5195394" lon="10.4795622"><ele>251.0</ele><time>2026-03-29T07:06:58.703Z</time></trkpt><trkpt lat="45.51945" lon="10.4797308"><ele>251.0</ele><time>2026-03-29T07:06:59.703Z</time></trkpt><trkpt lat="45.5193547" lon="10.4798897"><ele>251.0</ele><time>2026-03-29T07:07:00.703Z</time></trkpt><trkpt lat="45.5192718" lon="10.4800519"><ele>251.0</ele><time>2026-03-29T07:07:01.702Z</time></trkpt><trkpt lat="45.5192105" lon="10.480237"><ele>251.0</ele><time>2026-03-29T07:07:02.702Z</time></trkpt><trkpt lat="45.5191747" lon="10.4804405"><ele>250.25</ele><time>2026-03-29T07:07:03.702Z</time></trkpt><trkpt lat="45.5191535" lon="10.4806446"><ele>249.5</ele><time>2026-03-29T07:07:04.702Z</time></trkpt><trkpt lat="45.5191342" lon="10.4808407"><ele>248.75</ele><time>2026-03-29T07:07:05.702Z</time></trkpt><trkpt lat="45.5191144" lon="10.4810318"><ele>248.0</ele><time>2026-03-29T07:07:06.702Z</time></trkpt><trkpt lat="45.5191042" lon="10.4812154"><ele>246.25</ele><time>2026-03-29T07:07:07.702Z</time></trkpt><trkpt lat="45.5191147" lon="10.4814001"><ele>244.5</ele><time>2026-03-29T07:07:08.703Z</time></trkpt><trkpt lat="45.5191593" lon="10.4815818"><ele>242.75</ele><time>2026-03-29T07:07:09.703Z</time></trkpt><trkpt lat="45.5192378" lon="10.4817597"><ele>241.0</ele><time>2026-03-29T07:07:10.702Z</time></trkpt><trkpt lat="45.519322" lon="10.4819416"><ele>240.66666666666666</ele><time>2026-03-29T07:07:11.702Z</time></trkpt><trkpt lat="45.5194113" lon="10.48213"><ele>240.33333333333331</ele><time>2026-03-29T07:07:12.702Z</time></trkpt><trkpt lat="45.5195058" lon="10.4823189"><ele>240.0</ele><time>2026-03-29T07:07:13.702Z</time></trkpt><trkpt lat="45.5196006" lon="10.4825055"><ele>240.0</ele><time>2026-03-29T07:07:14.702Z</time></trkpt><trkpt lat="45.5196926" lon="10.4826956"><ele>240.0</ele><time>2026-03-29T07:07:15.702Z</time></trkpt><trkpt lat="45.5197828" lon="10.4828815"><ele>240.0</ele><time>2026-03-29T07:07:16.703Z</time></trkpt><trkpt lat="45.5198732" lon="10.4830558"><ele>240.0</ele><time>2026-03-29T07:07:17.702Z</time></trkpt><trkpt lat="45.5199706" lon="10.4832223"><ele>240.0</ele><time>2026-03-29T07:07:18.703Z</time></trkpt><trkpt lat="45.5200744" lon="10.4833869"><ele>240.0</ele><time>2026-03-29T07:07:19.702Z</time></trkpt><trkpt lat="45.5201949" lon="10.4835475"><ele>240.0</ele><time>2026-03-29T07:07:20.702Z</time></trkpt><trkpt lat="45.5203229" lon="10.4837077"><ele>240.0</ele><time>2026-03-29T07:07:21.702Z</time></trkpt><trkpt lat="45.5204522" lon="10.483873"><ele>240.0</ele><time>2026-03-29T07:07:22.703Z</time></trkpt><trkpt lat="45.520583" lon="10.4840413"><ele>240.66666666666669</ele><time>2026-03-29T07:07:23.702Z</time></trkpt><trkpt lat="45.5207094" lon="10.4842044"><ele>241.33333333333334</ele><time>2026-03-29T07:07:24.702Z</time></trkpt><trkpt lat="45.5208295" lon="10.4843584"><ele>242.0</ele><time>2026-03-29T07:07:25.702Z</time></trkpt><trkpt lat="45.5209565" lon="10.4845164"><ele>242.0</ele><time>2026-03-29T07:07:26.702Z</time></trkpt><trkpt lat="45.521073" lon="10.4846669"><ele>242.0</ele><time>2026-03-29T07:07:27.702Z</time></trkpt><trkpt lat="45.5211828" lon="10.4848192"><ele>242.0</ele><time>2026-03-29T07:07:28.703Z</time></trkpt><trkpt lat="45.521282" lon="10.4849898"><ele>242.0</ele><time>2026-03-29T07:07:29.703Z</time></trkpt><trkpt lat="45.5213575" lon="10.4851808"><ele>242.0</ele><time>2026-03-29T07:07:30.703Z</time></trkpt><trkpt lat="45.5214025" lon="10.4853801"><ele>242.0</ele><time>2026-03-29T07:07:31.702Z</time></trkpt><trkpt lat="45.521431" lon="10.4855928"><ele>239.0</ele><time>2026-03-29T07:07:32.703Z</time></trkpt><trkpt lat="45.5214537" lon="10.4858006"><ele>236.0</ele><time>2026-03-29T07:07:33.703Z</time></trkpt><trkpt lat="45.5214769" lon="10.4860163"><ele>233.0</ele><time>2026-03-29T07:07:34.702Z</time></trkpt><trkpt lat="45.5214896" lon="10.4862381"><ele>231.33333333333334</ele><time>2026-03-29T07:07:35.703Z</time></trkpt><trkpt lat="45.5214739" lon="10.4864625"><ele>229.66666666666669</ele><time>2026-03-29T07:07:36.703Z</time></trkpt><trkpt lat="45.521442" lon="10.4866851"><ele>228.0</ele><time>2026-03-29T07:07:37.702Z</time></trkpt><trkpt lat="45.5213976" lon="10.4869044"><ele>226.66666666666669</ele><time>2026-03-29T07:07:38.702Z</time></trkpt><trkpt lat="45.5213435" lon="10.4871276"><ele>225.33333333333334</ele><time>2026-03-29T07:07:39.702Z</time></trkpt><trkpt lat="45.5212843" lon="10.487354"><ele>224.0</ele><time>2026-03-29T07:07:40.703Z</time></trkpt><trkpt lat="45.521222" lon="10.4875786"><ele>223.66666666666669</ele><time>2026-03-29T07:07:41.703Z</time></trkpt><trkpt lat="45.5211626" lon="10.4878002"><ele>223.33333333333331</ele><time>2026-03-29T07:07:42.702Z</time></trkpt><trkpt lat="45.5211042" lon="10.4880235"><ele>223.0</ele><time>2026-03-29T07:07:43.703Z</time></trkpt><trkpt lat="45.5210429" lon="10.4882472"><ele>222.5</ele><time>2026-03-29T07:07:44.702Z</time></trkpt><trkpt lat="45.5209862" lon="10.4884597"><ele>222.0</ele><time>2026-03-29T07:07:45.703Z</time></trkpt><trkpt lat="45.5209377" lon="10.4886529"><ele>221.5</ele><time>2026-03-29T07:07:46.703Z</time></trkpt><trkpt lat="45.5208968" lon="10.4888203"><ele>221.0</ele><time>2026-03-29T07:07:47.703Z</time></trkpt><trkpt lat="45.520872" lon="10.4889639"><ele>220.8</ele><time>2026-03-29T07:07:48.702Z</time></trkpt><trkpt lat="45.5208638" lon="10.4890885"><ele>220.60000000000002</ele><time>2026-03-29T07:07:49.703Z</time></trkpt><trkpt lat="45.5209322" lon="10.4892279"><ele>220.4</ele><time>2026-03-29T07:07:51.702Z</time></trkpt><trkpt lat="45.520988" lon="10.489286"><ele>220.2</ele><time>2026-03-29T07:07:52.703Z</time></trkpt><trkpt lat="45.5210575" lon="10.4893616"><ele>220.0</ele><time>2026-03-29T07:07:53.702Z</time></trkpt><trkpt lat="45.5211532" lon="10.489463"><ele>219.8</ele><time>2026-03-29T07:07:54.702Z</time></trkpt><trkpt lat="45.5212381" lon="10.4895547"><ele>219.6</ele><time>2026-03-29T07:07:55.702Z</time></trkpt><trkpt lat="45.5213172" lon="10.4896516"><ele>219.39999999999998</ele><time>2026-03-29T07:07:56.703Z</time></trkpt><trkpt lat="45.5213821" lon="10.4897396"><ele>219.2</ele><time>2026-03-29T07:07:57.703Z</time></trkpt><trkpt lat="45.5214531" lon="10.4898092"><ele>219.0</ele><time>2026-03-29T07:07:58.703Z</time></trkpt><trkpt lat="45.5215223" lon="10.4898719"><ele>218.66666666666666</ele><time>2026-03-29T07:07:59.703Z</time></trkpt><trkpt lat="45.5215916" lon="10.4899278"><ele>218.33333333333331</ele><time>2026-03-29T07:08:00.703Z</time></trkpt><trkpt lat="45.5216663" lon="10.4899652"><ele>218.0</ele><time>2026-03-29T07:08:01.702Z</time></trkpt><trkpt lat="45.5217425" lon="10.4899975"><ele>217.66666666666666</ele><time>2026-03-29T07:08:02.702Z</time></trkpt><trkpt lat="45.5218058" lon="10.4900284"><ele>217.33333333333331</ele><time>2026-03-29T07:08:03.703Z</time></trkpt><trkpt lat="45.5218755" lon="10.4900647"><ele>217.0</ele><time>2026-03-29T07:08:04.703Z</time></trkpt><trkpt lat="45.5219494" lon="10.4901035"><ele>216.99999999999997</ele><time>2026-03-29T07:08:05.702Z</time></trkpt><trkpt lat="45.5220231" lon="10.4901559"><ele>217.0</ele><time>2026-03-29T07:08:06.702Z</time></trkpt><trkpt lat="45.5220935" lon="10.4902121"><ele>217.0</ele><time>2026-03-29T07:08:07.702Z</time></trkpt><trkpt lat="45.5221578" lon="10.4902724"><ele>217.0</ele><time>2026-03-29T07:08:08.704Z</time></trkpt><trkpt lat="45.5222285" lon="10.4903209"><ele>216.99999999999997</ele><time>2026-03-29T07:08:09.702Z</time></trkpt><trkpt lat="45.5223046" lon="10.4903554"><ele>217.0</ele><time>2026-03-29T07:08:10.702Z</time></trkpt><trkpt lat="45.5223813" lon="10.4903771"><ele>216.99999999999997</ele><time>2026-03-29T07:08:11.702Z</time></trkpt><trkpt lat="45.5224586" lon="10.4903915"><ele>217.0</ele><time>2026-03-29T07:08:12.702Z</time></trkpt><trkpt lat="45.5225221" lon="10.4904076"><ele>217.0</ele><time>2026-03-29T07:08:13.702Z</time></trkpt><trkpt lat="45.5226287" lon="10.490449"><ele>217.0</ele><time>2026-03-29T07:08:15.703Z</time></trkpt><trkpt lat="45.5227055" lon="10.4904872"><ele>216.99999999999997</ele><time>2026-03-29T07:08:17.702Z</time></trkpt><trkpt lat="45.5227923" lon="10.4904527"><ele>217.0</ele><time>2026-03-29T07:08:19.703Z</time></trkpt><trkpt lat="45.5228393" lon="10.4903053"><ele>217.49999999999997</ele><time>2026-03-29T07:08:21.703Z</time></trkpt><trkpt lat="45.5228622" lon="10.4902123"><ele>218.0</ele><time>2026-03-29T07:08:22.703Z</time></trkpt><trkpt lat="45.5228954" lon="10.4901041"><ele>218.5</ele><time>2026-03-29T07:08:23.702Z</time></trkpt><trkpt lat="45.5229305" lon="10.4899984"><ele>219.0</ele><time>2026-03-29T07:08:24.703Z</time></trkpt><trkpt lat="45.522965" lon="10.4898942"><ele>219.49999999999997</ele><time>2026-03-29T07:08:25.703Z</time></trkpt><trkpt lat="45.5230003" lon="10.4897856"><ele>220.0</ele><time>2026-03-29T07:08:26.703Z</time></trkpt><trkpt lat="45.5230365" lon="10.4896774"><ele>221.6</ele><time>2026-03-29T07:08:27.703Z</time></trkpt><trkpt lat="45.5230747" lon="10.4895671"><ele>223.2</ele><time>2026-03-29T07:08:28.703Z</time></trkpt><trkpt lat="45.5231129" lon="10.4894552"><ele>224.8</ele><time>2026-03-29T07:08:29.702Z</time></trkpt><trkpt lat="45.5231491" lon="10.4893252"><ele>226.4</ele><time>2026-03-29T07:08:30.703Z</time></trkpt><trkpt lat="45.5231852" lon="10.4891748"><ele>228.0</ele><time>2026-03-29T07:08:31.703Z</time></trkpt><trkpt lat="45.5232164" lon="10.4890379"><ele>228.0</ele><time>2026-03-29T07:08:32.703Z</time></trkpt><trkpt lat="45.5232474" lon="10.4889171"><ele>228.0</ele><time>2026-03-29T07:08:33.703Z</time></trkpt><trkpt lat="45.5232827" lon="10.4888009"><ele>228.0</ele><time>2026-03-29T07:08:34.703Z</time></trkpt><trkpt lat="45.5233188" lon="10.4887248"><ele>228.0</ele><time>2026-03-29T07:08:35.702Z</time></trkpt><trkpt lat="45.5233649" lon="10.488658"><ele>228.0</ele><time>2026-03-29T07:08:36.702Z</time></trkpt><trkpt lat="45.5234262" lon="10.4886028"><ele>228.0</ele><time>2026-03-29T07:08:37.702Z</time></trkpt><trkpt lat="45.5235023" lon="10.4885599"><ele>228.0</ele><time>2026-03-29T07:08:38.702Z</time></trkpt><trkpt lat="45.5235891" lon="10.4885181"><ele>228.0</ele><time>2026-03-29T07:08:39.702Z</time></trkpt><trkpt lat="45.5236808" lon="10.4884853"><ele>228.0</ele><time>2026-03-29T07:08:40.703Z</time></trkpt><trkpt lat="45.5237797" lon="10.4884589"><ele>228.0</ele><time>2026-03-29T07:08:41.702Z</time></trkpt><trkpt lat="45.5238776" lon="10.4884431"><ele>228.0</ele><time>2026-03-29T07:08:42.703Z</time></trkpt><trkpt lat="45.5239778" lon="10.4884365"><ele>229.2</ele><time>2026-03-29T07:08:43.703Z</time></trkpt><trkpt lat="45.5240777" lon="10.4884271"><ele>230.4</ele><time>2026-03-29T07:08:44.703Z</time></trkpt><trkpt lat="45.5241808" lon="10.4884147"><ele>231.59999999999997</ele><time>2026-03-29T07:08:45.702Z</time></trkpt><trkpt lat="45.5242841" lon="10.4884001"><ele>232.79999999999998</ele><time>2026-03-29T07:08:46.703Z</time></trkpt><trkpt lat="45.5243676" lon="10.4884031"><ele>234.0</ele><time>2026-03-29T07:08:47.703Z</time></trkpt><trkpt lat="45.5244383" lon="10.4884217"><ele>234.0</ele><time>2026-03-29T07:08:48.702Z</time></trkpt><trkpt lat="45.5245073" lon="10.4884711"><ele>233.99999999999997</ele><time>2026-03-29T07:08:49.702Z</time></trkpt><trkpt lat="45.524585" lon="10.4885311"><ele>233.99999999999997</ele><time>2026-03-29T07:08:50.702Z</time></trkpt><trkpt lat="45.5246714" lon="10.488579"><ele>234.0</ele><time>2026-03-29T07:08:51.702Z</time></trkpt><trkpt lat="45.5247673" lon="10.4886194"><ele>234.0</ele><time>2026-03-29T07:08:52.702Z</time></trkpt><trkpt lat="45.5248685" lon="10.4886513"><ele>234.5</ele><time>2026-03-29T07:08:53.703Z</time></trkpt><trkpt lat="45.5249914" lon="10.4886826"><ele>235.0</ele><time>2026-03-29T07:08:54.703Z</time></trkpt><trkpt lat="45.5251225" lon="10.4887238"><ele>235.5</ele><time>2026-03-29T07:08:55.703Z</time></trkpt><trkpt lat="45.5252428" lon="10.4887554"><ele>236.0</ele><time>2026-03-29T07:08:56.702Z</time></trkpt><trkpt lat="45.5253682" lon="10.4887867"><ele>236.8</ele><time>2026-03-29T07:08:57.703Z</time></trkpt><trkpt lat="45.5254851" lon="10.4888132"><ele>237.60000000000002</ele><time>2026-03-29T07:08:58.702Z</time></trkpt><trkpt lat="45.5255928" lon="10.4888344"><ele>238.4</ele><time>2026-03-29T07:08:59.702Z</time></trkpt><trkpt lat="45.5256967" lon="10.4888562"><ele>239.2</ele><time>2026-03-29T07:09:00.703Z</time></trkpt><trkpt lat="45.5258063" lon="10.4888723"><ele>240.0</ele><time>2026-03-29T07:09:01.702Z</time></trkpt><trkpt lat="45.5259149" lon="10.4888756"><ele>240.0</ele><time>2026-03-29T07:09:02.702Z</time></trkpt><trkpt lat="45.526018" lon="10.4888608"><ele>240.0</ele><time>2026-03-29T07:09:03.702Z</time></trkpt><trkpt lat="45.5261143" lon="10.4888484"><ele>240.0</ele><time>2026-03-29T07:09:04.702Z</time></trkpt><trkpt lat="45.5262102" lon="10.4888326"><ele>240.0</ele><time>2026-03-29T07:09:05.702Z</time></trkpt><trkpt lat="45.5263179" lon="10.4888172"><ele>240.0</ele><time>2026-03-29T07:09:06.702Z</time></trkpt><trkpt lat="45.5264164" lon="10.4888093"><ele>240.2</ele><time>2026-03-29T07:09:07.703Z</time></trkpt><trkpt lat="45.5264984" lon="10.488808"><ele>240.4</ele><time>2026-03-29T07:09:08.702Z</time></trkpt><trkpt lat="45.5266107" lon="10.4888198"><ele>240.60000000000002</ele><time>2026-03-29T07:09:09.703Z</time></trkpt><trkpt lat="45.5267095" lon="10.4888117"><ele>240.8</ele><time>2026-03-29T07:09:10.703Z</time></trkpt><trkpt lat="45.5267953" lon="10.4888125"><ele>241.0</ele><time>2026-03-29T07:09:11.702Z</time></trkpt><trkpt lat="45.5268695" lon="10.4888394"><ele>241.0</ele><time>2026-03-29T07:09:12.703Z</time></trkpt><trkpt lat="45.5269483" lon="10.488898"><ele>241.00000000000003</ele><time>2026-03-29T07:09:13.702Z</time></trkpt><trkpt lat="45.5270261" lon="10.4889692"><ele>241.00000000000003</ele><time>2026-03-29T07:09:14.702Z</time></trkpt><trkpt lat="45.5271327" lon="10.4890441"><ele>241.0</ele><time>2026-03-29T07:09:15.702Z</time></trkpt><trkpt lat="45.5272209" lon="10.4890919"><ele>241.0</ele><time>2026-03-29T07:09:16.704Z</time></trkpt><trkpt lat="45.527304" lon="10.4891189"><ele>241.4</ele><time>2026-03-29T07:09:17.703Z</time></trkpt><trkpt lat="45.5273942" lon="10.4891202"><ele>241.8</ele><time>2026-03-29T07:09:18.703Z</time></trkpt><trkpt lat="45.5274935" lon="10.4891126"><ele>242.20000000000002</ele><time>2026-03-29T07:09:19.702Z</time></trkpt><trkpt lat="45.5276155" lon="10.4890949"><ele>242.60000000000002</ele><time>2026-03-29T07:09:20.702Z</time></trkpt><trkpt lat="45.5277403" lon="10.4890673"><ele>243.0</ele><time>2026-03-29T07:09:21.702Z</time></trkpt><trkpt lat="45.5278453" lon="10.4890551"><ele>244.0</ele><time>2026-03-29T07:09:22.702Z</time></trkpt><trkpt lat="45.5279447" lon="10.4890525"><ele>245.0</ele><time>2026-03-29T07:09:23.702Z</time></trkpt><trkpt lat="45.5280317" lon="10.4890767"><ele>246.0</ele><time>2026-03-29T07:09:24.704Z</time></trkpt><trkpt lat="45.5281054" lon="10.489121"><ele>247.0</ele><time>2026-03-29T07:09:25.702Z</time></trkpt><trkpt lat="45.5281679" lon="10.4891753"><ele>248.0</ele><time>2026-03-29T07:09:26.702Z</time></trkpt><trkpt lat="45.5282125" lon="10.4892436"><ele>249.0</ele><time>2026-03-29T07:09:27.702Z</time></trkpt><trkpt lat="45.5282394" lon="10.4893284"><ele>249.0</ele><time>2026-03-29T07:09:28.703Z</time></trkpt><trkpt lat="45.5282473" lon="10.489423"><ele>248.99999999999997</ele><time>2026-03-29T07:09:29.703Z</time></trkpt><trkpt lat="45.5282449" lon="10.4895238"><ele>248.99999999999997</ele><time>2026-03-29T07:09:30.702Z</time></trkpt><trkpt lat="45.5282776" lon="10.4896388"><ele>249.0</ele><time>2026-03-29T07:09:32.703Z</time></trkpt><trkpt lat="45.5283552" lon="10.4897145"><ele>249.0</ele><time>2026-03-29T07:09:34.702Z</time></trkpt><trkpt lat="45.5284805" lon="10.489773"><ele>249.66666666666666</ele><time>2026-03-29T07:09:36.702Z</time></trkpt><trkpt lat="45.5285566" lon="10.4898113"><ele>250.33333333333331</ele><time>2026-03-29T07:09:37.702Z</time></trkpt><trkpt lat="45.5286366" lon="10.4898541"><ele>251.0</ele><time>2026-03-29T07:09:38.703Z</time></trkpt><trkpt lat="45.528706" lon="10.4899042"><ele>251.66666666666666</ele><time>2026-03-29T07:09:39.703Z</time></trkpt><trkpt lat="45.5287883" lon="10.4899634"><ele>252.33333333333331</ele><time>2026-03-29T07:09:40.703Z</time></trkpt><trkpt lat="45.5288555" lon="10.4900023"><ele>253.0</ele><time>2026-03-29T07:09:41.703Z</time></trkpt><trkpt lat="45.5289188" lon="10.490037"><ele>253.49999999999997</ele><time>2026-03-29T07:09:42.703Z</time></trkpt><trkpt lat="45.5289819" lon="10.4900711"><ele>254.0</ele><time>2026-03-29T07:09:43.703Z</time></trkpt><trkpt lat="45.5290406" lon="10.4901043"><ele>254.5</ele><time>2026-03-29T07:09:44.703Z</time></trkpt><trkpt lat="45.5291347" lon="10.49014"><ele>255.0</ele><time>2026-03-29T07:09:46.702Z</time></trkpt><trkpt lat="45.5292272" lon="10.4901304"><ele>255.49999999999997</ele><time>2026-03-29T07:09:49.702Z</time></trkpt><trkpt lat="45.5293036" lon="10.4900479"><ele>256.0</ele><time>2026-03-29T07:09:51.703Z</time></trkpt><trkpt lat="45.5294011" lon="10.4899961"><ele>256.0</ele><time>2026-03-29T07:09:53.702Z</time></trkpt><trkpt lat="45.5294642" lon="10.4900049"><ele>256.0</ele><time>2026-03-29T07:09:54.702Z</time></trkpt><trkpt lat="45.5295424" lon="10.4900323"><ele>256.0</ele><time>2026-03-29T07:09:55.703Z</time></trkpt><trkpt lat="45.5296329" lon="10.490081"><ele>256.0</ele><time>2026-03-29T07:09:56.703Z</time></trkpt><trkpt lat="45.5297279" lon="10.4901524"><ele>256.0</ele><time>2026-03-29T07:09:57.703Z</time></trkpt><trkpt lat="45.5298237" lon="10.490233"><ele>255.99999999999997</ele><time>2026-03-29T07:09:58.704Z</time></trkpt><trkpt lat="45.5298982" lon="10.4903068"><ele>256.0</ele><time>2026-03-29T07:09:59.703Z</time></trkpt><trkpt lat="45.5299661" lon="10.4903728"><ele>256.0</ele><time>2026-03-29T07:10:00.703Z</time></trkpt><trkpt lat="45.5300249" lon="10.490434"><ele>256.0</ele><time>2026-03-29T07:10:01.702Z</time></trkpt><trkpt lat="45.5300814" lon="10.4904975"><ele>255.99999999999997</ele><time>2026-03-29T07:10:02.703Z</time></trkpt><trkpt lat="45.5301364" lon="10.4905653"><ele>256.0</ele><time>2026-03-29T07:10:03.703Z</time></trkpt><trkpt lat="45.5301881" lon="10.4906284"><ele>255.99999999999997</ele><time>2026-03-29T07:10:04.702Z</time></trkpt><trkpt lat="45.5302343" lon="10.4906988"><ele>256.0</ele><time>2026-03-29T07:10:05.702Z</time></trkpt><trkpt lat="45.5302856" lon="10.4907869"><ele>256.0</ele><time>2026-03-29T07:10:06.703Z</time></trkpt><trkpt lat="45.5303261" lon="10.4908816"><ele>256.0</ele><time>2026-03-29T07:10:07.702Z</time></trkpt><trkpt lat="45.5303662" lon="10.4909777"><ele>255.99999999999997</ele><time>2026-03-29T07:10:08.703Z</time></trkpt><trkpt lat="45.5304132" lon="10.4910617"><ele>256.0</ele><time>2026-03-29T07:10:09.702Z</time></trkpt><trkpt lat="45.5304631" lon="10.4911383"><ele>255.83333333333331</ele><time>2026-03-29T07:10:10.702Z</time></trkpt><trkpt lat="45.5305283" lon="10.4912203"><ele>255.66666666666666</ele><time>2026-03-29T07:10:11.702Z</time></trkpt><trkpt lat="45.5305898" lon="10.491304"><ele>255.5</ele><time>2026-03-29T07:10:12.702Z</time></trkpt><trkpt lat="45.5306447" lon="10.4913929"><ele>255.33333333333331</ele><time>2026-03-29T07:10:13.703Z</time></trkpt><trkpt lat="45.5306932" lon="10.4914745"><ele>255.16666666666666</ele><time>2026-03-29T07:10:14.703Z</time></trkpt><trkpt lat="45.5307443" lon="10.491561"><ele>255.0</ele><time>2026-03-29T07:10:15.702Z</time></trkpt><trkpt lat="45.5307888" lon="10.4916421"><ele>255.0</ele><time>2026-03-29T07:10:16.702Z</time></trkpt><trkpt lat="45.5308342" lon="10.4917275"><ele>255.0</ele><time>2026-03-29T07:10:17.703Z</time></trkpt><trkpt lat="45.5308782" lon="10.491822"><ele>255.0</ele><time>2026-03-29T07:10:18.703Z</time></trkpt><trkpt lat="45.5309142" lon="10.4919261"><ele>255.0</ele><time>2026-03-29T07:10:19.702Z</time></trkpt><trkpt lat="45.5309535" lon="10.492025"><ele>255.0</ele><time>2026-03-29T07:10:20.702Z</time></trkpt><trkpt lat="45.5309707" lon="10.4921334"><ele>255.0</ele><time>2026-03-29T07:10:21.702Z</time></trkpt><trkpt lat="45.5309897" lon="10.4922394"><ele>255.57142857142858</ele><time>2026-03-29T07:10:22.703Z</time></trkpt><trkpt lat="45.5309927" lon="10.4923395"><ele>256.14285714285717</ele><time>2026-03-29T07:10:23.703Z</time></trkpt><trkpt lat="45.5310132" lon="10.4924374"><ele>256.7142857142857</ele><time>2026-03-29T07:10:24.702Z</time></trkpt><trkpt lat="45.5310344" lon="10.4925295"><ele>257.2857142857143</ele><time>2026-03-29T07:10:25.702Z</time></trkpt><trkpt lat="45.5310673" lon="10.4926138"><ele>257.8571428571429</ele><time>2026-03-29T07:10:26.702Z</time></trkpt><trkpt lat="45.5311185" lon="10.4927052"><ele>258.42857142857144</ele><time>2026-03-29T07:10:27.703Z</time></trkpt><trkpt lat="45.5311788" lon="10.4927806"><ele>259.0</ele><time>2026-03-29T07:10:28.703Z</time></trkpt><trkpt lat="45.5312579" lon="10.4928675"><ele>256.2</ele><time>2026-03-29T07:10:29.703Z</time></trkpt><trkpt lat="45.5313382" lon="10.4929492"><ele>253.39999999999998</ele><time>2026-03-29T07:10:30.704Z</time></trkpt><trkpt lat="45.5314186" lon="10.4930219"><ele>250.6</ele><time>2026-03-29T07:10:31.702Z</time></trkpt><trkpt lat="45.5314941" lon="10.4930992"><ele>247.8</ele><time>2026-03-29T07:10:32.702Z</time></trkpt><trkpt lat="45.5315774" lon="10.4931695"><ele>245.0</ele><time>2026-03-29T07:10:33.702Z</time></trkpt><trkpt lat="45.531665" lon="10.4932307"><ele>245.0</ele><time>2026-03-29T07:10:34.703Z</time></trkpt><trkpt lat="45.5317492" lon="10.4932906"><ele>245.0</ele><time>2026-03-29T07:10:35.704Z</time></trkpt><trkpt lat="45.5318445" lon="10.4933501"><ele>245.0</ele><time>2026-03-29T07:10:36.702Z</time></trkpt><trkpt lat="45.5319255" lon="10.4934043"><ele>245.0</ele><time>2026-03-29T07:10:37.702Z</time></trkpt><trkpt lat="45.5320179" lon="10.4934337"><ele>245.0</ele><time>2026-03-29T07:10:38.703Z</time></trkpt><trkpt lat="45.5321052" lon="10.4934645"><ele>245.00000000000003</ele><time>2026-03-29T07:10:39.702Z</time></trkpt><trkpt lat="45.5321796" lon="10.4935158"><ele>245.0</ele><time>2026-03-29T07:10:40.702Z</time></trkpt><trkpt lat="45.5322434" lon="10.4935899"><ele>245.0</ele><time>2026-03-29T07:10:41.703Z</time></trkpt><trkpt lat="45.5323017" lon="10.4936843"><ele>245.0</ele><time>2026-03-29T07:10:42.702Z</time></trkpt><trkpt lat="45.532359" lon="10.4937627"><ele>245.00000000000003</ele><time>2026-03-29T07:10:43.703Z</time></trkpt><trkpt lat="45.5324259" lon="10.493837"><ele>245.0</ele><time>2026-03-29T07:10:44.703Z</time></trkpt><trkpt lat="45.5325194" lon="10.4939101"><ele>245.0</ele><time>2026-03-29T07:10:45.702Z</time></trkpt><trkpt lat="45.5326242" lon="10.4939768"><ele>245.0</ele><time>2026-03-29T07:10:46.703Z</time></trkpt><trkpt lat="45.5327195" lon="10.4940255"><ele>245.0</ele><time>2026-03-29T07:10:47.703Z</time></trkpt><trkpt lat="45.5328023" lon="10.4940585"><ele>245.0</ele><time>2026-03-29T07:10:48.704Z</time></trkpt><trkpt lat="45.5328852" lon="10.4940825"><ele>245.0</ele><time>2026-03-29T07:10:49.702Z</time></trkpt><trkpt lat="45.5329639" lon="10.4940682"><ele>244.83333333333334</ele><time>2026-03-29T07:10:50.702Z</time></trkpt><trkpt lat="45.5330363" lon="10.494068"><ele>244.66666666666669</ele><time>2026-03-29T07:10:51.703Z</time></trkpt><trkpt lat="45.5331582" lon="10.4940962"><ele>244.5</ele><time>2026-03-29T07:10:53.703Z</time></trkpt><trkpt lat="45.5332064" lon="10.4941573"><ele>244.33333333333331</ele><time>2026-03-29T07:10:54.702Z</time></trkpt><trkpt lat="45.533253" lon="10.4942361"><ele>244.16666666666666</ele><time>2026-03-29T07:10:55.702Z</time></trkpt><trkpt lat="45.5333152" lon="10.4943087"><ele>244.0</ele><time>2026-03-29T07:10:56.702Z</time></trkpt><trkpt lat="45.5333838" lon="10.4943731"><ele>244.0</ele><time>2026-03-29T07:10:57.702Z</time></trkpt><trkpt lat="45.5334726" lon="10.4944307"><ele>243.99999999999997</ele><time>2026-03-29T07:10:58.702Z</time></trkpt><trkpt lat="45.5335696" lon="10.4944786"><ele>243.99999999999997</ele><time>2026-03-29T07:10:59.702Z</time></trkpt><trkpt lat="45.5336565" lon="10.4945075"><ele>244.0</ele><time>2026-03-29T07:11:00.703Z</time></trkpt><trkpt lat="45.5337389" lon="10.4945267"><ele>244.0</ele><time>2026-03-29T07:11:01.703Z</time></trkpt><trkpt lat="45.5338185" lon="10.4945447"><ele>243.49999999999997</ele><time>2026-03-29T07:11:02.702Z</time></trkpt><trkpt lat="45.5338971" lon="10.4945662"><ele>243.0</ele><time>2026-03-29T07:11:03.703Z</time></trkpt><trkpt lat="45.5339721" lon="10.4945899"><ele>242.5</ele><time>2026-03-29T07:11:04.703Z</time></trkpt><trkpt lat="45.5340484" lon="10.4946158"><ele>242.0</ele><time>2026-03-29T07:11:05.702Z</time></trkpt><trkpt lat="45.5341273" lon="10.4946437"><ele>241.49999999999997</ele><time>2026-03-29T07:11:06.702Z</time></trkpt><trkpt lat="45.5342033" lon="10.494681"><ele>241.0</ele><time>2026-03-29T07:11:07.702Z</time></trkpt><trkpt lat="45.5342803" lon="10.4947234"><ele>240.16666666666666</ele><time>2026-03-29T07:11:08.703Z</time></trkpt><trkpt lat="45.5343574" lon="10.4947607"><ele>239.33333333333331</ele><time>2026-03-29T07:11:09.703Z</time></trkpt><trkpt lat="45.5344326" lon="10.4947841"><ele>238.5</ele><time>2026-03-29T07:11:10.702Z</time></trkpt><trkpt lat="45.5345111" lon="10.4948008"><ele>237.66666666666669</ele><time>2026-03-29T07:11:11.702Z</time></trkpt><trkpt lat="45.5345834" lon="10.4948377"><ele>236.83333333333334</ele><time>2026-03-29T07:11:12.703Z</time></trkpt><trkpt lat="45.5346596" lon="10.4948747"><ele>236.0</ele><time>2026-03-29T07:11:13.703Z</time></trkpt><trkpt lat="45.5347549" lon="10.4949428"><ele>235.8</ele><time>2026-03-29T07:11:14.703Z</time></trkpt><trkpt lat="45.5348401" lon="10.4949986"><ele>235.60000000000002</ele><time>2026-03-29T07:11:15.702Z</time></trkpt><trkpt lat="45.5349282" lon="10.4950476"><ele>235.4</ele><time>2026-03-29T07:11:16.703Z</time></trkpt><trkpt lat="45.5350175" lon="10.4950796"><ele>235.2</ele><time>2026-03-29T07:11:17.703Z</time></trkpt><trkpt lat="45.5351094" lon="10.4950978"><ele>235.0</ele><time>2026-03-29T07:11:18.702Z</time></trkpt><trkpt lat="45.5352091" lon="10.4951173"><ele>235.0</ele><time>2026-03-29T07:11:19.703Z</time></trkpt><trkpt lat="45.5353056" lon="10.4951285"><ele>235.0</ele><time>2026-03-29T07:11:20.702Z</time></trkpt><trkpt lat="45.5353962" lon="10.4951414"><ele>235.0</ele><time>2026-03-29T07:11:21.702Z</time></trkpt><trkpt lat="45.5354847" lon="10.4951519"><ele>235.0</ele><time>2026-03-29T07:11:22.702Z</time></trkpt><trkpt lat="45.5355754" lon="10.4951754"><ele>235.0</ele><time>2026-03-29T07:11:23.703Z</time></trkpt><trkpt lat="45.5356675" lon="10.4952161"><ele>234.8</ele><time>2026-03-29T07:11:24.703Z</time></trkpt><trkpt lat="45.5357569" lon="10.4952713"><ele>234.6</ele><time>2026-03-29T07:11:25.702Z</time></trkpt><trkpt lat="45.535835" lon="10.4953308"><ele>234.39999999999998</ele><time>2026-03-29T07:11:26.702Z</time></trkpt><trkpt lat="45.5359174" lon="10.4954002"><ele>234.2</ele><time>2026-03-29T07:11:27.703Z</time></trkpt><trkpt lat="45.5359924" lon="10.4954749"><ele>234.0</ele><time>2026-03-29T07:11:28.703Z</time></trkpt><trkpt lat="45.5360676" lon="10.4955523"><ele>234.79999999999998</ele><time>2026-03-29T07:11:29.702Z</time></trkpt><trkpt lat="45.5361418" lon="10.4956344"><ele>235.59999999999997</ele><time>2026-03-29T07:11:30.702Z</time></trkpt><trkpt lat="45.5362217" lon="10.4957108"><ele>236.4</ele><time>2026-03-29T07:11:31.702Z</time></trkpt><trkpt lat="45.5362954" lon="10.4958016"><ele>237.2</ele><time>2026-03-29T07:11:32.703Z</time></trkpt><trkpt lat="45.5363515" lon="10.4959081"><ele>238.0</ele><time>2026-03-29T07:11:33.703Z</time></trkpt><trkpt lat="45.5364034" lon="10.4960124"><ele>238.0</ele><time>2026-03-29T07:11:34.703Z</time></trkpt><trkpt lat="45.5364636" lon="10.4961045"><ele>238.0</ele><time>2026-03-29T07:11:35.702Z</time></trkpt><trkpt lat="45.536529" lon="10.4961822"><ele>238.0</ele><time>2026-03-29T07:11:36.702Z</time></trkpt><trkpt lat="45.5366048" lon="10.496235"><ele>238.0</ele><time>2026-03-29T07:11:37.702Z</time></trkpt><trkpt lat="45.5366969" lon="10.4962778"><ele>238.0</ele><time>2026-03-29T07:11:38.703Z</time></trkpt><trkpt lat="45.5367929" lon="10.4963012"><ele>237.4</ele><time>2026-03-29T07:11:39.702Z</time></trkpt><trkpt lat="45.5368671" lon="10.4963191"><ele>236.8</ele><time>2026-03-29T07:11:40.702Z</time></trkpt><trkpt lat="45.5369606" lon="10.4963622"><ele>236.2</ele><time>2026-03-29T07:11:41.702Z</time></trkpt><trkpt lat="45.5370643" lon="10.4964"><ele>235.6</ele><time>2026-03-29T07:11:42.703Z</time></trkpt><trkpt lat="45.5371783" lon="10.4964254"><ele>235.0</ele><time>2026-03-29T07:11:43.702Z</time></trkpt><trkpt lat="45.5373009" lon="10.4964254"><ele>235.0</ele><time>2026-03-29T07:11:44.702Z</time></trkpt><trkpt lat="45.5374251" lon="10.4964016"><ele>235.0</ele><time>2026-03-29T07:11:45.703Z</time></trkpt><trkpt lat="45.5375573" lon="10.4963664"><ele>235.0</ele><time>2026-03-29T07:11:46.704Z</time></trkpt><trkpt lat="45.5376874" lon="10.4963332"><ele>235.0</ele><time>2026-03-29T07:11:47.703Z</time></trkpt><trkpt lat="45.5378169" lon="10.4962952"><ele>234.75</ele><time>2026-03-29T07:11:48.702Z</time></trkpt><trkpt lat="45.5379435" lon="10.4962551"><ele>234.5</ele><time>2026-03-29T07:11:49.702Z</time></trkpt><trkpt lat="45.5380551" lon="10.4962146"><ele>234.25</ele><time>2026-03-29T07:11:50.702Z</time></trkpt><trkpt lat="45.5381639" lon="10.4961753"><ele>234.0</ele><time>2026-03-29T07:11:51.703Z</time></trkpt><trkpt lat="45.5382756" lon="10.4961433"><ele>234.75</ele><time>2026-03-29T07:11:52.702Z</time></trkpt><trkpt lat="45.5383864" lon="10.496123"><ele>235.5</ele><time>2026-03-29T07:11:53.703Z</time></trkpt><trkpt lat="45.5384968" lon="10.4961114"><ele>236.25</ele><time>2026-03-29T07:11:54.703Z</time></trkpt><trkpt lat="45.5386157" lon="10.4961002"><ele>237.0</ele><time>2026-03-29T07:11:55.702Z</time></trkpt><trkpt lat="45.5387471" lon="10.4960895"><ele>237.0</ele><time>2026-03-29T07:11:56.702Z</time></trkpt><trkpt lat="45.5388863" lon="10.4960737"><ele>237.0</ele><time>2026-03-29T07:11:57.703Z</time></trkpt><trkpt lat="45.5390351" lon="10.4960556"><ele>237.0</ele><time>2026-03-29T07:11:58.703Z</time></trkpt><trkpt lat="45.5391842" lon="10.4960352"><ele>237.0</ele><time>2026-03-29T07:11:59.703Z</time></trkpt><trkpt lat="45.5393364" lon="10.4959968"><ele>237.0</ele><time>2026-03-29T07:12:00.702Z</time></trkpt><trkpt lat="45.5394863" lon="10.4959399"><ele>237.0</ele><time>2026-03-29T07:12:01.703Z</time></trkpt><trkpt lat="45.5396352" lon="10.4958725"><ele>237.0</ele><time>2026-03-29T07:12:02.702Z</time></trkpt><trkpt lat="45.5397821" lon="10.4958162"><ele>238.0</ele><time>2026-03-29T07:12:03.703Z</time></trkpt><trkpt lat="45.5399247" lon="10.495766"><ele>239.0</ele><time>2026-03-29T07:12:04.702Z</time></trkpt><trkpt lat="45.54007" lon="10.4957256"><ele>240.0</ele><time>2026-03-29T07:12:05.702Z</time></trkpt><trkpt lat="45.540213" lon="10.4957122"><ele>241.0</ele><time>2026-03-29T07:12:06.703Z</time></trkpt><trkpt lat="45.5403592" lon="10.4957209"><ele>241.33333333333331</ele><time>2026-03-29T07:12:07.702Z</time></trkpt><trkpt lat="45.5405115" lon="10.4957236"><ele>241.66666666666669</ele><time>2026-03-29T07:12:08.702Z</time></trkpt><trkpt lat="45.5406671" lon="10.4957205"><ele>242.0</ele><time>2026-03-29T07:12:09.702Z</time></trkpt><trkpt lat="45.5408265" lon="10.495726"><ele>242.0</ele><time>2026-03-29T07:12:10.702Z</time></trkpt><trkpt lat="45.5409847" lon="10.4957485"><ele>242.0</ele><time>2026-03-29T07:12:11.702Z</time></trkpt><trkpt lat="45.541131" lon="10.4957732"><ele>242.0</ele><time>2026-03-29T07:12:12.702Z</time></trkpt><trkpt lat="45.5412605" lon="10.4957925"><ele>242.0</ele><time>2026-03-29T07:12:13.702Z</time></trkpt><trkpt lat="45.5413663" lon="10.4958073"><ele>242.00000000000003</ele><time>2026-03-29T07:12:14.702Z</time></trkpt><trkpt lat="45.541458" lon="10.4958246"><ele>242.0</ele><time>2026-03-29T07:12:15.702Z</time></trkpt><trkpt lat="45.5415487" lon="10.4958494"><ele>242.0</ele><time>2026-03-29T07:12:16.702Z</time></trkpt><trkpt lat="45.5416284" lon="10.4958982"><ele>242.0</ele><time>2026-03-29T07:12:17.702Z</time></trkpt><trkpt lat="45.5416891" lon="10.495981"><ele>242.00000000000003</ele><time>2026-03-29T07:12:18.702Z</time></trkpt><trkpt lat="45.5417371" lon="10.4960913"><ele>242.0</ele><time>2026-03-29T07:12:19.703Z</time></trkpt><trkpt lat="45.5417793" lon="10.4962187"><ele>241.25</ele><time>2026-03-29T07:12:20.703Z</time></trkpt><trkpt lat="45.5418445" lon="10.4963267"><ele>240.5</ele><time>2026-03-29T07:12:21.703Z</time></trkpt><trkpt lat="45.5419322" lon="10.4963947"><ele>239.75</ele><time>2026-03-29T07:12:22.703Z</time></trkpt><trkpt lat="45.5420446" lon="10.4964302"><ele>239.0</ele><time>2026-03-29T07:12:23.702Z</time></trkpt><trkpt lat="45.5421795" lon="10.4964684"><ele>239.0</ele><time>2026-03-29T07:12:24.703Z</time></trkpt><trkpt lat="45.542331" lon="10.496516"><ele>239.0</ele><time>2026-03-29T07:12:25.703Z</time></trkpt><trkpt lat="45.5424964" lon="10.4965585"><ele>239.0</ele><time>2026-03-29T07:12:26.703Z</time></trkpt><trkpt lat="45.5426732" lon="10.4965967"><ele>239.0</ele><time>2026-03-29T07:12:27.703Z</time></trkpt><trkpt lat="45.5428562" lon="10.4966069"><ele>239.0</ele><time>2026-03-29T07:12:28.702Z</time></trkpt><trkpt lat="45.5430396" lon="10.496609"><ele>239.0</ele><time>2026-03-29T07:12:29.702Z</time></trkpt><trkpt lat="45.5432202" lon="10.4966125"><ele>240.33333333333334</ele><time>2026-03-29T07:12:30.702Z</time></trkpt><trkpt lat="45.5434115" lon="10.4966164"><ele>241.66666666666669</ele><time>2026-03-29T07:12:31.702Z</time></trkpt><trkpt lat="45.5436151" lon="10.4966282"><ele>243.0</ele><time>2026-03-29T07:12:32.702Z</time></trkpt><trkpt lat="45.5438326" lon="10.4966506"><ele>243.0</ele><time>2026-03-29T07:12:33.703Z</time></trkpt><trkpt lat="45.5440542" lon="10.496688"><ele>243.0</ele><time>2026-03-29T07:12:34.703Z</time></trkpt><trkpt lat="45.5442605" lon="10.4967463"><ele>243.0</ele><time>2026-03-29T07:12:35.703Z</time></trkpt><trkpt lat="45.5444496" lon="10.4968195"><ele>246.0</ele><time>2026-03-29T07:12:36.703Z</time></trkpt><trkpt lat="45.544621" lon="10.4968893"><ele>249.0</ele><time>2026-03-29T07:12:37.704Z</time></trkpt><trkpt lat="45.5447802" lon="10.4969561"><ele>252.0</ele><time>2026-03-29T07:12:38.702Z</time></trkpt><trkpt lat="45.5449376" lon="10.4970186"><ele>252.0</ele><time>2026-03-29T07:12:39.702Z</time></trkpt><trkpt lat="45.5450856" lon="10.4970783"><ele>252.0</ele><time>2026-03-29T07:12:40.702Z</time></trkpt><trkpt lat="45.545219" lon="10.4971444"><ele>252.0</ele><time>2026-03-29T07:12:41.702Z</time></trkpt><trkpt lat="45.5453383" lon="10.4972179"><ele>252.0</ele><time>2026-03-29T07:12:42.702Z</time></trkpt><trkpt lat="45.5454466" lon="10.497328"><ele>252.75</ele><time>2026-03-29T07:12:43.702Z</time></trkpt><trkpt lat="45.5455488" lon="10.4974539"><ele>253.5</ele><time>2026-03-29T07:12:44.703Z</time></trkpt><trkpt lat="45.5456436" lon="10.4975893"><ele>254.25</ele><time>2026-03-29T07:12:45.703Z</time></trkpt><trkpt lat="45.545724" lon="10.4977251"><ele>255.0</ele><time>2026-03-29T07:12:46.703Z</time></trkpt><trkpt lat="45.5458049" lon="10.4978445"><ele>253.5</ele><time>2026-03-29T07:12:47.702Z</time></trkpt><trkpt lat="45.5458758" lon="10.4979534"><ele>252.0</ele><time>2026-03-29T07:12:48.702Z</time></trkpt><trkpt lat="45.5459344" lon="10.4980378"><ele>250.5</ele><time>2026-03-29T07:12:49.702Z</time></trkpt><trkpt lat="45.5459824" lon="10.4981147"><ele>249.0</ele><time>2026-03-29T07:12:50.702Z</time></trkpt><trkpt lat="45.5460499" lon="10.4982138"><ele>247.5</ele><time>2026-03-29T07:12:52.702Z</time></trkpt><trkpt lat="45.5461233" lon="10.498234"><ele>246.0</ele><time>2026-03-29T07:13:00.703Z</time></trkpt><trkpt lat="45.5461436" lon="10.4981442"><ele>246.0</ele><time>2026-03-29T07:13:02.702Z</time></trkpt><trkpt lat="45.546099" lon="10.4980361"><ele>246.00000000000003</ele><time>2026-03-29T07:13:03.702Z</time></trkpt><trkpt lat="45.5460577" lon="10.4979285"><ele>246.00000000000003</ele><time>2026-03-29T07:13:04.703Z</time></trkpt><trkpt lat="45.5460169" lon="10.4978103"><ele>246.0</ele><time>2026-03-29T07:13:05.703Z</time></trkpt><trkpt lat="45.5459722" lon="10.4976771"><ele>246.0</ele><time>2026-03-29T07:13:06.702Z</time></trkpt><trkpt lat="45.5459228" lon="10.4975319"><ele>248.25</ele><time>2026-03-29T07:13:07.703Z</time></trkpt><trkpt lat="45.5458679" lon="10.4973845"><ele>250.5</ele><time>2026-03-29T07:13:08.703Z</time></trkpt><trkpt lat="45.5458102" lon="10.4972381"><ele>252.75</ele><time>2026-03-29T07:13:09.702Z</time></trkpt><trkpt lat="45.5457598" lon="10.4970815"><ele>255.0</ele><time>2026-03-29T07:13:10.703Z</time></trkpt><trkpt lat="45.5457135" lon="10.4969219"><ele>255.33333333333334</ele><time>2026-03-29T07:13:11.702Z</time></trkpt><trkpt lat="45.5456707" lon="10.4967798"><ele>255.66666666666669</ele><time>2026-03-29T07:13:12.702Z</time></trkpt><trkpt lat="45.5456334" lon="10.4966636"><ele>256.0</ele><time>2026-03-29T07:13:13.702Z</time></trkpt><trkpt lat="45.5456092" lon="10.49657"><ele>256.33333333333337</ele><time>2026-03-29T07:13:14.703Z</time></trkpt><trkpt lat="45.54564" lon="10.4964568"><ele>256.6666666666667</ele><time>2026-03-29T07:13:16.702Z</time></trkpt><trkpt lat="45.5457082" lon="10.4964157"><ele>257.0</ele><time>2026-03-29T07:13:18.702Z</time></trkpt><trkpt lat="45.545839" lon="10.4964119"><ele>257.0</ele><time>2026-03-29T07:13:20.702Z</time></trkpt><trkpt lat="45.5459143" lon="10.4964155"><ele>257.0</ele><time>2026-03-29T07:13:21.703Z</time></trkpt><trkpt lat="45.5459907" lon="10.4964172"><ele>257.0</ele><time>2026-03-29T07:13:22.702Z</time></trkpt><trkpt lat="45.5460652" lon="10.4964206"><ele>257.0</ele><time>2026-03-29T07:13:23.703Z</time></trkpt><trkpt lat="45.5461357" lon="10.4964167"><ele>257.0</ele><time>2026-03-29T07:13:24.703Z</time></trkpt><trkpt lat="45.546206" lon="10.4964133"><ele>257.0</ele><time>2026-03-29T07:13:25.703Z</time></trkpt><trkpt lat="45.5462777" lon="10.4964124"><ele>257.0</ele><time>2026-03-29T07:13:26.702Z</time></trkpt><trkpt lat="45.5463484" lon="10.4964065"><ele>256.8</ele><time>2026-03-29T07:13:27.702Z</time></trkpt><trkpt lat="45.5464728" lon="10.4963741"><ele>256.6</ele><time>2026-03-29T07:13:29.703Z</time></trkpt><trkpt lat="45.546541" lon="10.4963313"><ele>256.40000000000003</ele><time>2026-03-29T07:13:30.702Z</time></trkpt><trkpt lat="45.5466038" lon="10.4962483"><ele>256.2</ele><time>2026-03-29T07:13:31.702Z</time></trkpt><trkpt lat="45.546674" lon="10.4961394"><ele>256.0</ele><time>2026-03-29T07:13:32.703Z</time></trkpt><trkpt lat="45.5467361" lon="10.4960286"><ele>256.0</ele><time>2026-03-29T07:13:33.703Z</time></trkpt><trkpt lat="45.5467961" lon="10.4959203"><ele>256.0</ele><time>2026-03-29T07:13:34.703Z</time></trkpt><trkpt lat="45.546843" lon="10.4957999"><ele>256.0</ele><time>2026-03-29T07:13:35.703Z</time></trkpt><trkpt lat="45.5468778" lon="10.4956653"><ele>256.0</ele><time>2026-03-29T07:13:36.704Z</time></trkpt><trkpt lat="45.5468959" lon="10.495546"><ele>256.0</ele><time>2026-03-29T07:13:37.702Z</time></trkpt><trkpt lat="45.5468934" lon="10.4954318"><ele>255.60000000000002</ele><time>2026-03-29T07:13:38.702Z</time></trkpt><trkpt lat="45.5468659" lon="10.4953429"><ele>255.20000000000002</ele><time>2026-03-29T07:13:39.703Z</time></trkpt><trkpt lat="45.5468167" lon="10.4952624"><ele>254.79999999999998</ele><time>2026-03-29T07:13:40.704Z</time></trkpt><trkpt lat="45.5467443" lon="10.4951495"><ele>254.39999999999998</ele><time>2026-03-29T07:13:41.703Z</time></trkpt><trkpt lat="45.5466684" lon="10.4950164"><ele>254.0</ele><time>2026-03-29T07:13:42.702Z</time></trkpt><trkpt lat="45.5466112" lon="10.4948917"><ele>254.0</ele><time>2026-03-29T07:13:43.702Z</time></trkpt><trkpt lat="45.5465644" lon="10.494767"><ele>253.99999999999997</ele><time>2026-03-29T07:13:44.702Z</time></trkpt><trkpt lat="45.5465359" lon="10.4946443"><ele>253.99999999999997</ele><time>2026-03-29T07:13:45.702Z</time></trkpt><trkpt lat="45.5465269" lon="10.4945304"><ele>254.0</ele><time>2026-03-29T07:13:46.702Z</time></trkpt><trkpt lat="45.5465439" lon="10.4944187"><ele>254.0</ele><time>2026-03-29T07:13:47.702Z</time></trkpt><trkpt lat="45.5465756" lon="10.4942836"><ele>253.75</ele><time>2026-03-29T07:13:48.702Z</time></trkpt><trkpt lat="45.5466092" lon="10.4941279"><ele>253.5</ele><time>2026-03-29T07:13:49.702Z</time></trkpt><trkpt lat="45.5466504" lon="10.4939718"><ele>253.25</ele><time>2026-03-29T07:13:50.703Z</time></trkpt><trkpt lat="45.5466901" lon="10.4938291"><ele>253.0</ele><time>2026-03-29T07:13:51.704Z</time></trkpt><trkpt lat="45.5467321" lon="10.493668"><ele>253.0</ele><time>2026-03-29T07:13:52.702Z</time></trkpt><trkpt lat="45.5467818" lon="10.4935142"><ele>253.0</ele><time>2026-03-29T07:13:53.703Z</time></trkpt><trkpt lat="45.5468473" lon="10.493386"><ele>253.0</ele><time>2026-03-29T07:13:54.702Z</time></trkpt><trkpt lat="45.5469299" lon="10.4932534"><ele>253.0</ele><time>2026-03-29T07:13:55.702Z</time></trkpt><trkpt lat="45.5470084" lon="10.4931243"><ele>252.75</ele><time>2026-03-29T07:13:56.703Z</time></trkpt><trkpt lat="45.54709" lon="10.4929855"><ele>252.5</ele><time>2026-03-29T07:13:57.703Z</time></trkpt><trkpt lat="45.5471592" lon="10.4928565"><ele>252.25</ele><time>2026-03-29T07:13:58.703Z</time></trkpt><trkpt lat="45.5472203" lon="10.4927118"><ele>252.0</ele><time>2026-03-29T07:13:59.702Z</time></trkpt><trkpt lat="45.5472766" lon="10.4925456"><ele>252.0</ele><time>2026-03-29T07:14:00.702Z</time></trkpt><trkpt lat="45.5473215" lon="10.4923904"><ele>252.0</ele><time>2026-03-29T07:14:01.702Z</time></trkpt><trkpt lat="45.5473588" lon="10.4922439"><ele>252.0</ele><time>2026-03-29T07:14:02.702Z</time></trkpt><trkpt lat="45.5473908" lon="10.4921103"><ele>252.0</ele><time>2026-03-29T07:14:03.703Z</time></trkpt><trkpt lat="45.5474192" lon="10.4919898"><ele>252.0</ele><time>2026-03-29T07:14:04.703Z</time></trkpt><trkpt lat="45.5474519" lon="10.4918536"><ele>251.8</ele><time>2026-03-29T07:14:05.703Z</time></trkpt><trkpt lat="45.5474874" lon="10.4916976"><ele>251.6</ele><time>2026-03-29T07:14:06.703Z</time></trkpt><trkpt lat="45.5475302" lon="10.4915395"><ele>251.40000000000003</ele><time>2026-03-29T07:14:07.702Z</time></trkpt><trkpt lat="45.5475803" lon="10.4914082"><ele>251.20000000000002</ele><time>2026-03-29T07:14:08.702Z</time></trkpt><trkpt lat="45.5476377" lon="10.4912912"><ele>251.0</ele><time>2026-03-29T07:14:09.702Z</time></trkpt><trkpt lat="45.5477092" lon="10.4911693"><ele>250.8</ele><time>2026-03-29T07:14:10.702Z</time></trkpt><trkpt lat="45.5477902" lon="10.491047"><ele>250.60000000000002</ele><time>2026-03-29T07:14:11.702Z</time></trkpt><trkpt lat="45.5478663" lon="10.4909226"><ele>250.4</ele><time>2026-03-29T07:14:12.703Z</time></trkpt><trkpt lat="45.5479264" lon="10.49081"><ele>250.2</ele><time>2026-03-29T07:14:13.702Z</time></trkpt><trkpt lat="45.5479753" lon="10.490698"><ele>250.0</ele><time>2026-03-29T07:14:14.704Z</time></trkpt><trkpt lat="45.5480187" lon="10.4905702"><ele>250.0</ele><time>2026-03-29T07:14:15.703Z</time></trkpt><trkpt lat="45.5480552" lon="10.4904383"><ele>250.0</ele><time>2026-03-29T07:14:16.702Z</time></trkpt><trkpt lat="45.5480954" lon="10.4903023"><ele>250.0</ele><time>2026-03-29T07:14:17.702Z</time></trkpt><trkpt lat="45.5481347" lon="10.4901557"><ele>250.0</ele><time>2026-03-29T07:14:18.702Z</time></trkpt><trkpt lat="45.5481737" lon="10.4900288"><ele>250.0</ele><time>2026-03-29T07:14:19.702Z</time></trkpt><trkpt lat="45.5482147" lon="10.4899208"><ele>249.99999999999997</ele><time>2026-03-29T07:14:20.703Z</time></trkpt><trkpt lat="45.5482536" lon="10.489827"><ele>250.0</ele><time>2026-03-29T07:14:21.702Z</time></trkpt><trkpt lat="45.5483033" lon="10.4897263"><ele>250.0</ele><time>2026-03-29T07:14:22.702Z</time></trkpt><trkpt lat="45.5483579" lon="10.4896432"><ele>250.0</ele><time>2026-03-29T07:14:23.703Z</time></trkpt><trkpt lat="45.5484151" lon="10.4895697"><ele>249.99999999999997</ele><time>2026-03-29T07:14:24.703Z</time></trkpt><trkpt lat="45.5484981" lon="10.4894701"><ele>250.0</ele><time>2026-03-29T07:14:25.703Z</time></trkpt><trkpt lat="45.548572" lon="10.4893965"><ele>250.0</ele><time>2026-03-29T07:14:26.702Z</time></trkpt><trkpt lat="45.5486494" lon="10.489316"><ele>250.0</ele><time>2026-03-29T07:14:27.702Z</time></trkpt><trkpt lat="45.5487196" lon="10.4892236"><ele>250.0</ele><time>2026-03-29T07:14:28.703Z</time></trkpt><trkpt lat="45.5487724" lon="10.4891097"><ele>250.0</ele><time>2026-03-29T07:14:29.702Z</time></trkpt><trkpt lat="45.5488214" lon="10.4889512"><ele>250.0</ele><time>2026-03-29T07:14:30.702Z</time></trkpt><trkpt lat="45.5488672" lon="10.4887831"><ele>249.75</ele><time>2026-03-29T07:14:31.703Z</time></trkpt><trkpt lat="45.5489159" lon="10.4886112"><ele>249.5</ele><time>2026-03-29T07:14:32.703Z</time></trkpt><trkpt lat="45.5489588" lon="10.4884557"><ele>249.25</ele><time>2026-03-29T07:14:33.702Z</time></trkpt><trkpt lat="45.5489933" lon="10.4883031"><ele>249.0</ele><time>2026-03-29T07:14:34.702Z</time></trkpt><trkpt lat="45.5490155" lon="10.4881587"><ele>249.0</ele><time>2026-03-29T07:14:35.703Z</time></trkpt><trkpt lat="45.5490348" lon="10.4880108"><ele>248.99999999999997</ele><time>2026-03-29T07:14:36.702Z</time></trkpt><trkpt lat="45.5490543" lon="10.4878639"><ele>248.99999999999997</ele><time>2026-03-29T07:14:37.702Z</time></trkpt><trkpt lat="45.5490783" lon="10.4877306"><ele>249.0</ele><time>2026-03-29T07:14:38.702Z</time></trkpt><trkpt lat="45.5491025" lon="10.4875968"><ele>249.0</ele><time>2026-03-29T07:14:39.703Z</time></trkpt><trkpt lat="45.5491199" lon="10.4874713"><ele>249.0</ele><time>2026-03-29T07:14:40.703Z</time></trkpt><trkpt lat="45.549129" lon="10.4873421"><ele>248.99999999999997</ele><time>2026-03-29T07:14:41.704Z</time></trkpt><trkpt lat="45.5491379" lon="10.48723"><ele>248.99999999999997</ele><time>2026-03-29T07:14:42.702Z</time></trkpt><trkpt lat="45.5491534" lon="10.487095"><ele>249.0</ele><time>2026-03-29T07:14:43.703Z</time></trkpt><trkpt lat="45.5491779" lon="10.4869643"><ele>249.0</ele><time>2026-03-29T07:14:44.703Z</time></trkpt><trkpt lat="45.5492113" lon="10.4868342"><ele>249.2</ele><time>2026-03-29T07:14:45.702Z</time></trkpt><trkpt lat="45.5492613" lon="10.4867099"><ele>249.39999999999998</ele><time>2026-03-29T07:14:46.702Z</time></trkpt><trkpt lat="45.5493214" lon="10.4866156"><ele>249.6</ele><time>2026-03-29T07:14:47.702Z</time></trkpt><trkpt lat="45.5493843" lon="10.4865332"><ele>249.8</ele><time>2026-03-29T07:14:48.702Z</time></trkpt><trkpt lat="45.5494602" lon="10.4864501"><ele>250.0</ele><time>2026-03-29T07:14:49.703Z</time></trkpt><trkpt lat="45.5495237" lon="10.4863765"><ele>249.83333333333331</ele><time>2026-03-29T07:14:50.702Z</time></trkpt><trkpt lat="45.5495819" lon="10.48632"><ele>249.66666666666666</ele><time>2026-03-29T07:14:51.702Z</time></trkpt><trkpt lat="45.5496253" lon="10.4862548"><ele>249.5</ele><time>2026-03-29T07:14:52.702Z</time></trkpt><trkpt lat="45.5496186" lon="10.4860911"><ele>249.33333333333331</ele><time>2026-03-29T07:14:54.702Z</time></trkpt><trkpt lat="45.5495656" lon="10.4859974"><ele>249.16666666666666</ele><time>2026-03-29T07:14:55.703Z</time></trkpt><trkpt lat="45.5494962" lon="10.4858913"><ele>249.0</ele><time>2026-03-29T07:14:56.704Z</time></trkpt><trkpt lat="45.5494267" lon="10.4857782"><ele>250.16666666666666</ele><time>2026-03-29T07:14:57.703Z</time></trkpt><trkpt lat="45.5493708" lon="10.4856819"><ele>251.33333333333331</ele><time>2026-03-29T07:14:58.703Z</time></trkpt><trkpt lat="45.5493299" lon="10.4855949"><ele>252.5</ele><time>2026-03-29T07:14:59.703Z</time></trkpt><trkpt lat="45.5493227" lon="10.4854573"><ele>253.66666666666666</ele><time>2026-03-29T07:15:01.702Z</time></trkpt><trkpt lat="45.5493402" lon="10.4853637"><ele>254.83333333333331</ele><time>2026-03-29T07:15:02.703Z</time></trkpt><trkpt lat="45.5493828" lon="10.4852613"><ele>256.0</ele><time>2026-03-29T07:15:03.703Z</time></trkpt><trkpt lat="45.5494458" lon="10.485172"><ele>255.20000000000002</ele><time>2026-03-29T07:15:04.702Z</time></trkpt><trkpt lat="45.5495175" lon="10.4850868"><ele>254.40000000000003</ele><time>2026-03-29T07:15:05.702Z</time></trkpt><trkpt lat="45.5495909" lon="10.4850175"><ele>253.6</ele><time>2026-03-29T07:15:06.702Z</time></trkpt><trkpt lat="45.5496792" lon="10.4849533"><ele>252.8</ele><time>2026-03-29T07:15:07.703Z</time></trkpt><trkpt lat="45.5497754" lon="10.4848667"><ele>252.0</ele><time>2026-03-29T07:15:08.703Z</time></trkpt><trkpt lat="45.5498565" lon="10.4847759"><ele>252.0</ele><time>2026-03-29T07:15:09.703Z</time></trkpt><trkpt lat="45.5499371" lon="10.4846816"><ele>252.0</ele><time>2026-03-29T07:15:10.702Z</time></trkpt><trkpt lat="45.5500274" lon="10.48458"><ele>252.0</ele><time>2026-03-29T07:15:11.702Z</time></trkpt><trkpt lat="45.5501203" lon="10.4844845"><ele>252.0</ele><time>2026-03-29T07:15:12.702Z</time></trkpt><trkpt lat="45.550224" lon="10.4844029"><ele>253.25</ele><time>2026-03-29T07:15:13.702Z</time></trkpt><trkpt lat="45.5503405" lon="10.4843305"><ele>254.5</ele><time>2026-03-29T07:15:14.702Z</time></trkpt><trkpt lat="45.5504521" lon="10.4842608"><ele>255.75</ele><time>2026-03-29T07:15:15.702Z</time></trkpt><trkpt lat="45.5505516" lon="10.4842017"><ele>257.0</ele><time>2026-03-29T07:15:16.703Z</time></trkpt><trkpt lat="45.5506441" lon="10.4841448"><ele>257.0</ele><time>2026-03-29T07:15:17.703Z</time></trkpt><trkpt lat="45.5507324" lon="10.4841165"><ele>257.0</ele><time>2026-03-29T07:15:18.703Z</time></trkpt><trkpt lat="45.5508158" lon="10.4841256"><ele>257.0</ele><time>2026-03-29T07:15:19.703Z</time></trkpt><trkpt lat="45.5509226" lon="10.4841747"><ele>257.0</ele><time>2026-03-29T07:15:20.703Z</time></trkpt><trkpt lat="45.5510314" lon="10.4842338"><ele>257.0</ele><time>2026-03-29T07:15:21.702Z</time></trkpt><trkpt lat="45.5511375" lon="10.4842861"><ele>259.0</ele><time>2026-03-29T07:15:22.702Z</time></trkpt><trkpt lat="45.5512488" lon="10.4843288"><ele>261.0</ele><time>2026-03-29T07:15:23.702Z</time></trkpt><trkpt lat="45.5513645" lon="10.4843702"><ele>263.0</ele><time>2026-03-29T07:15:24.702Z</time></trkpt><trkpt lat="45.5514768" lon="10.4843952"><ele>265.0</ele><time>2026-03-29T07:15:25.702Z</time></trkpt><trkpt lat="45.5515985" lon="10.4844273"><ele>265.0</ele><time>2026-03-29T07:15:26.702Z</time></trkpt><trkpt lat="45.55171" lon="10.4844777"><ele>265.0</ele><time>2026-03-29T07:15:27.702Z</time></trkpt><trkpt lat="45.5518094" lon="10.484539"><ele>265.0</ele><time>2026-03-29T07:15:28.702Z</time></trkpt><trkpt lat="45.5519056" lon="10.4845994"><ele>265.0</ele><time>2026-03-29T07:15:29.702Z</time></trkpt><trkpt lat="45.5519804" lon="10.4846495"><ele>265.0</ele><time>2026-03-29T07:15:30.702Z</time></trkpt><trkpt lat="45.55204" lon="10.4846904"><ele>264.5</ele><time>2026-03-29T07:15:31.702Z</time></trkpt><trkpt lat="45.5521172" lon="10.4847374"><ele>264.0</ele><time>2026-03-29T07:15:33.702Z</time></trkpt><trkpt lat="45.5522043" lon="10.4847874"><ele>263.5</ele><time>2026-03-29T07:15:36.702Z</time></trkpt><trkpt lat="45.5522847" lon="10.4848337"><ele>263.0</ele><time>2026-03-29T07:15:39.702Z</time></trkpt><trkpt lat="45.5523478" lon="10.4848789"><ele>262.5</ele><time>2026-03-29T07:15:48.703Z</time></trkpt><trkpt lat="45.5524256" lon="10.4849231"><ele>262.0</ele><time>2026-03-29T07:15:51.702Z</time></trkpt><trkpt lat="45.5524955" lon="10.4849572"><ele>262.0</ele><time>2026-03-29T07:15:54.703Z</time></trkpt><trkpt lat="45.5525642" lon="10.4849758"><ele>262.0</ele><time>2026-03-29T07:15:58.702Z</time></trkpt><trkpt lat="45.5526368" lon="10.4849738"><ele>262.0</ele><time>2026-03-29T07:16:09.702Z</time></trkpt><trkpt lat="45.552702" lon="10.4849088"><ele>262.0</ele><time>2026-03-29T07:16:12.702Z</time></trkpt><trkpt lat="45.5527404" lon="10.4848375"><ele>262.0</ele><time>2026-03-29T07:16:15.702Z</time></trkpt><trkpt lat="45.5527169" lon="10.4847466"><ele>262.0</ele><time>2026-03-29T07:16:18.703Z</time></trkpt><trkpt lat="45.5526315" lon="10.484709"><ele>262.0</ele><time>2026-03-29T07:16:20.702Z</time></trkpt><trkpt lat="45.5525166" lon="10.4846472"><ele>262.0</ele><time>2026-03-29T07:16:22.702Z</time></trkpt><trkpt lat="45.55245" lon="10.4846281"><ele>262.0</ele><time>2026-03-29T07:16:23.702Z</time></trkpt><trkpt lat="45.5523894" lon="10.48459"><ele>262.0</ele><time>2026-03-29T07:16:24.703Z</time></trkpt><trkpt lat="45.5523298" lon="10.4845548"><ele>262.0</ele><time>2026-03-29T07:16:25.703Z</time></trkpt><trkpt lat="45.5522351" lon="10.4844761"><ele>262.0</ele><time>2026-03-29T07:16:27.702Z</time></trkpt><trkpt lat="45.5521098" lon="10.4843395"><ele>262.5</ele><time>2026-03-29T07:16:29.702Z</time></trkpt><trkpt lat="45.5520096" lon="10.4842389"><ele>263.0</ele><time>2026-03-29T07:16:30.703Z</time></trkpt><trkpt lat="45.551945" lon="10.4841502"><ele>263.5</ele><time>2026-03-29T07:16:31.702Z</time></trkpt><trkpt lat="45.5518855" lon="10.4840702"><ele>264.0</ele><time>2026-03-29T07:16:32.702Z</time></trkpt><trkpt lat="45.5518333" lon="10.484012"><ele>264.5</ele><time>2026-03-29T07:16:33.702Z</time></trkpt><trkpt lat="45.551784" lon="10.48393"><ele>265.0</ele><time>2026-03-29T07:16:34.703Z</time></trkpt><trkpt lat="45.5517289" lon="10.4838415"><ele>266.2</ele><time>2026-03-29T07:16:35.703Z</time></trkpt><trkpt lat="45.5516734" lon="10.4837308"><ele>267.4</ele><time>2026-03-29T07:16:36.703Z</time></trkpt><trkpt lat="45.5516343" lon="10.4836099"><ele>268.6</ele><time>2026-03-29T07:16:37.703Z</time></trkpt><trkpt lat="45.5515853" lon="10.4834713"><ele>269.8</ele><time>2026-03-29T07:16:38.702Z</time></trkpt><trkpt lat="45.5515269" lon="10.4832989"><ele>271.0</ele><time>2026-03-29T07:16:39.702Z</time></trkpt><trkpt lat="45.551461" lon="10.4831302"><ele>271.0</ele><time>2026-03-29T07:16:40.702Z</time></trkpt><trkpt lat="45.5514185" lon="10.4829783"><ele>271.0</ele><time>2026-03-29T07:16:41.702Z</time></trkpt><trkpt lat="45.5513719" lon="10.4828129"><ele>271.0</ele><time>2026-03-29T07:16:42.703Z</time></trkpt><trkpt lat="45.5513239" lon="10.4826646"><ele>271.0</ele><time>2026-03-29T07:16:43.703Z</time></trkpt><trkpt lat="45.5512692" lon="10.4825337"><ele>270.75</ele><time>2026-03-29T07:16:44.703Z</time></trkpt><trkpt lat="45.5511907" lon="10.482384"><ele>270.5</ele><time>2026-03-29T07:16:45.702Z</time></trkpt><trkpt lat="45.551099" lon="10.4822218"><ele>270.25</ele><time>2026-03-29T07:16:46.702Z</time></trkpt><trkpt lat="45.5510092" lon="10.4820901"><ele>270.0</ele><time>2026-03-29T07:16:47.703Z</time></trkpt><trkpt lat="45.550901" lon="10.4819531"><ele>270.0</ele><time>2026-03-29T07:16:48.702Z</time></trkpt><trkpt lat="45.5507815" lon="10.4818232"><ele>270.0</ele><time>2026-03-29T07:16:49.703Z</time></trkpt><trkpt lat="45.5506585" lon="10.481712"><ele>270.0</ele><time>2026-03-29T07:16:50.702Z</time></trkpt><trkpt lat="45.5505476" lon="10.4816027"><ele>270.0</ele><time>2026-03-29T07:16:51.703Z</time></trkpt><trkpt lat="45.5504435" lon="10.4815012"><ele>270.0</ele><time>2026-03-29T07:16:52.703Z</time></trkpt><trkpt lat="45.5503451" lon="10.481409"><ele>270.0</ele><time>2026-03-29T07:16:53.702Z</time></trkpt><trkpt lat="45.550242" lon="10.4812966"><ele>270.0</ele><time>2026-03-29T07:16:54.703Z</time></trkpt><trkpt lat="45.550134" lon="10.4811909"><ele>270.0</ele><time>2026-03-29T07:16:55.703Z</time></trkpt><trkpt lat="45.5500308" lon="10.4811027"><ele>270.0</ele><time>2026-03-29T07:16:56.702Z</time></trkpt><trkpt lat="45.5499282" lon="10.4810297"><ele>270.0</ele><time>2026-03-29T07:16:57.702Z</time></trkpt><trkpt lat="45.5498203" lon="10.4809725"><ele>270.0</ele><time>2026-03-29T07:16:58.702Z</time></trkpt><trkpt lat="45.5496907" lon="10.4809123"><ele>270.0</ele><time>2026-03-29T07:16:59.702Z</time></trkpt><trkpt lat="45.5495556" lon="10.4808454"><ele>269.5</ele><time>2026-03-29T07:17:00.703Z</time></trkpt><trkpt lat="45.5494346" lon="10.480789"><ele>269.0</ele><time>2026-03-29T07:17:01.703Z</time></trkpt><trkpt lat="45.5493192" lon="10.4807337"><ele>268.5</ele><time>2026-03-29T07:17:02.702Z</time></trkpt><trkpt lat="45.5492143" lon="10.4806816"><ele>268.0</ele><time>2026-03-29T07:17:03.702Z</time></trkpt><trkpt lat="45.5491261" lon="10.4806449"><ele>268.0</ele><time>2026-03-29T07:17:04.702Z</time></trkpt><trkpt lat="45.5490547" lon="10.4806189"><ele>268.0</ele><time>2026-03-29T07:17:05.703Z</time></trkpt><trkpt lat="45.5489694" lon="10.4805414"><ele>268.0</ele><time>2026-03-29T07:17:07.702Z</time></trkpt><trkpt lat="45.5489554" lon="10.4804069"><ele>268.0</ele><time>2026-03-29T07:17:09.703Z</time></trkpt><trkpt lat="45.5489514" lon="10.4802947"><ele>268.0</ele><time>2026-03-29T07:17:10.702Z</time></trkpt><trkpt lat="45.5489248" lon="10.4801968"><ele>268.0</ele><time>2026-03-29T07:17:11.702Z</time></trkpt><trkpt lat="45.5488764" lon="10.4800876"><ele>267.8</ele><time>2026-03-29T07:17:12.703Z</time></trkpt><trkpt lat="45.5488072" lon="10.4799719"><ele>267.6</ele><time>2026-03-29T07:17:13.703Z</time></trkpt><trkpt lat="45.5487389" lon="10.4798741"><ele>267.4</ele><time>2026-03-29T07:17:14.702Z</time></trkpt><trkpt lat="45.5486854" lon="10.4797776"><ele>267.2</ele><time>2026-03-29T07:17:15.702Z</time></trkpt><trkpt lat="45.5486343" lon="10.4796586"><ele>267.0</ele><time>2026-03-29T07:17:16.703Z</time></trkpt><trkpt lat="45.5485932" lon="10.4795232"><ele>267.0</ele><time>2026-03-29T07:17:17.703Z</time></trkpt><trkpt lat="45.5485442" lon="10.4793737"><ele>267.0</ele><time>2026-03-29T07:17:18.702Z</time></trkpt><trkpt lat="45.5485004" lon="10.4792385"><ele>267.0</ele><time>2026-03-29T07:17:19.702Z</time></trkpt><trkpt lat="45.548464" lon="10.4790939"><ele>267.0</ele><time>2026-03-29T07:17:20.702Z</time></trkpt><trkpt lat="45.5484226" lon="10.4789536"><ele>267.0</ele><time>2026-03-29T07:17:21.703Z</time></trkpt><trkpt lat="45.5483814" lon="10.4788019"><ele>267.25</ele><time>2026-03-29T07:17:22.702Z</time></trkpt><trkpt lat="45.5483347" lon="10.4786437"><ele>267.5</ele><time>2026-03-29T07:17:23.702Z</time></trkpt><trkpt lat="45.5482864" lon="10.4785116"><ele>267.75</ele><time>2026-03-29T07:17:24.703Z</time></trkpt><trkpt lat="45.5482274" lon="10.4783829"><ele>268.0</ele><time>2026-03-29T07:17:25.703Z</time></trkpt><trkpt lat="45.5481615" lon="10.4782419"><ele>268.0</ele><time>2026-03-29T07:17:26.702Z</time></trkpt><trkpt lat="45.5480999" lon="10.4781186"><ele>268.0</ele><time>2026-03-29T07:17:27.703Z</time></trkpt><trkpt lat="45.5480372" lon="10.4779975"><ele>268.0</ele><time>2026-03-29T07:17:28.703Z</time></trkpt><trkpt lat="45.5479836" lon="10.4778779"><ele>268.0</ele><time>2026-03-29T07:17:29.702Z</time></trkpt><trkpt lat="45.5479293" lon="10.4777338"><ele>268.0</ele><time>2026-03-29T07:17:30.703Z</time></trkpt><trkpt lat="45.5478699" lon="10.4775786"><ele>269.8</ele><time>2026-03-29T07:17:31.703Z</time></trkpt><trkpt lat="45.5478134" lon="10.4774522"><ele>271.6</ele><time>2026-03-29T07:17:32.702Z</time></trkpt><trkpt lat="45.547767" lon="10.4773271"><ele>273.4</ele><time>2026-03-29T07:17:33.702Z</time></trkpt><trkpt lat="45.5477188" lon="10.4771856"><ele>275.2</ele><time>2026-03-29T07:17:34.702Z</time></trkpt><trkpt lat="45.5476675" lon="10.4770439"><ele>277.0</ele><time>2026-03-29T07:17:35.702Z</time></trkpt><trkpt lat="45.5476202" lon="10.4769242"><ele>277.66666666666663</ele><time>2026-03-29T07:17:36.702Z</time></trkpt><trkpt lat="45.5475708" lon="10.47682"><ele>278.3333333333333</ele><time>2026-03-29T07:17:37.702Z</time></trkpt><trkpt lat="45.5475364" lon="10.4767168"><ele>279.0</ele><time>2026-03-29T07:17:38.702Z</time></trkpt><trkpt lat="45.5474961" lon="10.4766303"><ele>279.6666666666667</ele><time>2026-03-29T07:17:39.702Z</time></trkpt><trkpt lat="45.5474476" lon="10.4765552"><ele>280.33333333333337</ele><time>2026-03-29T07:17:40.702Z</time></trkpt><trkpt lat="45.547382" lon="10.4764769"><ele>281.0</ele><time>2026-03-29T07:17:41.702Z</time></trkpt><trkpt lat="45.5473194" lon="10.4764036"><ele>281.0</ele><time>2026-03-29T07:17:42.703Z</time></trkpt><trkpt lat="45.5472544" lon="10.476328"><ele>281.0</ele><time>2026-03-29T07:17:43.702Z</time></trkpt><trkpt lat="45.5471953" lon="10.4762534"><ele>281.0</ele><time>2026-03-29T07:17:44.702Z</time></trkpt><trkpt lat="45.5471312" lon="10.4761561"><ele>281.0</ele><time>2026-03-29T07:17:45.703Z</time></trkpt><trkpt lat="45.5470806" lon="10.4760623"><ele>281.0</ele><time>2026-03-29T07:17:46.702Z</time></trkpt><trkpt lat="45.5470272" lon="10.4759574"><ele>281.0</ele><time>2026-03-29T07:17:47.702Z</time></trkpt><trkpt lat="45.5469734" lon="10.4758347"><ele>281.8</ele><time>2026-03-29T07:17:48.703Z</time></trkpt><trkpt lat="45.5469265" lon="10.4757236"><ele>282.6</ele><time>2026-03-29T07:17:49.703Z</time></trkpt><trkpt lat="45.5468714" lon="10.4756087"><ele>283.4</ele><time>2026-03-29T07:17:50.702Z</time></trkpt><trkpt lat="45.5468112" lon="10.4755032"><ele>284.2</ele><time>2026-03-29T07:17:51.702Z</time></trkpt><trkpt lat="45.5467493" lon="10.4754199"><ele>285.0</ele><time>2026-03-29T07:17:52.703Z</time></trkpt><trkpt lat="45.546682" lon="10.4753496"><ele>285.0</ele><time>2026-03-29T07:17:53.703Z</time></trkpt><trkpt lat="45.5466218" lon="10.4752931"><ele>285.0</ele><time>2026-03-29T07:17:54.703Z</time></trkpt><trkpt lat="45.5465629" lon="10.4752373"><ele>285.0</ele><time>2026-03-29T07:17:55.702Z</time></trkpt><trkpt lat="45.5465053" lon="10.4751685"><ele>285.0</ele><time>2026-03-29T07:17:56.702Z</time></trkpt><trkpt lat="45.5464513" lon="10.4751005"><ele>285.0</ele><time>2026-03-29T07:17:57.703Z</time></trkpt><trkpt lat="45.5463989" lon="10.4750356"><ele>285.0</ele><time>2026-03-29T07:17:58.703Z</time></trkpt><trkpt lat="45.546346" lon="10.4749675"><ele>285.0</ele><time>2026-03-29T07:17:59.702Z</time></trkpt><trkpt lat="45.5462805" lon="10.4748462"><ele>285.0</ele><time>2026-03-29T07:18:01.702Z</time></trkpt><trkpt lat="45.5462188" lon="10.474742"><ele>285.0</ele><time>2026-03-29T07:18:03.703Z</time></trkpt><trkpt lat="45.5461749" lon="10.4746403"><ele>285.0</ele><time>2026-03-29T07:18:05.702Z</time></trkpt><trkpt lat="45.5461691" lon="10.474548"><ele>285.0</ele><time>2026-03-29T07:18:06.702Z</time></trkpt><trkpt lat="45.5461899" lon="10.4744359"><ele>285.0</ele><time>2026-03-29T07:18:07.703Z</time></trkpt><trkpt lat="45.5462221" lon="10.474314"><ele>285.0</ele><time>2026-03-29T07:18:08.702Z</time></trkpt><trkpt lat="45.5462693" lon="10.4741851"><ele>284.8</ele><time>2026-03-29T07:18:09.702Z</time></trkpt><trkpt lat="45.5463212" lon="10.474055"><ele>284.6</ele><time>2026-03-29T07:18:10.702Z</time></trkpt><trkpt lat="45.5463766" lon="10.473917"><ele>284.4</ele><time>2026-03-29T07:18:11.703Z</time></trkpt><trkpt lat="45.5464391" lon="10.4737778"><ele>284.2</ele><time>2026-03-29T07:18:12.702Z</time></trkpt><trkpt lat="45.5464986" lon="10.473636"><ele>284.0</ele><time>2026-03-29T07:18:13.703Z</time></trkpt><trkpt lat="45.5465648" lon="10.4734913"><ele>281.75</ele><time>2026-03-29T07:18:14.702Z</time></trkpt><trkpt lat="45.5466347" lon="10.4733346"><ele>279.5</ele><time>2026-03-29T07:18:15.702Z</time></trkpt><trkpt lat="45.5467095" lon="10.4731602"><ele>277.25</ele><time>2026-03-29T07:18:16.703Z</time></trkpt><trkpt lat="45.5467809" lon="10.4729941"><ele>275.0</ele><time>2026-03-29T07:18:17.703Z</time></trkpt><trkpt lat="45.5468513" lon="10.4728329"><ele>274.0</ele><time>2026-03-29T07:18:18.702Z</time></trkpt><trkpt lat="45.5469281" lon="10.472682"><ele>273.0</ele><time>2026-03-29T07:18:19.702Z</time></trkpt><trkpt lat="45.5470165" lon="10.4725497"><ele>272.0</ele><time>2026-03-29T07:18:20.703Z</time></trkpt><trkpt lat="45.547114" lon="10.4724595"><ele>271.0</ele><time>2026-03-29T07:18:21.703Z</time></trkpt><trkpt lat="45.5472046" lon="10.4724087"><ele>271.0</ele><time>2026-03-29T07:18:22.703Z</time></trkpt><trkpt lat="45.5472905" lon="10.472413"><ele>271.0</ele><time>2026-03-29T07:18:23.703Z</time></trkpt><trkpt lat="45.5473868" lon="10.4724571"><ele>271.0</ele><time>2026-03-29T07:18:24.703Z</time></trkpt><trkpt lat="45.5474921" lon="10.4725446"><ele>271.0</ele><time>2026-03-29T07:18:25.703Z</time></trkpt><trkpt lat="45.5476241" lon="10.4726356"><ele>271.0</ele><time>2026-03-29T07:18:26.703Z</time></trkpt><trkpt lat="45.5477816" lon="10.4727342"><ele>271.0</ele><time>2026-03-29T07:18:27.703Z</time></trkpt><trkpt lat="45.5479706" lon="10.4728526"><ele>271.0</ele><time>2026-03-29T07:18:28.703Z</time></trkpt><trkpt lat="45.5481541" lon="10.472976"><ele>274.66666666666663</ele><time>2026-03-29T07:18:29.703Z</time></trkpt><trkpt lat="45.5483158" lon="10.4730931"><ele>278.3333333333333</ele><time>2026-03-29T07:18:30.703Z</time></trkpt><trkpt lat="45.5484658" lon="10.4732019"><ele>282.0</ele><time>2026-03-29T07:18:31.703Z</time></trkpt><trkpt lat="45.548603" lon="10.4733133"><ele>282.0</ele><time>2026-03-29T07:18:32.702Z</time></trkpt><trkpt lat="45.5487287" lon="10.4734243"><ele>282.0</ele><time>2026-03-29T07:18:33.702Z</time></trkpt><trkpt lat="45.5488564" lon="10.4735343"><ele>282.0</ele><time>2026-03-29T07:18:34.702Z</time></trkpt><trkpt lat="45.5489947" lon="10.4736552"><ele>282.0</ele><time>2026-03-29T07:18:35.702Z</time></trkpt><trkpt lat="45.549129" lon="10.473766"><ele>282.0</ele><time>2026-03-29T07:18:36.703Z</time></trkpt><trkpt lat="45.5492562" lon="10.4738802"><ele>282.0</ele><time>2026-03-29T07:18:37.703Z</time></trkpt><trkpt lat="45.5493888" lon="10.474026"><ele>283.3333333333333</ele><time>2026-03-29T07:18:38.703Z</time></trkpt><trkpt lat="45.5495211" lon="10.4742145"><ele>284.66666666666663</ele><time>2026-03-29T07:18:39.702Z</time></trkpt><trkpt lat="45.549687" lon="10.4744116"><ele>286.0</ele><time>2026-03-29T07:18:40.702Z</time></trkpt><trkpt lat="45.5498793" lon="10.4745889"><ele>289.3333333333333</ele><time>2026-03-29T07:18:41.702Z</time></trkpt><trkpt lat="45.5500559" lon="10.474745"><ele>292.6666666666667</ele><time>2026-03-29T07:18:42.702Z</time></trkpt><trkpt lat="45.5502145" lon="10.4748941"><ele>296.0</ele><time>2026-03-29T07:18:43.703Z</time></trkpt><trkpt lat="45.5503536" lon="10.4750361"><ele>296.6666666666667</ele><time>2026-03-29T07:18:44.702Z</time></trkpt><trkpt lat="45.550477" lon="10.47518"><ele>297.3333333333333</ele><time>2026-03-29T07:18:45.702Z</time></trkpt><trkpt lat="45.5505986" lon="10.4753366"><ele>298.0</ele><time>2026-03-29T07:18:46.703Z</time></trkpt><trkpt lat="45.5507076" lon="10.4754819"><ele>298.0</ele><time>2026-03-29T07:18:47.702Z</time></trkpt><trkpt lat="45.5508097" lon="10.4756179"><ele>298.0</ele><time>2026-03-29T07:18:48.702Z</time></trkpt><trkpt lat="45.5509194" lon="10.475744"><ele>298.0</ele><time>2026-03-29T07:18:49.703Z</time></trkpt><trkpt lat="45.5510416" lon="10.4758667"><ele>298.0</ele><time>2026-03-29T07:18:50.703Z</time></trkpt><trkpt lat="45.5511721" lon="10.4759801"><ele>299.0</ele><time>2026-03-29T07:18:51.703Z</time></trkpt><trkpt lat="45.5513152" lon="10.476084"><ele>300.0</ele><time>2026-03-29T07:18:52.703Z</time></trkpt><trkpt lat="45.5514924" lon="10.4761822"><ele>301.0</ele><time>2026-03-29T07:18:53.703Z</time></trkpt><trkpt lat="45.5516776" lon="10.4763041"><ele>301.0</ele><time>2026-03-29T07:18:54.702Z</time></trkpt><trkpt lat="45.5518269" lon="10.4764149"><ele>301.0</ele><time>2026-03-29T07:18:55.702Z</time></trkpt><trkpt lat="45.5519707" lon="10.4765175"><ele>301.0</ele><time>2026-03-29T07:18:56.703Z</time></trkpt><trkpt lat="45.5521048" lon="10.4766216"><ele>300.75</ele><time>2026-03-29T07:18:57.703Z</time></trkpt><trkpt lat="45.5522274" lon="10.4767413"><ele>300.5</ele><time>2026-03-29T07:18:58.703Z</time></trkpt><trkpt lat="45.5523468" lon="10.4768678"><ele>300.25</ele><time>2026-03-29T07:18:59.703Z</time></trkpt><trkpt lat="45.5524611" lon="10.476994"><ele>300.0</ele><time>2026-03-29T07:19:00.702Z</time></trkpt><trkpt lat="45.5525719" lon="10.4771215"><ele>301.25</ele><time>2026-03-29T07:19:01.702Z</time></trkpt><trkpt lat="45.5526888" lon="10.4772536"><ele>302.5</ele><time>2026-03-29T07:19:02.702Z</time></trkpt><trkpt lat="45.5528073" lon="10.4773862"><ele>303.75</ele><time>2026-03-29T07:19:03.702Z</time></trkpt><trkpt lat="45.5529257" lon="10.4775126"><ele>305.0</ele><time>2026-03-29T07:19:04.703Z</time></trkpt><trkpt lat="45.5530383" lon="10.4776349"><ele>305.0</ele><time>2026-03-29T07:19:05.702Z</time></trkpt><trkpt lat="45.5531471" lon="10.4777517"><ele>305.0</ele><time>2026-03-29T07:19:06.702Z</time></trkpt><trkpt lat="45.5532507" lon="10.4778811"><ele>305.0</ele><time>2026-03-29T07:19:07.702Z</time></trkpt><trkpt lat="45.5533486" lon="10.4780239"><ele>305.0</ele><time>2026-03-29T07:19:08.702Z</time></trkpt><trkpt lat="45.5534349" lon="10.4781736"><ele>305.25</ele><time>2026-03-29T07:19:09.703Z</time></trkpt><trkpt lat="45.5535179" lon="10.4783175"><ele>305.5</ele><time>2026-03-29T07:19:10.702Z</time></trkpt><trkpt lat="45.5535925" lon="10.4784496"><ele>305.75</ele><time>2026-03-29T07:19:11.702Z</time></trkpt><trkpt lat="45.5536636" lon="10.4785852"><ele>306.0</ele><time>2026-03-29T07:19:12.702Z</time></trkpt><trkpt lat="45.5537324" lon="10.4787312"><ele>307.75</ele><time>2026-03-29T07:19:13.702Z</time></trkpt><trkpt lat="45.5537959" lon="10.4788918"><ele>309.5</ele><time>2026-03-29T07:19:14.702Z</time></trkpt><trkpt lat="45.5538502" lon="10.4790565"><ele>311.25</ele><time>2026-03-29T07:19:15.702Z</time></trkpt><trkpt lat="45.5538879" lon="10.4792364"><ele>313.0</ele><time>2026-03-29T07:19:16.703Z</time></trkpt><trkpt lat="45.5539027" lon="10.4794161"><ele>313.0</ele><time>2026-03-29T07:19:17.703Z</time></trkpt><trkpt lat="45.553917" lon="10.4795938"><ele>313.0</ele><time>2026-03-29T07:19:18.702Z</time></trkpt><trkpt lat="45.5539351" lon="10.4797755"><ele>313.0</ele><time>2026-03-29T07:19:19.702Z</time></trkpt><trkpt lat="45.5539706" lon="10.4799644"><ele>313.0</ele><time>2026-03-29T07:19:20.702Z</time></trkpt><trkpt lat="45.5540219" lon="10.4801324"><ele>313.8</ele><time>2026-03-29T07:19:21.702Z</time></trkpt><trkpt lat="45.5540757" lon="10.4802941"><ele>314.6</ele><time>2026-03-29T07:19:22.702Z</time></trkpt><trkpt lat="45.5541323" lon="10.4804459"><ele>315.4</ele><time>2026-03-29T07:19:23.702Z</time></trkpt><trkpt lat="45.554171" lon="10.4805702"><ele>316.2</ele><time>2026-03-29T07:19:24.702Z</time></trkpt><trkpt lat="45.5542043" lon="10.4806817"><ele>317.0</ele><time>2026-03-29T07:19:25.702Z</time></trkpt><trkpt lat="45.554228" lon="10.4807805"><ele>317.6666666666667</ele><time>2026-03-29T07:19:26.703Z</time></trkpt><trkpt lat="45.5542451" lon="10.4808828"><ele>318.33333333333337</ele><time>2026-03-29T07:19:27.702Z</time></trkpt><trkpt lat="45.5542557" lon="10.4809907"><ele>319.0</ele><time>2026-03-29T07:19:28.704Z</time></trkpt><trkpt lat="45.5542643" lon="10.4810866"><ele>319.6666666666667</ele><time>2026-03-29T07:19:29.702Z</time></trkpt><trkpt lat="45.5542824" lon="10.4811756"><ele>320.3333333333333</ele><time>2026-03-29T07:19:30.702Z</time></trkpt><trkpt lat="45.5543454" lon="10.4813053"><ele>321.0</ele><time>2026-03-29T07:19:32.702Z</time></trkpt><trkpt lat="45.5544413" lon="10.4813929"><ele>320.8333333333333</ele><time>2026-03-29T07:19:34.702Z</time></trkpt><trkpt lat="45.5544952" lon="10.4814494"><ele>320.6666666666667</ele><time>2026-03-29T07:19:35.702Z</time></trkpt><trkpt lat="45.5545657" lon="10.4815133"><ele>320.5</ele><time>2026-03-29T07:19:36.702Z</time></trkpt><trkpt lat="45.5546436" lon="10.4815945"><ele>320.33333333333337</ele><time>2026-03-29T07:19:37.702Z</time></trkpt><trkpt lat="45.5547258" lon="10.4816564"><ele>320.1666666666667</ele><time>2026-03-29T07:19:38.702Z</time></trkpt><trkpt lat="45.5547957" lon="10.4817112"><ele>320.0</ele><time>2026-03-29T07:19:39.702Z</time></trkpt><trkpt lat="45.5548555" lon="10.4817583"><ele>320.0</ele><time>2026-03-29T07:19:40.702Z</time></trkpt><trkpt lat="45.5549116" lon="10.4818086"><ele>320.0</ele><time>2026-03-29T07:19:41.702Z</time></trkpt><trkpt lat="45.5549711" lon="10.481868"><ele>320.0</ele><time>2026-03-29T07:19:42.702Z</time></trkpt><trkpt lat="45.5550239" lon="10.4819339"><ele>320.0</ele><time>2026-03-29T07:19:43.703Z</time></trkpt><trkpt lat="45.555085" lon="10.482016"><ele>320.0</ele><time>2026-03-29T07:19:44.702Z</time></trkpt><trkpt lat="45.5551465" lon="10.4820831"><ele>320.0</ele><time>2026-03-29T07:19:45.702Z</time></trkpt><trkpt lat="45.5552271" lon="10.4821768"><ele>320.83333333333337</ele><time>2026-03-29T07:19:46.703Z</time></trkpt><trkpt lat="45.555315" lon="10.4822491"><ele>321.6666666666667</ele><time>2026-03-29T07:19:47.702Z</time></trkpt><trkpt lat="45.5553953" lon="10.4823131"><ele>322.5</ele><time>2026-03-29T07:19:48.703Z</time></trkpt><trkpt lat="45.5554691" lon="10.4823725"><ele>323.3333333333333</ele><time>2026-03-29T07:19:49.703Z</time></trkpt><trkpt lat="45.5555529" lon="10.4824274"><ele>324.16666666666663</ele><time>2026-03-29T07:19:50.702Z</time></trkpt><trkpt lat="45.555627" lon="10.4824672"><ele>325.0</ele><time>2026-03-29T07:19:51.703Z</time></trkpt><trkpt lat="45.5557048" lon="10.4825041"><ele>325.0</ele><time>2026-03-29T07:19:52.703Z</time></trkpt><trkpt lat="45.5557843" lon="10.4825442"><ele>325.0</ele><time>2026-03-29T07:19:53.703Z</time></trkpt><trkpt lat="45.5558721" lon="10.4825909"><ele>325.0</ele><time>2026-03-29T07:19:54.702Z</time></trkpt><trkpt lat="45.5559601" lon="10.4826369"><ele>325.0</ele><time>2026-03-29T07:19:55.702Z</time></trkpt><trkpt lat="45.5560444" lon="10.4826822"><ele>325.0</ele><time>2026-03-29T07:19:56.702Z</time></trkpt><trkpt lat="45.5561242" lon="10.4827305"><ele>325.0</ele><time>2026-03-29T07:19:57.702Z</time></trkpt><trkpt lat="45.5561965" lon="10.4827672"><ele>325.57142857142856</ele><time>2026-03-29T07:19:58.702Z</time></trkpt><trkpt lat="45.5562688" lon="10.4828041"><ele>326.14285714285717</ele><time>2026-03-29T07:19:59.702Z</time></trkpt><trkpt lat="45.5563328" lon="10.4828378"><ele>326.7142857142857</ele><time>2026-03-29T07:20:00.703Z</time></trkpt><trkpt lat="45.556398" lon="10.4828747"><ele>327.2857142857143</ele><time>2026-03-29T07:20:01.703Z</time></trkpt><trkpt lat="45.5564675" lon="10.482913"><ele>327.8571428571429</ele><time>2026-03-29T07:20:02.702Z</time></trkpt><trkpt lat="45.5565296" lon="10.4829528"><ele>328.42857142857144</ele><time>2026-03-29T07:20:03.703Z</time></trkpt><trkpt lat="45.5565958" lon="10.4829935"><ele>329.0</ele><time>2026-03-29T07:20:04.703Z</time></trkpt><trkpt lat="45.5566691" lon="10.4830216"><ele>329.5</ele><time>2026-03-29T07:20:05.702Z</time></trkpt><trkpt lat="45.5567487" lon="10.4830447"><ele>330.0</ele><time>2026-03-29T07:20:06.703Z</time></trkpt><trkpt lat="45.5568323" lon="10.48306"><ele>330.5</ele><time>2026-03-29T07:20:07.703Z</time></trkpt><trkpt lat="45.556916" lon="10.4830747"><ele>331.0</ele><time>2026-03-29T07:20:08.703Z</time></trkpt><trkpt lat="45.5569948" lon="10.4830898"><ele>331.5</ele><time>2026-03-29T07:20:09.702Z</time></trkpt><trkpt lat="45.5570726" lon="10.4831063"><ele>332.0</ele><time>2026-03-29T07:20:10.702Z</time></trkpt><trkpt lat="45.5571369" lon="10.4831147"><ele>332.0</ele><time>2026-03-29T07:20:11.703Z</time></trkpt><trkpt lat="45.557206" lon="10.4831258"><ele>332.0</ele><time>2026-03-29T07:20:12.703Z</time></trkpt><trkpt lat="45.5572823" lon="10.4831311"><ele>332.0</ele><time>2026-03-29T07:20:13.702Z</time></trkpt><trkpt lat="45.557369" lon="10.4831316"><ele>332.0</ele><time>2026-03-29T07:20:14.702Z</time></trkpt><trkpt lat="45.557467" lon="10.4831305"><ele>332.0</ele><time>2026-03-29T07:20:15.702Z</time></trkpt><trkpt lat="45.5575699" lon="10.4831415"><ele>332.0</ele><time>2026-03-29T07:20:16.703Z</time></trkpt><trkpt lat="45.5576828" lon="10.4831533"><ele>332.0</ele><time>2026-03-29T07:20:17.702Z</time></trkpt><trkpt lat="45.5578013" lon="10.4831669"><ele>332.0</ele><time>2026-03-29T07:20:18.702Z</time></trkpt><trkpt lat="45.5579245" lon="10.4831857"><ele>332.0</ele><time>2026-03-29T07:20:19.703Z</time></trkpt><trkpt lat="45.558047" lon="10.4832003"><ele>332.0</ele><time>2026-03-29T07:20:20.702Z</time></trkpt><trkpt lat="45.5581588" lon="10.4832159"><ele>331.6</ele><time>2026-03-29T07:20:21.702Z</time></trkpt><trkpt lat="45.5582662" lon="10.4832369"><ele>331.20000000000005</ele><time>2026-03-29T07:20:22.703Z</time></trkpt><trkpt lat="45.5583768" lon="10.4832521"><ele>330.8</ele><time>2026-03-29T07:20:23.703Z</time></trkpt><trkpt lat="45.5584855" lon="10.4832647"><ele>330.4</ele><time>2026-03-29T07:20:24.702Z</time></trkpt><trkpt lat="45.5585918" lon="10.4832834"><ele>330.0</ele><time>2026-03-29T07:20:25.703Z</time></trkpt><trkpt lat="45.5587027" lon="10.4833036"><ele>329.75</ele><time>2026-03-29T07:20:26.702Z</time></trkpt><trkpt lat="45.558816" lon="10.4833266"><ele>329.5</ele><time>2026-03-29T07:20:27.702Z</time></trkpt><trkpt lat="45.5589364" lon="10.4833479"><ele>329.25</ele><time>2026-03-29T07:20:28.703Z</time></trkpt><trkpt lat="45.5590631" lon="10.4833709"><ele>329.0</ele><time>2026-03-29T07:20:29.703Z</time></trkpt><trkpt lat="45.5591929" lon="10.4833964"><ele>329.0</ele><time>2026-03-29T07:20:30.703Z</time></trkpt><trkpt lat="45.5593264" lon="10.4834177"><ele>329.0</ele><time>2026-03-29T07:20:31.703Z</time></trkpt><trkpt lat="45.5594601" lon="10.4834373"><ele>329.0</ele><time>2026-03-29T07:20:32.702Z</time></trkpt><trkpt lat="45.5595907" lon="10.483464"><ele>329.0</ele><time>2026-03-29T07:20:33.702Z</time></trkpt><trkpt lat="45.5597114" lon="10.4834889"><ele>328.25</ele><time>2026-03-29T07:20:34.702Z</time></trkpt><trkpt lat="45.5598266" lon="10.4835032"><ele>327.5</ele><time>2026-03-29T07:20:35.702Z</time></trkpt><trkpt lat="45.5599602" lon="10.4835033"><ele>326.75</ele><time>2026-03-29T07:20:36.702Z</time></trkpt><trkpt lat="45.5600914" lon="10.4834871"><ele>326.0</ele><time>2026-03-29T07:20:37.702Z</time></trkpt><trkpt lat="45.5602114" lon="10.4834583"><ele>326.0</ele><time>2026-03-29T07:20:38.702Z</time></trkpt><trkpt lat="45.5603258" lon="10.4834271"><ele>326.0</ele><time>2026-03-29T07:20:39.702Z</time></trkpt><trkpt lat="45.560427" lon="10.4833939"><ele>326.0</ele><time>2026-03-29T07:20:40.702Z</time></trkpt><trkpt lat="45.5605233" lon="10.4833486"><ele>326.0</ele><time>2026-03-29T07:20:41.702Z</time></trkpt><trkpt lat="45.56062" lon="10.4832885"><ele>326.0</ele><time>2026-03-29T07:20:42.702Z</time></trkpt><trkpt lat="45.560719" lon="10.4832272"><ele>325.6666666666667</ele><time>2026-03-29T07:20:43.702Z</time></trkpt><trkpt lat="45.5608082" lon="10.4831693"><ele>325.33333333333337</ele><time>2026-03-29T07:20:44.702Z</time></trkpt><trkpt lat="45.5608888" lon="10.4831193"><ele>325.0</ele><time>2026-03-29T07:20:45.702Z</time></trkpt><trkpt lat="45.5609677" lon="10.4830801"><ele>324.6666666666667</ele><time>2026-03-29T07:20:46.702Z</time></trkpt><trkpt lat="45.5610393" lon="10.483045"><ele>324.3333333333333</ele><time>2026-03-29T07:20:47.702Z</time></trkpt><trkpt lat="45.5611101" lon="10.4830142"><ele>324.0</ele><time>2026-03-29T07:20:48.702Z</time></trkpt><trkpt lat="45.5611908" lon="10.4829863"><ele>324.0</ele><time>2026-03-29T07:20:49.702Z</time></trkpt><trkpt lat="45.561255" lon="10.482958"><ele>324.0</ele><time>2026-03-29T07:20:50.702Z</time></trkpt><trkpt lat="45.5613244" lon="10.4828788"><ele>324.0</ele><time>2026-03-29T07:20:52.702Z</time></trkpt><trkpt lat="45.5613281" lon="10.4827651"><ele>324.0</ele><time>2026-03-29T07:20:54.702Z</time></trkpt><trkpt lat="45.5613035" lon="10.4826765"><ele>324.0</ele><time>2026-03-29T07:20:55.703Z</time></trkpt><trkpt lat="45.5612524" lon="10.4825636"><ele>324.0</ele><time>2026-03-29T07:20:56.703Z</time></trkpt><trkpt lat="45.5611999" lon="10.4824348"><ele>323.75</ele><time>2026-03-29T07:20:57.702Z</time></trkpt><trkpt lat="45.5611447" lon="10.4822814"><ele>323.5</ele><time>2026-03-29T07:20:58.702Z</time></trkpt><trkpt lat="45.5610888" lon="10.4821097"><ele>323.25</ele><time>2026-03-29T07:20:59.702Z</time></trkpt><trkpt lat="45.5610241" lon="10.4819368"><ele>323.0</ele><time>2026-03-29T07:21:00.704Z</time></trkpt><trkpt lat="45.5609561" lon="10.4817743"><ele>323.0</ele><time>2026-03-29T07:21:01.703Z</time></trkpt><trkpt lat="45.5608828" lon="10.4816153"><ele>323.0</ele><time>2026-03-29T07:21:02.703Z</time></trkpt><trkpt lat="45.5607952" lon="10.4814723"><ele>323.0</ele><time>2026-03-29T07:21:03.703Z</time></trkpt><trkpt lat="45.5606871" lon="10.4813515"><ele>323.0</ele><time>2026-03-29T07:21:04.703Z</time></trkpt><trkpt lat="45.560565" lon="10.4812519"><ele>325.0</ele><time>2026-03-29T07:21:05.703Z</time></trkpt><trkpt lat="45.5604365" lon="10.4811741"><ele>327.0</ele><time>2026-03-29T07:21:06.703Z</time></trkpt><trkpt lat="45.5603107" lon="10.4811051"><ele>329.0</ele><time>2026-03-29T07:21:07.703Z</time></trkpt><trkpt lat="45.560187" lon="10.481035"><ele>331.0</ele><time>2026-03-29T07:21:08.703Z</time></trkpt><trkpt lat="45.560066" lon="10.4809684"><ele>332.20000000000005</ele><time>2026-03-29T07:21:09.702Z</time></trkpt><trkpt lat="45.5599591" lon="10.4809055"><ele>333.40000000000003</ele><time>2026-03-29T07:21:10.702Z</time></trkpt><trkpt lat="45.5598721" lon="10.4808271"><ele>334.6</ele><time>2026-03-29T07:21:11.702Z</time></trkpt><trkpt lat="45.559803" lon="10.4807203"><ele>335.8</ele><time>2026-03-29T07:21:12.703Z</time></trkpt><trkpt lat="45.5597548" lon="10.480588"><ele>337.0</ele><time>2026-03-29T07:21:13.703Z</time></trkpt><trkpt lat="45.559726" lon="10.4804552"><ele>338.5</ele><time>2026-03-29T07:21:14.703Z</time></trkpt><trkpt lat="45.5597149" lon="10.4803324"><ele>340.0</ele><time>2026-03-29T07:21:15.702Z</time></trkpt><trkpt lat="45.5597038" lon="10.4802281"><ele>341.5</ele><time>2026-03-29T07:21:16.702Z</time></trkpt><trkpt lat="45.5596968" lon="10.4801344"><ele>343.0</ele><time>2026-03-29T07:21:17.702Z</time></trkpt><trkpt lat="45.5596889" lon="10.4800375"><ele>344.5</ele><time>2026-03-29T07:21:18.702Z</time></trkpt><trkpt lat="45.5596845" lon="10.4799244"><ele>346.0</ele><time>2026-03-29T07:21:19.703Z</time></trkpt><trkpt lat="45.5596785" lon="10.4798013"><ele>346.0</ele><time>2026-03-29T07:21:20.703Z</time></trkpt><trkpt lat="45.5596756" lon="10.4796658"><ele>346.0</ele><time>2026-03-29T07:21:21.703Z</time></trkpt><trkpt lat="45.559682" lon="10.4795199"><ele>346.0</ele><time>2026-03-29T07:21:22.704Z</time></trkpt><trkpt lat="45.5597131" lon="10.4793589"><ele>346.0</ele><time>2026-03-29T07:21:23.703Z</time></trkpt><trkpt lat="45.5597621" lon="10.4791977"><ele>346.0</ele><time>2026-03-29T07:21:24.703Z</time></trkpt><trkpt lat="45.55981" lon="10.4790276"><ele>345.0</ele><time>2026-03-29T07:21:25.703Z</time></trkpt><trkpt lat="45.5598617" lon="10.4788491"><ele>344.0</ele><time>2026-03-29T07:21:26.703Z</time></trkpt><trkpt lat="45.5599163" lon="10.4786635"><ele>343.0</ele><time>2026-03-29T07:21:27.703Z</time></trkpt><trkpt lat="45.5599662" lon="10.4784759"><ele>342.0</ele><time>2026-03-29T07:21:28.703Z</time></trkpt><trkpt lat="45.5599998" lon="10.4782818"><ele>341.0</ele><time>2026-03-29T07:21:29.703Z</time></trkpt><trkpt lat="45.5600148" lon="10.4780782"><ele>340.0</ele><time>2026-03-29T07:21:30.703Z</time></trkpt><trkpt lat="45.5600152" lon="10.4778678"><ele>339.0</ele><time>2026-03-29T07:21:31.702Z</time></trkpt><trkpt lat="45.5600131" lon="10.4776597"><ele>338.0</ele><time>2026-03-29T07:21:32.702Z</time></trkpt><trkpt lat="45.560006" lon="10.4774535"><ele>337.5</ele><time>2026-03-29T07:21:33.702Z</time></trkpt><trkpt lat="45.5599951" lon="10.4772569"><ele>337.0</ele><time>2026-03-29T07:21:34.702Z</time></trkpt><trkpt lat="45.5599847" lon="10.4770801"><ele>336.5</ele><time>2026-03-29T07:21:35.702Z</time></trkpt><trkpt lat="45.5599928" lon="10.4769088"><ele>336.0</ele><time>2026-03-29T07:21:36.702Z</time></trkpt><trkpt lat="45.5600158" lon="10.4767489"><ele>334.6</ele><time>2026-03-29T07:21:37.704Z</time></trkpt><trkpt lat="45.5600596" lon="10.4766031"><ele>333.20000000000005</ele><time>2026-03-29T07:21:38.703Z</time></trkpt><trkpt lat="45.5601141" lon="10.4764603"><ele>331.79999999999995</ele><time>2026-03-29T07:21:39.702Z</time></trkpt><trkpt lat="45.5601691" lon="10.4763283"><ele>330.4</ele><time>2026-03-29T07:21:40.702Z</time></trkpt><trkpt lat="45.5602252" lon="10.4761999"><ele>329.0</ele><time>2026-03-29T07:21:41.702Z</time></trkpt><trkpt lat="45.560278" lon="10.4760984"><ele>327.5</ele><time>2026-03-29T07:21:42.702Z</time></trkpt><trkpt lat="45.5603317" lon="10.4759931"><ele>326.0</ele><time>2026-03-29T07:21:43.702Z</time></trkpt><trkpt lat="45.5603857" lon="10.4758921"><ele>324.5</ele><time>2026-03-29T07:21:44.702Z</time></trkpt><trkpt lat="45.5604343" lon="10.4757971"><ele>323.0</ele><time>2026-03-29T07:21:45.702Z</time></trkpt><trkpt lat="45.5604778" lon="10.4757208"><ele>321.5</ele><time>2026-03-29T07:21:46.702Z</time></trkpt><trkpt lat="45.5605627" lon="10.4756527"><ele>320.0</ele><time>2026-03-29T07:21:48.702Z</time></trkpt><trkpt lat="45.5606413" lon="10.4757149"><ele>320.0</ele><time>2026-03-29T07:21:50.703Z</time></trkpt><trkpt lat="45.5607" lon="10.4757572"><ele>320.0</ele><time>2026-03-29T07:21:51.702Z</time></trkpt><trkpt lat="45.560771" lon="10.4757803"><ele>320.0</ele><time>2026-03-29T07:21:52.702Z</time></trkpt><trkpt lat="45.5608634" lon="10.4758105"><ele>320.0</ele><time>2026-03-29T07:21:53.703Z</time></trkpt><trkpt lat="45.5609589" lon="10.4758335"><ele>320.0</ele><time>2026-03-29T07:21:54.702Z</time></trkpt><trkpt lat="45.5610558" lon="10.4758839"><ele>320.0</ele><time>2026-03-29T07:21:55.702Z</time></trkpt><trkpt lat="45.5611518" lon="10.4759419"><ele>319.6</ele><time>2026-03-29T07:21:56.702Z</time></trkpt><trkpt lat="45.561248" lon="10.4760051"><ele>319.2</ele><time>2026-03-29T07:21:57.703Z</time></trkpt><trkpt lat="45.5613372" lon="10.4760564"><ele>318.8</ele><time>2026-03-29T07:21:58.702Z</time></trkpt><trkpt lat="45.5614261" lon="10.4761134"><ele>318.4</ele><time>2026-03-29T07:21:59.702Z</time></trkpt><trkpt lat="45.5615116" lon="10.476183"><ele>318.0</ele><time>2026-03-29T07:22:00.702Z</time></trkpt><trkpt lat="45.5615921" lon="10.4762721"><ele>321.8</ele><time>2026-03-29T07:22:01.703Z</time></trkpt><trkpt lat="45.5616568" lon="10.4763867"><ele>325.6</ele><time>2026-03-29T07:22:02.703Z</time></trkpt><trkpt lat="45.5617207" lon="10.4765081"><ele>329.40000000000003</ele><time>2026-03-29T07:22:03.703Z</time></trkpt><trkpt lat="45.5618028" lon="10.4766202"><ele>333.20000000000005</ele><time>2026-03-29T07:22:04.702Z</time></trkpt><trkpt lat="45.5618892" lon="10.4767136"><ele>337.0</ele><time>2026-03-29T07:22:05.702Z</time></trkpt><trkpt lat="45.5619817" lon="10.4767865"><ele>337.6</ele><time>2026-03-29T07:22:06.702Z</time></trkpt><trkpt lat="45.562068" lon="10.4768462"><ele>338.20000000000005</ele><time>2026-03-29T07:22:07.703Z</time></trkpt><trkpt lat="45.562158" lon="10.4769006"><ele>338.8</ele><time>2026-03-29T07:22:08.703Z</time></trkpt><trkpt lat="45.5622541" lon="10.4769316"><ele>339.4</ele><time>2026-03-29T07:22:09.703Z</time></trkpt><trkpt lat="45.5623463" lon="10.4769073"><ele>340.0</ele><time>2026-03-29T07:22:10.703Z</time></trkpt><trkpt lat="45.5624436" lon="10.4768922"><ele>340.0</ele><time>2026-03-29T07:22:11.702Z</time></trkpt><trkpt lat="45.5625157" lon="10.4767698"><ele>340.0</ele><time>2026-03-29T07:22:12.702Z</time></trkpt><trkpt lat="45.5626036" lon="10.4766909"><ele>340.0</ele><time>2026-03-29T07:22:13.703Z</time></trkpt><trkpt lat="45.5626832" lon="10.4765972"><ele>340.0</ele><time>2026-03-29T07:22:14.703Z</time></trkpt><trkpt lat="45.5627665" lon="10.4765146"><ele>340.0</ele><time>2026-03-29T07:22:15.702Z</time></trkpt><trkpt lat="45.5628441" lon="10.4764423"><ele>340.8333333333333</ele><time>2026-03-29T07:22:16.702Z</time></trkpt><trkpt lat="45.5629183" lon="10.4763824"><ele>341.66666666666663</ele><time>2026-03-29T07:22:17.702Z</time></trkpt><trkpt lat="45.5629902" lon="10.4763271"><ele>342.5</ele><time>2026-03-29T07:22:18.703Z</time></trkpt><trkpt lat="45.5630674" lon="10.476263"><ele>343.3333333333333</ele><time>2026-03-29T07:22:19.702Z</time></trkpt><trkpt lat="45.5631489" lon="10.4761962"><ele>344.1666666666667</ele><time>2026-03-29T07:22:20.702Z</time></trkpt><trkpt lat="45.5632311" lon="10.4761322"><ele>345.0</ele><time>2026-03-29T07:22:21.703Z</time></trkpt><trkpt lat="45.5633148" lon="10.4760652"><ele>343.3333333333333</ele><time>2026-03-29T07:22:22.702Z</time></trkpt><trkpt lat="45.5633969" lon="10.4759951"><ele>341.6666666666667</ele><time>2026-03-29T07:22:23.702Z</time></trkpt><trkpt lat="45.5634767" lon="10.475931"><ele>340.0</ele><time>2026-03-29T07:22:24.703Z</time></trkpt><trkpt lat="45.5635455" lon="10.4758736"><ele>338.33333333333337</ele><time>2026-03-29T07:22:25.703Z</time></trkpt><trkpt lat="45.5636101" lon="10.4758227"><ele>336.6666666666667</ele><time>2026-03-29T07:22:26.702Z</time></trkpt><trkpt lat="45.5636707" lon="10.4757734"><ele>335.0</ele><time>2026-03-29T07:22:27.702Z</time></trkpt><trkpt lat="45.5637272" lon="10.4757288"><ele>335.0</ele><time>2026-03-29T07:22:28.703Z</time></trkpt><trkpt lat="45.5638241" lon="10.4756487"><ele>335.0</ele><time>2026-03-29T07:22:30.703Z</time></trkpt><trkpt lat="45.5638957" lon="10.4755681"><ele>335.0</ele><time>2026-03-29T07:22:32.703Z</time></trkpt><trkpt lat="45.5639556" lon="10.4755"><ele>335.0</ele><time>2026-03-29T07:22:34.703Z</time></trkpt><trkpt lat="45.5640466" lon="10.4754991"><ele>335.0</ele><time>2026-03-29T07:22:36.703Z</time></trkpt><trkpt lat="45.5641243" lon="10.4755888"><ele>335.0</ele><time>2026-03-29T07:22:38.702Z</time></trkpt><trkpt lat="45.5641907" lon="10.4757272"><ele>335.0</ele><time>2026-03-29T07:22:40.703Z</time></trkpt><trkpt lat="45.5642255" lon="10.4758104"><ele>335.0</ele><time>2026-03-29T07:22:41.702Z</time></trkpt><trkpt lat="45.5642614" lon="10.475899"><ele>335.0</ele><time>2026-03-29T07:22:42.703Z</time></trkpt><trkpt lat="45.564299" lon="10.4759928"><ele>335.0</ele><time>2026-03-29T07:22:43.702Z</time></trkpt><trkpt lat="45.5643403" lon="10.4760871"><ele>335.0</ele><time>2026-03-29T07:22:44.702Z</time></trkpt><trkpt lat="45.564384" lon="10.4761828"><ele>334.5</ele><time>2026-03-29T07:22:45.702Z</time></trkpt><trkpt lat="45.5644279" lon="10.47628"><ele>334.0</ele><time>2026-03-29T07:22:46.702Z</time></trkpt><trkpt lat="45.5644693" lon="10.4763733"><ele>333.5</ele><time>2026-03-29T07:22:47.703Z</time></trkpt><trkpt lat="45.5645116" lon="10.4764706"><ele>333.0</ele><time>2026-03-29T07:22:48.703Z</time></trkpt><trkpt lat="45.5645442" lon="10.4765661"><ele>332.5</ele><time>2026-03-29T07:22:49.703Z</time></trkpt><trkpt lat="45.5645847" lon="10.476663"><ele>332.0</ele><time>2026-03-29T07:22:50.702Z</time></trkpt><trkpt lat="45.5646178" lon="10.4767652"><ele>332.0</ele><time>2026-03-29T07:22:51.702Z</time></trkpt><trkpt lat="45.5646337" lon="10.4768686"><ele>332.0</ele><time>2026-03-29T07:22:52.702Z</time></trkpt><trkpt lat="45.5646682" lon="10.4769832"><ele>332.0</ele><time>2026-03-29T07:22:53.702Z</time></trkpt><trkpt lat="45.5646827" lon="10.47709"><ele>332.0</ele><time>2026-03-29T07:22:54.702Z</time></trkpt><trkpt lat="45.5647048" lon="10.4772051"><ele>332.0</ele><time>2026-03-29T07:22:55.703Z</time></trkpt><trkpt lat="45.5647135" lon="10.4773144"><ele>332.0</ele><time>2026-03-29T07:22:56.703Z</time></trkpt><trkpt lat="45.5647268" lon="10.4774075"><ele>332.6666666666667</ele><time>2026-03-29T07:22:57.702Z</time></trkpt><trkpt lat="45.5647271" lon="10.4775027"><ele>333.33333333333337</ele><time>2026-03-29T07:22:58.703Z</time></trkpt><trkpt lat="45.5647208" lon="10.4775943"><ele>334.0</ele><time>2026-03-29T07:22:59.702Z</time></trkpt><trkpt lat="45.5646801" lon="10.4776725"><ele>334.6666666666667</ele><time>2026-03-29T07:23:00.702Z</time></trkpt><trkpt lat="45.5645664" lon="10.4777903"><ele>335.3333333333333</ele><time>2026-03-29T07:23:02.703Z</time></trkpt><trkpt lat="45.5644746" lon="10.4778481"><ele>336.0</ele><time>2026-03-29T07:23:03.703Z</time></trkpt><trkpt lat="45.5643961" lon="10.477912"><ele>337.20000000000005</ele><time>2026-03-29T07:23:04.702Z</time></trkpt><trkpt lat="45.5643203" lon="10.4779918"><ele>338.40000000000003</ele><time>2026-03-29T07:23:05.702Z</time></trkpt><trkpt lat="45.5643103" lon="10.4780818"><ele>339.6</ele><time>2026-03-29T07:23:06.702Z</time></trkpt><trkpt lat="45.5642828" lon="10.4781905"><ele>340.8</ele><time>2026-03-29T07:23:07.702Z</time></trkpt><trkpt lat="45.5642702" lon="10.4782894"><ele>342.0</ele><time>2026-03-29T07:23:08.702Z</time></trkpt><trkpt lat="45.5643804" lon="10.4785037"><ele>342.0</ele><time>2026-03-29T07:23:10.703Z</time></trkpt><trkpt lat="45.5644488" lon="10.478589"><ele>342.0</ele><time>2026-03-29T07:23:11.703Z</time></trkpt><trkpt lat="45.564527" lon="10.4786596"><ele>342.0</ele><time>2026-03-29T07:23:12.703Z</time></trkpt><trkpt lat="45.5646173" lon="10.4787269"><ele>342.0</ele><time>2026-03-29T07:23:13.703Z</time></trkpt><trkpt lat="45.5647179" lon="10.4788068"><ele>342.0</ele><time>2026-03-29T07:23:14.703Z</time></trkpt><trkpt lat="45.5648081" lon="10.4788833"><ele>342.40000000000003</ele><time>2026-03-29T07:23:15.702Z</time></trkpt><trkpt lat="45.5648929" lon="10.4789443"><ele>342.8</ele><time>2026-03-29T07:23:16.702Z</time></trkpt><trkpt lat="45.5649599" lon="10.4790058"><ele>343.2</ele><time>2026-03-29T07:23:17.703Z</time></trkpt><trkpt lat="45.5650947" lon="10.4790395"><ele>343.6</ele><time>2026-03-29T07:23:19.702Z</time></trkpt><trkpt lat="45.5652261" lon="10.4790618"><ele>344.0</ele><time>2026-03-29T07:23:21.702Z</time></trkpt><trkpt lat="45.5653026" lon="10.4790818"><ele>344.33333333333337</ele><time>2026-03-29T07:23:22.703Z</time></trkpt><trkpt lat="45.5653754" lon="10.4790883"><ele>344.6666666666667</ele><time>2026-03-29T07:23:23.703Z</time></trkpt><trkpt lat="45.5654491" lon="10.479096"><ele>345.0</ele><time>2026-03-29T07:23:24.703Z</time></trkpt><trkpt lat="45.5655354" lon="10.4790569"><ele>345.3333333333333</ele><time>2026-03-29T07:23:25.703Z</time></trkpt><trkpt lat="45.5656154" lon="10.4790488"><ele>345.66666666666663</ele><time>2026-03-29T07:23:26.703Z</time></trkpt><trkpt lat="45.5656778" lon="10.4790327"><ele>346.0</ele><time>2026-03-29T07:23:27.703Z</time></trkpt><trkpt lat="45.5658252" lon="10.4790286"><ele>346.0</ele><time>2026-03-29T07:23:29.702Z</time></trkpt><trkpt lat="45.5659254" lon="10.4790173"><ele>346.0</ele><time>2026-03-29T07:23:30.702Z</time></trkpt><trkpt lat="45.5660065" lon="10.4789806"><ele>346.0</ele><time>2026-03-29T07:23:31.702Z</time></trkpt><trkpt lat="45.5660948" lon="10.4789279"><ele>346.0</ele><time>2026-03-29T07:23:32.702Z</time></trkpt><trkpt lat="45.5661719" lon="10.4788953"><ele>346.0</ele><time>2026-03-29T07:23:33.703Z</time></trkpt><trkpt lat="45.566244" lon="10.4788692"><ele>346.0</ele><time>2026-03-29T07:23:34.702Z</time></trkpt><trkpt lat="45.5663257" lon="10.478829"><ele>345.66666666666663</ele><time>2026-03-29T07:23:35.702Z</time></trkpt><trkpt lat="45.566413" lon="10.4788035"><ele>345.3333333333333</ele><time>2026-03-29T07:23:36.702Z</time></trkpt><trkpt lat="45.566482" lon="10.4787813"><ele>345.0</ele><time>2026-03-29T07:23:37.703Z</time></trkpt><trkpt lat="45.5665518" lon="10.4787956"><ele>344.6666666666667</ele><time>2026-03-29T07:23:38.703Z</time></trkpt><trkpt lat="45.566628" lon="10.4787764"><ele>344.33333333333337</ele><time>2026-03-29T07:23:39.703Z</time></trkpt><trkpt lat="45.5667127" lon="10.4787585"><ele>344.0</ele><time>2026-03-29T07:23:40.702Z</time></trkpt><trkpt lat="45.5667919" lon="10.4787533"><ele>344.0</ele><time>2026-03-29T07:23:41.703Z</time></trkpt><trkpt lat="45.5668726" lon="10.4787486"><ele>344.0</ele><time>2026-03-29T07:23:42.703Z</time></trkpt><trkpt lat="45.5669543" lon="10.4787359"><ele>344.0</ele><time>2026-03-29T07:23:43.703Z</time></trkpt><trkpt lat="45.5670324" lon="10.4787011"><ele>344.0</ele><time>2026-03-29T07:23:44.703Z</time></trkpt><trkpt lat="45.5671021" lon="10.4786719"><ele>344.0</ele><time>2026-03-29T07:23:45.703Z</time></trkpt><trkpt lat="45.5671774" lon="10.4786592"><ele>344.0</ele><time>2026-03-29T07:23:46.703Z</time></trkpt><trkpt lat="45.5672517" lon="10.4786544"><ele>344.6666666666667</ele><time>2026-03-29T07:23:47.702Z</time></trkpt><trkpt lat="45.5673231" lon="10.4786451"><ele>345.33333333333337</ele><time>2026-03-29T07:23:48.703Z</time></trkpt><trkpt lat="45.5673871" lon="10.4786407"><ele>346.0</ele><time>2026-03-29T07:23:49.703Z</time></trkpt><trkpt lat="45.5675097" lon="10.4786225"><ele>346.6666666666667</ele><time>2026-03-29T07:23:51.703Z</time></trkpt><trkpt lat="45.5675844" lon="10.4786139"><ele>347.3333333333333</ele><time>2026-03-29T07:23:52.703Z</time></trkpt><trkpt lat="45.5676558" lon="10.4786101"><ele>348.0</ele><time>2026-03-29T07:23:53.703Z</time></trkpt><trkpt lat="45.5677333" lon="10.4786179"><ele>348.0</ele><time>2026-03-29T07:23:54.703Z</time></trkpt><trkpt lat="45.567816" lon="10.4786322"><ele>348.0</ele><time>2026-03-29T07:23:55.703Z</time></trkpt><trkpt lat="45.567888" lon="10.4786434"><ele>348.0</ele><time>2026-03-29T07:23:56.703Z</time></trkpt><trkpt lat="45.5679848" lon="10.4786501"><ele>348.0</ele><time>2026-03-29T07:23:57.703Z</time></trkpt><trkpt lat="45.5680842" lon="10.4786497"><ele>348.0</ele><time>2026-03-29T07:23:58.703Z</time></trkpt><trkpt lat="45.5681593" lon="10.4786558"><ele>348.0</ele><time>2026-03-29T07:23:59.704Z</time></trkpt><trkpt lat="45.5682839" lon="10.4786767"><ele>348.5</ele><time>2026-03-29T07:24:01.702Z</time></trkpt><trkpt lat="45.5683792" lon="10.4786899"><ele>349.0</ele><time>2026-03-29T07:24:03.702Z</time></trkpt><trkpt lat="45.5684636" lon="10.478702"><ele>349.5</ele><time>2026-03-29T07:24:06.702Z</time></trkpt><trkpt lat="45.568527" lon="10.4787078"><ele>350.0</ele><time>2026-03-29T07:24:11.703Z</time></trkpt><trkpt lat="45.5685956" lon="10.4787003"><ele>350.5</ele><time>2026-03-29T07:24:46.703Z</time></trkpt><trkpt lat="45.5686818" lon="10.4787108"><ele>351.0</ele><time>2026-03-29T07:24:55.703Z</time></trkpt><trkpt lat="45.5687614" lon="10.4787016"><ele>351.1666666666667</ele><time>2026-03-29T07:24:58.703Z</time></trkpt><trkpt lat="45.5688261" lon="10.478708"><ele>351.3333333333333</ele><time>2026-03-29T07:25:01.702Z</time></trkpt><trkpt lat="45.5688783" lon="10.478844"><ele>351.5</ele><time>2026-03-29T07:25:04.702Z</time></trkpt><trkpt lat="45.5688976" lon="10.4789461"><ele>351.66666666666663</ele><time>2026-03-29T07:25:06.703Z</time></trkpt><trkpt lat="45.5689109" lon="10.4790538"><ele>351.8333333333333</ele><time>2026-03-29T07:25:08.703Z</time></trkpt><trkpt lat="45.5689279" lon="10.4791768"><ele>352.0</ele><time>2026-03-29T07:25:10.702Z</time></trkpt><trkpt lat="45.5689558" lon="10.4792958"><ele>352.0</ele><time>2026-03-29T07:25:12.702Z</time></trkpt><trkpt lat="45.5689919" lon="10.4794097"><ele>352.0</ele><time>2026-03-29T07:25:14.702Z</time></trkpt><trkpt lat="45.5690469" lon="10.4794828"><ele>352.0</ele><time>2026-03-29T07:25:16.702Z</time></trkpt><trkpt lat="45.5691141" lon="10.4795372"><ele>352.0</ele><time>2026-03-29T07:25:18.703Z</time></trkpt><trkpt lat="45.5691919" lon="10.4795864"><ele>352.0</ele><time>2026-03-29T07:25:20.702Z</time></trkpt><trkpt lat="45.5692529" lon="10.4796343"><ele>352.0</ele><time>2026-03-29T07:25:22.702Z</time></trkpt><trkpt lat="45.569333" lon="10.4797688"><ele>350.20000000000005</ele><time>2026-03-29T07:25:25.702Z</time></trkpt><trkpt lat="45.5694003" lon="10.4798825"><ele>348.4</ele><time>2026-03-29T07:25:27.703Z</time></trkpt><trkpt lat="45.5694675" lon="10.4800041"><ele>346.6</ele><time>2026-03-29T07:25:29.702Z</time></trkpt><trkpt lat="45.5695507" lon="10.480095"><ele>344.79999999999995</ele><time>2026-03-29T07:25:31.703Z</time></trkpt><trkpt lat="45.5696296" lon="10.4801606"><ele>343.0</ele><time>2026-03-29T07:25:33.702Z</time></trkpt><trkpt lat="45.5697283" lon="10.4802264"><ele>342.4</ele><time>2026-03-29T07:25:35.704Z</time></trkpt><trkpt lat="45.5698422" lon="10.4803095"><ele>341.79999999999995</ele><time>2026-03-29T07:25:37.703Z</time></trkpt><trkpt lat="45.5699357" lon="10.4803734"><ele>341.2</ele><time>2026-03-29T07:25:39.703Z</time></trkpt><trkpt lat="45.5700269" lon="10.4804181"><ele>340.6</ele><time>2026-03-29T07:25:41.702Z</time></trkpt><trkpt lat="45.5701095" lon="10.4804481"><ele>340.0</ele><time>2026-03-29T07:25:43.703Z</time></trkpt><trkpt lat="45.5701792" lon="10.4804844"><ele>337.16666666666663</ele><time>2026-03-29T07:25:45.702Z</time></trkpt><trkpt lat="45.5702595" lon="10.480505"><ele>334.3333333333333</ele><time>2026-03-29T07:25:47.703Z</time></trkpt><trkpt lat="45.5703318" lon="10.4805272"><ele>331.5</ele><time>2026-03-29T07:25:49.703Z</time></trkpt><trkpt lat="45.5704339" lon="10.4805703"><ele>328.6666666666667</ele><time>2026-03-29T07:25:51.703Z</time></trkpt><trkpt lat="45.5705219" lon="10.4806184"><ele>325.83333333333337</ele><time>2026-03-29T07:25:53.702Z</time></trkpt><trkpt lat="45.5706092" lon="10.4806613"><ele>323.0</ele><time>2026-03-29T07:25:55.702Z</time></trkpt><trkpt lat="45.5706783" lon="10.480717"><ele>322.5</ele><time>2026-03-29T07:25:57.703Z</time></trkpt><trkpt lat="45.5707369" lon="10.4807707"><ele>322.0</ele><time>2026-03-29T07:25:59.703Z</time></trkpt><trkpt lat="45.5708078" lon="10.4808356"><ele>321.5</ele><time>2026-03-29T07:26:01.703Z</time></trkpt><trkpt lat="45.5708902" lon="10.4809003"><ele>321.0</ele><time>2026-03-29T07:26:03.702Z</time></trkpt><trkpt lat="45.5709651" lon="10.4809667"><ele>320.5</ele><time>2026-03-29T07:26:05.703Z</time></trkpt><trkpt lat="45.5710168" lon="10.4810714"><ele>320.0</ele><time>2026-03-29T07:26:07.703Z</time></trkpt><trkpt lat="45.5709847" lon="10.4811803"><ele>320.0</ele><time>2026-03-29T07:26:09.703Z</time></trkpt><trkpt lat="45.5709064" lon="10.481265"><ele>320.0</ele><time>2026-03-29T07:26:11.703Z</time></trkpt><trkpt lat="45.5707947" lon="10.4813221"><ele>320.0</ele><time>2026-03-29T07:26:13.702Z</time></trkpt><trkpt lat="45.5706933" lon="10.4813707"><ele>320.0</ele><time>2026-03-29T07:26:15.702Z</time></trkpt><trkpt lat="45.5706173" lon="10.4814267"><ele>320.0</ele><time>2026-03-29T07:26:17.703Z</time></trkpt><trkpt lat="45.5705661" lon="10.4815288"><ele>317.4</ele><time>2026-03-29T07:26:19.703Z</time></trkpt><trkpt lat="45.5705501" lon="10.4816922"><ele>314.8</ele><time>2026-03-29T07:26:21.702Z</time></trkpt><trkpt lat="45.5705302" lon="10.4818607"><ele>312.2</ele><time>2026-03-29T07:26:23.702Z</time></trkpt><trkpt lat="45.5705192" lon="10.4819499"><ele>309.6</ele><time>2026-03-29T07:26:24.702Z</time></trkpt><trkpt lat="45.5705036" lon="10.4821256"><ele>307.0</ele><time>2026-03-29T07:26:26.702Z</time></trkpt><trkpt lat="45.5704965" lon="10.4822556"><ele>306.6</ele><time>2026-03-29T07:26:28.703Z</time></trkpt><trkpt lat="45.5705252" lon="10.4823716"><ele>306.2</ele><time>2026-03-29T07:26:31.702Z</time></trkpt><trkpt lat="45.5706247" lon="10.482425"><ele>305.8</ele><time>2026-03-29T07:26:33.702Z</time></trkpt><trkpt lat="45.5707025" lon="10.4824307"><ele>305.4</ele><time>2026-03-29T07:26:34.703Z</time></trkpt><trkpt lat="45.570789" lon="10.4824546"><ele>305.0</ele><time>2026-03-29T07:26:35.703Z</time></trkpt><trkpt lat="45.5708868" lon="10.4824717"><ele>305.0</ele><time>2026-03-29T07:26:36.703Z</time></trkpt><trkpt lat="45.5709946" lon="10.482485"><ele>305.0</ele><time>2026-03-29T07:26:37.702Z</time></trkpt><trkpt lat="45.5711044" lon="10.4824968"><ele>305.0</ele><time>2026-03-29T07:26:38.703Z</time></trkpt><trkpt lat="45.5712172" lon="10.4825041"><ele>305.0</ele><time>2026-03-29T07:26:39.703Z</time></trkpt><trkpt lat="45.5713338" lon="10.4825145"><ele>305.0</ele><time>2026-03-29T07:26:40.703Z</time></trkpt><trkpt lat="45.571461" lon="10.4825199"><ele>304.0</ele><time>2026-03-29T07:26:41.702Z</time></trkpt><trkpt lat="45.5715843" lon="10.4825247"><ele>303.0</ele><time>2026-03-29T07:26:42.702Z</time></trkpt><trkpt lat="45.5717012" lon="10.482529"><ele>302.0</ele><time>2026-03-29T07:26:43.702Z</time></trkpt><trkpt lat="45.5718082" lon="10.4825446"><ele>301.0</ele><time>2026-03-29T07:26:44.702Z</time></trkpt><trkpt lat="45.5719003" lon="10.4825453"><ele>300.0</ele><time>2026-03-29T07:26:45.703Z</time></trkpt><trkpt lat="45.571984" lon="10.4825371"><ele>299.6666666666667</ele><time>2026-03-29T07:26:46.702Z</time></trkpt><trkpt lat="45.5720603" lon="10.4825389"><ele>299.3333333333333</ele><time>2026-03-29T07:26:47.702Z</time></trkpt><trkpt lat="45.5721442" lon="10.4825376"><ele>299.0</ele><time>2026-03-29T07:26:48.702Z</time></trkpt><trkpt lat="45.5722215" lon="10.482535"><ele>298.66666666666663</ele><time>2026-03-29T07:26:49.703Z</time></trkpt><trkpt lat="45.5722978" lon="10.4825363"><ele>298.3333333333333</ele><time>2026-03-29T07:26:50.703Z</time></trkpt><trkpt lat="45.5723759" lon="10.4825403"><ele>298.0</ele><time>2026-03-29T07:26:51.703Z</time></trkpt><trkpt lat="45.572459" lon="10.4825448"><ele>298.0</ele><time>2026-03-29T07:26:52.703Z</time></trkpt><trkpt lat="45.5725522" lon="10.4825534"><ele>298.0</ele><time>2026-03-29T07:26:53.702Z</time></trkpt><trkpt lat="45.5726613" lon="10.4825577"><ele>298.0</ele><time>2026-03-29T07:26:54.703Z</time></trkpt><trkpt lat="45.572777" lon="10.4825644"><ele>298.0</ele><time>2026-03-29T07:26:55.702Z</time></trkpt><trkpt lat="45.5728966" lon="10.4825624"><ele>298.0</ele><time>2026-03-29T07:26:56.702Z</time></trkpt><trkpt lat="45.5730119" lon="10.4825667"><ele>296.5</ele><time>2026-03-29T07:26:57.702Z</time></trkpt><trkpt lat="45.5731323" lon="10.4825808"><ele>295.0</ele><time>2026-03-29T07:26:58.702Z</time></trkpt><trkpt lat="45.5732551" lon="10.4825906"><ele>293.5</ele><time>2026-03-29T07:26:59.703Z</time></trkpt><trkpt lat="45.57338" lon="10.4825974"><ele>292.0</ele><time>2026-03-29T07:27:00.702Z</time></trkpt><trkpt lat="45.5735118" lon="10.4826101"><ele>292.0</ele><time>2026-03-29T07:27:01.703Z</time></trkpt><trkpt lat="45.5736548" lon="10.4826214"><ele>292.0</ele><time>2026-03-29T07:27:02.702Z</time></trkpt><trkpt lat="45.5738078" lon="10.482622"><ele>292.0</ele><time>2026-03-29T07:27:03.703Z</time></trkpt><trkpt lat="45.5739588" lon="10.4826258"><ele>292.0</ele><time>2026-03-29T07:27:04.703Z</time></trkpt><trkpt lat="45.5741053" lon="10.4826354"><ele>291.5</ele><time>2026-03-29T07:27:05.702Z</time></trkpt><trkpt lat="45.5742507" lon="10.4826449"><ele>291.0</ele><time>2026-03-29T07:27:06.703Z</time></trkpt><trkpt lat="45.5743918" lon="10.4826546"><ele>290.5</ele><time>2026-03-29T07:27:07.702Z</time></trkpt><trkpt lat="45.5745266" lon="10.4826642"><ele>290.0</ele><time>2026-03-29T07:27:08.702Z</time></trkpt><trkpt lat="45.5746612" lon="10.4826717"><ele>290.0</ele><time>2026-03-29T07:27:09.702Z</time></trkpt><trkpt lat="45.5747942" lon="10.4826709"><ele>290.0</ele><time>2026-03-29T07:27:10.702Z</time></trkpt><trkpt lat="45.5749289" lon="10.4826543"><ele>290.0</ele><time>2026-03-29T07:27:11.702Z</time></trkpt><trkpt lat="45.5750679" lon="10.4826271"><ele>290.0</ele><time>2026-03-29T07:27:12.702Z</time></trkpt><trkpt lat="45.5752054" lon="10.4826"><ele>290.0</ele><time>2026-03-29T07:27:13.703Z</time></trkpt><trkpt lat="45.5753388" lon="10.482573"><ele>290.0</ele><time>2026-03-29T07:27:14.702Z</time></trkpt><trkpt lat="45.5754531" lon="10.4825451"><ele>290.0</ele><time>2026-03-29T07:27:15.702Z</time></trkpt><trkpt lat="45.5755586" lon="10.482523"><ele>290.0</ele><time>2026-03-29T07:27:16.703Z</time></trkpt><trkpt lat="45.5756558" lon="10.4825046"><ele>289.2</ele><time>2026-03-29T07:27:17.703Z</time></trkpt><trkpt lat="45.5757535" lon="10.4824864"><ele>288.4</ele><time>2026-03-29T07:27:18.703Z</time></trkpt><trkpt lat="45.5758559" lon="10.4824674"><ele>287.6</ele><time>2026-03-29T07:27:19.703Z</time></trkpt><trkpt lat="45.5759612" lon="10.4824457"><ele>286.8</ele><time>2026-03-29T07:27:20.702Z</time></trkpt><trkpt lat="45.5760707" lon="10.4824288"><ele>286.0</ele><time>2026-03-29T07:27:21.703Z</time></trkpt><trkpt lat="45.576184" lon="10.4824156"><ele>285.5</ele><time>2026-03-29T07:27:22.702Z</time></trkpt><trkpt lat="45.5763017" lon="10.4824036"><ele>285.0</ele><time>2026-03-29T07:27:23.703Z</time></trkpt><trkpt lat="45.576417" lon="10.4823971"><ele>284.5</ele><time>2026-03-29T07:27:24.703Z</time></trkpt><trkpt lat="45.5765297" lon="10.4823878"><ele>284.0</ele><time>2026-03-29T07:27:25.703Z</time></trkpt><trkpt lat="45.5766329" lon="10.4823782"><ele>284.0</ele><time>2026-03-29T07:27:26.702Z</time></trkpt><trkpt lat="45.576732" lon="10.4823671"><ele>284.0</ele><time>2026-03-29T07:27:27.703Z</time></trkpt><trkpt lat="45.5768259" lon="10.4823576"><ele>284.0</ele><time>2026-03-29T07:27:28.703Z</time></trkpt><trkpt lat="45.5769118" lon="10.4823464"><ele>284.0</ele><time>2026-03-29T07:27:29.703Z</time></trkpt><trkpt lat="45.5770011" lon="10.4823351"><ele>284.0</ele><time>2026-03-29T07:27:30.703Z</time></trkpt><trkpt lat="45.5770979" lon="10.4823231"><ele>283.5</ele><time>2026-03-29T07:27:31.702Z</time></trkpt><trkpt lat="45.5772046" lon="10.482308"><ele>283.0</ele><time>2026-03-29T07:27:32.702Z</time></trkpt><trkpt lat="45.5773197" lon="10.4823051"><ele>282.5</ele><time>2026-03-29T07:27:33.703Z</time></trkpt><trkpt lat="45.5774468" lon="10.4823073"><ele>282.0</ele><time>2026-03-29T07:27:34.702Z</time></trkpt><trkpt lat="45.5775824" lon="10.4823012"><ele>282.0</ele><time>2026-03-29T07:27:35.702Z</time></trkpt><trkpt lat="45.5777298" lon="10.4822925"><ele>282.0</ele><time>2026-03-29T07:27:36.703Z</time></trkpt><trkpt lat="45.5778894" lon="10.4822908"><ele>282.0</ele><time>2026-03-29T07:27:37.703Z</time></trkpt><trkpt lat="45.578057" lon="10.4822873"><ele>280.6666666666667</ele><time>2026-03-29T07:27:38.702Z</time></trkpt><trkpt lat="45.5782183" lon="10.4822837"><ele>279.33333333333337</ele><time>2026-03-29T07:27:39.702Z</time></trkpt><trkpt lat="45.5783764" lon="10.4822861"><ele>278.0</ele><time>2026-03-29T07:27:40.702Z</time></trkpt><trkpt lat="45.5785311" lon="10.4822867"><ele>278.0</ele><time>2026-03-29T07:27:41.703Z</time></trkpt><trkpt lat="45.578682" lon="10.4822879"><ele>278.0</ele><time>2026-03-29T07:27:42.703Z</time></trkpt><trkpt lat="45.5788361" lon="10.4822911"><ele>278.0</ele><time>2026-03-29T07:27:43.704Z</time></trkpt><trkpt lat="45.5789881" lon="10.4822973"><ele>277.0</ele><time>2026-03-29T07:27:44.702Z</time></trkpt><trkpt lat="45.5791473" lon="10.4823089"><ele>276.0</ele><time>2026-03-29T07:27:45.703Z</time></trkpt><trkpt lat="45.5793102" lon="10.4823312"><ele>275.0</ele><time>2026-03-29T07:27:46.703Z</time></trkpt><trkpt lat="45.5794743" lon="10.4823627"><ele>274.0</ele><time>2026-03-29T07:27:47.702Z</time></trkpt><trkpt lat="45.5796361" lon="10.4824066"><ele>273.0</ele><time>2026-03-29T07:27:48.702Z</time></trkpt><trkpt lat="45.5797971" lon="10.4824649"><ele>272.0</ele><time>2026-03-29T07:27:49.702Z</time></trkpt><trkpt lat="45.5799533" lon="10.4825348"><ele>272.0</ele><time>2026-03-29T07:27:50.703Z</time></trkpt><trkpt lat="45.5801034" lon="10.4826012"><ele>272.0</ele><time>2026-03-29T07:27:51.703Z</time></trkpt><trkpt lat="45.580251" lon="10.4826705"><ele>272.0</ele><time>2026-03-29T07:27:52.702Z</time></trkpt><trkpt lat="45.5803994" lon="10.4827416"><ele>272.0</ele><time>2026-03-29T07:27:53.702Z</time></trkpt><trkpt lat="45.5805417" lon="10.4828087"><ele>272.0</ele><time>2026-03-29T07:27:54.702Z</time></trkpt><trkpt lat="45.5806795" lon="10.4828734"><ele>272.0</ele><time>2026-03-29T07:27:55.702Z</time></trkpt><trkpt lat="45.5808123" lon="10.48294"><ele>272.0</ele><time>2026-03-29T07:27:56.703Z</time></trkpt><trkpt lat="45.5809389" lon="10.4830025"><ele>272.4</ele><time>2026-03-29T07:27:57.702Z</time></trkpt><trkpt lat="45.581061" lon="10.4830597"><ele>272.79999999999995</ele><time>2026-03-29T07:27:58.702Z</time></trkpt><trkpt lat="45.5811679" lon="10.4831093"><ele>273.2</ele><time>2026-03-29T07:27:59.702Z</time></trkpt><trkpt lat="45.5812565" lon="10.4831496"><ele>273.59999999999997</ele><time>2026-03-29T07:28:00.703Z</time></trkpt><trkpt lat="45.5813266" lon="10.4831792"><ele>274.0</ele><time>2026-03-29T07:28:01.703Z</time></trkpt><trkpt lat="45.5814221" lon="10.4831455"><ele>274.2</ele><time>2026-03-29T07:28:03.704Z</time></trkpt><trkpt lat="45.5814783" lon="10.4829953"><ele>274.4</ele><time>2026-03-29T07:28:05.704Z</time></trkpt><trkpt lat="45.5814987" lon="10.482871"><ele>274.6</ele><time>2026-03-29T07:28:06.704Z</time></trkpt><trkpt lat="45.5815323" lon="10.4827234"><ele>274.8</ele><time>2026-03-29T07:28:07.703Z</time></trkpt><trkpt lat="45.5815852" lon="10.4825577"><ele>275.0</ele><time>2026-03-29T07:28:08.703Z</time></trkpt><trkpt lat="45.5816456" lon="10.4823754"><ele>274.33333333333337</ele><time>2026-03-29T07:28:09.703Z</time></trkpt><trkpt lat="45.5817035" lon="10.4821753"><ele>273.6666666666667</ele><time>2026-03-29T07:28:10.703Z</time></trkpt><trkpt lat="45.5817612" lon="10.4819587"><ele>273.0</ele><time>2026-03-29T07:28:11.703Z</time></trkpt><trkpt lat="45.5818246" lon="10.4817315"><ele>273.0</ele><time>2026-03-29T07:28:12.703Z</time></trkpt><trkpt lat="45.5818955" lon="10.4814877"><ele>273.0</ele><time>2026-03-29T07:28:13.704Z</time></trkpt><trkpt lat="45.5819695" lon="10.4812347"><ele>273.0</ele><time>2026-03-29T07:28:14.704Z</time></trkpt><trkpt lat="45.5820477" lon="10.4809754"><ele>274.3333333333333</ele><time>2026-03-29T07:28:15.704Z</time></trkpt><trkpt lat="45.5821277" lon="10.4807112"><ele>275.66666666666663</ele><time>2026-03-29T07:28:16.703Z</time></trkpt><trkpt lat="45.5822124" lon="10.480447"><ele>277.0</ele><time>2026-03-29T07:28:17.705Z</time></trkpt><trkpt lat="45.5822973" lon="10.4801992"><ele>277.0</ele><time>2026-03-29T07:28:18.703Z</time></trkpt><trkpt lat="45.5823575" lon="10.4799618"><ele>277.0</ele><time>2026-03-29T07:28:19.703Z</time></trkpt><trkpt lat="45.5823856" lon="10.4797284"><ele>277.0</ele><time>2026-03-29T07:28:20.704Z</time></trkpt><trkpt lat="45.5823814" lon="10.4795106"><ele>277.0</ele><time>2026-03-29T07:28:21.704Z</time></trkpt><trkpt lat="45.5823555" lon="10.4793243"><ele>277.0</ele><time>2026-03-29T07:28:22.704Z</time></trkpt><trkpt lat="45.5823145" lon="10.4791449"><ele>277.0</ele><time>2026-03-29T07:28:23.704Z</time></trkpt><trkpt lat="45.5822677" lon="10.4789554"><ele>277.0</ele><time>2026-03-29T07:28:24.703Z</time></trkpt><trkpt lat="45.5822302" lon="10.4787492"><ele>278.66666666666663</ele><time>2026-03-29T07:28:25.703Z</time></trkpt><trkpt lat="45.5821842" lon="10.478539"><ele>280.3333333333333</ele><time>2026-03-29T07:28:26.704Z</time></trkpt><trkpt lat="45.5821067" lon="10.4783379"><ele>282.0</ele><time>2026-03-29T07:28:27.703Z</time></trkpt><trkpt lat="45.5820071" lon="10.4781538"><ele>279.6666666666667</ele><time>2026-03-29T07:28:28.703Z</time></trkpt><trkpt lat="45.5818946" lon="10.4779824"><ele>277.33333333333337</ele><time>2026-03-29T07:28:29.703Z</time></trkpt><trkpt lat="45.5817767" lon="10.4778445"><ele>275.0</ele><time>2026-03-29T07:28:30.704Z</time></trkpt><trkpt lat="45.5816537" lon="10.4777278"><ele>275.0</ele><time>2026-03-29T07:28:31.703Z</time></trkpt><trkpt lat="45.5815394" lon="10.4776188"><ele>275.0</ele><time>2026-03-29T07:28:32.703Z</time></trkpt><trkpt lat="45.5814303" lon="10.4775135"><ele>275.0</ele><time>2026-03-29T07:28:33.703Z</time></trkpt><trkpt lat="45.5813273" lon="10.4774036"><ele>275.0</ele><time>2026-03-29T07:28:34.704Z</time></trkpt><trkpt lat="45.5812444" lon="10.4772841"><ele>275.0</ele><time>2026-03-29T07:28:35.704Z</time></trkpt><trkpt lat="45.5811912" lon="10.4771485"><ele>275.0</ele><time>2026-03-29T07:28:36.704Z</time></trkpt><trkpt lat="45.5811678" lon="10.4770018"><ele>275.0</ele><time>2026-03-29T07:28:37.703Z</time></trkpt><trkpt lat="45.5811607" lon="10.4768398"><ele>275.0</ele><time>2026-03-29T07:28:38.703Z</time></trkpt><trkpt lat="45.5811569" lon="10.4766678"><ele>275.0</ele><time>2026-03-29T07:28:39.703Z</time></trkpt><trkpt lat="45.581148" lon="10.476488"><ele>273.0</ele><time>2026-03-29T07:28:40.704Z</time></trkpt><trkpt lat="45.5811321" lon="10.4763035"><ele>271.0</ele><time>2026-03-29T07:28:41.705Z</time></trkpt><trkpt lat="45.5811227" lon="10.4761136"><ele>269.0</ele><time>2026-03-29T07:28:42.703Z</time></trkpt><trkpt lat="45.5811351" lon="10.4759126"><ele>267.0</ele><time>2026-03-29T07:28:43.703Z</time></trkpt><trkpt lat="45.5811508" lon="10.4757061"><ele>267.0</ele><time>2026-03-29T07:28:44.703Z</time></trkpt><trkpt lat="45.5811654" lon="10.4754949"><ele>267.0</ele><time>2026-03-29T07:28:45.704Z</time></trkpt><trkpt lat="45.581189" lon="10.4752854"><ele>267.0</ele><time>2026-03-29T07:28:46.704Z</time></trkpt><trkpt lat="45.5812226" lon="10.475085"><ele>267.0</ele><time>2026-03-29T07:28:47.704Z</time></trkpt><trkpt lat="45.5812527" lon="10.4748933"><ele>267.0</ele><time>2026-03-29T07:28:48.703Z</time></trkpt><trkpt lat="45.581268" lon="10.474704"><ele>267.0</ele><time>2026-03-29T07:28:49.703Z</time></trkpt><trkpt lat="45.5812737" lon="10.4745085"><ele>267.0</ele><time>2026-03-29T07:28:50.703Z</time></trkpt><trkpt lat="45.5812785" lon="10.474304"><ele>267.0</ele><time>2026-03-29T07:28:51.703Z</time></trkpt><trkpt lat="45.5812797" lon="10.4740971"><ele>267.0</ele><time>2026-03-29T07:28:52.704Z</time></trkpt><trkpt lat="45.5812886" lon="10.4738945"><ele>267.0</ele><time>2026-03-29T07:28:53.704Z</time></trkpt><trkpt lat="45.581322" lon="10.4736934"><ele>267.0</ele><time>2026-03-29T07:28:54.703Z</time></trkpt><trkpt lat="45.5813795" lon="10.4734947"><ele>267.0</ele><time>2026-03-29T07:28:55.703Z</time></trkpt><trkpt lat="45.5814518" lon="10.4733038"><ele>265.0</ele><time>2026-03-29T07:28:56.703Z</time></trkpt><trkpt lat="45.5815425" lon="10.4731237"><ele>263.0</ele><time>2026-03-29T07:28:57.703Z</time></trkpt><trkpt lat="45.5816446" lon="10.4729634"><ele>261.0</ele><time>2026-03-29T07:28:58.703Z</time></trkpt><trkpt lat="45.5817581" lon="10.4728373"><ele>261.6666666666667</ele><time>2026-03-29T07:28:59.703Z</time></trkpt><trkpt lat="45.5818831" lon="10.4727225"><ele>262.33333333333337</ele><time>2026-03-29T07:29:00.703Z</time></trkpt><trkpt lat="45.5820108" lon="10.4726068"><ele>263.0</ele><time>2026-03-29T07:29:01.703Z</time></trkpt><trkpt lat="45.5821404" lon="10.4724848"><ele>263.0</ele><time>2026-03-29T07:29:02.704Z</time></trkpt><trkpt lat="45.5822728" lon="10.4723687"><ele>263.0</ele><time>2026-03-29T07:29:03.703Z</time></trkpt><trkpt lat="45.5824106" lon="10.4722539"><ele>263.0</ele><time>2026-03-29T07:29:04.703Z</time></trkpt><trkpt lat="45.5825466" lon="10.4721384"><ele>261.0</ele><time>2026-03-29T07:29:05.703Z</time></trkpt><trkpt lat="45.5826813" lon="10.4720174"><ele>259.0</ele><time>2026-03-29T07:29:06.703Z</time></trkpt><trkpt lat="45.5828048" lon="10.4718806"><ele>257.0</ele><time>2026-03-29T07:29:07.704Z</time></trkpt><trkpt lat="45.5829127" lon="10.4717169"><ele>258.0</ele><time>2026-03-29T07:29:08.703Z</time></trkpt><trkpt lat="45.5830118" lon="10.4715373"><ele>259.0</ele><time>2026-03-29T07:29:09.704Z</time></trkpt><trkpt lat="45.5831142" lon="10.4713733"><ele>260.0</ele><time>2026-03-29T07:29:10.704Z</time></trkpt><trkpt lat="45.5832117" lon="10.4712217"><ele>260.0</ele><time>2026-03-29T07:29:11.703Z</time></trkpt><trkpt lat="45.5833022" lon="10.4710788"><ele>260.0</ele><time>2026-03-29T07:29:12.704Z</time></trkpt><trkpt lat="45.5833921" lon="10.470936"><ele>260.0</ele><time>2026-03-29T07:29:13.704Z</time></trkpt><trkpt lat="45.5834811" lon="10.4707957"><ele>260.0</ele><time>2026-03-29T07:29:14.703Z</time></trkpt><trkpt lat="45.5835766" lon="10.4706563"><ele>260.25</ele><time>2026-03-29T07:29:15.704Z</time></trkpt><trkpt lat="45.5836898" lon="10.4705404"><ele>260.5</ele><time>2026-03-29T07:29:16.703Z</time></trkpt><trkpt lat="45.5838162" lon="10.4704383"><ele>260.75</ele><time>2026-03-29T07:29:17.703Z</time></trkpt><trkpt lat="45.5839444" lon="10.4703403"><ele>261.0</ele><time>2026-03-29T07:29:18.704Z</time></trkpt><trkpt lat="45.5840766" lon="10.4702443"><ele>259.6666666666667</ele><time>2026-03-29T07:29:19.704Z</time></trkpt><trkpt lat="45.5842102" lon="10.4701505"><ele>258.33333333333337</ele><time>2026-03-29T07:29:20.704Z</time></trkpt><trkpt lat="45.5843475" lon="10.4700572"><ele>257.0</ele><time>2026-03-29T07:29:21.703Z</time></trkpt><trkpt lat="45.5844811" lon="10.4699552"><ele>257.25</ele><time>2026-03-29T07:29:22.703Z</time></trkpt><trkpt lat="45.5846072" lon="10.469842"><ele>257.5</ele><time>2026-03-29T07:29:23.703Z</time></trkpt><trkpt lat="45.5847263" lon="10.4697158"><ele>257.75</ele><time>2026-03-29T07:29:24.704Z</time></trkpt><trkpt lat="45.5848388" lon="10.4695903"><ele>258.0</ele><time>2026-03-29T07:29:25.703Z</time></trkpt><trkpt lat="45.5849426" lon="10.4694591"><ele>257.25</ele><time>2026-03-29T07:29:26.704Z</time></trkpt><trkpt lat="45.5850424" lon="10.4693138"><ele>256.5</ele><time>2026-03-29T07:29:27.704Z</time></trkpt><trkpt lat="45.5851418" lon="10.469152"><ele>255.75</ele><time>2026-03-29T07:29:28.703Z</time></trkpt><trkpt lat="45.5852362" lon="10.4689743"><ele>255.0</ele><time>2026-03-29T07:29:29.704Z</time></trkpt><trkpt lat="45.5853211" lon="10.4687803"><ele>252.66666666666669</ele><time>2026-03-29T07:29:30.704Z</time></trkpt><trkpt lat="45.5854066" lon="10.4685814"><ele>250.33333333333334</ele><time>2026-03-29T07:29:31.704Z</time></trkpt><trkpt lat="45.5854984" lon="10.4683851"><ele>248.0</ele><time>2026-03-29T07:29:32.703Z</time></trkpt><trkpt lat="45.5855899" lon="10.4681875"><ele>248.0</ele><time>2026-03-29T07:29:33.704Z</time></trkpt><trkpt lat="45.5856798" lon="10.467992"><ele>248.0</ele><time>2026-03-29T07:29:34.704Z</time></trkpt><trkpt lat="45.5857667" lon="10.4677992"><ele>248.0</ele><time>2026-03-29T07:29:35.703Z</time></trkpt><trkpt lat="45.5858544" lon="10.4676112"><ele>248.0</ele><time>2026-03-29T07:29:36.703Z</time></trkpt><trkpt lat="45.585941" lon="10.4674316"><ele>248.0</ele><time>2026-03-29T07:29:37.703Z</time></trkpt><trkpt lat="45.5860315" lon="10.467264"><ele>248.0</ele><time>2026-03-29T07:29:38.703Z</time></trkpt><trkpt lat="45.5861281" lon="10.467113"><ele>248.0</ele><time>2026-03-29T07:29:39.704Z</time></trkpt><trkpt lat="45.5862306" lon="10.4669722"><ele>249.75</ele><time>2026-03-29T07:29:40.704Z</time></trkpt><trkpt lat="45.5863319" lon="10.4668359"><ele>251.5</ele><time>2026-03-29T07:29:41.703Z</time></trkpt><trkpt lat="45.5864295" lon="10.4666983"><ele>253.25</ele><time>2026-03-29T07:29:42.703Z</time></trkpt><trkpt lat="45.5865228" lon="10.4665638"><ele>255.0</ele><time>2026-03-29T07:29:43.704Z</time></trkpt><trkpt lat="45.5866174" lon="10.466427"><ele>255.0</ele><time>2026-03-29T07:29:44.704Z</time></trkpt><trkpt lat="45.5867161" lon="10.4662885"><ele>255.0</ele><time>2026-03-29T07:29:45.704Z</time></trkpt><trkpt lat="45.5868147" lon="10.4661487"><ele>255.0</ele><time>2026-03-29T07:29:46.704Z</time></trkpt><trkpt lat="45.5869127" lon="10.4660115"><ele>255.0</ele><time>2026-03-29T07:29:47.703Z</time></trkpt><trkpt lat="45.5870099" lon="10.465875"><ele>256.25</ele><time>2026-03-29T07:29:48.704Z</time></trkpt><trkpt lat="45.5871115" lon="10.4657333"><ele>257.5</ele><time>2026-03-29T07:29:49.703Z</time></trkpt><trkpt lat="45.5872079" lon="10.465599"><ele>258.75</ele><time>2026-03-29T07:29:50.703Z</time></trkpt><trkpt lat="45.5872986" lon="10.4654751"><ele>260.0</ele><time>2026-03-29T07:29:51.703Z</time></trkpt><trkpt lat="45.5873831" lon="10.465363"><ele>260.1666666666667</ele><time>2026-03-29T07:29:52.703Z</time></trkpt><trkpt lat="45.5874558" lon="10.4652644"><ele>260.33333333333337</ele><time>2026-03-29T07:29:53.703Z</time></trkpt><trkpt lat="45.5875193" lon="10.4651777"><ele>260.5</ele><time>2026-03-29T07:29:54.703Z</time></trkpt><trkpt lat="45.5875751" lon="10.4651061"><ele>260.6666666666667</ele><time>2026-03-29T07:29:55.703Z</time></trkpt><trkpt lat="45.5876295" lon="10.4650357"><ele>260.8333333333333</ele><time>2026-03-29T07:29:56.703Z</time></trkpt><trkpt lat="45.5876834" lon="10.4649615"><ele>261.0</ele><time>2026-03-29T07:29:57.703Z</time></trkpt><trkpt lat="45.5877356" lon="10.4649098"><ele>261.0</ele><time>2026-03-29T07:29:58.704Z</time></trkpt><trkpt lat="45.58784" lon="10.4649514"><ele>261.0</ele><time>2026-03-29T07:30:00.704Z</time></trkpt><trkpt lat="45.5879193" lon="10.4651185"><ele>261.0</ele><time>2026-03-29T07:30:02.704Z</time></trkpt><trkpt lat="45.587976" lon="10.465219"><ele>261.0</ele><time>2026-03-29T07:30:03.703Z</time></trkpt><trkpt lat="45.5880368" lon="10.465292"><ele>261.0</ele><time>2026-03-29T07:30:04.703Z</time></trkpt><trkpt lat="45.5880841" lon="10.4653559"><ele>262.40000000000003</ele><time>2026-03-29T07:30:05.704Z</time></trkpt><trkpt lat="45.588117" lon="10.4654742"><ele>263.8</ele><time>2026-03-29T07:30:07.703Z</time></trkpt><trkpt lat="45.5880596" lon="10.4656235"><ele>265.20000000000005</ele><time>2026-03-29T07:30:09.704Z</time></trkpt><trkpt lat="45.5880113" lon="10.4657254"><ele>266.6</ele><time>2026-03-29T07:30:10.703Z</time></trkpt><trkpt lat="45.5879564" lon="10.4658284"><ele>268.0</ele><time>2026-03-29T07:30:11.703Z</time></trkpt><trkpt lat="45.5878959" lon="10.4659486"><ele>267.0</ele><time>2026-03-29T07:30:12.704Z</time></trkpt><trkpt lat="45.5878319" lon="10.4660728"><ele>266.0</ele><time>2026-03-29T07:30:13.704Z</time></trkpt><trkpt lat="45.5877652" lon="10.4661998"><ele>265.0</ele><time>2026-03-29T07:30:14.703Z</time></trkpt><trkpt lat="45.5876997" lon="10.4663331"><ele>264.0</ele><time>2026-03-29T07:30:15.703Z</time></trkpt><trkpt lat="45.5876378" lon="10.4664705"><ele>263.0</ele><time>2026-03-29T07:30:16.704Z</time></trkpt><trkpt lat="45.5875822" lon="10.4666107"><ele>263.0</ele><time>2026-03-29T07:30:17.704Z</time></trkpt><trkpt lat="45.5875379" lon="10.4667534"><ele>263.0</ele><time>2026-03-29T07:30:18.704Z</time></trkpt><trkpt lat="45.5875093" lon="10.4668954"><ele>263.0</ele><time>2026-03-29T07:30:19.704Z</time></trkpt><trkpt lat="45.5874939" lon="10.4670377"><ele>263.0</ele><time>2026-03-29T07:30:20.704Z</time></trkpt><trkpt lat="45.5874858" lon="10.4671712"><ele>263.0</ele><time>2026-03-29T07:30:21.703Z</time></trkpt><trkpt lat="45.5874786" lon="10.4673007"><ele>263.4</ele><time>2026-03-29T07:30:22.703Z</time></trkpt><trkpt lat="45.587483" lon="10.4674361"><ele>263.8</ele><time>2026-03-29T07:30:23.703Z</time></trkpt><trkpt lat="45.587507" lon="10.4675756"><ele>264.2</ele><time>2026-03-29T07:30:24.703Z</time></trkpt><trkpt lat="45.5875517" lon="10.4677152"><ele>264.6</ele><time>2026-03-29T07:30:25.703Z</time></trkpt><trkpt lat="45.5876076" lon="10.4678438"><ele>265.0</ele><time>2026-03-29T07:30:26.704Z</time></trkpt><trkpt lat="45.5876774" lon="10.4679515"><ele>265.0</ele><time>2026-03-29T07:30:27.704Z</time></trkpt><trkpt lat="45.5877553" lon="10.4680343"><ele>265.0</ele><time>2026-03-29T07:30:28.704Z</time></trkpt><trkpt lat="45.5878309" lon="10.4681066"><ele>265.0</ele><time>2026-03-29T07:30:29.704Z</time></trkpt><trkpt lat="45.5878991" lon="10.4681547"><ele>265.0</ele><time>2026-03-29T07:30:30.704Z</time></trkpt><trkpt lat="45.5879615" lon="10.4681975"><ele>265.0</ele><time>2026-03-29T07:30:31.704Z</time></trkpt><trkpt lat="45.5880454" lon="10.468305"><ele>265.0</ele><time>2026-03-29T07:30:33.703Z</time></trkpt><trkpt lat="45.5881201" lon="10.468456"><ele>265.0</ele><time>2026-03-29T07:30:35.703Z</time></trkpt><trkpt lat="45.588165" lon="10.4685462"><ele>265.0</ele><time>2026-03-29T07:30:36.704Z</time></trkpt><trkpt lat="45.5882123" lon="10.468641"><ele>265.0</ele><time>2026-03-29T07:30:37.704Z</time></trkpt><trkpt lat="45.5882563" lon="10.4687384"><ele>265.0</ele><time>2026-03-29T07:30:38.703Z</time></trkpt><trkpt lat="45.588293" lon="10.4688289"><ele>265.0</ele><time>2026-03-29T07:30:39.704Z</time></trkpt><trkpt lat="45.5883261" lon="10.4689232"><ele>265.0</ele><time>2026-03-29T07:30:40.704Z</time></trkpt><trkpt lat="45.5883566" lon="10.4690148"><ele>264.0</ele><time>2026-03-29T07:30:41.703Z</time></trkpt><trkpt lat="45.5883871" lon="10.4691118"><ele>263.0</ele><time>2026-03-29T07:30:42.703Z</time></trkpt><trkpt lat="45.5884165" lon="10.4692262"><ele>262.0</ele><time>2026-03-29T07:30:43.703Z</time></trkpt><trkpt lat="45.588445" lon="10.4693506"><ele>261.0</ele><time>2026-03-29T07:30:44.704Z</time></trkpt><trkpt lat="45.5884786" lon="10.4694823"><ele>260.0</ele><time>2026-03-29T07:30:45.704Z</time></trkpt><trkpt lat="45.5885162" lon="10.4696034"><ele>259.0</ele><time>2026-03-29T07:30:46.703Z</time></trkpt><trkpt lat="45.5885546" lon="10.4697078"><ele>258.59999999999997</ele><time>2026-03-29T07:30:47.704Z</time></trkpt><trkpt lat="45.5885907" lon="10.4697968"><ele>258.2</ele><time>2026-03-29T07:30:48.704Z</time></trkpt><trkpt lat="45.5886201" lon="10.4698766"><ele>257.79999999999995</ele><time>2026-03-29T07:30:49.704Z</time></trkpt><trkpt lat="45.5886496" lon="10.4700168"><ele>257.4</ele><time>2026-03-29T07:30:51.703Z</time></trkpt><trkpt lat="45.5886566" lon="10.4701657"><ele>257.0</ele><time>2026-03-29T07:30:53.704Z</time></trkpt><trkpt lat="45.588669" lon="10.4703193"><ele>258.2</ele><time>2026-03-29T07:30:55.703Z</time></trkpt><trkpt lat="45.5886969" lon="10.4704982"><ele>259.4</ele><time>2026-03-29T07:30:57.703Z</time></trkpt><trkpt lat="45.5887125" lon="10.4705933"><ele>260.6</ele><time>2026-03-29T07:30:58.703Z</time></trkpt><trkpt lat="45.5887287" lon="10.4706815"><ele>261.8</ele><time>2026-03-29T07:30:59.703Z</time></trkpt><trkpt lat="45.5887501" lon="10.4708336"><ele>263.0</ele><time>2026-03-29T07:31:01.704Z</time></trkpt><trkpt lat="45.5887526" lon="10.4709983"><ele>263.0</ele><time>2026-03-29T07:31:03.703Z</time></trkpt><trkpt lat="45.588751" lon="10.4711041"><ele>263.0</ele><time>2026-03-29T07:31:04.704Z</time></trkpt><trkpt lat="45.5887489" lon="10.4712147"><ele>263.0</ele><time>2026-03-29T07:31:05.704Z</time></trkpt><trkpt lat="45.5887498" lon="10.4713343"><ele>263.0</ele><time>2026-03-29T07:31:06.704Z</time></trkpt><trkpt lat="45.5887504" lon="10.4714558"><ele>263.0</ele><time>2026-03-29T07:31:07.704Z</time></trkpt><trkpt lat="45.5887473" lon="10.4715783"><ele>263.0</ele><time>2026-03-29T07:31:08.704Z</time></trkpt><trkpt lat="45.588753" lon="10.471706"><ele>263.1666666666667</ele><time>2026-03-29T07:31:09.703Z</time></trkpt><trkpt lat="45.5887587" lon="10.4718339"><ele>263.33333333333337</ele><time>2026-03-29T07:31:10.704Z</time></trkpt><trkpt lat="45.5887644" lon="10.4719572"><ele>263.5</ele><time>2026-03-29T07:31:11.703Z</time></trkpt><trkpt lat="45.5887704" lon="10.4720806"><ele>263.6666666666667</ele><time>2026-03-29T07:31:12.704Z</time></trkpt><trkpt lat="45.5887791" lon="10.4722028"><ele>263.8333333333333</ele><time>2026-03-29T07:31:13.704Z</time></trkpt><trkpt lat="45.5887921" lon="10.4723232"><ele>264.0</ele><time>2026-03-29T07:31:14.704Z</time></trkpt><trkpt lat="45.5888052" lon="10.4724446"><ele>264.4</ele><time>2026-03-29T07:31:15.704Z</time></trkpt><trkpt lat="45.5888208" lon="10.4725669"><ele>264.79999999999995</ele><time>2026-03-29T07:31:16.704Z</time></trkpt><trkpt lat="45.5888377" lon="10.4726981"><ele>265.20000000000005</ele><time>2026-03-29T07:31:17.704Z</time></trkpt><trkpt lat="45.5888574" lon="10.4728282"><ele>265.6</ele><time>2026-03-29T07:31:18.704Z</time></trkpt><trkpt lat="45.5888785" lon="10.4729547"><ele>266.0</ele><time>2026-03-29T07:31:19.703Z</time></trkpt><trkpt lat="45.5888939" lon="10.4730778"><ele>266.0</ele><time>2026-03-29T07:31:20.703Z</time></trkpt><trkpt lat="45.5889174" lon="10.473201"><ele>266.0</ele><time>2026-03-29T07:31:21.703Z</time></trkpt><trkpt lat="45.5889373" lon="10.4733211"><ele>266.0</ele><time>2026-03-29T07:31:22.704Z</time></trkpt><trkpt lat="45.5889524" lon="10.4734376"><ele>266.0</ele><time>2026-03-29T07:31:23.704Z</time></trkpt><trkpt lat="45.5889589" lon="10.4735522"><ele>266.0</ele><time>2026-03-29T07:31:24.704Z</time></trkpt><trkpt lat="45.5889572" lon="10.4736617"><ele>266.0</ele><time>2026-03-29T07:31:25.703Z</time></trkpt><trkpt lat="45.5889513" lon="10.4737774"><ele>266.0</ele><time>2026-03-29T07:31:26.704Z</time></trkpt><trkpt lat="45.5889402" lon="10.473905"><ele>266.0</ele><time>2026-03-29T07:31:27.704Z</time></trkpt><trkpt lat="45.5889266" lon="10.4740426"><ele>266.0</ele><time>2026-03-29T07:31:28.704Z</time></trkpt><trkpt lat="45.5889082" lon="10.4741827"><ele>266.0</ele><time>2026-03-29T07:31:29.704Z</time></trkpt><trkpt lat="45.5888923" lon="10.4743208"><ele>266.0</ele><time>2026-03-29T07:31:30.704Z</time></trkpt><trkpt lat="45.5888767" lon="10.474458"><ele>266.0</ele><time>2026-03-29T07:31:31.703Z</time></trkpt><trkpt lat="45.5888692" lon="10.4745886"><ele>266.0</ele><time>2026-03-29T07:31:32.703Z</time></trkpt><trkpt lat="45.5888754" lon="10.474719"><ele>266.0</ele><time>2026-03-29T07:31:33.703Z</time></trkpt><trkpt lat="45.5888867" lon="10.4748526"><ele>266.0</ele><time>2026-03-29T07:31:34.703Z</time></trkpt><trkpt lat="45.5888974" lon="10.4749768"><ele>266.0</ele><time>2026-03-29T07:31:35.703Z</time></trkpt><trkpt lat="45.5889038" lon="10.4750941"><ele>266.0</ele><time>2026-03-29T07:31:36.704Z</time></trkpt><trkpt lat="45.5888966" lon="10.4752035"><ele>265.83333333333337</ele><time>2026-03-29T07:31:37.703Z</time></trkpt><trkpt lat="45.5888856" lon="10.4753272"><ele>265.6666666666667</ele><time>2026-03-29T07:31:38.704Z</time></trkpt><trkpt lat="45.5888645" lon="10.475442"><ele>265.5</ele><time>2026-03-29T07:31:39.704Z</time></trkpt><trkpt lat="45.5888426" lon="10.4755477"><ele>265.3333333333333</ele><time>2026-03-29T07:31:40.704Z</time></trkpt><trkpt lat="45.5888251" lon="10.4756401"><ele>265.16666666666663</ele><time>2026-03-29T07:31:41.703Z</time></trkpt><trkpt lat="45.5888198" lon="10.4758225"><ele>265.0</ele><time>2026-03-29T07:31:43.704Z</time></trkpt><trkpt lat="45.5888271" lon="10.475922"><ele>265.0</ele><time>2026-03-29T07:31:44.703Z</time></trkpt><trkpt lat="45.5888541" lon="10.4760363"><ele>265.0</ele><time>2026-03-29T07:31:45.703Z</time></trkpt><trkpt lat="45.5888885" lon="10.4761605"><ele>265.0</ele><time>2026-03-29T07:31:46.704Z</time></trkpt><trkpt lat="45.5889146" lon="10.4762905"><ele>265.0</ele><time>2026-03-29T07:31:47.704Z</time></trkpt><trkpt lat="45.5889289" lon="10.4764196"><ele>265.0</ele><time>2026-03-29T07:31:48.704Z</time></trkpt><trkpt lat="45.5889338" lon="10.4765539"><ele>265.16666666666663</ele><time>2026-03-29T07:31:49.703Z</time></trkpt><trkpt lat="45.588945" lon="10.4766846"><ele>265.3333333333333</ele><time>2026-03-29T07:31:50.703Z</time></trkpt><trkpt lat="45.5889519" lon="10.4768087"><ele>265.5</ele><time>2026-03-29T07:31:51.703Z</time></trkpt><trkpt lat="45.5889552" lon="10.4769298"><ele>265.6666666666667</ele><time>2026-03-29T07:31:52.704Z</time></trkpt><trkpt lat="45.5889712" lon="10.4770613"><ele>265.83333333333337</ele><time>2026-03-29T07:31:53.704Z</time></trkpt><trkpt lat="45.5889761" lon="10.4771839"><ele>266.0</ele><time>2026-03-29T07:31:54.703Z</time></trkpt><trkpt lat="45.5889811" lon="10.4773061"><ele>267.0</ele><time>2026-03-29T07:31:55.703Z</time></trkpt><trkpt lat="45.5889853" lon="10.4774237"><ele>268.0</ele><time>2026-03-29T07:31:56.703Z</time></trkpt><trkpt lat="45.5889886" lon="10.4775406"><ele>269.0</ele><time>2026-03-29T07:31:57.704Z</time></trkpt><trkpt lat="45.588994" lon="10.477649"><ele>270.0</ele><time>2026-03-29T07:31:58.704Z</time></trkpt><trkpt lat="45.5889956" lon="10.4777576"><ele>271.0</ele><time>2026-03-29T07:31:59.704Z</time></trkpt><trkpt lat="45.5889966" lon="10.4778674"><ele>272.0</ele><time>2026-03-29T07:32:00.703Z</time></trkpt><trkpt lat="45.5890012" lon="10.477972"><ele>272.6</ele><time>2026-03-29T07:32:01.703Z</time></trkpt><trkpt lat="45.5890385" lon="10.4781048"><ele>273.2</ele><time>2026-03-29T07:32:03.704Z</time></trkpt><trkpt lat="45.5891334" lon="10.4781549"><ele>273.8</ele><time>2026-03-29T07:32:05.703Z</time></trkpt><trkpt lat="45.5892056" lon="10.4781631"><ele>274.4</ele><time>2026-03-29T07:32:06.704Z</time></trkpt><trkpt lat="45.5892944" lon="10.4781896"><ele>275.0</ele><time>2026-03-29T07:32:07.703Z</time></trkpt><trkpt lat="45.58939" lon="10.4782264"><ele>275.0</ele><time>2026-03-29T07:32:08.703Z</time></trkpt><trkpt lat="45.5894779" lon="10.4782598"><ele>275.0</ele><time>2026-03-29T07:32:09.703Z</time></trkpt><trkpt lat="45.5895716" lon="10.4782973"><ele>275.0</ele><time>2026-03-29T07:32:10.704Z</time></trkpt><trkpt lat="45.5896612" lon="10.4783486"><ele>275.0</ele><time>2026-03-29T07:32:11.704Z</time></trkpt><trkpt lat="45.589755" lon="10.4784118"><ele>275.0</ele><time>2026-03-29T07:32:12.704Z</time></trkpt><trkpt lat="45.58985" lon="10.4784834"><ele>275.5</ele><time>2026-03-29T07:32:13.704Z</time></trkpt><trkpt lat="45.5899366" lon="10.478561"><ele>276.0</ele><time>2026-03-29T07:32:14.703Z</time></trkpt><trkpt lat="45.590031" lon="10.4786434"><ele>276.5</ele><time>2026-03-29T07:32:15.704Z</time></trkpt><trkpt lat="45.5901389" lon="10.478731"><ele>277.0</ele><time>2026-03-29T07:32:16.704Z</time></trkpt><trkpt lat="45.5902498" lon="10.4788139"><ele>278.0</ele><time>2026-03-29T07:32:17.704Z</time></trkpt><trkpt lat="45.5903562" lon="10.4788843"><ele>279.0</ele><time>2026-03-29T07:32:18.704Z</time></trkpt><trkpt lat="45.590456" lon="10.4789399"><ele>280.0</ele><time>2026-03-29T07:32:19.704Z</time></trkpt><trkpt lat="45.5905733" lon="10.4790011"><ele>281.0</ele><time>2026-03-29T07:32:20.703Z</time></trkpt><trkpt lat="45.5906858" lon="10.4790735"><ele>281.0</ele><time>2026-03-29T07:32:21.703Z</time></trkpt><trkpt lat="45.5907966" lon="10.4791527"><ele>281.0</ele><time>2026-03-29T07:32:22.703Z</time></trkpt><trkpt lat="45.5908909" lon="10.4792192"><ele>281.0</ele><time>2026-03-29T07:32:23.703Z</time></trkpt><trkpt lat="45.5909786" lon="10.4792903"><ele>281.0</ele><time>2026-03-29T07:32:24.703Z</time></trkpt><trkpt lat="45.591067" lon="10.479357"><ele>281.0</ele><time>2026-03-29T07:32:25.703Z</time></trkpt><trkpt lat="45.5911412" lon="10.4793876"><ele>281.25</ele><time>2026-03-29T07:32:26.704Z</time></trkpt><trkpt lat="45.591246" lon="10.4794214"><ele>281.5</ele><time>2026-03-29T07:32:27.704Z</time></trkpt><trkpt lat="45.5913748" lon="10.4794553"><ele>281.75</ele><time>2026-03-29T07:32:28.704Z</time></trkpt><trkpt lat="45.5914969" lon="10.4794857"><ele>282.0</ele><time>2026-03-29T07:32:29.704Z</time></trkpt><trkpt lat="45.5916149" lon="10.4795144"><ele>282.0</ele><time>2026-03-29T07:32:30.704Z</time></trkpt><trkpt lat="45.5917339" lon="10.4795498"><ele>282.0</ele><time>2026-03-29T07:32:31.703Z</time></trkpt><trkpt lat="45.5918468" lon="10.4795835"><ele>282.0</ele><time>2026-03-29T07:32:32.703Z</time></trkpt><trkpt lat="45.5919635" lon="10.4796219"><ele>282.0</ele><time>2026-03-29T07:32:33.703Z</time></trkpt><trkpt lat="45.5920658" lon="10.4796674"><ele>283.6</ele><time>2026-03-29T07:32:34.703Z</time></trkpt><trkpt lat="45.5921734" lon="10.4797229"><ele>285.2</ele><time>2026-03-29T07:32:35.704Z</time></trkpt><trkpt lat="45.5922796" lon="10.4797851"><ele>286.8</ele><time>2026-03-29T07:32:36.704Z</time></trkpt><trkpt lat="45.5923719" lon="10.4798511"><ele>288.4</ele><time>2026-03-29T07:32:37.703Z</time></trkpt><trkpt lat="45.5924625" lon="10.4799196"><ele>290.0</ele><time>2026-03-29T07:32:38.703Z</time></trkpt><trkpt lat="45.5925536" lon="10.4799747"><ele>290.0</ele><time>2026-03-29T07:32:39.704Z</time></trkpt><trkpt lat="45.5926525" lon="10.4800123"><ele>290.0</ele><time>2026-03-29T07:32:40.704Z</time></trkpt><trkpt lat="45.5927625" lon="10.4800379"><ele>290.0</ele><time>2026-03-29T07:32:41.703Z</time></trkpt><trkpt lat="45.5928696" lon="10.480065"><ele>290.0</ele><time>2026-03-29T07:32:42.703Z</time></trkpt><trkpt lat="45.5929677" lon="10.4800798"><ele>290.0</ele><time>2026-03-29T07:32:43.704Z</time></trkpt><trkpt lat="45.5930727" lon="10.4800812"><ele>290.2</ele><time>2026-03-29T07:32:44.704Z</time></trkpt><trkpt lat="45.5931679" lon="10.4800786"><ele>290.4</ele><time>2026-03-29T07:32:45.704Z</time></trkpt><trkpt lat="45.593267" lon="10.4800564"><ele>290.6</ele><time>2026-03-29T07:32:46.703Z</time></trkpt><trkpt lat="45.59336" lon="10.4800148"><ele>290.8</ele><time>2026-03-29T07:32:47.703Z</time></trkpt><trkpt lat="45.5934492" lon="10.47996"><ele>291.0</ele><time>2026-03-29T07:32:48.703Z</time></trkpt><trkpt lat="45.593541" lon="10.4799252"><ele>291.0</ele><time>2026-03-29T07:32:49.704Z</time></trkpt><trkpt lat="45.593656" lon="10.4799213"><ele>291.0</ele><time>2026-03-29T07:32:50.704Z</time></trkpt><trkpt lat="45.5937789" lon="10.4799435"><ele>291.0</ele><time>2026-03-29T07:32:51.703Z</time></trkpt><trkpt lat="45.5938913" lon="10.4799738"><ele>291.0</ele><time>2026-03-29T07:32:52.703Z</time></trkpt><trkpt lat="45.5939959" lon="10.479996"><ele>291.6</ele><time>2026-03-29T07:32:53.704Z</time></trkpt><trkpt lat="45.5940885" lon="10.480016"><ele>292.20000000000005</ele><time>2026-03-29T07:32:54.703Z</time></trkpt><trkpt lat="45.5941679" lon="10.4800318"><ele>292.79999999999995</ele><time>2026-03-29T07:32:55.703Z</time></trkpt><trkpt lat="45.5942682" lon="10.4800205"><ele>293.4</ele><time>2026-03-29T07:32:57.704Z</time></trkpt><trkpt lat="45.5943493" lon="10.4798709"><ele>294.0</ele><time>2026-03-29T07:32:59.704Z</time></trkpt><trkpt lat="45.5943894" lon="10.4797571"><ele>294.0</ele><time>2026-03-29T07:33:00.703Z</time></trkpt><trkpt lat="45.5944342" lon="10.4796298"><ele>294.0</ele><time>2026-03-29T07:33:01.703Z</time></trkpt><trkpt lat="45.5944802" lon="10.4794994"><ele>294.0</ele><time>2026-03-29T07:33:02.703Z</time></trkpt><trkpt lat="45.5945124" lon="10.479356"><ele>294.0</ele><time>2026-03-29T07:33:03.703Z</time></trkpt><trkpt lat="45.594525" lon="10.47921"><ele>294.0</ele><time>2026-03-29T07:33:04.703Z</time></trkpt><trkpt lat="45.5945144" lon="10.4790803"><ele>294.6666666666667</ele><time>2026-03-29T07:33:05.703Z</time></trkpt><trkpt lat="45.5944812" lon="10.4789772"><ele>295.3333333333333</ele><time>2026-03-29T07:33:06.704Z</time></trkpt><trkpt lat="45.5944335" lon="10.4788891"><ele>296.0</ele><time>2026-03-29T07:33:07.704Z</time></trkpt><trkpt lat="45.5943862" lon="10.4787938"><ele>296.66666666666663</ele><time>2026-03-29T07:33:08.703Z</time></trkpt><trkpt lat="45.5943387" lon="10.4786933"><ele>297.3333333333333</ele><time>2026-03-29T07:33:09.703Z</time></trkpt><trkpt lat="45.5942888" lon="10.4785898"><ele>298.0</ele><time>2026-03-29T07:33:10.703Z</time></trkpt><trkpt lat="45.5942387" lon="10.4784894"><ele>300.0</ele><time>2026-03-29T07:33:11.704Z</time></trkpt><trkpt lat="45.5941887" lon="10.4783868"><ele>302.0</ele><time>2026-03-29T07:33:12.704Z</time></trkpt><trkpt lat="45.5941394" lon="10.4782904"><ele>304.0</ele><time>2026-03-29T07:33:13.704Z</time></trkpt><trkpt lat="45.5940854" lon="10.4782024"><ele>306.0</ele><time>2026-03-29T07:33:14.703Z</time></trkpt><trkpt lat="45.5940374" lon="10.4781296"><ele>308.0</ele><time>2026-03-29T07:33:15.703Z</time></trkpt><trkpt lat="45.593937" lon="10.4780072"><ele>308.33333333333337</ele><time>2026-03-29T07:33:17.703Z</time></trkpt><trkpt lat="45.5938866" lon="10.4779266"><ele>308.6666666666667</ele><time>2026-03-29T07:33:18.704Z</time></trkpt><trkpt lat="45.5938405" lon="10.4778327"><ele>309.0</ele><time>2026-03-29T07:33:19.703Z</time></trkpt><trkpt lat="45.5937929" lon="10.4777275"><ele>309.3333333333333</ele><time>2026-03-29T07:33:20.703Z</time></trkpt><trkpt lat="45.5937463" lon="10.4776159"><ele>309.66666666666663</ele><time>2026-03-29T07:33:21.704Z</time></trkpt><trkpt lat="45.5936988" lon="10.4774967"><ele>310.0</ele><time>2026-03-29T07:33:22.704Z</time></trkpt><trkpt lat="45.5936464" lon="10.4773697"><ele>310.0</ele><time>2026-03-29T07:33:23.703Z</time></trkpt><trkpt lat="45.5935948" lon="10.4772457"><ele>310.0</ele><time>2026-03-29T07:33:24.704Z</time></trkpt><trkpt lat="45.5935482" lon="10.47712"><ele>310.0</ele><time>2026-03-29T07:33:25.703Z</time></trkpt><trkpt lat="45.5935092" lon="10.476992"><ele>310.0</ele><time>2026-03-29T07:33:26.703Z</time></trkpt><trkpt lat="45.593473" lon="10.4768692"><ele>310.0</ele><time>2026-03-29T07:33:27.704Z</time></trkpt><trkpt lat="45.593439" lon="10.4767339"><ele>311.0</ele><time>2026-03-29T07:33:28.704Z</time></trkpt><trkpt lat="45.5934046" lon="10.4765843"><ele>312.0</ele><time>2026-03-29T07:33:29.704Z</time></trkpt><trkpt lat="45.5933713" lon="10.4764203"><ele>313.0</ele><time>2026-03-29T07:33:30.704Z</time></trkpt><trkpt lat="45.5933355" lon="10.4762538"><ele>314.0</ele><time>2026-03-29T07:33:31.703Z</time></trkpt><trkpt lat="45.5932967" lon="10.4760885"><ele>317.0</ele><time>2026-03-29T07:33:32.703Z</time></trkpt><trkpt lat="45.5932588" lon="10.4759115"><ele>320.0</ele><time>2026-03-29T07:33:33.703Z</time></trkpt><trkpt lat="45.5932279" lon="10.4757294"><ele>323.0</ele><time>2026-03-29T07:33:34.703Z</time></trkpt><trkpt lat="45.5932017" lon="10.4755393"><ele>326.0</ele><time>2026-03-29T07:33:35.704Z</time></trkpt><trkpt lat="45.5931759" lon="10.4753466"><ele>327.25</ele><time>2026-03-29T07:33:36.704Z</time></trkpt><trkpt lat="45.59315" lon="10.4751533"><ele>328.5</ele><time>2026-03-29T07:33:37.704Z</time></trkpt><trkpt lat="45.5931278" lon="10.4749666"><ele>329.75</ele><time>2026-03-29T07:33:38.704Z</time></trkpt><trkpt lat="45.5931084" lon="10.4747863"><ele>331.0</ele><time>2026-03-29T07:33:39.704Z</time></trkpt><trkpt lat="45.5930837" lon="10.4746201"><ele>332.0</ele><time>2026-03-29T07:33:40.704Z</time></trkpt><trkpt lat="45.5930631" lon="10.4744628"><ele>333.0</ele><time>2026-03-29T07:33:41.704Z</time></trkpt><trkpt lat="45.5930471" lon="10.4743141"><ele>334.0</ele><time>2026-03-29T07:33:42.704Z</time></trkpt><trkpt lat="45.5930348" lon="10.4741713"><ele>335.0</ele><time>2026-03-29T07:33:43.704Z</time></trkpt><trkpt lat="45.593035" lon="10.4740301"><ele>336.0</ele><time>2026-03-29T07:33:44.704Z</time></trkpt><trkpt lat="45.5930485" lon="10.4738842"><ele>335.75</ele><time>2026-03-29T07:33:45.704Z</time></trkpt><trkpt lat="45.5930487" lon="10.4737343"><ele>335.5</ele><time>2026-03-29T07:33:46.704Z</time></trkpt><trkpt lat="45.5930251" lon="10.4735723"><ele>335.25</ele><time>2026-03-29T07:33:47.704Z</time></trkpt><trkpt lat="45.5929959" lon="10.4734049"><ele>335.0</ele><time>2026-03-29T07:33:48.703Z</time></trkpt><trkpt lat="45.5929647" lon="10.4732303"><ele>335.0</ele><time>2026-03-29T07:33:49.703Z</time></trkpt><trkpt lat="45.5929374" lon="10.473064"><ele>335.0</ele><time>2026-03-29T07:33:50.703Z</time></trkpt><trkpt lat="45.5929079" lon="10.4729146"><ele>335.0</ele><time>2026-03-29T07:33:51.704Z</time></trkpt><trkpt lat="45.592868" lon="10.4727724"><ele>335.0</ele><time>2026-03-29T07:33:52.703Z</time></trkpt><trkpt lat="45.5928148" lon="10.4726179"><ele>331.6</ele><time>2026-03-29T07:33:53.703Z</time></trkpt><trkpt lat="45.5927532" lon="10.4724702"><ele>328.2</ele><time>2026-03-29T07:33:54.704Z</time></trkpt><trkpt lat="45.5926936" lon="10.4723399"><ele>324.8</ele><time>2026-03-29T07:33:55.704Z</time></trkpt><trkpt lat="45.5926421" lon="10.4722101"><ele>321.4</ele><time>2026-03-29T07:33:56.704Z</time></trkpt><trkpt lat="45.5925963" lon="10.4720937"><ele>318.0</ele><time>2026-03-29T07:33:57.703Z</time></trkpt><trkpt lat="45.5925531" lon="10.4719819"><ele>318.0</ele><time>2026-03-29T07:33:58.703Z</time></trkpt><trkpt lat="45.592521" lon="10.4718928"><ele>318.0</ele><time>2026-03-29T07:33:59.703Z</time></trkpt><trkpt lat="45.5924648" lon="10.4717305"><ele>318.0</ele><time>2026-03-29T07:34:01.705Z</time></trkpt><trkpt lat="45.5924296" lon="10.4716361"><ele>318.0</ele><time>2026-03-29T07:34:02.703Z</time></trkpt><trkpt lat="45.5923959" lon="10.4715449"><ele>318.0</ele><time>2026-03-29T07:34:03.703Z</time></trkpt><trkpt lat="45.5923523" lon="10.4713985"><ele>318.0</ele><time>2026-03-29T07:34:05.703Z</time></trkpt><trkpt lat="45.5923634" lon="10.4712989"><ele>318.0</ele><time>2026-03-29T07:34:07.704Z</time></trkpt><trkpt lat="45.592347" lon="10.471392"><ele>318.0</ele><time>2026-03-29T07:34:37.694Z</time></trkpt><trkpt lat="45.5924051" lon="10.4714389"><ele>318.0</ele><time>2026-03-29T07:34:42.704Z</time></trkpt><trkpt lat="45.5924474" lon="10.4713665"><ele>318.0</ele><time>2026-03-29T07:39:52.708Z</time></trkpt><trkpt lat="45.5923973" lon="10.4714386"><ele>318.0</ele><time>2026-03-29T07:43:44.749Z</time></trkpt><trkpt lat="45.5924325" lon="10.4713612"><ele>318.0</ele><time>2026-03-29T07:45:30.78Z</time></trkpt><trkpt lat="45.5923984" lon="10.4714394"><ele>318.0</ele><time>2026-03-29T07:54:02.708Z</time></trkpt><trkpt lat="45.5923916" lon="10.471532"><ele>318.0</ele><time>2026-03-29T07:54:15.708Z</time></trkpt><trkpt lat="45.5922621" lon="10.4711876"><ele>318.0</ele><time>2026-03-29T07:56:45.708Z</time></trkpt><trkpt lat="45.5922006" lon="10.4710387"><ele>318.75</ele><time>2026-03-29T07:56:46.708Z</time></trkpt><trkpt lat="45.5921479" lon="10.4708886"><ele>319.5</ele><time>2026-03-29T07:56:47.708Z</time></trkpt><trkpt lat="45.5920979" lon="10.4707343"><ele>320.25</ele><time>2026-03-29T07:56:48.708Z</time></trkpt><trkpt lat="45.5920551" lon="10.4705726"><ele>321.0</ele><time>2026-03-29T07:56:49.708Z</time></trkpt><trkpt lat="45.5920215" lon="10.4704022"><ele>318.0</ele><time>2026-03-29T07:56:50.708Z</time></trkpt><trkpt lat="45.5920044" lon="10.4702351"><ele>315.0</ele><time>2026-03-29T07:56:51.708Z</time></trkpt><trkpt lat="45.5920026" lon="10.4700566"><ele>312.0</ele><time>2026-03-29T07:56:52.708Z</time></trkpt><trkpt lat="45.5920028" lon="10.4698837"><ele>309.0</ele><time>2026-03-29T07:56:53.708Z</time></trkpt><trkpt lat="45.5919996" lon="10.4697237"><ele>308.8</ele><time>2026-03-29T07:56:54.708Z</time></trkpt><trkpt lat="45.5919866" lon="10.4695773"><ele>308.59999999999997</ele><time>2026-03-29T07:56:55.708Z</time></trkpt><trkpt lat="45.5919553" lon="10.4694477"><ele>308.4</ele><time>2026-03-29T07:56:56.708Z</time></trkpt><trkpt lat="45.5919005" lon="10.4693415"><ele>308.2</ele><time>2026-03-29T07:56:57.708Z</time></trkpt><trkpt lat="45.591826" lon="10.4692687"><ele>308.0</ele><time>2026-03-29T07:56:58.708Z</time></trkpt><trkpt lat="45.591739" lon="10.4692383"><ele>308.0</ele><time>2026-03-29T07:56:59.708Z</time></trkpt><trkpt lat="45.591652" lon="10.4692512"><ele>308.0</ele><time>2026-03-29T07:57:00.708Z</time></trkpt><trkpt lat="45.5915743" lon="10.4693047"><ele>308.0</ele><time>2026-03-29T07:57:01.708Z</time></trkpt><trkpt lat="45.5915089" lon="10.4693914"><ele>308.0</ele><time>2026-03-29T07:57:02.708Z</time></trkpt><trkpt lat="45.5914542" lon="10.4694907"><ele>308.0</ele><time>2026-03-29T07:57:03.708Z</time></trkpt><trkpt lat="45.5913869" lon="10.4695672"><ele>308.0</ele><time>2026-03-29T07:57:04.708Z</time></trkpt><trkpt lat="45.5913156" lon="10.4695842"><ele>308.0</ele><time>2026-03-29T07:57:05.708Z</time></trkpt><trkpt lat="45.5912425" lon="10.4695823"><ele>308.0</ele><time>2026-03-29T07:57:06.708Z</time></trkpt><trkpt lat="45.591189" lon="10.4695001"><ele>308.0</ele><time>2026-03-29T07:57:07.708Z</time></trkpt><trkpt lat="45.5911446" lon="10.4693725"><ele>308.0</ele><time>2026-03-29T07:57:08.708Z</time></trkpt><trkpt lat="45.5910789" lon="10.4692325"><ele>308.0</ele><time>2026-03-29T07:57:09.708Z</time></trkpt><trkpt lat="45.5910059" lon="10.4690921"><ele>306.0</ele><time>2026-03-29T07:57:10.709Z</time></trkpt><trkpt lat="45.5909334" lon="10.4689304"><ele>304.0</ele><time>2026-03-29T07:57:11.708Z</time></trkpt><trkpt lat="45.5908722" lon="10.4687474"><ele>302.0</ele><time>2026-03-29T07:57:12.708Z</time></trkpt><trkpt lat="45.5908181" lon="10.4685457"><ele>300.0</ele><time>2026-03-29T07:57:13.708Z</time></trkpt><trkpt lat="45.5907683" lon="10.4683333"><ele>298.6666666666667</ele><time>2026-03-29T07:57:14.708Z</time></trkpt><trkpt lat="45.5907165" lon="10.4681206"><ele>297.33333333333337</ele><time>2026-03-29T07:57:15.709Z</time></trkpt><trkpt lat="45.5906638" lon="10.4679"><ele>296.0</ele><time>2026-03-29T07:57:16.708Z</time></trkpt><trkpt lat="45.5906116" lon="10.4676875"><ele>295.25</ele><time>2026-03-29T07:57:17.708Z</time></trkpt><trkpt lat="45.5905606" lon="10.467485"><ele>294.5</ele><time>2026-03-29T07:57:18.708Z</time></trkpt><trkpt lat="45.5905195" lon="10.4672862"><ele>293.75</ele><time>2026-03-29T07:57:19.708Z</time></trkpt><trkpt lat="45.5904836" lon="10.4670854"><ele>293.0</ele><time>2026-03-29T07:57:20.708Z</time></trkpt><trkpt lat="45.5904491" lon="10.4668682"><ele>291.0</ele><time>2026-03-29T07:57:21.708Z</time></trkpt><trkpt lat="45.5904173" lon="10.4666498"><ele>289.0</ele><time>2026-03-29T07:57:22.709Z</time></trkpt><trkpt lat="45.5903786" lon="10.4664317"><ele>287.0</ele><time>2026-03-29T07:57:23.708Z</time></trkpt><trkpt lat="45.5903322" lon="10.4662132"><ele>284.6666666666667</ele><time>2026-03-29T07:57:24.708Z</time></trkpt><trkpt lat="45.590272" lon="10.4660116"><ele>282.3333333333333</ele><time>2026-03-29T07:57:25.708Z</time></trkpt><trkpt lat="45.5901951" lon="10.4658215"><ele>280.0</ele><time>2026-03-29T07:57:26.708Z</time></trkpt><trkpt lat="45.5901064" lon="10.4656344"><ele>280.0</ele><time>2026-03-29T07:57:27.708Z</time></trkpt><trkpt lat="45.5900193" lon="10.465455"><ele>280.0</ele><time>2026-03-29T07:57:28.708Z</time></trkpt><trkpt lat="45.5899338" lon="10.4652873"><ele>280.0</ele><time>2026-03-29T07:57:29.708Z</time></trkpt><trkpt lat="45.5898407" lon="10.4651364"><ele>280.0</ele><time>2026-03-29T07:57:30.708Z</time></trkpt><trkpt lat="45.5897248" lon="10.4650106"><ele>278.75</ele><time>2026-03-29T07:57:31.708Z</time></trkpt><trkpt lat="45.5895967" lon="10.4649088"><ele>277.5</ele><time>2026-03-29T07:57:32.708Z</time></trkpt><trkpt lat="45.5894703" lon="10.4648317"><ele>276.25</ele><time>2026-03-29T07:57:33.708Z</time></trkpt><trkpt lat="45.589343" lon="10.4647836"><ele>275.0</ele><time>2026-03-29T07:57:34.708Z</time></trkpt><trkpt lat="45.5892086" lon="10.464764"><ele>275.0</ele><time>2026-03-29T07:57:35.708Z</time></trkpt><trkpt lat="45.5890725" lon="10.4647682"><ele>275.0</ele><time>2026-03-29T07:57:36.708Z</time></trkpt><trkpt lat="45.5889366" lon="10.4647857"><ele>275.0</ele><time>2026-03-29T07:57:37.708Z</time></trkpt><trkpt lat="45.5888062" lon="10.4648058"><ele>275.0</ele><time>2026-03-29T07:57:38.708Z</time></trkpt><trkpt lat="45.5886888" lon="10.4648242"><ele>273.2</ele><time>2026-03-29T07:57:39.708Z</time></trkpt><trkpt lat="45.5885894" lon="10.4648091"><ele>271.4</ele><time>2026-03-29T07:57:40.708Z</time></trkpt><trkpt lat="45.5885093" lon="10.464751"><ele>269.6</ele><time>2026-03-29T07:57:41.708Z</time></trkpt><trkpt lat="45.5884573" lon="10.4646487"><ele>267.8</ele><time>2026-03-29T07:57:42.708Z</time></trkpt><trkpt lat="45.5884234" lon="10.4645285"><ele>266.0</ele><time>2026-03-29T07:57:43.708Z</time></trkpt><trkpt lat="45.588394" lon="10.4643966"><ele>265.75</ele><time>2026-03-29T07:57:44.708Z</time></trkpt><trkpt lat="45.5883588" lon="10.464253"><ele>265.5</ele><time>2026-03-29T07:57:45.708Z</time></trkpt><trkpt lat="45.5883231" lon="10.4640933"><ele>265.25</ele><time>2026-03-29T07:57:46.708Z</time></trkpt><trkpt lat="45.5882872" lon="10.4639269"><ele>265.0</ele><time>2026-03-29T07:57:47.708Z</time></trkpt><trkpt lat="45.5882503" lon="10.4637722"><ele>264.8</ele><time>2026-03-29T07:57:48.708Z</time></trkpt><trkpt lat="45.5882155" lon="10.4636275"><ele>264.6</ele><time>2026-03-29T07:57:49.708Z</time></trkpt><trkpt lat="45.5881859" lon="10.4634854"><ele>264.4</ele><time>2026-03-29T07:57:50.708Z</time></trkpt><trkpt lat="45.5881639" lon="10.4633323"><ele>264.2</ele><time>2026-03-29T07:57:51.708Z</time></trkpt><trkpt lat="45.5881593" lon="10.4631753"><ele>264.0</ele><time>2026-03-29T07:57:52.708Z</time></trkpt><trkpt lat="45.588171" lon="10.4630361"><ele>264.1666666666667</ele><time>2026-03-29T07:57:53.708Z</time></trkpt><trkpt lat="45.5881903" lon="10.4629152"><ele>264.3333333333333</ele><time>2026-03-29T07:57:54.708Z</time></trkpt><trkpt lat="45.5882105" lon="10.4628053"><ele>264.5</ele><time>2026-03-29T07:57:55.708Z</time></trkpt><trkpt lat="45.5882357" lon="10.4627028"><ele>264.66666666666663</ele><time>2026-03-29T07:57:56.708Z</time></trkpt><trkpt lat="45.5882665" lon="10.4626071"><ele>264.8333333333333</ele><time>2026-03-29T07:57:57.708Z</time></trkpt><trkpt lat="45.5883052" lon="10.4625011"><ele>265.0</ele><time>2026-03-29T07:57:58.708Z</time></trkpt><trkpt lat="45.5883469" lon="10.4623825"><ele>265.0</ele><time>2026-03-29T07:57:59.708Z</time></trkpt><trkpt lat="45.5883907" lon="10.462251"><ele>265.0</ele><time>2026-03-29T07:58:00.708Z</time></trkpt><trkpt lat="45.5884359" lon="10.4621189"><ele>265.0</ele><time>2026-03-29T07:58:01.708Z</time></trkpt><trkpt lat="45.5884872" lon="10.4619859"><ele>265.0</ele><time>2026-03-29T07:58:02.708Z</time></trkpt><trkpt lat="45.5885322" lon="10.4618499"><ele>265.0</ele><time>2026-03-29T07:58:03.708Z</time></trkpt><trkpt lat="45.588568" lon="10.4617071"><ele>265.2</ele><time>2026-03-29T07:58:04.708Z</time></trkpt><trkpt lat="45.5885962" lon="10.4615635"><ele>265.4</ele><time>2026-03-29T07:58:05.708Z</time></trkpt><trkpt lat="45.5886163" lon="10.4614209"><ele>265.6</ele><time>2026-03-29T07:58:06.708Z</time></trkpt><trkpt lat="45.5886356" lon="10.4612733"><ele>265.8</ele><time>2026-03-29T07:58:07.708Z</time></trkpt><trkpt lat="45.5886549" lon="10.4611079"><ele>266.0</ele><time>2026-03-29T07:58:08.708Z</time></trkpt><trkpt lat="45.5886712" lon="10.4609354"><ele>265.5</ele><time>2026-03-29T07:58:09.708Z</time></trkpt><trkpt lat="45.5886728" lon="10.4607447"><ele>265.0</ele><time>2026-03-29T07:58:10.708Z</time></trkpt><trkpt lat="45.5886727" lon="10.4605482"><ele>264.5</ele><time>2026-03-29T07:58:11.708Z</time></trkpt><trkpt lat="45.5886743" lon="10.4603437"><ele>264.0</ele><time>2026-03-29T07:58:12.708Z</time></trkpt><trkpt lat="45.5886705" lon="10.4601354"><ele>263.5</ele><time>2026-03-29T07:58:13.708Z</time></trkpt><trkpt lat="45.5886626" lon="10.4599254"><ele>263.0</ele><time>2026-03-29T07:58:14.708Z</time></trkpt><trkpt lat="45.5886555" lon="10.4597136"><ele>262.5</ele><time>2026-03-29T07:58:15.708Z</time></trkpt><trkpt lat="45.5886482" lon="10.4594999"><ele>262.0</ele><time>2026-03-29T07:58:16.708Z</time></trkpt><trkpt lat="45.5886572" lon="10.4592903"><ele>260.75</ele><time>2026-03-29T07:58:17.708Z</time></trkpt><trkpt lat="45.588691" lon="10.4590861"><ele>259.5</ele><time>2026-03-29T07:58:18.708Z</time></trkpt><trkpt lat="45.5887494" lon="10.4588861"><ele>258.25</ele><time>2026-03-29T07:58:19.708Z</time></trkpt><trkpt lat="45.5888227" lon="10.4586979"><ele>257.0</ele><time>2026-03-29T07:58:20.708Z</time></trkpt><trkpt lat="45.5888946" lon="10.4585183"><ele>257.0</ele><time>2026-03-29T07:58:21.708Z</time></trkpt><trkpt lat="45.5889682" lon="10.4583363"><ele>257.0</ele><time>2026-03-29T07:58:22.708Z</time></trkpt><trkpt lat="45.5890448" lon="10.4581467"><ele>257.0</ele><time>2026-03-29T07:58:23.708Z</time></trkpt><trkpt lat="45.5891213" lon="10.457955"><ele>259.6666666666667</ele><time>2026-03-29T07:58:24.708Z</time></trkpt><trkpt lat="45.589206" lon="10.4577655"><ele>262.3333333333333</ele><time>2026-03-29T07:58:25.708Z</time></trkpt><trkpt lat="45.5892958" lon="10.4575777"><ele>265.0</ele><time>2026-03-29T07:58:26.708Z</time></trkpt><trkpt lat="45.5893884" lon="10.4573935"><ele>265.0</ele><time>2026-03-29T07:58:27.708Z</time></trkpt><trkpt lat="45.5894755" lon="10.4572147"><ele>265.0</ele><time>2026-03-29T07:58:28.708Z</time></trkpt><trkpt lat="45.5895662" lon="10.4570417"><ele>265.0</ele><time>2026-03-29T07:58:29.708Z</time></trkpt><trkpt lat="45.5896591" lon="10.4568593"><ele>258.0</ele><time>2026-03-29T07:58:30.708Z</time></trkpt><trkpt lat="45.5897389" lon="10.4566598"><ele>251.0</ele><time>2026-03-29T07:58:31.708Z</time></trkpt><trkpt lat="45.5898058" lon="10.4564554"><ele>244.0</ele><time>2026-03-29T07:58:32.709Z</time></trkpt><trkpt lat="45.5898657" lon="10.4562818"><ele>243.0</ele><time>2026-03-29T07:58:33.708Z</time></trkpt><trkpt lat="45.5899212" lon="10.4561167"><ele>242.0</ele><time>2026-03-29T07:58:34.708Z</time></trkpt><trkpt lat="45.5899523" lon="10.4559499"><ele>241.0</ele><time>2026-03-29T07:58:35.708Z</time></trkpt><trkpt lat="45.5899522" lon="10.4557808"><ele>240.0</ele><time>2026-03-29T07:58:36.708Z</time></trkpt><trkpt lat="45.5899136" lon="10.4556177"><ele>240.0</ele><time>2026-03-29T07:58:37.709Z</time></trkpt><trkpt lat="45.5898445" lon="10.4554655"><ele>240.0</ele><time>2026-03-29T07:58:38.708Z</time></trkpt><trkpt lat="45.5897635" lon="10.4553183"><ele>240.0</ele><time>2026-03-29T07:58:39.708Z</time></trkpt><trkpt lat="45.5896806" lon="10.4551817"><ele>240.0</ele><time>2026-03-29T07:58:40.708Z</time></trkpt><trkpt lat="45.5896168" lon="10.4550587"><ele>237.6</ele><time>2026-03-29T07:58:41.708Z</time></trkpt><trkpt lat="45.5895829" lon="10.4549195"><ele>235.2</ele><time>2026-03-29T07:58:42.708Z</time></trkpt><trkpt lat="45.5895777" lon="10.4547638"><ele>232.8</ele><time>2026-03-29T07:58:43.708Z</time></trkpt><trkpt lat="45.5895979" lon="10.4546185"><ele>230.4</ele><time>2026-03-29T07:58:44.708Z</time></trkpt><trkpt lat="45.5896343" lon="10.4544774"><ele>228.0</ele><time>2026-03-29T07:58:45.708Z</time></trkpt><trkpt lat="45.589665" lon="10.4543256"><ele>227.2</ele><time>2026-03-29T07:58:46.708Z</time></trkpt><trkpt lat="45.5896731" lon="10.4541811"><ele>226.4</ele><time>2026-03-29T07:58:47.708Z</time></trkpt><trkpt lat="45.5896515" lon="10.4540532"><ele>225.59999999999997</ele><time>2026-03-29T07:58:48.708Z</time></trkpt><trkpt lat="45.5895963" lon="10.4539359"><ele>224.79999999999998</ele><time>2026-03-29T07:58:49.708Z</time></trkpt><trkpt lat="45.5895153" lon="10.4538297"><ele>224.0</ele><time>2026-03-29T07:58:50.708Z</time></trkpt><trkpt lat="45.5894208" lon="10.4537349"><ele>224.0</ele><time>2026-03-29T07:58:51.708Z</time></trkpt><trkpt lat="45.589322" lon="10.4536273"><ele>224.0</ele><time>2026-03-29T07:58:52.708Z</time></trkpt><trkpt lat="45.5892247" lon="10.4535116"><ele>224.0</ele><time>2026-03-29T07:58:53.708Z</time></trkpt><trkpt lat="45.5891271" lon="10.4533968"><ele>224.0</ele><time>2026-03-29T07:58:54.708Z</time></trkpt><trkpt lat="45.5890465" lon="10.4532715"><ele>224.0</ele><time>2026-03-29T07:58:55.708Z</time></trkpt><trkpt lat="45.5889858" lon="10.453134"><ele>223.99999999999997</ele><time>2026-03-29T07:58:56.708Z</time></trkpt><trkpt lat="45.5889452" lon="10.4529855"><ele>223.99999999999997</ele><time>2026-03-29T07:58:57.708Z</time></trkpt><trkpt lat="45.5889319" lon="10.4528291"><ele>224.0</ele><time>2026-03-29T07:58:58.708Z</time></trkpt><trkpt lat="45.5889496" lon="10.4526709"><ele>224.0</ele><time>2026-03-29T07:58:59.708Z</time></trkpt><trkpt lat="45.5889881" lon="10.4525245"><ele>223.0</ele><time>2026-03-29T07:59:00.708Z</time></trkpt><trkpt lat="45.5890383" lon="10.4523854"><ele>221.99999999999997</ele><time>2026-03-29T07:59:01.708Z</time></trkpt><trkpt lat="45.5890739" lon="10.4522444"><ele>220.99999999999997</ele><time>2026-03-29T07:59:02.708Z</time></trkpt><trkpt lat="45.5890764" lon="10.4521008"><ele>220.0</ele><time>2026-03-29T07:59:03.708Z</time></trkpt><trkpt lat="45.5890466" lon="10.4519617"><ele>219.0</ele><time>2026-03-29T07:59:04.708Z</time></trkpt><trkpt lat="45.5889846" lon="10.4518308"><ele>219.0</ele><time>2026-03-29T07:59:05.709Z</time></trkpt><trkpt lat="45.5889051" lon="10.4516998"><ele>219.0</ele><time>2026-03-29T07:59:06.708Z</time></trkpt><trkpt lat="45.5888209" lon="10.4515557"><ele>219.0</ele><time>2026-03-29T07:59:07.708Z</time></trkpt><trkpt lat="45.5887341" lon="10.4514009"><ele>219.0</ele><time>2026-03-29T07:59:08.708Z</time></trkpt><trkpt lat="45.5886434" lon="10.4512414"><ele>221.66666666666669</ele><time>2026-03-29T07:59:09.708Z</time></trkpt><trkpt lat="45.5885512" lon="10.4510805"><ele>224.33333333333334</ele><time>2026-03-29T07:59:10.708Z</time></trkpt><trkpt lat="45.5884574" lon="10.4509146"><ele>227.0</ele><time>2026-03-29T07:59:11.708Z</time></trkpt><trkpt lat="45.5883633" lon="10.4507384"><ele>227.0</ele><time>2026-03-29T07:59:12.708Z</time></trkpt><trkpt lat="45.5882664" lon="10.450561"><ele>227.0</ele><time>2026-03-29T07:59:13.708Z</time></trkpt><trkpt lat="45.5881693" lon="10.4503823"><ele>227.0</ele><time>2026-03-29T07:59:14.708Z</time></trkpt><trkpt lat="45.5880795" lon="10.4502156"><ele>225.0</ele><time>2026-03-29T07:59:15.708Z</time></trkpt><trkpt lat="45.5879917" lon="10.4500554"><ele>223.0</ele><time>2026-03-29T07:59:16.708Z</time></trkpt><trkpt lat="45.5878973" lon="10.4498981"><ele>221.0</ele><time>2026-03-29T07:59:17.708Z</time></trkpt><trkpt lat="45.5877976" lon="10.4497425"><ele>219.0</ele><time>2026-03-29T07:59:18.708Z</time></trkpt><trkpt lat="45.587704" lon="10.4495907"><ele>219.0</ele><time>2026-03-29T07:59:19.708Z</time></trkpt><trkpt lat="45.5876158" lon="10.4494575"><ele>218.99999999999997</ele><time>2026-03-29T07:59:20.708Z</time></trkpt><trkpt lat="45.5875379" lon="10.4493384"><ele>218.99999999999997</ele><time>2026-03-29T07:59:21.708Z</time></trkpt><trkpt lat="45.5874704" lon="10.4492253"><ele>219.0</ele><time>2026-03-29T07:59:22.708Z</time></trkpt><trkpt lat="45.5874297" lon="10.4491058"><ele>219.0</ele><time>2026-03-29T07:59:23.708Z</time></trkpt><trkpt lat="45.5874195" lon="10.4489932"><ele>219.0</ele><time>2026-03-29T07:59:24.708Z</time></trkpt><trkpt lat="45.5873879" lon="10.4489055"><ele>219.0</ele><time>2026-03-29T07:59:25.708Z</time></trkpt><trkpt lat="45.5873338" lon="10.4488571"><ele>219.0</ele><time>2026-03-29T07:59:26.708Z</time></trkpt><trkpt lat="45.5872656" lon="10.4488497"><ele>219.0</ele><time>2026-03-29T07:59:27.708Z</time></trkpt><trkpt lat="45.5871835" lon="10.4488796"><ele>219.0</ele><time>2026-03-29T07:59:28.708Z</time></trkpt><trkpt lat="45.5870918" lon="10.4489072"><ele>219.0</ele><time>2026-03-29T07:59:29.708Z</time></trkpt><trkpt lat="45.5869973" lon="10.4488902"><ele>218.39999999999998</ele><time>2026-03-29T07:59:30.708Z</time></trkpt><trkpt lat="45.5869102" lon="10.4488348"><ele>217.79999999999998</ele><time>2026-03-29T07:59:31.708Z</time></trkpt><trkpt lat="45.5868402" lon="10.4487381"><ele>217.20000000000002</ele><time>2026-03-29T07:59:32.708Z</time></trkpt><trkpt lat="45.5867835" lon="10.4486006"><ele>216.60000000000002</ele><time>2026-03-29T07:59:33.708Z</time></trkpt><trkpt lat="45.5867372" lon="10.4484451"><ele>216.0</ele><time>2026-03-29T07:59:34.708Z</time></trkpt><trkpt lat="45.586691" lon="10.4482643"><ele>216.0</ele><time>2026-03-29T07:59:35.708Z</time></trkpt><trkpt lat="45.5866491" lon="10.4480721"><ele>216.0</ele><time>2026-03-29T07:59:36.708Z</time></trkpt><trkpt lat="45.5866119" lon="10.4478836"><ele>216.0</ele><time>2026-03-29T07:59:37.708Z</time></trkpt><trkpt lat="45.5865758" lon="10.447696"><ele>216.0</ele><time>2026-03-29T07:59:38.709Z</time></trkpt><trkpt lat="45.5865396" lon="10.4474975"><ele>215.0</ele><time>2026-03-29T07:59:39.708Z</time></trkpt><trkpt lat="45.586502" lon="10.447303"><ele>214.0</ele><time>2026-03-29T07:59:40.708Z</time></trkpt><trkpt lat="45.5864683" lon="10.4471152"><ele>213.0</ele><time>2026-03-29T07:59:41.708Z</time></trkpt><trkpt lat="45.586432" lon="10.4469348"><ele>212.0</ele><time>2026-03-29T07:59:42.708Z</time></trkpt><trkpt lat="45.5863823" lon="10.446764"><ele>211.75</ele><time>2026-03-29T07:59:43.708Z</time></trkpt><trkpt lat="45.5863229" lon="10.4466031"><ele>211.5</ele><time>2026-03-29T07:59:44.708Z</time></trkpt><trkpt lat="45.5862594" lon="10.4464495"><ele>211.25</ele><time>2026-03-29T07:59:45.708Z</time></trkpt><trkpt lat="45.5861972" lon="10.446295"><ele>211.0</ele><time>2026-03-29T07:59:46.708Z</time></trkpt><trkpt lat="45.5861337" lon="10.446135"><ele>210.25</ele><time>2026-03-29T07:59:47.709Z</time></trkpt><trkpt lat="45.5860672" lon="10.4459736"><ele>209.5</ele><time>2026-03-29T07:59:48.708Z</time></trkpt><trkpt lat="45.5860015" lon="10.4458013"><ele>208.75</ele><time>2026-03-29T07:59:49.708Z</time></trkpt><trkpt lat="45.5859363" lon="10.4456216"><ele>208.0</ele><time>2026-03-29T07:59:50.708Z</time></trkpt><trkpt lat="45.5858732" lon="10.4454397"><ele>208.0</ele><time>2026-03-29T07:59:51.708Z</time></trkpt><trkpt lat="45.5858131" lon="10.4452549"><ele>208.0</ele><time>2026-03-29T07:59:52.708Z</time></trkpt><trkpt lat="45.5857548" lon="10.4450697"><ele>208.0</ele><time>2026-03-29T07:59:53.708Z</time></trkpt><trkpt lat="45.5856971" lon="10.4448865"><ele>208.0</ele><time>2026-03-29T07:59:54.708Z</time></trkpt><trkpt lat="45.5856376" lon="10.4447019"><ele>207.75</ele><time>2026-03-29T07:59:55.708Z</time></trkpt><trkpt lat="45.585577" lon="10.4445131"><ele>207.5</ele><time>2026-03-29T07:59:56.708Z</time></trkpt><trkpt lat="45.5855179" lon="10.4443266"><ele>207.25</ele><time>2026-03-29T07:59:57.708Z</time></trkpt><trkpt lat="45.5854587" lon="10.4441421"><ele>207.0</ele><time>2026-03-29T07:59:58.708Z</time></trkpt><trkpt lat="45.5853986" lon="10.4439569"><ele>206.75</ele><time>2026-03-29T07:59:59.708Z</time></trkpt><trkpt lat="45.5853412" lon="10.4437707"><ele>206.5</ele><time>2026-03-29T08:00:00.708Z</time></trkpt><trkpt lat="45.585292" lon="10.4435833"><ele>206.25</ele><time>2026-03-29T08:00:01.708Z</time></trkpt><trkpt lat="45.5852527" lon="10.4433948"><ele>206.0</ele><time>2026-03-29T08:00:02.709Z</time></trkpt><trkpt lat="45.5852167" lon="10.4432049"><ele>206.0</ele><time>2026-03-29T08:00:03.708Z</time></trkpt><trkpt lat="45.5851819" lon="10.4430129"><ele>206.0</ele><time>2026-03-29T08:00:04.708Z</time></trkpt><trkpt lat="45.5851422" lon="10.4428244"><ele>206.0</ele><time>2026-03-29T08:00:05.708Z</time></trkpt><trkpt lat="45.5850915" lon="10.4426434"><ele>206.0</ele><time>2026-03-29T08:00:06.708Z</time></trkpt><trkpt lat="45.5850391" lon="10.44248"><ele>206.00000000000003</ele><time>2026-03-29T08:00:07.708Z</time></trkpt><trkpt lat="45.5849916" lon="10.4423418"><ele>206.0</ele><time>2026-03-29T08:00:08.708Z</time></trkpt><trkpt lat="45.584951" lon="10.4422203"><ele>206.0</ele><time>2026-03-29T08:00:09.708Z</time></trkpt><trkpt lat="45.5849126" lon="10.4421173"><ele>206.0</ele><time>2026-03-29T08:00:10.708Z</time></trkpt><trkpt lat="45.5848798" lon="10.4420258"><ele>206.00000000000003</ele><time>2026-03-29T08:00:11.708Z</time></trkpt><trkpt lat="45.5848459" lon="10.441928"><ele>206.0</ele><time>2026-03-29T08:00:12.708Z</time></trkpt><trkpt lat="45.5848088" lon="10.441827"><ele>205.83333333333334</ele><time>2026-03-29T08:00:13.708Z</time></trkpt><trkpt lat="45.5847584" lon="10.4417394"><ele>205.66666666666669</ele><time>2026-03-29T08:00:14.708Z</time></trkpt><trkpt lat="45.5846873" lon="10.4416883"><ele>205.5</ele><time>2026-03-29T08:00:15.708Z</time></trkpt><trkpt lat="45.5846132" lon="10.4416818"><ele>205.33333333333331</ele><time>2026-03-29T08:00:16.708Z</time></trkpt><trkpt lat="45.5845338" lon="10.4417005"><ele>205.16666666666666</ele><time>2026-03-29T08:00:17.708Z</time></trkpt><trkpt lat="45.5844463" lon="10.4416938"><ele>205.0</ele><time>2026-03-29T08:00:18.708Z</time></trkpt><trkpt lat="45.5843543" lon="10.4416587"><ele>205.0</ele><time>2026-03-29T08:00:19.708Z</time></trkpt><trkpt lat="45.5842611" lon="10.4416124"><ele>205.0</ele><time>2026-03-29T08:00:20.708Z</time></trkpt><trkpt lat="45.5841606" lon="10.4415704"><ele>205.0</ele><time>2026-03-29T08:00:21.708Z</time></trkpt><trkpt lat="45.5840545" lon="10.4415264"><ele>205.0</ele><time>2026-03-29T08:00:22.708Z</time></trkpt><trkpt lat="45.5839482" lon="10.4414851"><ele>205.0</ele><time>2026-03-29T08:00:23.708Z</time></trkpt><trkpt lat="45.5838415" lon="10.441444"><ele>204.99999999999997</ele><time>2026-03-29T08:00:24.708Z</time></trkpt><trkpt lat="45.5837433" lon="10.4414015"><ele>205.0</ele><time>2026-03-29T08:00:25.708Z</time></trkpt><trkpt lat="45.5836494" lon="10.441365"><ele>205.0</ele><time>2026-03-29T08:00:26.708Z</time></trkpt><trkpt lat="45.5835646" lon="10.4413305"><ele>205.0</ele><time>2026-03-29T08:00:27.708Z</time></trkpt><trkpt lat="45.5834845" lon="10.4413012"><ele>204.99999999999997</ele><time>2026-03-29T08:00:28.709Z</time></trkpt><trkpt lat="45.5834094" lon="10.4412689"><ele>205.0</ele><time>2026-03-29T08:00:29.708Z</time></trkpt><trkpt lat="45.5833354" lon="10.4412377"><ele>204.99999999999997</ele><time>2026-03-29T08:00:30.708Z</time></trkpt><trkpt lat="45.5832586" lon="10.4411999"><ele>205.0</ele><time>2026-03-29T08:00:31.708Z</time></trkpt><trkpt lat="45.5831938" lon="10.4411691"><ele>205.0</ele><time>2026-03-29T08:00:32.708Z</time></trkpt><trkpt lat="45.5830879" lon="10.4412008"><ele>205.0</ele><time>2026-03-29T08:00:34.708Z</time></trkpt><trkpt lat="45.5830314" lon="10.4413106"><ele>204.99999999999997</ele><time>2026-03-29T08:00:36.708Z</time></trkpt><trkpt lat="45.5829915" lon="10.4413827"><ele>205.0</ele><time>2026-03-29T08:00:37.708Z</time></trkpt><trkpt lat="45.582936" lon="10.4414552"><ele>205.0</ele><time>2026-03-29T08:00:38.708Z</time></trkpt><trkpt lat="45.5828664" lon="10.4415404"><ele>205.0</ele><time>2026-03-29T08:00:39.708Z</time></trkpt><trkpt lat="45.5827902" lon="10.4416344"><ele>205.0</ele><time>2026-03-29T08:00:40.708Z</time></trkpt><trkpt lat="45.5827065" lon="10.4417387"><ele>205.0</ele><time>2026-03-29T08:00:41.708Z</time></trkpt><trkpt lat="45.5826192" lon="10.4418533"><ele>205.0</ele><time>2026-03-29T08:00:42.708Z</time></trkpt><trkpt lat="45.5825294" lon="10.4419698"><ele>205.0</ele><time>2026-03-29T08:00:43.708Z</time></trkpt><trkpt lat="45.5824462" lon="10.4420744"><ele>205.0</ele><time>2026-03-29T08:00:44.709Z</time></trkpt><trkpt lat="45.5823646" lon="10.4421805"><ele>205.0</ele><time>2026-03-29T08:00:45.708Z</time></trkpt><trkpt lat="45.5822905" lon="10.442297"><ele>205.0</ele><time>2026-03-29T08:00:46.709Z</time></trkpt><trkpt lat="45.5822202" lon="10.4424284"><ele>205.0</ele><time>2026-03-29T08:00:47.708Z</time></trkpt><trkpt lat="45.5821569" lon="10.4425635"><ele>204.8</ele><time>2026-03-29T08:00:48.708Z</time></trkpt><trkpt lat="45.5821006" lon="10.4426831"><ele>204.6</ele><time>2026-03-29T08:00:49.708Z</time></trkpt><trkpt lat="45.5820509" lon="10.4427916"><ele>204.39999999999998</ele><time>2026-03-29T08:00:50.708Z</time></trkpt><trkpt lat="45.582001" lon="10.4428993"><ele>204.2</ele><time>2026-03-29T08:00:51.708Z</time></trkpt><trkpt lat="45.5819463" lon="10.4430066"><ele>204.0</ele><time>2026-03-29T08:00:52.708Z</time></trkpt><trkpt lat="45.5818846" lon="10.4431105"><ele>203.6</ele><time>2026-03-29T08:00:53.708Z</time></trkpt><trkpt lat="45.5818243" lon="10.4432004"><ele>203.2</ele><time>2026-03-29T08:00:54.708Z</time></trkpt><trkpt lat="45.5817583" lon="10.4433003"><ele>202.79999999999998</ele><time>2026-03-29T08:00:55.708Z</time></trkpt><trkpt lat="45.5816818" lon="10.4434106"><ele>202.39999999999998</ele><time>2026-03-29T08:00:56.708Z</time></trkpt><trkpt lat="45.5815898" lon="10.4435141"><ele>202.0</ele><time>2026-03-29T08:00:57.708Z</time></trkpt><trkpt lat="45.581483" lon="10.4436057"><ele>202.0</ele><time>2026-03-29T08:00:58.708Z</time></trkpt><trkpt lat="45.5813667" lon="10.4436913"><ele>202.0</ele><time>2026-03-29T08:00:59.708Z</time></trkpt><trkpt lat="45.5812457" lon="10.4437791"><ele>202.0</ele><time>2026-03-29T08:01:00.708Z</time></trkpt><trkpt lat="45.5811255" lon="10.4438557"><ele>202.0</ele><time>2026-03-29T08:01:01.708Z</time></trkpt><trkpt lat="45.5809981" lon="10.443926"><ele>202.0</ele><time>2026-03-29T08:01:02.708Z</time></trkpt><trkpt lat="45.5808706" lon="10.4439883"><ele>202.0</ele><time>2026-03-29T08:01:03.708Z</time></trkpt><trkpt lat="45.5807403" lon="10.4440421"><ele>202.0</ele><time>2026-03-29T08:01:04.708Z</time></trkpt><trkpt lat="45.5806092" lon="10.4440855"><ele>202.0</ele><time>2026-03-29T08:01:05.707Z</time></trkpt><trkpt lat="45.5804756" lon="10.4441331"><ele>201.75</ele><time>2026-03-29T08:01:06.708Z</time></trkpt><trkpt lat="45.5803465" lon="10.4441869"><ele>201.5</ele><time>2026-03-29T08:01:07.708Z</time></trkpt><trkpt lat="45.58022" lon="10.4442357"><ele>201.25</ele><time>2026-03-29T08:01:08.708Z</time></trkpt><trkpt lat="45.5800961" lon="10.4442827"><ele>201.0</ele><time>2026-03-29T08:01:09.708Z</time></trkpt><trkpt lat="45.5799749" lon="10.4443253"><ele>201.0</ele><time>2026-03-29T08:01:10.708Z</time></trkpt><trkpt lat="45.579853" lon="10.4443724"><ele>201.0</ele><time>2026-03-29T08:01:11.709Z</time></trkpt><trkpt lat="45.5797248" lon="10.4444207"><ele>201.0</ele><time>2026-03-29T08:01:12.708Z</time></trkpt><trkpt lat="45.5795954" lon="10.4444653"><ele>201.0</ele><time>2026-03-29T08:01:13.708Z</time></trkpt><trkpt lat="45.5794658" lon="10.4445117"><ele>201.25</ele><time>2026-03-29T08:01:14.708Z</time></trkpt><trkpt lat="45.5793303" lon="10.4445674"><ele>201.5</ele><time>2026-03-29T08:01:15.708Z</time></trkpt><trkpt lat="45.5791957" lon="10.4446329"><ele>201.75</ele><time>2026-03-29T08:01:16.708Z</time></trkpt><trkpt lat="45.5790644" lon="10.4447118"><ele>202.0</ele><time>2026-03-29T08:01:17.708Z</time></trkpt><trkpt lat="45.5789304" lon="10.4447975"><ele>202.25</ele><time>2026-03-29T08:01:18.708Z</time></trkpt><trkpt lat="45.5787977" lon="10.4448811"><ele>202.5</ele><time>2026-03-29T08:01:19.708Z</time></trkpt><trkpt lat="45.5786665" lon="10.4449644"><ele>202.75</ele><time>2026-03-29T08:01:20.708Z</time></trkpt><trkpt lat="45.5785371" lon="10.4450358"><ele>203.0</ele><time>2026-03-29T08:01:21.708Z</time></trkpt><trkpt lat="45.5784077" lon="10.4450854"><ele>203.0</ele><time>2026-03-29T08:01:22.708Z</time></trkpt><trkpt lat="45.5782841" lon="10.4451093"><ele>203.0</ele><time>2026-03-29T08:01:23.708Z</time></trkpt><trkpt lat="45.5781726" lon="10.4451235"><ele>203.0</ele><time>2026-03-29T08:01:24.708Z</time></trkpt><trkpt lat="45.5780802" lon="10.4451081"><ele>203.0</ele><time>2026-03-29T08:01:25.708Z</time></trkpt><trkpt lat="45.5780153" lon="10.4450548"><ele>203.0</ele><time>2026-03-29T08:01:26.708Z</time></trkpt><trkpt lat="45.5779743" lon="10.4449698"><ele>203.0</ele><time>2026-03-29T08:01:27.708Z</time></trkpt><trkpt lat="45.5779452" lon="10.4448544"><ele>203.0</ele><time>2026-03-29T08:01:28.708Z</time></trkpt><trkpt lat="45.5779144" lon="10.444722"><ele>203.0</ele><time>2026-03-29T08:01:29.708Z</time></trkpt><trkpt lat="45.5778722" lon="10.4445733"><ele>203.0</ele><time>2026-03-29T08:01:30.708Z</time></trkpt><trkpt lat="45.5778248" lon="10.4444094"><ele>203.0</ele><time>2026-03-29T08:01:31.708Z</time></trkpt><trkpt lat="45.5777742" lon="10.4442296"><ele>202.75</ele><time>2026-03-29T08:01:32.708Z</time></trkpt><trkpt lat="45.5777224" lon="10.4440436"><ele>202.5</ele><time>2026-03-29T08:01:33.709Z</time></trkpt><trkpt lat="45.5776662" lon="10.4438509"><ele>202.25</ele><time>2026-03-29T08:01:34.708Z</time></trkpt><trkpt lat="45.5776116" lon="10.4436633"><ele>202.0</ele><time>2026-03-29T08:01:35.708Z</time></trkpt><trkpt lat="45.577563" lon="10.4434792"><ele>201.25</ele><time>2026-03-29T08:01:36.708Z</time></trkpt><trkpt lat="45.5775147" lon="10.4433053"><ele>200.5</ele><time>2026-03-29T08:01:37.708Z</time></trkpt><trkpt lat="45.5774738" lon="10.4431501"><ele>199.75</ele><time>2026-03-29T08:01:38.708Z</time></trkpt><trkpt lat="45.5774335" lon="10.4430007"><ele>199.0</ele><time>2026-03-29T08:01:39.708Z</time></trkpt><trkpt lat="45.5773863" lon="10.4428657"><ele>198.66666666666666</ele><time>2026-03-29T08:01:40.708Z</time></trkpt><trkpt lat="45.577335" lon="10.4427507"><ele>198.33333333333331</ele><time>2026-03-29T08:01:41.708Z</time></trkpt><trkpt lat="45.5772797" lon="10.4426514"><ele>198.0</ele><time>2026-03-29T08:01:42.708Z</time></trkpt><trkpt lat="45.5772332" lon="10.4425791"><ele>197.66666666666669</ele><time>2026-03-29T08:01:43.709Z</time></trkpt><trkpt lat="45.5771888" lon="10.4425055"><ele>197.33333333333334</ele><time>2026-03-29T08:01:45.708Z</time></trkpt><trkpt lat="45.5771542" lon="10.4424271"><ele>197.0</ele><time>2026-03-29T08:01:53.708Z</time></trkpt><trkpt lat="45.5771038" lon="10.4423122"><ele>197.39999999999998</ele><time>2026-03-29T08:01:55.708Z</time></trkpt><trkpt lat="45.5770161" lon="10.4422101"><ele>197.79999999999998</ele><time>2026-03-29T08:01:57.708Z</time></trkpt><trkpt lat="45.5769536" lon="10.4422228"><ele>198.2</ele><time>2026-03-29T08:01:58.708Z</time></trkpt><trkpt lat="45.576887" lon="10.4422758"><ele>198.6</ele><time>2026-03-29T08:01:59.708Z</time></trkpt><trkpt lat="45.5768183" lon="10.4423667"><ele>199.0</ele><time>2026-03-29T08:02:00.708Z</time></trkpt><trkpt lat="45.5767351" lon="10.4424606"><ele>199.0</ele><time>2026-03-29T08:02:01.708Z</time></trkpt><trkpt lat="45.5766452" lon="10.4425437"><ele>199.0</ele><time>2026-03-29T08:02:02.708Z</time></trkpt><trkpt lat="45.5765559" lon="10.4426447"><ele>199.0</ele><time>2026-03-29T08:02:03.708Z</time></trkpt><trkpt lat="45.5764663" lon="10.4427496"><ele>199.0</ele><time>2026-03-29T08:02:04.708Z</time></trkpt><trkpt lat="45.5763655" lon="10.4428399"><ele>199.0</ele><time>2026-03-29T08:02:05.708Z</time></trkpt><trkpt lat="45.576263" lon="10.4428929"><ele>199.0</ele><time>2026-03-29T08:02:06.708Z</time></trkpt><trkpt lat="45.5761825" lon="10.4429685"><ele>199.0</ele><time>2026-03-29T08:02:07.708Z</time></trkpt><trkpt lat="45.5761258" lon="10.4430765"><ele>199.0</ele><time>2026-03-29T08:02:08.708Z</time></trkpt><trkpt lat="45.5760929" lon="10.4432097"><ele>199.0</ele><time>2026-03-29T08:02:09.708Z</time></trkpt><trkpt lat="45.5760868" lon="10.4433582"><ele>199.75</ele><time>2026-03-29T08:02:10.708Z</time></trkpt><trkpt lat="45.5760773" lon="10.4435048"><ele>200.5</ele><time>2026-03-29T08:02:11.708Z</time></trkpt><trkpt lat="45.5760348" lon="10.4436502"><ele>201.25</ele><time>2026-03-29T08:02:12.708Z</time></trkpt><trkpt lat="45.5759744" lon="10.4437988"><ele>202.0</ele><time>2026-03-29T08:02:13.708Z</time></trkpt><trkpt lat="45.5759129" lon="10.4439481"><ele>202.0</ele><time>2026-03-29T08:02:14.708Z</time></trkpt><trkpt lat="45.5758534" lon="10.444106"><ele>202.0</ele><time>2026-03-29T08:02:15.708Z</time></trkpt><trkpt lat="45.5757935" lon="10.4442608"><ele>202.0</ele><time>2026-03-29T08:02:16.708Z</time></trkpt><trkpt lat="45.5757414" lon="10.4444165"><ele>202.0</ele><time>2026-03-29T08:02:17.708Z</time></trkpt><trkpt lat="45.5757039" lon="10.4445674"><ele>202.0</ele><time>2026-03-29T08:02:18.708Z</time></trkpt><trkpt lat="45.5756513" lon="10.4447238"><ele>202.0</ele><time>2026-03-29T08:02:19.708Z</time></trkpt><trkpt lat="45.5755805" lon="10.4448735"><ele>202.0</ele><time>2026-03-29T08:02:20.708Z</time></trkpt><trkpt lat="45.5755055" lon="10.4450298"><ele>202.0</ele><time>2026-03-29T08:02:21.708Z</time></trkpt><trkpt lat="45.5754254" lon="10.4451916"><ele>202.0</ele><time>2026-03-29T08:02:22.708Z</time></trkpt><trkpt lat="45.5753376" lon="10.4453606"><ele>202.0</ele><time>2026-03-29T08:02:23.708Z</time></trkpt><trkpt lat="45.575251" lon="10.4455366"><ele>202.0</ele><time>2026-03-29T08:02:24.708Z</time></trkpt><trkpt lat="45.5751635" lon="10.4457179"><ele>203.33333333333331</ele><time>2026-03-29T08:02:25.708Z</time></trkpt><trkpt lat="45.5750688" lon="10.4458966"><ele>204.66666666666669</ele><time>2026-03-29T08:02:26.708Z</time></trkpt><trkpt lat="45.5749679" lon="10.4460681"><ele>206.0</ele><time>2026-03-29T08:02:27.708Z</time></trkpt><trkpt lat="45.5748601" lon="10.4462366"><ele>207.0</ele><time>2026-03-29T08:02:28.708Z</time></trkpt><trkpt lat="45.5747457" lon="10.446404"><ele>208.0</ele><time>2026-03-29T08:02:29.708Z</time></trkpt><trkpt lat="45.5746264" lon="10.4465693"><ele>209.0</ele><time>2026-03-29T08:02:30.708Z</time></trkpt><trkpt lat="45.5745064" lon="10.446736"><ele>209.0</ele><time>2026-03-29T08:02:31.708Z</time></trkpt><trkpt lat="45.5743859" lon="10.4469063"><ele>209.0</ele><time>2026-03-29T08:02:32.709Z</time></trkpt><trkpt lat="45.5742622" lon="10.4470831"><ele>209.0</ele><time>2026-03-29T08:02:33.708Z</time></trkpt><trkpt lat="45.5741405" lon="10.4472624"><ele>210.33333333333334</ele><time>2026-03-29T08:02:34.708Z</time></trkpt><trkpt lat="45.5740139" lon="10.4474442"><ele>211.66666666666669</ele><time>2026-03-29T08:02:35.708Z</time></trkpt><trkpt lat="45.5738845" lon="10.4476316"><ele>213.0</ele><time>2026-03-29T08:02:36.708Z</time></trkpt><trkpt lat="45.5737515" lon="10.4478373"><ele>215.33333333333331</ele><time>2026-03-29T08:02:37.708Z</time></trkpt><trkpt lat="45.5736316" lon="10.4480658"><ele>217.66666666666666</ele><time>2026-03-29T08:02:38.708Z</time></trkpt><trkpt lat="45.5735343" lon="10.4483093"><ele>220.0</ele><time>2026-03-29T08:02:39.708Z</time></trkpt><trkpt lat="45.5734526" lon="10.4485645"><ele>220.66666666666666</ele><time>2026-03-29T08:02:40.708Z</time></trkpt><trkpt lat="45.5733783" lon="10.4488205"><ele>221.33333333333331</ele><time>2026-03-29T08:02:41.708Z</time></trkpt><trkpt lat="45.5733081" lon="10.4490742"><ele>222.0</ele><time>2026-03-29T08:02:42.708Z</time></trkpt><trkpt lat="45.5732448" lon="10.4493237"><ele>222.0</ele><time>2026-03-29T08:02:43.708Z</time></trkpt><trkpt lat="45.5731744" lon="10.449566"><ele>222.0</ele><time>2026-03-29T08:02:44.708Z</time></trkpt><trkpt lat="45.5730807" lon="10.4497868"><ele>222.0</ele><time>2026-03-29T08:02:45.708Z</time></trkpt><trkpt lat="45.5729682" lon="10.4499874"><ele>222.0</ele><time>2026-03-29T08:02:46.708Z</time></trkpt><trkpt lat="45.572842" lon="10.4501756"><ele>222.0</ele><time>2026-03-29T08:02:47.708Z</time></trkpt><trkpt lat="45.5727026" lon="10.4503639"><ele>222.0</ele><time>2026-03-29T08:02:48.708Z</time></trkpt><trkpt lat="45.5725585" lon="10.4505527"><ele>222.66666666666669</ele><time>2026-03-29T08:02:49.708Z</time></trkpt><trkpt lat="45.5724154" lon="10.4507379"><ele>223.33333333333334</ele><time>2026-03-29T08:02:50.708Z</time></trkpt><trkpt lat="45.572275" lon="10.450918"><ele>224.0</ele><time>2026-03-29T08:02:51.708Z</time></trkpt><trkpt lat="45.5721342" lon="10.451099"><ele>224.33333333333334</ele><time>2026-03-29T08:02:52.708Z</time></trkpt><trkpt lat="45.5719945" lon="10.4512841"><ele>224.66666666666669</ele><time>2026-03-29T08:02:53.708Z</time></trkpt><trkpt lat="45.5718593" lon="10.4514797"><ele>225.0</ele><time>2026-03-29T08:02:54.708Z</time></trkpt><trkpt lat="45.5717328" lon="10.4516814"><ele>225.0</ele><time>2026-03-29T08:02:55.708Z</time></trkpt><trkpt lat="45.5716065" lon="10.4518868"><ele>225.0</ele><time>2026-03-29T08:02:56.708Z</time></trkpt><trkpt lat="45.5714797" lon="10.4520917"><ele>225.0</ele><time>2026-03-29T08:02:57.708Z</time></trkpt><trkpt lat="45.5713526" lon="10.4522977"><ele>225.0</ele><time>2026-03-29T08:02:58.708Z</time></trkpt><trkpt lat="45.5712287" lon="10.4525047"><ele>225.0</ele><time>2026-03-29T08:02:59.708Z</time></trkpt><trkpt lat="45.5711006" lon="10.4527091"><ele>225.0</ele><time>2026-03-29T08:03:00.708Z</time></trkpt><trkpt lat="45.570969" lon="10.4529078"><ele>225.33333333333331</ele><time>2026-03-29T08:03:01.708Z</time></trkpt><trkpt lat="45.5708314" lon="10.4531006"><ele>225.66666666666666</ele><time>2026-03-29T08:03:02.708Z</time></trkpt><trkpt lat="45.5706819" lon="10.4532786"><ele>226.0</ele><time>2026-03-29T08:03:03.708Z</time></trkpt><trkpt lat="45.5705281" lon="10.4534514"><ele>226.0</ele><time>2026-03-29T08:03:04.708Z</time></trkpt><trkpt lat="45.5703726" lon="10.453622"><ele>226.0</ele><time>2026-03-29T08:03:05.708Z</time></trkpt><trkpt lat="45.5702147" lon="10.453788"><ele>226.0</ele><time>2026-03-29T08:03:06.708Z</time></trkpt><trkpt lat="45.5700587" lon="10.4539525"><ele>227.33333333333331</ele><time>2026-03-29T08:03:07.709Z</time></trkpt><trkpt lat="45.5699032" lon="10.4541137"><ele>228.66666666666669</ele><time>2026-03-29T08:03:08.708Z</time></trkpt><trkpt lat="45.5697497" lon="10.4542757"><ele>230.0</ele><time>2026-03-29T08:03:09.708Z</time></trkpt><trkpt lat="45.5695964" lon="10.4544386"><ele>230.33333333333334</ele><time>2026-03-29T08:03:10.708Z</time></trkpt><trkpt lat="45.569447" lon="10.4545941"><ele>230.66666666666669</ele><time>2026-03-29T08:03:11.708Z</time></trkpt><trkpt lat="45.5693075" lon="10.4547285"><ele>231.0</ele><time>2026-03-29T08:03:12.708Z</time></trkpt><trkpt lat="45.5691767" lon="10.4548526"><ele>232.33333333333331</ele><time>2026-03-29T08:03:13.708Z</time></trkpt><trkpt lat="45.5690493" lon="10.454979"><ele>233.66666666666666</ele><time>2026-03-29T08:03:14.708Z</time></trkpt><trkpt lat="45.568913" lon="10.4551113"><ele>235.0</ele><time>2026-03-29T08:03:15.708Z</time></trkpt><trkpt lat="45.5687699" lon="10.45524"><ele>234.66666666666666</ele><time>2026-03-29T08:03:16.709Z</time></trkpt><trkpt lat="45.5686177" lon="10.4553606"><ele>234.33333333333331</ele><time>2026-03-29T08:03:17.708Z</time></trkpt><trkpt lat="45.5684611" lon="10.4554856"><ele>234.0</ele><time>2026-03-29T08:03:18.708Z</time></trkpt><trkpt lat="45.5683057" lon="10.4556262"><ele>235.0</ele><time>2026-03-29T08:03:19.708Z</time></trkpt><trkpt lat="45.5681553" lon="10.455782"><ele>236.0</ele><time>2026-03-29T08:03:20.708Z</time></trkpt><trkpt lat="45.5680113" lon="10.4559533"><ele>237.0</ele><time>2026-03-29T08:03:21.708Z</time></trkpt><trkpt lat="45.5678772" lon="10.4561396"><ele>237.33333333333331</ele><time>2026-03-29T08:03:22.708Z</time></trkpt><trkpt lat="45.5677506" lon="10.4563371"><ele>237.66666666666666</ele><time>2026-03-29T08:03:23.708Z</time></trkpt><trkpt lat="45.567627" lon="10.4565358"><ele>238.0</ele><time>2026-03-29T08:03:24.708Z</time></trkpt><trkpt lat="45.567502" lon="10.4567289"><ele>238.0</ele><time>2026-03-29T08:03:25.709Z</time></trkpt><trkpt lat="45.5673798" lon="10.4569143"><ele>238.0</ele><time>2026-03-29T08:03:26.708Z</time></trkpt><trkpt lat="45.5672599" lon="10.4570992"><ele>238.0</ele><time>2026-03-29T08:03:27.708Z</time></trkpt><trkpt lat="45.567142" lon="10.4572825"><ele>237.0</ele><time>2026-03-29T08:03:28.708Z</time></trkpt><trkpt lat="45.5670223" lon="10.457467"><ele>236.0</ele><time>2026-03-29T08:03:29.708Z</time></trkpt><trkpt lat="45.5669029" lon="10.4576467"><ele>235.0</ele><time>2026-03-29T08:03:30.708Z</time></trkpt><trkpt lat="45.5667914" lon="10.4578159"><ele>235.25</ele><time>2026-03-29T08:03:31.708Z</time></trkpt><trkpt lat="45.5666863" lon="10.4579724"><ele>235.5</ele><time>2026-03-29T08:03:32.708Z</time></trkpt><trkpt lat="45.5665866" lon="10.4581195"><ele>235.75</ele><time>2026-03-29T08:03:33.708Z</time></trkpt><trkpt lat="45.566494" lon="10.4582546"><ele>236.0</ele><time>2026-03-29T08:03:34.708Z</time></trkpt><trkpt lat="45.5664092" lon="10.4583776"><ele>236.0</ele><time>2026-03-29T08:03:35.708Z</time></trkpt><trkpt lat="45.5663243" lon="10.458487"><ele>236.0</ele><time>2026-03-29T08:03:36.708Z</time></trkpt><trkpt lat="45.5662287" lon="10.458575"><ele>236.0</ele><time>2026-03-29T08:03:37.708Z</time></trkpt><trkpt lat="45.5661204" lon="10.4586267"><ele>236.0</ele><time>2026-03-29T08:03:38.708Z</time></trkpt><trkpt lat="45.5660078" lon="10.4586402"><ele>236.50000000000003</ele><time>2026-03-29T08:03:39.708Z</time></trkpt><trkpt lat="45.5659166" lon="10.4586264"><ele>237.0</ele><time>2026-03-29T08:03:40.708Z</time></trkpt><trkpt lat="45.5658449" lon="10.4585967"><ele>237.5</ele><time>2026-03-29T08:03:41.708Z</time></trkpt><trkpt lat="45.5657497" lon="10.4585526"><ele>238.0</ele><time>2026-03-29T08:03:43.708Z</time></trkpt><trkpt lat="45.5656746" lon="10.4585262"><ele>238.50000000000003</ele><time>2026-03-29T08:03:45.708Z</time></trkpt><trkpt lat="45.5655832" lon="10.4584921"><ele>239.0</ele><time>2026-03-29T08:03:47.708Z</time></trkpt><trkpt lat="45.5654574" lon="10.4584487"><ele>239.00000000000003</ele><time>2026-03-29T08:03:49.708Z</time></trkpt><trkpt lat="45.5653827" lon="10.4584316"><ele>239.0</ele><time>2026-03-29T08:03:50.708Z</time></trkpt><trkpt lat="45.5653079" lon="10.4584238"><ele>239.0</ele><time>2026-03-29T08:03:51.708Z</time></trkpt><trkpt lat="45.5652323" lon="10.4584163"><ele>239.0</ele><time>2026-03-29T08:03:52.708Z</time></trkpt><trkpt lat="45.5651554" lon="10.4583974"><ele>239.00000000000003</ele><time>2026-03-29T08:03:53.708Z</time></trkpt><trkpt lat="45.5650823" lon="10.4583558"><ele>239.0</ele><time>2026-03-29T08:03:54.708Z</time></trkpt><trkpt lat="45.5650024" lon="10.4583095"><ele>238.79999999999998</ele><time>2026-03-29T08:03:55.708Z</time></trkpt><trkpt lat="45.5649175" lon="10.4582665"><ele>238.59999999999997</ele><time>2026-03-29T08:03:56.708Z</time></trkpt><trkpt lat="45.5648356" lon="10.4582167"><ele>238.4</ele><time>2026-03-29T08:03:57.708Z</time></trkpt><trkpt lat="45.5647528" lon="10.4581612"><ele>238.2</ele><time>2026-03-29T08:03:58.708Z</time></trkpt><trkpt lat="45.5646656" lon="10.4581023"><ele>238.0</ele><time>2026-03-29T08:03:59.708Z</time></trkpt><trkpt lat="45.5645759" lon="10.4580424"><ele>238.0</ele><time>2026-03-29T08:04:00.708Z</time></trkpt><trkpt lat="45.5644926" lon="10.4579964"><ele>238.0</ele><time>2026-03-29T08:04:01.708Z</time></trkpt><trkpt lat="45.5644054" lon="10.4579605"><ele>238.0</ele><time>2026-03-29T08:04:02.708Z</time></trkpt><trkpt lat="45.5643171" lon="10.4579141"><ele>238.0</ele><time>2026-03-29T08:04:03.708Z</time></trkpt><trkpt lat="45.5642192" lon="10.4578645"><ele>238.0</ele><time>2026-03-29T08:04:04.709Z</time></trkpt><trkpt lat="45.5641259" lon="10.457807"><ele>237.60000000000002</ele><time>2026-03-29T08:04:05.708Z</time></trkpt><trkpt lat="45.5640289" lon="10.4577507"><ele>237.20000000000002</ele><time>2026-03-29T08:04:06.708Z</time></trkpt><trkpt lat="45.5639273" lon="10.4576976"><ele>236.8</ele><time>2026-03-29T08:04:07.708Z</time></trkpt><trkpt lat="45.5638182" lon="10.4576402"><ele>236.4</ele><time>2026-03-29T08:04:08.708Z</time></trkpt><trkpt lat="45.5637171" lon="10.4575925"><ele>236.0</ele><time>2026-03-29T08:04:09.708Z</time></trkpt><trkpt lat="45.5636194" lon="10.4575438"><ele>236.0</ele><time>2026-03-29T08:04:10.708Z</time></trkpt><trkpt lat="45.5635404" lon="10.4575054"><ele>236.00000000000003</ele><time>2026-03-29T08:04:11.708Z</time></trkpt><trkpt lat="45.5634724" lon="10.4574839"><ele>236.00000000000003</ele><time>2026-03-29T08:04:12.708Z</time></trkpt><trkpt lat="45.5633589" lon="10.4575215"><ele>236.0</ele><time>2026-03-29T08:04:14.708Z</time></trkpt><trkpt lat="45.5632969" lon="10.4576361"><ele>236.0</ele><time>2026-03-29T08:04:16.708Z</time></trkpt><trkpt lat="45.5632634" lon="10.4578081"><ele>236.0</ele><time>2026-03-29T08:04:18.708Z</time></trkpt><trkpt lat="45.5632488" lon="10.4579051"><ele>236.0</ele><time>2026-03-29T08:04:19.708Z</time></trkpt><trkpt lat="45.5632376" lon="10.4580034"><ele>236.0</ele><time>2026-03-29T08:04:20.708Z</time></trkpt><trkpt lat="45.5632257" lon="10.4580992"><ele>236.0</ele><time>2026-03-29T08:04:21.708Z</time></trkpt><trkpt lat="45.5632114" lon="10.4581998"><ele>236.0</ele><time>2026-03-29T08:04:22.708Z</time></trkpt><trkpt lat="45.5632004" lon="10.458306"><ele>236.0</ele><time>2026-03-29T08:04:23.708Z</time></trkpt><trkpt lat="45.5631752" lon="10.4584106"><ele>236.0</ele><time>2026-03-29T08:04:24.708Z</time></trkpt><trkpt lat="45.5631499" lon="10.4585196"><ele>236.60000000000002</ele><time>2026-03-29T08:04:25.708Z</time></trkpt><trkpt lat="45.5631238" lon="10.4586358"><ele>237.20000000000002</ele><time>2026-03-29T08:04:26.708Z</time></trkpt><trkpt lat="45.5630985" lon="10.458765"><ele>237.79999999999998</ele><time>2026-03-29T08:04:27.708Z</time></trkpt><trkpt lat="45.563077" lon="10.4589017"><ele>238.39999999999998</ele><time>2026-03-29T08:04:28.708Z</time></trkpt><trkpt lat="45.5630473" lon="10.4590424"><ele>239.0</ele><time>2026-03-29T08:04:29.708Z</time></trkpt><trkpt lat="45.563013" lon="10.4591858"><ele>239.39999999999998</ele><time>2026-03-29T08:04:30.708Z</time></trkpt><trkpt lat="45.5629813" lon="10.4593117"><ele>239.79999999999998</ele><time>2026-03-29T08:04:31.708Z</time></trkpt><trkpt lat="45.5629463" lon="10.4594308"><ele>240.20000000000002</ele><time>2026-03-29T08:04:32.708Z</time></trkpt><trkpt lat="45.5629154" lon="10.4595521"><ele>240.60000000000002</ele><time>2026-03-29T08:04:33.708Z</time></trkpt><trkpt lat="45.5628843" lon="10.4596704"><ele>241.0</ele><time>2026-03-29T08:04:34.709Z</time></trkpt><trkpt lat="45.5628535" lon="10.4597872"><ele>241.16666666666666</ele><time>2026-03-29T08:04:35.708Z</time></trkpt><trkpt lat="45.5628286" lon="10.4598895"><ele>241.33333333333331</ele><time>2026-03-29T08:04:36.708Z</time></trkpt><trkpt lat="45.5627905" lon="10.459967"><ele>241.5</ele><time>2026-03-29T08:04:37.708Z</time></trkpt><trkpt lat="45.5626666" lon="10.459979"><ele>241.66666666666669</ele><time>2026-03-29T08:04:39.708Z</time></trkpt><trkpt lat="45.5625918" lon="10.4599289"><ele>241.83333333333334</ele><time>2026-03-29T08:04:40.708Z</time></trkpt><trkpt lat="45.5625003" lon="10.4598931"><ele>242.0</ele><time>2026-03-29T08:04:41.708Z</time></trkpt><trkpt lat="45.5623949" lon="10.4598587"><ele>242.0</ele><time>2026-03-29T08:04:42.708Z</time></trkpt><trkpt lat="45.5622787" lon="10.4598167"><ele>242.0</ele><time>2026-03-29T08:04:43.708Z</time></trkpt><trkpt lat="45.5621555" lon="10.4597696"><ele>242.0</ele><time>2026-03-29T08:04:44.708Z</time></trkpt><trkpt lat="45.5620244" lon="10.4597164"><ele>242.0</ele><time>2026-03-29T08:04:45.708Z</time></trkpt><trkpt lat="45.5619008" lon="10.4596606"><ele>241.2</ele><time>2026-03-29T08:04:46.708Z</time></trkpt><trkpt lat="45.5617929" lon="10.4596"><ele>240.39999999999998</ele><time>2026-03-29T08:04:47.708Z</time></trkpt><trkpt lat="45.5616929" lon="10.4595451"><ele>239.60000000000002</ele><time>2026-03-29T08:04:48.708Z</time></trkpt><trkpt lat="45.5615895" lon="10.459506"><ele>238.8</ele><time>2026-03-29T08:04:49.708Z</time></trkpt><trkpt lat="45.5614846" lon="10.4594601"><ele>238.0</ele><time>2026-03-29T08:04:50.708Z</time></trkpt><trkpt lat="45.561373" lon="10.4594132"><ele>238.0</ele><time>2026-03-29T08:04:51.708Z</time></trkpt><trkpt lat="45.5612507" lon="10.4593713"><ele>238.0</ele><time>2026-03-29T08:04:52.708Z</time></trkpt><trkpt lat="45.5611192" lon="10.4593437"><ele>238.0</ele><time>2026-03-29T08:04:53.708Z</time></trkpt><trkpt lat="45.5609776" lon="10.459327"><ele>238.0</ele><time>2026-03-29T08:04:54.708Z</time></trkpt><trkpt lat="45.5608292" lon="10.4593181"><ele>236.66666666666666</ele><time>2026-03-29T08:04:55.708Z</time></trkpt><trkpt lat="45.5606753" lon="10.459308"><ele>235.33333333333331</ele><time>2026-03-29T08:04:56.708Z</time></trkpt><trkpt lat="45.5605157" lon="10.4592948"><ele>234.0</ele><time>2026-03-29T08:04:57.708Z</time></trkpt><trkpt lat="45.5603555" lon="10.4592791"><ele>233.5</ele><time>2026-03-29T08:04:58.708Z</time></trkpt><trkpt lat="45.5602073" lon="10.4592632"><ele>233.0</ele><time>2026-03-29T08:04:59.708Z</time></trkpt><trkpt lat="45.5600705" lon="10.4592273"><ele>232.5</ele><time>2026-03-29T08:05:00.708Z</time></trkpt><trkpt lat="45.5599678" lon="10.4591416"><ele>232.0</ele><time>2026-03-29T08:05:01.708Z</time></trkpt><trkpt lat="45.559896" lon="10.4590179"><ele>232.0</ele><time>2026-03-29T08:05:02.708Z</time></trkpt><trkpt lat="45.5598567" lon="10.4588551"><ele>232.0</ele><time>2026-03-29T08:05:03.708Z</time></trkpt><trkpt lat="45.5598472" lon="10.4586693"><ele>232.0</ele><time>2026-03-29T08:05:04.708Z</time></trkpt><trkpt lat="45.5598515" lon="10.4584691"><ele>232.0</ele><time>2026-03-29T08:05:05.708Z</time></trkpt><trkpt lat="45.5598593" lon="10.4582586"><ele>231.5</ele><time>2026-03-29T08:05:06.708Z</time></trkpt><trkpt lat="45.5598693" lon="10.4580557"><ele>231.0</ele><time>2026-03-29T08:05:07.708Z</time></trkpt><trkpt lat="45.5598815" lon="10.4578606"><ele>230.5</ele><time>2026-03-29T08:05:08.708Z</time></trkpt><trkpt lat="45.5598952" lon="10.4576691"><ele>230.0</ele><time>2026-03-29T08:05:09.708Z</time></trkpt><trkpt lat="45.5599081" lon="10.4574614"><ele>230.0</ele><time>2026-03-29T08:05:10.708Z</time></trkpt><trkpt lat="45.5599225" lon="10.4572497"><ele>230.0</ele><time>2026-03-29T08:05:11.708Z</time></trkpt><trkpt lat="45.5599353" lon="10.4570325"><ele>230.0</ele><time>2026-03-29T08:05:12.708Z</time></trkpt><trkpt lat="45.5599465" lon="10.4568279"><ele>230.0</ele><time>2026-03-29T08:05:13.708Z</time></trkpt><trkpt lat="45.5599572" lon="10.4566335"><ele>230.0</ele><time>2026-03-29T08:05:14.708Z</time></trkpt><trkpt lat="45.5599687" lon="10.4564386"><ele>230.0</ele><time>2026-03-29T08:05:15.708Z</time></trkpt><trkpt lat="45.5599829" lon="10.4562484"><ele>230.0</ele><time>2026-03-29T08:05:16.708Z</time></trkpt><trkpt lat="45.559997" lon="10.4560608"><ele>230.0</ele><time>2026-03-29T08:05:17.708Z</time></trkpt><trkpt lat="45.5600091" lon="10.455876"><ele>230.0</ele><time>2026-03-29T08:05:18.708Z</time></trkpt><trkpt lat="45.5600202" lon="10.4557016"><ele>230.0</ele><time>2026-03-29T08:05:19.708Z</time></trkpt><trkpt lat="45.5600308" lon="10.4555263"><ele>230.0</ele><time>2026-03-29T08:05:20.708Z</time></trkpt><trkpt lat="45.5600414" lon="10.4553495"><ele>230.0</ele><time>2026-03-29T08:05:21.709Z</time></trkpt><trkpt lat="45.5600519" lon="10.4552145"><ele>230.0</ele><time>2026-03-29T08:05:22.708Z</time></trkpt><trkpt lat="45.5600554" lon="10.4551083"><ele>230.0</ele><time>2026-03-29T08:05:23.708Z</time></trkpt><trkpt lat="45.5599886" lon="10.4550017"><ele>230.0</ele><time>2026-03-29T08:05:25.708Z</time></trkpt><trkpt lat="45.5598647" lon="10.4550077"><ele>230.0</ele><time>2026-03-29T08:05:27.708Z</time></trkpt><trkpt lat="45.559774" lon="10.4550155"><ele>230.0</ele><time>2026-03-29T08:05:28.708Z</time></trkpt><trkpt lat="45.5596837" lon="10.4550265"><ele>230.0</ele><time>2026-03-29T08:05:29.708Z</time></trkpt><trkpt lat="45.5595853" lon="10.4550371"><ele>230.0</ele><time>2026-03-29T08:05:30.708Z</time></trkpt><trkpt lat="45.5594764" lon="10.4550431"><ele>230.0</ele><time>2026-03-29T08:05:31.708Z</time></trkpt><trkpt lat="45.5593565" lon="10.4550526"><ele>230.0</ele><time>2026-03-29T08:05:32.708Z</time></trkpt><trkpt lat="45.5592295" lon="10.4550599"><ele>229.25</ele><time>2026-03-29T08:05:33.708Z</time></trkpt><trkpt lat="45.5590905" lon="10.4550576"><ele>228.5</ele><time>2026-03-29T08:05:34.708Z</time></trkpt><trkpt lat="45.5589467" lon="10.4550519"><ele>227.75</ele><time>2026-03-29T08:05:35.708Z</time></trkpt><trkpt lat="45.5588034" lon="10.4550555"><ele>227.0</ele><time>2026-03-29T08:05:36.708Z</time></trkpt><trkpt lat="45.5586625" lon="10.4550764"><ele>226.0</ele><time>2026-03-29T08:05:37.708Z</time></trkpt><trkpt lat="45.5585254" lon="10.4551064"><ele>225.0</ele><time>2026-03-29T08:05:38.708Z</time></trkpt><trkpt lat="45.5583924" lon="10.4551401"><ele>224.0</ele><time>2026-03-29T08:05:39.708Z</time></trkpt><trkpt lat="45.5582644" lon="10.4551749"><ele>223.0</ele><time>2026-03-29T08:05:40.709Z</time></trkpt><trkpt lat="45.5581423" lon="10.455212"><ele>223.0</ele><time>2026-03-29T08:05:41.708Z</time></trkpt><trkpt lat="45.5580296" lon="10.4552397"><ele>223.0</ele><time>2026-03-29T08:05:42.708Z</time></trkpt><trkpt lat="45.5579269" lon="10.4552703"><ele>223.0</ele><time>2026-03-29T08:05:43.708Z</time></trkpt><trkpt lat="45.5578378" lon="10.4553273"><ele>223.0</ele><time>2026-03-29T08:05:44.709Z</time></trkpt><trkpt lat="45.5577703" lon="10.4554211"><ele>223.0</ele><time>2026-03-29T08:05:45.708Z</time></trkpt><trkpt lat="45.5577263" lon="10.4555446"><ele>224.0</ele><time>2026-03-29T08:05:46.708Z</time></trkpt><trkpt lat="45.55771" lon="10.4556862"><ele>225.0</ele><time>2026-03-29T08:05:47.708Z</time></trkpt><trkpt lat="45.557703" lon="10.4558381"><ele>226.0</ele><time>2026-03-29T08:05:48.708Z</time></trkpt><trkpt lat="45.5576899" lon="10.4559925"><ele>227.0</ele><time>2026-03-29T08:05:49.708Z</time></trkpt><trkpt lat="45.5576645" lon="10.4561517"><ele>228.0</ele><time>2026-03-29T08:05:50.708Z</time></trkpt><trkpt lat="45.557621" lon="10.4563121"><ele>228.75</ele><time>2026-03-29T08:05:51.708Z</time></trkpt><trkpt lat="45.5575591" lon="10.4564651"><ele>229.5</ele><time>2026-03-29T08:05:52.708Z</time></trkpt><trkpt lat="45.5574813" lon="10.4565875"><ele>230.25</ele><time>2026-03-29T08:05:53.708Z</time></trkpt><trkpt lat="45.5573821" lon="10.4566886"><ele>231.0</ele><time>2026-03-29T08:05:54.708Z</time></trkpt><trkpt lat="45.5572746" lon="10.4567896"><ele>231.0</ele><time>2026-03-29T08:05:55.708Z</time></trkpt><trkpt lat="45.5571632" lon="10.4568951"><ele>231.0</ele><time>2026-03-29T08:05:56.708Z</time></trkpt><trkpt lat="45.5570599" lon="10.4570101"><ele>231.0</ele><time>2026-03-29T08:05:57.708Z</time></trkpt><trkpt lat="45.5569622" lon="10.4571177"><ele>231.0</ele><time>2026-03-29T08:05:58.708Z</time></trkpt><trkpt lat="45.5568657" lon="10.4572157"><ele>233.25</ele><time>2026-03-29T08:05:59.708Z</time></trkpt><trkpt lat="45.5567581" lon="10.4573076"><ele>235.5</ele><time>2026-03-29T08:06:00.708Z</time></trkpt><trkpt lat="45.5566404" lon="10.4573827"><ele>237.75</ele><time>2026-03-29T08:06:01.708Z</time></trkpt><trkpt lat="45.5565184" lon="10.4574499"><ele>240.0</ele><time>2026-03-29T08:06:02.708Z</time></trkpt><trkpt lat="45.5563958" lon="10.4575265"><ele>240.0</ele><time>2026-03-29T08:06:03.708Z</time></trkpt><trkpt lat="45.5562796" lon="10.4576249"><ele>240.0</ele><time>2026-03-29T08:06:04.708Z</time></trkpt><trkpt lat="45.5561749" lon="10.4577191"><ele>240.0</ele><time>2026-03-29T08:06:05.708Z</time></trkpt><trkpt lat="45.556088" lon="10.4578203"><ele>240.0</ele><time>2026-03-29T08:06:06.708Z</time></trkpt><trkpt lat="45.5560174" lon="10.4579313"><ele>241.4</ele><time>2026-03-29T08:06:07.708Z</time></trkpt><trkpt lat="45.5559592" lon="10.4580637"><ele>242.8</ele><time>2026-03-29T08:06:08.708Z</time></trkpt><trkpt lat="45.5559104" lon="10.4581824"><ele>244.2</ele><time>2026-03-29T08:06:09.708Z</time></trkpt><trkpt lat="45.5558531" lon="10.4582772"><ele>245.6</ele><time>2026-03-29T08:06:10.708Z</time></trkpt><trkpt lat="45.5557817" lon="10.4583557"><ele>247.0</ele><time>2026-03-29T08:06:11.708Z</time></trkpt><trkpt lat="45.5556975" lon="10.458419"><ele>247.0</ele><time>2026-03-29T08:06:12.708Z</time></trkpt><trkpt lat="45.5556054" lon="10.4584777"><ele>247.0</ele><time>2026-03-29T08:06:13.708Z</time></trkpt><trkpt lat="45.5555074" lon="10.4585352"><ele>247.0</ele><time>2026-03-29T08:06:14.708Z</time></trkpt><trkpt lat="45.5554002" lon="10.4585925"><ele>247.0</ele><time>2026-03-29T08:06:15.708Z</time></trkpt><trkpt lat="45.5552887" lon="10.45865"><ele>247.0</ele><time>2026-03-29T08:06:16.708Z</time></trkpt><trkpt lat="45.5551705" lon="10.4587052"><ele>246.0</ele><time>2026-03-29T08:06:17.708Z</time></trkpt><trkpt lat="45.5550464" lon="10.4587636"><ele>245.0</ele><time>2026-03-29T08:06:18.708Z</time></trkpt><trkpt lat="45.5549225" lon="10.4588134"><ele>244.0</ele><time>2026-03-29T08:06:19.708Z</time></trkpt><trkpt lat="45.5547991" lon="10.4588716"><ele>243.0</ele><time>2026-03-29T08:06:20.708Z</time></trkpt><trkpt lat="45.5546822" lon="10.4589367"><ele>243.2</ele><time>2026-03-29T08:06:21.708Z</time></trkpt><trkpt lat="45.5545751" lon="10.4590098"><ele>243.4</ele><time>2026-03-29T08:06:22.708Z</time></trkpt><trkpt lat="45.5544875" lon="10.4590952"><ele>243.59999999999997</ele><time>2026-03-29T08:06:23.708Z</time></trkpt><trkpt lat="45.554433" lon="10.4591762"><ele>243.79999999999998</ele><time>2026-03-29T08:06:24.708Z</time></trkpt><trkpt lat="45.5543773" lon="10.4593381"><ele>244.0</ele><time>2026-03-29T08:06:26.708Z</time></trkpt><trkpt lat="45.5543634" lon="10.4594382"><ele>243.99999999999997</ele><time>2026-03-29T08:06:27.708Z</time></trkpt><trkpt lat="45.5543566" lon="10.4595571"><ele>244.0</ele><time>2026-03-29T08:06:28.708Z</time></trkpt><trkpt lat="45.554351" lon="10.4596584"><ele>244.0</ele><time>2026-03-29T08:06:29.708Z</time></trkpt><trkpt lat="45.5543469" lon="10.4597907"><ele>244.0</ele><time>2026-03-29T08:06:31.708Z</time></trkpt><trkpt lat="45.5543443" lon="10.4599154"><ele>243.99999999999997</ele><time>2026-03-29T08:06:33.708Z</time></trkpt><trkpt lat="45.5543467" lon="10.4600637"><ele>244.0</ele><time>2026-03-29T08:06:36.708Z</time></trkpt><trkpt lat="45.5543387" lon="10.4601869"><ele>244.71428571428567</ele><time>2026-03-29T08:06:39.708Z</time></trkpt><trkpt lat="45.5543096" lon="10.4602829"><ele>245.42857142857142</ele><time>2026-03-29T08:06:43.708Z</time></trkpt><trkpt lat="45.5543661" lon="10.4602308"><ele>246.1428571428571</ele><time>2026-03-29T08:06:49.708Z</time></trkpt><trkpt lat="45.5543559" lon="10.4601039"><ele>246.85714285714283</ele><time>2026-03-29T08:06:51.708Z</time></trkpt><trkpt lat="45.5543536" lon="10.4600139"><ele>247.57142857142856</ele><time>2026-03-29T08:06:52.709Z</time></trkpt><trkpt lat="45.5543537" lon="10.4599178"><ele>248.28571428571428</ele><time>2026-03-29T08:06:53.708Z</time></trkpt><trkpt lat="45.5543567" lon="10.4598199"><ele>249.0</ele><time>2026-03-29T08:06:54.708Z</time></trkpt><trkpt lat="45.5543585" lon="10.4596432"><ele>248.0</ele><time>2026-03-29T08:06:56.708Z</time></trkpt><trkpt lat="45.554364" lon="10.4594839"><ele>246.99999999999997</ele><time>2026-03-29T08:06:58.708Z</time></trkpt><trkpt lat="45.5543477" lon="10.4593725"><ele>245.99999999999997</ele><time>2026-03-29T08:07:00.708Z</time></trkpt><trkpt lat="45.5542661" lon="10.4593881"><ele>245.0</ele><time>2026-03-29T08:07:03.708Z</time></trkpt><trkpt lat="45.5541833" lon="10.4594487"><ele>244.0</ele><time>2026-03-29T08:07:05.708Z</time></trkpt><trkpt lat="45.5540948" lon="10.4595461"><ele>243.99999999999997</ele><time>2026-03-29T08:07:07.708Z</time></trkpt><trkpt lat="45.5540404" lon="10.4596137"><ele>244.0</ele><time>2026-03-29T08:07:08.708Z</time></trkpt><trkpt lat="45.5539916" lon="10.4596728"><ele>243.99999999999997</ele><time>2026-03-29T08:07:09.708Z</time></trkpt><trkpt lat="45.5539356" lon="10.4597434"><ele>243.99999999999997</ele><time>2026-03-29T08:07:10.708Z</time></trkpt><trkpt lat="45.5538866" lon="10.4598097"><ele>244.0</ele><time>2026-03-29T08:07:11.708Z</time></trkpt><trkpt lat="45.553834" lon="10.4598788"><ele>243.99999999999997</ele><time>2026-03-29T08:07:12.708Z</time></trkpt><trkpt lat="45.5537842" lon="10.4599572"><ele>243.99999999999997</ele><time>2026-03-29T08:07:13.708Z</time></trkpt><trkpt lat="45.5537387" lon="10.46004"><ele>243.99999999999997</ele><time>2026-03-29T08:07:14.709Z</time></trkpt><trkpt lat="45.5536914" lon="10.460131"><ele>244.0</ele><time>2026-03-29T08:07:15.708Z</time></trkpt><trkpt lat="45.5536495" lon="10.4602357"><ele>244.0</ele><time>2026-03-29T08:07:16.708Z</time></trkpt><trkpt lat="45.5536056" lon="10.4603436"><ele>244.0</ele><time>2026-03-29T08:07:17.708Z</time></trkpt><trkpt lat="45.5535647" lon="10.4604377"><ele>243.99999999999997</ele><time>2026-03-29T08:07:18.708Z</time></trkpt><trkpt lat="45.5535224" lon="10.4605196"><ele>244.0</ele><time>2026-03-29T08:07:19.708Z</time></trkpt><trkpt lat="45.5534769" lon="10.4606091"><ele>243.99999999999997</ele><time>2026-03-29T08:07:20.708Z</time></trkpt><trkpt lat="45.5534273" lon="10.4606991"><ele>244.0</ele><time>2026-03-29T08:07:21.708Z</time></trkpt><trkpt lat="45.5533776" lon="10.4607729"><ele>244.0</ele><time>2026-03-29T08:07:22.708Z</time></trkpt><trkpt lat="45.5533263" lon="10.4608347"><ele>244.0</ele><time>2026-03-29T08:07:23.708Z</time></trkpt><trkpt lat="45.5532057" lon="10.4609141"><ele>243.99999999999997</ele><time>2026-03-29T08:07:25.708Z</time></trkpt><trkpt lat="45.5531399" lon="10.4609423"><ele>244.0</ele><time>2026-03-29T08:07:26.708Z</time></trkpt><trkpt lat="45.5530279" lon="10.4609725"><ele>244.0</ele><time>2026-03-29T08:07:28.708Z</time></trkpt><trkpt lat="45.5529409" lon="10.4609975"><ele>243.99999999999997</ele><time>2026-03-29T08:07:30.708Z</time></trkpt><trkpt lat="45.5528971" lon="10.4611099"><ele>243.99999999999997</ele><time>2026-03-29T08:07:33.708Z</time></trkpt><trkpt lat="45.5528917" lon="10.4612608"><ele>244.0</ele><time>2026-03-29T08:07:35.708Z</time></trkpt><trkpt lat="45.5528736" lon="10.4614162"><ele>244.0</ele><time>2026-03-29T08:07:37.708Z</time></trkpt><trkpt lat="45.5528192" lon="10.4615195"><ele>243.99999999999997</ele><time>2026-03-29T08:07:39.709Z</time></trkpt><trkpt lat="45.5527207" lon="10.461551"><ele>244.0</ele><time>2026-03-29T08:07:41.708Z</time></trkpt><trkpt lat="45.5526453" lon="10.4615526"><ele>244.0</ele><time>2026-03-29T08:07:42.708Z</time></trkpt><trkpt lat="45.5525554" lon="10.4615649"><ele>244.0</ele><time>2026-03-29T08:07:43.708Z</time></trkpt><trkpt lat="45.5524775" lon="10.4615762"><ele>243.99999999999997</ele><time>2026-03-29T08:07:44.708Z</time></trkpt><trkpt lat="45.5524116" lon="10.4615736"><ele>244.0</ele><time>2026-03-29T08:07:45.708Z</time></trkpt><trkpt lat="45.5523032" lon="10.4615102"><ele>244.0</ele><time>2026-03-29T08:07:47.708Z</time></trkpt><trkpt lat="45.5522109" lon="10.4613936"><ele>243.99999999999997</ele><time>2026-03-29T08:07:49.708Z</time></trkpt><trkpt lat="45.5521493" lon="10.4613496"><ele>243.99999999999997</ele><time>2026-03-29T08:07:50.708Z</time></trkpt><trkpt lat="45.5520839" lon="10.4613255"><ele>244.0</ele><time>2026-03-29T08:07:51.708Z</time></trkpt><trkpt lat="45.5519931" lon="10.4612459"><ele>244.0</ele><time>2026-03-29T08:07:53.708Z</time></trkpt><trkpt lat="45.5519274" lon="10.4611419"><ele>243.66666666666666</ele><time>2026-03-29T08:07:55.708Z</time></trkpt><trkpt lat="45.5518677" lon="10.4610748"><ele>243.33333333333331</ele><time>2026-03-29T08:07:56.708Z</time></trkpt><trkpt lat="45.5518006" lon="10.461033"><ele>243.0</ele><time>2026-03-29T08:07:57.708Z</time></trkpt><trkpt lat="45.5517188" lon="10.4609931"><ele>242.66666666666669</ele><time>2026-03-29T08:07:58.708Z</time></trkpt><trkpt lat="45.5516308" lon="10.4609746"><ele>242.33333333333334</ele><time>2026-03-29T08:07:59.708Z</time></trkpt><trkpt lat="45.5515422" lon="10.4609736"><ele>242.0</ele><time>2026-03-29T08:08:00.708Z</time></trkpt><trkpt lat="45.5514558" lon="10.4609866"><ele>242.00000000000003</ele><time>2026-03-29T08:08:01.708Z</time></trkpt><trkpt lat="45.5513716" lon="10.4609916"><ele>242.0</ele><time>2026-03-29T08:08:02.708Z</time></trkpt><trkpt lat="45.5512778" lon="10.4610117"><ele>242.0</ele><time>2026-03-29T08:08:03.708Z</time></trkpt><trkpt lat="45.5511844" lon="10.4610301"><ele>242.0</ele><time>2026-03-29T08:08:04.708Z</time></trkpt><trkpt lat="45.5510981" lon="10.4610458"><ele>242.00000000000003</ele><time>2026-03-29T08:08:05.708Z</time></trkpt><trkpt lat="45.5510174" lon="10.4610511"><ele>242.0</ele><time>2026-03-29T08:08:06.708Z</time></trkpt><trkpt lat="45.5509449" lon="10.4610436"><ele>241.8</ele><time>2026-03-29T08:08:07.708Z</time></trkpt><trkpt lat="45.5508811" lon="10.4610157"><ele>241.6</ele><time>2026-03-29T08:08:08.708Z</time></trkpt><trkpt lat="45.5508272" lon="10.4609673"><ele>241.40000000000003</ele><time>2026-03-29T08:08:09.708Z</time></trkpt><trkpt lat="45.55078" lon="10.4608143"><ele>241.20000000000002</ele><time>2026-03-29T08:08:11.708Z</time></trkpt><trkpt lat="45.5507607" lon="10.4606462"><ele>241.0</ele><time>2026-03-29T08:08:13.708Z</time></trkpt><trkpt lat="45.5507505" lon="10.4605083"><ele>240.60000000000002</ele><time>2026-03-29T08:08:15.708Z</time></trkpt><trkpt lat="45.5507277" lon="10.4603718"><ele>240.20000000000002</ele><time>2026-03-29T08:08:17.708Z</time></trkpt><trkpt lat="45.5506853" lon="10.4602574"><ele>239.79999999999998</ele><time>2026-03-29T08:08:19.708Z</time></trkpt><trkpt lat="45.550607" lon="10.4602152"><ele>239.39999999999998</ele><time>2026-03-29T08:08:21.708Z</time></trkpt><trkpt lat="45.5504531" lon="10.4602385"><ele>239.0</ele><time>2026-03-29T08:08:23.708Z</time></trkpt><trkpt lat="45.5503402" lon="10.4602633"><ele>239.0</ele><time>2026-03-29T08:08:24.708Z</time></trkpt><trkpt lat="45.550212" lon="10.4602911"><ele>239.0</ele><time>2026-03-29T08:08:25.708Z</time></trkpt><trkpt lat="45.5500726" lon="10.4603275"><ele>239.0</ele><time>2026-03-29T08:08:26.708Z</time></trkpt><trkpt lat="45.5499303" lon="10.4603533"><ele>239.0</ele><time>2026-03-29T08:08:27.708Z</time></trkpt><trkpt lat="45.5498012" lon="10.4603773"><ele>239.0</ele><time>2026-03-29T08:08:28.708Z</time></trkpt><trkpt lat="45.5496911" lon="10.4603944"><ele>238.99999999999997</ele><time>2026-03-29T08:08:29.708Z</time></trkpt><trkpt lat="45.5496013" lon="10.4604006"><ele>238.99999999999997</ele><time>2026-03-29T08:08:30.708Z</time></trkpt><trkpt lat="45.5495269" lon="10.4603881"><ele>239.0</ele><time>2026-03-29T08:08:31.708Z</time></trkpt><trkpt lat="45.5494361" lon="10.4603002"><ele>239.0</ele><time>2026-03-29T08:08:33.708Z</time></trkpt><trkpt lat="45.5494007" lon="10.4602171"><ele>240.0</ele><time>2026-03-29T08:08:34.709Z</time></trkpt><trkpt lat="45.5493531" lon="10.4601152"><ele>240.99999999999997</ele><time>2026-03-29T08:08:35.708Z</time></trkpt><trkpt lat="45.549279" lon="10.46001"><ele>241.99999999999997</ele><time>2026-03-29T08:08:36.708Z</time></trkpt><trkpt lat="45.549183" lon="10.4599041"><ele>243.0</ele><time>2026-03-29T08:08:37.708Z</time></trkpt><trkpt lat="45.5490819" lon="10.4597831"><ele>244.0</ele><time>2026-03-29T08:08:38.708Z</time></trkpt><trkpt lat="45.5489755" lon="10.4596561"><ele>243.75</ele><time>2026-03-29T08:08:39.708Z</time></trkpt><trkpt lat="45.5488724" lon="10.4595423"><ele>243.5</ele><time>2026-03-29T08:08:40.708Z</time></trkpt><trkpt lat="45.5487717" lon="10.4594382"><ele>243.25</ele><time>2026-03-29T08:08:41.708Z</time></trkpt><trkpt lat="45.5486701" lon="10.4593479"><ele>243.0</ele><time>2026-03-29T08:08:42.708Z</time></trkpt><trkpt lat="45.54858" lon="10.4592592"><ele>243.33333333333334</ele><time>2026-03-29T08:08:43.708Z</time></trkpt><trkpt lat="45.5485014" lon="10.4591609"><ele>243.66666666666669</ele><time>2026-03-29T08:08:44.708Z</time></trkpt><trkpt lat="45.5484243" lon="10.4590821"><ele>244.0</ele><time>2026-03-29T08:08:45.708Z</time></trkpt><trkpt lat="45.5483395" lon="10.4590457"><ele>244.33333333333334</ele><time>2026-03-29T08:08:46.708Z</time></trkpt><trkpt lat="45.5482599" lon="10.4590605"><ele>244.66666666666669</ele><time>2026-03-29T08:08:47.708Z</time></trkpt><trkpt lat="45.5481942" lon="10.4591201"><ele>245.0</ele><time>2026-03-29T08:08:48.709Z</time></trkpt><trkpt lat="45.5481556" lon="10.4592196"><ele>245.0</ele><time>2026-03-29T08:08:49.708Z</time></trkpt><trkpt lat="45.5481479" lon="10.4593416"><ele>245.0</ele><time>2026-03-29T08:08:50.708Z</time></trkpt><trkpt lat="45.5481735" lon="10.4594773"><ele>245.0</ele><time>2026-03-29T08:08:51.708Z</time></trkpt><trkpt lat="45.5482047" lon="10.4596354"><ele>245.0</ele><time>2026-03-29T08:08:52.708Z</time></trkpt><trkpt lat="45.5482053" lon="10.4598151"><ele>245.0</ele><time>2026-03-29T08:08:53.708Z</time></trkpt><trkpt lat="45.5481736" lon="10.4600107"><ele>245.0</ele><time>2026-03-29T08:08:54.708Z</time></trkpt><trkpt lat="45.5481126" lon="10.4602104"><ele>245.0</ele><time>2026-03-29T08:08:55.708Z</time></trkpt><trkpt lat="45.5480351" lon="10.460419"><ele>245.0</ele><time>2026-03-29T08:08:56.708Z</time></trkpt><trkpt lat="45.5479595" lon="10.4606412"><ele>245.0</ele><time>2026-03-29T08:08:57.708Z</time></trkpt><trkpt lat="45.5478823" lon="10.4608749"><ele>245.0</ele><time>2026-03-29T08:08:58.708Z</time></trkpt><trkpt lat="45.5478183" lon="10.4611204"><ele>245.0</ele><time>2026-03-29T08:08:59.708Z</time></trkpt><trkpt lat="45.5477744" lon="10.4613755"><ele>245.66666666666669</ele><time>2026-03-29T08:09:00.708Z</time></trkpt><trkpt lat="45.5477437" lon="10.4616363"><ele>246.33333333333331</ele><time>2026-03-29T08:09:01.708Z</time></trkpt><trkpt lat="45.5477168" lon="10.4618951"><ele>247.0</ele><time>2026-03-29T08:09:02.708Z</time></trkpt><trkpt lat="45.5476904" lon="10.4621521"><ele>248.0</ele><time>2026-03-29T08:09:03.708Z</time></trkpt><trkpt lat="45.5476677" lon="10.4623993"><ele>249.0</ele><time>2026-03-29T08:09:04.708Z</time></trkpt><trkpt lat="45.5476483" lon="10.4626311"><ele>250.0</ele><time>2026-03-29T08:09:05.709Z</time></trkpt><trkpt lat="45.547626" lon="10.4628639"><ele>251.33333333333331</ele><time>2026-03-29T08:09:06.708Z</time></trkpt><trkpt lat="45.5475977" lon="10.4631001"><ele>252.66666666666669</ele><time>2026-03-29T08:09:07.708Z</time></trkpt><trkpt lat="45.5475655" lon="10.4633494"><ele>254.0</ele><time>2026-03-29T08:09:08.708Z</time></trkpt><trkpt lat="45.5475352" lon="10.4636161"><ele>255.0</ele><time>2026-03-29T08:09:09.708Z</time></trkpt><trkpt lat="45.5475112" lon="10.4638749"><ele>256.0</ele><time>2026-03-29T08:09:10.708Z</time></trkpt><trkpt lat="45.5474896" lon="10.464109"><ele>257.0</ele><time>2026-03-29T08:09:11.708Z</time></trkpt><trkpt lat="45.5474677" lon="10.4643247"><ele>257.0</ele><time>2026-03-29T08:09:12.708Z</time></trkpt><trkpt lat="45.5474542" lon="10.4645137"><ele>257.0</ele><time>2026-03-29T08:09:13.709Z</time></trkpt><trkpt lat="45.5474346" lon="10.4646628"><ele>257.0</ele><time>2026-03-29T08:09:14.708Z</time></trkpt><trkpt lat="45.5473928" lon="10.4647595"><ele>257.0</ele><time>2026-03-29T08:09:15.708Z</time></trkpt><trkpt lat="45.5473355" lon="10.4648134"><ele>257.0</ele><time>2026-03-29T08:09:16.708Z</time></trkpt><trkpt lat="45.5472662" lon="10.46483"><ele>256.8</ele><time>2026-03-29T08:09:17.708Z</time></trkpt><trkpt lat="45.5471825" lon="10.464818"><ele>256.6</ele><time>2026-03-29T08:09:18.708Z</time></trkpt><trkpt lat="45.5470799" lon="10.4647815"><ele>256.40000000000003</ele><time>2026-03-29T08:09:19.708Z</time></trkpt><trkpt lat="45.5469619" lon="10.4647544"><ele>256.2</ele><time>2026-03-29T08:09:20.708Z</time></trkpt><trkpt lat="45.5468381" lon="10.4647445"><ele>256.0</ele><time>2026-03-29T08:09:21.708Z</time></trkpt><trkpt lat="45.5467148" lon="10.4647372"><ele>255.60000000000002</ele><time>2026-03-29T08:09:22.708Z</time></trkpt><trkpt lat="45.5466028" lon="10.4647289"><ele>255.20000000000002</ele><time>2026-03-29T08:09:23.708Z</time></trkpt><trkpt lat="45.5464944" lon="10.4647184"><ele>254.79999999999998</ele><time>2026-03-29T08:09:24.708Z</time></trkpt><trkpt lat="45.5463986" lon="10.4647091"><ele>254.39999999999998</ele><time>2026-03-29T08:09:25.708Z</time></trkpt><trkpt lat="45.5463206" lon="10.4646927"><ele>254.0</ele><time>2026-03-29T08:09:26.708Z</time></trkpt><trkpt lat="45.5462442" lon="10.4646612"><ele>253.75</ele><time>2026-03-29T08:09:27.709Z</time></trkpt><trkpt lat="45.5461564" lon="10.4646125"><ele>253.5</ele><time>2026-03-29T08:09:28.708Z</time></trkpt><trkpt lat="45.5460541" lon="10.464557"><ele>253.25</ele><time>2026-03-29T08:09:29.708Z</time></trkpt><trkpt lat="45.5459371" lon="10.4645013"><ele>253.0</ele><time>2026-03-29T08:09:30.708Z</time></trkpt><trkpt lat="45.5458041" lon="10.4644502"><ele>253.0</ele><time>2026-03-29T08:09:31.708Z</time></trkpt><trkpt lat="45.5456576" lon="10.4643971"><ele>253.0</ele><time>2026-03-29T08:09:32.708Z</time></trkpt><trkpt lat="45.5455016" lon="10.4643476"><ele>253.0</ele><time>2026-03-29T08:09:33.708Z</time></trkpt><trkpt lat="45.5453482" lon="10.4643048"><ele>252.75</ele><time>2026-03-29T08:09:34.708Z</time></trkpt><trkpt lat="45.5452093" lon="10.4642502"><ele>252.5</ele><time>2026-03-29T08:09:35.708Z</time></trkpt><trkpt lat="45.5450799" lon="10.4642"><ele>252.25</ele><time>2026-03-29T08:09:36.708Z</time></trkpt><trkpt lat="45.544959" lon="10.464155"><ele>252.0</ele><time>2026-03-29T08:09:37.708Z</time></trkpt><trkpt lat="45.5448448" lon="10.4641188"><ele>252.0</ele><time>2026-03-29T08:09:38.708Z</time></trkpt><trkpt lat="45.5447127" lon="10.4640807"><ele>252.0</ele><time>2026-03-29T08:09:39.708Z</time></trkpt><trkpt lat="45.5445677" lon="10.4640374"><ele>252.0</ele><time>2026-03-29T08:09:40.708Z</time></trkpt><trkpt lat="45.544414" lon="10.4639855"><ele>252.0</ele><time>2026-03-29T08:09:41.708Z</time></trkpt><trkpt lat="45.5442713" lon="10.4639345"><ele>252.0</ele><time>2026-03-29T08:09:42.708Z</time></trkpt><trkpt lat="45.5441376" lon="10.4638926"><ele>252.0</ele><time>2026-03-29T08:09:43.708Z</time></trkpt><trkpt lat="45.5440173" lon="10.4638571"><ele>252.0</ele><time>2026-03-29T08:09:44.708Z</time></trkpt><trkpt lat="45.5439132" lon="10.4638299"><ele>252.0</ele><time>2026-03-29T08:09:45.708Z</time></trkpt><trkpt lat="45.5438249" lon="10.4638248"><ele>252.0</ele><time>2026-03-29T08:09:46.708Z</time></trkpt><trkpt lat="45.543754" lon="10.4638203"><ele>252.0</ele><time>2026-03-29T08:09:47.708Z</time></trkpt><trkpt lat="45.5436762" lon="10.4637379"><ele>252.0</ele><time>2026-03-29T08:09:49.708Z</time></trkpt><trkpt lat="45.5436487" lon="10.4636553"><ele>252.0</ele><time>2026-03-29T08:09:50.708Z</time></trkpt><trkpt lat="45.543629" lon="10.4635437"><ele>252.0</ele><time>2026-03-29T08:09:51.708Z</time></trkpt><trkpt lat="45.5436039" lon="10.4634029"><ele>252.0</ele><time>2026-03-29T08:09:52.708Z</time></trkpt><trkpt lat="45.5435685" lon="10.463225"><ele>252.25</ele><time>2026-03-29T08:09:53.708Z</time></trkpt><trkpt lat="45.5435368" lon="10.4630429"><ele>252.5</ele><time>2026-03-29T08:09:54.709Z</time></trkpt><trkpt lat="45.5434948" lon="10.4628857"><ele>252.75</ele><time>2026-03-29T08:09:55.708Z</time></trkpt><trkpt lat="45.5434551" lon="10.4627355"><ele>253.0</ele><time>2026-03-29T08:09:56.708Z</time></trkpt><trkpt lat="45.5434244" lon="10.4625783"><ele>253.0</ele><time>2026-03-29T08:09:57.708Z</time></trkpt><trkpt lat="45.543401" lon="10.4624093"><ele>253.0</ele><time>2026-03-29T08:09:58.708Z</time></trkpt><trkpt lat="45.5433869" lon="10.4622286"><ele>253.0</ele><time>2026-03-29T08:09:59.708Z</time></trkpt><trkpt lat="45.5433804" lon="10.4620462"><ele>253.0</ele><time>2026-03-29T08:10:00.708Z</time></trkpt><trkpt lat="45.5433802" lon="10.461873"><ele>253.25</ele><time>2026-03-29T08:10:01.709Z</time></trkpt><trkpt lat="45.5433708" lon="10.461717"><ele>253.5</ele><time>2026-03-29T08:10:02.708Z</time></trkpt><trkpt lat="45.5433441" lon="10.4615724"><ele>253.75</ele><time>2026-03-29T08:10:03.708Z</time></trkpt><trkpt lat="45.5432984" lon="10.4614033"><ele>254.0</ele><time>2026-03-29T08:10:04.708Z</time></trkpt><trkpt lat="45.54325" lon="10.4612258"><ele>254.2</ele><time>2026-03-29T08:10:05.708Z</time></trkpt><trkpt lat="45.5432045" lon="10.4610483"><ele>254.39999999999998</ele><time>2026-03-29T08:10:06.708Z</time></trkpt><trkpt lat="45.5431596" lon="10.4608959"><ele>254.6</ele><time>2026-03-29T08:10:07.708Z</time></trkpt><trkpt lat="45.5431206" lon="10.4607638"><ele>254.8</ele><time>2026-03-29T08:10:08.708Z</time></trkpt><trkpt lat="45.5431017" lon="10.4606463"><ele>255.0</ele><time>2026-03-29T08:10:09.708Z</time></trkpt><trkpt lat="45.5431059" lon="10.4605384"><ele>255.2</ele><time>2026-03-29T08:10:10.708Z</time></trkpt><trkpt lat="45.5431159" lon="10.460423"><ele>255.4</ele><time>2026-03-29T08:10:11.708Z</time></trkpt><trkpt lat="45.543121" lon="10.4603082"><ele>255.60000000000002</ele><time>2026-03-29T08:10:12.708Z</time></trkpt><trkpt lat="45.543104" lon="10.4601956"><ele>255.8</ele><time>2026-03-29T08:10:13.708Z</time></trkpt><trkpt lat="45.5430835" lon="10.4600456"><ele>256.0</ele><time>2026-03-29T08:10:14.708Z</time></trkpt><trkpt lat="45.5430238" lon="10.4598554"><ele>256.0</ele><time>2026-03-29T08:10:15.708Z</time></trkpt><trkpt lat="45.5429698" lon="10.4597022"><ele>256.0</ele><time>2026-03-29T08:10:16.708Z</time></trkpt><trkpt lat="45.5429271" lon="10.4595421"><ele>256.0</ele><time>2026-03-29T08:10:17.708Z</time></trkpt><trkpt lat="45.542897" lon="10.4593884"><ele>256.0</ele><time>2026-03-29T08:10:18.708Z</time></trkpt><trkpt lat="45.5428863" lon="10.4592375"><ele>256.2</ele><time>2026-03-29T08:10:19.709Z</time></trkpt><trkpt lat="45.5428747" lon="10.4591009"><ele>256.40000000000003</ele><time>2026-03-29T08:10:20.708Z</time></trkpt><trkpt lat="45.5428878" lon="10.4589934"><ele>256.6</ele><time>2026-03-29T08:10:21.708Z</time></trkpt><trkpt lat="45.5428953" lon="10.4588919"><ele>256.8</ele><time>2026-03-29T08:10:22.708Z</time></trkpt><trkpt lat="45.5429594" lon="10.458803"><ele>257.0</ele><time>2026-03-29T08:10:24.708Z</time></trkpt><trkpt lat="45.543104" lon="10.4588177"><ele>256.5</ele><time>2026-03-29T08:10:26.708Z</time></trkpt><trkpt lat="45.5431834" lon="10.4588299"><ele>256.0</ele><time>2026-03-29T08:10:27.708Z</time></trkpt><trkpt lat="45.5432461" lon="10.458816"><ele>255.5</ele><time>2026-03-29T08:10:28.708Z</time></trkpt><trkpt lat="45.5433032" lon="10.4587342"><ele>255.0</ele><time>2026-03-29T08:10:30.708Z</time></trkpt><trkpt lat="45.5433127" lon="10.4585606"><ele>254.50000000000003</ele><time>2026-03-29T08:10:32.708Z</time></trkpt><trkpt lat="45.5433045" lon="10.458434"><ele>254.0</ele><time>2026-03-29T08:10:33.708Z</time></trkpt><trkpt lat="45.543292" lon="10.4582915"><ele>253.25</ele><time>2026-03-29T08:10:34.708Z</time></trkpt><trkpt lat="45.5432769" lon="10.4581377"><ele>252.5</ele><time>2026-03-29T08:10:35.708Z</time></trkpt><trkpt lat="45.5432631" lon="10.4579489"><ele>251.75</ele><time>2026-03-29T08:10:36.708Z</time></trkpt><trkpt lat="45.5432492" lon="10.4577745"><ele>251.0</ele><time>2026-03-29T08:10:37.708Z</time></trkpt><trkpt lat="45.5432452" lon="10.4576288"><ele>250.5</ele><time>2026-03-29T08:10:38.708Z</time></trkpt><trkpt lat="45.5432574" lon="10.4575004"><ele>250.0</ele><time>2026-03-29T08:10:39.709Z</time></trkpt><trkpt lat="45.543289" lon="10.4573545"><ele>249.5</ele><time>2026-03-29T08:10:40.708Z</time></trkpt><trkpt lat="45.5433436" lon="10.4571885"><ele>249.0</ele><time>2026-03-29T08:10:41.708Z</time></trkpt><trkpt lat="45.5434038" lon="10.457014"><ele>248.5</ele><time>2026-03-29T08:10:42.708Z</time></trkpt><trkpt lat="45.5434597" lon="10.4568497"><ele>248.0</ele><time>2026-03-29T08:10:43.708Z</time></trkpt><trkpt lat="45.5435077" lon="10.4566698"><ele>247.5</ele><time>2026-03-29T08:10:44.708Z</time></trkpt><trkpt lat="45.5435389" lon="10.4564832"><ele>247.0</ele><time>2026-03-29T08:10:45.708Z</time></trkpt><trkpt lat="45.5435598" lon="10.4562791"><ele>247.0</ele><time>2026-03-29T08:10:46.708Z</time></trkpt><trkpt lat="45.5435679" lon="10.4560415"><ele>247.0</ele><time>2026-03-29T08:10:47.708Z</time></trkpt><trkpt lat="45.5435755" lon="10.4558035"><ele>247.0</ele><time>2026-03-29T08:10:48.708Z</time></trkpt><trkpt lat="45.5435835" lon="10.4555847"><ele>246.25</ele><time>2026-03-29T08:10:49.708Z</time></trkpt><trkpt lat="45.5435969" lon="10.4553823"><ele>245.5</ele><time>2026-03-29T08:10:50.708Z</time></trkpt><trkpt lat="45.5436077" lon="10.4551961"><ele>244.75</ele><time>2026-03-29T08:10:51.708Z</time></trkpt><trkpt lat="45.54361" lon="10.4550224"><ele>244.0</ele><time>2026-03-29T08:10:52.708Z</time></trkpt><trkpt lat="45.5436182" lon="10.4548568"><ele>244.0</ele><time>2026-03-29T08:10:53.708Z</time></trkpt><trkpt lat="45.5436382" lon="10.4547055"><ele>243.99999999999997</ele><time>2026-03-29T08:10:54.708Z</time></trkpt><trkpt lat="45.5436505" lon="10.4545657"><ele>243.99999999999997</ele><time>2026-03-29T08:10:55.708Z</time></trkpt><trkpt lat="45.5436469" lon="10.4544317"><ele>244.0</ele><time>2026-03-29T08:10:56.708Z</time></trkpt><trkpt lat="45.5436274" lon="10.4542727"><ele>244.0</ele><time>2026-03-29T08:10:57.708Z</time></trkpt><trkpt lat="45.5435875" lon="10.4540948"><ele>243.2</ele><time>2026-03-29T08:10:58.708Z</time></trkpt><trkpt lat="45.5435548" lon="10.4539278"><ele>242.39999999999998</ele><time>2026-03-29T08:10:59.708Z</time></trkpt><trkpt lat="45.5435421" lon="10.4537724"><ele>241.6</ele><time>2026-03-29T08:11:00.709Z</time></trkpt><trkpt lat="45.5435162" lon="10.4536497"><ele>240.8</ele><time>2026-03-29T08:11:01.708Z</time></trkpt><trkpt lat="45.5434845" lon="10.4535692"><ele>240.0</ele><time>2026-03-29T08:11:02.708Z</time></trkpt><trkpt lat="45.543373" lon="10.4534678"><ele>240.0</ele><time>2026-03-29T08:11:04.708Z</time></trkpt><trkpt lat="45.5432981" lon="10.453381"><ele>240.0</ele><time>2026-03-29T08:11:05.708Z</time></trkpt><trkpt lat="45.5432266" lon="10.4532784"><ele>240.0</ele><time>2026-03-29T08:11:06.708Z</time></trkpt><trkpt lat="45.543163" lon="10.4531852"><ele>240.0</ele><time>2026-03-29T08:11:07.709Z</time></trkpt><trkpt lat="45.5431101" lon="10.4530893"><ele>240.0</ele><time>2026-03-29T08:11:08.708Z</time></trkpt><trkpt lat="45.5430648" lon="10.4529839"><ele>240.0</ele><time>2026-03-29T08:11:09.708Z</time></trkpt><trkpt lat="45.5430242" lon="10.4528632"><ele>240.0</ele><time>2026-03-29T08:11:10.708Z</time></trkpt><trkpt lat="45.5429894" lon="10.4527415"><ele>240.0</ele><time>2026-03-29T08:11:11.708Z</time></trkpt><trkpt lat="45.5429647" lon="10.4526263"><ele>240.0</ele><time>2026-03-29T08:11:12.708Z</time></trkpt><trkpt lat="45.5429564" lon="10.4525202"><ele>240.0</ele><time>2026-03-29T08:11:13.708Z</time></trkpt><trkpt lat="45.5429627" lon="10.4524301"><ele>240.0</ele><time>2026-03-29T08:11:14.708Z</time></trkpt><trkpt lat="45.5429855" lon="10.452332"><ele>240.0</ele><time>2026-03-29T08:11:15.708Z</time></trkpt><trkpt lat="45.5430333" lon="10.4522365"><ele>240.0</ele><time>2026-03-29T08:11:16.709Z</time></trkpt><trkpt lat="45.5431084" lon="10.4521266"><ele>240.0</ele><time>2026-03-29T08:11:17.709Z</time></trkpt><trkpt lat="45.5431696" lon="10.452035"><ele>240.0</ele><time>2026-03-29T08:11:18.708Z</time></trkpt><trkpt lat="45.5432184" lon="10.4519588"><ele>240.0</ele><time>2026-03-29T08:11:19.708Z</time></trkpt><trkpt lat="45.5432592" lon="10.4517818"><ele>239.4</ele><time>2026-03-29T08:11:21.708Z</time></trkpt><trkpt lat="45.5432489" lon="10.4516808"><ele>238.8</ele><time>2026-03-29T08:11:22.708Z</time></trkpt><trkpt lat="45.5432293" lon="10.4515341"><ele>238.2</ele><time>2026-03-29T08:11:23.708Z</time></trkpt><trkpt lat="45.5432097" lon="10.451377"><ele>237.6</ele><time>2026-03-29T08:11:24.708Z</time></trkpt><trkpt lat="45.543192" lon="10.4512391"><ele>237.0</ele><time>2026-03-29T08:11:25.708Z</time></trkpt><trkpt lat="45.5431811" lon="10.4511099"><ele>237.0</ele><time>2026-03-29T08:11:26.708Z</time></trkpt><trkpt lat="45.5431732" lon="10.4510054"><ele>237.0</ele><time>2026-03-29T08:11:27.708Z</time></trkpt><trkpt lat="45.5431697" lon="10.4509142"><ele>237.0</ele><time>2026-03-29T08:11:28.708Z</time></trkpt><trkpt lat="45.5431686" lon="10.4507489"><ele>237.0</ele><time>2026-03-29T08:11:30.708Z</time></trkpt><trkpt lat="45.5431724" lon="10.4505617"><ele>237.0</ele><time>2026-03-29T08:11:32.708Z</time></trkpt><trkpt lat="45.543181" lon="10.4504651"><ele>236.8</ele><time>2026-03-29T08:11:33.708Z</time></trkpt><trkpt lat="45.5431986" lon="10.4503055"><ele>236.6</ele><time>2026-03-29T08:11:35.708Z</time></trkpt><trkpt lat="45.5432152" lon="10.4501247"><ele>236.40000000000003</ele><time>2026-03-29T08:11:37.708Z</time></trkpt><trkpt lat="45.5432209" lon="10.4500238"><ele>236.20000000000002</ele><time>2026-03-29T08:11:38.708Z</time></trkpt><trkpt lat="45.5432305" lon="10.4499302"><ele>236.0</ele><time>2026-03-29T08:11:39.708Z</time></trkpt><trkpt lat="45.5432613" lon="10.4497663"><ele>235.60000000000002</ele><time>2026-03-29T08:11:41.708Z</time></trkpt><trkpt lat="45.5432885" lon="10.4496205"><ele>235.20000000000002</ele><time>2026-03-29T08:11:43.708Z</time></trkpt><trkpt lat="45.5433271" lon="10.4494936"><ele>234.79999999999998</ele><time>2026-03-29T08:11:45.708Z</time></trkpt><trkpt lat="45.543371" lon="10.4493931"><ele>234.39999999999998</ele><time>2026-03-29T08:11:47.708Z</time></trkpt><trkpt lat="45.5433995" lon="10.4492658"><ele>234.0</ele><time>2026-03-29T08:11:49.708Z</time></trkpt><trkpt lat="45.5434396" lon="10.4491386"><ele>234.0</ele><time>2026-03-29T08:11:51.708Z</time></trkpt><trkpt lat="45.5435132" lon="10.4489882"><ele>233.99999999999997</ele><time>2026-03-29T08:11:53.708Z</time></trkpt><trkpt lat="45.5435507" lon="10.4488383"><ele>233.99999999999997</ele><time>2026-03-29T08:11:55.708Z</time></trkpt><trkpt lat="45.5435034" lon="10.4486665"><ele>234.0</ele><time>2026-03-29T08:11:57.708Z</time></trkpt><trkpt lat="45.5434654" lon="10.4485674"><ele>234.0</ele><time>2026-03-29T08:11:58.708Z</time></trkpt><trkpt lat="45.5433927" lon="10.4484358"><ele>233.39999999999998</ele><time>2026-03-29T08:11:59.708Z</time></trkpt><trkpt lat="45.5433294" lon="10.4483277"><ele>232.79999999999998</ele><time>2026-03-29T08:12:00.708Z</time></trkpt><trkpt lat="45.5432674" lon="10.4482274"><ele>232.20000000000002</ele><time>2026-03-29T08:12:01.708Z</time></trkpt><trkpt lat="45.5432081" lon="10.4481409"><ele>231.60000000000002</ele><time>2026-03-29T08:12:02.708Z</time></trkpt><trkpt lat="45.5431465" lon="10.4480519"><ele>231.0</ele><time>2026-03-29T08:12:03.708Z</time></trkpt><trkpt lat="45.5430615" lon="10.4479863"><ele>230.0</ele><time>2026-03-29T08:12:04.708Z</time></trkpt><trkpt lat="45.5429834" lon="10.4478437"><ele>229.0</ele><time>2026-03-29T08:12:06.708Z</time></trkpt><trkpt lat="45.5429391" lon="10.4476868"><ele>228.0</ele><time>2026-03-29T08:12:08.708Z</time></trkpt><trkpt lat="45.542944" lon="10.4475716"><ele>227.0</ele><time>2026-03-29T08:12:10.708Z</time></trkpt><trkpt lat="45.5430119" lon="10.4473972"><ele>227.00000000000003</ele><time>2026-03-29T08:12:12.708Z</time></trkpt><trkpt lat="45.5430866" lon="10.4472966"><ele>227.0</ele><time>2026-03-29T08:12:13.708Z</time></trkpt><trkpt lat="45.5431474" lon="10.4471945"><ele>227.0</ele><time>2026-03-29T08:12:14.708Z</time></trkpt><trkpt lat="45.5432054" lon="10.4471135"><ele>227.0</ele><time>2026-03-29T08:12:15.708Z</time></trkpt><trkpt lat="45.543272" lon="10.4470429"><ele>227.00000000000003</ele><time>2026-03-29T08:12:16.708Z</time></trkpt><trkpt lat="45.5433361" lon="10.4469675"><ele>227.0</ele><time>2026-03-29T08:12:17.708Z</time></trkpt><trkpt lat="45.5433916" lon="10.4468868"><ele>227.00000000000003</ele><time>2026-03-29T08:12:18.708Z</time></trkpt><trkpt lat="45.5434585" lon="10.446775"><ele>227.0</ele><time>2026-03-29T08:12:19.708Z</time></trkpt><trkpt lat="45.54351" lon="10.4466767"><ele>227.0</ele><time>2026-03-29T08:12:20.708Z</time></trkpt><trkpt lat="45.5435464" lon="10.446596"><ele>227.0</ele><time>2026-03-29T08:12:21.708Z</time></trkpt><trkpt lat="45.5436032" lon="10.4464889"><ele>227.00000000000003</ele><time>2026-03-29T08:12:23.708Z</time></trkpt><trkpt lat="45.5436369" lon="10.4463645"><ele>227.0</ele><time>2026-03-29T08:12:35.708Z</time></trkpt><trkpt lat="45.5436122" lon="10.446273"><ele>227.39999999999998</ele><time>2026-03-29T08:12:36.708Z</time></trkpt><trkpt lat="45.54357" lon="10.4461687"><ele>227.79999999999998</ele><time>2026-03-29T08:12:37.708Z</time></trkpt><trkpt lat="45.5435255" lon="10.4460499"><ele>228.2</ele><time>2026-03-29T08:12:38.709Z</time></trkpt><trkpt lat="45.5434748" lon="10.4459218"><ele>228.6</ele><time>2026-03-29T08:12:39.709Z</time></trkpt><trkpt lat="45.5434194" lon="10.4457872"><ele>229.0</ele><time>2026-03-29T08:12:40.708Z</time></trkpt><trkpt lat="45.54336" lon="10.4456435"><ele>229.0</ele><time>2026-03-29T08:12:41.708Z</time></trkpt><trkpt lat="45.5432903" lon="10.4454838"><ele>229.0</ele><time>2026-03-29T08:12:42.708Z</time></trkpt><trkpt lat="45.5432175" lon="10.4453182"><ele>229.0</ele><time>2026-03-29T08:12:43.708Z</time></trkpt><trkpt lat="45.5431431" lon="10.4451408"><ele>229.0</ele><time>2026-03-29T08:12:44.708Z</time></trkpt><trkpt lat="45.543064" lon="10.4449503"><ele>229.66666666666666</ele><time>2026-03-29T08:12:45.708Z</time></trkpt><trkpt lat="45.5429808" lon="10.444752"><ele>230.33333333333331</ele><time>2026-03-29T08:12:46.708Z</time></trkpt><trkpt lat="45.5428939" lon="10.4445487"><ele>231.0</ele><time>2026-03-29T08:12:47.708Z</time></trkpt><trkpt lat="45.5428111" lon="10.4443547"><ele>229.75</ele><time>2026-03-29T08:12:48.708Z</time></trkpt><trkpt lat="45.5427322" lon="10.444174"><ele>228.5</ele><time>2026-03-29T08:12:49.708Z</time></trkpt><trkpt lat="45.5426471" lon="10.4440115"><ele>227.25</ele><time>2026-03-29T08:12:50.708Z</time></trkpt><trkpt lat="45.5425477" lon="10.4438716"><ele>226.0</ele><time>2026-03-29T08:12:51.708Z</time></trkpt><trkpt lat="45.5424393" lon="10.443758"><ele>223.5</ele><time>2026-03-29T08:12:52.708Z</time></trkpt><trkpt lat="45.5423225" lon="10.4436683"><ele>221.0</ele><time>2026-03-29T08:12:53.708Z</time></trkpt><trkpt lat="45.5421995" lon="10.4436005"><ele>218.5</ele><time>2026-03-29T08:12:54.708Z</time></trkpt><trkpt lat="45.5420899" lon="10.4435572"><ele>216.0</ele><time>2026-03-29T08:12:55.708Z</time></trkpt><trkpt lat="45.5419924" lon="10.4435196"><ele>216.0</ele><time>2026-03-29T08:12:56.708Z</time></trkpt><trkpt lat="45.5419194" lon="10.4434913"><ele>216.00000000000003</ele><time>2026-03-29T08:12:57.708Z</time></trkpt><trkpt lat="45.541818" lon="10.4434935"><ele>216.00000000000003</ele><time>2026-03-29T08:12:59.708Z</time></trkpt><trkpt lat="45.5417589" lon="10.4436374"><ele>216.0</ele><time>2026-03-29T08:13:01.708Z</time></trkpt><trkpt lat="45.5417317" lon="10.4437562"><ele>216.0</ele><time>2026-03-29T08:13:02.708Z</time></trkpt><trkpt lat="45.5416964" lon="10.4438942"><ele>217.75</ele><time>2026-03-29T08:13:03.709Z</time></trkpt><trkpt lat="45.5416567" lon="10.4440451"><ele>219.5</ele><time>2026-03-29T08:13:04.708Z</time></trkpt><trkpt lat="45.5416138" lon="10.4442083"><ele>221.25</ele><time>2026-03-29T08:13:05.708Z</time></trkpt><trkpt lat="45.5415675" lon="10.4443711"><ele>223.0</ele><time>2026-03-29T08:13:06.708Z</time></trkpt><trkpt lat="45.5415195" lon="10.4445339"><ele>223.4</ele><time>2026-03-29T08:13:07.709Z</time></trkpt><trkpt lat="45.5414746" lon="10.4446953"><ele>223.8</ele><time>2026-03-29T08:13:08.708Z</time></trkpt><trkpt lat="45.5414326" lon="10.4448468"><ele>224.2</ele><time>2026-03-29T08:13:09.708Z</time></trkpt><trkpt lat="45.5413941" lon="10.4449852"><ele>224.6</ele><time>2026-03-29T08:13:10.708Z</time></trkpt><trkpt lat="45.5413559" lon="10.4451224"><ele>225.0</ele><time>2026-03-29T08:13:11.708Z</time></trkpt><trkpt lat="45.5413182" lon="10.4452595"><ele>225.0</ele><time>2026-03-29T08:13:12.708Z</time></trkpt><trkpt lat="45.5412828" lon="10.4453861"><ele>225.0</ele><time>2026-03-29T08:13:13.708Z</time></trkpt><trkpt lat="45.5412483" lon="10.4455011"><ele>225.0</ele><time>2026-03-29T08:13:14.708Z</time></trkpt><trkpt lat="45.5412023" lon="10.4455893"><ele>225.0</ele><time>2026-03-29T08:13:15.708Z</time></trkpt><trkpt lat="45.5411403" lon="10.4456659"><ele>225.0</ele><time>2026-03-29T08:13:16.708Z</time></trkpt><trkpt lat="45.5410338" lon="10.4457045"><ele>224.75</ele><time>2026-03-29T08:13:17.708Z</time></trkpt><trkpt lat="45.5409317" lon="10.4457014"><ele>224.5</ele><time>2026-03-29T08:13:18.708Z</time></trkpt><trkpt lat="45.5408243" lon="10.4456719"><ele>224.25</ele><time>2026-03-29T08:13:19.708Z</time></trkpt><trkpt lat="45.5407093" lon="10.4456469"><ele>224.0</ele><time>2026-03-29T08:13:20.708Z</time></trkpt><trkpt lat="45.5405851" lon="10.4456139"><ele>224.0</ele><time>2026-03-29T08:13:21.708Z</time></trkpt><trkpt lat="45.5404583" lon="10.4455737"><ele>224.0</ele><time>2026-03-29T08:13:22.708Z</time></trkpt><trkpt lat="45.5403323" lon="10.4455299"><ele>224.0</ele><time>2026-03-29T08:13:23.708Z</time></trkpt><trkpt lat="45.540217" lon="10.4454888"><ele>224.0</ele><time>2026-03-29T08:13:24.708Z</time></trkpt><trkpt lat="45.5401068" lon="10.4454484"><ele>223.39999999999998</ele><time>2026-03-29T08:13:25.708Z</time></trkpt><trkpt lat="45.5399992" lon="10.4454123"><ele>222.79999999999998</ele><time>2026-03-29T08:13:26.708Z</time></trkpt><trkpt lat="45.5398933" lon="10.4453851"><ele>222.20000000000002</ele><time>2026-03-29T08:13:27.708Z</time></trkpt><trkpt lat="45.5397907" lon="10.4453481"><ele>221.60000000000002</ele><time>2026-03-29T08:13:28.708Z</time></trkpt><trkpt lat="45.5396837" lon="10.4453015"><ele>221.0</ele><time>2026-03-29T08:13:29.708Z</time></trkpt><trkpt lat="45.539573" lon="10.4452571"><ele>220.60000000000002</ele><time>2026-03-29T08:13:30.708Z</time></trkpt><trkpt lat="45.5394612" lon="10.4452207"><ele>220.20000000000002</ele><time>2026-03-29T08:13:31.708Z</time></trkpt><trkpt lat="45.5393662" lon="10.4451834"><ele>219.79999999999998</ele><time>2026-03-29T08:13:32.708Z</time></trkpt><trkpt lat="45.5392815" lon="10.4451491"><ele>219.39999999999998</ele><time>2026-03-29T08:13:33.708Z</time></trkpt><trkpt lat="45.5392036" lon="10.445118"><ele>219.0</ele><time>2026-03-29T08:13:34.708Z</time></trkpt><trkpt lat="45.5391286" lon="10.4450906"><ele>219.0</ele><time>2026-03-29T08:13:35.708Z</time></trkpt><trkpt lat="45.5390216" lon="10.4450201"><ele>218.99999999999997</ele><time>2026-03-29T08:13:37.708Z</time></trkpt><trkpt lat="45.5389564" lon="10.4449611"><ele>218.99999999999997</ele><time>2026-03-29T08:13:38.708Z</time></trkpt><trkpt lat="45.5388621" lon="10.4449382"><ele>219.0</ele><time>2026-03-29T08:13:39.708Z</time></trkpt><trkpt lat="45.538763" lon="10.4449421"><ele>219.0</ele><time>2026-03-29T08:13:40.708Z</time></trkpt><trkpt lat="45.5386544" lon="10.4449339"><ele>219.39999999999998</ele><time>2026-03-29T08:13:41.708Z</time></trkpt><trkpt lat="45.5385535" lon="10.4449045"><ele>219.79999999999998</ele><time>2026-03-29T08:13:42.708Z</time></trkpt><trkpt lat="45.5384562" lon="10.4448717"><ele>220.20000000000002</ele><time>2026-03-29T08:13:43.708Z</time></trkpt><trkpt lat="45.5383513" lon="10.4448373"><ele>220.60000000000002</ele><time>2026-03-29T08:13:44.708Z</time></trkpt><trkpt lat="45.5382456" lon="10.4447961"><ele>221.0</ele><time>2026-03-29T08:13:45.708Z</time></trkpt><trkpt lat="45.5381364" lon="10.444755"><ele>221.0</ele><time>2026-03-29T08:13:46.708Z</time></trkpt><trkpt lat="45.5380176" lon="10.444712"><ele>221.0</ele><time>2026-03-29T08:13:47.708Z</time></trkpt><trkpt lat="45.5378964" lon="10.44467"><ele>221.0</ele><time>2026-03-29T08:13:48.708Z</time></trkpt><trkpt lat="45.5377784" lon="10.4446232"><ele>221.0</ele><time>2026-03-29T08:13:49.708Z</time></trkpt><trkpt lat="45.5376621" lon="10.4445727"><ele>220.25</ele><time>2026-03-29T08:13:50.708Z</time></trkpt><trkpt lat="45.5375398" lon="10.444528"><ele>219.5</ele><time>2026-03-29T08:13:51.708Z</time></trkpt><trkpt lat="45.5374129" lon="10.4444863"><ele>218.75</ele><time>2026-03-29T08:13:52.708Z</time></trkpt><trkpt lat="45.5372832" lon="10.4444396"><ele>218.0</ele><time>2026-03-29T08:13:53.708Z</time></trkpt><trkpt lat="45.5371501" lon="10.4443949"><ele>217.5</ele><time>2026-03-29T08:13:54.708Z</time></trkpt><trkpt lat="45.5370133" lon="10.444357"><ele>217.0</ele><time>2026-03-29T08:13:55.708Z</time></trkpt><trkpt lat="45.5368745" lon="10.4443348"><ele>216.5</ele><time>2026-03-29T08:13:56.708Z</time></trkpt><trkpt lat="45.5367396" lon="10.4443216"><ele>216.0</ele><time>2026-03-29T08:13:57.708Z</time></trkpt><trkpt lat="45.5366034" lon="10.4443184"><ele>216.0</ele><time>2026-03-29T08:13:58.708Z</time></trkpt><trkpt lat="45.5364605" lon="10.4443239"><ele>216.0</ele><time>2026-03-29T08:13:59.708Z</time></trkpt><trkpt lat="45.5363155" lon="10.4443325"><ele>216.0</ele><time>2026-03-29T08:14:00.708Z</time></trkpt><trkpt lat="45.5361657" lon="10.4443443"><ele>216.0</ele><time>2026-03-29T08:14:01.708Z</time></trkpt><trkpt lat="45.5360158" lon="10.4443528"><ele>215.0</ele><time>2026-03-29T08:14:02.708Z</time></trkpt><trkpt lat="45.5358688" lon="10.4443618"><ele>214.0</ele><time>2026-03-29T08:14:03.708Z</time></trkpt><trkpt lat="45.5357295" lon="10.4443686"><ele>213.0</ele><time>2026-03-29T08:14:04.708Z</time></trkpt><trkpt lat="45.5355895" lon="10.4443779"><ele>212.0</ele><time>2026-03-29T08:14:05.708Z</time></trkpt><trkpt lat="45.5354553" lon="10.4443779"><ele>211.75</ele><time>2026-03-29T08:14:06.708Z</time></trkpt><trkpt lat="45.5353184" lon="10.444365"><ele>211.5</ele><time>2026-03-29T08:14:07.708Z</time></trkpt><trkpt lat="45.5351764" lon="10.4443379"><ele>211.25</ele><time>2026-03-29T08:14:08.708Z</time></trkpt><trkpt lat="45.5350394" lon="10.4442931"><ele>211.0</ele><time>2026-03-29T08:14:09.708Z</time></trkpt><trkpt lat="45.534907" lon="10.4442328"><ele>211.0</ele><time>2026-03-29T08:14:10.708Z</time></trkpt><trkpt lat="45.5347832" lon="10.4441665"><ele>211.0</ele><time>2026-03-29T08:14:11.708Z</time></trkpt><trkpt lat="45.5346716" lon="10.4441044"><ele>211.0</ele><time>2026-03-29T08:14:12.708Z</time></trkpt><trkpt lat="45.534569" lon="10.4440447"><ele>211.0</ele><time>2026-03-29T08:14:13.708Z</time></trkpt><trkpt lat="45.5344672" lon="10.4439961"><ele>211.0</ele><time>2026-03-29T08:14:14.709Z</time></trkpt><trkpt lat="45.5343668" lon="10.4439602"><ele>211.0</ele><time>2026-03-29T08:14:15.708Z</time></trkpt><trkpt lat="45.5342634" lon="10.4439326"><ele>211.0</ele><time>2026-03-29T08:14:16.708Z</time></trkpt><trkpt lat="45.5341576" lon="10.4439126"><ele>211.0</ele><time>2026-03-29T08:14:17.708Z</time></trkpt><trkpt lat="45.5340491" lon="10.4439004"><ele>211.0</ele><time>2026-03-29T08:14:18.709Z</time></trkpt><trkpt lat="45.5339394" lon="10.4438922"><ele>211.0</ele><time>2026-03-29T08:14:19.708Z</time></trkpt><trkpt lat="45.5338273" lon="10.4438857"><ele>211.0</ele><time>2026-03-29T08:14:20.708Z</time></trkpt><trkpt lat="45.5337147" lon="10.4438832"><ele>211.0</ele><time>2026-03-29T08:14:21.708Z</time></trkpt><trkpt lat="45.5336025" lon="10.4438788"><ele>211.0</ele><time>2026-03-29T08:14:22.708Z</time></trkpt><trkpt lat="45.5334926" lon="10.4438673"><ele>211.0</ele><time>2026-03-29T08:14:23.708Z</time></trkpt><trkpt lat="45.5333906" lon="10.4438587"><ele>210.8</ele><time>2026-03-29T08:14:24.708Z</time></trkpt><trkpt lat="45.5332946" lon="10.4438547"><ele>210.60000000000002</ele><time>2026-03-29T08:14:25.708Z</time></trkpt><trkpt lat="45.5332032" lon="10.4438529"><ele>210.4</ele><time>2026-03-29T08:14:26.708Z</time></trkpt><trkpt lat="45.5331127" lon="10.4438484"><ele>210.2</ele><time>2026-03-29T08:14:27.708Z</time></trkpt><trkpt lat="45.5330157" lon="10.4438418"><ele>210.0</ele><time>2026-03-29T08:14:28.708Z</time></trkpt><trkpt lat="45.5329132" lon="10.4438375"><ele>210.25</ele><time>2026-03-29T08:14:29.708Z</time></trkpt><trkpt lat="45.5328061" lon="10.4438359"><ele>210.5</ele><time>2026-03-29T08:14:30.708Z</time></trkpt><trkpt lat="45.5326942" lon="10.4438258"><ele>210.75</ele><time>2026-03-29T08:14:31.708Z</time></trkpt><trkpt lat="45.5325789" lon="10.4438153"><ele>211.0</ele><time>2026-03-29T08:14:32.708Z</time></trkpt><trkpt lat="45.5324571" lon="10.4437983"><ele>210.5</ele><time>2026-03-29T08:14:33.708Z</time></trkpt><trkpt lat="45.5323294" lon="10.4437719"><ele>210.0</ele><time>2026-03-29T08:14:34.708Z</time></trkpt><trkpt lat="45.5321996" lon="10.4437512"><ele>209.5</ele><time>2026-03-29T08:14:35.708Z</time></trkpt><trkpt lat="45.5320798" lon="10.443731"><ele>209.0</ele><time>2026-03-29T08:14:36.708Z</time></trkpt><trkpt lat="45.5319644" lon="10.4437053"><ele>209.0</ele><time>2026-03-29T08:14:37.708Z</time></trkpt><trkpt lat="45.5318551" lon="10.4436812"><ele>209.0</ele><time>2026-03-29T08:14:38.708Z</time></trkpt><trkpt lat="45.5317477" lon="10.4436599"><ele>209.0</ele><time>2026-03-29T08:14:39.708Z</time></trkpt><trkpt lat="45.5316341" lon="10.443638"><ele>209.0</ele><time>2026-03-29T08:14:40.708Z</time></trkpt><trkpt lat="45.531521" lon="10.4436125"><ele>209.0</ele><time>2026-03-29T08:14:41.708Z</time></trkpt><trkpt lat="45.5314128" lon="10.4435853"><ele>209.0</ele><time>2026-03-29T08:14:42.708Z</time></trkpt><trkpt lat="45.5313104" lon="10.4435622"><ele>209.0</ele><time>2026-03-29T08:14:43.708Z</time></trkpt><trkpt lat="45.5312163" lon="10.4435372"><ele>209.0</ele><time>2026-03-29T08:14:44.708Z</time></trkpt><trkpt lat="45.5311284" lon="10.44351"><ele>209.0</ele><time>2026-03-29T08:14:45.708Z</time></trkpt><trkpt lat="45.5310433" lon="10.4434784"><ele>209.0</ele><time>2026-03-29T08:14:46.708Z</time></trkpt><trkpt lat="45.5309676" lon="10.4434417"><ele>209.00000000000003</ele><time>2026-03-29T08:14:47.708Z</time></trkpt><trkpt lat="45.5308995" lon="10.443393"><ele>209.0</ele><time>2026-03-29T08:14:48.708Z</time></trkpt><trkpt lat="45.5308355" lon="10.4433272"><ele>209.0</ele><time>2026-03-29T08:14:49.708Z</time></trkpt><trkpt lat="45.5307811" lon="10.4432521"><ele>209.0</ele><time>2026-03-29T08:14:50.708Z</time></trkpt><trkpt lat="45.5307261" lon="10.4431759"><ele>209.00000000000003</ele><time>2026-03-29T08:14:51.709Z</time></trkpt><trkpt lat="45.5306654" lon="10.4431148"><ele>209.0</ele><time>2026-03-29T08:14:52.708Z</time></trkpt><trkpt lat="45.5305966" lon="10.4430764"><ele>209.0</ele><time>2026-03-29T08:14:53.708Z</time></trkpt><trkpt lat="45.5305248" lon="10.4430764"><ele>209.0</ele><time>2026-03-29T08:14:54.708Z</time></trkpt><trkpt lat="45.5304632" lon="10.4431151"><ele>209.0</ele><time>2026-03-29T08:14:55.708Z</time></trkpt><trkpt lat="45.5304194" lon="10.4431826"><ele>209.0</ele><time>2026-03-29T08:14:56.708Z</time></trkpt><trkpt lat="45.530399" lon="10.4432717"><ele>209.0</ele><time>2026-03-29T08:14:57.708Z</time></trkpt><trkpt lat="45.5304047" lon="10.4433678"><ele>209.0</ele><time>2026-03-29T08:14:58.708Z</time></trkpt><trkpt lat="45.5304378" lon="10.443461"><ele>209.0</ele><time>2026-03-29T08:14:59.708Z</time></trkpt><trkpt lat="45.5304796" lon="10.4435571"><ele>209.0</ele><time>2026-03-29T08:15:00.709Z</time></trkpt><trkpt lat="45.5305092" lon="10.443681"><ele>209.0</ele><time>2026-03-29T08:15:01.708Z</time></trkpt><trkpt lat="45.5305217" lon="10.4438095"><ele>209.0</ele><time>2026-03-29T08:15:02.708Z</time></trkpt><trkpt lat="45.5305261" lon="10.4439436"><ele>209.0</ele><time>2026-03-29T08:15:03.708Z</time></trkpt><trkpt lat="45.530517" lon="10.4440842"><ele>209.0</ele><time>2026-03-29T08:15:04.708Z</time></trkpt><trkpt lat="45.5304955" lon="10.44423"><ele>209.0</ele><time>2026-03-29T08:15:05.708Z</time></trkpt><trkpt lat="45.5304684" lon="10.4443932"><ele>209.0</ele><time>2026-03-29T08:15:06.708Z</time></trkpt><trkpt lat="45.530436" lon="10.4445777"><ele>209.0</ele><time>2026-03-29T08:15:07.708Z</time></trkpt><trkpt lat="45.5303975" lon="10.4447786"><ele>209.0</ele><time>2026-03-29T08:15:08.708Z</time></trkpt><trkpt lat="45.5303555" lon="10.4449836"><ele>210.33333333333334</ele><time>2026-03-29T08:15:09.708Z</time></trkpt><trkpt lat="45.5303141" lon="10.4452"><ele>211.66666666666669</ele><time>2026-03-29T08:15:10.708Z</time></trkpt><trkpt lat="45.5302755" lon="10.4454174"><ele>213.0</ele><time>2026-03-29T08:15:11.708Z</time></trkpt><trkpt lat="45.5302391" lon="10.4456191"><ele>213.0</ele><time>2026-03-29T08:15:12.708Z</time></trkpt><trkpt lat="45.5302035" lon="10.4458083"><ele>213.0</ele><time>2026-03-29T08:15:13.708Z</time></trkpt><trkpt lat="45.5301653" lon="10.4460003"><ele>213.0</ele><time>2026-03-29T08:15:14.708Z</time></trkpt><trkpt lat="45.5301229" lon="10.4461971"><ele>213.0</ele><time>2026-03-29T08:15:15.708Z</time></trkpt><trkpt lat="45.5300753" lon="10.4463912"><ele>212.75</ele><time>2026-03-29T08:15:16.708Z</time></trkpt><trkpt lat="45.5300216" lon="10.4465766"><ele>212.5</ele><time>2026-03-29T08:15:17.708Z</time></trkpt><trkpt lat="45.5299647" lon="10.4467501"><ele>212.25</ele><time>2026-03-29T08:15:18.708Z</time></trkpt><trkpt lat="45.5298963" lon="10.4469121"><ele>212.0</ele><time>2026-03-29T08:15:19.708Z</time></trkpt><trkpt lat="45.5298181" lon="10.4470536"><ele>211.5</ele><time>2026-03-29T08:15:20.708Z</time></trkpt><trkpt lat="45.5297264" lon="10.4471697"><ele>211.0</ele><time>2026-03-29T08:15:21.708Z</time></trkpt><trkpt lat="45.5296164" lon="10.4472777"><ele>210.5</ele><time>2026-03-29T08:15:22.708Z</time></trkpt><trkpt lat="45.5294969" lon="10.4473801"><ele>210.0</ele><time>2026-03-29T08:15:23.708Z</time></trkpt><trkpt lat="45.5293784" lon="10.4474859"><ele>211.0</ele><time>2026-03-29T08:15:24.708Z</time></trkpt><trkpt lat="45.529267" lon="10.447587"><ele>212.0</ele><time>2026-03-29T08:15:25.708Z</time></trkpt><trkpt lat="45.529152" lon="10.4476853"><ele>213.0</ele><time>2026-03-29T08:15:26.708Z</time></trkpt><trkpt lat="45.5290392" lon="10.4477914"><ele>214.0</ele><time>2026-03-29T08:15:27.708Z</time></trkpt><trkpt lat="45.5289315" lon="10.4479087"><ele>212.5</ele><time>2026-03-29T08:15:28.708Z</time></trkpt><trkpt lat="45.5288265" lon="10.4480399"><ele>211.0</ele><time>2026-03-29T08:15:29.708Z</time></trkpt><trkpt lat="45.5287312" lon="10.4481873"><ele>209.5</ele><time>2026-03-29T08:15:30.708Z</time></trkpt><trkpt lat="45.5286532" lon="10.4483516"><ele>208.0</ele><time>2026-03-29T08:15:31.708Z</time></trkpt><trkpt lat="45.5285983" lon="10.4485281"><ele>208.0</ele><time>2026-03-29T08:15:32.708Z</time></trkpt><trkpt lat="45.5285641" lon="10.4487112"><ele>208.0</ele><time>2026-03-29T08:15:33.708Z</time></trkpt><trkpt lat="45.528548" lon="10.4488964"><ele>208.0</ele><time>2026-03-29T08:15:34.708Z</time></trkpt><trkpt lat="45.5285428" lon="10.4490873"><ele>208.0</ele><time>2026-03-29T08:15:35.708Z</time></trkpt><trkpt lat="45.5285435" lon="10.4492768"><ele>208.0</ele><time>2026-03-29T08:15:36.708Z</time></trkpt><trkpt lat="45.5285463" lon="10.4494659"><ele>208.0</ele><time>2026-03-29T08:15:37.708Z</time></trkpt><trkpt lat="45.5285499" lon="10.4496572"><ele>208.0</ele><time>2026-03-29T08:15:38.708Z</time></trkpt><trkpt lat="45.528547" lon="10.4498501"><ele>208.0</ele><time>2026-03-29T08:15:39.708Z</time></trkpt><trkpt lat="45.5285333" lon="10.450043"><ele>208.0</ele><time>2026-03-29T08:15:40.708Z</time></trkpt><trkpt lat="45.5285103" lon="10.4502329"><ele>208.0</ele><time>2026-03-29T08:15:41.708Z</time></trkpt><trkpt lat="45.5284731" lon="10.4504179"><ele>208.0</ele><time>2026-03-29T08:15:42.708Z</time></trkpt><trkpt lat="45.5284212" lon="10.4505966"><ele>208.0</ele><time>2026-03-29T08:15:43.709Z</time></trkpt><trkpt lat="45.5283567" lon="10.4507668"><ele>208.0</ele><time>2026-03-29T08:15:44.708Z</time></trkpt><trkpt lat="45.5282812" lon="10.450925"><ele>208.0</ele><time>2026-03-29T08:15:45.708Z</time></trkpt><trkpt lat="45.5282" lon="10.4510666"><ele>208.0</ele><time>2026-03-29T08:15:46.708Z</time></trkpt><trkpt lat="45.5281149" lon="10.4511938"><ele>208.0</ele><time>2026-03-29T08:15:47.708Z</time></trkpt><trkpt lat="45.5280271" lon="10.4513072"><ele>208.0</ele><time>2026-03-29T08:15:48.708Z</time></trkpt><trkpt lat="45.5279409" lon="10.4514156"><ele>208.0</ele><time>2026-03-29T08:15:49.708Z</time></trkpt><trkpt lat="45.5278578" lon="10.4515234"><ele>208.0</ele><time>2026-03-29T08:15:50.708Z</time></trkpt><trkpt lat="45.5277737" lon="10.4516272"><ele>208.0</ele><time>2026-03-29T08:15:51.708Z</time></trkpt><trkpt lat="45.5276895" lon="10.4517328"><ele>208.0</ele><time>2026-03-29T08:15:52.708Z</time></trkpt><trkpt lat="45.5276069" lon="10.4518478"><ele>208.0</ele><time>2026-03-29T08:15:53.708Z</time></trkpt><trkpt lat="45.5275257" lon="10.4519839"><ele>208.0</ele><time>2026-03-29T08:15:54.708Z</time></trkpt><trkpt lat="45.5274523" lon="10.4521373"><ele>208.0</ele><time>2026-03-29T08:15:55.709Z</time></trkpt><trkpt lat="45.5273779" lon="10.4523012"><ele>207.5</ele><time>2026-03-29T08:15:56.708Z</time></trkpt><trkpt lat="45.5273033" lon="10.4524669"><ele>207.0</ele><time>2026-03-29T08:15:57.708Z</time></trkpt><trkpt lat="45.5272326" lon="10.4526281"><ele>206.5</ele><time>2026-03-29T08:15:58.708Z</time></trkpt><trkpt lat="45.527166" lon="10.4527818"><ele>206.0</ele><time>2026-03-29T08:15:59.708Z</time></trkpt><trkpt lat="45.5270993" lon="10.4529277"><ele>206.0</ele><time>2026-03-29T08:16:00.709Z</time></trkpt><trkpt lat="45.5270308" lon="10.4530732"><ele>206.0</ele><time>2026-03-29T08:16:01.708Z</time></trkpt><trkpt lat="45.5269632" lon="10.453205"><ele>206.0</ele><time>2026-03-29T08:16:02.708Z</time></trkpt><trkpt lat="45.5269065" lon="10.4533098"><ele>206.0</ele><time>2026-03-29T08:16:03.708Z</time></trkpt><trkpt lat="45.5268526" lon="10.4534035"><ele>206.0</ele><time>2026-03-29T08:16:04.708Z</time></trkpt><trkpt lat="45.5268015" lon="10.4534773"><ele>206.00000000000003</ele><time>2026-03-29T08:16:05.708Z</time></trkpt><trkpt lat="45.5267566" lon="10.4535455"><ele>206.0</ele><time>2026-03-29T08:16:06.709Z</time></trkpt><trkpt lat="45.5267097" lon="10.4536159"><ele>206.0</ele><time>2026-03-29T08:16:07.708Z</time></trkpt><trkpt lat="45.5266584" lon="10.4536907"><ele>206.0</ele><time>2026-03-29T08:16:08.708Z</time></trkpt><trkpt lat="45.5266021" lon="10.4537718"><ele>206.00000000000003</ele><time>2026-03-29T08:16:09.708Z</time></trkpt><trkpt lat="45.5265408" lon="10.4538706"><ele>206.0</ele><time>2026-03-29T08:16:10.708Z</time></trkpt><trkpt lat="45.5264849" lon="10.4539849"><ele>206.4</ele><time>2026-03-29T08:16:11.708Z</time></trkpt><trkpt lat="45.5264314" lon="10.4541212"><ele>206.8</ele><time>2026-03-29T08:16:12.708Z</time></trkpt><trkpt lat="45.5263803" lon="10.4542613"><ele>207.20000000000002</ele><time>2026-03-29T08:16:13.708Z</time></trkpt><trkpt lat="45.5263317" lon="10.4543916"><ele>207.60000000000002</ele><time>2026-03-29T08:16:14.708Z</time></trkpt><trkpt lat="45.5262836" lon="10.45452"><ele>208.0</ele><time>2026-03-29T08:16:15.708Z</time></trkpt><trkpt lat="45.5262363" lon="10.4546503"><ele>207.25</ele><time>2026-03-29T08:16:16.708Z</time></trkpt><trkpt lat="45.5261884" lon="10.4547903"><ele>206.5</ele><time>2026-03-29T08:16:17.708Z</time></trkpt><trkpt lat="45.5261352" lon="10.4549515"><ele>205.75</ele><time>2026-03-29T08:16:18.708Z</time></trkpt><trkpt lat="45.5260795" lon="10.4551273"><ele>205.0</ele><time>2026-03-29T08:16:19.708Z</time></trkpt><trkpt lat="45.5260139" lon="10.4553248"><ele>205.0</ele><time>2026-03-29T08:16:20.708Z</time></trkpt><trkpt lat="45.525936" lon="10.4555414"><ele>205.0</ele><time>2026-03-29T08:16:21.708Z</time></trkpt><trkpt lat="45.5258493" lon="10.4557611"><ele>205.0</ele><time>2026-03-29T08:16:22.708Z</time></trkpt><trkpt lat="45.5257653" lon="10.4559629"><ele>205.0</ele><time>2026-03-29T08:16:23.708Z</time></trkpt><trkpt lat="45.5256882" lon="10.4561592"><ele>205.0</ele><time>2026-03-29T08:16:24.708Z</time></trkpt><trkpt lat="45.525615" lon="10.456343"><ele>205.0</ele><time>2026-03-29T08:16:25.708Z</time></trkpt><trkpt lat="45.5255409" lon="10.4565108"><ele>205.0</ele><time>2026-03-29T08:16:26.708Z</time></trkpt><trkpt lat="45.525464" lon="10.4566714"><ele>204.5</ele><time>2026-03-29T08:16:27.708Z</time></trkpt><trkpt lat="45.5253867" lon="10.4568363"><ele>204.0</ele><time>2026-03-29T08:16:28.708Z</time></trkpt><trkpt lat="45.5253068" lon="10.457"><ele>203.5</ele><time>2026-03-29T08:16:29.709Z</time></trkpt><trkpt lat="45.525227" lon="10.4571555"><ele>203.0</ele><time>2026-03-29T08:16:30.708Z</time></trkpt><trkpt lat="45.5251578" lon="10.4572815"><ele>203.0</ele><time>2026-03-29T08:16:31.708Z</time></trkpt><trkpt lat="45.5250911" lon="10.4573507"><ele>203.0</ele><time>2026-03-29T08:16:32.708Z</time></trkpt><trkpt lat="45.5250074" lon="10.4573725"><ele>203.0</ele><time>2026-03-29T08:16:33.708Z</time></trkpt><trkpt lat="45.5249175" lon="10.4573687"><ele>203.0</ele><time>2026-03-29T08:16:34.708Z</time></trkpt><trkpt lat="45.5248202" lon="10.4573467"><ele>203.0</ele><time>2026-03-29T08:16:35.708Z</time></trkpt><trkpt lat="45.524714" lon="10.4573218"><ele>203.0</ele><time>2026-03-29T08:16:36.708Z</time></trkpt><trkpt lat="45.5246002" lon="10.4573021"><ele>203.0</ele><time>2026-03-29T08:16:37.708Z</time></trkpt><trkpt lat="45.5244812" lon="10.4572869"><ele>203.0</ele><time>2026-03-29T08:16:38.708Z</time></trkpt><trkpt lat="45.5243591" lon="10.4572753"><ele>203.0</ele><time>2026-03-29T08:16:39.708Z</time></trkpt><trkpt lat="45.5242382" lon="10.4572511"><ele>202.60000000000002</ele><time>2026-03-29T08:16:40.708Z</time></trkpt><trkpt lat="45.5241221" lon="10.457229"><ele>202.20000000000002</ele><time>2026-03-29T08:16:41.708Z</time></trkpt><trkpt lat="45.5240152" lon="10.4572215"><ele>201.8</ele><time>2026-03-29T08:16:42.708Z</time></trkpt><trkpt lat="45.5239107" lon="10.4572105"><ele>201.4</ele><time>2026-03-29T08:16:43.708Z</time></trkpt><trkpt lat="45.5237988" lon="10.4571814"><ele>201.0</ele><time>2026-03-29T08:16:44.708Z</time></trkpt><trkpt lat="45.5236816" lon="10.4571495"><ele>200.25</ele><time>2026-03-29T08:16:45.708Z</time></trkpt><trkpt lat="45.523559" lon="10.4571148"><ele>199.5</ele><time>2026-03-29T08:16:46.708Z</time></trkpt><trkpt lat="45.5234281" lon="10.4570768"><ele>198.75</ele><time>2026-03-29T08:16:47.708Z</time></trkpt><trkpt lat="45.5232965" lon="10.4570323"><ele>198.0</ele><time>2026-03-29T08:16:48.708Z</time></trkpt><trkpt lat="45.5231668" lon="10.456988"><ele>198.0</ele><time>2026-03-29T08:16:49.708Z</time></trkpt><trkpt lat="45.5230411" lon="10.4569446"><ele>198.0</ele><time>2026-03-29T08:16:50.708Z</time></trkpt><trkpt lat="45.5229172" lon="10.4569014"><ele>198.0</ele><time>2026-03-29T08:16:51.708Z</time></trkpt><trkpt lat="45.5227892" lon="10.4568532"><ele>198.0</ele><time>2026-03-29T08:16:52.708Z</time></trkpt><trkpt lat="45.5226607" lon="10.4568033"><ele>197.5</ele><time>2026-03-29T08:16:53.708Z</time></trkpt><trkpt lat="45.5225298" lon="10.4567524"><ele>197.0</ele><time>2026-03-29T08:16:54.708Z</time></trkpt><trkpt lat="45.5223971" lon="10.4566988"><ele>196.5</ele><time>2026-03-29T08:16:55.708Z</time></trkpt><trkpt lat="45.5222588" lon="10.4566418"><ele>196.0</ele><time>2026-03-29T08:16:56.708Z</time></trkpt><trkpt lat="45.5221197" lon="10.4565859"><ele>195.33333333333331</ele><time>2026-03-29T08:16:57.708Z</time></trkpt><trkpt lat="45.5219773" lon="10.4565329"><ele>194.66666666666669</ele><time>2026-03-29T08:16:58.708Z</time></trkpt><trkpt lat="45.5218299" lon="10.4564817"><ele>194.0</ele><time>2026-03-29T08:16:59.708Z</time></trkpt><trkpt lat="45.5216786" lon="10.4564358"><ele>194.0</ele><time>2026-03-29T08:17:00.708Z</time></trkpt><trkpt lat="45.5215239" lon="10.4563953"><ele>194.0</ele><time>2026-03-29T08:17:01.708Z</time></trkpt><trkpt lat="45.5213699" lon="10.4563423"><ele>194.0</ele><time>2026-03-29T08:17:02.708Z</time></trkpt><trkpt lat="45.5212169" lon="10.4562635"><ele>193.66666666666669</ele><time>2026-03-29T08:17:03.708Z</time></trkpt><trkpt lat="45.5210664" lon="10.4561648"><ele>193.33333333333331</ele><time>2026-03-29T08:17:04.708Z</time></trkpt><trkpt lat="45.5209118" lon="10.4560637"><ele>193.0</ele><time>2026-03-29T08:17:05.708Z</time></trkpt><trkpt lat="45.5207487" lon="10.4559668"><ele>193.0</ele><time>2026-03-29T08:17:06.708Z</time></trkpt><trkpt lat="45.5205844" lon="10.4558665"><ele>193.0</ele><time>2026-03-29T08:17:07.708Z</time></trkpt><trkpt lat="45.5204198" lon="10.4557618"><ele>193.0</ele><time>2026-03-29T08:17:08.708Z</time></trkpt><trkpt lat="45.5202553" lon="10.4556579"><ele>192.66666666666666</ele><time>2026-03-29T08:17:09.708Z</time></trkpt><trkpt lat="45.5200951" lon="10.4555553"><ele>192.33333333333331</ele><time>2026-03-29T08:17:10.708Z</time></trkpt><trkpt lat="45.5199457" lon="10.4554582"><ele>192.0</ele><time>2026-03-29T08:17:11.708Z</time></trkpt><trkpt lat="45.5197971" lon="10.4553666"><ele>192.0</ele><time>2026-03-29T08:17:12.708Z</time></trkpt><trkpt lat="45.5196434" lon="10.4552834"><ele>192.0</ele><time>2026-03-29T08:17:13.709Z</time></trkpt><trkpt lat="45.5194921" lon="10.4552111"><ele>192.0</ele><time>2026-03-29T08:17:14.708Z</time></trkpt><trkpt lat="45.5193499" lon="10.455142"><ele>191.5</ele><time>2026-03-29T08:17:15.708Z</time></trkpt><trkpt lat="45.5192081" lon="10.4550717"><ele>191.0</ele><time>2026-03-29T08:17:16.709Z</time></trkpt><trkpt lat="45.5190766" lon="10.4550063"><ele>190.5</ele><time>2026-03-29T08:17:17.709Z</time></trkpt><trkpt lat="45.5189464" lon="10.4549456"><ele>190.0</ele><time>2026-03-29T08:17:18.708Z</time></trkpt><trkpt lat="45.5188247" lon="10.4548946"><ele>190.0</ele><time>2026-03-29T08:17:19.708Z</time></trkpt><trkpt lat="45.5187086" lon="10.4548467"><ele>190.0</ele><time>2026-03-29T08:17:20.708Z</time></trkpt><trkpt lat="45.5185987" lon="10.4548009"><ele>190.0</ele><time>2026-03-29T08:17:21.708Z</time></trkpt><trkpt lat="45.5185005" lon="10.4547543"><ele>190.0</ele><time>2026-03-29T08:17:22.708Z</time></trkpt><trkpt lat="45.5184155" lon="10.4546945"><ele>190.0</ele><time>2026-03-29T08:17:23.708Z</time></trkpt><trkpt lat="45.5183419" lon="10.4546008"><ele>190.0</ele><time>2026-03-29T08:17:24.708Z</time></trkpt><trkpt lat="45.5182697" lon="10.4544886"><ele>190.0</ele><time>2026-03-29T08:17:25.708Z</time></trkpt><trkpt lat="45.5181915" lon="10.4543678"><ele>190.0</ele><time>2026-03-29T08:17:26.708Z</time></trkpt><trkpt lat="45.5181017" lon="10.4542362"><ele>190.0</ele><time>2026-03-29T08:17:27.708Z</time></trkpt><trkpt lat="45.5180053" lon="10.4540965"><ele>190.0</ele><time>2026-03-29T08:17:28.708Z</time></trkpt><trkpt lat="45.5179092" lon="10.4539718"><ele>190.0</ele><time>2026-03-29T08:17:29.708Z</time></trkpt><trkpt lat="45.5178223" lon="10.4538423"><ele>190.0</ele><time>2026-03-29T08:17:30.708Z</time></trkpt><trkpt lat="45.5177512" lon="10.4537052"><ele>190.0</ele><time>2026-03-29T08:17:31.708Z</time></trkpt><trkpt lat="45.5176977" lon="10.453558"><ele>189.5</ele><time>2026-03-29T08:17:32.708Z</time></trkpt><trkpt lat="45.5176698" lon="10.4533959"><ele>189.0</ele><time>2026-03-29T08:17:33.708Z</time></trkpt><trkpt lat="45.5176672" lon="10.4532119"><ele>188.5</ele><time>2026-03-29T08:17:34.708Z</time></trkpt><trkpt lat="45.5176744" lon="10.4530311"><ele>188.0</ele><time>2026-03-29T08:17:35.708Z</time></trkpt><trkpt lat="45.5176583" lon="10.4528348"><ele>188.0</ele><time>2026-03-29T08:17:36.708Z</time></trkpt><trkpt lat="45.5176383" lon="10.4526486"><ele>188.0</ele><time>2026-03-29T08:17:37.708Z</time></trkpt><trkpt lat="45.5176185" lon="10.4524793"><ele>188.0</ele><time>2026-03-29T08:17:38.708Z</time></trkpt><trkpt lat="45.5176175" lon="10.4523143"><ele>188.0</ele><time>2026-03-29T08:17:39.708Z</time></trkpt><trkpt lat="45.5176167" lon="10.4521195"><ele>188.33333333333331</ele><time>2026-03-29T08:17:40.708Z</time></trkpt><trkpt lat="45.5176189" lon="10.4519121"><ele>188.66666666666666</ele><time>2026-03-29T08:17:41.708Z</time></trkpt><trkpt lat="45.5176323" lon="10.4516722"><ele>189.0</ele><time>2026-03-29T08:17:42.708Z</time></trkpt><trkpt lat="45.5176447" lon="10.4514429"><ele>188.66666666666666</ele><time>2026-03-29T08:17:43.708Z</time></trkpt><trkpt lat="45.5176525" lon="10.451229"><ele>188.33333333333331</ele><time>2026-03-29T08:17:44.708Z</time></trkpt><trkpt lat="45.5176393" lon="10.4510146"><ele>188.0</ele><time>2026-03-29T08:17:45.708Z</time></trkpt><trkpt lat="45.5176079" lon="10.4507954"><ele>188.0</ele><time>2026-03-29T08:17:46.708Z</time></trkpt><trkpt lat="45.5175652" lon="10.4505855"><ele>188.0</ele><time>2026-03-29T08:17:47.708Z</time></trkpt><trkpt lat="45.5175232" lon="10.4503899"><ele>188.0</ele><time>2026-03-29T08:17:48.708Z</time></trkpt><trkpt lat="45.5174763" lon="10.4502077"><ele>188.0</ele><time>2026-03-29T08:17:49.709Z</time></trkpt><trkpt lat="45.5174214" lon="10.450016"><ele>188.0</ele><time>2026-03-29T08:17:50.708Z</time></trkpt><trkpt lat="45.5173597" lon="10.44983"><ele>188.0</ele><time>2026-03-29T08:17:51.708Z</time></trkpt><trkpt lat="45.5172919" lon="10.4496515"><ele>188.0</ele><time>2026-03-29T08:17:52.708Z</time></trkpt><trkpt lat="45.5172314" lon="10.4494843"><ele>188.0</ele><time>2026-03-29T08:17:53.708Z</time></trkpt><trkpt lat="45.5171744" lon="10.4492938"><ele>188.0</ele><time>2026-03-29T08:17:54.708Z</time></trkpt><trkpt lat="45.5171212" lon="10.4491138"><ele>188.0</ele><time>2026-03-29T08:17:55.708Z</time></trkpt><trkpt lat="45.5170622" lon="10.4489396"><ele>188.0</ele><time>2026-03-29T08:17:56.708Z</time></trkpt><trkpt lat="45.5170037" lon="10.4487782"><ele>188.0</ele><time>2026-03-29T08:17:57.708Z</time></trkpt><trkpt lat="45.5169434" lon="10.4486264"><ele>187.5</ele><time>2026-03-29T08:17:58.708Z</time></trkpt><trkpt lat="45.5168749" lon="10.4484966"><ele>187.0</ele><time>2026-03-29T08:17:59.708Z</time></trkpt><trkpt lat="45.5167971" lon="10.4483926"><ele>186.5</ele><time>2026-03-29T08:18:00.708Z</time></trkpt><trkpt lat="45.5167067" lon="10.4482966"><ele>186.0</ele><time>2026-03-29T08:18:01.708Z</time></trkpt><trkpt lat="45.5165966" lon="10.4482015"><ele>186.0</ele><time>2026-03-29T08:18:02.708Z</time></trkpt><trkpt lat="45.5164635" lon="10.4481084"><ele>186.0</ele><time>2026-03-29T08:18:03.708Z</time></trkpt><trkpt lat="45.5163232" lon="10.4480289"><ele>186.0</ele><time>2026-03-29T08:18:04.708Z</time></trkpt><trkpt lat="45.5161983" lon="10.4479557"><ele>186.0</ele><time>2026-03-29T08:18:05.708Z</time></trkpt><trkpt lat="45.5160906" lon="10.44789"><ele>185.25</ele><time>2026-03-29T08:18:06.708Z</time></trkpt><trkpt lat="45.5159907" lon="10.4478306"><ele>184.5</ele><time>2026-03-29T08:18:07.708Z</time></trkpt><trkpt lat="45.5158935" lon="10.4477726"><ele>183.75</ele><time>2026-03-29T08:18:08.708Z</time></trkpt><trkpt lat="45.5157862" lon="10.4477117"><ele>183.0</ele><time>2026-03-29T08:18:09.708Z</time></trkpt><trkpt lat="45.5156741" lon="10.4476445"><ele>183.0</ele><time>2026-03-29T08:18:10.708Z</time></trkpt><trkpt lat="45.515549" lon="10.4475681"><ele>183.0</ele><time>2026-03-29T08:18:11.708Z</time></trkpt><trkpt lat="45.5154298" lon="10.4475006"><ele>183.0</ele><time>2026-03-29T08:18:12.708Z</time></trkpt><trkpt lat="45.5153214" lon="10.4474409"><ele>183.0</ele><time>2026-03-29T08:18:13.708Z</time></trkpt><trkpt lat="45.5152236" lon="10.4473821"><ele>182.83333333333334</ele><time>2026-03-29T08:18:14.708Z</time></trkpt><trkpt lat="45.5151396" lon="10.4473312"><ele>182.66666666666666</ele><time>2026-03-29T08:18:15.708Z</time></trkpt><trkpt lat="45.5150705" lon="10.447294"><ele>182.5</ele><time>2026-03-29T08:18:16.708Z</time></trkpt><trkpt lat="45.5149727" lon="10.4472418"><ele>182.33333333333331</ele><time>2026-03-29T08:18:18.708Z</time></trkpt><trkpt lat="45.514935" lon="10.4471647"><ele>182.16666666666666</ele><time>2026-03-29T08:18:20.708Z</time></trkpt><trkpt lat="45.5149534" lon="10.4470213"><ele>182.0</ele><time>2026-03-29T08:18:22.708Z</time></trkpt><trkpt lat="45.5149898" lon="10.4469133"><ele>182.0</ele><time>2026-03-29T08:18:23.708Z</time></trkpt><trkpt lat="45.515028" lon="10.4467948"><ele>182.0</ele><time>2026-03-29T08:18:24.708Z</time></trkpt><trkpt lat="45.5150656" lon="10.4466723"><ele>182.0</ele><time>2026-03-29T08:18:25.708Z</time></trkpt><trkpt lat="45.5151068" lon="10.446542"><ele>182.0</ele><time>2026-03-29T08:18:26.708Z</time></trkpt><trkpt lat="45.5151493" lon="10.4464063"><ele>182.0</ele><time>2026-03-29T08:18:27.708Z</time></trkpt><trkpt lat="45.5151941" lon="10.4462705"><ele>182.0</ele><time>2026-03-29T08:18:28.708Z</time></trkpt><trkpt lat="45.5152453" lon="10.4461351"><ele>182.0</ele><time>2026-03-29T08:18:29.708Z</time></trkpt><trkpt lat="45.515287" lon="10.4460105"><ele>182.0</ele><time>2026-03-29T08:18:30.708Z</time></trkpt><trkpt lat="45.5153237" lon="10.4458947"><ele>182.0</ele><time>2026-03-29T08:18:31.708Z</time></trkpt><trkpt lat="45.5153586" lon="10.445777"><ele>182.0</ele><time>2026-03-29T08:18:32.708Z</time></trkpt><trkpt lat="45.5153899" lon="10.445662"><ele>182.0</ele><time>2026-03-29T08:18:33.708Z</time></trkpt><trkpt lat="45.5154218" lon="10.4455202"><ele>182.0</ele><time>2026-03-29T08:18:34.708Z</time></trkpt><trkpt lat="45.5154554" lon="10.4453563"><ele>182.0</ele><time>2026-03-29T08:18:35.708Z</time></trkpt><trkpt lat="45.5154894" lon="10.4452097"><ele>182.0</ele><time>2026-03-29T08:18:36.708Z</time></trkpt><trkpt lat="45.5155217" lon="10.4450506"><ele>182.0</ele><time>2026-03-29T08:18:37.708Z</time></trkpt><trkpt lat="45.5155588" lon="10.4448827"><ele>182.0</ele><time>2026-03-29T08:18:38.708Z</time></trkpt><trkpt lat="45.5155976" lon="10.4446933"><ele>182.0</ele><time>2026-03-29T08:18:39.708Z</time></trkpt><trkpt lat="45.5156295" lon="10.4445227"><ele>182.0</ele><time>2026-03-29T08:18:40.708Z</time></trkpt><trkpt lat="45.5156624" lon="10.4443459"><ele>182.0</ele><time>2026-03-29T08:18:41.708Z</time></trkpt><trkpt lat="45.515699" lon="10.444173"><ele>182.0</ele><time>2026-03-29T08:18:42.709Z</time></trkpt><trkpt lat="45.5157436" lon="10.4440131"><ele>182.0</ele><time>2026-03-29T08:18:43.708Z</time></trkpt><trkpt lat="45.515789" lon="10.4438722"><ele>182.0</ele><time>2026-03-29T08:18:44.708Z</time></trkpt><trkpt lat="45.5158339" lon="10.4437544"><ele>182.0</ele><time>2026-03-29T08:18:45.708Z</time></trkpt><trkpt lat="45.5158756" lon="10.4436488"><ele>182.0</ele><time>2026-03-29T08:18:46.709Z</time></trkpt><trkpt lat="45.5159168" lon="10.4435535"><ele>182.0</ele><time>2026-03-29T08:18:47.708Z</time></trkpt><trkpt lat="45.5159619" lon="10.4434532"><ele>182.0</ele><time>2026-03-29T08:18:48.708Z</time></trkpt><trkpt lat="45.5160054" lon="10.4433331"><ele>182.0</ele><time>2026-03-29T08:18:49.708Z</time></trkpt><trkpt lat="45.5160375" lon="10.4431999"><ele>182.0</ele><time>2026-03-29T08:18:50.708Z</time></trkpt><trkpt lat="45.5160691" lon="10.4430551"><ele>182.0</ele><time>2026-03-29T08:18:51.708Z</time></trkpt><trkpt lat="45.5161034" lon="10.4429059"><ele>182.0</ele><time>2026-03-29T08:18:52.708Z</time></trkpt><trkpt lat="45.5161456" lon="10.4427764"><ele>182.0</ele><time>2026-03-29T08:18:53.708Z</time></trkpt><trkpt lat="45.5161828" lon="10.442666"><ele>182.0</ele><time>2026-03-29T08:18:54.708Z</time></trkpt><trkpt lat="45.5161953" lon="10.4425514"><ele>182.0</ele><time>2026-03-29T08:18:55.708Z</time></trkpt><trkpt lat="45.5162108" lon="10.4424218"><ele>182.0</ele><time>2026-03-29T08:18:56.708Z</time></trkpt><trkpt lat="45.5162141" lon="10.4422651"><ele>181.8</ele><time>2026-03-29T08:18:57.708Z</time></trkpt><trkpt lat="45.5162259" lon="10.4421153"><ele>181.6</ele><time>2026-03-29T08:18:58.708Z</time></trkpt><trkpt lat="45.5162353" lon="10.4419665"><ele>181.4</ele><time>2026-03-29T08:18:59.708Z</time></trkpt><trkpt lat="45.5162494" lon="10.4418254"><ele>181.20000000000002</ele><time>2026-03-29T08:19:00.708Z</time></trkpt><trkpt lat="45.5162666" lon="10.4416644"><ele>181.0</ele><time>2026-03-29T08:19:01.708Z</time></trkpt><trkpt lat="45.5162904" lon="10.4415085"><ele>181.20000000000002</ele><time>2026-03-29T08:19:02.708Z</time></trkpt><trkpt lat="45.5163153" lon="10.4413616"><ele>181.4</ele><time>2026-03-29T08:19:03.708Z</time></trkpt><trkpt lat="45.5163424" lon="10.4412325"><ele>181.6</ele><time>2026-03-29T08:19:04.708Z</time></trkpt><trkpt lat="45.516368" lon="10.4411175"><ele>181.8</ele><time>2026-03-29T08:19:05.708Z</time></trkpt><trkpt lat="45.5163941" lon="10.4410336"><ele>182.0</ele><time>2026-03-29T08:19:06.708Z</time></trkpt><trkpt lat="45.5163791" lon="10.4408735"><ele>182.0</ele><time>2026-03-29T08:19:08.708Z</time></trkpt><trkpt lat="45.5163355" lon="10.4408033"><ele>182.0</ele><time>2026-03-29T08:19:09.708Z</time></trkpt><trkpt lat="45.5162643" lon="10.4407366"><ele>182.0</ele><time>2026-03-29T08:19:10.708Z</time></trkpt><trkpt lat="45.5161953" lon="10.4406623"><ele>182.0</ele><time>2026-03-29T08:19:11.708Z</time></trkpt><trkpt lat="45.5161465" lon="10.4405756"><ele>182.0</ele><time>2026-03-29T08:19:12.708Z</time></trkpt><trkpt lat="45.5161114" lon="10.44048"><ele>182.0</ele><time>2026-03-29T08:19:13.709Z</time></trkpt><trkpt lat="45.5161074" lon="10.4403693"><ele>181.6</ele><time>2026-03-29T08:19:14.708Z</time></trkpt><trkpt lat="45.5161177" lon="10.4402255"><ele>181.2</ele><time>2026-03-29T08:19:15.708Z</time></trkpt><trkpt lat="45.516145" lon="10.4400637"><ele>180.8</ele><time>2026-03-29T08:19:16.708Z</time></trkpt><trkpt lat="45.5161747" lon="10.4399193"><ele>180.4</ele><time>2026-03-29T08:19:17.708Z</time></trkpt><trkpt lat="45.5162155" lon="10.43976"><ele>180.0</ele><time>2026-03-29T08:19:18.708Z</time></trkpt><trkpt lat="45.5162631" lon="10.4396145"><ele>181.2</ele><time>2026-03-29T08:19:19.708Z</time></trkpt><trkpt lat="45.5163119" lon="10.4394893"><ele>182.4</ele><time>2026-03-29T08:19:20.708Z</time></trkpt><trkpt lat="45.5163593" lon="10.4393744"><ele>183.60000000000002</ele><time>2026-03-29T08:19:21.708Z</time></trkpt><trkpt lat="45.5164173" lon="10.4392512"><ele>184.8</ele><time>2026-03-29T08:19:22.709Z</time></trkpt><trkpt lat="45.5164852" lon="10.4391227"><ele>186.0</ele><time>2026-03-29T08:19:23.708Z</time></trkpt><trkpt lat="45.5165583" lon="10.4389801"><ele>186.0</ele><time>2026-03-29T08:19:24.708Z</time></trkpt><trkpt lat="45.516613" lon="10.4388497"><ele>186.0</ele><time>2026-03-29T08:19:25.708Z</time></trkpt><trkpt lat="45.5166578" lon="10.4387336"><ele>186.0</ele><time>2026-03-29T08:19:26.708Z</time></trkpt><trkpt lat="45.5166856" lon="10.4385901"><ele>186.0</ele><time>2026-03-29T08:19:28.708Z</time></trkpt><trkpt lat="45.516756" lon="10.4385396"><ele>186.0</ele><time>2026-03-29T08:19:30.708Z</time></trkpt><trkpt lat="45.5168847" lon="10.4386156"><ele>186.8</ele><time>2026-03-29T08:19:32.708Z</time></trkpt><trkpt lat="45.5169728" lon="10.4386575"><ele>187.60000000000002</ele><time>2026-03-29T08:19:33.708Z</time></trkpt><trkpt lat="45.5170635" lon="10.4386626"><ele>188.4</ele><time>2026-03-29T08:19:34.709Z</time></trkpt><trkpt lat="45.51716" lon="10.438648"><ele>189.2</ele><time>2026-03-29T08:19:35.708Z</time></trkpt><trkpt lat="45.5172622" lon="10.4386161"><ele>190.0</ele><time>2026-03-29T08:19:36.709Z</time></trkpt><trkpt lat="45.5173685" lon="10.4385727"><ele>190.16666666666669</ele><time>2026-03-29T08:19:37.708Z</time></trkpt><trkpt lat="45.517462" lon="10.4385222"><ele>190.33333333333334</ele><time>2026-03-29T08:19:38.708Z</time></trkpt><trkpt lat="45.5175538" lon="10.4384759"><ele>190.5</ele><time>2026-03-29T08:19:39.708Z</time></trkpt><trkpt lat="45.5176369" lon="10.4384355"><ele>190.66666666666666</ele><time>2026-03-29T08:19:40.708Z</time></trkpt><trkpt lat="45.5177122" lon="10.4383905"><ele>190.83333333333331</ele><time>2026-03-29T08:19:41.708Z</time></trkpt><trkpt lat="45.5177747" lon="10.4383549"><ele>191.0</ele><time>2026-03-29T08:19:42.708Z</time></trkpt><trkpt lat="45.5178365" lon="10.4383053"><ele>191.0</ele><time>2026-03-29T08:19:43.708Z</time></trkpt><trkpt lat="45.5178932" lon="10.4382399"><ele>191.0</ele><time>2026-03-29T08:19:44.708Z</time></trkpt><trkpt lat="45.5179557" lon="10.4381751"><ele>191.0</ele><time>2026-03-29T08:19:45.708Z</time></trkpt><trkpt lat="45.5180229" lon="10.43811"><ele>191.0</ele><time>2026-03-29T08:19:46.708Z</time></trkpt><trkpt lat="45.5180929" lon="10.4380453"><ele>191.0</ele><time>2026-03-29T08:19:47.708Z</time></trkpt><trkpt lat="45.5181666" lon="10.4379824"><ele>191.0</ele><time>2026-03-29T08:19:48.708Z</time></trkpt><trkpt lat="45.5182431" lon="10.4379064"><ele>191.0</ele><time>2026-03-29T08:19:49.708Z</time></trkpt><trkpt lat="45.5183255" lon="10.4378306"><ele>191.0</ele><time>2026-03-29T08:19:50.708Z</time></trkpt><trkpt lat="45.5184163" lon="10.4377396"><ele>191.0</ele><time>2026-03-29T08:19:51.708Z</time></trkpt><trkpt lat="45.5185278" lon="10.4376473"><ele>191.0</ele><time>2026-03-29T08:19:52.708Z</time></trkpt><trkpt lat="45.5186548" lon="10.4375512"><ele>190.33333333333331</ele><time>2026-03-29T08:19:53.708Z</time></trkpt><trkpt lat="45.5187924" lon="10.437434"><ele>189.66666666666666</ele><time>2026-03-29T08:19:54.708Z</time></trkpt><trkpt lat="45.5189204" lon="10.4373284"><ele>189.0</ele><time>2026-03-29T08:19:55.708Z</time></trkpt><trkpt lat="45.5190434" lon="10.4372286"><ele>189.0</ele><time>2026-03-29T08:19:56.708Z</time></trkpt><trkpt lat="45.5191585" lon="10.4371366"><ele>189.0</ele><time>2026-03-29T08:19:57.708Z</time></trkpt><trkpt lat="45.5192737" lon="10.4370534"><ele>189.0</ele><time>2026-03-29T08:19:58.708Z</time></trkpt><trkpt lat="45.5193926" lon="10.4369592"><ele>189.0</ele><time>2026-03-29T08:19:59.708Z</time></trkpt><trkpt lat="45.5194959" lon="10.4368661"><ele>189.39999999999998</ele><time>2026-03-29T08:20:00.708Z</time></trkpt><trkpt lat="45.5195917" lon="10.4367779"><ele>189.8</ele><time>2026-03-29T08:20:01.708Z</time></trkpt><trkpt lat="45.5196822" lon="10.4367055"><ele>190.2</ele><time>2026-03-29T08:20:02.708Z</time></trkpt><trkpt lat="45.519768" lon="10.4366567"><ele>190.60000000000002</ele><time>2026-03-29T08:20:03.708Z</time></trkpt><trkpt lat="45.5198468" lon="10.4366345"><ele>191.0</ele><time>2026-03-29T08:20:04.708Z</time></trkpt><trkpt lat="45.5199327" lon="10.4366438"><ele>191.0</ele><time>2026-03-29T08:20:05.708Z</time></trkpt><trkpt lat="45.520003" lon="10.4366665"><ele>191.0</ele><time>2026-03-29T08:20:06.708Z</time></trkpt><trkpt lat="45.5201018" lon="10.4366313"><ele>191.0</ele><time>2026-03-29T08:20:08.708Z</time></trkpt><trkpt lat="45.5201572" lon="10.4364646"><ele>191.0</ele><time>2026-03-29T08:20:10.708Z</time></trkpt><trkpt lat="45.5201797" lon="10.4363245"><ele>191.0</ele><time>2026-03-29T08:20:11.708Z</time></trkpt><trkpt lat="45.5202146" lon="10.4361651"><ele>190.75</ele><time>2026-03-29T08:20:12.708Z</time></trkpt><trkpt lat="45.520261" lon="10.4359837"><ele>190.5</ele><time>2026-03-29T08:20:13.708Z</time></trkpt><trkpt lat="45.5203089" lon="10.4358127"><ele>190.25</ele><time>2026-03-29T08:20:14.708Z</time></trkpt><trkpt lat="45.5203607" lon="10.4356682"><ele>190.0</ele><time>2026-03-29T08:20:15.708Z</time></trkpt><trkpt lat="45.5204182" lon="10.4355491"><ele>191.0</ele><time>2026-03-29T08:20:16.708Z</time></trkpt><trkpt lat="45.5204838" lon="10.4354535"><ele>192.0</ele><time>2026-03-29T08:20:17.708Z</time></trkpt><trkpt lat="45.5205601" lon="10.4353655"><ele>193.0</ele><time>2026-03-29T08:20:18.708Z</time></trkpt><trkpt lat="45.520642" lon="10.4352955"><ele>194.0</ele><time>2026-03-29T08:20:19.708Z</time></trkpt><trkpt lat="45.5207446" lon="10.4352132"><ele>195.0</ele><time>2026-03-29T08:20:20.708Z</time></trkpt><trkpt lat="45.520854" lon="10.4351313"><ele>195.0</ele><time>2026-03-29T08:20:21.708Z</time></trkpt><trkpt lat="45.5209559" lon="10.4350334"><ele>195.0</ele><time>2026-03-29T08:20:22.708Z</time></trkpt><trkpt lat="45.5210433" lon="10.4349435"><ele>195.0</ele><time>2026-03-29T08:20:23.708Z</time></trkpt><trkpt lat="45.5211101" lon="10.4348664"><ele>195.0</ele><time>2026-03-29T08:20:24.708Z</time></trkpt><trkpt lat="45.5211664" lon="10.4347975"><ele>195.0</ele><time>2026-03-29T08:20:25.708Z</time></trkpt><trkpt lat="45.5212168" lon="10.4347184"><ele>195.2</ele><time>2026-03-29T08:20:26.708Z</time></trkpt><trkpt lat="45.5212763" lon="10.4346334"><ele>195.4</ele><time>2026-03-29T08:20:27.708Z</time></trkpt><trkpt lat="45.5213417" lon="10.4345425"><ele>195.60000000000002</ele><time>2026-03-29T08:20:28.708Z</time></trkpt><trkpt lat="45.5214244" lon="10.4344394"><ele>195.8</ele><time>2026-03-29T08:20:29.708Z</time></trkpt><trkpt lat="45.5215148" lon="10.434332"><ele>196.0</ele><time>2026-03-29T08:20:30.708Z</time></trkpt><trkpt lat="45.521595" lon="10.4342309"><ele>196.0</ele><time>2026-03-29T08:20:31.708Z</time></trkpt><trkpt lat="45.5216793" lon="10.4341332"><ele>196.0</ele><time>2026-03-29T08:20:32.708Z</time></trkpt><trkpt lat="45.5217731" lon="10.4340455"><ele>196.0</ele><time>2026-03-29T08:20:33.708Z</time></trkpt><trkpt lat="45.5218699" lon="10.4339667"><ele>196.0</ele><time>2026-03-29T08:20:34.708Z</time></trkpt><trkpt lat="45.5219677" lon="10.4339048"><ele>196.0</ele><time>2026-03-29T08:20:35.708Z</time></trkpt><trkpt lat="45.5220571" lon="10.4338527"><ele>195.99999999999997</ele><time>2026-03-29T08:20:36.708Z</time></trkpt><trkpt lat="45.5221343" lon="10.4337993"><ele>196.0</ele><time>2026-03-29T08:20:37.708Z</time></trkpt><trkpt lat="45.5221916" lon="10.4337419"><ele>196.0</ele><time>2026-03-29T08:20:38.708Z</time></trkpt><trkpt lat="45.5222315" lon="10.4336601"><ele>196.0</ele><time>2026-03-29T08:20:39.708Z</time></trkpt><trkpt lat="45.5222415" lon="10.4335626"><ele>195.99999999999997</ele><time>2026-03-29T08:20:40.708Z</time></trkpt><trkpt lat="45.5222268" lon="10.4334409"><ele>196.0</ele><time>2026-03-29T08:20:41.708Z</time></trkpt><trkpt lat="45.5221813" lon="10.4332841"><ele>196.0</ele><time>2026-03-29T08:20:42.708Z</time></trkpt><trkpt lat="45.5221302" lon="10.4331295"><ele>196.0</ele><time>2026-03-29T08:20:43.708Z</time></trkpt><trkpt lat="45.5220923" lon="10.4329806"><ele>196.0</ele><time>2026-03-29T08:20:44.708Z</time></trkpt><trkpt lat="45.5220572" lon="10.4328348"><ele>196.0</ele><time>2026-03-29T08:20:45.708Z</time></trkpt><trkpt lat="45.5220323" lon="10.4327307"><ele>196.0</ele><time>2026-03-29T08:20:46.709Z</time></trkpt><trkpt lat="45.5220121" lon="10.4326411"><ele>195.4</ele><time>2026-03-29T08:20:47.708Z</time></trkpt><trkpt lat="45.521976" lon="10.4325539"><ele>194.8</ele><time>2026-03-29T08:20:49.708Z</time></trkpt><trkpt lat="45.5218667" lon="10.4325008"><ele>194.20000000000002</ele><time>2026-03-29T08:20:51.708Z</time></trkpt><trkpt lat="45.5217628" lon="10.4325064"><ele>193.60000000000002</ele><time>2026-03-29T08:20:52.708Z</time></trkpt><trkpt lat="45.5216198" lon="10.4325229"><ele>193.0</ele><time>2026-03-29T08:20:53.708Z</time></trkpt><trkpt lat="45.5214402" lon="10.4325423"><ele>193.0</ele><time>2026-03-29T08:20:54.708Z</time></trkpt><trkpt lat="45.5212604" lon="10.4325542"><ele>193.0</ele><time>2026-03-29T08:20:55.708Z</time></trkpt><trkpt lat="45.5210512" lon="10.4325414"><ele>193.0</ele><time>2026-03-29T08:20:56.708Z</time></trkpt><trkpt lat="45.5208074" lon="10.4324853"><ele>192.66666666666666</ele><time>2026-03-29T08:20:57.708Z</time></trkpt><trkpt lat="45.5205903" lon="10.4323883"><ele>192.33333333333331</ele><time>2026-03-29T08:20:58.708Z</time></trkpt><trkpt lat="45.5203943" lon="10.43229"><ele>192.0</ele><time>2026-03-29T08:20:59.708Z</time></trkpt><trkpt lat="45.5202082" lon="10.4322004"><ele>190.33333333333334</ele><time>2026-03-29T08:21:00.708Z</time></trkpt><trkpt lat="45.5200343" lon="10.4321181"><ele>188.66666666666669</ele><time>2026-03-29T08:21:01.708Z</time></trkpt><trkpt lat="45.5198663" lon="10.4320411"><ele>187.0</ele><time>2026-03-29T08:21:02.708Z</time></trkpt><trkpt lat="45.519693" lon="10.4319736"><ele>188.66666666666669</ele><time>2026-03-29T08:21:03.709Z</time></trkpt><trkpt lat="45.5195162" lon="10.431919"><ele>190.33333333333334</ele><time>2026-03-29T08:21:04.708Z</time></trkpt><trkpt lat="45.5193362" lon="10.4318889"><ele>192.0</ele><time>2026-03-29T08:21:05.708Z</time></trkpt><trkpt lat="45.519152" lon="10.431869"><ele>192.0</ele><time>2026-03-29T08:21:06.708Z</time></trkpt><trkpt lat="45.5189692" lon="10.4318538"><ele>192.0</ele><time>2026-03-29T08:21:07.708Z</time></trkpt><trkpt lat="45.5187849" lon="10.431842"><ele>192.0</ele><time>2026-03-29T08:21:08.708Z</time></trkpt><trkpt lat="45.5185988" lon="10.431831"><ele>192.0</ele><time>2026-03-29T08:21:09.708Z</time></trkpt><trkpt lat="45.518415" lon="10.4318197"><ele>192.0</ele><time>2026-03-29T08:21:10.709Z</time></trkpt><trkpt lat="45.5182309" lon="10.4318103"><ele>192.0</ele><time>2026-03-29T08:21:11.708Z</time></trkpt><trkpt lat="45.518048" lon="10.4317991"><ele>192.33333333333331</ele><time>2026-03-29T08:21:12.708Z</time></trkpt><trkpt lat="45.5178675" lon="10.4317872"><ele>192.66666666666666</ele><time>2026-03-29T08:21:13.708Z</time></trkpt><trkpt lat="45.5176874" lon="10.4317796"><ele>193.0</ele><time>2026-03-29T08:21:14.708Z</time></trkpt><trkpt lat="45.5175047" lon="10.4317728"><ele>193.0</ele><time>2026-03-29T08:21:15.708Z</time></trkpt><trkpt lat="45.5173213" lon="10.4317622"><ele>193.0</ele><time>2026-03-29T08:21:16.708Z</time></trkpt><trkpt lat="45.5171363" lon="10.4317482"><ele>193.0</ele><time>2026-03-29T08:21:17.708Z</time></trkpt><trkpt lat="45.516951" lon="10.4317149"><ele>192.0</ele><time>2026-03-29T08:21:18.708Z</time></trkpt><trkpt lat="45.5167644" lon="10.4316495"><ele>191.0</ele><time>2026-03-29T08:21:19.708Z</time></trkpt><trkpt lat="45.5165766" lon="10.431557"><ele>190.0</ele><time>2026-03-29T08:21:20.708Z</time></trkpt><trkpt lat="45.5163905" lon="10.4314501"><ele>188.33333333333334</ele><time>2026-03-29T08:21:21.708Z</time></trkpt><trkpt lat="45.5162054" lon="10.4313344"><ele>186.66666666666666</ele><time>2026-03-29T08:21:22.708Z</time></trkpt><trkpt lat="45.5160209" lon="10.4312161"><ele>185.0</ele><time>2026-03-29T08:21:23.708Z</time></trkpt><trkpt lat="45.5158464" lon="10.431103"><ele>185.0</ele><time>2026-03-29T08:21:24.708Z</time></trkpt><trkpt lat="45.5156815" lon="10.4309829"><ele>185.0</ele><time>2026-03-29T08:21:25.708Z</time></trkpt><trkpt lat="45.5155209" lon="10.4308461"><ele>185.0</ele><time>2026-03-29T08:21:26.708Z</time></trkpt><trkpt lat="45.5153682" lon="10.4306905"><ele>184.66666666666666</ele><time>2026-03-29T08:21:27.708Z</time></trkpt><trkpt lat="45.5152215" lon="10.4305198"><ele>184.33333333333334</ele><time>2026-03-29T08:21:28.708Z</time></trkpt><trkpt lat="45.5150654" lon="10.4303496"><ele>184.0</ele><time>2026-03-29T08:21:29.708Z</time></trkpt><trkpt lat="45.5148998" lon="10.4301906"><ele>184.0</ele><time>2026-03-29T08:21:30.708Z</time></trkpt><trkpt lat="45.5147245" lon="10.4300448"><ele>184.0</ele><time>2026-03-29T08:21:31.708Z</time></trkpt><trkpt lat="45.5145458" lon="10.4298995"><ele>184.0</ele><time>2026-03-29T08:21:32.708Z</time></trkpt><trkpt lat="45.5143374" lon="10.4297885"><ele>184.0</ele><time>2026-03-29T08:21:33.708Z</time></trkpt><trkpt lat="45.5141378" lon="10.4296763"><ele>184.0</ele><time>2026-03-29T08:21:34.708Z</time></trkpt><trkpt lat="45.5139317" lon="10.4295732"><ele>184.0</ele><time>2026-03-29T08:21:35.708Z</time></trkpt><trkpt lat="45.5137373" lon="10.4294673"><ele>184.0</ele><time>2026-03-29T08:21:36.708Z</time></trkpt><trkpt lat="45.5135519" lon="10.4293672"><ele>184.0</ele><time>2026-03-29T08:21:37.708Z</time></trkpt><trkpt lat="45.5133791" lon="10.4292748"><ele>184.0</ele><time>2026-03-29T08:21:38.708Z</time></trkpt><trkpt lat="45.5132148" lon="10.4291914"><ele>184.0</ele><time>2026-03-29T08:21:39.708Z</time></trkpt><trkpt lat="45.5130561" lon="10.4291119"><ele>184.0</ele><time>2026-03-29T08:21:40.708Z</time></trkpt><trkpt lat="45.512896" lon="10.4290301"><ele>184.0</ele><time>2026-03-29T08:21:41.708Z</time></trkpt><trkpt lat="45.5127402" lon="10.4289461"><ele>184.0</ele><time>2026-03-29T08:21:42.708Z</time></trkpt><trkpt lat="45.5125855" lon="10.4288604"><ele>184.0</ele><time>2026-03-29T08:21:43.709Z</time></trkpt><trkpt lat="45.5124378" lon="10.4287771"><ele>184.0</ele><time>2026-03-29T08:21:44.708Z</time></trkpt><trkpt lat="45.5122985" lon="10.4286986"><ele>184.25</ele><time>2026-03-29T08:21:45.708Z</time></trkpt><trkpt lat="45.5121627" lon="10.4286196"><ele>184.5</ele><time>2026-03-29T08:21:46.708Z</time></trkpt><trkpt lat="45.512032" lon="10.4285434"><ele>184.75</ele><time>2026-03-29T08:21:47.708Z</time></trkpt><trkpt lat="45.5119118" lon="10.4284739"><ele>185.0</ele><time>2026-03-29T08:21:48.708Z</time></trkpt><trkpt lat="45.5118052" lon="10.4284108"><ele>184.33333333333331</ele><time>2026-03-29T08:21:49.708Z</time></trkpt><trkpt lat="45.5117184" lon="10.4283427"><ele>183.66666666666666</ele><time>2026-03-29T08:21:50.708Z</time></trkpt><trkpt lat="45.5116633" lon="10.4282598"><ele>183.0</ele><time>2026-03-29T08:21:51.708Z</time></trkpt><trkpt lat="45.511644" lon="10.4281696"><ele>182.33333333333334</ele><time>2026-03-29T08:21:52.708Z</time></trkpt><trkpt lat="45.5116471" lon="10.4280724"><ele>181.66666666666669</ele><time>2026-03-29T08:21:53.708Z</time></trkpt><trkpt lat="45.5116808" lon="10.4279573"><ele>181.0</ele><time>2026-03-29T08:21:54.708Z</time></trkpt><trkpt lat="45.5117209" lon="10.4278367"><ele>180.60000000000002</ele><time>2026-03-29T08:21:55.708Z</time></trkpt><trkpt lat="45.5117692" lon="10.4277047"><ele>180.2</ele><time>2026-03-29T08:21:56.708Z</time></trkpt><trkpt lat="45.5118276" lon="10.4275696"><ele>179.8</ele><time>2026-03-29T08:21:57.708Z</time></trkpt><trkpt lat="45.5118877" lon="10.4274371"><ele>179.39999999999998</ele><time>2026-03-29T08:21:58.708Z</time></trkpt><trkpt lat="45.5119427" lon="10.4273026"><ele>179.0</ele><time>2026-03-29T08:21:59.708Z</time></trkpt><trkpt lat="45.5119932" lon="10.4271683"><ele>179.0</ele><time>2026-03-29T08:22:00.708Z</time></trkpt><trkpt lat="45.5120353" lon="10.4270311"><ele>179.0</ele><time>2026-03-29T08:22:01.708Z</time></trkpt><trkpt lat="45.5120644" lon="10.4268816"><ele>179.0</ele><time>2026-03-29T08:22:02.709Z</time></trkpt><trkpt lat="45.5120841" lon="10.4267166"><ele>179.0</ele><time>2026-03-29T08:22:03.708Z</time></trkpt><trkpt lat="45.5120896" lon="10.4265428"><ele>179.25</ele><time>2026-03-29T08:22:04.708Z</time></trkpt><trkpt lat="45.5120755" lon="10.4263695"><ele>179.5</ele><time>2026-03-29T08:22:05.708Z</time></trkpt><trkpt lat="45.512052" lon="10.4262059"><ele>179.75</ele><time>2026-03-29T08:22:06.708Z</time></trkpt><trkpt lat="45.5120316" lon="10.4260522"><ele>180.0</ele><time>2026-03-29T08:22:07.708Z</time></trkpt><trkpt lat="45.51201" lon="10.4259081"><ele>180.0</ele><time>2026-03-29T08:22:08.708Z</time></trkpt><trkpt lat="45.5119875" lon="10.4257622"><ele>180.0</ele><time>2026-03-29T08:22:09.708Z</time></trkpt><trkpt lat="45.5119637" lon="10.4256118"><ele>180.0</ele><time>2026-03-29T08:22:10.708Z</time></trkpt><trkpt lat="45.5119385" lon="10.4254532"><ele>180.0</ele><time>2026-03-29T08:22:11.708Z</time></trkpt><trkpt lat="45.5119136" lon="10.4252916"><ele>180.0</ele><time>2026-03-29T08:22:12.708Z</time></trkpt><trkpt lat="45.5118913" lon="10.4251438"><ele>180.4</ele><time>2026-03-29T08:22:13.708Z</time></trkpt><trkpt lat="45.5118716" lon="10.4250068"><ele>180.8</ele><time>2026-03-29T08:22:14.708Z</time></trkpt><trkpt lat="45.5118528" lon="10.4248833"><ele>181.2</ele><time>2026-03-29T08:22:15.708Z</time></trkpt><trkpt lat="45.51183" lon="10.4247819"><ele>181.6</ele><time>2026-03-29T08:22:16.708Z</time></trkpt><trkpt lat="45.511745" lon="10.4247304"><ele>182.0</ele><time>2026-03-29T08:22:18.708Z</time></trkpt><trkpt lat="45.5116572" lon="10.4248725"><ele>182.0</ele><time>2026-03-29T08:22:20.709Z</time></trkpt><trkpt lat="45.5115949" lon="10.4249856"><ele>182.0</ele><time>2026-03-29T08:22:21.708Z</time></trkpt><trkpt lat="45.511518" lon="10.425115"><ele>182.0</ele><time>2026-03-29T08:22:22.708Z</time></trkpt><trkpt lat="45.5114312" lon="10.425244"><ele>182.0</ele><time>2026-03-29T08:22:23.708Z</time></trkpt><trkpt lat="45.5113444" lon="10.42537"><ele>181.5</ele><time>2026-03-29T08:22:24.708Z</time></trkpt><trkpt lat="45.5112487" lon="10.4254903"><ele>181.0</ele><time>2026-03-29T08:22:25.708Z</time></trkpt><trkpt lat="45.5111587" lon="10.4255933"><ele>180.5</ele><time>2026-03-29T08:22:26.708Z</time></trkpt><trkpt lat="45.5110705" lon="10.4257079"><ele>180.0</ele><time>2026-03-29T08:22:27.708Z</time></trkpt><trkpt lat="45.5109915" lon="10.4258188"><ele>178.8</ele><time>2026-03-29T08:22:28.708Z</time></trkpt><trkpt lat="45.5109179" lon="10.4259217"><ele>177.6</ele><time>2026-03-29T08:22:29.708Z</time></trkpt><trkpt lat="45.5108465" lon="10.4260189"><ele>176.39999999999998</ele><time>2026-03-29T08:22:30.708Z</time></trkpt><trkpt lat="45.5107693" lon="10.4261316"><ele>175.2</ele><time>2026-03-29T08:22:31.708Z</time></trkpt><trkpt lat="45.5106764" lon="10.4262254"><ele>174.0</ele><time>2026-03-29T08:22:32.708Z</time></trkpt><trkpt lat="45.5105737" lon="10.4262614"><ele>174.0</ele><time>2026-03-29T08:22:33.708Z</time></trkpt><trkpt lat="45.5104727" lon="10.4262429"><ele>174.0</ele><time>2026-03-29T08:22:34.708Z</time></trkpt><trkpt lat="45.5103588" lon="10.4261814"><ele>174.0</ele><time>2026-03-29T08:22:35.708Z</time></trkpt><trkpt lat="45.510232" lon="10.42612"><ele>174.0</ele><time>2026-03-29T08:22:36.708Z</time></trkpt><trkpt lat="45.5100989" lon="10.4260622"><ele>173.5</ele><time>2026-03-29T08:22:37.708Z</time></trkpt><trkpt lat="45.5099634" lon="10.4259971"><ele>173.0</ele><time>2026-03-29T08:22:38.708Z</time></trkpt><trkpt lat="45.5098286" lon="10.4259353"><ele>172.5</ele><time>2026-03-29T08:22:39.708Z</time></trkpt><trkpt lat="45.5096888" lon="10.4258696"><ele>172.0</ele><time>2026-03-29T08:22:40.708Z</time></trkpt><trkpt lat="45.5095487" lon="10.425801"><ele>172.0</ele><time>2026-03-29T08:22:41.708Z</time></trkpt><trkpt lat="45.5094101" lon="10.4257326"><ele>172.0</ele><time>2026-03-29T08:22:42.708Z</time></trkpt><trkpt lat="45.5092767" lon="10.4256717"><ele>172.0</ele><time>2026-03-29T08:22:43.708Z</time></trkpt><trkpt lat="45.5091471" lon="10.4256189"><ele>172.0</ele><time>2026-03-29T08:22:44.708Z</time></trkpt><trkpt lat="45.5090302" lon="10.4255518"><ele>172.0</ele><time>2026-03-29T08:22:45.708Z</time></trkpt><trkpt lat="45.5089221" lon="10.4255007"><ele>172.0</ele><time>2026-03-29T08:22:46.708Z</time></trkpt><trkpt lat="45.5088391" lon="10.425452"><ele>172.0</ele><time>2026-03-29T08:22:47.708Z</time></trkpt><trkpt lat="45.5087882" lon="10.4253737"><ele>172.0</ele><time>2026-03-29T08:22:48.708Z</time></trkpt><trkpt lat="45.5087529" lon="10.4252836"><ele>172.0</ele><time>2026-03-29T08:22:49.708Z</time></trkpt><trkpt lat="45.5086903" lon="10.425246"><ele>172.0</ele><time>2026-03-29T08:22:50.708Z</time></trkpt><trkpt lat="45.5086155" lon="10.4252487"><ele>171.0</ele><time>2026-03-29T08:22:51.708Z</time></trkpt><trkpt lat="45.508532" lon="10.4252254"><ele>170.0</ele><time>2026-03-29T08:22:52.708Z</time></trkpt><trkpt lat="45.5084503" lon="10.4251383"><ele>169.0</ele><time>2026-03-29T08:22:53.708Z</time></trkpt><trkpt lat="45.5083506" lon="10.4250252"><ele>168.0</ele><time>2026-03-29T08:22:54.708Z</time></trkpt><trkpt lat="45.5082416" lon="10.4249094"><ele>168.0</ele><time>2026-03-29T08:22:55.708Z</time></trkpt><trkpt lat="45.5081216" lon="10.4247787"><ele>168.0</ele><time>2026-03-29T08:22:56.708Z</time></trkpt><trkpt lat="45.5080004" lon="10.4246375"><ele>168.0</ele><time>2026-03-29T08:22:57.708Z</time></trkpt><trkpt lat="45.5078865" lon="10.4245031"><ele>168.2</ele><time>2026-03-29T08:22:58.708Z</time></trkpt><trkpt lat="45.5077813" lon="10.4243854"><ele>168.4</ele><time>2026-03-29T08:22:59.708Z</time></trkpt><trkpt lat="45.5076913" lon="10.4242842"><ele>168.6</ele><time>2026-03-29T08:23:00.708Z</time></trkpt><trkpt lat="45.5076176" lon="10.4241959"><ele>168.79999999999998</ele><time>2026-03-29T08:23:01.708Z</time></trkpt><trkpt lat="45.5075493" lon="10.4241073"><ele>169.0</ele><time>2026-03-29T08:23:02.708Z</time></trkpt><trkpt lat="45.5075027" lon="10.4240003"><ele>169.0</ele><time>2026-03-29T08:23:03.708Z</time></trkpt><trkpt lat="45.5074556" lon="10.4238841"><ele>169.0</ele><time>2026-03-29T08:23:04.708Z</time></trkpt><trkpt lat="45.5073881" lon="10.4237874"><ele>169.0</ele><time>2026-03-29T08:23:05.708Z</time></trkpt><trkpt lat="45.5073041" lon="10.4237069"><ele>169.0</ele><time>2026-03-29T08:23:06.708Z</time></trkpt><trkpt lat="45.5072064" lon="10.423645"><ele>169.0</ele><time>2026-03-29T08:23:07.708Z</time></trkpt><trkpt lat="45.5071022" lon="10.4235979"><ele>168.5</ele><time>2026-03-29T08:23:08.708Z</time></trkpt><trkpt lat="45.5069905" lon="10.4235592"><ele>168.0</ele><time>2026-03-29T08:23:09.708Z</time></trkpt><trkpt lat="45.5068718" lon="10.4235281"><ele>167.5</ele><time>2026-03-29T08:23:10.708Z</time></trkpt><trkpt lat="45.5067449" lon="10.4235064"><ele>167.0</ele><time>2026-03-29T08:23:11.708Z</time></trkpt><trkpt lat="45.5066173" lon="10.4234903"><ele>167.0</ele><time>2026-03-29T08:23:12.708Z</time></trkpt><trkpt lat="45.5064911" lon="10.4234708"><ele>167.0</ele><time>2026-03-29T08:23:13.708Z</time></trkpt><trkpt lat="45.5063704" lon="10.4234544"><ele>167.0</ele><time>2026-03-29T08:23:14.708Z</time></trkpt><trkpt lat="45.5062539" lon="10.4234437"><ele>167.0</ele><time>2026-03-29T08:23:15.708Z</time></trkpt><trkpt lat="45.506142" lon="10.4234426"><ele>167.0</ele><time>2026-03-29T08:23:16.708Z</time></trkpt><trkpt lat="45.5060279" lon="10.4234415"><ele>167.0</ele><time>2026-03-29T08:23:17.708Z</time></trkpt><trkpt lat="45.5059141" lon="10.4234335"><ele>167.0</ele><time>2026-03-29T08:23:18.708Z</time></trkpt><trkpt lat="45.5058031" lon="10.4233994"><ele>167.0</ele><time>2026-03-29T08:23:19.708Z</time></trkpt><trkpt lat="45.5057029" lon="10.4233442"><ele>167.0</ele><time>2026-03-29T08:23:20.708Z</time></trkpt><trkpt lat="45.5056176" lon="10.423273"><ele>167.0</ele><time>2026-03-29T08:23:21.708Z</time></trkpt><trkpt lat="45.5055495" lon="10.4232101"><ele>167.0</ele><time>2026-03-29T08:23:22.708Z</time></trkpt><trkpt lat="45.5054846" lon="10.4231515"><ele>167.0</ele><time>2026-03-29T08:23:23.708Z</time></trkpt><trkpt lat="45.5054234" lon="10.4230928"><ele>167.0</ele><time>2026-03-29T08:23:24.708Z</time></trkpt><trkpt lat="45.5053575" lon="10.4230327"><ele>167.0</ele><time>2026-03-29T08:23:25.708Z</time></trkpt><trkpt lat="45.5052965" lon="10.4229788"><ele>167.0</ele><time>2026-03-29T08:23:26.708Z</time></trkpt><trkpt lat="45.5052361" lon="10.422927"><ele>167.2</ele><time>2026-03-29T08:23:27.708Z</time></trkpt><trkpt lat="45.5051724" lon="10.4228819"><ele>167.39999999999998</ele><time>2026-03-29T08:23:28.708Z</time></trkpt><trkpt lat="45.5050967" lon="10.4228574"><ele>167.60000000000002</ele><time>2026-03-29T08:23:29.708Z</time></trkpt><trkpt lat="45.5049999" lon="10.4228615"><ele>167.8</ele><time>2026-03-29T08:23:30.708Z</time></trkpt><trkpt lat="45.5048775" lon="10.4228558"><ele>168.0</ele><time>2026-03-29T08:23:31.708Z</time></trkpt><trkpt lat="45.5047443" lon="10.4228389"><ele>168.0</ele><time>2026-03-29T08:23:32.708Z</time></trkpt><trkpt lat="45.5046031" lon="10.422817"><ele>168.0</ele><time>2026-03-29T08:23:33.708Z</time></trkpt><trkpt lat="45.5044581" lon="10.4228091"><ele>168.0</ele><time>2026-03-29T08:23:34.708Z</time></trkpt><trkpt lat="45.5043075" lon="10.4228036"><ele>168.0</ele><time>2026-03-29T08:23:35.708Z</time></trkpt><trkpt lat="45.50418" lon="10.4227796"><ele>168.0</ele><time>2026-03-29T08:23:36.708Z</time></trkpt><trkpt lat="45.5040799" lon="10.4227619"><ele>168.0</ele><time>2026-03-29T08:23:37.708Z</time></trkpt><trkpt lat="45.5039723" lon="10.4227414"><ele>168.0</ele><time>2026-03-29T08:23:38.708Z</time></trkpt><trkpt lat="45.5038687" lon="10.4227147"><ele>168.0</ele><time>2026-03-29T08:23:39.708Z</time></trkpt><trkpt lat="45.5037699" lon="10.4226914"><ele>168.0</ele><time>2026-03-29T08:23:40.709Z</time></trkpt><trkpt lat="45.5036646" lon="10.4226956"><ele>167.75</ele><time>2026-03-29T08:23:41.708Z</time></trkpt><trkpt lat="45.503556" lon="10.4227416"><ele>167.5</ele><time>2026-03-29T08:23:42.708Z</time></trkpt><trkpt lat="45.5034498" lon="10.422783"><ele>167.25</ele><time>2026-03-29T08:23:43.708Z</time></trkpt><trkpt lat="45.5033405" lon="10.4228402"><ele>167.0</ele><time>2026-03-29T08:23:44.709Z</time></trkpt><trkpt lat="45.5032348" lon="10.4229109"><ele>166.75</ele><time>2026-03-29T08:23:45.708Z</time></trkpt><trkpt lat="45.5031221" lon="10.423002"><ele>166.5</ele><time>2026-03-29T08:23:46.708Z</time></trkpt><trkpt lat="45.5030005" lon="10.4230966"><ele>166.25</ele><time>2026-03-29T08:23:47.708Z</time></trkpt><trkpt lat="45.5028808" lon="10.4232093"><ele>166.0</ele><time>2026-03-29T08:23:48.708Z</time></trkpt><trkpt lat="45.5027595" lon="10.4233255"><ele>165.33333333333334</ele><time>2026-03-29T08:23:49.709Z</time></trkpt><trkpt lat="45.5026253" lon="10.4234264"><ele>164.66666666666666</ele><time>2026-03-29T08:23:50.708Z</time></trkpt><trkpt lat="45.5024834" lon="10.4234985"><ele>164.0</ele><time>2026-03-29T08:23:51.708Z</time></trkpt><trkpt lat="45.5023382" lon="10.4235465"><ele>164.0</ele><time>2026-03-29T08:23:52.708Z</time></trkpt><trkpt lat="45.5022002" lon="10.4235687"><ele>164.0</ele><time>2026-03-29T08:23:53.708Z</time></trkpt><trkpt lat="45.5020672" lon="10.4235678"><ele>164.0</ele><time>2026-03-29T08:23:54.708Z</time></trkpt><trkpt lat="45.5019444" lon="10.4235492"><ele>164.0</ele><time>2026-03-29T08:23:55.708Z</time></trkpt><trkpt lat="45.501834" lon="10.4235355"><ele>163.6</ele><time>2026-03-29T08:23:56.709Z</time></trkpt><trkpt lat="45.5017322" lon="10.4235494"><ele>163.2</ele><time>2026-03-29T08:23:57.708Z</time></trkpt><trkpt lat="45.501635" lon="10.4235701"><ele>162.79999999999998</ele><time>2026-03-29T08:23:58.708Z</time></trkpt><trkpt lat="45.5015438" lon="10.4235846"><ele>162.39999999999998</ele><time>2026-03-29T08:23:59.708Z</time></trkpt><trkpt lat="45.5014619" lon="10.4235969"><ele>162.0</ele><time>2026-03-29T08:24:00.708Z</time></trkpt><trkpt lat="45.5013862" lon="10.4236078"><ele>162.0</ele><time>2026-03-29T08:24:01.708Z</time></trkpt><trkpt lat="45.5013146" lon="10.4236164"><ele>162.0</ele><time>2026-03-29T08:24:02.708Z</time></trkpt><trkpt lat="45.5012345" lon="10.4236211"><ele>162.0</ele><time>2026-03-29T08:24:03.708Z</time></trkpt><trkpt lat="45.5011508" lon="10.4236288"><ele>162.0</ele><time>2026-03-29T08:24:04.708Z</time></trkpt><trkpt lat="45.5010666" lon="10.4236325"><ele>162.0</ele><time>2026-03-29T08:24:05.708Z</time></trkpt><trkpt lat="45.5009798" lon="10.4236336"><ele>162.0</ele><time>2026-03-29T08:24:06.708Z</time></trkpt><trkpt lat="45.5008922" lon="10.4236399"><ele>161.8</ele><time>2026-03-29T08:24:07.708Z</time></trkpt><trkpt lat="45.5008026" lon="10.4236509"><ele>161.6</ele><time>2026-03-29T08:24:08.708Z</time></trkpt><trkpt lat="45.5007086" lon="10.4236622"><ele>161.4</ele><time>2026-03-29T08:24:09.708Z</time></trkpt><trkpt lat="45.5006087" lon="10.4236711"><ele>161.20000000000002</ele><time>2026-03-29T08:24:10.709Z</time></trkpt><trkpt lat="45.5005034" lon="10.4236851"><ele>161.0</ele><time>2026-03-29T08:24:11.708Z</time></trkpt><trkpt lat="45.5003977" lon="10.4236994"><ele>160.8</ele><time>2026-03-29T08:24:12.708Z</time></trkpt><trkpt lat="45.5002926" lon="10.4237132"><ele>160.60000000000002</ele><time>2026-03-29T08:24:13.708Z</time></trkpt><trkpt lat="45.5001862" lon="10.4237229"><ele>160.4</ele><time>2026-03-29T08:24:14.708Z</time></trkpt><trkpt lat="45.5000841" lon="10.4237446"><ele>160.2</ele><time>2026-03-29T08:24:15.708Z</time></trkpt><trkpt lat="45.4999932" lon="10.4237807"><ele>160.0</ele><time>2026-03-29T08:24:16.708Z</time></trkpt><trkpt lat="45.4999006" lon="10.4238289"><ele>159.8</ele><time>2026-03-29T08:24:17.708Z</time></trkpt><trkpt lat="45.4998108" lon="10.4238812"><ele>159.6</ele><time>2026-03-29T08:24:18.708Z</time></trkpt><trkpt lat="45.4997215" lon="10.4239395"><ele>159.4</ele><time>2026-03-29T08:24:19.708Z</time></trkpt><trkpt lat="45.4996329" lon="10.4239993"><ele>159.2</ele><time>2026-03-29T08:24:20.708Z</time></trkpt><trkpt lat="45.4995402" lon="10.4240588"><ele>159.0</ele><time>2026-03-29T08:24:21.709Z</time></trkpt><trkpt lat="45.4994464" lon="10.4241234"><ele>159.0</ele><time>2026-03-29T08:24:22.708Z</time></trkpt><trkpt lat="45.4993512" lon="10.42419"><ele>159.0</ele><time>2026-03-29T08:24:23.708Z</time></trkpt><trkpt lat="45.4992536" lon="10.4242577"><ele>159.0</ele><time>2026-03-29T08:24:24.708Z</time></trkpt><trkpt lat="45.4991487" lon="10.4243293"><ele>159.0</ele><time>2026-03-29T08:24:25.708Z</time></trkpt><trkpt lat="45.4990394" lon="10.4243969"><ele>159.0</ele><time>2026-03-29T08:24:26.708Z</time></trkpt><trkpt lat="45.4989282" lon="10.4244655"><ele>159.0</ele><time>2026-03-29T08:24:27.708Z</time></trkpt><trkpt lat="45.4988161" lon="10.4245291"><ele>159.0</ele><time>2026-03-29T08:24:28.708Z</time></trkpt><trkpt lat="45.4987027" lon="10.4245926"><ele>159.0</ele><time>2026-03-29T08:24:29.708Z</time></trkpt><trkpt lat="45.4985904" lon="10.4246609"><ele>159.0</ele><time>2026-03-29T08:24:30.708Z</time></trkpt><trkpt lat="45.4984794" lon="10.4247323"><ele>159.0</ele><time>2026-03-29T08:24:31.708Z</time></trkpt><trkpt lat="45.4983722" lon="10.4248086"><ele>159.0</ele><time>2026-03-29T08:24:32.708Z</time></trkpt><trkpt lat="45.4982671" lon="10.4248856"><ele>159.0</ele><time>2026-03-29T08:24:33.709Z</time></trkpt><trkpt lat="45.4981538" lon="10.42497"><ele>159.0</ele><time>2026-03-29T08:24:34.708Z</time></trkpt><trkpt lat="45.4980393" lon="10.4250492"><ele>159.0</ele><time>2026-03-29T08:24:35.709Z</time></trkpt><trkpt lat="45.4979266" lon="10.4251293"><ele>159.0</ele><time>2026-03-29T08:24:36.708Z</time></trkpt><trkpt lat="45.497814" lon="10.4252124"><ele>159.0</ele><time>2026-03-29T08:24:37.708Z</time></trkpt><trkpt lat="45.4977007" lon="10.4252985"><ele>158.5</ele><time>2026-03-29T08:24:38.708Z</time></trkpt><trkpt lat="45.4975922" lon="10.4253817"><ele>158.0</ele><time>2026-03-29T08:24:39.709Z</time></trkpt><trkpt lat="45.4974797" lon="10.4254738"><ele>157.5</ele><time>2026-03-29T08:24:40.708Z</time></trkpt><trkpt lat="45.4973671" lon="10.4255641"><ele>157.0</ele><time>2026-03-29T08:24:41.708Z</time></trkpt><trkpt lat="45.497256" lon="10.4256564"><ele>157.0</ele><time>2026-03-29T08:24:42.708Z</time></trkpt><trkpt lat="45.4971567" lon="10.4257507"><ele>157.0</ele><time>2026-03-29T08:24:43.708Z</time></trkpt><trkpt lat="45.4970653" lon="10.4258442"><ele>157.0</ele><time>2026-03-29T08:24:44.708Z</time></trkpt><trkpt lat="45.4969795" lon="10.4259314"><ele>157.0</ele><time>2026-03-29T08:24:45.708Z</time></trkpt><trkpt lat="45.4968974" lon="10.4260162"><ele>157.0</ele><time>2026-03-29T08:24:46.708Z</time></trkpt><trkpt lat="45.4968161" lon="10.4261021"><ele>157.0</ele><time>2026-03-29T08:24:47.708Z</time></trkpt><trkpt lat="45.4967427" lon="10.4261837"><ele>157.0</ele><time>2026-03-29T08:24:48.708Z</time></trkpt><trkpt lat="45.4966759" lon="10.4262652"><ele>157.0</ele><time>2026-03-29T08:24:49.708Z</time></trkpt><trkpt lat="45.4966075" lon="10.4263509"><ele>157.0</ele><time>2026-03-29T08:24:50.709Z</time></trkpt><trkpt lat="45.4965381" lon="10.4264392"><ele>157.0</ele><time>2026-03-29T08:24:51.708Z</time></trkpt><trkpt lat="45.4964611" lon="10.4265284"><ele>157.0</ele><time>2026-03-29T08:24:52.708Z</time></trkpt><trkpt lat="45.49638" lon="10.4266217"><ele>157.0</ele><time>2026-03-29T08:24:53.708Z</time></trkpt><trkpt lat="45.4963007" lon="10.4267139"><ele>157.0</ele><time>2026-03-29T08:24:54.708Z</time></trkpt><trkpt lat="45.4962175" lon="10.4268097"><ele>157.0</ele><time>2026-03-29T08:24:55.708Z</time></trkpt><trkpt lat="45.4961331" lon="10.4269074"><ele>157.0</ele><time>2026-03-29T08:24:56.708Z</time></trkpt><trkpt lat="45.496049" lon="10.4270064"><ele>157.0</ele><time>2026-03-29T08:24:57.708Z</time></trkpt><trkpt lat="45.4959643" lon="10.4271079"><ele>157.0</ele><time>2026-03-29T08:24:58.708Z</time></trkpt><trkpt lat="45.4958784" lon="10.4272095"><ele>157.0</ele><time>2026-03-29T08:24:59.708Z</time></trkpt><trkpt lat="45.4957854" lon="10.4273102"><ele>157.0</ele><time>2026-03-29T08:25:00.708Z</time></trkpt><trkpt lat="45.4956911" lon="10.4274042"><ele>157.0</ele><time>2026-03-29T08:25:01.708Z</time></trkpt><trkpt lat="45.4955935" lon="10.4275004"><ele>157.0</ele><time>2026-03-29T08:25:02.709Z</time></trkpt><trkpt lat="45.4954963" lon="10.42759"><ele>157.0</ele><time>2026-03-29T08:25:03.708Z</time></trkpt><trkpt lat="45.4953948" lon="10.42768"><ele>157.0</ele><time>2026-03-29T08:25:04.708Z</time></trkpt><trkpt lat="45.4952941" lon="10.4277667"><ele>156.75</ele><time>2026-03-29T08:25:05.708Z</time></trkpt><trkpt lat="45.4951914" lon="10.4278607"><ele>156.5</ele><time>2026-03-29T08:25:06.708Z</time></trkpt><trkpt lat="45.4950887" lon="10.4279497"><ele>156.25</ele><time>2026-03-29T08:25:07.709Z</time></trkpt><trkpt lat="45.4949864" lon="10.4280422"><ele>156.0</ele><time>2026-03-29T08:25:08.708Z</time></trkpt><trkpt lat="45.4948808" lon="10.4281325"><ele>155.75</ele><time>2026-03-29T08:25:09.708Z</time></trkpt><trkpt lat="45.4947794" lon="10.428224"><ele>155.5</ele><time>2026-03-29T08:25:10.708Z</time></trkpt><trkpt lat="45.4946802" lon="10.4283158"><ele>155.25</ele><time>2026-03-29T08:25:11.708Z</time></trkpt><trkpt lat="45.4945823" lon="10.4284049"><ele>155.0</ele><time>2026-03-29T08:25:12.708Z</time></trkpt><trkpt lat="45.4944849" lon="10.4284948"><ele>155.0</ele><time>2026-03-29T08:25:13.709Z</time></trkpt><trkpt lat="45.4943872" lon="10.4285807"><ele>155.0</ele><time>2026-03-29T08:25:14.708Z</time></trkpt><trkpt lat="45.4942928" lon="10.4286632"><ele>155.0</ele><time>2026-03-29T08:25:15.708Z</time></trkpt><trkpt lat="45.4942011" lon="10.4287475"><ele>155.0</ele><time>2026-03-29T08:25:16.708Z</time></trkpt><trkpt lat="45.494105" lon="10.4288321"><ele>155.0</ele><time>2026-03-29T08:25:17.708Z</time></trkpt><trkpt lat="45.4940113" lon="10.4289167"><ele>155.2</ele><time>2026-03-29T08:25:18.708Z</time></trkpt><trkpt lat="45.4939168" lon="10.4290073"><ele>155.4</ele><time>2026-03-29T08:25:19.708Z</time></trkpt><trkpt lat="45.4938226" lon="10.4290971"><ele>155.6</ele><time>2026-03-29T08:25:20.708Z</time></trkpt><trkpt lat="45.4937309" lon="10.4291871"><ele>155.8</ele><time>2026-03-29T08:25:21.708Z</time></trkpt><trkpt lat="45.4936468" lon="10.4292684"><ele>156.0</ele><time>2026-03-29T08:25:22.708Z</time></trkpt><trkpt lat="45.4935695" lon="10.4293472"><ele>155.66666666666666</ele><time>2026-03-29T08:25:23.708Z</time></trkpt><trkpt lat="45.4934992" lon="10.4294234"><ele>155.33333333333334</ele><time>2026-03-29T08:25:24.708Z</time></trkpt><trkpt lat="45.4934365" lon="10.4294975"><ele>155.0</ele><time>2026-03-29T08:25:25.708Z</time></trkpt><trkpt lat="45.4933731" lon="10.4295787"><ele>154.66666666666669</ele><time>2026-03-29T08:25:26.708Z</time></trkpt><trkpt lat="45.4933165" lon="10.4296461"><ele>154.33333333333334</ele><time>2026-03-29T08:25:27.708Z</time></trkpt><trkpt lat="45.4932168" lon="10.4297377"><ele>154.0</ele><time>2026-03-29T08:25:29.708Z</time></trkpt><trkpt lat="45.4931446" lon="10.4297483"><ele>154.0</ele><time>2026-03-29T08:25:30.708Z</time></trkpt><trkpt lat="45.4930613" lon="10.4297245"><ele>154.0</ele><time>2026-03-29T08:25:31.708Z</time></trkpt><trkpt lat="45.4929717" lon="10.4296645"><ele>154.0</ele><time>2026-03-29T08:25:32.708Z</time></trkpt><trkpt lat="45.4928816" lon="10.42958"><ele>154.0</ele><time>2026-03-29T08:25:33.709Z</time></trkpt><trkpt lat="45.4927841" lon="10.429479"><ele>154.0</ele><time>2026-03-29T08:25:34.708Z</time></trkpt><trkpt lat="45.492672" lon="10.4293761"><ele>154.0</ele><time>2026-03-29T08:25:35.708Z</time></trkpt><trkpt lat="45.4925388" lon="10.4292992"><ele>154.0</ele><time>2026-03-29T08:25:36.708Z</time></trkpt><trkpt lat="45.4923879" lon="10.4292671"><ele>154.0</ele><time>2026-03-29T08:25:37.708Z</time></trkpt><trkpt lat="45.4922306" lon="10.4292658"><ele>153.66666666666669</ele><time>2026-03-29T08:25:38.708Z</time></trkpt><trkpt lat="45.4920667" lon="10.4292683"><ele>153.33333333333334</ele><time>2026-03-29T08:25:39.708Z</time></trkpt><trkpt lat="45.4918985" lon="10.4292648"><ele>153.0</ele><time>2026-03-29T08:25:40.708Z</time></trkpt><trkpt lat="45.4917264" lon="10.4292642"><ele>153.0</ele><time>2026-03-29T08:25:41.708Z</time></trkpt><trkpt lat="45.4915652" lon="10.4292559"><ele>153.0</ele><time>2026-03-29T08:25:42.708Z</time></trkpt><trkpt lat="45.4914177" lon="10.4292398"><ele>153.0</ele><time>2026-03-29T08:25:43.708Z</time></trkpt><trkpt lat="45.4912799" lon="10.429219"><ele>153.0</ele><time>2026-03-29T08:25:44.708Z</time></trkpt><trkpt lat="45.4911512" lon="10.429188"><ele>153.4</ele><time>2026-03-29T08:25:45.708Z</time></trkpt><trkpt lat="45.4910389" lon="10.429186"><ele>153.8</ele><time>2026-03-29T08:25:46.708Z</time></trkpt><trkpt lat="45.490942" lon="10.4292292"><ele>154.2</ele><time>2026-03-29T08:25:47.708Z</time></trkpt><trkpt lat="45.4908728" lon="10.4293148"><ele>154.6</ele><time>2026-03-29T08:25:48.708Z</time></trkpt><trkpt lat="45.4908244" lon="10.4294422"><ele>155.0</ele><time>2026-03-29T08:25:49.708Z</time></trkpt><trkpt lat="45.4907915" lon="10.4296023"><ele>154.75</ele><time>2026-03-29T08:25:50.708Z</time></trkpt><trkpt lat="45.4907616" lon="10.4297833"><ele>154.5</ele><time>2026-03-29T08:25:51.708Z</time></trkpt><trkpt lat="45.4907288" lon="10.4299824"><ele>154.25</ele><time>2026-03-29T08:25:52.708Z</time></trkpt><trkpt lat="45.4906949" lon="10.4301876"><ele>154.0</ele><time>2026-03-29T08:25:53.708Z</time></trkpt><trkpt lat="45.4906625" lon="10.4304066"><ele>153.0</ele><time>2026-03-29T08:25:54.708Z</time></trkpt><trkpt lat="45.490629" lon="10.4306239"><ele>152.0</ele><time>2026-03-29T08:25:55.708Z</time></trkpt><trkpt lat="45.4905974" lon="10.4308239"><ele>151.0</ele><time>2026-03-29T08:25:56.708Z</time></trkpt><trkpt lat="45.4905684" lon="10.4310148"><ele>150.0</ele><time>2026-03-29T08:25:57.708Z</time></trkpt><trkpt lat="45.4905289" lon="10.4311892"><ele>150.25</ele><time>2026-03-29T08:25:58.708Z</time></trkpt><trkpt lat="45.4904562" lon="10.4313251"><ele>150.5</ele><time>2026-03-29T08:25:59.708Z</time></trkpt><trkpt lat="45.4903501" lon="10.4314149"><ele>150.75</ele><time>2026-03-29T08:26:00.708Z</time></trkpt><trkpt lat="45.4902186" lon="10.4314803"><ele>151.0</ele><time>2026-03-29T08:26:01.708Z</time></trkpt><trkpt lat="45.4900701" lon="10.431545"><ele>151.0</ele><time>2026-03-29T08:26:02.708Z</time></trkpt><trkpt lat="45.4899113" lon="10.431618"><ele>151.0</ele><time>2026-03-29T08:26:03.708Z</time></trkpt><trkpt lat="45.48974" lon="10.4316831"><ele>151.0</ele><time>2026-03-29T08:26:04.708Z</time></trkpt><trkpt lat="45.4895599" lon="10.4317191"><ele>150.66666666666669</ele><time>2026-03-29T08:26:05.708Z</time></trkpt><trkpt lat="45.4893781" lon="10.4317377"><ele>150.33333333333334</ele><time>2026-03-29T08:26:06.708Z</time></trkpt><trkpt lat="45.4891962" lon="10.4317554"><ele>150.0</ele><time>2026-03-29T08:26:07.708Z</time></trkpt><trkpt lat="45.4890257" lon="10.4317817"><ele>150.0</ele><time>2026-03-29T08:26:08.708Z</time></trkpt><trkpt lat="45.4888667" lon="10.4318138"><ele>150.0</ele><time>2026-03-29T08:26:09.708Z</time></trkpt><trkpt lat="45.4887123" lon="10.4318487"><ele>150.0</ele><time>2026-03-29T08:26:10.708Z</time></trkpt><trkpt lat="45.4885546" lon="10.4318953"><ele>150.0</ele><time>2026-03-29T08:26:11.708Z</time></trkpt><trkpt lat="45.4883987" lon="10.4319593"><ele>150.0</ele><time>2026-03-29T08:26:12.708Z</time></trkpt><trkpt lat="45.4882433" lon="10.4320327"><ele>150.0</ele><time>2026-03-29T08:26:13.708Z</time></trkpt><trkpt lat="45.4880847" lon="10.4321036"><ele>150.33333333333334</ele><time>2026-03-29T08:26:14.708Z</time></trkpt><trkpt lat="45.4879267" lon="10.432176"><ele>150.66666666666669</ele><time>2026-03-29T08:26:15.708Z</time></trkpt><trkpt lat="45.4877671" lon="10.432251"><ele>151.0</ele><time>2026-03-29T08:26:16.708Z</time></trkpt><trkpt lat="45.487608" lon="10.4323253"><ele>151.0</ele><time>2026-03-29T08:26:17.708Z</time></trkpt><trkpt lat="45.4874495" lon="10.4323986"><ele>151.0</ele><time>2026-03-29T08:26:18.708Z</time></trkpt><trkpt lat="45.4872911" lon="10.4324749"><ele>151.0</ele><time>2026-03-29T08:26:19.708Z</time></trkpt><trkpt lat="45.4871318" lon="10.4325451"><ele>151.0</ele><time>2026-03-29T08:26:20.708Z</time></trkpt><trkpt lat="45.4869715" lon="10.4326046"><ele>151.0</ele><time>2026-03-29T08:26:21.708Z</time></trkpt><trkpt lat="45.4868083" lon="10.4326588"><ele>151.0</ele><time>2026-03-29T08:26:22.708Z</time></trkpt><trkpt lat="45.4866424" lon="10.4327046"><ele>151.0</ele><time>2026-03-29T08:26:23.708Z</time></trkpt><trkpt lat="45.486475" lon="10.4327505"><ele>151.0</ele><time>2026-03-29T08:26:24.708Z</time></trkpt><trkpt lat="45.4863104" lon="10.4327873"><ele>151.0</ele><time>2026-03-29T08:26:25.708Z</time></trkpt><trkpt lat="45.4861443" lon="10.432822"><ele>150.33333333333334</ele><time>2026-03-29T08:26:26.708Z</time></trkpt><trkpt lat="45.4859771" lon="10.4328287"><ele>149.66666666666666</ele><time>2026-03-29T08:26:27.708Z</time></trkpt><trkpt lat="45.4858183" lon="10.4327766"><ele>149.0</ele><time>2026-03-29T08:26:28.708Z</time></trkpt><trkpt lat="45.4856671" lon="10.4326845"><ele>149.0</ele><time>2026-03-29T08:26:29.708Z</time></trkpt><trkpt lat="45.485514" lon="10.4325795"><ele>149.0</ele><time>2026-03-29T08:26:30.708Z</time></trkpt><trkpt lat="45.4853532" lon="10.4324783"><ele>149.0</ele><time>2026-03-29T08:26:31.708Z</time></trkpt><trkpt lat="45.4851926" lon="10.432384"><ele>149.0</ele><time>2026-03-29T08:26:32.708Z</time></trkpt><trkpt lat="45.4850339" lon="10.4323012"><ele>149.0</ele><time>2026-03-29T08:26:33.708Z</time></trkpt><trkpt lat="45.4848689" lon="10.4322339"><ele>149.0</ele><time>2026-03-29T08:26:34.708Z</time></trkpt><trkpt lat="45.4847027" lon="10.4321835"><ele>148.66666666666666</ele><time>2026-03-29T08:26:35.708Z</time></trkpt><trkpt lat="45.4845354" lon="10.43213"><ele>148.33333333333334</ele><time>2026-03-29T08:26:36.708Z</time></trkpt><trkpt lat="45.4843697" lon="10.4320725"><ele>148.0</ele><time>2026-03-29T08:26:37.708Z</time></trkpt><trkpt lat="45.484205" lon="10.4320098"><ele>148.0</ele><time>2026-03-29T08:26:38.708Z</time></trkpt><trkpt lat="45.484038" lon="10.4319502"><ele>148.0</ele><time>2026-03-29T08:26:39.708Z</time></trkpt><trkpt lat="45.4838718" lon="10.4318853"><ele>148.0</ele><time>2026-03-29T08:26:40.708Z</time></trkpt><trkpt lat="45.4837091" lon="10.4318206"><ele>147.0</ele><time>2026-03-29T08:26:41.708Z</time></trkpt><trkpt lat="45.4835519" lon="10.4317597"><ele>146.0</ele><time>2026-03-29T08:26:42.708Z</time></trkpt><trkpt lat="45.4833924" lon="10.4317027"><ele>145.0</ele><time>2026-03-29T08:26:43.708Z</time></trkpt><trkpt lat="45.483231" lon="10.4316464"><ele>145.0</ele><time>2026-03-29T08:26:44.708Z</time></trkpt><trkpt lat="45.4830663" lon="10.4315958"><ele>145.0</ele><time>2026-03-29T08:26:45.708Z</time></trkpt><trkpt lat="45.482901" lon="10.4315499"><ele>145.0</ele><time>2026-03-29T08:26:46.708Z</time></trkpt><trkpt lat="45.4827348" lon="10.43151"><ele>145.33333333333334</ele><time>2026-03-29T08:26:47.708Z</time></trkpt><trkpt lat="45.4825679" lon="10.4314727"><ele>145.66666666666666</ele><time>2026-03-29T08:26:48.708Z</time></trkpt><trkpt lat="45.4823997" lon="10.4314396"><ele>146.0</ele><time>2026-03-29T08:26:49.708Z</time></trkpt><trkpt lat="45.4822325" lon="10.4314097"><ele>145.66666666666666</ele><time>2026-03-29T08:26:50.708Z</time></trkpt><trkpt lat="45.4820674" lon="10.431391"><ele>145.33333333333334</ele><time>2026-03-29T08:26:51.708Z</time></trkpt><trkpt lat="45.4819033" lon="10.4313905"><ele>145.0</ele><time>2026-03-29T08:26:52.708Z</time></trkpt><trkpt lat="45.4817401" lon="10.4314032"><ele>145.0</ele><time>2026-03-29T08:26:53.708Z</time></trkpt><trkpt lat="45.4815831" lon="10.4314211"><ele>145.0</ele><time>2026-03-29T08:26:54.708Z</time></trkpt><trkpt lat="45.4814351" lon="10.4314417"><ele>145.0</ele><time>2026-03-29T08:26:55.708Z</time></trkpt><trkpt lat="45.4812897" lon="10.431461"><ele>144.75</ele><time>2026-03-29T08:26:56.708Z</time></trkpt><trkpt lat="45.4811478" lon="10.4314683"><ele>144.5</ele><time>2026-03-29T08:26:57.708Z</time></trkpt><trkpt lat="45.4810052" lon="10.4314564"><ele>144.25</ele><time>2026-03-29T08:26:58.708Z</time></trkpt><trkpt lat="45.4808624" lon="10.4314173"><ele>144.0</ele><time>2026-03-29T08:26:59.708Z</time></trkpt><trkpt lat="45.4807224" lon="10.4313467"><ele>144.33333333333334</ele><time>2026-03-29T08:27:00.708Z</time></trkpt><trkpt lat="45.4805817" lon="10.43126"><ele>144.66666666666669</ele><time>2026-03-29T08:27:01.708Z</time></trkpt><trkpt lat="45.4804386" lon="10.43117"><ele>145.0</ele><time>2026-03-29T08:27:02.708Z</time></trkpt><trkpt lat="45.4802961" lon="10.4310687"><ele>144.33333333333334</ele><time>2026-03-29T08:27:03.709Z</time></trkpt><trkpt lat="45.4801545" lon="10.4309647"><ele>143.66666666666666</ele><time>2026-03-29T08:27:04.708Z</time></trkpt><trkpt lat="45.4800109" lon="10.43086"><ele>143.0</ele><time>2026-03-29T08:27:05.708Z</time></trkpt><trkpt lat="45.4798653" lon="10.4307617"><ele>143.0</ele><time>2026-03-29T08:27:06.708Z</time></trkpt><trkpt lat="45.4797163" lon="10.4306746"><ele>143.0</ele><time>2026-03-29T08:27:07.708Z</time></trkpt><trkpt lat="45.4795655" lon="10.4305999"><ele>143.0</ele><time>2026-03-29T08:27:08.708Z</time></trkpt><trkpt lat="45.4794126" lon="10.4305362"><ele>142.75</ele><time>2026-03-29T08:27:09.708Z</time></trkpt><trkpt lat="45.4792619" lon="10.4304773"><ele>142.5</ele><time>2026-03-29T08:27:10.708Z</time></trkpt><trkpt lat="45.4791159" lon="10.4304236"><ele>142.25</ele><time>2026-03-29T08:27:11.708Z</time></trkpt><trkpt lat="45.4789775" lon="10.4303767"><ele>142.0</ele><time>2026-03-29T08:27:12.708Z</time></trkpt><trkpt lat="45.4788398" lon="10.4303337"><ele>141.75</ele><time>2026-03-29T08:27:13.708Z</time></trkpt><trkpt lat="45.4787036" lon="10.4302928"><ele>141.5</ele><time>2026-03-29T08:27:14.708Z</time></trkpt><trkpt lat="45.4785663" lon="10.4302494"><ele>141.25</ele><time>2026-03-29T08:27:15.708Z</time></trkpt><trkpt lat="45.4784207" lon="10.4302023"><ele>141.0</ele><time>2026-03-29T08:27:16.708Z</time></trkpt><trkpt lat="45.4782686" lon="10.4301589"><ele>141.0</ele><time>2026-03-29T08:27:17.708Z</time></trkpt><trkpt lat="45.4781152" lon="10.4301144"><ele>141.0</ele><time>2026-03-29T08:27:18.708Z</time></trkpt><trkpt lat="45.4779673" lon="10.4300739"><ele>141.0</ele><time>2026-03-29T08:27:19.708Z</time></trkpt><trkpt lat="45.4778214" lon="10.430041"><ele>140.75</ele><time>2026-03-29T08:27:20.708Z</time></trkpt><trkpt lat="45.4776796" lon="10.430016"><ele>140.5</ele><time>2026-03-29T08:27:21.708Z</time></trkpt><trkpt lat="45.4775417" lon="10.4299923"><ele>140.25</ele><time>2026-03-29T08:27:22.708Z</time></trkpt><trkpt lat="45.4774103" lon="10.4299718"><ele>140.0</ele><time>2026-03-29T08:27:23.708Z</time></trkpt><trkpt lat="45.4773043" lon="10.4299794"><ele>140.0</ele><time>2026-03-29T08:27:24.708Z</time></trkpt><trkpt lat="45.4772199" lon="10.4300263"><ele>140.0</ele><time>2026-03-29T08:27:25.708Z</time></trkpt><trkpt lat="45.4771588" lon="10.4301086"><ele>140.0</ele><time>2026-03-29T08:27:26.708Z</time></trkpt><trkpt lat="45.4771139" lon="10.4302224"><ele>140.0</ele><time>2026-03-29T08:27:27.708Z</time></trkpt><trkpt lat="45.4770804" lon="10.4303557"><ele>140.0</ele><time>2026-03-29T08:27:28.708Z</time></trkpt><trkpt lat="45.4770488" lon="10.4304941"><ele>139.8</ele><time>2026-03-29T08:27:29.708Z</time></trkpt><trkpt lat="45.477012" lon="10.4306399"><ele>139.6</ele><time>2026-03-29T08:27:30.708Z</time></trkpt><trkpt lat="45.4769685" lon="10.4307745"><ele>139.4</ele><time>2026-03-29T08:27:31.708Z</time></trkpt><trkpt lat="45.4769025" lon="10.4308816"><ele>139.2</ele><time>2026-03-29T08:27:32.708Z</time></trkpt><trkpt lat="45.4768103" lon="10.4309417"><ele>139.0</ele><time>2026-03-29T08:27:33.708Z</time></trkpt><trkpt lat="45.4767082" lon="10.4309562"><ele>139.0</ele><time>2026-03-29T08:27:34.708Z</time></trkpt><trkpt lat="45.4765961" lon="10.4309275"><ele>139.0</ele><time>2026-03-29T08:27:35.708Z</time></trkpt><trkpt lat="45.4764762" lon="10.4308695"><ele>139.0</ele><time>2026-03-29T08:27:36.708Z</time></trkpt><trkpt lat="45.4763442" lon="10.4308053"><ele>139.0</ele><time>2026-03-29T08:27:37.708Z</time></trkpt><trkpt lat="45.4762026" lon="10.4307415"><ele>139.25</ele><time>2026-03-29T08:27:38.708Z</time></trkpt><trkpt lat="45.476058" lon="10.4306856"><ele>139.5</ele><time>2026-03-29T08:27:39.708Z</time></trkpt><trkpt lat="45.4759236" lon="10.4306251"><ele>139.75</ele><time>2026-03-29T08:27:40.708Z</time></trkpt><trkpt lat="45.4757886" lon="10.4305612"><ele>140.0</ele><time>2026-03-29T08:27:41.708Z</time></trkpt><trkpt lat="45.4756474" lon="10.4304924"><ele>139.66666666666666</ele><time>2026-03-29T08:27:42.708Z</time></trkpt><trkpt lat="45.4755069" lon="10.4304098"><ele>139.33333333333334</ele><time>2026-03-29T08:27:43.708Z</time></trkpt><trkpt lat="45.4753656" lon="10.430317"><ele>139.0</ele><time>2026-03-29T08:27:44.708Z</time></trkpt><trkpt lat="45.4752165" lon="10.4302305"><ele>139.0</ele><time>2026-03-29T08:27:45.708Z</time></trkpt><trkpt lat="45.4750597" lon="10.4301551"><ele>139.0</ele><time>2026-03-29T08:27:46.708Z</time></trkpt><trkpt lat="45.4749012" lon="10.4300767"><ele>139.0</ele><time>2026-03-29T08:27:47.708Z</time></trkpt><trkpt lat="45.4747398" lon="10.4299931"><ele>138.66666666666669</ele><time>2026-03-29T08:27:48.708Z</time></trkpt><trkpt lat="45.4745806" lon="10.4299074"><ele>138.33333333333334</ele><time>2026-03-29T08:27:49.708Z</time></trkpt><trkpt lat="45.4744308" lon="10.4298271"><ele>138.0</ele><time>2026-03-29T08:27:50.708Z</time></trkpt><trkpt lat="45.4742875" lon="10.4297572"><ele>138.0</ele><time>2026-03-29T08:27:51.708Z</time></trkpt><trkpt lat="45.4741514" lon="10.4296907"><ele>138.0</ele><time>2026-03-29T08:27:52.709Z</time></trkpt><trkpt lat="45.4740266" lon="10.4296286"><ele>138.0</ele><time>2026-03-29T08:27:53.708Z</time></trkpt><trkpt lat="45.4739211" lon="10.4295726"><ele>138.0</ele><time>2026-03-29T08:27:54.708Z</time></trkpt><trkpt lat="45.4738333" lon="10.4295293"><ele>137.8</ele><time>2026-03-29T08:27:55.708Z</time></trkpt><trkpt lat="45.4737583" lon="10.4295114"><ele>137.60000000000002</ele><time>2026-03-29T08:27:56.708Z</time></trkpt><trkpt lat="45.4736466" lon="10.4295649"><ele>137.39999999999998</ele><time>2026-03-29T08:27:58.708Z</time></trkpt><trkpt lat="45.4736075" lon="10.4296541"><ele>137.2</ele><time>2026-03-29T08:27:59.708Z</time></trkpt><trkpt lat="45.473577" lon="10.4297881"><ele>137.0</ele><time>2026-03-29T08:28:00.708Z</time></trkpt><trkpt lat="45.473547" lon="10.429976"><ele>137.0</ele><time>2026-03-29T08:28:01.708Z</time></trkpt><trkpt lat="45.4735152" lon="10.4301671"><ele>137.0</ele><time>2026-03-29T08:28:02.709Z</time></trkpt><trkpt lat="45.4734826" lon="10.4303814"><ele>137.0</ele><time>2026-03-29T08:28:03.708Z</time></trkpt><trkpt lat="45.4734435" lon="10.4306002"><ele>137.0</ele><time>2026-03-29T08:28:04.708Z</time></trkpt><trkpt lat="45.4733939" lon="10.4308212"><ele>137.0</ele><time>2026-03-29T08:28:05.708Z</time></trkpt><trkpt lat="45.4733363" lon="10.4310469"><ele>137.0</ele><time>2026-03-29T08:28:06.708Z</time></trkpt><trkpt lat="45.473277" lon="10.4312754"><ele>137.66666666666666</ele><time>2026-03-29T08:28:07.709Z</time></trkpt><trkpt lat="45.4732171" lon="10.4315068"><ele>138.33333333333334</ele><time>2026-03-29T08:28:08.708Z</time></trkpt><trkpt lat="45.473156" lon="10.4317369"><ele>139.0</ele><time>2026-03-29T08:28:09.708Z</time></trkpt><trkpt lat="45.4730944" lon="10.4319658"><ele>139.0</ele><time>2026-03-29T08:28:10.709Z</time></trkpt><trkpt lat="45.4730322" lon="10.4321939"><ele>139.0</ele><time>2026-03-29T08:28:11.709Z</time></trkpt><trkpt lat="45.4729699" lon="10.4324145"><ele>139.0</ele><time>2026-03-29T08:28:12.708Z</time></trkpt><trkpt lat="45.4729094" lon="10.4326305"><ele>139.0</ele><time>2026-03-29T08:28:13.708Z</time></trkpt><trkpt lat="45.4728475" lon="10.4328527"><ele>139.0</ele><time>2026-03-29T08:28:14.708Z</time></trkpt><trkpt lat="45.472787" lon="10.4330775"><ele>139.0</ele><time>2026-03-29T08:28:15.708Z</time></trkpt><trkpt lat="45.4727308" lon="10.4332995"><ele>139.25</ele><time>2026-03-29T08:28:16.708Z</time></trkpt><trkpt lat="45.4726764" lon="10.4335053"><ele>139.5</ele><time>2026-03-29T08:28:17.708Z</time></trkpt><trkpt lat="45.4726215" lon="10.4336967"><ele>139.75</ele><time>2026-03-29T08:28:18.709Z</time></trkpt><trkpt lat="45.4725717" lon="10.4338774"><ele>140.0</ele><time>2026-03-29T08:28:19.708Z</time></trkpt><trkpt lat="45.4725249" lon="10.4340483"><ele>139.6</ele><time>2026-03-29T08:28:20.708Z</time></trkpt><trkpt lat="45.4724822" lon="10.4342056"><ele>139.2</ele><time>2026-03-29T08:28:21.708Z</time></trkpt><trkpt lat="45.4724433" lon="10.4343519"><ele>138.8</ele><time>2026-03-29T08:28:22.708Z</time></trkpt><trkpt lat="45.4724094" lon="10.4344905"><ele>138.4</ele><time>2026-03-29T08:28:23.708Z</time></trkpt><trkpt lat="45.4723701" lon="10.4346307"><ele>138.0</ele><time>2026-03-29T08:28:24.708Z</time></trkpt><trkpt lat="45.4723239" lon="10.4347643"><ele>138.0</ele><time>2026-03-29T08:28:25.708Z</time></trkpt><trkpt lat="45.4722619" lon="10.4348888"><ele>138.0</ele><time>2026-03-29T08:28:26.708Z</time></trkpt><trkpt lat="45.4722041" lon="10.4350164"><ele>138.0</ele><time>2026-03-29T08:28:27.708Z</time></trkpt><trkpt lat="45.4721713" lon="10.43517"><ele>138.0</ele><time>2026-03-29T08:28:28.708Z</time></trkpt><trkpt lat="45.4721631" lon="10.4353396"><ele>138.0</ele><time>2026-03-29T08:28:29.708Z</time></trkpt><trkpt lat="45.4721482" lon="10.4355204"><ele>138.25</ele><time>2026-03-29T08:28:30.708Z</time></trkpt><trkpt lat="45.4721007" lon="10.4356979"><ele>138.5</ele><time>2026-03-29T08:28:31.708Z</time></trkpt><trkpt lat="45.4720423" lon="10.4358726"><ele>138.75</ele><time>2026-03-29T08:28:32.708Z</time></trkpt><trkpt lat="45.4719852" lon="10.4360616"><ele>139.0</ele><time>2026-03-29T08:28:33.708Z</time></trkpt><trkpt lat="45.4719276" lon="10.4362554"><ele>139.0</ele><time>2026-03-29T08:28:34.708Z</time></trkpt><trkpt lat="45.4718643" lon="10.4364463"><ele>139.0</ele><time>2026-03-29T08:28:35.708Z</time></trkpt><trkpt lat="45.4718026" lon="10.436637"><ele>139.0</ele><time>2026-03-29T08:28:36.708Z</time></trkpt><trkpt lat="45.4717422" lon="10.4368289"><ele>139.0</ele><time>2026-03-29T08:28:37.708Z</time></trkpt><trkpt lat="45.4716842" lon="10.4370211"><ele>138.75</ele><time>2026-03-29T08:28:38.708Z</time></trkpt><trkpt lat="45.4716277" lon="10.437215"><ele>138.5</ele><time>2026-03-29T08:28:39.708Z</time></trkpt><trkpt lat="45.4715708" lon="10.4374123"><ele>138.25</ele><time>2026-03-29T08:28:40.708Z</time></trkpt><trkpt lat="45.4715158" lon="10.4376123"><ele>138.0</ele><time>2026-03-29T08:28:41.708Z</time></trkpt><trkpt lat="45.4714609" lon="10.4378104"><ele>138.0</ele><time>2026-03-29T08:28:42.708Z</time></trkpt><trkpt lat="45.4714081" lon="10.4380069"><ele>138.0</ele><time>2026-03-29T08:28:43.708Z</time></trkpt><trkpt lat="45.4713558" lon="10.4381998"><ele>138.0</ele><time>2026-03-29T08:28:44.708Z</time></trkpt><trkpt lat="45.4713056" lon="10.438377"><ele>138.0</ele><time>2026-03-29T08:28:45.708Z</time></trkpt><trkpt lat="45.4712574" lon="10.4385446"><ele>138.0</ele><time>2026-03-29T08:28:46.708Z</time></trkpt><trkpt lat="45.4712139" lon="10.4387023"><ele>138.0</ele><time>2026-03-29T08:28:47.708Z</time></trkpt><trkpt lat="45.4711722" lon="10.4388507"><ele>138.0</ele><time>2026-03-29T08:28:48.708Z</time></trkpt><trkpt lat="45.4711292" lon="10.4390038"><ele>138.0</ele><time>2026-03-29T08:28:49.708Z</time></trkpt><trkpt lat="45.4710878" lon="10.4391582"><ele>138.0</ele><time>2026-03-29T08:28:50.708Z</time></trkpt><trkpt lat="45.4710459" lon="10.4393158"><ele>138.0</ele><time>2026-03-29T08:28:51.708Z</time></trkpt><trkpt lat="45.4710049" lon="10.4394727"><ele>138.0</ele><time>2026-03-29T08:28:52.708Z</time></trkpt><trkpt lat="45.4709718" lon="10.4396346"><ele>138.0</ele><time>2026-03-29T08:28:53.708Z</time></trkpt><trkpt lat="45.47095" lon="10.4397948"><ele>138.20000000000002</ele><time>2026-03-29T08:28:54.708Z</time></trkpt><trkpt lat="45.4709344" lon="10.4399437"><ele>138.4</ele><time>2026-03-29T08:28:55.708Z</time></trkpt><trkpt lat="45.470911" lon="10.440081"><ele>138.60000000000002</ele><time>2026-03-29T08:28:56.708Z</time></trkpt><trkpt lat="45.4708677" lon="10.4401934"><ele>138.8</ele><time>2026-03-29T08:28:57.708Z</time></trkpt><trkpt lat="45.4708023" lon="10.4402698"><ele>139.0</ele><time>2026-03-29T08:28:58.708Z</time></trkpt><trkpt lat="45.4707156" lon="10.4403133"><ele>139.0</ele><time>2026-03-29T08:28:59.708Z</time></trkpt><trkpt lat="45.4706243" lon="10.4403227"><ele>139.0</ele><time>2026-03-29T08:29:00.708Z</time></trkpt><trkpt lat="45.4705285" lon="10.4403097"><ele>139.0</ele><time>2026-03-29T08:29:01.708Z</time></trkpt><trkpt lat="45.4704273" lon="10.4403004"><ele>139.0</ele><time>2026-03-29T08:29:02.708Z</time></trkpt><trkpt lat="45.4703208" lon="10.4403044"><ele>139.0</ele><time>2026-03-29T08:29:03.708Z</time></trkpt><trkpt lat="45.4702105" lon="10.4403115"><ele>139.2</ele><time>2026-03-29T08:29:04.708Z</time></trkpt><trkpt lat="45.470098" lon="10.4403251"><ele>139.4</ele><time>2026-03-29T08:29:05.708Z</time></trkpt><trkpt lat="45.4699882" lon="10.440343"><ele>139.6</ele><time>2026-03-29T08:29:06.708Z</time></trkpt><trkpt lat="45.4698772" lon="10.4403518"><ele>139.8</ele><time>2026-03-29T08:29:07.708Z</time></trkpt><trkpt lat="45.4697662" lon="10.440362"><ele>140.0</ele><time>2026-03-29T08:29:08.708Z</time></trkpt><trkpt lat="45.4696559" lon="10.440381"><ele>139.8</ele><time>2026-03-29T08:29:09.708Z</time></trkpt><trkpt lat="45.4695455" lon="10.440413"><ele>139.6</ele><time>2026-03-29T08:29:10.708Z</time></trkpt><trkpt lat="45.4694324" lon="10.4404384"><ele>139.4</ele><time>2026-03-29T08:29:11.708Z</time></trkpt><trkpt lat="45.4693216" lon="10.4404582"><ele>139.2</ele><time>2026-03-29T08:29:12.708Z</time></trkpt><trkpt lat="45.469217" lon="10.4404961"><ele>139.0</ele><time>2026-03-29T08:29:13.708Z</time></trkpt><trkpt lat="45.4691249" lon="10.4405209"><ele>138.83333333333334</ele><time>2026-03-29T08:29:14.708Z</time></trkpt><trkpt lat="45.4690388" lon="10.4405398"><ele>138.66666666666669</ele><time>2026-03-29T08:29:15.708Z</time></trkpt><trkpt lat="45.4689553" lon="10.4405576"><ele>138.5</ele><time>2026-03-29T08:29:16.708Z</time></trkpt><trkpt lat="45.4688786" lon="10.4405752"><ele>138.33333333333334</ele><time>2026-03-29T08:29:17.708Z</time></trkpt><trkpt lat="45.4687982" lon="10.4405957"><ele>138.16666666666666</ele><time>2026-03-29T08:29:18.708Z</time></trkpt><trkpt lat="45.4687087" lon="10.4406203"><ele>138.0</ele><time>2026-03-29T08:29:19.708Z</time></trkpt><trkpt lat="45.4686107" lon="10.440642"><ele>138.33333333333334</ele><time>2026-03-29T08:29:20.708Z</time></trkpt><trkpt lat="45.4685216" lon="10.4406627"><ele>138.66666666666666</ele><time>2026-03-29T08:29:21.708Z</time></trkpt><trkpt lat="45.4684384" lon="10.4406731"><ele>139.0</ele><time>2026-03-29T08:29:22.709Z</time></trkpt><trkpt lat="45.4683526" lon="10.4406696"><ele>139.33333333333331</ele><time>2026-03-29T08:29:23.708Z</time></trkpt><trkpt lat="45.4682711" lon="10.4406409"><ele>139.66666666666666</ele><time>2026-03-29T08:29:24.708Z</time></trkpt><trkpt lat="45.4681969" lon="10.4406034"><ele>140.0</ele><time>2026-03-29T08:29:25.708Z</time></trkpt><trkpt lat="45.4681116" lon="10.440575"><ele>140.0</ele><time>2026-03-29T08:29:26.708Z</time></trkpt><trkpt lat="45.4680245" lon="10.4405771"><ele>140.0</ele><time>2026-03-29T08:29:27.708Z</time></trkpt><trkpt lat="45.4679325" lon="10.4405924"><ele>140.0</ele><time>2026-03-29T08:29:28.708Z</time></trkpt><trkpt lat="45.4678306" lon="10.4406169"><ele>140.0</ele><time>2026-03-29T08:29:29.708Z</time></trkpt><trkpt lat="45.4677238" lon="10.4406343"><ele>140.0</ele><time>2026-03-29T08:29:30.708Z</time></trkpt><trkpt lat="45.4676154" lon="10.4406461"><ele>139.75</ele><time>2026-03-29T08:29:31.708Z</time></trkpt><trkpt lat="45.4675061" lon="10.4406625"><ele>139.5</ele><time>2026-03-29T08:29:32.708Z</time></trkpt><trkpt lat="45.4673893" lon="10.4406833"><ele>139.25</ele><time>2026-03-29T08:29:33.708Z</time></trkpt><trkpt lat="45.4672642" lon="10.4407008"><ele>139.0</ele><time>2026-03-29T08:29:34.708Z</time></trkpt><trkpt lat="45.4671365" lon="10.4407167"><ele>138.25</ele><time>2026-03-29T08:29:35.708Z</time></trkpt><trkpt lat="45.4670047" lon="10.4407334"><ele>137.5</ele><time>2026-03-29T08:29:36.708Z</time></trkpt><trkpt lat="45.4668703" lon="10.4407528"><ele>136.75</ele><time>2026-03-29T08:29:37.708Z</time></trkpt><trkpt lat="45.4667327" lon="10.4407719"><ele>136.0</ele><time>2026-03-29T08:29:38.708Z</time></trkpt><trkpt lat="45.4665944" lon="10.440793"><ele>136.0</ele><time>2026-03-29T08:29:39.708Z</time></trkpt><trkpt lat="45.4664539" lon="10.4408127"><ele>136.0</ele><time>2026-03-29T08:29:40.708Z</time></trkpt><trkpt lat="45.4663119" lon="10.4408359"><ele>136.0</ele><time>2026-03-29T08:29:41.708Z</time></trkpt><trkpt lat="45.4661699" lon="10.4408662"><ele>136.0</ele><time>2026-03-29T08:29:42.708Z</time></trkpt><trkpt lat="45.466025" lon="10.4409033"><ele>135.66666666666669</ele><time>2026-03-29T08:29:43.708Z</time></trkpt><trkpt lat="45.4658768" lon="10.4409456"><ele>135.33333333333334</ele><time>2026-03-29T08:29:44.708Z</time></trkpt><trkpt lat="45.4657267" lon="10.4409853"><ele>135.0</ele><time>2026-03-29T08:29:45.708Z</time></trkpt><trkpt lat="45.4655757" lon="10.4410255"><ele>134.66666666666666</ele><time>2026-03-29T08:29:46.708Z</time></trkpt><trkpt lat="45.4654254" lon="10.4410699"><ele>134.33333333333331</ele><time>2026-03-29T08:29:47.708Z</time></trkpt><trkpt lat="45.4652769" lon="10.4411181"><ele>134.0</ele><time>2026-03-29T08:29:48.708Z</time></trkpt><trkpt lat="45.465129" lon="10.4411616"><ele>134.0</ele><time>2026-03-29T08:29:49.708Z</time></trkpt><trkpt lat="45.464983" lon="10.4412028"><ele>134.0</ele><time>2026-03-29T08:29:50.708Z</time></trkpt><trkpt lat="45.4648362" lon="10.441248"><ele>134.0</ele><time>2026-03-29T08:29:51.708Z</time></trkpt><trkpt lat="45.4646828" lon="10.441295"><ele>134.66666666666666</ele><time>2026-03-29T08:29:52.708Z</time></trkpt><trkpt lat="45.4645244" lon="10.441335"><ele>135.33333333333334</ele><time>2026-03-29T08:29:53.708Z</time></trkpt><trkpt lat="45.4643635" lon="10.4413571"><ele>136.0</ele><time>2026-03-29T08:29:54.708Z</time></trkpt><trkpt lat="45.4642002" lon="10.4413682"><ele>136.0</ele><time>2026-03-29T08:29:55.708Z</time></trkpt><trkpt lat="45.4640345" lon="10.441379"><ele>136.0</ele><time>2026-03-29T08:29:56.708Z</time></trkpt><trkpt lat="45.4638668" lon="10.4413924"><ele>136.0</ele><time>2026-03-29T08:29:57.708Z</time></trkpt><trkpt lat="45.4636987" lon="10.4414005"><ele>135.66666666666669</ele><time>2026-03-29T08:29:58.708Z</time></trkpt><trkpt lat="45.4635283" lon="10.4414104"><ele>135.33333333333334</ele><time>2026-03-29T08:29:59.708Z</time></trkpt><trkpt lat="45.4633584" lon="10.441424"><ele>135.0</ele><time>2026-03-29T08:30:00.708Z</time></trkpt><trkpt lat="45.463188" lon="10.4414422"><ele>135.0</ele><time>2026-03-29T08:30:01.708Z</time></trkpt><trkpt lat="45.4630187" lon="10.4414714"><ele>135.0</ele><time>2026-03-29T08:30:02.708Z</time></trkpt><trkpt lat="45.4628506" lon="10.4415064"><ele>135.0</ele><time>2026-03-29T08:30:03.708Z</time></trkpt><trkpt lat="45.4626829" lon="10.4415451"><ele>134.66666666666666</ele><time>2026-03-29T08:30:04.708Z</time></trkpt><trkpt lat="45.4625153" lon="10.441586"><ele>134.33333333333331</ele><time>2026-03-29T08:30:05.708Z</time></trkpt><trkpt lat="45.4623487" lon="10.4416284"><ele>134.0</ele><time>2026-03-29T08:30:06.708Z</time></trkpt><trkpt lat="45.4621833" lon="10.4416741"><ele>134.0</ele><time>2026-03-29T08:30:07.708Z</time></trkpt><trkpt lat="45.4620222" lon="10.4417213"><ele>134.0</ele><time>2026-03-29T08:30:08.708Z</time></trkpt><trkpt lat="45.4618635" lon="10.4417696"><ele>134.0</ele><time>2026-03-29T08:30:09.708Z</time></trkpt><trkpt lat="45.4617039" lon="10.4418162"><ele>134.0</ele><time>2026-03-29T08:30:10.708Z</time></trkpt><trkpt lat="45.461543" lon="10.4418563"><ele>134.0</ele><time>2026-03-29T08:30:11.708Z</time></trkpt><trkpt lat="45.4613846" lon="10.4418965"><ele>134.0</ele><time>2026-03-29T08:30:12.708Z</time></trkpt><trkpt lat="45.4612287" lon="10.4419418"><ele>133.66666666666666</ele><time>2026-03-29T08:30:13.708Z</time></trkpt><trkpt lat="45.4610733" lon="10.4419892"><ele>133.33333333333334</ele><time>2026-03-29T08:30:14.708Z</time></trkpt><trkpt lat="45.460918" lon="10.4420324"><ele>133.0</ele><time>2026-03-29T08:30:15.708Z</time></trkpt><trkpt lat="45.4607634" lon="10.4420733"><ele>133.0</ele><time>2026-03-29T08:30:16.708Z</time></trkpt><trkpt lat="45.4606092" lon="10.442117"><ele>133.0</ele><time>2026-03-29T08:30:17.708Z</time></trkpt><trkpt lat="45.460455" lon="10.4421644"><ele>133.0</ele><time>2026-03-29T08:30:18.708Z</time></trkpt><trkpt lat="45.4603018" lon="10.4422077"><ele>133.0</ele><time>2026-03-29T08:30:19.708Z</time></trkpt><trkpt lat="45.4601477" lon="10.4422472"><ele>133.0</ele><time>2026-03-29T08:30:20.708Z</time></trkpt><trkpt lat="45.4599937" lon="10.4422902"><ele>133.0</ele><time>2026-03-29T08:30:21.708Z</time></trkpt><trkpt lat="45.4598421" lon="10.4423358"><ele>133.0</ele><time>2026-03-29T08:30:22.708Z</time></trkpt><trkpt lat="45.4596919" lon="10.4423791"><ele>133.0</ele><time>2026-03-29T08:30:23.709Z</time></trkpt><trkpt lat="45.4595435" lon="10.442421"><ele>133.0</ele><time>2026-03-29T08:30:24.708Z</time></trkpt><trkpt lat="45.4593902" lon="10.4424669"><ele>132.33333333333334</ele><time>2026-03-29T08:30:25.708Z</time></trkpt><trkpt lat="45.4592365" lon="10.4425132"><ele>131.66666666666666</ele><time>2026-03-29T08:30:26.708Z</time></trkpt><trkpt lat="45.4590826" lon="10.4425563"><ele>131.0</ele><time>2026-03-29T08:30:27.708Z</time></trkpt><trkpt lat="45.4589392" lon="10.4425945"><ele>131.0</ele><time>2026-03-29T08:30:28.708Z</time></trkpt><trkpt lat="45.4588086" lon="10.4426293"><ele>131.0</ele><time>2026-03-29T08:30:29.708Z</time></trkpt><trkpt lat="45.4586912" lon="10.4426639"><ele>131.0</ele><time>2026-03-29T08:30:30.708Z</time></trkpt><trkpt lat="45.458592" lon="10.4426952"><ele>131.0</ele><time>2026-03-29T08:30:31.708Z</time></trkpt><trkpt lat="45.4585149" lon="10.4427364"><ele>131.0</ele><time>2026-03-29T08:30:32.708Z</time></trkpt><trkpt lat="45.4584644" lon="10.4428082"><ele>130.83333333333331</ele><time>2026-03-29T08:30:33.708Z</time></trkpt><trkpt lat="45.4584411" lon="10.4429062"><ele>130.66666666666666</ele><time>2026-03-29T08:30:34.708Z</time></trkpt><trkpt lat="45.4584366" lon="10.4430197"><ele>130.5</ele><time>2026-03-29T08:30:35.708Z</time></trkpt><trkpt lat="45.4584166" lon="10.4431358"><ele>130.33333333333334</ele><time>2026-03-29T08:30:36.708Z</time></trkpt><trkpt lat="45.4583477" lon="10.4432229"><ele>130.16666666666669</ele><time>2026-03-29T08:30:37.708Z</time></trkpt><trkpt lat="45.4582605" lon="10.4432808"><ele>130.0</ele><time>2026-03-29T08:30:38.708Z</time></trkpt><trkpt lat="45.4581591" lon="10.443319"><ele>130.0</ele><time>2026-03-29T08:30:39.708Z</time></trkpt><trkpt lat="45.4580487" lon="10.4433518"><ele>130.0</ele><time>2026-03-29T08:30:40.708Z</time></trkpt><trkpt lat="45.4579309" lon="10.4433789"><ele>130.0</ele><time>2026-03-29T08:30:41.708Z</time></trkpt><trkpt lat="45.4578057" lon="10.4433928"><ele>130.0</ele><time>2026-03-29T08:30:42.708Z</time></trkpt><trkpt lat="45.4576759" lon="10.4434004"><ele>130.0</ele><time>2026-03-29T08:30:43.708Z</time></trkpt><trkpt lat="45.457545" lon="10.4434167"><ele>130.0</ele><time>2026-03-29T08:30:44.708Z</time></trkpt><trkpt lat="45.4574135" lon="10.4434452"><ele>130.0</ele><time>2026-03-29T08:30:45.708Z</time></trkpt><trkpt lat="45.457283" lon="10.4434868"><ele>130.0</ele><time>2026-03-29T08:30:46.708Z</time></trkpt><trkpt lat="45.4571505" lon="10.4435196"><ele>129.75</ele><time>2026-03-29T08:30:47.708Z</time></trkpt><trkpt lat="45.4570147" lon="10.4435236"><ele>129.5</ele><time>2026-03-29T08:30:48.708Z</time></trkpt><trkpt lat="45.4568755" lon="10.4435051"><ele>129.25</ele><time>2026-03-29T08:30:49.708Z</time></trkpt><trkpt lat="45.4567316" lon="10.443492"><ele>129.0</ele><time>2026-03-29T08:30:50.708Z</time></trkpt><trkpt lat="45.4565884" lon="10.4434754"><ele>129.0</ele><time>2026-03-29T08:30:51.708Z</time></trkpt><trkpt lat="45.4564425" lon="10.4434551"><ele>129.0</ele><time>2026-03-29T08:30:52.708Z</time></trkpt><trkpt lat="45.4562974" lon="10.4434358"><ele>129.0</ele><time>2026-03-29T08:30:53.708Z</time></trkpt><trkpt lat="45.4561561" lon="10.4434168"><ele>129.0</ele><time>2026-03-29T08:30:54.708Z</time></trkpt><trkpt lat="45.4560223" lon="10.4433958"><ele>129.5</ele><time>2026-03-29T08:30:55.708Z</time></trkpt><trkpt lat="45.4558948" lon="10.4433715"><ele>130.0</ele><time>2026-03-29T08:30:56.708Z</time></trkpt><trkpt lat="45.4557722" lon="10.4433505"><ele>130.5</ele><time>2026-03-29T08:30:57.708Z</time></trkpt><trkpt lat="45.4556595" lon="10.443344"><ele>131.0</ele><time>2026-03-29T08:30:58.708Z</time></trkpt><trkpt lat="45.4555542" lon="10.443345"><ele>130.6</ele><time>2026-03-29T08:30:59.708Z</time></trkpt><trkpt lat="45.455449" lon="10.4433504"><ele>130.2</ele><time>2026-03-29T08:31:00.708Z</time></trkpt><trkpt lat="45.4553451" lon="10.4433831"><ele>129.8</ele><time>2026-03-29T08:31:01.708Z</time></trkpt><trkpt lat="45.455238" lon="10.4434335"><ele>129.4</ele><time>2026-03-29T08:31:02.708Z</time></trkpt><trkpt lat="45.4551254" lon="10.4434924"><ele>129.0</ele><time>2026-03-29T08:31:03.708Z</time></trkpt><trkpt lat="45.4550071" lon="10.4435428"><ele>129.0</ele><time>2026-03-29T08:31:04.708Z</time></trkpt><trkpt lat="45.4548918" lon="10.4435908"><ele>129.0</ele><time>2026-03-29T08:31:05.708Z</time></trkpt><trkpt lat="45.4547735" lon="10.4436376"><ele>129.0</ele><time>2026-03-29T08:31:06.708Z</time></trkpt><trkpt lat="45.4546549" lon="10.4436844"><ele>129.0</ele><time>2026-03-29T08:31:07.708Z</time></trkpt><trkpt lat="45.4545367" lon="10.4437349"><ele>128.8</ele><time>2026-03-29T08:31:08.708Z</time></trkpt><trkpt lat="45.4544209" lon="10.4437858"><ele>128.60000000000002</ele><time>2026-03-29T08:31:09.708Z</time></trkpt><trkpt lat="45.4543135" lon="10.4438226"><ele>128.4</ele><time>2026-03-29T08:31:10.708Z</time></trkpt><trkpt lat="45.4542221" lon="10.4438486"><ele>128.20000000000002</ele><time>2026-03-29T08:31:11.708Z</time></trkpt><trkpt lat="45.4541416" lon="10.4438662"><ele>128.0</ele><time>2026-03-29T08:31:12.708Z</time></trkpt><trkpt lat="45.4540631" lon="10.4438788"><ele>127.99999999999999</ele><time>2026-03-29T08:31:13.708Z</time></trkpt><trkpt lat="45.4539833" lon="10.4438858"><ele>128.0</ele><time>2026-03-29T08:31:14.708Z</time></trkpt><trkpt lat="45.4538999" lon="10.4438894"><ele>128.0</ele><time>2026-03-29T08:31:15.708Z</time></trkpt><trkpt lat="45.4538108" lon="10.4438922"><ele>128.0</ele><time>2026-03-29T08:31:16.709Z</time></trkpt><trkpt lat="45.4537176" lon="10.4438966"><ele>127.99999999999999</ele><time>2026-03-29T08:31:17.708Z</time></trkpt><trkpt lat="45.4536208" lon="10.4439084"><ele>128.0</ele><time>2026-03-29T08:31:18.708Z</time></trkpt><trkpt lat="45.4535255" lon="10.4439242"><ele>128.0</ele><time>2026-03-29T08:31:19.708Z</time></trkpt><trkpt lat="45.4534262" lon="10.4439529"><ele>128.0</ele><time>2026-03-29T08:31:20.708Z</time></trkpt><trkpt lat="45.4533254" lon="10.4439766"><ele>128.0</ele><time>2026-03-29T08:31:21.708Z</time></trkpt><trkpt lat="45.4532229" lon="10.4439976"><ele>128.0</ele><time>2026-03-29T08:31:22.708Z</time></trkpt><trkpt lat="45.4531224" lon="10.4440193"><ele>128.0</ele><time>2026-03-29T08:31:23.708Z</time></trkpt><trkpt lat="45.4530186" lon="10.4440464"><ele>127.5</ele><time>2026-03-29T08:31:24.708Z</time></trkpt><trkpt lat="45.4529118" lon="10.4440674"><ele>127.0</ele><time>2026-03-29T08:31:25.708Z</time></trkpt><trkpt lat="45.4527985" lon="10.4440838"><ele>126.5</ele><time>2026-03-29T08:31:26.708Z</time></trkpt><trkpt lat="45.4526814" lon="10.4440984"><ele>126.0</ele><time>2026-03-29T08:31:27.708Z</time></trkpt><trkpt lat="45.4525688" lon="10.4441177"><ele>126.0</ele><time>2026-03-29T08:31:28.708Z</time></trkpt><trkpt lat="45.4524544" lon="10.4441427"><ele>126.0</ele><time>2026-03-29T08:31:29.709Z</time></trkpt><trkpt lat="45.4523382" lon="10.444169"><ele>126.0</ele><time>2026-03-29T08:31:30.708Z</time></trkpt><trkpt lat="45.4522182" lon="10.4441911"><ele>126.0</ele><time>2026-03-29T08:31:31.708Z</time></trkpt><trkpt lat="45.4520944" lon="10.4442142"><ele>126.25</ele><time>2026-03-29T08:31:32.708Z</time></trkpt><trkpt lat="45.4519735" lon="10.4442397"><ele>126.5</ele><time>2026-03-29T08:31:33.708Z</time></trkpt><trkpt lat="45.451857" lon="10.4442677"><ele>126.75</ele><time>2026-03-29T08:31:34.708Z</time></trkpt><trkpt lat="45.4517352" lon="10.4442948"><ele>127.0</ele><time>2026-03-29T08:31:35.708Z</time></trkpt><trkpt lat="45.4516106" lon="10.4443183"><ele>127.0</ele><time>2026-03-29T08:31:36.708Z</time></trkpt><trkpt lat="45.4514864" lon="10.4443448"><ele>127.0</ele><time>2026-03-29T08:31:37.709Z</time></trkpt><trkpt lat="45.4513638" lon="10.4443653"><ele>127.0</ele><time>2026-03-29T08:31:38.708Z</time></trkpt><trkpt lat="45.4512385" lon="10.4443792"><ele>127.0</ele><time>2026-03-29T08:31:39.708Z</time></trkpt><trkpt lat="45.4511182" lon="10.4443963"><ele>126.5</ele><time>2026-03-29T08:31:40.708Z</time></trkpt><trkpt lat="45.4509936" lon="10.4444166"><ele>126.0</ele><time>2026-03-29T08:31:41.708Z</time></trkpt><trkpt lat="45.4508592" lon="10.4444409"><ele>125.5</ele><time>2026-03-29T08:31:42.708Z</time></trkpt><trkpt lat="45.4507204" lon="10.4444612"><ele>125.0</ele><time>2026-03-29T08:31:43.708Z</time></trkpt><trkpt lat="45.450585" lon="10.4444869"><ele>124.5</ele><time>2026-03-29T08:31:44.708Z</time></trkpt><trkpt lat="45.4504533" lon="10.4445113"><ele>124.0</ele><time>2026-03-29T08:31:45.708Z</time></trkpt><trkpt lat="45.4503275" lon="10.4445339"><ele>123.5</ele><time>2026-03-29T08:31:46.708Z</time></trkpt><trkpt lat="45.450202" lon="10.4445568"><ele>123.0</ele><time>2026-03-29T08:31:47.708Z</time></trkpt><trkpt lat="45.4500758" lon="10.4445813"><ele>123.0</ele><time>2026-03-29T08:31:48.708Z</time></trkpt><trkpt lat="45.4499468" lon="10.4446032"><ele>123.0</ele><time>2026-03-29T08:31:49.708Z</time></trkpt><trkpt lat="45.4498174" lon="10.4446221"><ele>123.0</ele><time>2026-03-29T08:31:50.708Z</time></trkpt><trkpt lat="45.4496871" lon="10.4446439"><ele>123.0</ele><time>2026-03-29T08:31:51.708Z</time></trkpt><trkpt lat="45.449551" lon="10.4446656"><ele>123.5</ele><time>2026-03-29T08:31:52.708Z</time></trkpt><trkpt lat="45.449412" lon="10.4446891"><ele>124.0</ele><time>2026-03-29T08:31:53.708Z</time></trkpt><trkpt lat="45.4492733" lon="10.4447104"><ele>124.5</ele><time>2026-03-29T08:31:54.708Z</time></trkpt><trkpt lat="45.4491337" lon="10.4447311"><ele>125.0</ele><time>2026-03-29T08:31:55.708Z</time></trkpt><trkpt lat="45.4489965" lon="10.4447497"><ele>125.0</ele><time>2026-03-29T08:31:56.708Z</time></trkpt><trkpt lat="45.4488614" lon="10.4447767"><ele>125.0</ele><time>2026-03-29T08:31:57.708Z</time></trkpt><trkpt lat="45.4487248" lon="10.4447959"><ele>125.0</ele><time>2026-03-29T08:31:58.708Z</time></trkpt><trkpt lat="45.448593" lon="10.4448164"><ele>125.0</ele><time>2026-03-29T08:31:59.708Z</time></trkpt><trkpt lat="45.4484696" lon="10.4448365"><ele>124.5</ele><time>2026-03-29T08:32:00.708Z</time></trkpt><trkpt lat="45.4483407" lon="10.4448584"><ele>124.0</ele><time>2026-03-29T08:32:01.708Z</time></trkpt><trkpt lat="45.4482116" lon="10.4448832"><ele>123.5</ele><time>2026-03-29T08:32:02.708Z</time></trkpt><trkpt lat="45.448074" lon="10.4449107"><ele>123.0</ele><time>2026-03-29T08:32:03.708Z</time></trkpt><trkpt lat="45.4479318" lon="10.4449385"><ele>122.5</ele><time>2026-03-29T08:32:04.708Z</time></trkpt><trkpt lat="45.4477876" lon="10.444964"><ele>122.0</ele><time>2026-03-29T08:32:05.708Z</time></trkpt><trkpt lat="45.4476433" lon="10.4449877"><ele>121.5</ele><time>2026-03-29T08:32:06.708Z</time></trkpt><trkpt lat="45.4474981" lon="10.4450131"><ele>121.0</ele><time>2026-03-29T08:32:07.708Z</time></trkpt><trkpt lat="45.4473601" lon="10.445035"><ele>121.0</ele><time>2026-03-29T08:32:08.708Z</time></trkpt><trkpt lat="45.4472202" lon="10.4450632"><ele>121.0</ele><time>2026-03-29T08:32:09.708Z</time></trkpt><trkpt lat="45.447082" lon="10.4450911"><ele>121.0</ele><time>2026-03-29T08:32:10.708Z</time></trkpt><trkpt lat="45.4469536" lon="10.4451165"><ele>121.0</ele><time>2026-03-29T08:32:11.708Z</time></trkpt><trkpt lat="45.4468357" lon="10.4451389"><ele>121.0</ele><time>2026-03-29T08:32:12.708Z</time></trkpt><trkpt lat="45.4467348" lon="10.4451565"><ele>121.0</ele><time>2026-03-29T08:32:13.709Z</time></trkpt><trkpt lat="45.446644" lon="10.4451642"><ele>121.0</ele><time>2026-03-29T08:32:14.708Z</time></trkpt><trkpt lat="45.4465634" lon="10.4451755"><ele>121.0</ele><time>2026-03-29T08:32:15.708Z</time></trkpt><trkpt lat="45.4464746" lon="10.445188"><ele>121.0</ele><time>2026-03-29T08:32:16.708Z</time></trkpt><trkpt lat="45.4463697" lon="10.4451984"><ele>121.0</ele><time>2026-03-29T08:32:17.708Z</time></trkpt><trkpt lat="45.4462542" lon="10.4452087"><ele>121.0</ele><time>2026-03-29T08:32:18.708Z</time></trkpt><trkpt lat="45.4461332" lon="10.4452069"><ele>121.0</ele><time>2026-03-29T08:32:19.708Z</time></trkpt><trkpt lat="45.446009" lon="10.445202"><ele>121.0</ele><time>2026-03-29T08:32:20.708Z</time></trkpt><trkpt lat="45.4458761" lon="10.445197"><ele>121.0</ele><time>2026-03-29T08:32:21.708Z</time></trkpt><trkpt lat="45.4457344" lon="10.4451885"><ele>121.0</ele><time>2026-03-29T08:32:22.708Z</time></trkpt><trkpt lat="45.4455915" lon="10.4451819"><ele>121.0</ele><time>2026-03-29T08:32:23.708Z</time></trkpt><trkpt lat="45.4454417" lon="10.4451777"><ele>121.0</ele><time>2026-03-29T08:32:24.708Z</time></trkpt><trkpt lat="45.4452923" lon="10.4451746"><ele>121.33333333333334</ele><time>2026-03-29T08:32:25.708Z</time></trkpt><trkpt lat="45.4451364" lon="10.4451716"><ele>121.66666666666666</ele><time>2026-03-29T08:32:26.708Z</time></trkpt><trkpt lat="45.4449778" lon="10.4451739"><ele>122.0</ele><time>2026-03-29T08:32:27.708Z</time></trkpt><trkpt lat="45.4448204" lon="10.4451735"><ele>122.0</ele><time>2026-03-29T08:32:28.708Z</time></trkpt><trkpt lat="45.4446602" lon="10.445171"><ele>122.0</ele><time>2026-03-29T08:32:29.708Z</time></trkpt><trkpt lat="45.4444942" lon="10.4451719"><ele>122.0</ele><time>2026-03-29T08:32:30.708Z</time></trkpt><trkpt lat="45.4443174" lon="10.4451698"><ele>121.66666666666666</ele><time>2026-03-29T08:32:31.709Z</time></trkpt><trkpt lat="45.4441438" lon="10.4451685"><ele>121.33333333333334</ele><time>2026-03-29T08:32:32.708Z</time></trkpt><trkpt lat="45.4439706" lon="10.4451688"><ele>121.0</ele><time>2026-03-29T08:32:33.708Z</time></trkpt><trkpt lat="45.4437966" lon="10.4451688"><ele>121.0</ele><time>2026-03-29T08:32:34.708Z</time></trkpt><trkpt lat="45.4436237" lon="10.44517"><ele>121.0</ele><time>2026-03-29T08:32:35.708Z</time></trkpt><trkpt lat="45.443449" lon="10.4451704"><ele>121.0</ele><time>2026-03-29T08:32:36.708Z</time></trkpt><trkpt lat="45.4432727" lon="10.445169"><ele>121.0</ele><time>2026-03-29T08:32:37.708Z</time></trkpt><trkpt lat="45.4431026" lon="10.4451679"><ele>121.0</ele><time>2026-03-29T08:32:38.708Z</time></trkpt><trkpt lat="45.4429365" lon="10.4451651"><ele>121.0</ele><time>2026-03-29T08:32:39.708Z</time></trkpt><trkpt lat="45.4427801" lon="10.4451631"><ele>121.25</ele><time>2026-03-29T08:32:40.708Z</time></trkpt><trkpt lat="45.4426324" lon="10.4451633"><ele>121.5</ele><time>2026-03-29T08:32:41.708Z</time></trkpt><trkpt lat="45.4424931" lon="10.4451617"><ele>121.75</ele><time>2026-03-29T08:32:42.708Z</time></trkpt><trkpt lat="45.4423551" lon="10.4451598"><ele>122.0</ele><time>2026-03-29T08:32:43.708Z</time></trkpt><trkpt lat="45.4422109" lon="10.4451707"><ele>121.66666666666666</ele><time>2026-03-29T08:32:44.708Z</time></trkpt><trkpt lat="45.4420616" lon="10.4451843"><ele>121.33333333333334</ele><time>2026-03-29T08:32:45.708Z</time></trkpt><trkpt lat="45.4419048" lon="10.4451879"><ele>121.0</ele><time>2026-03-29T08:32:46.708Z</time></trkpt><trkpt lat="45.4417433" lon="10.4451871"><ele>121.0</ele><time>2026-03-29T08:32:47.708Z</time></trkpt><trkpt lat="45.4415791" lon="10.4451912"><ele>121.0</ele><time>2026-03-29T08:32:48.708Z</time></trkpt><trkpt lat="45.4414092" lon="10.4451876"><ele>121.0</ele><time>2026-03-29T08:32:49.708Z</time></trkpt><trkpt lat="45.4412256" lon="10.4451818"><ele>120.66666666666667</ele><time>2026-03-29T08:32:50.708Z</time></trkpt><trkpt lat="45.4410397" lon="10.4451787"><ele>120.33333333333334</ele><time>2026-03-29T08:32:51.708Z</time></trkpt><trkpt lat="45.4408701" lon="10.4451742"><ele>120.0</ele><time>2026-03-29T08:32:52.708Z</time></trkpt><trkpt lat="45.4407071" lon="10.4451689"><ele>120.0</ele><time>2026-03-29T08:32:53.708Z</time></trkpt><trkpt lat="45.4405531" lon="10.4451651"><ele>120.0</ele><time>2026-03-29T08:32:54.708Z</time></trkpt><trkpt lat="45.4404079" lon="10.4451624"><ele>120.0</ele><time>2026-03-29T08:32:55.708Z</time></trkpt><trkpt lat="45.4402721" lon="10.445163"><ele>120.0</ele><time>2026-03-29T08:32:56.708Z</time></trkpt><trkpt lat="45.4401514" lon="10.4451642"><ele>120.0</ele><time>2026-03-29T08:32:57.708Z</time></trkpt><trkpt lat="45.4400425" lon="10.4451669"><ele>120.0</ele><time>2026-03-29T08:32:58.708Z</time></trkpt><trkpt lat="45.439949" lon="10.4451755"><ele>120.0</ele><time>2026-03-29T08:32:59.708Z</time></trkpt><trkpt lat="45.4398803" lon="10.445185"><ele>120.0</ele><time>2026-03-29T08:33:00.708Z</time></trkpt><trkpt lat="45.4397822" lon="10.4451669"><ele>120.0</ele><time>2026-03-29T08:33:02.708Z</time></trkpt><trkpt lat="45.4396966" lon="10.4451187"><ele>120.16666666666667</ele><time>2026-03-29T08:33:04.708Z</time></trkpt><trkpt lat="45.4395865" lon="10.4451462"><ele>120.33333333333334</ele><time>2026-03-29T08:33:06.708Z</time></trkpt><trkpt lat="45.4395223" lon="10.4451635"><ele>120.5</ele><time>2026-03-29T08:33:07.708Z</time></trkpt><trkpt lat="45.4394441" lon="10.445177"><ele>120.66666666666667</ele><time>2026-03-29T08:33:08.708Z</time></trkpt><trkpt lat="45.4393783" lon="10.4451934"><ele>120.83333333333334</ele><time>2026-03-29T08:33:09.708Z</time></trkpt><trkpt lat="45.4392985" lon="10.4452213"><ele>121.0</ele><time>2026-03-29T08:33:10.708Z</time></trkpt><trkpt lat="45.4392141" lon="10.4452466"><ele>121.0</ele><time>2026-03-29T08:33:11.708Z</time></trkpt><trkpt lat="45.4391337" lon="10.4452774"><ele>121.0</ele><time>2026-03-29T08:33:12.708Z</time></trkpt><trkpt lat="45.4390393" lon="10.4453032"><ele>121.0</ele><time>2026-03-29T08:33:13.708Z</time></trkpt><trkpt lat="45.4389313" lon="10.4453269"><ele>121.0</ele><time>2026-03-29T08:33:14.708Z</time></trkpt><trkpt lat="45.4388024" lon="10.445371"><ele>121.0</ele><time>2026-03-29T08:33:15.708Z</time></trkpt><trkpt lat="45.4386504" lon="10.4454201"><ele>120.33333333333334</ele><time>2026-03-29T08:33:16.708Z</time></trkpt><trkpt lat="45.438483" lon="10.4454734"><ele>119.66666666666666</ele><time>2026-03-29T08:33:17.708Z</time></trkpt><trkpt lat="45.4383197" lon="10.4455334"><ele>119.0</ele><time>2026-03-29T08:33:18.708Z</time></trkpt><trkpt lat="45.4381682" lon="10.4455818"><ele>119.0</ele><time>2026-03-29T08:33:19.708Z</time></trkpt><trkpt lat="45.4380209" lon="10.4456273"><ele>119.0</ele><time>2026-03-29T08:33:20.708Z</time></trkpt><trkpt lat="45.4378815" lon="10.4456708"><ele>119.0</ele><time>2026-03-29T08:33:21.708Z</time></trkpt><trkpt lat="45.4377514" lon="10.4457192"><ele>119.0</ele><time>2026-03-29T08:33:22.708Z</time></trkpt><trkpt lat="45.4376283" lon="10.4457633"><ele>119.2</ele><time>2026-03-29T08:33:23.708Z</time></trkpt><trkpt lat="45.4375142" lon="10.4458058"><ele>119.4</ele><time>2026-03-29T08:33:24.708Z</time></trkpt><trkpt lat="45.4374072" lon="10.4458422"><ele>119.6</ele><time>2026-03-29T08:33:25.708Z</time></trkpt><trkpt lat="45.4373038" lon="10.4458882"><ele>119.8</ele><time>2026-03-29T08:33:26.708Z</time></trkpt><trkpt lat="45.4372125" lon="10.4459584"><ele>120.0</ele><time>2026-03-29T08:33:27.708Z</time></trkpt><trkpt lat="45.4371325" lon="10.4460369"><ele>119.5</ele><time>2026-03-29T08:33:28.708Z</time></trkpt><trkpt lat="45.4370606" lon="10.4461269"><ele>119.0</ele><time>2026-03-29T08:33:29.708Z</time></trkpt><trkpt lat="45.4369833" lon="10.4462276"><ele>118.5</ele><time>2026-03-29T08:33:30.708Z</time></trkpt><trkpt lat="45.4368985" lon="10.4463398"><ele>118.0</ele><time>2026-03-29T08:33:31.708Z</time></trkpt><trkpt lat="45.4367975" lon="10.4464652"><ele>118.0</ele><time>2026-03-29T08:33:32.708Z</time></trkpt><trkpt lat="45.436689" lon="10.4466169"><ele>118.0</ele><time>2026-03-29T08:33:33.708Z</time></trkpt><trkpt lat="45.4365814" lon="10.4467576"><ele>118.0</ele><time>2026-03-29T08:33:34.708Z</time></trkpt><trkpt lat="45.4364876" lon="10.4468882"><ele>118.0</ele><time>2026-03-29T08:33:35.708Z</time></trkpt><trkpt lat="45.4363976" lon="10.4469957"><ele>118.0</ele><time>2026-03-29T08:33:36.708Z</time></trkpt><trkpt lat="45.4363165" lon="10.4471103"><ele>118.0</ele><time>2026-03-29T08:33:37.708Z</time></trkpt><trkpt lat="45.4362312" lon="10.4472207"><ele>118.0</ele><time>2026-03-29T08:33:38.708Z</time></trkpt><trkpt lat="45.4361466" lon="10.4473354"><ele>118.0</ele><time>2026-03-29T08:33:39.708Z</time></trkpt><trkpt lat="45.436052" lon="10.4474576"><ele>117.75</ele><time>2026-03-29T08:33:40.708Z</time></trkpt><trkpt lat="45.435953" lon="10.4475763"><ele>117.5</ele><time>2026-03-29T08:33:41.708Z</time></trkpt><trkpt lat="45.435851" lon="10.4476958"><ele>117.25</ele><time>2026-03-29T08:33:42.708Z</time></trkpt><trkpt lat="45.4357464" lon="10.4478231"><ele>117.0</ele><time>2026-03-29T08:33:43.708Z</time></trkpt><trkpt lat="45.4356471" lon="10.4479407"><ele>117.0</ele><time>2026-03-29T08:33:44.708Z</time></trkpt><trkpt lat="45.4355523" lon="10.4480441"><ele>117.0</ele><time>2026-03-29T08:33:45.708Z</time></trkpt><trkpt lat="45.4354605" lon="10.4481462"><ele>117.0</ele><time>2026-03-29T08:33:46.708Z</time></trkpt><trkpt lat="45.4353638" lon="10.4482562"><ele>117.0</ele><time>2026-03-29T08:33:47.708Z</time></trkpt><trkpt lat="45.4352706" lon="10.4483698"><ele>117.0</ele><time>2026-03-29T08:33:48.708Z</time></trkpt><trkpt lat="45.4351823" lon="10.4484791"><ele>117.0</ele><time>2026-03-29T08:33:49.708Z</time></trkpt><trkpt lat="45.4350987" lon="10.4485889"><ele>117.0</ele><time>2026-03-29T08:33:50.708Z</time></trkpt><trkpt lat="45.4350142" lon="10.4486993"><ele>117.0</ele><time>2026-03-29T08:33:51.708Z</time></trkpt><trkpt lat="45.4349278" lon="10.4488138"><ele>117.0</ele><time>2026-03-29T08:33:52.708Z</time></trkpt><trkpt lat="45.4348419" lon="10.4489336"><ele>117.0</ele><time>2026-03-29T08:33:53.708Z</time></trkpt><trkpt lat="45.4347548" lon="10.4490593"><ele>117.0</ele><time>2026-03-29T08:33:54.708Z</time></trkpt><trkpt lat="45.4346615" lon="10.4491906"><ele>117.0</ele><time>2026-03-29T08:33:55.708Z</time></trkpt><trkpt lat="45.4345653" lon="10.4493276"><ele>117.0</ele><time>2026-03-29T08:33:56.708Z</time></trkpt><trkpt lat="45.434469" lon="10.4494681"><ele>117.0</ele><time>2026-03-29T08:33:57.708Z</time></trkpt><trkpt lat="45.4343729" lon="10.4496069"><ele>117.0</ele><time>2026-03-29T08:33:58.708Z</time></trkpt><trkpt lat="45.4342846" lon="10.4497359"><ele>117.0</ele><time>2026-03-29T08:33:59.708Z</time></trkpt><trkpt lat="45.4341935" lon="10.4498609"><ele>117.0</ele><time>2026-03-29T08:34:00.708Z</time></trkpt><trkpt lat="45.4341044" lon="10.4499827"><ele>117.0</ele><time>2026-03-29T08:34:01.708Z</time></trkpt><trkpt lat="45.4340233" lon="10.450097"><ele>117.0</ele><time>2026-03-29T08:34:02.708Z</time></trkpt><trkpt lat="45.433941" lon="10.4502002"><ele>117.0</ele><time>2026-03-29T08:34:03.708Z</time></trkpt><trkpt lat="45.4338524" lon="10.4503046"><ele>117.0</ele><time>2026-03-29T08:34:04.708Z</time></trkpt><trkpt lat="45.4337551" lon="10.4504221"><ele>117.0</ele><time>2026-03-29T08:34:05.708Z</time></trkpt><trkpt lat="45.4336478" lon="10.4505557"><ele>117.0</ele><time>2026-03-29T08:34:06.708Z</time></trkpt><trkpt lat="45.4335492" lon="10.4506884"><ele>117.0</ele><time>2026-03-29T08:34:07.708Z</time></trkpt><trkpt lat="45.4334587" lon="10.4508153"><ele>117.0</ele><time>2026-03-29T08:34:08.708Z</time></trkpt><trkpt lat="45.4333595" lon="10.4509494"><ele>117.0</ele><time>2026-03-29T08:34:09.708Z</time></trkpt><trkpt lat="45.4332452" lon="10.4511022"><ele>117.0</ele><time>2026-03-29T08:34:10.708Z</time></trkpt><trkpt lat="45.4331312" lon="10.4512571"><ele>117.0</ele><time>2026-03-29T08:34:11.709Z</time></trkpt><trkpt lat="45.4330248" lon="10.4513993"><ele>117.0</ele><time>2026-03-29T08:34:12.708Z</time></trkpt><trkpt lat="45.4329178" lon="10.4515408"><ele>117.0</ele><time>2026-03-29T08:34:13.708Z</time></trkpt><trkpt lat="45.4328162" lon="10.4516808"><ele>117.0</ele><time>2026-03-29T08:34:14.708Z</time></trkpt><trkpt lat="45.4327172" lon="10.4518125"><ele>116.75</ele><time>2026-03-29T08:34:15.708Z</time></trkpt><trkpt lat="45.43262" lon="10.4519437"><ele>116.5</ele><time>2026-03-29T08:34:16.708Z</time></trkpt><trkpt lat="45.4325136" lon="10.4520907"><ele>116.25</ele><time>2026-03-29T08:34:17.708Z</time></trkpt><trkpt lat="45.4323999" lon="10.4522534"><ele>116.0</ele><time>2026-03-29T08:34:18.708Z</time></trkpt><trkpt lat="45.4322971" lon="10.4524015"><ele>116.0</ele><time>2026-03-29T08:34:19.708Z</time></trkpt><trkpt lat="45.4321941" lon="10.452558"><ele>116.0</ele><time>2026-03-29T08:34:20.708Z</time></trkpt><trkpt lat="45.4320876" lon="10.452714"><ele>116.0</ele><time>2026-03-29T08:34:21.708Z</time></trkpt><trkpt lat="45.4319857" lon="10.4528712"><ele>116.0</ele><time>2026-03-29T08:34:22.708Z</time></trkpt><trkpt lat="45.4318912" lon="10.4530181"><ele>116.0</ele><time>2026-03-29T08:34:23.708Z</time></trkpt><trkpt lat="45.4318069" lon="10.4531623"><ele>116.0</ele><time>2026-03-29T08:34:24.708Z</time></trkpt><trkpt lat="45.4317259" lon="10.453294"><ele>116.0</ele><time>2026-03-29T08:34:25.708Z</time></trkpt><trkpt lat="45.4316334" lon="10.453425"><ele>116.0</ele><time>2026-03-29T08:34:26.708Z</time></trkpt><trkpt lat="45.4315406" lon="10.4535687"><ele>116.0</ele><time>2026-03-29T08:34:27.708Z</time></trkpt><trkpt lat="45.4314528" lon="10.4537026"><ele>116.0</ele><time>2026-03-29T08:34:28.708Z</time></trkpt><trkpt lat="45.4313604" lon="10.4538344"><ele>116.0</ele><time>2026-03-29T08:34:29.708Z</time></trkpt><trkpt lat="45.4312674" lon="10.4539751"><ele>115.75</ele><time>2026-03-29T08:34:30.708Z</time></trkpt><trkpt lat="45.4311841" lon="10.4540981"><ele>115.5</ele><time>2026-03-29T08:34:31.708Z</time></trkpt><trkpt lat="45.4311014" lon="10.4542268"><ele>115.25</ele><time>2026-03-29T08:34:32.708Z</time></trkpt><trkpt lat="45.4310243" lon="10.4543349"><ele>115.0</ele><time>2026-03-29T08:34:33.708Z</time></trkpt><trkpt lat="45.4309509" lon="10.4544325"><ele>115.0</ele><time>2026-03-29T08:34:34.708Z</time></trkpt><trkpt lat="45.4308737" lon="10.4545035"><ele>115.0</ele><time>2026-03-29T08:34:35.708Z</time></trkpt><trkpt lat="45.4307851" lon="10.4545445"><ele>115.0</ele><time>2026-03-29T08:34:36.708Z</time></trkpt><trkpt lat="45.4306941" lon="10.4546025"><ele>115.0</ele><time>2026-03-29T08:34:37.708Z</time></trkpt><trkpt lat="45.4305987" lon="10.4546879"><ele>115.0</ele><time>2026-03-29T08:34:38.708Z</time></trkpt><trkpt lat="45.4304988" lon="10.4547894"><ele>115.0</ele><time>2026-03-29T08:34:39.709Z</time></trkpt><trkpt lat="45.4304082" lon="10.4548794"><ele>115.0</ele><time>2026-03-29T08:34:40.709Z</time></trkpt><trkpt lat="45.4303189" lon="10.4549722"><ele>115.0</ele><time>2026-03-29T08:34:41.708Z</time></trkpt><trkpt lat="45.4302199" lon="10.4550698"><ele>115.0</ele><time>2026-03-29T08:34:42.708Z</time></trkpt><trkpt lat="45.4301149" lon="10.4551714"><ele>115.0</ele><time>2026-03-29T08:34:43.708Z</time></trkpt><trkpt lat="45.4300029" lon="10.4552796"><ele>115.0</ele><time>2026-03-29T08:34:44.708Z</time></trkpt><trkpt lat="45.4298899" lon="10.4553837"><ele>115.0</ele><time>2026-03-29T08:34:45.709Z</time></trkpt><trkpt lat="45.4297848" lon="10.455482"><ele>115.0</ele><time>2026-03-29T08:34:46.708Z</time></trkpt><trkpt lat="45.42968" lon="10.4555895"><ele>115.0</ele><time>2026-03-29T08:34:47.708Z</time></trkpt><trkpt lat="45.4295705" lon="10.4557012"><ele>115.0</ele><time>2026-03-29T08:34:48.708Z</time></trkpt><trkpt lat="45.4294743" lon="10.45579"><ele>115.0</ele><time>2026-03-29T08:34:49.708Z</time></trkpt><trkpt lat="45.4293876" lon="10.4558702"><ele>115.0</ele><time>2026-03-29T08:34:50.708Z</time></trkpt><trkpt lat="45.4292967" lon="10.4559565"><ele>115.0</ele><time>2026-03-29T08:34:51.708Z</time></trkpt><trkpt lat="45.4291947" lon="10.4560505"><ele>115.0</ele><time>2026-03-29T08:34:52.708Z</time></trkpt><trkpt lat="45.4290857" lon="10.4561602"><ele>115.0</ele><time>2026-03-29T08:34:53.708Z</time></trkpt><trkpt lat="45.4289765" lon="10.4562609"><ele>115.0</ele><time>2026-03-29T08:34:54.708Z</time></trkpt><trkpt lat="45.428874" lon="10.4563543"><ele>115.0</ele><time>2026-03-29T08:34:55.708Z</time></trkpt><trkpt lat="45.4287803" lon="10.4564428"><ele>115.0</ele><time>2026-03-29T08:34:56.708Z</time></trkpt><trkpt lat="45.4286923" lon="10.4565227"><ele>115.0</ele><time>2026-03-29T08:34:57.708Z</time></trkpt><trkpt lat="45.4286121" lon="10.4565976"><ele>115.0</ele><time>2026-03-29T08:34:58.708Z</time></trkpt><trkpt lat="45.4285436" lon="10.4566688"><ele>115.0</ele><time>2026-03-29T08:34:59.708Z</time></trkpt><trkpt lat="45.4284788" lon="10.4567318"><ele>115.0</ele><time>2026-03-29T08:35:00.708Z</time></trkpt><trkpt lat="45.4284129" lon="10.4567892"><ele>115.0</ele><time>2026-03-29T08:35:01.708Z</time></trkpt><trkpt lat="45.4283083" lon="10.4568361"><ele>115.0</ele><time>2026-03-29T08:35:03.708Z</time></trkpt><trkpt lat="45.4282398" lon="10.4568265"><ele>115.0</ele><time>2026-03-29T08:35:04.708Z</time></trkpt><trkpt lat="45.4281523" lon="10.4567874"><ele>115.0</ele><time>2026-03-29T08:35:05.708Z</time></trkpt><trkpt lat="45.4280487" lon="10.4567378"><ele>115.0</ele><time>2026-03-29T08:35:06.708Z</time></trkpt><trkpt lat="45.4279551" lon="10.4566817"><ele>115.0</ele><time>2026-03-29T08:35:07.708Z</time></trkpt><trkpt lat="45.4278435" lon="10.4566078"><ele>115.0</ele><time>2026-03-29T08:35:08.708Z</time></trkpt><trkpt lat="45.4277239" lon="10.4565285"><ele>115.0</ele><time>2026-03-29T08:35:09.708Z</time></trkpt><trkpt lat="45.4275986" lon="10.4564464"><ele>115.0</ele><time>2026-03-29T08:35:10.708Z</time></trkpt><trkpt lat="45.4274642" lon="10.4563629"><ele>115.0</ele><time>2026-03-29T08:35:11.708Z</time></trkpt><trkpt lat="45.427338" lon="10.456286"><ele>115.0</ele><time>2026-03-29T08:35:12.708Z</time></trkpt><trkpt lat="45.427214" lon="10.4562124"><ele>115.0</ele><time>2026-03-29T08:35:13.708Z</time></trkpt><trkpt lat="45.4270865" lon="10.4561385"><ele>114.25</ele><time>2026-03-29T08:35:14.708Z</time></trkpt><trkpt lat="45.4269563" lon="10.4560588"><ele>113.5</ele><time>2026-03-29T08:35:15.708Z</time></trkpt><trkpt lat="45.4268243" lon="10.4559802"><ele>112.75</ele><time>2026-03-29T08:35:16.708Z</time></trkpt><trkpt lat="45.4266896" lon="10.4558916"><ele>112.0</ele><time>2026-03-29T08:35:17.708Z</time></trkpt><trkpt lat="45.426552" lon="10.4558058"><ele>112.0</ele><time>2026-03-29T08:35:18.708Z</time></trkpt><trkpt lat="45.4264118" lon="10.4557203"><ele>112.0</ele><time>2026-03-29T08:35:19.708Z</time></trkpt><trkpt lat="45.4262807" lon="10.4556387"><ele>112.0</ele><time>2026-03-29T08:35:20.708Z</time></trkpt><trkpt lat="45.426143" lon="10.4555562"><ele>112.0</ele><time>2026-03-29T08:35:21.708Z</time></trkpt><trkpt lat="45.4259893" lon="10.4554612"><ele>112.0</ele><time>2026-03-29T08:35:22.708Z</time></trkpt><trkpt lat="45.4258365" lon="10.455364"><ele>112.0</ele><time>2026-03-29T08:35:23.708Z</time></trkpt><trkpt lat="45.4256947" lon="10.4552733"><ele>112.0</ele><time>2026-03-29T08:35:24.708Z</time></trkpt><trkpt lat="45.4255597" lon="10.4551859"><ele>112.25</ele><time>2026-03-29T08:35:25.708Z</time></trkpt><trkpt lat="45.4254334" lon="10.4551028"><ele>112.5</ele><time>2026-03-29T08:35:26.708Z</time></trkpt><trkpt lat="45.4253186" lon="10.455028"><ele>112.75</ele><time>2026-03-29T08:35:27.708Z</time></trkpt><trkpt lat="45.4252176" lon="10.4549636"><ele>113.0</ele><time>2026-03-29T08:35:28.708Z</time></trkpt><trkpt lat="45.4251224" lon="10.4548966"><ele>113.0</ele><time>2026-03-29T08:35:29.708Z</time></trkpt><trkpt lat="45.42502" lon="10.4548247"><ele>113.0</ele><time>2026-03-29T08:35:30.709Z</time></trkpt><trkpt lat="45.4249125" lon="10.4547583"><ele>113.0</ele><time>2026-03-29T08:35:31.708Z</time></trkpt><trkpt lat="45.4248091" lon="10.454691"><ele>113.0</ele><time>2026-03-29T08:35:32.708Z</time></trkpt><trkpt lat="45.4247114" lon="10.4546257"><ele>112.80000000000001</ele><time>2026-03-29T08:35:33.708Z</time></trkpt><trkpt lat="45.4246175" lon="10.4545651"><ele>112.60000000000001</ele><time>2026-03-29T08:35:34.708Z</time></trkpt><trkpt lat="45.4245291" lon="10.4545088"><ele>112.39999999999999</ele><time>2026-03-29T08:35:35.708Z</time></trkpt><trkpt lat="45.4244428" lon="10.4544508"><ele>112.19999999999999</ele><time>2026-03-29T08:35:36.708Z</time></trkpt><trkpt lat="45.4243567" lon="10.4543969"><ele>112.0</ele><time>2026-03-29T08:35:37.708Z</time></trkpt><trkpt lat="45.4242777" lon="10.4543478"><ele>112.0</ele><time>2026-03-29T08:35:38.708Z</time></trkpt><trkpt lat="45.424205" lon="10.4543059"><ele>111.99999999999999</ele><time>2026-03-29T08:35:39.708Z</time></trkpt><trkpt lat="45.4241353" lon="10.4542769"><ele>111.99999999999999</ele><time>2026-03-29T08:35:40.708Z</time></trkpt><trkpt lat="45.4240341" lon="10.4542465"><ele>112.0</ele><time>2026-03-29T08:35:42.708Z</time></trkpt><trkpt lat="45.4239115" lon="10.4541843"><ele>112.0</ele><time>2026-03-29T08:35:44.708Z</time></trkpt><trkpt lat="45.4238257" lon="10.4541284"><ele>111.8</ele><time>2026-03-29T08:35:45.708Z</time></trkpt><trkpt lat="45.4237275" lon="10.4540557"><ele>111.6</ele><time>2026-03-29T08:35:46.708Z</time></trkpt><trkpt lat="45.4236367" lon="10.4540007"><ele>111.39999999999999</ele><time>2026-03-29T08:35:47.708Z</time></trkpt><trkpt lat="45.423549" lon="10.4539472"><ele>111.19999999999999</ele><time>2026-03-29T08:35:48.709Z</time></trkpt><trkpt lat="45.4234383" lon="10.4538761"><ele>111.0</ele><time>2026-03-29T08:35:49.708Z</time></trkpt><trkpt lat="45.4233109" lon="10.4537933"><ele>110.66666666666666</ele><time>2026-03-29T08:35:50.708Z</time></trkpt><trkpt lat="45.4231652" lon="10.4537021"><ele>110.33333333333333</ele><time>2026-03-29T08:35:51.708Z</time></trkpt><trkpt lat="45.4230036" lon="10.4536022"><ele>110.0</ele><time>2026-03-29T08:35:52.708Z</time></trkpt><trkpt lat="45.422858" lon="10.4535139"><ele>110.0</ele><time>2026-03-29T08:35:53.708Z</time></trkpt><trkpt lat="45.4227221" lon="10.4534311"><ele>110.0</ele><time>2026-03-29T08:35:54.708Z</time></trkpt><trkpt lat="45.422595" lon="10.4533534"><ele>110.0</ele><time>2026-03-29T08:35:55.708Z</time></trkpt><trkpt lat="45.4224884" lon="10.4532787"><ele>110.0</ele><time>2026-03-29T08:35:56.708Z</time></trkpt><trkpt lat="45.4223952" lon="10.45322"><ele>110.0</ele><time>2026-03-29T08:35:57.708Z</time></trkpt><trkpt lat="45.422281" lon="10.4531638"><ele>110.0</ele><time>2026-03-29T08:35:58.708Z</time></trkpt><trkpt lat="45.4221576" lon="10.4530917"><ele>110.0</ele><time>2026-03-29T08:35:59.708Z</time></trkpt><trkpt lat="45.4220236" lon="10.4529962"><ele>110.0</ele><time>2026-03-29T08:36:00.708Z</time></trkpt><trkpt lat="45.4219025" lon="10.4529186"><ele>110.0</ele><time>2026-03-29T08:36:01.708Z</time></trkpt><trkpt lat="45.4217678" lon="10.4528362"><ele>110.0</ele><time>2026-03-29T08:36:02.709Z</time></trkpt><trkpt lat="45.4216311" lon="10.4527456"><ele>110.0</ele><time>2026-03-29T08:36:03.708Z</time></trkpt><trkpt lat="45.4214946" lon="10.4526607"><ele>110.0</ele><time>2026-03-29T08:36:04.708Z</time></trkpt><trkpt lat="45.4213663" lon="10.4525866"><ele>109.5</ele><time>2026-03-29T08:36:05.708Z</time></trkpt><trkpt lat="45.4212463" lon="10.4525065"><ele>109.0</ele><time>2026-03-29T08:36:06.708Z</time></trkpt><trkpt lat="45.421111" lon="10.4524143"><ele>108.5</ele><time>2026-03-29T08:36:07.708Z</time></trkpt><trkpt lat="45.42097" lon="10.4523276"><ele>108.0</ele><time>2026-03-29T08:36:08.708Z</time></trkpt><trkpt lat="45.4208391" lon="10.4522443"><ele>108.0</ele><time>2026-03-29T08:36:09.708Z</time></trkpt><trkpt lat="45.4207073" lon="10.4521509"><ele>108.0</ele><time>2026-03-29T08:36:10.708Z</time></trkpt><trkpt lat="45.4205685" lon="10.4520637"><ele>108.0</ele><time>2026-03-29T08:36:11.708Z</time></trkpt><trkpt lat="45.4204284" lon="10.4519673"><ele>108.33333333333334</ele><time>2026-03-29T08:36:12.708Z</time></trkpt><trkpt lat="45.4202763" lon="10.4518673"><ele>108.66666666666667</ele><time>2026-03-29T08:36:13.708Z</time></trkpt><trkpt lat="45.4201347" lon="10.4517743"><ele>109.0</ele><time>2026-03-29T08:36:14.708Z</time></trkpt><trkpt lat="45.4199946" lon="10.4516869"><ele>109.0</ele><time>2026-03-29T08:36:15.708Z</time></trkpt><trkpt lat="45.4198465" lon="10.4515987"><ele>109.0</ele><time>2026-03-29T08:36:16.708Z</time></trkpt><trkpt lat="45.4197062" lon="10.4515211"><ele>109.0</ele><time>2026-03-29T08:36:17.708Z</time></trkpt><trkpt lat="45.4195697" lon="10.4514419"><ele>108.5</ele><time>2026-03-29T08:36:18.708Z</time></trkpt><trkpt lat="45.4194387" lon="10.4513589"><ele>108.0</ele><time>2026-03-29T08:36:19.708Z</time></trkpt><trkpt lat="45.4193025" lon="10.4512678"><ele>107.5</ele><time>2026-03-29T08:36:20.708Z</time></trkpt><trkpt lat="45.419178" lon="10.4511854"><ele>107.0</ele><time>2026-03-29T08:36:21.708Z</time></trkpt><trkpt lat="45.4190569" lon="10.4511104"><ele>106.75</ele><time>2026-03-29T08:36:22.708Z</time></trkpt><trkpt lat="45.4189356" lon="10.4510318"><ele>106.5</ele><time>2026-03-29T08:36:23.708Z</time></trkpt><trkpt lat="45.4188127" lon="10.4509485"><ele>106.25</ele><time>2026-03-29T08:36:24.708Z</time></trkpt><trkpt lat="45.4186978" lon="10.4508782"><ele>106.0</ele><time>2026-03-29T08:36:25.708Z</time></trkpt><trkpt lat="45.4185909" lon="10.4508137"><ele>105.75</ele><time>2026-03-29T08:36:26.708Z</time></trkpt><trkpt lat="45.4184827" lon="10.4507455"><ele>105.5</ele><time>2026-03-29T08:36:27.708Z</time></trkpt><trkpt lat="45.4183721" lon="10.4506739"><ele>105.25</ele><time>2026-03-29T08:36:28.708Z</time></trkpt><trkpt lat="45.4182557" lon="10.4506016"><ele>105.0</ele><time>2026-03-29T08:36:29.708Z</time></trkpt><trkpt lat="45.4181371" lon="10.450525"><ele>104.75</ele><time>2026-03-29T08:36:30.708Z</time></trkpt><trkpt lat="45.4180175" lon="10.450453"><ele>104.5</ele><time>2026-03-29T08:36:31.708Z</time></trkpt><trkpt lat="45.4178976" lon="10.4503766"><ele>104.25</ele><time>2026-03-29T08:36:32.708Z</time></trkpt><trkpt lat="45.4177811" lon="10.4503027"><ele>104.0</ele><time>2026-03-29T08:36:33.708Z</time></trkpt><trkpt lat="45.4176713" lon="10.4502282"><ele>103.75</ele><time>2026-03-29T08:36:34.708Z</time></trkpt><trkpt lat="45.4175582" lon="10.450158"><ele>103.5</ele><time>2026-03-29T08:36:35.708Z</time></trkpt><trkpt lat="45.4174515" lon="10.4500876"><ele>103.25</ele><time>2026-03-29T08:36:36.709Z</time></trkpt><trkpt lat="45.4173546" lon="10.4500189"><ele>103.0</ele><time>2026-03-29T08:36:37.709Z</time></trkpt><trkpt lat="45.4172585" lon="10.4499598"><ele>103.0</ele><time>2026-03-29T08:36:38.709Z</time></trkpt><trkpt lat="45.4171749" lon="10.4498993"><ele>103.0</ele><time>2026-03-29T08:36:39.708Z</time></trkpt><trkpt lat="45.4171066" lon="10.449848"><ele>103.0</ele><time>2026-03-29T08:36:40.708Z</time></trkpt><trkpt lat="45.4170068" lon="10.4498204"><ele>103.0</ele><time>2026-03-29T08:36:42.708Z</time></trkpt><trkpt lat="45.4169217" lon="10.4499234"><ele>103.0</ele><time>2026-03-29T08:36:44.709Z</time></trkpt><trkpt lat="45.4168676" lon="10.4500369"><ele>103.5</ele><time>2026-03-29T08:36:45.708Z</time></trkpt><trkpt lat="45.4167984" lon="10.4501689"><ele>104.0</ele><time>2026-03-29T08:36:46.708Z</time></trkpt><trkpt lat="45.4167043" lon="10.4503271"><ele>104.5</ele><time>2026-03-29T08:36:47.708Z</time></trkpt><trkpt lat="45.4165966" lon="10.4505029"><ele>105.0</ele><time>2026-03-29T08:36:48.708Z</time></trkpt><trkpt lat="45.4164935" lon="10.4506714"><ele>105.0</ele><time>2026-03-29T08:36:49.708Z</time></trkpt><trkpt lat="45.4164094" lon="10.4508097"><ele>105.0</ele><time>2026-03-29T08:36:50.708Z</time></trkpt><trkpt lat="45.4163278" lon="10.4509383"><ele>105.0</ele><time>2026-03-29T08:36:51.708Z</time></trkpt><trkpt lat="45.4162422" lon="10.4510725"><ele>105.0</ele><time>2026-03-29T08:36:52.708Z</time></trkpt><trkpt lat="45.4161619" lon="10.4511957"><ele>104.75</ele><time>2026-03-29T08:36:53.708Z</time></trkpt><trkpt lat="45.4160781" lon="10.451325"><ele>104.5</ele><time>2026-03-29T08:36:54.708Z</time></trkpt><trkpt lat="45.4159988" lon="10.4514616"><ele>104.25</ele><time>2026-03-29T08:36:55.708Z</time></trkpt><trkpt lat="45.4159157" lon="10.4515947"><ele>104.0</ele><time>2026-03-29T08:36:56.708Z</time></trkpt><trkpt lat="45.4158253" lon="10.4517286"><ele>104.0</ele><time>2026-03-29T08:36:57.708Z</time></trkpt><trkpt lat="45.4157359" lon="10.4518688"><ele>104.0</ele><time>2026-03-29T08:36:58.708Z</time></trkpt><trkpt lat="45.4156562" lon="10.4519952"><ele>104.0</ele><time>2026-03-29T08:36:59.708Z</time></trkpt><trkpt lat="45.4155783" lon="10.4521139"><ele>104.0</ele><time>2026-03-29T08:37:00.708Z</time></trkpt><trkpt lat="45.4155091" lon="10.4522229"><ele>103.83333333333333</ele><time>2026-03-29T08:37:01.708Z</time></trkpt><trkpt lat="45.4154459" lon="10.4523298"><ele>103.66666666666666</ele><time>2026-03-29T08:37:02.708Z</time></trkpt><trkpt lat="45.4153863" lon="10.4524255"><ele>103.5</ele><time>2026-03-29T08:37:03.708Z</time></trkpt><trkpt lat="45.4153326" lon="10.4525127"><ele>103.33333333333334</ele><time>2026-03-29T08:37:04.708Z</time></trkpt><trkpt lat="45.4152795" lon="10.4525961"><ele>103.16666666666667</ele><time>2026-03-29T08:37:05.708Z</time></trkpt><trkpt lat="45.4152196" lon="10.452693"><ele>103.0</ele><time>2026-03-29T08:37:06.708Z</time></trkpt><trkpt lat="45.4151605" lon="10.4527903"><ele>103.0</ele><time>2026-03-29T08:37:07.708Z</time></trkpt><trkpt lat="45.415095" lon="10.4529005"><ele>103.0</ele><time>2026-03-29T08:37:08.708Z</time></trkpt><trkpt lat="45.4150312" lon="10.4530033"><ele>103.0</ele><time>2026-03-29T08:37:09.708Z</time></trkpt><trkpt lat="45.41497" lon="10.4530929"><ele>103.0</ele><time>2026-03-29T08:37:10.708Z</time></trkpt><trkpt lat="45.4149225" lon="10.4531696"><ele>103.0</ele><time>2026-03-29T08:37:11.708Z</time></trkpt><trkpt lat="45.414907" lon="10.4533134"><ele>103.60000000000001</ele><time>2026-03-29T08:37:13.708Z</time></trkpt><trkpt lat="45.4149886" lon="10.4534338"><ele>104.2</ele><time>2026-03-29T08:37:15.708Z</time></trkpt><trkpt lat="45.4150655" lon="10.4534968"><ele>104.8</ele><time>2026-03-29T08:37:16.708Z</time></trkpt><trkpt lat="45.4151352" lon="10.4535632"><ele>105.4</ele><time>2026-03-29T08:37:17.708Z</time></trkpt><trkpt lat="45.4152109" lon="10.4536414"><ele>106.0</ele><time>2026-03-29T08:37:18.708Z</time></trkpt><trkpt lat="45.4152937" lon="10.4537216"><ele>106.00000000000001</ele><time>2026-03-29T08:37:19.708Z</time></trkpt><trkpt lat="45.4153742" lon="10.4538034"><ele>106.0</ele><time>2026-03-29T08:37:20.708Z</time></trkpt><trkpt lat="45.4154581" lon="10.4538863"><ele>106.0</ele><time>2026-03-29T08:37:21.708Z</time></trkpt><trkpt lat="45.4155294" lon="10.453957"><ele>106.0</ele><time>2026-03-29T08:37:22.708Z</time></trkpt><trkpt lat="45.4155939" lon="10.4540199"><ele>106.00000000000001</ele><time>2026-03-29T08:37:23.708Z</time></trkpt><trkpt lat="45.4156602" lon="10.4540795"><ele>106.0</ele><time>2026-03-29T08:37:24.708Z</time></trkpt><trkpt lat="45.4157373" lon="10.45414"><ele>106.00000000000001</ele><time>2026-03-29T08:37:25.708Z</time></trkpt><trkpt lat="45.4158084" lon="10.4541997"><ele>106.0</ele><time>2026-03-29T08:37:26.708Z</time></trkpt><trkpt lat="45.4158722" lon="10.4542653"><ele>106.0</ele><time>2026-03-29T08:37:27.708Z</time></trkpt><trkpt lat="45.415921" lon="10.4543358"><ele>106.0</ele><time>2026-03-29T08:37:28.708Z</time></trkpt><trkpt lat="45.415954" lon="10.4544255"><ele>106.00000000000001</ele><time>2026-03-29T08:37:29.708Z</time></trkpt><trkpt lat="45.4159676" lon="10.4545342"><ele>106.0</ele><time>2026-03-29T08:37:30.708Z</time></trkpt><trkpt lat="45.4159595" lon="10.4546598"><ele>106.0</ele><time>2026-03-29T08:37:31.708Z</time></trkpt><trkpt lat="45.4159359" lon="10.4548192"><ele>106.0</ele><time>2026-03-29T08:37:32.708Z</time></trkpt><trkpt lat="45.4159074" lon="10.4550067"><ele>106.0</ele><time>2026-03-29T08:37:33.708Z</time></trkpt><trkpt lat="45.415879" lon="10.4552101"><ele>106.0</ele><time>2026-03-29T08:37:34.708Z</time></trkpt><trkpt lat="45.4158549" lon="10.4554081"><ele>106.25</ele><time>2026-03-29T08:37:35.708Z</time></trkpt><trkpt lat="45.4158346" lon="10.4555936"><ele>106.5</ele><time>2026-03-29T08:37:36.708Z</time></trkpt><trkpt lat="45.4158154" lon="10.4557677"><ele>106.75</ele><time>2026-03-29T08:37:37.708Z</time></trkpt><trkpt lat="45.4157953" lon="10.4559546"><ele>107.0</ele><time>2026-03-29T08:37:38.709Z</time></trkpt><trkpt lat="45.4157715" lon="10.4561427"><ele>106.75</ele><time>2026-03-29T08:37:39.708Z</time></trkpt><trkpt lat="45.4157477" lon="10.4563366"><ele>106.5</ele><time>2026-03-29T08:37:40.708Z</time></trkpt><trkpt lat="45.4157197" lon="10.4565131"><ele>106.25</ele><time>2026-03-29T08:37:41.709Z</time></trkpt><trkpt lat="45.4156982" lon="10.4566911"><ele>106.0</ele><time>2026-03-29T08:37:42.708Z</time></trkpt><trkpt lat="45.4156818" lon="10.4568686"><ele>106.0</ele><time>2026-03-29T08:37:43.708Z</time></trkpt><trkpt lat="45.4156663" lon="10.4570457"><ele>106.0</ele><time>2026-03-29T08:37:44.708Z</time></trkpt><trkpt lat="45.4156515" lon="10.4572075"><ele>106.0</ele><time>2026-03-29T08:37:45.708Z</time></trkpt><trkpt lat="45.4156351" lon="10.4573633"><ele>106.0</ele><time>2026-03-29T08:37:46.708Z</time></trkpt><trkpt lat="45.4156228" lon="10.4575037"><ele>105.75</ele><time>2026-03-29T08:37:47.708Z</time></trkpt><trkpt lat="45.4156104" lon="10.4576466"><ele>105.5</ele><time>2026-03-29T08:37:48.708Z</time></trkpt><trkpt lat="45.4155963" lon="10.457794"><ele>105.25</ele><time>2026-03-29T08:37:49.708Z</time></trkpt><trkpt lat="45.4155818" lon="10.4579573"><ele>105.0</ele><time>2026-03-29T08:37:50.708Z</time></trkpt><trkpt lat="45.4155685" lon="10.4581397"><ele>104.75</ele><time>2026-03-29T08:37:51.708Z</time></trkpt><trkpt lat="45.4155583" lon="10.4583065"><ele>104.5</ele><time>2026-03-29T08:37:52.709Z</time></trkpt><trkpt lat="45.41555" lon="10.4584834"><ele>104.25</ele><time>2026-03-29T08:37:53.708Z</time></trkpt><trkpt lat="45.4155404" lon="10.4586517"><ele>104.0</ele><time>2026-03-29T08:37:54.708Z</time></trkpt><trkpt lat="45.4155301" lon="10.458823"><ele>104.0</ele><time>2026-03-29T08:37:55.708Z</time></trkpt><trkpt lat="45.4155234" lon="10.4589991"><ele>104.0</ele><time>2026-03-29T08:37:56.708Z</time></trkpt><trkpt lat="45.4155148" lon="10.4591789"><ele>104.0</ele><time>2026-03-29T08:37:57.708Z</time></trkpt><trkpt lat="45.4155091" lon="10.4593563"><ele>104.0</ele><time>2026-03-29T08:37:58.708Z</time></trkpt><trkpt lat="45.4155005" lon="10.4595445"><ele>104.0</ele><time>2026-03-29T08:37:59.708Z</time></trkpt><trkpt lat="45.415491" lon="10.4597288"><ele>104.0</ele><time>2026-03-29T08:38:00.709Z</time></trkpt><trkpt lat="45.4154837" lon="10.4598956"><ele>104.0</ele><time>2026-03-29T08:38:01.708Z</time></trkpt><trkpt lat="45.4154772" lon="10.4600776"><ele>104.0</ele><time>2026-03-29T08:38:02.708Z</time></trkpt><trkpt lat="45.4154653" lon="10.4602545"><ele>104.0</ele><time>2026-03-29T08:38:03.708Z</time></trkpt><trkpt lat="45.4154579" lon="10.4604207"><ele>104.0</ele><time>2026-03-29T08:38:04.708Z</time></trkpt><trkpt lat="45.415453" lon="10.460593"><ele>104.0</ele><time>2026-03-29T08:38:05.708Z</time></trkpt><trkpt lat="45.4154449" lon="10.4607458"><ele>104.0</ele><time>2026-03-29T08:38:06.708Z</time></trkpt><trkpt lat="45.4154341" lon="10.4608857"><ele>104.0</ele><time>2026-03-29T08:38:07.709Z</time></trkpt><trkpt lat="45.4154273" lon="10.4610214"><ele>104.0</ele><time>2026-03-29T08:38:08.708Z</time></trkpt><trkpt lat="45.415424" lon="10.4611705"><ele>104.0</ele><time>2026-03-29T08:38:09.708Z</time></trkpt><trkpt lat="45.4154182" lon="10.4613327"><ele>104.0</ele><time>2026-03-29T08:38:10.708Z</time></trkpt><trkpt lat="45.4154048" lon="10.4615108"><ele>104.0</ele><time>2026-03-29T08:38:11.708Z</time></trkpt><trkpt lat="45.4153979" lon="10.4617026"><ele>104.0</ele><time>2026-03-29T08:38:12.708Z</time></trkpt><trkpt lat="45.4153901" lon="10.4619007"><ele>104.0</ele><time>2026-03-29T08:38:13.708Z</time></trkpt><trkpt lat="45.4153833" lon="10.4621046"><ele>104.0</ele><time>2026-03-29T08:38:14.708Z</time></trkpt><trkpt lat="45.4153749" lon="10.4623113"><ele>104.0</ele><time>2026-03-29T08:38:15.708Z</time></trkpt><trkpt lat="45.4153664" lon="10.4625287"><ele>104.0</ele><time>2026-03-29T08:38:16.708Z</time></trkpt><trkpt lat="45.4153597" lon="10.4627311"><ele>104.0</ele><time>2026-03-29T08:38:17.708Z</time></trkpt><trkpt lat="45.4153569" lon="10.4629125"><ele>104.0</ele><time>2026-03-29T08:38:18.708Z</time></trkpt><trkpt lat="45.4153594" lon="10.4631072"><ele>104.0</ele><time>2026-03-29T08:38:19.708Z</time></trkpt><trkpt lat="45.4153644" lon="10.4633109"><ele>104.25</ele><time>2026-03-29T08:38:20.708Z</time></trkpt><trkpt lat="45.4153777" lon="10.4635279"><ele>104.5</ele><time>2026-03-29T08:38:21.709Z</time></trkpt><trkpt lat="45.4153924" lon="10.4637368"><ele>104.75</ele><time>2026-03-29T08:38:22.708Z</time></trkpt><trkpt lat="45.4154055" lon="10.4639259"><ele>105.0</ele><time>2026-03-29T08:38:23.708Z</time></trkpt><trkpt lat="45.4154149" lon="10.4641012"><ele>105.75</ele><time>2026-03-29T08:38:24.708Z</time></trkpt><trkpt lat="45.4154258" lon="10.4642527"><ele>106.5</ele><time>2026-03-29T08:38:25.708Z</time></trkpt><trkpt lat="45.4154424" lon="10.4644037"><ele>107.25</ele><time>2026-03-29T08:38:26.708Z</time></trkpt><trkpt lat="45.4154609" lon="10.4645731"><ele>108.0</ele><time>2026-03-29T08:38:27.708Z</time></trkpt><trkpt lat="45.4154847" lon="10.4647703"><ele>107.66666666666666</ele><time>2026-03-29T08:38:28.708Z</time></trkpt><trkpt lat="45.4155069" lon="10.4649864"><ele>107.33333333333333</ele><time>2026-03-29T08:38:29.708Z</time></trkpt><trkpt lat="45.4155185" lon="10.465193"><ele>107.0</ele><time>2026-03-29T08:38:30.708Z</time></trkpt><trkpt lat="45.4155308" lon="10.4654112"><ele>107.0</ele><time>2026-03-29T08:38:31.708Z</time></trkpt><trkpt lat="45.4155421" lon="10.4656212"><ele>107.0</ele><time>2026-03-29T08:38:32.708Z</time></trkpt><trkpt lat="45.4155552" lon="10.4658362"><ele>107.0</ele><time>2026-03-29T08:38:33.708Z</time></trkpt><trkpt lat="45.4155691" lon="10.4660397"><ele>107.0</ele><time>2026-03-29T08:38:34.708Z</time></trkpt><trkpt lat="45.4155811" lon="10.4662421"><ele>107.0</ele><time>2026-03-29T08:38:35.708Z</time></trkpt><trkpt lat="45.4155907" lon="10.466451"><ele>107.0</ele><time>2026-03-29T08:38:36.708Z</time></trkpt><trkpt lat="45.4155943" lon="10.466661"><ele>107.0</ele><time>2026-03-29T08:38:37.708Z</time></trkpt><trkpt lat="45.4155908" lon="10.4668651"><ele>107.0</ele><time>2026-03-29T08:38:38.708Z</time></trkpt><trkpt lat="45.4155843" lon="10.4670551"><ele>107.0</ele><time>2026-03-29T08:38:39.708Z</time></trkpt><trkpt lat="45.4155788" lon="10.4672397"><ele>107.0</ele><time>2026-03-29T08:38:40.708Z</time></trkpt><trkpt lat="45.4155682" lon="10.4674317"><ele>107.0</ele><time>2026-03-29T08:38:41.708Z</time></trkpt><trkpt lat="45.4155491" lon="10.4676257"><ele>107.0</ele><time>2026-03-29T08:38:42.708Z</time></trkpt><trkpt lat="45.4155231" lon="10.4678195"><ele>107.25</ele><time>2026-03-29T08:38:43.708Z</time></trkpt><trkpt lat="45.4155047" lon="10.4680015"><ele>107.5</ele><time>2026-03-29T08:38:44.708Z</time></trkpt><trkpt lat="45.4154792" lon="10.4681899"><ele>107.75</ele><time>2026-03-29T08:38:45.708Z</time></trkpt><trkpt lat="45.415457" lon="10.4683763"><ele>108.0</ele><time>2026-03-29T08:38:46.708Z</time></trkpt><trkpt lat="45.4154399" lon="10.4685677"><ele>108.0</ele><time>2026-03-29T08:38:47.708Z</time></trkpt><trkpt lat="45.4154193" lon="10.4687459"><ele>108.0</ele><time>2026-03-29T08:38:48.708Z</time></trkpt><trkpt lat="45.4154005" lon="10.4689345"><ele>108.0</ele><time>2026-03-29T08:38:49.708Z</time></trkpt><trkpt lat="45.4153828" lon="10.4691316"><ele>108.0</ele><time>2026-03-29T08:38:50.709Z</time></trkpt><trkpt lat="45.4153612" lon="10.4693282"><ele>108.0</ele><time>2026-03-29T08:38:51.708Z</time></trkpt><trkpt lat="45.4153377" lon="10.4695264"><ele>108.0</ele><time>2026-03-29T08:38:52.708Z</time></trkpt><trkpt lat="45.4153202" lon="10.4697131"><ele>108.0</ele><time>2026-03-29T08:38:53.709Z</time></trkpt><trkpt lat="45.4153041" lon="10.4698929"><ele>108.0</ele><time>2026-03-29T08:38:54.708Z</time></trkpt><trkpt lat="45.4152849" lon="10.4700491"><ele>108.0</ele><time>2026-03-29T08:38:55.708Z</time></trkpt><trkpt lat="45.415267" lon="10.4702216"><ele>108.0</ele><time>2026-03-29T08:38:56.708Z</time></trkpt><trkpt lat="45.4152507" lon="10.4703993"><ele>108.0</ele><time>2026-03-29T08:38:57.709Z</time></trkpt><trkpt lat="45.4152355" lon="10.4705727"><ele>108.0</ele><time>2026-03-29T08:38:58.708Z</time></trkpt><trkpt lat="45.4152168" lon="10.4707395"><ele>108.4</ele><time>2026-03-29T08:38:59.708Z</time></trkpt><trkpt lat="45.4152001" lon="10.4709091"><ele>108.80000000000001</ele><time>2026-03-29T08:39:00.708Z</time></trkpt><trkpt lat="45.4151871" lon="10.471056"><ele>109.2</ele><time>2026-03-29T08:39:01.708Z</time></trkpt><trkpt lat="45.4151747" lon="10.4711883"><ele>109.6</ele><time>2026-03-29T08:39:02.708Z</time></trkpt><trkpt lat="45.4151615" lon="10.4713222"><ele>110.0</ele><time>2026-03-29T08:39:03.708Z</time></trkpt><trkpt lat="45.4151494" lon="10.4714658"><ele>110.16666666666666</ele><time>2026-03-29T08:39:04.708Z</time></trkpt><trkpt lat="45.4151364" lon="10.4715931"><ele>110.33333333333333</ele><time>2026-03-29T08:39:05.708Z</time></trkpt><trkpt lat="45.4151268" lon="10.471694"><ele>110.5</ele><time>2026-03-29T08:39:06.708Z</time></trkpt><trkpt lat="45.4151089" lon="10.4718467"><ele>110.66666666666666</ele><time>2026-03-29T08:39:08.708Z</time></trkpt><trkpt lat="45.4151024" lon="10.4719531"><ele>110.83333333333333</ele><time>2026-03-29T08:39:10.708Z</time></trkpt><trkpt lat="45.4151644" lon="10.4720276"><ele>111.0</ele><time>2026-03-29T08:39:13.708Z</time></trkpt><trkpt lat="45.4152842" lon="10.4720313"><ele>111.0</ele><time>2026-03-29T08:39:15.708Z</time></trkpt><trkpt lat="45.4153633" lon="10.4720373"><ele>111.0</ele><time>2026-03-29T08:39:16.708Z</time></trkpt><trkpt lat="45.4154552" lon="10.4720469"><ele>111.0</ele><time>2026-03-29T08:39:17.708Z</time></trkpt><trkpt lat="45.4155719" lon="10.4720508"><ele>111.0</ele><time>2026-03-29T08:39:18.708Z</time></trkpt><trkpt lat="45.4156931" lon="10.472055"><ele>111.0</ele><time>2026-03-29T08:39:19.708Z</time></trkpt><trkpt lat="45.4158086" lon="10.4720662"><ele>111.0</ele><time>2026-03-29T08:39:20.709Z</time></trkpt><trkpt lat="45.4159344" lon="10.4720827"><ele>111.0</ele><time>2026-03-29T08:39:21.708Z</time></trkpt><trkpt lat="45.4160434" lon="10.4720964"><ele>111.0</ele><time>2026-03-29T08:39:22.708Z</time></trkpt><trkpt lat="45.4161447" lon="10.4721059"><ele>111.0</ele><time>2026-03-29T08:39:23.708Z</time></trkpt><trkpt lat="45.4162502" lon="10.4721205"><ele>111.0</ele><time>2026-03-29T08:39:24.708Z</time></trkpt><trkpt lat="45.4163549" lon="10.4721329"><ele>111.0</ele><time>2026-03-29T08:39:25.708Z</time></trkpt><trkpt lat="45.4164604" lon="10.4721424"><ele>111.0</ele><time>2026-03-29T08:39:26.708Z</time></trkpt><trkpt lat="45.4165759" lon="10.4721547"><ele>111.0</ele><time>2026-03-29T08:39:27.708Z</time></trkpt><trkpt lat="45.4167021" lon="10.47217"><ele>111.0</ele><time>2026-03-29T08:39:28.708Z</time></trkpt><trkpt lat="45.4168315" lon="10.4721863"><ele>111.0</ele><time>2026-03-29T08:39:29.709Z</time></trkpt><trkpt lat="45.4169502" lon="10.4721997"><ele>111.0</ele><time>2026-03-29T08:39:30.708Z</time></trkpt><trkpt lat="45.417075" lon="10.4722114"><ele>111.0</ele><time>2026-03-29T08:39:31.708Z</time></trkpt><trkpt lat="45.4171858" lon="10.4722259"><ele>111.0</ele><time>2026-03-29T08:39:32.708Z</time></trkpt><trkpt lat="45.4172875" lon="10.4722394"><ele>111.19999999999999</ele><time>2026-03-29T08:39:33.708Z</time></trkpt><trkpt lat="45.4173909" lon="10.4722527"><ele>111.39999999999999</ele><time>2026-03-29T08:39:34.708Z</time></trkpt><trkpt lat="45.4174978" lon="10.4722674"><ele>111.6</ele><time>2026-03-29T08:39:35.708Z</time></trkpt><trkpt lat="45.4176111" lon="10.4722843"><ele>111.8</ele><time>2026-03-29T08:39:36.708Z</time></trkpt><trkpt lat="45.4177326" lon="10.4723013"><ele>112.0</ele><time>2026-03-29T08:39:37.708Z</time></trkpt><trkpt lat="45.4178523" lon="10.4723172"><ele>112.0</ele><time>2026-03-29T08:39:38.709Z</time></trkpt><trkpt lat="45.4179704" lon="10.4723357"><ele>112.0</ele><time>2026-03-29T08:39:39.708Z</time></trkpt><trkpt lat="45.4180958" lon="10.472356"><ele>112.0</ele><time>2026-03-29T08:39:40.708Z</time></trkpt><trkpt lat="45.4182109" lon="10.4723707"><ele>112.0</ele><time>2026-03-29T08:39:41.708Z</time></trkpt><trkpt lat="45.418329" lon="10.4723834"><ele>112.0</ele><time>2026-03-29T08:39:42.708Z</time></trkpt><trkpt lat="45.4184471" lon="10.4723916"><ele>112.0</ele><time>2026-03-29T08:39:43.708Z</time></trkpt><trkpt lat="45.4185627" lon="10.472402"><ele>112.0</ele><time>2026-03-29T08:39:44.708Z</time></trkpt><trkpt lat="45.4186746" lon="10.472412"><ele>112.0</ele><time>2026-03-29T08:39:45.708Z</time></trkpt><trkpt lat="45.4187822" lon="10.472423"><ele>111.8</ele><time>2026-03-29T08:39:46.708Z</time></trkpt><trkpt lat="45.4188943" lon="10.4724335"><ele>111.6</ele><time>2026-03-29T08:39:47.709Z</time></trkpt><trkpt lat="45.4190006" lon="10.4724419"><ele>111.39999999999999</ele><time>2026-03-29T08:39:48.708Z</time></trkpt><trkpt lat="45.4190936" lon="10.4724509"><ele>111.19999999999999</ele><time>2026-03-29T08:39:49.708Z</time></trkpt><trkpt lat="45.4191869" lon="10.4724635"><ele>111.0</ele><time>2026-03-29T08:39:50.708Z</time></trkpt><trkpt lat="45.4192697" lon="10.4724733"><ele>111.0</ele><time>2026-03-29T08:39:51.708Z</time></trkpt><trkpt lat="45.4193437" lon="10.4724912"><ele>111.0</ele><time>2026-03-29T08:39:52.708Z</time></trkpt><trkpt lat="45.4194522" lon="10.4725218"><ele>111.0</ele><time>2026-03-29T08:39:54.709Z</time></trkpt><trkpt lat="45.4195032" lon="10.4725755"><ele>111.0</ele><time>2026-03-29T08:39:56.708Z</time></trkpt><trkpt lat="45.4194907" lon="10.4727122"><ele>111.0</ele><time>2026-03-29T08:39:58.708Z</time></trkpt><trkpt lat="45.4194611" lon="10.4728114"><ele>111.0</ele><time>2026-03-29T08:39:59.708Z</time></trkpt><trkpt lat="45.4194287" lon="10.4729358"><ele>110.8</ele><time>2026-03-29T08:40:00.708Z</time></trkpt><trkpt lat="45.4193935" lon="10.4730692"><ele>110.6</ele><time>2026-03-29T08:40:01.708Z</time></trkpt><trkpt lat="45.419358" lon="10.4732094"><ele>110.4</ele><time>2026-03-29T08:40:02.708Z</time></trkpt><trkpt lat="45.4193268" lon="10.4733325"><ele>110.2</ele><time>2026-03-29T08:40:03.708Z</time></trkpt><trkpt lat="45.4192952" lon="10.4734638"><ele>110.0</ele><time>2026-03-29T08:40:04.708Z</time></trkpt><trkpt lat="45.4192583" lon="10.4736148"><ele>110.0</ele><time>2026-03-29T08:40:05.708Z</time></trkpt><trkpt lat="45.4192179" lon="10.4737685"><ele>110.0</ele><time>2026-03-29T08:40:06.708Z</time></trkpt><trkpt lat="45.419177" lon="10.4739309"><ele>110.0</ele><time>2026-03-29T08:40:07.708Z</time></trkpt><trkpt lat="45.4191372" lon="10.474102"><ele>110.0</ele><time>2026-03-29T08:40:08.708Z</time></trkpt><trkpt lat="45.419096" lon="10.4742813"><ele>110.25</ele><time>2026-03-29T08:40:09.708Z</time></trkpt><trkpt lat="45.4190528" lon="10.4744654"><ele>110.5</ele><time>2026-03-29T08:40:10.708Z</time></trkpt><trkpt lat="45.4190136" lon="10.4746571"><ele>110.75</ele><time>2026-03-29T08:40:11.708Z</time></trkpt><trkpt lat="45.4189755" lon="10.4748551"><ele>111.0</ele><time>2026-03-29T08:40:12.708Z</time></trkpt><trkpt lat="45.4189435" lon="10.4750603"><ele>111.0</ele><time>2026-03-29T08:40:13.708Z</time></trkpt><trkpt lat="45.4189213" lon="10.4752673"><ele>111.0</ele><time>2026-03-29T08:40:14.709Z</time></trkpt><trkpt lat="45.4189083" lon="10.4754767"><ele>111.0</ele><time>2026-03-29T08:40:15.708Z</time></trkpt><trkpt lat="45.4188979" lon="10.4756719"><ele>111.0</ele><time>2026-03-29T08:40:16.708Z</time></trkpt><trkpt lat="45.4188851" lon="10.4758489"><ele>111.4</ele><time>2026-03-29T08:40:17.708Z</time></trkpt><trkpt lat="45.4188718" lon="10.4760102"><ele>111.8</ele><time>2026-03-29T08:40:18.708Z</time></trkpt><trkpt lat="45.4188585" lon="10.4761588"><ele>112.20000000000002</ele><time>2026-03-29T08:40:19.708Z</time></trkpt><trkpt lat="45.418841" lon="10.4763037"><ele>112.60000000000001</ele><time>2026-03-29T08:40:20.708Z</time></trkpt><trkpt lat="45.4188087" lon="10.4764177"><ele>113.0</ele><time>2026-03-29T08:40:21.709Z</time></trkpt><trkpt lat="45.4187625" lon="10.4765044"><ele>113.4</ele><time>2026-03-29T08:40:22.708Z</time></trkpt><trkpt lat="45.4187052" lon="10.4765801"><ele>113.80000000000001</ele><time>2026-03-29T08:40:23.708Z</time></trkpt><trkpt lat="45.4186662" lon="10.4766731"><ele>114.2</ele><time>2026-03-29T08:40:24.708Z</time></trkpt><trkpt lat="45.418652" lon="10.476796"><ele>114.6</ele><time>2026-03-29T08:40:25.708Z</time></trkpt><trkpt lat="45.4186411" lon="10.4769402"><ele>115.0</ele><time>2026-03-29T08:40:26.708Z</time></trkpt><trkpt lat="45.4185933" lon="10.4770935"><ele>116.25</ele><time>2026-03-29T08:40:27.708Z</time></trkpt><trkpt lat="45.4185249" lon="10.4772608"><ele>117.5</ele><time>2026-03-29T08:40:28.708Z</time></trkpt><trkpt lat="45.418442" lon="10.4774255"><ele>118.75</ele><time>2026-03-29T08:40:29.708Z</time></trkpt><trkpt lat="45.4183444" lon="10.4775758"><ele>120.0</ele><time>2026-03-29T08:40:30.708Z</time></trkpt><trkpt lat="45.4182508" lon="10.4777045"><ele>120.0</ele><time>2026-03-29T08:40:31.708Z</time></trkpt><trkpt lat="45.4181831" lon="10.4778634"><ele>120.0</ele><time>2026-03-29T08:40:32.708Z</time></trkpt><trkpt lat="45.4181126" lon="10.4780795"><ele>120.0</ele><time>2026-03-29T08:40:33.708Z</time></trkpt><trkpt lat="45.4180361" lon="10.4783606"><ele>119.33333333333334</ele><time>2026-03-29T08:40:34.708Z</time></trkpt><trkpt lat="45.417964" lon="10.4786071"><ele>118.66666666666667</ele><time>2026-03-29T08:40:35.709Z</time></trkpt><trkpt lat="45.4179026" lon="10.4788141"><ele>118.0</ele><time>2026-03-29T08:40:36.708Z</time></trkpt><trkpt lat="45.4178635" lon="10.4790016"><ele>119.0</ele><time>2026-03-29T08:40:37.708Z</time></trkpt><trkpt lat="45.4178447" lon="10.4791563"><ele>120.0</ele><time>2026-03-29T08:40:38.708Z</time></trkpt><trkpt lat="45.417854" lon="10.4792954"><ele>121.0</ele><time>2026-03-29T08:40:39.708Z</time></trkpt><trkpt lat="45.4179038" lon="10.47945"><ele>122.0</ele><time>2026-03-29T08:40:40.708Z</time></trkpt><trkpt lat="45.4179537" lon="10.4796558"><ele>127.33333333333333</ele><time>2026-03-29T08:40:41.708Z</time></trkpt><trkpt lat="45.4180536" lon="10.4799086"><ele>132.66666666666666</ele><time>2026-03-29T08:40:42.708Z</time></trkpt><trkpt lat="45.4181127" lon="10.4801153"><ele>138.0</ele><time>2026-03-29T08:40:43.708Z</time></trkpt><trkpt lat="45.4181566" lon="10.4802827"><ele>138.0</ele><time>2026-03-29T08:40:44.708Z</time></trkpt><trkpt lat="45.4181961" lon="10.4804195"><ele>138.0</ele><time>2026-03-29T08:40:45.708Z</time></trkpt><trkpt lat="45.4182388" lon="10.4805286"><ele>138.0</ele><time>2026-03-29T08:40:46.708Z</time></trkpt><trkpt lat="45.418291" lon="10.480619"><ele>138.0</ele><time>2026-03-29T08:40:47.708Z</time></trkpt><trkpt lat="45.4183591" lon="10.4807028"><ele>138.0</ele><time>2026-03-29T08:40:48.708Z</time></trkpt><trkpt lat="45.4184425" lon="10.4807879"><ele>136.16666666666666</ele><time>2026-03-29T08:40:49.708Z</time></trkpt><trkpt lat="45.4185148" lon="10.4808618"><ele>134.33333333333334</ele><time>2026-03-29T08:40:50.708Z</time></trkpt><trkpt lat="45.4185807" lon="10.4809357"><ele>132.5</ele><time>2026-03-29T08:40:51.708Z</time></trkpt><trkpt lat="45.4186427" lon="10.4810108"><ele>130.66666666666669</ele><time>2026-03-29T08:40:52.708Z</time></trkpt><trkpt lat="45.4186941" lon="10.4810929"><ele>128.83333333333334</ele><time>2026-03-29T08:40:53.708Z</time></trkpt><trkpt lat="45.4187272" lon="10.4811823"><ele>127.0</ele><time>2026-03-29T08:40:54.708Z</time></trkpt><trkpt lat="45.418737" lon="10.4812786"><ele>126.50000000000001</ele><time>2026-03-29T08:40:55.708Z</time></trkpt><trkpt lat="45.4187361" lon="10.4813712"><ele>126.0</ele><time>2026-03-29T08:40:56.708Z</time></trkpt><trkpt lat="45.4187068" lon="10.4815184"><ele>125.5</ele><time>2026-03-29T08:40:58.708Z</time></trkpt><trkpt lat="45.4186811" lon="10.4816227"><ele>125.0</ele><time>2026-03-29T08:41:00.708Z</time></trkpt><trkpt lat="45.4186648" lon="10.4817336"><ele>124.50000000000001</ele><time>2026-03-29T08:41:02.708Z</time></trkpt><trkpt lat="45.4187102" lon="10.4818751"><ele>124.0</ele><time>2026-03-29T08:41:04.708Z</time></trkpt><trkpt lat="45.4187604" lon="10.4819816"><ele>124.0</ele><time>2026-03-29T08:41:05.708Z</time></trkpt><trkpt lat="45.4187874" lon="10.4821071"><ele>124.0</ele><time>2026-03-29T08:41:06.708Z</time></trkpt><trkpt lat="45.4188009" lon="10.4822663"><ele>124.0</ele><time>2026-03-29T08:41:07.708Z</time></trkpt><trkpt lat="45.4188095" lon="10.4824293"><ele>124.0</ele><time>2026-03-29T08:41:08.708Z</time></trkpt><trkpt lat="45.4188138" lon="10.4825811"><ele>124.0</ele><time>2026-03-29T08:41:09.708Z</time></trkpt><trkpt lat="45.4188186" lon="10.4827223"><ele>124.0</ele><time>2026-03-29T08:41:10.708Z</time></trkpt><trkpt lat="45.4188244" lon="10.4828436"><ele>124.0</ele><time>2026-03-29T08:41:11.708Z</time></trkpt><trkpt lat="45.4188526" lon="10.4829545"><ele>124.0</ele><time>2026-03-29T08:41:12.708Z</time></trkpt><trkpt lat="45.4189063" lon="10.4830564"><ele>124.0</ele><time>2026-03-29T08:41:13.708Z</time></trkpt><trkpt lat="45.4189788" lon="10.4831469"><ele>124.0</ele><time>2026-03-29T08:41:14.708Z</time></trkpt><trkpt lat="45.419064" lon="10.4832287"><ele>124.16666666666667</ele><time>2026-03-29T08:41:15.708Z</time></trkpt><trkpt lat="45.4191366" lon="10.4833046"><ele>124.33333333333334</ele><time>2026-03-29T08:41:16.708Z</time></trkpt><trkpt lat="45.4191986" lon="10.4833792"><ele>124.5</ele><time>2026-03-29T08:41:17.708Z</time></trkpt><trkpt lat="45.4192554" lon="10.4834586"><ele>124.66666666666666</ele><time>2026-03-29T08:41:18.708Z</time></trkpt><trkpt lat="45.4193128" lon="10.4835568"><ele>124.83333333333333</ele><time>2026-03-29T08:41:19.708Z</time></trkpt><trkpt lat="45.419355" lon="10.483659"><ele>125.0</ele><time>2026-03-29T08:41:20.708Z</time></trkpt><trkpt lat="45.4193703" lon="10.4837736"><ele>125.6</ele><time>2026-03-29T08:41:21.708Z</time></trkpt><trkpt lat="45.4193626" lon="10.4838968"><ele>126.2</ele><time>2026-03-29T08:41:22.709Z</time></trkpt><trkpt lat="45.4193494" lon="10.4840262"><ele>126.80000000000001</ele><time>2026-03-29T08:41:23.708Z</time></trkpt><trkpt lat="45.419335" lon="10.4841616"><ele>127.4</ele><time>2026-03-29T08:41:24.708Z</time></trkpt><trkpt lat="45.4193299" lon="10.4843005"><ele>128.0</ele><time>2026-03-29T08:41:25.708Z</time></trkpt><trkpt lat="45.4193408" lon="10.4844358"><ele>128.0</ele><time>2026-03-29T08:41:26.708Z</time></trkpt><trkpt lat="45.4193574" lon="10.4845377"><ele>128.0</ele><time>2026-03-29T08:41:27.708Z</time></trkpt><trkpt lat="45.4194256" lon="10.4846805"><ele>128.0</ele><time>2026-03-29T08:41:29.708Z</time></trkpt><trkpt lat="45.4194982" lon="10.4847829"><ele>128.0</ele><time>2026-03-29T08:41:31.708Z</time></trkpt><trkpt lat="45.4195813" lon="10.4848933"><ele>128.0</ele><time>2026-03-29T08:41:33.708Z</time></trkpt><trkpt lat="45.4196745" lon="10.4849973"><ele>127.99999999999999</ele><time>2026-03-29T08:41:35.708Z</time></trkpt><trkpt lat="45.4197289" lon="10.4850517"><ele>128.0</ele><time>2026-03-29T08:41:36.708Z</time></trkpt><trkpt lat="45.4197861" lon="10.4851085"><ele>128.0</ele><time>2026-03-29T08:41:37.708Z</time></trkpt><trkpt lat="45.4198555" lon="10.485165"><ele>128.0</ele><time>2026-03-29T08:41:38.708Z</time></trkpt><trkpt lat="45.4199319" lon="10.4852242"><ele>127.99999999999999</ele><time>2026-03-29T08:41:39.708Z</time></trkpt><trkpt lat="45.4200161" lon="10.4852775"><ele>128.0</ele><time>2026-03-29T08:41:40.708Z</time></trkpt><trkpt lat="45.4201068" lon="10.4853233"><ele>128.0</ele><time>2026-03-29T08:41:41.708Z</time></trkpt><trkpt lat="45.4202001" lon="10.4853671"><ele>128.0</ele><time>2026-03-29T08:41:42.708Z</time></trkpt><trkpt lat="45.4202983" lon="10.4854079"><ele>128.0</ele><time>2026-03-29T08:41:43.708Z</time></trkpt><trkpt lat="45.4204004" lon="10.4854403"><ele>128.0</ele><time>2026-03-29T08:41:44.708Z</time></trkpt><trkpt lat="45.420501" lon="10.4854571"><ele>128.0</ele><time>2026-03-29T08:41:45.708Z</time></trkpt><trkpt lat="45.4206082" lon="10.4854701"><ele>130.75</ele><time>2026-03-29T08:41:46.708Z</time></trkpt><trkpt lat="45.4207196" lon="10.4854755"><ele>133.5</ele><time>2026-03-29T08:41:47.708Z</time></trkpt><trkpt lat="45.4208336" lon="10.4854709"><ele>136.25</ele><time>2026-03-29T08:41:48.708Z</time></trkpt><trkpt lat="45.4209496" lon="10.4854559"><ele>139.0</ele><time>2026-03-29T08:41:49.708Z</time></trkpt><trkpt lat="45.4210636" lon="10.4854422"><ele>139.0</ele><time>2026-03-29T08:41:50.708Z</time></trkpt><trkpt lat="45.4211649" lon="10.4854356"><ele>139.0</ele><time>2026-03-29T08:41:51.708Z</time></trkpt><trkpt lat="45.4212688" lon="10.4854519"><ele>139.0</ele><time>2026-03-29T08:41:52.708Z</time></trkpt><trkpt lat="45.4213811" lon="10.4854833"><ele>139.0</ele><time>2026-03-29T08:41:53.708Z</time></trkpt><trkpt lat="45.4214859" lon="10.4855135"><ele>139.0</ele><time>2026-03-29T08:41:54.707Z</time></trkpt><trkpt lat="45.4215961" lon="10.4855431"><ele>139.25</ele><time>2026-03-29T08:41:55.708Z</time></trkpt><trkpt lat="45.4217085" lon="10.4855682"><ele>139.5</ele><time>2026-03-29T08:41:56.708Z</time></trkpt><trkpt lat="45.4218226" lon="10.4856173"><ele>139.75</ele><time>2026-03-29T08:41:57.708Z</time></trkpt><trkpt lat="45.4219344" lon="10.4856792"><ele>140.0</ele><time>2026-03-29T08:41:58.708Z</time></trkpt><trkpt lat="45.4220326" lon="10.4857482"><ele>140.0</ele><time>2026-03-29T08:41:59.708Z</time></trkpt><trkpt lat="45.4221208" lon="10.4858292"><ele>140.0</ele><time>2026-03-29T08:42:00.708Z</time></trkpt><trkpt lat="45.4221999" lon="10.4859274"><ele>140.0</ele><time>2026-03-29T08:42:01.708Z</time></trkpt><trkpt lat="45.4222717" lon="10.4860451"><ele>140.0</ele><time>2026-03-29T08:42:02.708Z</time></trkpt><trkpt lat="45.4223348" lon="10.4861763"><ele>140.0</ele><time>2026-03-29T08:42:03.709Z</time></trkpt><trkpt lat="45.4223858" lon="10.4863212"><ele>140.8</ele><time>2026-03-29T08:42:04.708Z</time></trkpt><trkpt lat="45.4224152" lon="10.4864651"><ele>141.6</ele><time>2026-03-29T08:42:05.708Z</time></trkpt><trkpt lat="45.4224181" lon="10.4866231"><ele>142.4</ele><time>2026-03-29T08:42:06.708Z</time></trkpt><trkpt lat="45.4224183" lon="10.4867835"><ele>143.2</ele><time>2026-03-29T08:42:07.708Z</time></trkpt><trkpt lat="45.4224049" lon="10.4869501"><ele>144.0</ele><time>2026-03-29T08:42:08.708Z</time></trkpt><trkpt lat="45.4223881" lon="10.4871212"><ele>144.75</ele><time>2026-03-29T08:42:09.708Z</time></trkpt><trkpt lat="45.4223825" lon="10.4873014"><ele>145.5</ele><time>2026-03-29T08:42:10.708Z</time></trkpt><trkpt lat="45.4223942" lon="10.4874852"><ele>146.25</ele><time>2026-03-29T08:42:11.708Z</time></trkpt><trkpt lat="45.4224176" lon="10.4876719"><ele>147.0</ele><time>2026-03-29T08:42:12.708Z</time></trkpt><trkpt lat="45.4224596" lon="10.4878547"><ele>147.75</ele><time>2026-03-29T08:42:13.708Z</time></trkpt><trkpt lat="45.4225145" lon="10.4880089"><ele>148.5</ele><time>2026-03-29T08:42:14.708Z</time></trkpt><trkpt lat="45.4225832" lon="10.4881464"><ele>149.25</ele><time>2026-03-29T08:42:15.708Z</time></trkpt><trkpt lat="45.4226686" lon="10.488258"><ele>150.0</ele><time>2026-03-29T08:42:16.708Z</time></trkpt><trkpt lat="45.4227562" lon="10.48837"><ele>150.0</ele><time>2026-03-29T08:42:17.708Z</time></trkpt><trkpt lat="45.4228632" lon="10.4884465"><ele>150.0</ele><time>2026-03-29T08:42:18.708Z</time></trkpt><trkpt lat="45.4229644" lon="10.4885351"><ele>150.0</ele><time>2026-03-29T08:42:19.708Z</time></trkpt><trkpt lat="45.4230655" lon="10.4886286"><ele>150.0</ele><time>2026-03-29T08:42:20.708Z</time></trkpt><trkpt lat="45.4231682" lon="10.4887167"><ele>150.75</ele><time>2026-03-29T08:42:21.709Z</time></trkpt><trkpt lat="45.4232738" lon="10.4888021"><ele>151.5</ele><time>2026-03-29T08:42:22.708Z</time></trkpt><trkpt lat="45.4233781" lon="10.4888861"><ele>152.25</ele><time>2026-03-29T08:42:23.708Z</time></trkpt><trkpt lat="45.423493" lon="10.4889802"><ele>153.0</ele><time>2026-03-29T08:42:24.708Z</time></trkpt><trkpt lat="45.423614" lon="10.4890754"><ele>153.0</ele><time>2026-03-29T08:42:25.708Z</time></trkpt><trkpt lat="45.4237299" lon="10.4891871"><ele>153.0</ele><time>2026-03-29T08:42:26.708Z</time></trkpt><trkpt lat="45.4238332" lon="10.489313"><ele>153.0</ele><time>2026-03-29T08:42:27.708Z</time></trkpt><trkpt lat="45.4239394" lon="10.4894483"><ele>153.0</ele><time>2026-03-29T08:42:28.708Z</time></trkpt><trkpt lat="45.4240369" lon="10.4895937"><ele>152.66666666666666</ele><time>2026-03-29T08:42:29.708Z</time></trkpt><trkpt lat="45.4241374" lon="10.4897454"><ele>152.33333333333331</ele><time>2026-03-29T08:42:30.708Z</time></trkpt><trkpt lat="45.4242511" lon="10.4898961"><ele>152.0</ele><time>2026-03-29T08:42:31.708Z</time></trkpt><trkpt lat="45.4243756" lon="10.4900532"><ele>152.0</ele><time>2026-03-29T08:42:32.708Z</time></trkpt><trkpt lat="45.4244912" lon="10.4902008"><ele>152.0</ele><time>2026-03-29T08:42:33.708Z</time></trkpt><trkpt lat="45.4246096" lon="10.4903461"><ele>152.0</ele><time>2026-03-29T08:42:34.708Z</time></trkpt><trkpt lat="45.4247195" lon="10.4904736"><ele>153.25</ele><time>2026-03-29T08:42:35.708Z</time></trkpt><trkpt lat="45.4248179" lon="10.4906005"><ele>154.5</ele><time>2026-03-29T08:42:36.709Z</time></trkpt><trkpt lat="45.424902" lon="10.4907222"><ele>155.75</ele><time>2026-03-29T08:42:37.708Z</time></trkpt><trkpt lat="45.4249626" lon="10.4908517"><ele>157.0</ele><time>2026-03-29T08:42:38.708Z</time></trkpt><trkpt lat="45.4250067" lon="10.490982"><ele>157.0</ele><time>2026-03-29T08:42:39.708Z</time></trkpt><trkpt lat="45.425033" lon="10.4911177"><ele>157.0</ele><time>2026-03-29T08:42:40.708Z</time></trkpt><trkpt lat="45.425056" lon="10.4912566"><ele>157.0</ele><time>2026-03-29T08:42:41.708Z</time></trkpt><trkpt lat="45.4250321" lon="10.4914284"><ele>157.0</ele><time>2026-03-29T08:42:42.708Z</time></trkpt><trkpt lat="45.4250221" lon="10.4916037"><ele>157.0</ele><time>2026-03-29T08:42:43.708Z</time></trkpt><trkpt lat="45.4250252" lon="10.4917898"><ele>156.0</ele><time>2026-03-29T08:42:44.708Z</time></trkpt><trkpt lat="45.4250285" lon="10.4919698"><ele>155.0</ele><time>2026-03-29T08:42:45.708Z</time></trkpt><trkpt lat="45.4250237" lon="10.4921406"><ele>154.0</ele><time>2026-03-29T08:42:46.708Z</time></trkpt><trkpt lat="45.4250256" lon="10.492293"><ele>153.0</ele><time>2026-03-29T08:42:47.708Z</time></trkpt><trkpt lat="45.4250382" lon="10.4924306"><ele>152.16666666666666</ele><time>2026-03-29T08:42:48.708Z</time></trkpt><trkpt lat="45.4250635" lon="10.4925514"><ele>151.33333333333334</ele><time>2026-03-29T08:42:49.708Z</time></trkpt><trkpt lat="45.4251008" lon="10.4926505"><ele>150.5</ele><time>2026-03-29T08:42:50.709Z</time></trkpt><trkpt lat="45.4251447" lon="10.4927275"><ele>149.66666666666669</ele><time>2026-03-29T08:42:51.708Z</time></trkpt><trkpt lat="45.4252052" lon="10.4927904"><ele>148.83333333333334</ele><time>2026-03-29T08:42:52.708Z</time></trkpt><trkpt lat="45.4252767" lon="10.4928466"><ele>148.0</ele><time>2026-03-29T08:42:53.708Z</time></trkpt><trkpt lat="45.4253592" lon="10.4929014"><ele>147.25</ele><time>2026-03-29T08:42:54.708Z</time></trkpt><trkpt lat="45.4254555" lon="10.4929626"><ele>146.5</ele><time>2026-03-29T08:42:55.708Z</time></trkpt><trkpt lat="45.425561" lon="10.4930305"><ele>145.75</ele><time>2026-03-29T08:42:56.708Z</time></trkpt><trkpt lat="45.425667" lon="10.4930988"><ele>145.0</ele><time>2026-03-29T08:42:57.708Z</time></trkpt><trkpt lat="45.4257748" lon="10.4931742"><ele>145.0</ele><time>2026-03-29T08:42:58.708Z</time></trkpt><trkpt lat="45.4258916" lon="10.4932481"><ele>145.0</ele><time>2026-03-29T08:42:59.708Z</time></trkpt><trkpt lat="45.4260215" lon="10.4933257"><ele>145.0</ele><time>2026-03-29T08:43:00.708Z</time></trkpt><trkpt lat="45.4261602" lon="10.4934082"><ele>145.0</ele><time>2026-03-29T08:43:01.708Z</time></trkpt><trkpt lat="45.4262981" lon="10.4934923"><ele>144.0</ele><time>2026-03-29T08:43:02.708Z</time></trkpt><trkpt lat="45.4264363" lon="10.4935911"><ele>143.0</ele><time>2026-03-29T08:43:03.708Z</time></trkpt><trkpt lat="45.4265806" lon="10.4937102"><ele>142.0</ele><time>2026-03-29T08:43:04.708Z</time></trkpt><trkpt lat="45.4267212" lon="10.4938291"><ele>142.0</ele><time>2026-03-29T08:43:05.708Z</time></trkpt><trkpt lat="45.4268496" lon="10.4939327"><ele>142.0</ele><time>2026-03-29T08:43:06.708Z</time></trkpt><trkpt lat="45.4269704" lon="10.4940161"><ele>142.0</ele><time>2026-03-29T08:43:07.708Z</time></trkpt><trkpt lat="45.4270679" lon="10.4940685"><ele>142.0</ele><time>2026-03-29T08:43:08.708Z</time></trkpt><trkpt lat="45.4271499" lon="10.4940894"><ele>142.6</ele><time>2026-03-29T08:43:09.708Z</time></trkpt><trkpt lat="45.4272253" lon="10.4940918"><ele>143.2</ele><time>2026-03-29T08:43:10.708Z</time></trkpt><trkpt lat="45.4273099" lon="10.4940777"><ele>143.8</ele><time>2026-03-29T08:43:11.708Z</time></trkpt><trkpt lat="45.4274069" lon="10.4940629"><ele>144.4</ele><time>2026-03-29T08:43:12.708Z</time></trkpt><trkpt lat="45.4275157" lon="10.494049"><ele>145.0</ele><time>2026-03-29T08:43:13.708Z</time></trkpt><trkpt lat="45.4276355" lon="10.4940355"><ele>145.0</ele><time>2026-03-29T08:43:14.708Z</time></trkpt><trkpt lat="45.4277637" lon="10.4940222"><ele>145.0</ele><time>2026-03-29T08:43:15.708Z</time></trkpt><trkpt lat="45.427898" lon="10.4940109"><ele>145.0</ele><time>2026-03-29T08:43:16.708Z</time></trkpt><trkpt lat="45.4280317" lon="10.4940014"><ele>145.0</ele><time>2026-03-29T08:43:17.708Z</time></trkpt><trkpt lat="45.4281558" lon="10.4940065"><ele>145.75</ele><time>2026-03-29T08:43:18.708Z</time></trkpt><trkpt lat="45.4282675" lon="10.4940336"><ele>146.5</ele><time>2026-03-29T08:43:19.708Z</time></trkpt><trkpt lat="45.4283702" lon="10.4940834"><ele>147.25</ele><time>2026-03-29T08:43:20.708Z</time></trkpt><trkpt lat="45.4284767" lon="10.4941431"><ele>148.0</ele><time>2026-03-29T08:43:21.708Z</time></trkpt><trkpt lat="45.4285859" lon="10.4942017"><ele>148.0</ele><time>2026-03-29T08:43:22.708Z</time></trkpt><trkpt lat="45.4286998" lon="10.4942674"><ele>148.0</ele><time>2026-03-29T08:43:23.708Z</time></trkpt><trkpt lat="45.4288177" lon="10.4943331"><ele>148.0</ele><time>2026-03-29T08:43:24.708Z</time></trkpt><trkpt lat="45.4289378" lon="10.4943986"><ele>148.0</ele><time>2026-03-29T08:43:25.708Z</time></trkpt><trkpt lat="45.4290623" lon="10.4944619"><ele>148.5</ele><time>2026-03-29T08:43:26.708Z</time></trkpt><trkpt lat="45.4291882" lon="10.4945273"><ele>149.0</ele><time>2026-03-29T08:43:27.708Z</time></trkpt><trkpt lat="45.4293132" lon="10.4946023"><ele>149.5</ele><time>2026-03-29T08:43:28.708Z</time></trkpt><trkpt lat="45.4294362" lon="10.4946845"><ele>150.0</ele><time>2026-03-29T08:43:29.708Z</time></trkpt><trkpt lat="45.4295544" lon="10.4947743"><ele>151.5</ele><time>2026-03-29T08:43:30.708Z</time></trkpt><trkpt lat="45.4296689" lon="10.4948795"><ele>153.0</ele><time>2026-03-29T08:43:31.708Z</time></trkpt><trkpt lat="45.4297845" lon="10.4950006"><ele>154.5</ele><time>2026-03-29T08:43:32.708Z</time></trkpt><trkpt lat="45.4299076" lon="10.4951407"><ele>156.0</ele><time>2026-03-29T08:43:33.708Z</time></trkpt><trkpt lat="45.4300136" lon="10.4952707"><ele>156.0</ele><time>2026-03-29T08:43:34.708Z</time></trkpt><trkpt lat="45.4301052" lon="10.4954026"><ele>156.0</ele><time>2026-03-29T08:43:35.708Z</time></trkpt><trkpt lat="45.4301818" lon="10.4955355"><ele>156.0</ele><time>2026-03-29T08:43:36.709Z</time></trkpt><trkpt lat="45.4302474" lon="10.4956791"><ele>156.0</ele><time>2026-03-29T08:43:37.708Z</time></trkpt><trkpt lat="45.4303103" lon="10.4958374"><ele>156.5</ele><time>2026-03-29T08:43:38.708Z</time></trkpt><trkpt lat="45.4303819" lon="10.4959923"><ele>157.0</ele><time>2026-03-29T08:43:39.708Z</time></trkpt><trkpt lat="45.430464" lon="10.4961472"><ele>157.5</ele><time>2026-03-29T08:43:40.708Z</time></trkpt><trkpt lat="45.4305487" lon="10.4962914"><ele>158.0</ele><time>2026-03-29T08:43:41.708Z</time></trkpt><trkpt lat="45.4306376" lon="10.4964204"><ele>158.0</ele><time>2026-03-29T08:43:42.708Z</time></trkpt><trkpt lat="45.4307391" lon="10.4965436"><ele>158.0</ele><time>2026-03-29T08:43:43.708Z</time></trkpt><trkpt lat="45.4308539" lon="10.4966588"><ele>158.0</ele><time>2026-03-29T08:43:44.708Z</time></trkpt><trkpt lat="45.4309717" lon="10.4967613"><ele>158.0</ele><time>2026-03-29T08:43:45.708Z</time></trkpt><trkpt lat="45.4310824" lon="10.4968568"><ele>158.0</ele><time>2026-03-29T08:43:46.708Z</time></trkpt><trkpt lat="45.4311827" lon="10.4969483"><ele>158.0</ele><time>2026-03-29T08:43:47.708Z</time></trkpt><trkpt lat="45.4312666" lon="10.4970456"><ele>158.0</ele><time>2026-03-29T08:43:48.708Z</time></trkpt><trkpt lat="45.4313397" lon="10.4971544"><ele>158.0</ele><time>2026-03-29T08:43:49.708Z</time></trkpt><trkpt lat="45.4313986" lon="10.4972829"><ele>158.0</ele><time>2026-03-29T08:43:50.708Z</time></trkpt><trkpt lat="45.4314492" lon="10.4974345"><ele>157.5</ele><time>2026-03-29T08:43:51.708Z</time></trkpt><trkpt lat="45.4315073" lon="10.4975887"><ele>157.0</ele><time>2026-03-29T08:43:52.708Z</time></trkpt><trkpt lat="45.4315656" lon="10.4977551"><ele>156.5</ele><time>2026-03-29T08:43:53.708Z</time></trkpt><trkpt lat="45.4316211" lon="10.4979277"><ele>156.0</ele><time>2026-03-29T08:43:54.708Z</time></trkpt><trkpt lat="45.4316729" lon="10.4980966"><ele>154.5</ele><time>2026-03-29T08:43:55.708Z</time></trkpt><trkpt lat="45.4317133" lon="10.4982609"><ele>153.0</ele><time>2026-03-29T08:43:56.708Z</time></trkpt><trkpt lat="45.4317461" lon="10.4984324"><ele>151.5</ele><time>2026-03-29T08:43:57.708Z</time></trkpt><trkpt lat="45.4317558" lon="10.4986152"><ele>150.0</ele><time>2026-03-29T08:43:58.708Z</time></trkpt><trkpt lat="45.431743" lon="10.4988092"><ele>150.0</ele><time>2026-03-29T08:43:59.708Z</time></trkpt><trkpt lat="45.4317193" lon="10.4990159"><ele>150.0</ele><time>2026-03-29T08:44:00.708Z</time></trkpt><trkpt lat="45.4316898" lon="10.4992468"><ele>150.0</ele><time>2026-03-29T08:44:01.708Z</time></trkpt><trkpt lat="45.4316572" lon="10.4994858"><ele>150.0</ele><time>2026-03-29T08:44:02.708Z</time></trkpt><trkpt lat="45.4316226" lon="10.4997055"><ele>150.0</ele><time>2026-03-29T08:44:03.708Z</time></trkpt><trkpt lat="45.4315893" lon="10.4999239"><ele>150.0</ele><time>2026-03-29T08:44:04.708Z</time></trkpt><trkpt lat="45.4315513" lon="10.5001444"><ele>150.0</ele><time>2026-03-29T08:44:05.708Z</time></trkpt><trkpt lat="45.4315146" lon="10.5003686"><ele>150.0</ele><time>2026-03-29T08:44:06.708Z</time></trkpt><trkpt lat="45.4314721" lon="10.5005924"><ele>150.0</ele><time>2026-03-29T08:44:07.708Z</time></trkpt><trkpt lat="45.4314285" lon="10.5008187"><ele>149.33333333333334</ele><time>2026-03-29T08:44:08.708Z</time></trkpt><trkpt lat="45.4313874" lon="10.501044"><ele>148.66666666666669</ele><time>2026-03-29T08:44:09.708Z</time></trkpt><trkpt lat="45.4313498" lon="10.5012615"><ele>148.0</ele><time>2026-03-29T08:44:10.708Z</time></trkpt><trkpt lat="45.4313136" lon="10.5014508"><ele>147.8</ele><time>2026-03-29T08:44:11.708Z</time></trkpt><trkpt lat="45.4312835" lon="10.501627"><ele>147.60000000000002</ele><time>2026-03-29T08:44:12.708Z</time></trkpt><trkpt lat="45.4312571" lon="10.5017782"><ele>147.39999999999998</ele><time>2026-03-29T08:44:13.708Z</time></trkpt><trkpt lat="45.4312309" lon="10.5018956"><ele>147.2</ele><time>2026-03-29T08:44:14.708Z</time></trkpt><trkpt lat="45.4311561" lon="10.5019868"><ele>147.0</ele><time>2026-03-29T08:44:16.708Z</time></trkpt><trkpt lat="45.431068" lon="10.5019568"><ele>147.0</ele><time>2026-03-29T08:44:18.709Z</time></trkpt><trkpt lat="45.4310128" lon="10.501906"><ele>147.0</ele><time>2026-03-29T08:44:19.708Z</time></trkpt><trkpt lat="45.43094" lon="10.5018249"><ele>147.0</ele><time>2026-03-29T08:44:20.708Z</time></trkpt><trkpt lat="45.4308606" lon="10.5017386"><ele>147.0</ele><time>2026-03-29T08:44:21.708Z</time></trkpt><trkpt lat="45.4307747" lon="10.5016512"><ele>147.0</ele><time>2026-03-29T08:44:22.709Z</time></trkpt><trkpt lat="45.4306869" lon="10.5015634"><ele>147.0</ele><time>2026-03-29T08:44:23.708Z</time></trkpt><trkpt lat="45.4305969" lon="10.5014737"><ele>147.0</ele><time>2026-03-29T08:44:24.708Z</time></trkpt><trkpt lat="45.4305033" lon="10.5013847"><ele>147.0</ele><time>2026-03-29T08:44:25.708Z</time></trkpt><trkpt lat="45.4304116" lon="10.5012936"><ele>147.0</ele><time>2026-03-29T08:44:26.708Z</time></trkpt><trkpt lat="45.4303213" lon="10.5011974"><ele>147.0</ele><time>2026-03-29T08:44:27.708Z</time></trkpt><trkpt lat="45.4302286" lon="10.5011022"><ele>146.6</ele><time>2026-03-29T08:44:28.708Z</time></trkpt><trkpt lat="45.4301371" lon="10.5010111"><ele>146.2</ele><time>2026-03-29T08:44:29.708Z</time></trkpt><trkpt lat="45.4300596" lon="10.5009317"><ele>145.8</ele><time>2026-03-29T08:44:30.708Z</time></trkpt><trkpt lat="45.4299912" lon="10.500852"><ele>145.4</ele><time>2026-03-29T08:44:31.708Z</time></trkpt><trkpt lat="45.4299305" lon="10.5007878"><ele>145.0</ele><time>2026-03-29T08:44:32.709Z</time></trkpt><trkpt lat="45.4298422" lon="10.5007254"><ele>145.0</ele><time>2026-03-29T08:44:34.708Z</time></trkpt><trkpt lat="45.429775" lon="10.500734"><ele>145.0</ele><time>2026-03-29T08:44:36.708Z</time></trkpt><trkpt lat="45.4297161" lon="10.5008101"><ele>145.0</ele><time>2026-03-29T08:44:38.708Z</time></trkpt><trkpt lat="45.4296474" lon="10.5009171"><ele>145.0</ele><time>2026-03-29T08:44:40.708Z</time></trkpt><trkpt lat="45.4295861" lon="10.5010488"><ele>145.0</ele><time>2026-03-29T08:44:42.708Z</time></trkpt><trkpt lat="45.4295158" lon="10.5011774"><ele>146.0</ele><time>2026-03-29T08:44:44.708Z</time></trkpt><trkpt lat="45.4294372" lon="10.5013185"><ele>147.0</ele><time>2026-03-29T08:44:46.708Z</time></trkpt><trkpt lat="45.4293903" lon="10.5013883"><ele>148.0</ele><time>2026-03-29T08:44:47.708Z</time></trkpt><trkpt lat="45.4293393" lon="10.5014564"><ele>149.0</ele><time>2026-03-29T08:44:48.708Z</time></trkpt><trkpt lat="45.4292834" lon="10.501526"><ele>150.0</ele><time>2026-03-29T08:44:49.708Z</time></trkpt><trkpt lat="45.4292275" lon="10.5015995"><ele>151.0</ele><time>2026-03-29T08:44:50.708Z</time></trkpt><trkpt lat="45.4291738" lon="10.5016771"><ele>151.0</ele><time>2026-03-29T08:44:51.708Z</time></trkpt><trkpt lat="45.4291256" lon="10.5017624"><ele>151.0</ele><time>2026-03-29T08:44:52.708Z</time></trkpt><trkpt lat="45.4290906" lon="10.5018654"><ele>151.0</ele><time>2026-03-29T08:44:53.708Z</time></trkpt><trkpt lat="45.4290581" lon="10.5019731"><ele>151.0</ele><time>2026-03-29T08:44:54.708Z</time></trkpt><trkpt lat="45.4290114" lon="10.5020929"><ele>151.0</ele><time>2026-03-29T08:44:55.708Z</time></trkpt><trkpt lat="45.4289679" lon="10.5022173"><ele>151.0</ele><time>2026-03-29T08:44:56.708Z</time></trkpt><trkpt lat="45.428927" lon="10.502349"><ele>151.16666666666669</ele><time>2026-03-29T08:44:57.708Z</time></trkpt><trkpt lat="45.4288903" lon="10.5024786"><ele>151.33333333333334</ele><time>2026-03-29T08:44:58.708Z</time></trkpt><trkpt lat="45.4288543" lon="10.5025873"><ele>151.5</ele><time>2026-03-29T08:44:59.708Z</time></trkpt><trkpt lat="45.4288139" lon="10.5026913"><ele>151.66666666666666</ele><time>2026-03-29T08:45:00.708Z</time></trkpt><trkpt lat="45.4287713" lon="10.5027944"><ele>151.83333333333331</ele><time>2026-03-29T08:45:01.708Z</time></trkpt><trkpt lat="45.4287276" lon="10.5028811"><ele>152.0</ele><time>2026-03-29T08:45:02.708Z</time></trkpt><trkpt lat="45.4286767" lon="10.5029663"><ele>151.66666666666666</ele><time>2026-03-29T08:45:03.708Z</time></trkpt><trkpt lat="45.4286161" lon="10.5030235"><ele>151.33333333333331</ele><time>2026-03-29T08:45:04.708Z</time></trkpt><trkpt lat="45.4285462" lon="10.5030731"><ele>151.0</ele><time>2026-03-29T08:45:05.708Z</time></trkpt><trkpt lat="45.4284737" lon="10.5031209"><ele>150.66666666666666</ele><time>2026-03-29T08:45:06.708Z</time></trkpt><trkpt lat="45.4284014" lon="10.5031668"><ele>150.33333333333334</ele><time>2026-03-29T08:45:07.708Z</time></trkpt><trkpt lat="45.4283369" lon="10.5032166"><ele>150.0</ele><time>2026-03-29T08:45:08.708Z</time></trkpt><trkpt lat="45.4282861" lon="10.5032807"><ele>150.0</ele><time>2026-03-29T08:45:09.708Z</time></trkpt><trkpt lat="45.4282422" lon="10.5033459"><ele>150.0</ele><time>2026-03-29T08:45:10.708Z</time></trkpt><trkpt lat="45.4281671" lon="10.5035054"><ele>150.0</ele><time>2026-03-29T08:45:12.708Z</time></trkpt><trkpt lat="45.4281217" lon="10.5035992"><ele>150.0</ele><time>2026-03-29T08:45:13.708Z</time></trkpt><trkpt lat="45.4280695" lon="10.5036764"><ele>150.0</ele><time>2026-03-29T08:45:14.708Z</time></trkpt><trkpt lat="45.4280125" lon="10.5037318"><ele>150.0</ele><time>2026-03-29T08:45:15.708Z</time></trkpt><trkpt lat="45.4279153" lon="10.503785"><ele>147.8</ele><time>2026-03-29T08:45:17.708Z</time></trkpt><trkpt lat="45.4278096" lon="10.5038252"><ele>145.6</ele><time>2026-03-29T08:45:19.708Z</time></trkpt><trkpt lat="45.4277439" lon="10.5038764"><ele>143.4</ele><time>2026-03-29T08:45:20.708Z</time></trkpt><trkpt lat="45.4276574" lon="10.5039532"><ele>141.2</ele><time>2026-03-29T08:45:21.708Z</time></trkpt><trkpt lat="45.427582" lon="10.5040178"><ele>139.0</ele><time>2026-03-29T08:45:22.708Z</time></trkpt><trkpt lat="45.427499" lon="10.504058"><ele>139.0</ele><time>2026-03-29T08:45:23.708Z</time></trkpt><trkpt lat="45.4274047" lon="10.5040945"><ele>139.0</ele><time>2026-03-29T08:45:24.708Z</time></trkpt><trkpt lat="45.4273147" lon="10.5041213"><ele>139.0</ele><time>2026-03-29T08:45:25.708Z</time></trkpt><trkpt lat="45.4272031" lon="10.5041043"><ele>139.0</ele><time>2026-03-29T08:45:26.708Z</time></trkpt><trkpt lat="45.4271043" lon="10.5041001"><ele>139.0</ele><time>2026-03-29T08:45:27.708Z</time></trkpt><trkpt lat="45.4269852" lon="10.5040891"><ele>139.2</ele><time>2026-03-29T08:45:28.708Z</time></trkpt><trkpt lat="45.4268692" lon="10.5040922"><ele>139.4</ele><time>2026-03-29T08:45:29.708Z</time></trkpt><trkpt lat="45.4267587" lon="10.5040923"><ele>139.6</ele><time>2026-03-29T08:45:30.708Z</time></trkpt><trkpt lat="45.4266674" lon="10.5040988"><ele>139.8</ele><time>2026-03-29T08:45:31.708Z</time></trkpt><trkpt lat="45.4265744" lon="10.504128"><ele>140.0</ele><time>2026-03-29T08:45:32.708Z</time></trkpt><trkpt lat="45.4264807" lon="10.5041798"><ele>140.0</ele><time>2026-03-29T08:45:33.708Z</time></trkpt><trkpt lat="45.4263702" lon="10.5042659"><ele>140.0</ele><time>2026-03-29T08:45:34.708Z</time></trkpt><trkpt lat="45.426265" lon="10.5043534"><ele>140.0</ele><time>2026-03-29T08:45:35.708Z</time></trkpt><trkpt lat="45.4261656" lon="10.5044505"><ele>140.0</ele><time>2026-03-29T08:45:36.708Z</time></trkpt><trkpt lat="45.4260703" lon="10.5045445"><ele>137.8</ele><time>2026-03-29T08:45:37.708Z</time></trkpt><trkpt lat="45.4259714" lon="10.5046283"><ele>135.6</ele><time>2026-03-29T08:45:38.708Z</time></trkpt><trkpt lat="45.4258752" lon="10.5047144"><ele>133.4</ele><time>2026-03-29T08:45:39.708Z</time></trkpt><trkpt lat="45.4257944" lon="10.5047929"><ele>131.2</ele><time>2026-03-29T08:45:40.708Z</time></trkpt><trkpt lat="45.4257377" lon="10.5048373"><ele>129.0</ele><time>2026-03-29T08:45:41.708Z</time></trkpt><trkpt lat="45.4256674" lon="10.5048917"><ele>129.0</ele><time>2026-03-29T08:45:42.708Z</time></trkpt><trkpt lat="45.4255679" lon="10.5049567"><ele>129.0</ele><time>2026-03-29T08:45:44.708Z</time></trkpt><trkpt lat="45.4254977" lon="10.5049757"><ele>129.0</ele><time>2026-03-29T08:45:45.708Z</time></trkpt><trkpt lat="45.425417" lon="10.5049646"><ele>129.0</ele><time>2026-03-29T08:45:46.708Z</time></trkpt><trkpt lat="45.4253215" lon="10.5049531"><ele>129.0</ele><time>2026-03-29T08:45:47.708Z</time></trkpt><trkpt lat="45.4252109" lon="10.5049338"><ele>129.0</ele><time>2026-03-29T08:45:48.708Z</time></trkpt><trkpt lat="45.4250931" lon="10.5049196"><ele>129.0</ele><time>2026-03-29T08:45:49.708Z</time></trkpt><trkpt lat="45.4249672" lon="10.504921"><ele>129.0</ele><time>2026-03-29T08:45:50.708Z</time></trkpt><trkpt lat="45.4248377" lon="10.5049174"><ele>129.0</ele><time>2026-03-29T08:45:51.708Z</time></trkpt><trkpt lat="45.4247028" lon="10.5049136"><ele>129.0</ele><time>2026-03-29T08:45:52.708Z</time></trkpt><trkpt lat="45.4245651" lon="10.5049052"><ele>129.0</ele><time>2026-03-29T08:45:53.708Z</time></trkpt><trkpt lat="45.4244195" lon="10.504898"><ele>129.0</ele><time>2026-03-29T08:45:54.708Z</time></trkpt><trkpt lat="45.4242743" lon="10.5048771"><ele>129.0</ele><time>2026-03-29T08:45:55.708Z</time></trkpt><trkpt lat="45.4241316" lon="10.5048311"><ele>129.0</ele><time>2026-03-29T08:45:56.708Z</time></trkpt><trkpt lat="45.423988" lon="10.5047794"><ele>129.0</ele><time>2026-03-29T08:45:57.708Z</time></trkpt><trkpt lat="45.423854" lon="10.5047123"><ele>129.0</ele><time>2026-03-29T08:45:58.708Z</time></trkpt><trkpt lat="45.4237322" lon="10.5046266"><ele>129.0</ele><time>2026-03-29T08:45:59.708Z</time></trkpt><trkpt lat="45.4236172" lon="10.50454"><ele>128.5</ele><time>2026-03-29T08:46:00.708Z</time></trkpt><trkpt lat="45.4235128" lon="10.5044531"><ele>128.0</ele><time>2026-03-29T08:46:01.708Z</time></trkpt><trkpt lat="45.4234184" lon="10.5043653"><ele>127.5</ele><time>2026-03-29T08:46:02.708Z</time></trkpt><trkpt lat="45.4233262" lon="10.5042803"><ele>127.0</ele><time>2026-03-29T08:46:03.708Z</time></trkpt><trkpt lat="45.4232198" lon="10.5041924"><ele>127.0</ele><time>2026-03-29T08:46:04.708Z</time></trkpt><trkpt lat="45.4231031" lon="10.5041148"><ele>127.0</ele><time>2026-03-29T08:46:05.708Z</time></trkpt><trkpt lat="45.422978" lon="10.5040401"><ele>127.0</ele><time>2026-03-29T08:46:06.708Z</time></trkpt><trkpt lat="45.422852" lon="10.5039664"><ele>127.0</ele><time>2026-03-29T08:46:07.708Z</time></trkpt><trkpt lat="45.4227301" lon="10.5038931"><ele>127.0</ele><time>2026-03-29T08:46:08.708Z</time></trkpt><trkpt lat="45.4226046" lon="10.503818"><ele>126.99999999999999</ele><time>2026-03-29T08:46:09.708Z</time></trkpt><trkpt lat="45.4225095" lon="10.5037637"><ele>126.99999999999999</ele><time>2026-03-29T08:46:10.709Z</time></trkpt><trkpt lat="45.4224422" lon="10.5037266"><ele>127.0</ele><time>2026-03-29T08:46:11.708Z</time></trkpt><trkpt lat="45.4223743" lon="10.5036852"><ele>127.0</ele><time>2026-03-29T08:46:13.708Z</time></trkpt><trkpt lat="45.4223617" lon="10.5035903"><ele>127.0</ele><time>2026-03-29T08:46:17.708Z</time></trkpt><trkpt lat="45.4224317" lon="10.5036409"><ele>126.99999999999999</ele><time>2026-03-29T08:46:20.708Z</time></trkpt><trkpt lat="45.4224657" lon="10.5037363"><ele>126.99999999999999</ele><time>2026-03-29T08:46:22.708Z</time></trkpt><trkpt lat="45.422568" lon="10.5038139"><ele>127.0</ele><time>2026-03-29T08:46:24.708Z</time></trkpt><trkpt lat="45.4226393" lon="10.503845"><ele>127.0</ele><time>2026-03-29T08:46:25.708Z</time></trkpt><trkpt lat="45.4227485" lon="10.5039008"><ele>127.0</ele><time>2026-03-29T08:46:26.708Z</time></trkpt><trkpt lat="45.4228824" lon="10.5039824"><ele>127.0</ele><time>2026-03-29T08:46:27.708Z</time></trkpt><trkpt lat="45.4230264" lon="10.5040694"><ele>127.0</ele><time>2026-03-29T08:46:28.708Z</time></trkpt><trkpt lat="45.4231837" lon="10.5041666"><ele>127.0</ele><time>2026-03-29T08:46:29.708Z</time></trkpt><trkpt lat="45.423318" lon="10.5042794"><ele>127.0</ele><time>2026-03-29T08:46:30.708Z</time></trkpt><trkpt lat="45.4234431" lon="10.5044041"><ele>127.0</ele><time>2026-03-29T08:46:31.708Z</time></trkpt><trkpt lat="45.4235613" lon="10.5045163"><ele>126.5</ele><time>2026-03-29T08:46:32.708Z</time></trkpt><trkpt lat="45.4236737" lon="10.5046146"><ele>126.0</ele><time>2026-03-29T08:46:33.708Z</time></trkpt><trkpt lat="45.4237805" lon="10.5046937"><ele>125.5</ele><time>2026-03-29T08:46:34.708Z</time></trkpt><trkpt lat="45.4238893" lon="10.5047563"><ele>125.0</ele><time>2026-03-29T08:46:35.708Z</time></trkpt><trkpt lat="45.4240185" lon="10.5048118"><ele>126.0</ele><time>2026-03-29T08:46:36.708Z</time></trkpt><trkpt lat="45.4241584" lon="10.5048515"><ele>127.0</ele><time>2026-03-29T08:46:37.708Z</time></trkpt><trkpt lat="45.4243032" lon="10.5048827"><ele>128.0</ele><time>2026-03-29T08:46:38.708Z</time></trkpt><trkpt lat="45.4244588" lon="10.5049088"><ele>129.0</ele><time>2026-03-29T08:46:39.708Z</time></trkpt><trkpt lat="45.4246143" lon="10.5049212"><ele>129.0</ele><time>2026-03-29T08:46:40.708Z</time></trkpt><trkpt lat="45.4247755" lon="10.5049182"><ele>129.0</ele><time>2026-03-29T08:46:41.708Z</time></trkpt><trkpt lat="45.4249351" lon="10.5049155"><ele>129.0</ele><time>2026-03-29T08:46:42.708Z</time></trkpt><trkpt lat="45.4250805" lon="10.5049333"><ele>129.0</ele><time>2026-03-29T08:46:43.708Z</time></trkpt><trkpt lat="45.42522" lon="10.5049486"><ele>129.0</ele><time>2026-03-29T08:46:44.708Z</time></trkpt><trkpt lat="45.4253501" lon="10.5049666"><ele>129.0</ele><time>2026-03-29T08:46:45.708Z</time></trkpt><trkpt lat="45.4254696" lon="10.5049991"><ele>129.0</ele><time>2026-03-29T08:46:46.708Z</time></trkpt><trkpt lat="45.4255932" lon="10.5050017"><ele>129.0</ele><time>2026-03-29T08:46:47.708Z</time></trkpt><trkpt lat="45.4257202" lon="10.5049822"><ele>129.0</ele><time>2026-03-29T08:46:48.708Z</time></trkpt><trkpt lat="45.4258394" lon="10.5049507"><ele>129.0</ele><time>2026-03-29T08:46:49.708Z</time></trkpt><trkpt lat="45.425947" lon="10.5049209"><ele>129.0</ele><time>2026-03-29T08:46:50.708Z</time></trkpt><trkpt lat="45.4260509" lon="10.5048893"><ele>129.0</ele><time>2026-03-29T08:46:51.708Z</time></trkpt><trkpt lat="45.426158" lon="10.5048543"><ele>129.0</ele><time>2026-03-29T08:46:52.708Z</time></trkpt><trkpt lat="45.4262683" lon="10.5048112"><ele>129.0</ele><time>2026-03-29T08:46:53.708Z</time></trkpt><trkpt lat="45.4263724" lon="10.5047595"><ele>129.0</ele><time>2026-03-29T08:46:54.708Z</time></trkpt><trkpt lat="45.4264695" lon="10.504719"><ele>129.0</ele><time>2026-03-29T08:46:55.708Z</time></trkpt><trkpt lat="45.4265753" lon="10.5046888"><ele>128.75</ele><time>2026-03-29T08:46:56.708Z</time></trkpt><trkpt lat="45.4266883" lon="10.5046742"><ele>128.5</ele><time>2026-03-29T08:46:57.708Z</time></trkpt><trkpt lat="45.4268162" lon="10.504672"><ele>128.25</ele><time>2026-03-29T08:46:58.708Z</time></trkpt><trkpt lat="45.4269664" lon="10.5046645"><ele>128.0</ele><time>2026-03-29T08:46:59.708Z</time></trkpt><trkpt lat="45.4271203" lon="10.5046758"><ele>128.66666666666666</ele><time>2026-03-29T08:47:00.708Z</time></trkpt><trkpt lat="45.4272738" lon="10.504685"><ele>129.33333333333334</ele><time>2026-03-29T08:47:01.708Z</time></trkpt><trkpt lat="45.4274335" lon="10.5047099"><ele>130.0</ele><time>2026-03-29T08:47:02.708Z</time></trkpt><trkpt lat="45.4275941" lon="10.5047682"><ele>130.0</ele><time>2026-03-29T08:47:03.708Z</time></trkpt><trkpt lat="45.4277423" lon="10.5048388"><ele>130.0</ele><time>2026-03-29T08:47:04.708Z</time></trkpt><trkpt lat="45.4278768" lon="10.5049095"><ele>130.0</ele><time>2026-03-29T08:47:05.708Z</time></trkpt><trkpt lat="45.4280154" lon="10.5049822"><ele>130.0</ele><time>2026-03-29T08:47:06.708Z</time></trkpt><trkpt lat="45.4281568" lon="10.5050474"><ele>131.33333333333334</ele><time>2026-03-29T08:47:07.708Z</time></trkpt><trkpt lat="45.4283158" lon="10.505105"><ele>132.66666666666666</ele><time>2026-03-29T08:47:08.708Z</time></trkpt><trkpt lat="45.4284884" lon="10.5051732"><ele>134.0</ele><time>2026-03-29T08:47:09.708Z</time></trkpt><trkpt lat="45.4286467" lon="10.5052481"><ele>134.0</ele><time>2026-03-29T08:47:10.708Z</time></trkpt><trkpt lat="45.4287898" lon="10.5053063"><ele>134.0</ele><time>2026-03-29T08:47:11.707Z</time></trkpt><trkpt lat="45.4289224" lon="10.5053615"><ele>134.0</ele><time>2026-03-29T08:47:12.708Z</time></trkpt><trkpt lat="45.4290539" lon="10.5054177"><ele>134.0</ele><time>2026-03-29T08:47:13.708Z</time></trkpt><trkpt lat="45.4291807" lon="10.5054765"><ele>133.5</ele><time>2026-03-29T08:47:14.708Z</time></trkpt><trkpt lat="45.4293105" lon="10.5055416"><ele>133.0</ele><time>2026-03-29T08:47:15.709Z</time></trkpt><trkpt lat="45.4294412" lon="10.5056084"><ele>132.5</ele><time>2026-03-29T08:47:16.708Z</time></trkpt><trkpt lat="45.4295624" lon="10.5056789"><ele>132.0</ele><time>2026-03-29T08:47:17.709Z</time></trkpt><trkpt lat="45.4296779" lon="10.5057689"><ele>133.5</ele><time>2026-03-29T08:47:18.708Z</time></trkpt><trkpt lat="45.4297807" lon="10.5058618"><ele>135.0</ele><time>2026-03-29T08:47:19.708Z</time></trkpt><trkpt lat="45.4298837" lon="10.5059577"><ele>136.5</ele><time>2026-03-29T08:47:20.708Z</time></trkpt><trkpt lat="45.4299933" lon="10.5060474"><ele>138.0</ele><time>2026-03-29T08:47:21.708Z</time></trkpt><trkpt lat="45.4301129" lon="10.5061174"><ele>138.0</ele><time>2026-03-29T08:47:22.708Z</time></trkpt><trkpt lat="45.430239" lon="10.5061707"><ele>138.0</ele><time>2026-03-29T08:47:23.708Z</time></trkpt><trkpt lat="45.4303564" lon="10.5062107"><ele>138.0</ele><time>2026-03-29T08:47:24.708Z</time></trkpt><trkpt lat="45.4304831" lon="10.5062336"><ele>138.0</ele><time>2026-03-29T08:47:25.708Z</time></trkpt><trkpt lat="45.4306274" lon="10.5062479"><ele>137.25</ele><time>2026-03-29T08:47:26.708Z</time></trkpt><trkpt lat="45.4307588" lon="10.5062528"><ele>136.5</ele><time>2026-03-29T08:47:27.708Z</time></trkpt><trkpt lat="45.4308831" lon="10.5062584"><ele>135.75</ele><time>2026-03-29T08:47:28.708Z</time></trkpt><trkpt lat="45.4309993" lon="10.5062643"><ele>135.0</ele><time>2026-03-29T08:47:29.708Z</time></trkpt><trkpt lat="45.431114" lon="10.506278"><ele>135.0</ele><time>2026-03-29T08:47:30.708Z</time></trkpt><trkpt lat="45.4312248" lon="10.506299"><ele>135.0</ele><time>2026-03-29T08:47:31.708Z</time></trkpt><trkpt lat="45.4313261" lon="10.5063131"><ele>135.0</ele><time>2026-03-29T08:47:32.708Z</time></trkpt><trkpt lat="45.4314218" lon="10.5063299"><ele>135.0</ele><time>2026-03-29T08:47:33.708Z</time></trkpt><trkpt lat="45.4315088" lon="10.5063456"><ele>135.0</ele><time>2026-03-29T08:47:34.708Z</time></trkpt><trkpt lat="45.4315847" lon="10.5063564"><ele>135.5</ele><time>2026-03-29T08:47:35.708Z</time></trkpt><trkpt lat="45.4316522" lon="10.5063637"><ele>136.0</ele><time>2026-03-29T08:47:36.708Z</time></trkpt><trkpt lat="45.4317639" lon="10.5063823"><ele>136.5</ele><time>2026-03-29T08:47:38.708Z</time></trkpt><trkpt lat="45.4318273" lon="10.5064086"><ele>137.0</ele><time>2026-03-29T08:47:40.708Z</time></trkpt><trkpt lat="45.4318818" lon="10.5064738"><ele>137.5</ele><time>2026-03-29T08:47:43.708Z</time></trkpt><trkpt lat="45.4318721" lon="10.5066291"><ele>138.0</ele><time>2026-03-29T08:47:54.708Z</time></trkpt><trkpt lat="45.4318355" lon="10.5067251"><ele>138.0</ele><time>2026-03-29T08:47:55.708Z</time></trkpt><trkpt lat="45.4317699" lon="10.5068425"><ele>138.0</ele><time>2026-03-29T08:47:56.708Z</time></trkpt><trkpt lat="45.4316957" lon="10.5069817"><ele>138.0</ele><time>2026-03-29T08:47:57.708Z</time></trkpt><trkpt lat="45.4316067" lon="10.5071169"><ele>138.0</ele><time>2026-03-29T08:47:58.708Z</time></trkpt><trkpt lat="45.4314909" lon="10.5072236"><ele>139.0</ele><time>2026-03-29T08:47:59.708Z</time></trkpt><trkpt lat="45.4313607" lon="10.5073021"><ele>140.0</ele><time>2026-03-29T08:48:00.708Z</time></trkpt><trkpt lat="45.43122" lon="10.5073894"><ele>141.0</ele><time>2026-03-29T08:48:01.708Z</time></trkpt><trkpt lat="45.4310809" lon="10.5074863"><ele>138.66666666666666</ele><time>2026-03-29T08:48:02.708Z</time></trkpt><trkpt lat="45.4309416" lon="10.5075996"><ele>136.33333333333331</ele><time>2026-03-29T08:48:03.708Z</time></trkpt><trkpt lat="45.4308045" lon="10.5077237"><ele>134.0</ele><time>2026-03-29T08:48:04.708Z</time></trkpt><trkpt lat="45.4306669" lon="10.5078603"><ele>133.66666666666666</ele><time>2026-03-29T08:48:05.708Z</time></trkpt><trkpt lat="45.4305256" lon="10.5080059"><ele>133.33333333333334</ele><time>2026-03-29T08:48:06.708Z</time></trkpt><trkpt lat="45.4303808" lon="10.5081385"><ele>133.0</ele><time>2026-03-29T08:48:07.708Z</time></trkpt><trkpt lat="45.4302463" lon="10.5082632"><ele>131.33333333333334</ele><time>2026-03-29T08:48:08.708Z</time></trkpt><trkpt lat="45.4301197" lon="10.5083825"><ele>129.66666666666666</ele><time>2026-03-29T08:48:09.709Z</time></trkpt><trkpt lat="45.4299961" lon="10.508515"><ele>128.0</ele><time>2026-03-29T08:48:10.708Z</time></trkpt><trkpt lat="45.42988" lon="10.5086759"><ele>127.33333333333333</ele><time>2026-03-29T08:48:11.708Z</time></trkpt><trkpt lat="45.4297725" lon="10.5088647"><ele>126.66666666666666</ele><time>2026-03-29T08:48:12.708Z</time></trkpt><trkpt lat="45.4296682" lon="10.50907"><ele>126.0</ele><time>2026-03-29T08:48:13.708Z</time></trkpt><trkpt lat="45.429565" lon="10.5092852"><ele>125.66666666666666</ele><time>2026-03-29T08:48:14.708Z</time></trkpt><trkpt lat="45.4294602" lon="10.5095026"><ele>125.33333333333333</ele><time>2026-03-29T08:48:15.708Z</time></trkpt><trkpt lat="45.4293554" lon="10.5097222"><ele>125.0</ele><time>2026-03-29T08:48:16.708Z</time></trkpt><trkpt lat="45.4292504" lon="10.5099418"><ele>124.66666666666666</ele><time>2026-03-29T08:48:17.708Z</time></trkpt><trkpt lat="45.4291462" lon="10.5101595"><ele>124.33333333333334</ele><time>2026-03-29T08:48:18.708Z</time></trkpt><trkpt lat="45.4290419" lon="10.5103791"><ele>124.0</ele><time>2026-03-29T08:48:19.708Z</time></trkpt><trkpt lat="45.4289439" lon="10.5105855"><ele>123.66666666666667</ele><time>2026-03-29T08:48:20.708Z</time></trkpt><trkpt lat="45.428854" lon="10.5107797"><ele>123.33333333333334</ele><time>2026-03-29T08:48:21.708Z</time></trkpt><trkpt lat="45.4287695" lon="10.5109619"><ele>123.0</ele><time>2026-03-29T08:48:22.708Z</time></trkpt><trkpt lat="45.428692" lon="10.5111316"><ele>122.25</ele><time>2026-03-29T08:48:23.708Z</time></trkpt><trkpt lat="45.4286205" lon="10.5112923"><ele>121.5</ele><time>2026-03-29T08:48:24.709Z</time></trkpt><trkpt lat="45.4285522" lon="10.5114397"><ele>120.75</ele><time>2026-03-29T08:48:25.708Z</time></trkpt><trkpt lat="45.4284835" lon="10.5115728"><ele>120.0</ele><time>2026-03-29T08:48:26.708Z</time></trkpt><trkpt lat="45.4284144" lon="10.5117072"><ele>120.0</ele><time>2026-03-29T08:48:27.708Z</time></trkpt><trkpt lat="45.4283472" lon="10.511847"><ele>120.0</ele><time>2026-03-29T08:48:28.708Z</time></trkpt><trkpt lat="45.4282828" lon="10.5119915"><ele>120.0</ele><time>2026-03-29T08:48:29.708Z</time></trkpt><trkpt lat="45.4282186" lon="10.5121363"><ele>120.0</ele><time>2026-03-29T08:48:30.708Z</time></trkpt><trkpt lat="45.4281547" lon="10.5122847"><ele>119.75</ele><time>2026-03-29T08:48:31.708Z</time></trkpt><trkpt lat="45.4280927" lon="10.5124378"><ele>119.5</ele><time>2026-03-29T08:48:32.708Z</time></trkpt><trkpt lat="45.4280283" lon="10.5125903"><ele>119.25</ele><time>2026-03-29T08:48:33.708Z</time></trkpt><trkpt lat="45.4279635" lon="10.5127433"><ele>119.0</ele><time>2026-03-29T08:48:34.708Z</time></trkpt><trkpt lat="45.4279005" lon="10.5128986"><ele>119.25</ele><time>2026-03-29T08:48:35.708Z</time></trkpt><trkpt lat="45.4278379" lon="10.5130537"><ele>119.5</ele><time>2026-03-29T08:48:36.709Z</time></trkpt><trkpt lat="45.4277746" lon="10.5132091"><ele>119.75</ele><time>2026-03-29T08:48:37.708Z</time></trkpt><trkpt lat="45.4277101" lon="10.5133606"><ele>120.0</ele><time>2026-03-29T08:48:38.708Z</time></trkpt><trkpt lat="45.4276461" lon="10.5135126"><ele>120.0</ele><time>2026-03-29T08:48:39.708Z</time></trkpt><trkpt lat="45.4275849" lon="10.5136672"><ele>120.0</ele><time>2026-03-29T08:48:40.708Z</time></trkpt><trkpt lat="45.4275193" lon="10.513828"><ele>120.0</ele><time>2026-03-29T08:48:41.708Z</time></trkpt><trkpt lat="45.4274509" lon="10.5139965"><ele>120.0</ele><time>2026-03-29T08:48:42.708Z</time></trkpt><trkpt lat="45.4273791" lon="10.5141712"><ele>120.5</ele><time>2026-03-29T08:48:43.708Z</time></trkpt><trkpt lat="45.4273099" lon="10.5143519"><ele>121.0</ele><time>2026-03-29T08:48:44.708Z</time></trkpt><trkpt lat="45.4272412" lon="10.5145287"><ele>121.5</ele><time>2026-03-29T08:48:45.708Z</time></trkpt><trkpt lat="45.4271833" lon="10.5146961"><ele>122.0</ele><time>2026-03-29T08:48:46.709Z</time></trkpt><trkpt lat="45.4271371" lon="10.5148539"><ele>122.0</ele><time>2026-03-29T08:48:47.708Z</time></trkpt><trkpt lat="45.4271013" lon="10.5149982"><ele>121.99999999999999</ele><time>2026-03-29T08:48:48.708Z</time></trkpt><trkpt lat="45.4270711" lon="10.5151133"><ele>121.99999999999999</ele><time>2026-03-29T08:48:49.708Z</time></trkpt><trkpt lat="45.4270276" lon="10.5152347"><ele>122.0</ele><time>2026-03-29T08:48:51.708Z</time></trkpt><trkpt lat="45.4269728" lon="10.5153143"><ele>122.0</ele><time>2026-03-29T08:48:56.708Z</time></trkpt><trkpt lat="45.4269125" lon="10.5154288"><ele>122.19999999999999</ele><time>2026-03-29T08:48:58.708Z</time></trkpt><trkpt lat="45.4268384" lon="10.5155395"><ele>122.39999999999999</ele><time>2026-03-29T08:49:00.709Z</time></trkpt><trkpt lat="45.4267822" lon="10.5155838"><ele>122.60000000000001</ele><time>2026-03-29T08:49:01.708Z</time></trkpt><trkpt lat="45.4266474" lon="10.5155846"><ele>122.80000000000001</ele><time>2026-03-29T08:49:03.708Z</time></trkpt><trkpt lat="45.4265631" lon="10.5155534"><ele>123.0</ele><time>2026-03-29T08:49:04.708Z</time></trkpt><trkpt lat="45.4264672" lon="10.5155045"><ele>123.0</ele><time>2026-03-29T08:49:05.708Z</time></trkpt><trkpt lat="45.4263594" lon="10.5154499"><ele>123.0</ele><time>2026-03-29T08:49:06.709Z</time></trkpt><trkpt lat="45.4262431" lon="10.5153905"><ele>123.0</ele><time>2026-03-29T08:49:07.708Z</time></trkpt><trkpt lat="45.4261185" lon="10.5153236"><ele>123.0</ele><time>2026-03-29T08:49:08.708Z</time></trkpt><trkpt lat="45.4259919" lon="10.5152466"><ele>122.66666666666666</ele><time>2026-03-29T08:49:09.708Z</time></trkpt><trkpt lat="45.425862" lon="10.5151642"><ele>122.33333333333333</ele><time>2026-03-29T08:49:10.708Z</time></trkpt><trkpt lat="45.4257252" lon="10.5150757"><ele>122.0</ele><time>2026-03-29T08:49:11.708Z</time></trkpt><trkpt lat="45.4255803" lon="10.5149806"><ele>122.0</ele><time>2026-03-29T08:49:12.708Z</time></trkpt><trkpt lat="45.4254389" lon="10.5148871"><ele>122.0</ele><time>2026-03-29T08:49:13.708Z</time></trkpt><trkpt lat="45.4253029" lon="10.5147918"><ele>122.0</ele><time>2026-03-29T08:49:14.708Z</time></trkpt><trkpt lat="45.4251781" lon="10.5146955"><ele>122.0</ele><time>2026-03-29T08:49:15.708Z</time></trkpt><trkpt lat="45.4250487" lon="10.5145925"><ele>121.66666666666666</ele><time>2026-03-29T08:49:16.708Z</time></trkpt><trkpt lat="45.4249171" lon="10.5144873"><ele>121.33333333333334</ele><time>2026-03-29T08:49:17.708Z</time></trkpt><trkpt lat="45.4247851" lon="10.5143799"><ele>121.0</ele><time>2026-03-29T08:49:18.708Z</time></trkpt><trkpt lat="45.4246528" lon="10.5142703"><ele>120.75</ele><time>2026-03-29T08:49:19.708Z</time></trkpt><trkpt lat="45.4245233" lon="10.5141605"><ele>120.5</ele><time>2026-03-29T08:49:20.708Z</time></trkpt><trkpt lat="45.4244056" lon="10.5140507"><ele>120.25</ele><time>2026-03-29T08:49:21.708Z</time></trkpt><trkpt lat="45.424288" lon="10.5139407"><ele>120.0</ele><time>2026-03-29T08:49:22.708Z</time></trkpt><trkpt lat="45.4241657" lon="10.5138261"><ele>120.0</ele><time>2026-03-29T08:49:23.708Z</time></trkpt><trkpt lat="45.4240405" lon="10.5137096"><ele>120.0</ele><time>2026-03-29T08:49:24.708Z</time></trkpt><trkpt lat="45.4239133" lon="10.513588"><ele>120.0</ele><time>2026-03-29T08:49:25.708Z</time></trkpt><trkpt lat="45.423787" lon="10.5134635"><ele>120.0</ele><time>2026-03-29T08:49:26.708Z</time></trkpt><trkpt lat="45.423662" lon="10.5133353"><ele>120.0</ele><time>2026-03-29T08:49:27.708Z</time></trkpt><trkpt lat="45.4235369" lon="10.5132078"><ele>120.0</ele><time>2026-03-29T08:49:28.708Z</time></trkpt><trkpt lat="45.4234101" lon="10.5130875"><ele>120.0</ele><time>2026-03-29T08:49:29.708Z</time></trkpt><trkpt lat="45.4232883" lon="10.5129819"><ele>120.0</ele><time>2026-03-29T08:49:30.708Z</time></trkpt><trkpt lat="45.4231681" lon="10.5128889"><ele>120.0</ele><time>2026-03-29T08:49:31.708Z</time></trkpt><trkpt lat="45.4230513" lon="10.5128032"><ele>120.0</ele><time>2026-03-29T08:49:32.708Z</time></trkpt><trkpt lat="45.4229336" lon="10.5127229"><ele>120.5</ele><time>2026-03-29T08:49:33.708Z</time></trkpt><trkpt lat="45.4228095" lon="10.5126433"><ele>121.0</ele><time>2026-03-29T08:49:34.708Z</time></trkpt><trkpt lat="45.4226859" lon="10.5125629"><ele>121.5</ele><time>2026-03-29T08:49:35.708Z</time></trkpt><trkpt lat="45.4225625" lon="10.5124747"><ele>122.0</ele><time>2026-03-29T08:49:36.708Z</time></trkpt><trkpt lat="45.4224517" lon="10.5123618"><ele>122.0</ele><time>2026-03-29T08:49:37.708Z</time></trkpt><trkpt lat="45.4223512" lon="10.512236"><ele>122.0</ele><time>2026-03-29T08:49:38.709Z</time></trkpt><trkpt lat="45.4222567" lon="10.5121141"><ele>122.0</ele><time>2026-03-29T08:49:39.708Z</time></trkpt><trkpt lat="45.4221692" lon="10.5119915"><ele>122.0</ele><time>2026-03-29T08:49:40.709Z</time></trkpt><trkpt lat="45.4220921" lon="10.5118706"><ele>121.8</ele><time>2026-03-29T08:49:41.708Z</time></trkpt><trkpt lat="45.4220252" lon="10.5117468"><ele>121.6</ele><time>2026-03-29T08:49:42.708Z</time></trkpt><trkpt lat="45.4219742" lon="10.5116184"><ele>121.39999999999999</ele><time>2026-03-29T08:49:43.708Z</time></trkpt><trkpt lat="45.421941" lon="10.5114825"><ele>121.19999999999999</ele><time>2026-03-29T08:49:44.708Z</time></trkpt><trkpt lat="45.4219292" lon="10.5113391"><ele>121.0</ele><time>2026-03-29T08:49:45.708Z</time></trkpt><trkpt lat="45.4219323" lon="10.5111992"><ele>120.83333333333334</ele><time>2026-03-29T08:49:46.708Z</time></trkpt><trkpt lat="45.4219177" lon="10.5110701"><ele>120.66666666666667</ele><time>2026-03-29T08:49:47.708Z</time></trkpt><trkpt lat="45.4218834" lon="10.5109758"><ele>120.5</ele><time>2026-03-29T08:49:48.708Z</time></trkpt><trkpt lat="45.4218325" lon="10.5109107"><ele>120.33333333333334</ele><time>2026-03-29T08:49:49.708Z</time></trkpt><trkpt lat="45.4217726" lon="10.5108738"><ele>120.16666666666667</ele><time>2026-03-29T08:49:50.708Z</time></trkpt><trkpt lat="45.4216699" lon="10.5108281"><ele>120.0</ele><time>2026-03-29T08:49:52.708Z</time></trkpt><trkpt lat="45.4215776" lon="10.5107359"><ele>120.0</ele><time>2026-03-29T08:49:54.708Z</time></trkpt><trkpt lat="45.4215127" lon="10.5106554"><ele>120.0</ele><time>2026-03-29T08:49:55.708Z</time></trkpt><trkpt lat="45.4214432" lon="10.510582"><ele>120.0</ele><time>2026-03-29T08:49:56.708Z</time></trkpt><trkpt lat="45.4213683" lon="10.5105254"><ele>120.0</ele><time>2026-03-29T08:49:57.708Z</time></trkpt><trkpt lat="45.4212846" lon="10.5104823"><ele>120.0</ele><time>2026-03-29T08:49:58.708Z</time></trkpt><trkpt lat="45.421192" lon="10.5104593"><ele>120.0</ele><time>2026-03-29T08:49:59.708Z</time></trkpt><trkpt lat="45.4210881" lon="10.5104522"><ele>120.4</ele><time>2026-03-29T08:50:00.708Z</time></trkpt><trkpt lat="45.4209888" lon="10.5104753"><ele>120.8</ele><time>2026-03-29T08:50:01.708Z</time></trkpt><trkpt lat="45.4208926" lon="10.5105256"><ele>121.19999999999999</ele><time>2026-03-29T08:50:02.708Z</time></trkpt><trkpt lat="45.4208056" lon="10.5106018"><ele>121.6</ele><time>2026-03-29T08:50:03.708Z</time></trkpt><trkpt lat="45.4207292" lon="10.5106933"><ele>122.0</ele><time>2026-03-29T08:50:04.708Z</time></trkpt><trkpt lat="45.4206774" lon="10.5108186"><ele>122.0</ele><time>2026-03-29T08:50:05.708Z</time></trkpt><trkpt lat="45.4206376" lon="10.5109471"><ele>121.99999999999999</ele><time>2026-03-29T08:50:06.708Z</time></trkpt><trkpt lat="45.4206184" lon="10.511084"><ele>121.99999999999999</ele><time>2026-03-29T08:50:07.709Z</time></trkpt><trkpt lat="45.4206138" lon="10.5112208"><ele>122.0</ele><time>2026-03-29T08:50:08.708Z</time></trkpt><trkpt lat="45.4206234" lon="10.5113638"><ele>122.0</ele><time>2026-03-29T08:50:09.708Z</time></trkpt><trkpt lat="45.4206523" lon="10.5115047"><ele>121.8</ele><time>2026-03-29T08:50:10.708Z</time></trkpt><trkpt lat="45.4206925" lon="10.5116341"><ele>121.6</ele><time>2026-03-29T08:50:11.708Z</time></trkpt><trkpt lat="45.420743" lon="10.5117571"><ele>121.39999999999999</ele><time>2026-03-29T08:50:12.708Z</time></trkpt><trkpt lat="45.4207985" lon="10.5118713"><ele>121.19999999999999</ele><time>2026-03-29T08:50:13.708Z</time></trkpt><trkpt lat="45.4208308" lon="10.5119859"><ele>121.0</ele><time>2026-03-29T08:50:14.708Z</time></trkpt><trkpt lat="45.4208311" lon="10.5120936"><ele>121.00000000000001</ele><time>2026-03-29T08:50:15.708Z</time></trkpt><trkpt lat="45.4207691" lon="10.5121882"><ele>121.0</ele><time>2026-03-29T08:50:17.708Z</time></trkpt><trkpt lat="45.4206834" lon="10.5121776"><ele>121.0</ele><time>2026-03-29T08:50:19.708Z</time></trkpt><trkpt lat="45.4206212" lon="10.5121973"><ele>121.0</ele><time>2026-03-29T08:50:20.708Z</time></trkpt><trkpt lat="45.420543" lon="10.5122435"><ele>121.00000000000001</ele><time>2026-03-29T08:50:21.708Z</time></trkpt><trkpt lat="45.4204471" lon="10.5122986"><ele>121.0</ele><time>2026-03-29T08:50:22.708Z</time></trkpt><trkpt lat="45.4203339" lon="10.5123528"><ele>121.0</ele><time>2026-03-29T08:50:23.708Z</time></trkpt><trkpt lat="45.4202113" lon="10.5124058"><ele>121.0</ele><time>2026-03-29T08:50:24.708Z</time></trkpt><trkpt lat="45.4200745" lon="10.5124669"><ele>121.0</ele><time>2026-03-29T08:50:25.708Z</time></trkpt><trkpt lat="45.419935" lon="10.5125334"><ele>121.0</ele><time>2026-03-29T08:50:26.708Z</time></trkpt><trkpt lat="45.4197832" lon="10.5125941"><ele>121.33333333333334</ele><time>2026-03-29T08:50:27.708Z</time></trkpt><trkpt lat="45.4196227" lon="10.5126427"><ele>121.66666666666666</ele><time>2026-03-29T08:50:28.708Z</time></trkpt><trkpt lat="45.4194552" lon="10.5126729"><ele>122.0</ele><time>2026-03-29T08:50:29.708Z</time></trkpt><trkpt lat="45.4192779" lon="10.5126837"><ele>122.0</ele><time>2026-03-29T08:50:30.709Z</time></trkpt><trkpt lat="45.419098" lon="10.5126955"><ele>122.0</ele><time>2026-03-29T08:50:31.708Z</time></trkpt><trkpt lat="45.4189167" lon="10.5127097"><ele>122.0</ele><time>2026-03-29T08:50:32.708Z</time></trkpt><trkpt lat="45.4187318" lon="10.5127211"><ele>120.33333333333333</ele><time>2026-03-29T08:50:33.708Z</time></trkpt><trkpt lat="45.4185468" lon="10.5127356"><ele>118.66666666666666</ele><time>2026-03-29T08:50:34.708Z</time></trkpt><trkpt lat="45.4183607" lon="10.5127532"><ele>117.0</ele><time>2026-03-29T08:50:35.708Z</time></trkpt><trkpt lat="45.418174" lon="10.51277"><ele>117.0</ele><time>2026-03-29T08:50:36.708Z</time></trkpt><trkpt lat="45.4179886" lon="10.5127827"><ele>117.0</ele><time>2026-03-29T08:50:37.708Z</time></trkpt><trkpt lat="45.4178027" lon="10.512794"><ele>117.0</ele><time>2026-03-29T08:50:38.708Z</time></trkpt><trkpt lat="45.4176158" lon="10.5128118"><ele>116.66666666666666</ele><time>2026-03-29T08:50:39.708Z</time></trkpt><trkpt lat="45.4174263" lon="10.5128314"><ele>116.33333333333333</ele><time>2026-03-29T08:50:40.708Z</time></trkpt><trkpt lat="45.4172348" lon="10.51285"><ele>116.0</ele><time>2026-03-29T08:50:41.708Z</time></trkpt><trkpt lat="45.4170387" lon="10.5128645"><ele>116.0</ele><time>2026-03-29T08:50:42.708Z</time></trkpt><trkpt lat="45.4168407" lon="10.5128751"><ele>116.0</ele><time>2026-03-29T08:50:43.708Z</time></trkpt><trkpt lat="45.4166496" lon="10.512887"><ele>116.0</ele><time>2026-03-29T08:50:44.708Z</time></trkpt><trkpt lat="45.4164725" lon="10.5128993"><ele>116.0</ele><time>2026-03-29T08:50:45.708Z</time></trkpt><trkpt lat="45.4163048" lon="10.5129113"><ele>116.0</ele><time>2026-03-29T08:50:46.708Z</time></trkpt><trkpt lat="45.4161456" lon="10.5129234"><ele>116.0</ele><time>2026-03-29T08:50:47.708Z</time></trkpt><trkpt lat="45.4159829" lon="10.5129371"><ele>116.0</ele><time>2026-03-29T08:50:48.708Z</time></trkpt><trkpt lat="45.4158222" lon="10.5129472"><ele>116.0</ele><time>2026-03-29T08:50:49.708Z</time></trkpt><trkpt lat="45.4156637" lon="10.5129517"><ele>116.0</ele><time>2026-03-29T08:50:50.708Z</time></trkpt><trkpt lat="45.4155195" lon="10.512939"><ele>116.19999999999999</ele><time>2026-03-29T08:50:51.708Z</time></trkpt><trkpt lat="45.4154003" lon="10.5129196"><ele>116.39999999999999</ele><time>2026-03-29T08:50:52.708Z</time></trkpt><trkpt lat="45.4153103" lon="10.5129003"><ele>116.6</ele><time>2026-03-29T08:50:53.708Z</time></trkpt><trkpt lat="45.4152282" lon="10.5128763"><ele>116.8</ele><time>2026-03-29T08:50:54.708Z</time></trkpt><trkpt lat="45.4151622" lon="10.5128562"><ele>117.0</ele><time>2026-03-29T08:50:55.708Z</time></trkpt><trkpt lat="45.4150651" lon="10.5128377"><ele>117.0</ele><time>2026-03-29T08:50:57.708Z</time></trkpt><trkpt lat="45.4150108" lon="10.5128943"><ele>116.99999999999999</ele><time>2026-03-29T08:50:59.708Z</time></trkpt><trkpt lat="45.4149782" lon="10.5130221"><ele>116.99999999999999</ele><time>2026-03-29T08:51:01.708Z</time></trkpt><trkpt lat="45.4149654" lon="10.5132021"><ele>117.0</ele><time>2026-03-29T08:51:03.708Z</time></trkpt><trkpt lat="45.4149557" lon="10.5133175"><ele>117.0</ele><time>2026-03-29T08:51:04.708Z</time></trkpt><trkpt lat="45.4149481" lon="10.5134429"><ele>117.0</ele><time>2026-03-29T08:51:05.708Z</time></trkpt><trkpt lat="45.4149447" lon="10.5135664"><ele>117.0</ele><time>2026-03-29T08:51:06.708Z</time></trkpt><trkpt lat="45.4149453" lon="10.5136776"><ele>117.0</ele><time>2026-03-29T08:51:07.708Z</time></trkpt><trkpt lat="45.4149369" lon="10.5137805"><ele>117.0</ele><time>2026-03-29T08:51:08.708Z</time></trkpt><trkpt lat="45.4149124" lon="10.5138633"><ele>117.0</ele><time>2026-03-29T08:51:09.708Z</time></trkpt><trkpt lat="45.4148155" lon="10.5139531"><ele>117.0</ele><time>2026-03-29T08:51:11.708Z</time></trkpt><trkpt lat="45.4147427" lon="10.5139704"><ele>116.8</ele><time>2026-03-29T08:51:12.708Z</time></trkpt><trkpt lat="45.4146496" lon="10.5139766"><ele>116.6</ele><time>2026-03-29T08:51:13.708Z</time></trkpt><trkpt lat="45.4145407" lon="10.5139738"><ele>116.39999999999999</ele><time>2026-03-29T08:51:14.708Z</time></trkpt><trkpt lat="45.4144222" lon="10.5139757"><ele>116.19999999999999</ele><time>2026-03-29T08:51:15.708Z</time></trkpt><trkpt lat="45.414307" lon="10.5139913"><ele>116.0</ele><time>2026-03-29T08:51:16.708Z</time></trkpt><trkpt lat="45.4142025" lon="10.5140258"><ele>116.0</ele><time>2026-03-29T08:51:17.708Z</time></trkpt><trkpt lat="45.4141038" lon="10.5140838"><ele>116.0</ele><time>2026-03-29T08:51:18.708Z</time></trkpt><trkpt lat="45.4140012" lon="10.5141621"><ele>116.0</ele><time>2026-03-29T08:51:19.708Z</time></trkpt><trkpt lat="45.4139051" lon="10.5142115"><ele>116.0</ele><time>2026-03-29T08:51:20.708Z</time></trkpt><trkpt lat="45.4138008" lon="10.5142431"><ele>116.0</ele><time>2026-03-29T08:51:21.708Z</time></trkpt><trkpt lat="45.4137052" lon="10.5142705"><ele>116.0</ele><time>2026-03-29T08:51:22.708Z</time></trkpt><trkpt lat="45.4136165" lon="10.5143105"><ele>116.0</ele><time>2026-03-29T08:51:23.709Z</time></trkpt><trkpt lat="45.4135439" lon="10.5143612"><ele>116.0</ele><time>2026-03-29T08:51:24.708Z</time></trkpt><trkpt lat="45.413472" lon="10.5144394"><ele>116.0</ele><time>2026-03-29T08:51:25.708Z</time></trkpt><trkpt lat="45.4134182" lon="10.5145411"><ele>116.0</ele><time>2026-03-29T08:51:26.708Z</time></trkpt><trkpt lat="45.4133772" lon="10.5146648"><ele>116.0</ele><time>2026-03-29T08:51:27.708Z</time></trkpt><trkpt lat="45.4133447" lon="10.5148147"><ele>116.0</ele><time>2026-03-29T08:51:28.708Z</time></trkpt><trkpt lat="45.4133095" lon="10.514996"><ele>116.0</ele><time>2026-03-29T08:51:29.708Z</time></trkpt><trkpt lat="45.4132707" lon="10.5151604"><ele>116.0</ele><time>2026-03-29T08:51:30.708Z</time></trkpt><trkpt lat="45.4132301" lon="10.5153312"><ele>116.0</ele><time>2026-03-29T08:51:31.708Z</time></trkpt><trkpt lat="45.4131803" lon="10.5155176"><ele>116.0</ele><time>2026-03-29T08:51:32.708Z</time></trkpt><trkpt lat="45.4131247" lon="10.515704"><ele>116.0</ele><time>2026-03-29T08:51:33.708Z</time></trkpt><trkpt lat="45.4130678" lon="10.5158883"><ele>116.0</ele><time>2026-03-29T08:51:34.708Z</time></trkpt><trkpt lat="45.4130044" lon="10.5160652"><ele>115.75</ele><time>2026-03-29T08:51:35.708Z</time></trkpt><trkpt lat="45.4129416" lon="10.5162296"><ele>115.5</ele><time>2026-03-29T08:51:36.708Z</time></trkpt><trkpt lat="45.4128795" lon="10.5163991"><ele>115.25</ele><time>2026-03-29T08:51:37.708Z</time></trkpt><trkpt lat="45.4128176" lon="10.51657"><ele>115.0</ele><time>2026-03-29T08:51:38.708Z</time></trkpt><trkpt lat="45.4127609" lon="10.5167452"><ele>114.75</ele><time>2026-03-29T08:51:39.708Z</time></trkpt><trkpt lat="45.4127094" lon="10.5169223"><ele>114.5</ele><time>2026-03-29T08:51:40.708Z</time></trkpt><trkpt lat="45.4126564" lon="10.5171023"><ele>114.25</ele><time>2026-03-29T08:51:41.708Z</time></trkpt><trkpt lat="45.4125877" lon="10.5172733"><ele>114.0</ele><time>2026-03-29T08:51:42.708Z</time></trkpt><trkpt lat="45.4125115" lon="10.5174229"><ele>114.0</ele><time>2026-03-29T08:51:43.708Z</time></trkpt><trkpt lat="45.4124198" lon="10.5175583"><ele>114.0</ele><time>2026-03-29T08:51:44.708Z</time></trkpt><trkpt lat="45.4123279" lon="10.5176769"><ele>114.0</ele><time>2026-03-29T08:51:45.708Z</time></trkpt><trkpt lat="45.4122345" lon="10.51779"><ele>114.0</ele><time>2026-03-29T08:51:46.708Z</time></trkpt><trkpt lat="45.4121359" lon="10.5178968"><ele>115.25</ele><time>2026-03-29T08:51:47.709Z</time></trkpt><trkpt lat="45.4120353" lon="10.5180068"><ele>116.5</ele><time>2026-03-29T08:51:48.708Z</time></trkpt><trkpt lat="45.4119462" lon="10.5181309"><ele>117.75</ele><time>2026-03-29T08:51:49.708Z</time></trkpt><trkpt lat="45.4118668" lon="10.518269"><ele>119.0</ele><time>2026-03-29T08:51:50.708Z</time></trkpt><trkpt lat="45.4117956" lon="10.5184116"><ele>119.0</ele><time>2026-03-29T08:51:51.708Z</time></trkpt><trkpt lat="45.4117284" lon="10.5185521"><ele>119.0</ele><time>2026-03-29T08:51:52.708Z</time></trkpt><trkpt lat="45.4116595" lon="10.5186834"><ele>119.0</ele><time>2026-03-29T08:51:53.708Z</time></trkpt><trkpt lat="45.4115959" lon="10.5188009"><ele>119.0</ele><time>2026-03-29T08:51:54.708Z</time></trkpt><trkpt lat="45.4115357" lon="10.5189076"><ele>119.0</ele><time>2026-03-29T08:51:55.708Z</time></trkpt><trkpt lat="45.4114797" lon="10.5190079"><ele>119.0</ele><time>2026-03-29T08:51:56.708Z</time></trkpt><trkpt lat="45.411433" lon="10.5190973"><ele>119.0</ele><time>2026-03-29T08:51:57.708Z</time></trkpt><trkpt lat="45.4114001" lon="10.5191898"><ele>119.0</ele><time>2026-03-29T08:51:58.708Z</time></trkpt><trkpt lat="45.4114035" lon="10.5193472"><ele>119.0</ele><time>2026-03-29T08:52:00.708Z</time></trkpt><trkpt lat="45.4114844" lon="10.5194763"><ele>119.0</ele><time>2026-03-29T08:52:02.708Z</time></trkpt><trkpt lat="45.4115387" lon="10.5195671"><ele>118.6</ele><time>2026-03-29T08:52:03.708Z</time></trkpt><trkpt lat="45.4115685" lon="10.5196636"><ele>118.2</ele><time>2026-03-29T08:52:04.708Z</time></trkpt><trkpt lat="45.411584" lon="10.5197864"><ele>117.79999999999998</ele><time>2026-03-29T08:52:05.709Z</time></trkpt><trkpt lat="45.4115843" lon="10.5199402"><ele>117.39999999999999</ele><time>2026-03-29T08:52:06.708Z</time></trkpt><trkpt lat="45.41158" lon="10.5201126"><ele>117.0</ele><time>2026-03-29T08:52:07.708Z</time></trkpt><trkpt lat="45.4115735" lon="10.5203057"><ele>116.83333333333333</ele><time>2026-03-29T08:52:08.708Z</time></trkpt><trkpt lat="45.4115698" lon="10.5204608"><ele>116.66666666666666</ele><time>2026-03-29T08:52:09.708Z</time></trkpt><trkpt lat="45.411569" lon="10.5205888"><ele>116.5</ele><time>2026-03-29T08:52:10.708Z</time></trkpt><trkpt lat="45.4115778" lon="10.5207024"><ele>116.33333333333333</ele><time>2026-03-29T08:52:11.708Z</time></trkpt><trkpt lat="45.4116034" lon="10.5208003"><ele>116.16666666666666</ele><time>2026-03-29T08:52:12.708Z</time></trkpt><trkpt lat="45.411648" lon="10.5208936"><ele>116.0</ele><time>2026-03-29T08:52:13.708Z</time></trkpt><trkpt lat="45.4117114" lon="10.520965"><ele>116.0</ele><time>2026-03-29T08:52:14.708Z</time></trkpt><trkpt lat="45.4117948" lon="10.5210241"><ele>116.0</ele><time>2026-03-29T08:52:15.708Z</time></trkpt><trkpt lat="45.4118983" lon="10.5210845"><ele>116.0</ele><time>2026-03-29T08:52:16.708Z</time></trkpt><trkpt lat="45.4119985" lon="10.5211511"><ele>116.0</ele><time>2026-03-29T08:52:17.708Z</time></trkpt><trkpt lat="45.4120725" lon="10.5212202"><ele>116.0</ele><time>2026-03-29T08:52:18.708Z</time></trkpt><trkpt lat="45.4121296" lon="10.5213089"><ele>116.19999999999999</ele><time>2026-03-29T08:52:19.708Z</time></trkpt><trkpt lat="45.4121612" lon="10.5214197"><ele>116.39999999999999</ele><time>2026-03-29T08:52:20.708Z</time></trkpt><trkpt lat="45.412175" lon="10.5215576"><ele>116.6</ele><time>2026-03-29T08:52:21.708Z</time></trkpt><trkpt lat="45.412158" lon="10.5216948"><ele>116.8</ele><time>2026-03-29T08:52:22.708Z</time></trkpt><trkpt lat="45.4121222" lon="10.5218424"><ele>117.0</ele><time>2026-03-29T08:52:23.708Z</time></trkpt><trkpt lat="45.4120913" lon="10.5219541"><ele>117.0</ele><time>2026-03-29T08:52:24.708Z</time></trkpt><trkpt lat="45.4120545" lon="10.5220469"><ele>116.99999999999999</ele><time>2026-03-29T08:52:25.708Z</time></trkpt><trkpt lat="45.411961" lon="10.5221134"><ele>116.99999999999999</ele><time>2026-03-29T08:52:27.708Z</time></trkpt><trkpt lat="45.4118994" lon="10.5220918"><ele>117.0</ele><time>2026-03-29T08:52:28.708Z</time></trkpt><trkpt lat="45.4118094" lon="10.5220389"><ele>117.0</ele><time>2026-03-29T08:52:29.709Z</time></trkpt><trkpt lat="45.411695" lon="10.5219778"><ele>117.0</ele><time>2026-03-29T08:52:30.708Z</time></trkpt><trkpt lat="45.411573" lon="10.5219366"><ele>117.0</ele><time>2026-03-29T08:52:31.708Z</time></trkpt><trkpt lat="45.4114361" lon="10.5219139"><ele>117.0</ele><time>2026-03-29T08:52:32.708Z</time></trkpt><trkpt lat="45.4112905" lon="10.5219119"><ele>117.0</ele><time>2026-03-29T08:52:33.708Z</time></trkpt><trkpt lat="45.4111535" lon="10.5219263"><ele>117.33333333333334</ele><time>2026-03-29T08:52:34.708Z</time></trkpt><trkpt lat="45.4110093" lon="10.5219517"><ele>117.66666666666667</ele><time>2026-03-29T08:52:35.708Z</time></trkpt><trkpt lat="45.4108556" lon="10.521991"><ele>118.0</ele><time>2026-03-29T08:52:36.708Z</time></trkpt><trkpt lat="45.4107118" lon="10.5220417"><ele>117.66666666666667</ele><time>2026-03-29T08:52:37.708Z</time></trkpt><trkpt lat="45.4105677" lon="10.5221021"><ele>117.33333333333334</ele><time>2026-03-29T08:52:38.708Z</time></trkpt><trkpt lat="45.4104209" lon="10.5221733"><ele>117.0</ele><time>2026-03-29T08:52:39.708Z</time></trkpt><trkpt lat="45.4102697" lon="10.5222501"><ele>118.0</ele><time>2026-03-29T08:52:40.708Z</time></trkpt><trkpt lat="45.4100998" lon="10.5223332"><ele>119.0</ele><time>2026-03-29T08:52:41.708Z</time></trkpt><trkpt lat="45.4099352" lon="10.5224051"><ele>120.0</ele><time>2026-03-29T08:52:42.708Z</time></trkpt><trkpt lat="45.4097799" lon="10.5224723"><ele>121.66666666666666</ele><time>2026-03-29T08:52:43.708Z</time></trkpt><trkpt lat="45.4096232" lon="10.5225416"><ele>123.33333333333333</ele><time>2026-03-29T08:52:44.708Z</time></trkpt><trkpt lat="45.4094743" lon="10.5226112"><ele>125.0</ele><time>2026-03-29T08:52:45.708Z</time></trkpt><trkpt lat="45.4093264" lon="10.5226711"><ele>125.0</ele><time>2026-03-29T08:52:46.708Z</time></trkpt><trkpt lat="45.409167" lon="10.5227343"><ele>125.0</ele><time>2026-03-29T08:52:47.708Z</time></trkpt><trkpt lat="45.4090251" lon="10.5228"><ele>125.0</ele><time>2026-03-29T08:52:48.708Z</time></trkpt><trkpt lat="45.4088951" lon="10.5228628"><ele>125.5</ele><time>2026-03-29T08:52:49.708Z</time></trkpt><trkpt lat="45.4087669" lon="10.5229262"><ele>126.0</ele><time>2026-03-29T08:52:50.708Z</time></trkpt><trkpt lat="45.4086432" lon="10.5229815"><ele>126.5</ele><time>2026-03-29T08:52:51.708Z</time></trkpt><trkpt lat="45.4085378" lon="10.5230174"><ele>127.0</ele><time>2026-03-29T08:52:52.708Z</time></trkpt><trkpt lat="45.4084405" lon="10.5230342"><ele>127.0</ele><time>2026-03-29T08:52:53.708Z</time></trkpt><trkpt lat="45.408357" lon="10.5230569"><ele>126.99999999999999</ele><time>2026-03-29T08:52:54.708Z</time></trkpt><trkpt lat="45.4082695" lon="10.5231065"><ele>126.99999999999999</ele><time>2026-03-29T08:52:55.708Z</time></trkpt><trkpt lat="45.4081674" lon="10.5231786"><ele>127.0</ele><time>2026-03-29T08:52:56.709Z</time></trkpt><trkpt lat="45.4080469" lon="10.5232733"><ele>127.0</ele><time>2026-03-29T08:52:57.708Z</time></trkpt><trkpt lat="45.4079166" lon="10.5233762"><ele>127.66666666666667</ele><time>2026-03-29T08:52:58.708Z</time></trkpt><trkpt lat="45.4077733" lon="10.5234829"><ele>128.33333333333334</ele><time>2026-03-29T08:52:59.708Z</time></trkpt><trkpt lat="45.4076247" lon="10.5236068"><ele>129.0</ele><time>2026-03-29T08:53:00.708Z</time></trkpt><trkpt lat="45.4074785" lon="10.5237347"><ele>129.33333333333334</ele><time>2026-03-29T08:53:01.708Z</time></trkpt><trkpt lat="45.4073364" lon="10.5238527"><ele>129.66666666666669</ele><time>2026-03-29T08:53:02.708Z</time></trkpt><trkpt lat="45.4071841" lon="10.5239643"><ele>130.0</ele><time>2026-03-29T08:53:03.708Z</time></trkpt><trkpt lat="45.4070228" lon="10.5240768"><ele>131.33333333333334</ele><time>2026-03-29T08:53:04.708Z</time></trkpt><trkpt lat="45.4068654" lon="10.5241843"><ele>132.66666666666666</ele><time>2026-03-29T08:53:05.708Z</time></trkpt><trkpt lat="45.4067225" lon="10.5242864"><ele>134.0</ele><time>2026-03-29T08:53:06.708Z</time></trkpt><trkpt lat="45.4066013" lon="10.5243707"><ele>134.0</ele><time>2026-03-29T08:53:07.708Z</time></trkpt><trkpt lat="45.4064921" lon="10.52446"><ele>134.0</ele><time>2026-03-29T08:53:08.708Z</time></trkpt><trkpt lat="45.406385" lon="10.5245615"><ele>134.0</ele><time>2026-03-29T08:53:09.708Z</time></trkpt><trkpt lat="45.406293" lon="10.5246659"><ele>134.0</ele><time>2026-03-29T08:53:10.708Z</time></trkpt><trkpt lat="45.4061858" lon="10.5248026"><ele>132.66666666666666</ele><time>2026-03-29T08:53:11.708Z</time></trkpt><trkpt lat="45.4060669" lon="10.5249712"><ele>131.33333333333334</ele><time>2026-03-29T08:53:12.708Z</time></trkpt><trkpt lat="45.405933" lon="10.5251448"><ele>130.0</ele><time>2026-03-29T08:53:13.708Z</time></trkpt><trkpt lat="45.4057912" lon="10.525311"><ele>130.33333333333334</ele><time>2026-03-29T08:53:14.708Z</time></trkpt><trkpt lat="45.405657" lon="10.5254914"><ele>130.66666666666666</ele><time>2026-03-29T08:53:15.708Z</time></trkpt><trkpt lat="45.4055436" lon="10.5256699"><ele>131.0</ele><time>2026-03-29T08:53:16.708Z</time></trkpt><trkpt lat="45.4054375" lon="10.5258261"><ele>131.25</ele><time>2026-03-29T08:53:17.708Z</time></trkpt><trkpt lat="45.405337" lon="10.5259586"><ele>131.5</ele><time>2026-03-29T08:53:18.708Z</time></trkpt><trkpt lat="45.405233" lon="10.5260981"><ele>131.75</ele><time>2026-03-29T08:53:19.708Z</time></trkpt><trkpt lat="45.405125" lon="10.526234"><ele>132.0</ele><time>2026-03-29T08:53:20.709Z</time></trkpt><trkpt lat="45.4050106" lon="10.5263783"><ele>132.0</ele><time>2026-03-29T08:53:21.708Z</time></trkpt><trkpt lat="45.4048926" lon="10.526536"><ele>132.0</ele><time>2026-03-29T08:53:22.708Z</time></trkpt><trkpt lat="45.4047631" lon="10.5267166"><ele>132.0</ele><time>2026-03-29T08:53:23.708Z</time></trkpt><trkpt lat="45.4046261" lon="10.5269059"><ele>132.33333333333334</ele><time>2026-03-29T08:53:24.708Z</time></trkpt><trkpt lat="45.404498" lon="10.5270905"><ele>132.66666666666669</ele><time>2026-03-29T08:53:25.708Z</time></trkpt><trkpt lat="45.4043835" lon="10.5272649"><ele>133.0</ele><time>2026-03-29T08:53:26.708Z</time></trkpt><trkpt lat="45.4042773" lon="10.5274202"><ele>133.0</ele><time>2026-03-29T08:53:27.708Z</time></trkpt><trkpt lat="45.4041786" lon="10.5275464"><ele>133.0</ele><time>2026-03-29T08:53:28.708Z</time></trkpt><trkpt lat="45.4040849" lon="10.5276384"><ele>133.0</ele><time>2026-03-29T08:53:29.708Z</time></trkpt><trkpt lat="45.4039936" lon="10.5276896"><ele>133.0</ele><time>2026-03-29T08:53:30.708Z</time></trkpt><trkpt lat="45.4038977" lon="10.527705"><ele>133.0</ele><time>2026-03-29T08:53:31.708Z</time></trkpt><trkpt lat="45.4037847" lon="10.5276967"><ele>133.5</ele><time>2026-03-29T08:53:32.708Z</time></trkpt><trkpt lat="45.4036618" lon="10.5277008"><ele>134.0</ele><time>2026-03-29T08:53:33.708Z</time></trkpt><trkpt lat="45.4035234" lon="10.5277236"><ele>134.5</ele><time>2026-03-29T08:53:34.708Z</time></trkpt><trkpt lat="45.4033767" lon="10.5277623"><ele>135.0</ele><time>2026-03-29T08:53:35.708Z</time></trkpt><trkpt lat="45.4032469" lon="10.5277981"><ele>135.0</ele><time>2026-03-29T08:53:36.708Z</time></trkpt><trkpt lat="45.4031271" lon="10.5278181"><ele>135.0</ele><time>2026-03-29T08:53:37.708Z</time></trkpt><trkpt lat="45.4030157" lon="10.5278354"><ele>135.0</ele><time>2026-03-29T08:53:38.708Z</time></trkpt><trkpt lat="45.4029146" lon="10.5278605"><ele>135.0</ele><time>2026-03-29T08:53:39.708Z</time></trkpt><trkpt lat="45.4028182" lon="10.5279037"><ele>135.0</ele><time>2026-03-29T08:53:40.708Z</time></trkpt><trkpt lat="45.4027111" lon="10.5279728"><ele>136.0</ele><time>2026-03-29T08:53:41.709Z</time></trkpt><trkpt lat="45.4025903" lon="10.5280707"><ele>137.0</ele><time>2026-03-29T08:53:42.708Z</time></trkpt><trkpt lat="45.4024545" lon="10.5281824"><ele>138.0</ele><time>2026-03-29T08:53:43.708Z</time></trkpt><trkpt lat="45.4023082" lon="10.5283027"><ele>138.0</ele><time>2026-03-29T08:53:44.708Z</time></trkpt><trkpt lat="45.4021496" lon="10.5284403"><ele>138.0</ele><time>2026-03-29T08:53:45.708Z</time></trkpt><trkpt lat="45.401978" lon="10.5285868"><ele>138.0</ele><time>2026-03-29T08:53:46.708Z</time></trkpt><trkpt lat="45.4018033" lon="10.5287304"><ele>137.66666666666666</ele><time>2026-03-29T08:53:47.708Z</time></trkpt><trkpt lat="45.4016402" lon="10.5288648"><ele>137.33333333333331</ele><time>2026-03-29T08:53:48.708Z</time></trkpt><trkpt lat="45.401471" lon="10.5290089"><ele>137.0</ele><time>2026-03-29T08:53:49.708Z</time></trkpt><trkpt lat="45.4012967" lon="10.5291542"><ele>136.66666666666666</ele><time>2026-03-29T08:53:50.708Z</time></trkpt><trkpt lat="45.4011341" lon="10.5292926"><ele>136.33333333333334</ele><time>2026-03-29T08:53:51.708Z</time></trkpt><trkpt lat="45.4009848" lon="10.5294163"><ele>136.0</ele><time>2026-03-29T08:53:52.708Z</time></trkpt><trkpt lat="45.400841" lon="10.5295317"><ele>135.66666666666669</ele><time>2026-03-29T08:53:53.708Z</time></trkpt><trkpt lat="45.4006924" lon="10.5296586"><ele>135.33333333333334</ele><time>2026-03-29T08:53:54.708Z</time></trkpt><trkpt lat="45.4005446" lon="10.5297898"><ele>135.0</ele><time>2026-03-29T08:53:55.708Z</time></trkpt><trkpt lat="45.4004028" lon="10.5299221"><ele>135.66666666666666</ele><time>2026-03-29T08:53:56.708Z</time></trkpt><trkpt lat="45.4002645" lon="10.5300502"><ele>136.33333333333331</ele><time>2026-03-29T08:53:57.708Z</time></trkpt><trkpt lat="45.4001395" lon="10.5301634"><ele>137.0</ele><time>2026-03-29T08:53:58.708Z</time></trkpt><trkpt lat="45.4000214" lon="10.5302687"><ele>137.0</ele><time>2026-03-29T08:53:59.709Z</time></trkpt><trkpt lat="45.3999178" lon="10.5303709"><ele>137.0</ele><time>2026-03-29T08:54:00.708Z</time></trkpt><trkpt lat="45.3998133" lon="10.5304905"><ele>137.0</ele><time>2026-03-29T08:54:01.708Z</time></trkpt><trkpt lat="45.3997077" lon="10.5306089"><ele>137.0</ele><time>2026-03-29T08:54:02.708Z</time></trkpt><trkpt lat="45.3996079" lon="10.5307156"><ele>136.16666666666666</ele><time>2026-03-29T08:54:03.709Z</time></trkpt><trkpt lat="45.3995284" lon="10.5308063"><ele>135.33333333333331</ele><time>2026-03-29T08:54:04.708Z</time></trkpt><trkpt lat="45.3994633" lon="10.5308874"><ele>134.5</ele><time>2026-03-29T08:54:05.708Z</time></trkpt><trkpt lat="45.3994094" lon="10.5309663"><ele>133.66666666666666</ele><time>2026-03-29T08:54:06.708Z</time></trkpt><trkpt lat="45.3993624" lon="10.5310454"><ele>132.83333333333334</ele><time>2026-03-29T08:54:07.708Z</time></trkpt><trkpt lat="45.3993147" lon="10.531137"><ele>132.0</ele><time>2026-03-29T08:54:08.708Z</time></trkpt><trkpt lat="45.399267" lon="10.5312423"><ele>132.0</ele><time>2026-03-29T08:54:09.708Z</time></trkpt><trkpt lat="45.3992134" lon="10.5313633"><ele>132.0</ele><time>2026-03-29T08:54:10.708Z</time></trkpt><trkpt lat="45.3991522" lon="10.5314948"><ele>132.0</ele><time>2026-03-29T08:54:11.708Z</time></trkpt><trkpt lat="45.3990792" lon="10.5316346"><ele>132.0</ele><time>2026-03-29T08:54:12.708Z</time></trkpt><trkpt lat="45.3989795" lon="10.5317816"><ele>132.0</ele><time>2026-03-29T08:54:13.708Z</time></trkpt><trkpt lat="45.3988655" lon="10.5319315"><ele>132.0</ele><time>2026-03-29T08:54:14.708Z</time></trkpt><trkpt lat="45.3987631" lon="10.532062"><ele>132.0</ele><time>2026-03-29T08:54:15.708Z</time></trkpt><trkpt lat="45.3986634" lon="10.5321855"><ele>132.0</ele><time>2026-03-29T08:54:16.708Z</time></trkpt><trkpt lat="45.3985795" lon="10.5322945"><ele>131.2</ele><time>2026-03-29T08:54:17.708Z</time></trkpt><trkpt lat="45.3985062" lon="10.5323876"><ele>130.39999999999998</ele><time>2026-03-29T08:54:18.708Z</time></trkpt><trkpt lat="45.3984398" lon="10.5324681"><ele>129.60000000000002</ele><time>2026-03-29T08:54:19.708Z</time></trkpt><trkpt lat="45.3983896" lon="10.5325311"><ele>128.8</ele><time>2026-03-29T08:54:20.708Z</time></trkpt><trkpt lat="45.3983456" lon="10.5326579"><ele>128.0</ele><time>2026-03-29T08:54:22.708Z</time></trkpt><trkpt lat="45.3983714" lon="10.5327924"><ele>128.0</ele><time>2026-03-29T08:54:24.708Z</time></trkpt><trkpt lat="45.3984066" lon="10.5328682"><ele>128.0</ele><time>2026-03-29T08:54:25.708Z</time></trkpt><trkpt lat="45.3984556" lon="10.5329598"><ele>128.0</ele><time>2026-03-29T08:54:26.708Z</time></trkpt><trkpt lat="45.3985101" lon="10.5330786"><ele>128.0</ele><time>2026-03-29T08:54:27.708Z</time></trkpt><trkpt lat="45.3985666" lon="10.5332207"><ele>128.0</ele><time>2026-03-29T08:54:28.708Z</time></trkpt><trkpt lat="45.3986245" lon="10.5333929"><ele>128.0</ele><time>2026-03-29T08:54:29.708Z</time></trkpt><trkpt lat="45.3986766" lon="10.5335917"><ele>128.0</ele><time>2026-03-29T08:54:30.708Z</time></trkpt><trkpt lat="45.3987332" lon="10.5337593"><ele>128.0</ele><time>2026-03-29T08:54:31.708Z</time></trkpt><trkpt lat="45.3988065" lon="10.5339028"><ele>128.0</ele><time>2026-03-29T08:54:32.708Z</time></trkpt><trkpt lat="45.3988978" lon="10.5340357"><ele>127.75</ele><time>2026-03-29T08:54:33.708Z</time></trkpt><trkpt lat="45.3990119" lon="10.5341664"><ele>127.5</ele><time>2026-03-29T08:54:34.708Z</time></trkpt><trkpt lat="45.3991183" lon="10.5342966"><ele>127.25</ele><time>2026-03-29T08:54:35.708Z</time></trkpt><trkpt lat="45.3992134" lon="10.5344389"><ele>127.0</ele><time>2026-03-29T08:54:36.708Z</time></trkpt><trkpt lat="45.3992972" lon="10.5345945"><ele>128.0</ele><time>2026-03-29T08:54:37.708Z</time></trkpt><trkpt lat="45.3993616" lon="10.5347549"><ele>129.0</ele><time>2026-03-29T08:54:38.708Z</time></trkpt><trkpt lat="45.3994143" lon="10.5349395"><ele>130.0</ele><time>2026-03-29T08:54:39.708Z</time></trkpt><trkpt lat="45.3994516" lon="10.5351297"><ele>131.0</ele><time>2026-03-29T08:54:40.708Z</time></trkpt><trkpt lat="45.3994765" lon="10.535325"><ele>131.0</ele><time>2026-03-29T08:54:41.708Z</time></trkpt><trkpt lat="45.3994814" lon="10.5355418"><ele>131.0</ele><time>2026-03-29T08:54:42.708Z</time></trkpt><trkpt lat="45.3994714" lon="10.5357793"><ele>131.0</ele><time>2026-03-29T08:54:43.708Z</time></trkpt><trkpt lat="45.3994516" lon="10.5360372"><ele>130.0</ele><time>2026-03-29T08:54:44.708Z</time></trkpt><trkpt lat="45.3994333" lon="10.5363093"><ele>129.0</ele><time>2026-03-29T08:54:45.708Z</time></trkpt><trkpt lat="45.3994141" lon="10.5365627"><ele>128.0</ele><time>2026-03-29T08:54:46.708Z</time></trkpt><trkpt lat="45.399393" lon="10.536806"><ele>128.0</ele><time>2026-03-29T08:54:47.708Z</time></trkpt><trkpt lat="45.3993712" lon="10.5370469"><ele>128.0</ele><time>2026-03-29T08:54:48.708Z</time></trkpt><trkpt lat="45.3993412" lon="10.5372926"><ele>128.0</ele><time>2026-03-29T08:54:49.708Z</time></trkpt><trkpt lat="45.399299" lon="10.5375417"><ele>126.66666666666666</ele><time>2026-03-29T08:54:50.708Z</time></trkpt><trkpt lat="45.3992451" lon="10.5377855"><ele>125.33333333333334</ele><time>2026-03-29T08:54:51.708Z</time></trkpt><trkpt lat="45.399196" lon="10.5380205"><ele>124.0</ele><time>2026-03-29T08:54:52.708Z</time></trkpt><trkpt lat="45.3991539" lon="10.5382469"><ele>123.0</ele><time>2026-03-29T08:54:53.708Z</time></trkpt><trkpt lat="45.399126" lon="10.5384785"><ele>122.0</ele><time>2026-03-29T08:54:54.708Z</time></trkpt><trkpt lat="45.3991096" lon="10.5387047"><ele>121.0</ele><time>2026-03-29T08:54:55.709Z</time></trkpt><trkpt lat="45.3990958" lon="10.5389167"><ele>120.75</ele><time>2026-03-29T08:54:56.708Z</time></trkpt><trkpt lat="45.3990762" lon="10.5391354"><ele>120.5</ele><time>2026-03-29T08:54:57.708Z</time></trkpt><trkpt lat="45.3990532" lon="10.5393411"><ele>120.25</ele><time>2026-03-29T08:54:58.708Z</time></trkpt><trkpt lat="45.3990351" lon="10.5395477"><ele>120.0</ele><time>2026-03-29T08:54:59.708Z</time></trkpt><trkpt lat="45.3990037" lon="10.5397401"><ele>119.5</ele><time>2026-03-29T08:55:00.708Z</time></trkpt><trkpt lat="45.3989537" lon="10.539946"><ele>119.0</ele><time>2026-03-29T08:55:01.708Z</time></trkpt><trkpt lat="45.3988991" lon="10.5401328"><ele>118.5</ele><time>2026-03-29T08:55:02.708Z</time></trkpt><trkpt lat="45.3988445" lon="10.5403368"><ele>118.0</ele><time>2026-03-29T08:55:03.708Z</time></trkpt><trkpt lat="45.3987916" lon="10.5405258"><ele>118.0</ele><time>2026-03-29T08:55:04.708Z</time></trkpt><trkpt lat="45.398739" lon="10.5407083"><ele>118.0</ele><time>2026-03-29T08:55:05.708Z</time></trkpt><trkpt lat="45.3986835" lon="10.5408795"><ele>118.0</ele><time>2026-03-29T08:55:06.708Z</time></trkpt><trkpt lat="45.3986337" lon="10.5410341"><ele>118.0</ele><time>2026-03-29T08:55:07.708Z</time></trkpt><trkpt lat="45.3986014" lon="10.5411622"><ele>117.16666666666667</ele><time>2026-03-29T08:55:08.708Z</time></trkpt><trkpt lat="45.39859" lon="10.5412803"><ele>116.33333333333334</ele><time>2026-03-29T08:55:09.708Z</time></trkpt><trkpt lat="45.3985962" lon="10.5413782"><ele>115.5</ele><time>2026-03-29T08:55:10.708Z</time></trkpt><trkpt lat="45.3986188" lon="10.541463"><ele>114.66666666666666</ele><time>2026-03-29T08:55:11.708Z</time></trkpt><trkpt lat="45.3986558" lon="10.5415438"><ele>113.83333333333333</ele><time>2026-03-29T08:55:12.708Z</time></trkpt><trkpt lat="45.3986963" lon="10.5416179"><ele>113.0</ele><time>2026-03-29T08:55:13.708Z</time></trkpt><trkpt lat="45.3987647" lon="10.5417399"><ele>112.99999999999999</ele><time>2026-03-29T08:55:15.708Z</time></trkpt><trkpt lat="45.3988052" lon="10.5418605"><ele>113.0</ele><time>2026-03-29T08:55:17.708Z</time></trkpt><trkpt lat="45.398818" lon="10.5420091"><ele>113.0</ele><time>2026-03-29T08:55:19.708Z</time></trkpt><trkpt lat="45.3987995" lon="10.5421687"><ele>113.0</ele><time>2026-03-29T08:55:21.709Z</time></trkpt><trkpt lat="45.3987771" lon="10.5422528"><ele>112.99999999999999</ele><time>2026-03-29T08:55:22.708Z</time></trkpt><trkpt lat="45.398746" lon="10.5423394"><ele>113.0</ele><time>2026-03-29T08:55:23.708Z</time></trkpt><trkpt lat="45.398711" lon="10.5424359"><ele>112.66666666666666</ele><time>2026-03-29T08:55:24.708Z</time></trkpt><trkpt lat="45.3986754" lon="10.5425373"><ele>112.33333333333333</ele><time>2026-03-29T08:55:25.708Z</time></trkpt><trkpt lat="45.3986467" lon="10.542644"><ele>112.0</ele><time>2026-03-29T08:55:26.708Z</time></trkpt><trkpt lat="45.398627" lon="10.5427543"><ele>111.66666666666666</ele><time>2026-03-29T08:55:27.709Z</time></trkpt><trkpt lat="45.3986044" lon="10.542884"><ele>111.33333333333333</ele><time>2026-03-29T08:55:28.708Z</time></trkpt><trkpt lat="45.3985754" lon="10.543032"><ele>111.0</ele><time>2026-03-29T08:55:29.708Z</time></trkpt><trkpt lat="45.3985409" lon="10.5431956"><ele>111.0</ele><time>2026-03-29T08:55:30.708Z</time></trkpt><trkpt lat="45.3984956" lon="10.5433657"><ele>111.0</ele><time>2026-03-29T08:55:31.708Z</time></trkpt><trkpt lat="45.3984359" lon="10.5435458"><ele>111.0</ele><time>2026-03-29T08:55:32.708Z</time></trkpt><trkpt lat="45.3983661" lon="10.5437348"><ele>111.0</ele><time>2026-03-29T08:55:33.708Z</time></trkpt><trkpt lat="45.3982895" lon="10.5439391"><ele>111.66666666666666</ele><time>2026-03-29T08:55:34.708Z</time></trkpt><trkpt lat="45.3982057" lon="10.5441484"><ele>112.33333333333333</ele><time>2026-03-29T08:55:35.708Z</time></trkpt><trkpt lat="45.3981172" lon="10.5443508"><ele>113.0</ele><time>2026-03-29T08:55:36.708Z</time></trkpt><trkpt lat="45.3980268" lon="10.5445318"><ele>113.0</ele><time>2026-03-29T08:55:37.708Z</time></trkpt><trkpt lat="45.3979298" lon="10.5447111"><ele>113.0</ele><time>2026-03-29T08:55:38.708Z</time></trkpt><trkpt lat="45.3978461" lon="10.5448915"><ele>113.0</ele><time>2026-03-29T08:55:39.708Z</time></trkpt><trkpt lat="45.397775" lon="10.5450813"><ele>113.0</ele><time>2026-03-29T08:55:40.708Z</time></trkpt><trkpt lat="45.3977099" lon="10.5452834"><ele>113.0</ele><time>2026-03-29T08:55:41.708Z</time></trkpt><trkpt lat="45.3976599" lon="10.5454671"><ele>113.0</ele><time>2026-03-29T08:55:42.708Z</time></trkpt><trkpt lat="45.397623" lon="10.5456404"><ele>113.0</ele><time>2026-03-29T08:55:43.709Z</time></trkpt><trkpt lat="45.3976103" lon="10.5458176"><ele>113.0</ele><time>2026-03-29T08:55:44.708Z</time></trkpt><trkpt lat="45.3976155" lon="10.5460093"><ele>113.0</ele><time>2026-03-29T08:55:45.708Z</time></trkpt><trkpt lat="45.3976375" lon="10.5462212"><ele>113.0</ele><time>2026-03-29T08:55:46.708Z</time></trkpt><trkpt lat="45.3976643" lon="10.5464341"><ele>113.0</ele><time>2026-03-29T08:55:47.708Z</time></trkpt><trkpt lat="45.397677" lon="10.5466332"><ele>113.0</ele><time>2026-03-29T08:55:48.708Z</time></trkpt><trkpt lat="45.3976669" lon="10.5468336"><ele>113.0</ele><time>2026-03-29T08:55:49.708Z</time></trkpt><trkpt lat="45.3976345" lon="10.5470491"><ele>113.0</ele><time>2026-03-29T08:55:50.708Z</time></trkpt><trkpt lat="45.3975855" lon="10.5472728"><ele>113.75</ele><time>2026-03-29T08:55:51.709Z</time></trkpt><trkpt lat="45.3975345" lon="10.5474778"><ele>114.5</ele><time>2026-03-29T08:55:52.708Z</time></trkpt><trkpt lat="45.3974868" lon="10.5476719"><ele>115.25</ele><time>2026-03-29T08:55:53.708Z</time></trkpt><trkpt lat="45.3974464" lon="10.5478758"><ele>116.0</ele><time>2026-03-29T08:55:54.708Z</time></trkpt><trkpt lat="45.3974142" lon="10.5481"><ele>116.33333333333333</ele><time>2026-03-29T08:55:55.708Z</time></trkpt><trkpt lat="45.3973833" lon="10.5483475"><ele>116.66666666666666</ele><time>2026-03-29T08:55:56.708Z</time></trkpt><trkpt lat="45.397348" lon="10.5486239"><ele>117.0</ele><time>2026-03-29T08:55:57.708Z</time></trkpt><trkpt lat="45.3973138" lon="10.5489256"><ele>118.0</ele><time>2026-03-29T08:55:58.708Z</time></trkpt><trkpt lat="45.3972808" lon="10.5492251"><ele>119.0</ele><time>2026-03-29T08:55:59.708Z</time></trkpt><trkpt lat="45.3972484" lon="10.5494933"><ele>120.0</ele><time>2026-03-29T08:56:00.708Z</time></trkpt><trkpt lat="45.3972148" lon="10.5497583"><ele>120.66666666666666</ele><time>2026-03-29T08:56:01.709Z</time></trkpt><trkpt lat="45.3971843" lon="10.5499981"><ele>121.33333333333333</ele><time>2026-03-29T08:56:02.708Z</time></trkpt><trkpt lat="45.3971545" lon="10.5502137"><ele>122.0</ele><time>2026-03-29T08:56:03.708Z</time></trkpt><trkpt lat="45.3971276" lon="10.5504142"><ele>120.25</ele><time>2026-03-29T08:56:04.708Z</time></trkpt><trkpt lat="45.3970859" lon="10.5506022"><ele>118.5</ele><time>2026-03-29T08:56:05.708Z</time></trkpt><trkpt lat="45.3970387" lon="10.5507883"><ele>116.75</ele><time>2026-03-29T08:56:06.709Z</time></trkpt><trkpt lat="45.3969923" lon="10.5509532"><ele>115.0</ele><time>2026-03-29T08:56:07.708Z</time></trkpt><trkpt lat="45.3969539" lon="10.5511055"><ele>116.2</ele><time>2026-03-29T08:56:08.708Z</time></trkpt><trkpt lat="45.396927" lon="10.5512581"><ele>117.4</ele><time>2026-03-29T08:56:09.708Z</time></trkpt><trkpt lat="45.3969073" lon="10.5513946"><ele>118.6</ele><time>2026-03-29T08:56:10.708Z</time></trkpt><trkpt lat="45.3968962" lon="10.5515084"><ele>119.8</ele><time>2026-03-29T08:56:11.708Z</time></trkpt><trkpt lat="45.3968774" lon="10.5516455"><ele>121.0</ele><time>2026-03-29T08:56:13.708Z</time></trkpt><trkpt lat="45.3967841" lon="10.5516917"><ele>121.00000000000001</ele><time>2026-03-29T08:56:16.708Z</time></trkpt><trkpt lat="45.3966695" lon="10.5516783"><ele>121.0</ele><time>2026-03-29T08:56:18.709Z</time></trkpt><trkpt lat="45.3965993" lon="10.5516753"><ele>121.0</ele><time>2026-03-29T08:56:19.708Z</time></trkpt><trkpt lat="45.3965285" lon="10.5516746"><ele>121.0</ele><time>2026-03-29T08:56:20.708Z</time></trkpt><trkpt lat="45.3964583" lon="10.5516706"><ele>121.00000000000001</ele><time>2026-03-29T08:56:21.708Z</time></trkpt><trkpt lat="45.3963854" lon="10.5516702"><ele>121.0</ele><time>2026-03-29T08:56:22.708Z</time></trkpt><trkpt lat="45.3963104" lon="10.5516789"><ele>121.19999999999999</ele><time>2026-03-29T08:56:23.708Z</time></trkpt><trkpt lat="45.3962218" lon="10.5516914"><ele>121.39999999999999</ele><time>2026-03-29T08:56:24.708Z</time></trkpt><trkpt lat="45.3961207" lon="10.5517002"><ele>121.6</ele><time>2026-03-29T08:56:25.708Z</time></trkpt><trkpt lat="45.3960042" lon="10.5517254"><ele>121.8</ele><time>2026-03-29T08:56:26.708Z</time></trkpt><trkpt lat="45.3958969" lon="10.5517425"><ele>122.0</ele><time>2026-03-29T08:56:27.708Z</time></trkpt><trkpt lat="45.3957953" lon="10.5517619"><ele>122.0</ele><time>2026-03-29T08:56:28.708Z</time></trkpt><trkpt lat="45.3956974" lon="10.5517799"><ele>121.99999999999999</ele><time>2026-03-29T08:56:29.708Z</time></trkpt><trkpt lat="45.3956063" lon="10.5517945"><ele>121.99999999999999</ele><time>2026-03-29T08:56:30.708Z</time></trkpt><trkpt lat="45.395512" lon="10.5517915"><ele>122.0</ele><time>2026-03-29T08:56:31.708Z</time></trkpt><trkpt lat="45.3954186" lon="10.5517799"><ele>122.0</ele><time>2026-03-29T08:56:32.708Z</time></trkpt><trkpt lat="45.395332" lon="10.5517585"><ele>122.16666666666666</ele><time>2026-03-29T08:56:33.708Z</time></trkpt><trkpt lat="45.3952502" lon="10.5517245"><ele>122.33333333333333</ele><time>2026-03-29T08:56:34.708Z</time></trkpt><trkpt lat="45.3951757" lon="10.5516912"><ele>122.5</ele><time>2026-03-29T08:56:35.708Z</time></trkpt><trkpt lat="45.3951021" lon="10.5516617"><ele>122.66666666666666</ele><time>2026-03-29T08:56:36.708Z</time></trkpt><trkpt lat="45.395026" lon="10.5516334"><ele>122.83333333333333</ele><time>2026-03-29T08:56:37.708Z</time></trkpt><trkpt lat="45.3949481" lon="10.5516054"><ele>123.0</ele><time>2026-03-29T08:56:38.708Z</time></trkpt><trkpt lat="45.3948698" lon="10.5515866"><ele>123.00000000000001</ele><time>2026-03-29T08:56:39.708Z</time></trkpt><trkpt lat="45.3947906" lon="10.551568"><ele>123.0</ele><time>2026-03-29T08:56:40.708Z</time></trkpt><trkpt lat="45.3947088" lon="10.5515518"><ele>123.00000000000001</ele><time>2026-03-29T08:56:41.708Z</time></trkpt><trkpt lat="45.394633" lon="10.5515426"><ele>123.00000000000001</ele><time>2026-03-29T08:56:42.708Z</time></trkpt><trkpt lat="45.3945644" lon="10.5515392"><ele>123.0</ele><time>2026-03-29T08:56:43.708Z</time></trkpt><trkpt lat="45.3944964" lon="10.5515412"><ele>123.00000000000001</ele><time>2026-03-29T08:56:44.708Z</time></trkpt><trkpt lat="45.3944228" lon="10.5515487"><ele>123.00000000000001</ele><time>2026-03-29T08:56:45.708Z</time></trkpt><trkpt lat="45.3943446" lon="10.5515629"><ele>122.0</ele><time>2026-03-29T08:56:46.708Z</time></trkpt><trkpt lat="45.3942646" lon="10.5515755"><ele>121.0</ele><time>2026-03-29T08:56:47.708Z</time></trkpt><trkpt lat="45.3941809" lon="10.5515967"><ele>120.0</ele><time>2026-03-29T08:56:48.708Z</time></trkpt><trkpt lat="45.3940932" lon="10.5516178"><ele>119.0</ele><time>2026-03-29T08:56:49.708Z</time></trkpt><trkpt lat="45.3940039" lon="10.5516414"><ele>118.0</ele><time>2026-03-29T08:56:50.708Z</time></trkpt><trkpt lat="45.3939113" lon="10.5516718"><ele>117.0</ele><time>2026-03-29T08:56:51.708Z</time></trkpt><trkpt lat="45.3938202" lon="10.5517021"><ele>116.16666666666667</ele><time>2026-03-29T08:56:52.708Z</time></trkpt><trkpt lat="45.3937385" lon="10.5517295"><ele>115.33333333333334</ele><time>2026-03-29T08:56:53.708Z</time></trkpt><trkpt lat="45.3936556" lon="10.5517582"><ele>114.5</ele><time>2026-03-29T08:56:54.708Z</time></trkpt><trkpt lat="45.3935756" lon="10.5517946"><ele>113.66666666666667</ele><time>2026-03-29T08:56:55.708Z</time></trkpt><trkpt lat="45.3935015" lon="10.5518289"><ele>112.83333333333334</ele><time>2026-03-29T08:56:56.708Z</time></trkpt><trkpt lat="45.393434" lon="10.5518551"><ele>112.0</ele><time>2026-03-29T08:56:57.708Z</time></trkpt><trkpt lat="45.3933678" lon="10.5518812"><ele>112.0</ele><time>2026-03-29T08:56:58.708Z</time></trkpt><trkpt lat="45.3932407" lon="10.5518638"><ele>111.99999999999999</ele><time>2026-03-29T08:57:00.708Z</time></trkpt><trkpt lat="45.3931795" lon="10.5518146"><ele>111.99999999999999</ele><time>2026-03-29T08:57:01.708Z</time></trkpt><trkpt lat="45.3931222" lon="10.5517468"><ele>112.0</ele><time>2026-03-29T08:57:02.708Z</time></trkpt><trkpt lat="45.3930577" lon="10.5516744"><ele>112.0</ele><time>2026-03-29T08:57:03.708Z</time></trkpt><trkpt lat="45.3929804" lon="10.5515914"><ele>111.5</ele><time>2026-03-29T08:57:04.708Z</time></trkpt><trkpt lat="45.3928825" lon="10.5515187"><ele>111.0</ele><time>2026-03-29T08:57:05.708Z</time></trkpt><trkpt lat="45.3927652" lon="10.5514549"><ele>110.5</ele><time>2026-03-29T08:57:06.708Z</time></trkpt><trkpt lat="45.3926434" lon="10.5513951"><ele>110.0</ele><time>2026-03-29T08:57:07.708Z</time></trkpt><trkpt lat="45.3924778" lon="10.5513334"><ele>110.0</ele><time>2026-03-29T08:57:08.708Z</time></trkpt><trkpt lat="45.3923159" lon="10.5512736"><ele>110.0</ele><time>2026-03-29T08:57:09.708Z</time></trkpt><trkpt lat="45.3921614" lon="10.5512032"><ele>110.0</ele><time>2026-03-29T08:57:10.708Z</time></trkpt><trkpt lat="45.3920094" lon="10.5511386"><ele>112.0</ele><time>2026-03-29T08:57:11.708Z</time></trkpt><trkpt lat="45.3918519" lon="10.5510793"><ele>114.0</ele><time>2026-03-29T08:57:12.708Z</time></trkpt><trkpt lat="45.3916954" lon="10.5510236"><ele>116.0</ele><time>2026-03-29T08:57:13.708Z</time></trkpt><trkpt lat="45.3915366" lon="10.5509657"><ele>116.0</ele><time>2026-03-29T08:57:14.708Z</time></trkpt><trkpt lat="45.3913779" lon="10.550902"><ele>116.0</ele><time>2026-03-29T08:57:15.708Z</time></trkpt><trkpt lat="45.3912302" lon="10.5508322"><ele>116.0</ele><time>2026-03-29T08:57:16.708Z</time></trkpt><trkpt lat="45.3910859" lon="10.5507624"><ele>116.6</ele><time>2026-03-29T08:57:17.708Z</time></trkpt><trkpt lat="45.3909576" lon="10.5507013"><ele>117.19999999999999</ele><time>2026-03-29T08:57:18.708Z</time></trkpt><trkpt lat="45.3908516" lon="10.5506494"><ele>117.80000000000001</ele><time>2026-03-29T08:57:19.708Z</time></trkpt><trkpt lat="45.3907652" lon="10.5505887"><ele>118.4</ele><time>2026-03-29T08:57:20.708Z</time></trkpt><trkpt lat="45.3907019" lon="10.5505148"><ele>119.0</ele><time>2026-03-29T08:57:21.708Z</time></trkpt><trkpt lat="45.390652" lon="10.5504219"><ele>120.0</ele><time>2026-03-29T08:57:22.708Z</time></trkpt><trkpt lat="45.3906069" lon="10.550305"><ele>121.0</ele><time>2026-03-29T08:57:23.708Z</time></trkpt><trkpt lat="45.3905728" lon="10.5501534"><ele>122.0</ele><time>2026-03-29T08:57:24.708Z</time></trkpt><trkpt lat="45.3905368" lon="10.5499839"><ele>123.0</ele><time>2026-03-29T08:57:25.708Z</time></trkpt><trkpt lat="45.39049" lon="10.5498001"><ele>123.5</ele><time>2026-03-29T08:57:26.708Z</time></trkpt><trkpt lat="45.3904453" lon="10.5496075"><ele>124.0</ele><time>2026-03-29T08:57:27.708Z</time></trkpt><trkpt lat="45.3904065" lon="10.5494338"><ele>124.5</ele><time>2026-03-29T08:57:28.708Z</time></trkpt><trkpt lat="45.3903719" lon="10.5492748"><ele>125.0</ele><time>2026-03-29T08:57:29.708Z</time></trkpt><trkpt lat="45.3903407" lon="10.5491323"><ele>124.99999999999999</ele><time>2026-03-29T08:57:30.708Z</time></trkpt><trkpt lat="45.3903103" lon="10.5490012"><ele>125.0</ele><time>2026-03-29T08:57:31.708Z</time></trkpt><trkpt lat="45.39028" lon="10.5488794"><ele>125.0</ele><time>2026-03-29T08:57:32.708Z</time></trkpt><trkpt lat="45.390251" lon="10.5487652"><ele>125.0</ele><time>2026-03-29T08:57:33.708Z</time></trkpt><trkpt lat="45.3902222" lon="10.5486595"><ele>124.99999999999999</ele><time>2026-03-29T08:57:34.708Z</time></trkpt><trkpt lat="45.3901961" lon="10.548561"><ele>125.0</ele><time>2026-03-29T08:57:35.708Z</time></trkpt><trkpt lat="45.39017" lon="10.5484677"><ele>124.16666666666666</ele><time>2026-03-29T08:57:36.708Z</time></trkpt><trkpt lat="45.3901484" lon="10.5483754"><ele>123.33333333333333</ele><time>2026-03-29T08:57:37.708Z</time></trkpt><trkpt lat="45.3901244" lon="10.5482756"><ele>122.5</ele><time>2026-03-29T08:57:38.708Z</time></trkpt><trkpt lat="45.3900951" lon="10.5481844"><ele>121.66666666666666</ele><time>2026-03-29T08:57:39.708Z</time></trkpt><trkpt lat="45.3900716" lon="10.5480946"><ele>120.83333333333333</ele><time>2026-03-29T08:57:40.708Z</time></trkpt><trkpt lat="45.3900502" lon="10.5480072"><ele>120.0</ele><time>2026-03-29T08:57:41.708Z</time></trkpt><trkpt lat="45.3900086" lon="10.5478462"><ele>120.0</ele><time>2026-03-29T08:57:43.708Z</time></trkpt><trkpt lat="45.3899673" lon="10.5476922"><ele>120.0</ele><time>2026-03-29T08:57:45.708Z</time></trkpt><trkpt lat="45.3899252" lon="10.5475389"><ele>120.0</ele><time>2026-03-29T08:57:47.708Z</time></trkpt><trkpt lat="45.3898752" lon="10.5473919"><ele>120.0</ele><time>2026-03-29T08:57:49.708Z</time></trkpt><trkpt lat="45.3898227" lon="10.5472297"><ele>120.0</ele><time>2026-03-29T08:57:51.708Z</time></trkpt><trkpt lat="45.3897759" lon="10.5470691"><ele>120.0</ele><time>2026-03-29T08:57:53.708Z</time></trkpt><trkpt lat="45.3897435" lon="10.5469877"><ele>120.0</ele><time>2026-03-29T08:57:54.709Z</time></trkpt><trkpt lat="45.3897041" lon="10.5468819"><ele>120.0</ele><time>2026-03-29T08:57:55.708Z</time></trkpt><trkpt lat="45.3896602" lon="10.5467501"><ele>120.0</ele><time>2026-03-29T08:57:56.709Z</time></trkpt><trkpt lat="45.3896077" lon="10.546595"><ele>119.75</ele><time>2026-03-29T08:57:57.708Z</time></trkpt><trkpt lat="45.3895447" lon="10.5464129"><ele>119.5</ele><time>2026-03-29T08:57:58.708Z</time></trkpt><trkpt lat="45.3894771" lon="10.5462196"><ele>119.25</ele><time>2026-03-29T08:57:59.708Z</time></trkpt><trkpt lat="45.389412" lon="10.54603"><ele>119.0</ele><time>2026-03-29T08:58:00.708Z</time></trkpt><trkpt lat="45.3893453" lon="10.5458321"><ele>120.5</ele><time>2026-03-29T08:58:01.708Z</time></trkpt><trkpt lat="45.3892767" lon="10.5456459"><ele>122.0</ele><time>2026-03-29T08:58:02.708Z</time></trkpt><trkpt lat="45.3892109" lon="10.5454896"><ele>123.5</ele><time>2026-03-29T08:58:03.708Z</time></trkpt><trkpt lat="45.3891533" lon="10.5453481"><ele>125.0</ele><time>2026-03-29T08:58:04.708Z</time></trkpt><trkpt lat="45.3891112" lon="10.5452209"><ele>125.33333333333333</ele><time>2026-03-29T08:58:05.708Z</time></trkpt><trkpt lat="45.3890758" lon="10.5451103"><ele>125.66666666666666</ele><time>2026-03-29T08:58:06.708Z</time></trkpt><trkpt lat="45.3890406" lon="10.5450349"><ele>126.0</ele><time>2026-03-29T08:58:07.708Z</time></trkpt><trkpt lat="45.3889637" lon="10.5449786"><ele>126.33333333333334</ele><time>2026-03-29T08:58:09.709Z</time></trkpt><trkpt lat="45.3888839" lon="10.5450237"><ele>126.66666666666667</ele><time>2026-03-29T08:58:11.708Z</time></trkpt><trkpt lat="45.3887981" lon="10.5451498"><ele>127.0</ele><time>2026-03-29T08:58:13.708Z</time></trkpt><trkpt lat="45.3887439" lon="10.545233"><ele>127.0</ele><time>2026-03-29T08:58:14.708Z</time></trkpt><trkpt lat="45.3886797" lon="10.5453265"><ele>127.0</ele><time>2026-03-29T08:58:15.708Z</time></trkpt><trkpt lat="45.3886051" lon="10.54544"><ele>127.0</ele><time>2026-03-29T08:58:16.708Z</time></trkpt><trkpt lat="45.3885211" lon="10.5455647"><ele>127.0</ele><time>2026-03-29T08:58:17.708Z</time></trkpt><trkpt lat="45.3884267" lon="10.5456947"><ele>126.0</ele><time>2026-03-29T08:58:18.708Z</time></trkpt><trkpt lat="45.3883232" lon="10.5458269"><ele>125.0</ele><time>2026-03-29T08:58:19.708Z</time></trkpt><trkpt lat="45.3882121" lon="10.5459527"><ele>124.0</ele><time>2026-03-29T08:58:20.708Z</time></trkpt><trkpt lat="45.3880929" lon="10.5460804"><ele>123.0</ele><time>2026-03-29T08:58:21.708Z</time></trkpt><trkpt lat="45.3879685" lon="10.5462099"><ele>123.33333333333334</ele><time>2026-03-29T08:58:22.708Z</time></trkpt><trkpt lat="45.3878392" lon="10.5463414"><ele>123.66666666666667</ele><time>2026-03-29T08:58:23.708Z</time></trkpt><trkpt lat="45.3877138" lon="10.5464748"><ele>124.0</ele><time>2026-03-29T08:58:24.708Z</time></trkpt><trkpt lat="45.3875939" lon="10.5466164"><ele>124.0</ele><time>2026-03-29T08:58:25.708Z</time></trkpt><trkpt lat="45.3874658" lon="10.5467467"><ele>124.0</ele><time>2026-03-29T08:58:26.708Z</time></trkpt><trkpt lat="45.3873277" lon="10.5468745"><ele>124.0</ele><time>2026-03-29T08:58:27.708Z</time></trkpt><trkpt lat="45.3871897" lon="10.5470091"><ele>124.33333333333334</ele><time>2026-03-29T08:58:28.708Z</time></trkpt><trkpt lat="45.3870535" lon="10.5471454"><ele>124.66666666666666</ele><time>2026-03-29T08:58:29.708Z</time></trkpt><trkpt lat="45.3869227" lon="10.5472821"><ele>125.0</ele><time>2026-03-29T08:58:30.708Z</time></trkpt><trkpt lat="45.3867855" lon="10.5474228"><ele>125.0</ele><time>2026-03-29T08:58:31.708Z</time></trkpt><trkpt lat="45.3866544" lon="10.547563"><ele>125.0</ele><time>2026-03-29T08:58:32.708Z</time></trkpt><trkpt lat="45.3865414" lon="10.5476923"><ele>125.0</ele><time>2026-03-29T08:58:33.708Z</time></trkpt><trkpt lat="45.386428" lon="10.5478145"><ele>125.0</ele><time>2026-03-29T08:58:34.708Z</time></trkpt><trkpt lat="45.3863125" lon="10.547933"><ele>125.0</ele><time>2026-03-29T08:58:35.708Z</time></trkpt><trkpt lat="45.3861986" lon="10.5480456"><ele>125.0</ele><time>2026-03-29T08:58:36.708Z</time></trkpt><trkpt lat="45.3860935" lon="10.5481412"><ele>125.0</ele><time>2026-03-29T08:58:37.708Z</time></trkpt><trkpt lat="45.3859899" lon="10.5482189"><ele>125.0</ele><time>2026-03-29T08:58:38.708Z</time></trkpt><trkpt lat="45.3858898" lon="10.5482754"><ele>125.0</ele><time>2026-03-29T08:58:39.708Z</time></trkpt><trkpt lat="45.3857936" lon="10.5483453"><ele>125.0</ele><time>2026-03-29T08:58:40.708Z</time></trkpt><trkpt lat="45.3857055" lon="10.5484328"><ele>125.0</ele><time>2026-03-29T08:58:41.708Z</time></trkpt><trkpt lat="45.3856269" lon="10.5485355"><ele>125.0</ele><time>2026-03-29T08:58:42.708Z</time></trkpt><trkpt lat="45.3855476" lon="10.5486521"><ele>126.0</ele><time>2026-03-29T08:58:43.708Z</time></trkpt><trkpt lat="45.3854657" lon="10.5487709"><ele>127.0</ele><time>2026-03-29T08:58:44.708Z</time></trkpt><trkpt lat="45.3853799" lon="10.5488957"><ele>128.0</ele><time>2026-03-29T08:58:45.708Z</time></trkpt><trkpt lat="45.3852906" lon="10.5490251"><ele>129.0</ele><time>2026-03-29T08:58:46.708Z</time></trkpt><trkpt lat="45.3852024" lon="10.5491353"><ele>129.0</ele><time>2026-03-29T08:58:47.708Z</time></trkpt><trkpt lat="45.3851047" lon="10.5492475"><ele>129.0</ele><time>2026-03-29T08:58:48.708Z</time></trkpt><trkpt lat="45.3850055" lon="10.5493554"><ele>129.0</ele><time>2026-03-29T08:58:49.708Z</time></trkpt><trkpt lat="45.384904" lon="10.5494543"><ele>129.0</ele><time>2026-03-29T08:58:50.708Z</time></trkpt><trkpt lat="45.3847983" lon="10.5495498"><ele>129.75</ele><time>2026-03-29T08:58:51.708Z</time></trkpt><trkpt lat="45.3846936" lon="10.549631"><ele>130.5</ele><time>2026-03-29T08:58:52.708Z</time></trkpt><trkpt lat="45.3845941" lon="10.5496966"><ele>131.25</ele><time>2026-03-29T08:58:53.709Z</time></trkpt><trkpt lat="45.3844931" lon="10.5497558"><ele>132.0</ele><time>2026-03-29T08:58:54.708Z</time></trkpt><trkpt lat="45.3843874" lon="10.5498149"><ele>132.5</ele><time>2026-03-29T08:58:55.708Z</time></trkpt><trkpt lat="45.3842706" lon="10.5498758"><ele>133.0</ele><time>2026-03-29T08:58:56.708Z</time></trkpt><trkpt lat="45.384127" lon="10.5499356"><ele>133.5</ele><time>2026-03-29T08:58:57.708Z</time></trkpt><trkpt lat="45.3839826" lon="10.5500094"><ele>134.0</ele><time>2026-03-29T08:58:58.708Z</time></trkpt><trkpt lat="45.3838491" lon="10.5500845"><ele>132.75</ele><time>2026-03-29T08:58:59.709Z</time></trkpt><trkpt lat="45.3837303" lon="10.5501624"><ele>131.5</ele><time>2026-03-29T08:59:00.708Z</time></trkpt><trkpt lat="45.3836239" lon="10.5502335"><ele>130.25</ele><time>2026-03-29T08:59:01.708Z</time></trkpt><trkpt lat="45.3835354" lon="10.5503062"><ele>129.0</ele><time>2026-03-29T08:59:02.708Z</time></trkpt><trkpt lat="45.3834456" lon="10.5503805"><ele>129.0</ele><time>2026-03-29T08:59:03.708Z</time></trkpt><trkpt lat="45.3833403" lon="10.5504513"><ele>129.0</ele><time>2026-03-29T08:59:04.708Z</time></trkpt><trkpt lat="45.3832467" lon="10.5505352"><ele>129.0</ele><time>2026-03-29T08:59:05.708Z</time></trkpt><trkpt lat="45.3831528" lon="10.5506176"><ele>129.0</ele><time>2026-03-29T08:59:06.708Z</time></trkpt><trkpt lat="45.3830609" lon="10.5507101"><ele>128.5</ele><time>2026-03-29T08:59:07.708Z</time></trkpt><trkpt lat="45.382953" lon="10.5508109"><ele>128.0</ele><time>2026-03-29T08:59:08.708Z</time></trkpt><trkpt lat="45.3828207" lon="10.5509067"><ele>127.5</ele><time>2026-03-29T08:59:09.708Z</time></trkpt><trkpt lat="45.3826676" lon="10.5510085"><ele>127.0</ele><time>2026-03-29T08:59:10.708Z</time></trkpt><trkpt lat="45.382504" lon="10.5511"><ele>127.0</ele><time>2026-03-29T08:59:11.708Z</time></trkpt><trkpt lat="45.3823486" lon="10.551174"><ele>127.0</ele><time>2026-03-29T08:59:12.708Z</time></trkpt><trkpt lat="45.382196" lon="10.5512444"><ele>127.0</ele><time>2026-03-29T08:59:13.708Z</time></trkpt><trkpt lat="45.3820401" lon="10.5513117"><ele>126.33333333333334</ele><time>2026-03-29T08:59:14.708Z</time></trkpt><trkpt lat="45.381891" lon="10.551382"><ele>125.66666666666666</ele><time>2026-03-29T08:59:15.708Z</time></trkpt><trkpt lat="45.3817452" lon="10.5514565"><ele>125.0</ele><time>2026-03-29T08:59:16.708Z</time></trkpt><trkpt lat="45.3816109" lon="10.5515314"><ele>125.0</ele><time>2026-03-29T08:59:17.708Z</time></trkpt><trkpt lat="45.3814871" lon="10.5516107"><ele>125.0</ele><time>2026-03-29T08:59:18.708Z</time></trkpt><trkpt lat="45.3813695" lon="10.5516951"><ele>125.0</ele><time>2026-03-29T08:59:19.708Z</time></trkpt><trkpt lat="45.3812557" lon="10.5517778"><ele>125.0</ele><time>2026-03-29T08:59:20.708Z</time></trkpt><trkpt lat="45.3811527" lon="10.5518566"><ele>124.8</ele><time>2026-03-29T08:59:21.708Z</time></trkpt><trkpt lat="45.3810614" lon="10.5519416"><ele>124.6</ele><time>2026-03-29T08:59:22.708Z</time></trkpt><trkpt lat="45.3809754" lon="10.5520042"><ele>124.4</ele><time>2026-03-29T08:59:23.708Z</time></trkpt><trkpt lat="45.380876" lon="10.5520723"><ele>124.2</ele><time>2026-03-29T08:59:24.708Z</time></trkpt><trkpt lat="45.3807723" lon="10.5521554"><ele>124.0</ele><time>2026-03-29T08:59:25.708Z</time></trkpt><trkpt lat="45.3806779" lon="10.5522356"><ele>124.0</ele><time>2026-03-29T08:59:26.708Z</time></trkpt><trkpt lat="45.3805894" lon="10.5523175"><ele>124.0</ele><time>2026-03-29T08:59:27.708Z</time></trkpt><trkpt lat="45.3805139" lon="10.5524148"><ele>124.0</ele><time>2026-03-29T08:59:28.708Z</time></trkpt><trkpt lat="45.380457" lon="10.5525184"><ele>124.0</ele><time>2026-03-29T08:59:29.708Z</time></trkpt><trkpt lat="45.3804115" lon="10.5526192"><ele>124.0</ele><time>2026-03-29T08:59:30.708Z</time></trkpt><trkpt lat="45.3803826" lon="10.5527342"><ele>123.83333333333334</ele><time>2026-03-29T08:59:31.708Z</time></trkpt><trkpt lat="45.3803692" lon="10.5528733"><ele>123.66666666666667</ele><time>2026-03-29T08:59:32.708Z</time></trkpt><trkpt lat="45.3803648" lon="10.5530175"><ele>123.5</ele><time>2026-03-29T08:59:33.708Z</time></trkpt><trkpt lat="45.3803657" lon="10.5531463"><ele>123.33333333333334</ele><time>2026-03-29T08:59:34.708Z</time></trkpt><trkpt lat="45.3803754" lon="10.5532597"><ele>123.16666666666667</ele><time>2026-03-29T08:59:35.708Z</time></trkpt><trkpt lat="45.3804031" lon="10.5533533"><ele>123.0</ele><time>2026-03-29T08:59:36.708Z</time></trkpt><trkpt lat="45.380454" lon="10.5534396"><ele>123.2</ele><time>2026-03-29T08:59:37.708Z</time></trkpt><trkpt lat="45.3805204" lon="10.5535163"><ele>123.4</ele><time>2026-03-29T08:59:38.708Z</time></trkpt><trkpt lat="45.3805926" lon="10.5536024"><ele>123.60000000000001</ele><time>2026-03-29T08:59:39.708Z</time></trkpt><trkpt lat="45.3806673" lon="10.5537144"><ele>123.80000000000001</ele><time>2026-03-29T08:59:40.708Z</time></trkpt><trkpt lat="45.380731" lon="10.5538499"><ele>124.0</ele><time>2026-03-29T08:59:41.708Z</time></trkpt><trkpt lat="45.3807627" lon="10.5539884"><ele>124.0</ele><time>2026-03-29T08:59:42.708Z</time></trkpt><trkpt lat="45.3807735" lon="10.5541256"><ele>124.0</ele><time>2026-03-29T08:59:43.709Z</time></trkpt><trkpt lat="45.3807512" lon="10.5542594"><ele>124.0</ele><time>2026-03-29T08:59:44.708Z</time></trkpt><trkpt lat="45.3807076" lon="10.5543835"><ele>124.0</ele><time>2026-03-29T08:59:45.708Z</time></trkpt><trkpt lat="45.3806647" lon="10.5544868"><ele>124.0</ele><time>2026-03-29T08:59:46.708Z</time></trkpt><trkpt lat="45.3806215" lon="10.5545971"><ele>124.2</ele><time>2026-03-29T08:59:47.708Z</time></trkpt><trkpt lat="45.3805712" lon="10.5546979"><ele>124.4</ele><time>2026-03-29T08:59:48.708Z</time></trkpt><trkpt lat="45.380511" lon="10.5548065"><ele>124.6</ele><time>2026-03-29T08:59:49.708Z</time></trkpt><trkpt lat="45.3804555" lon="10.5549325"><ele>124.8</ele><time>2026-03-29T08:59:50.708Z</time></trkpt><trkpt lat="45.3803974" lon="10.5550888"><ele>125.0</ele><time>2026-03-29T08:59:51.708Z</time></trkpt><trkpt lat="45.3803358" lon="10.5552617"><ele>125.49999999999999</ele><time>2026-03-29T08:59:52.708Z</time></trkpt><trkpt lat="45.3802771" lon="10.555406"><ele>126.0</ele><time>2026-03-29T08:59:53.708Z</time></trkpt><trkpt lat="45.3802283" lon="10.5555321"><ele>126.5</ele><time>2026-03-29T08:59:54.708Z</time></trkpt><trkpt lat="45.3801943" lon="10.5556268"><ele>127.0</ele><time>2026-03-29T08:59:55.708Z</time></trkpt><trkpt lat="45.380165" lon="10.5557249"><ele>127.49999999999999</ele><time>2026-03-29T08:59:57.708Z</time></trkpt><trkpt lat="45.3801236" lon="10.5558088"><ele>128.0</ele><time>2026-03-29T08:59:59.709Z</time></trkpt><trkpt lat="45.3800738" lon="10.5558828"><ele>128.0</ele><time>2026-03-29T09:00:00.708Z</time></trkpt><trkpt lat="45.3800002" lon="10.5559806"><ele>128.0</ele><time>2026-03-29T09:00:01.708Z</time></trkpt><trkpt lat="45.3799205" lon="10.5560847"><ele>128.0</ele><time>2026-03-29T09:00:02.708Z</time></trkpt><trkpt lat="45.3798309" lon="10.5561925"><ele>128.0</ele><time>2026-03-29T09:00:03.708Z</time></trkpt><trkpt lat="45.3797207" lon="10.556294"><ele>128.0</ele><time>2026-03-29T09:00:04.708Z</time></trkpt><trkpt lat="45.3795954" lon="10.5563997"><ele>128.0</ele><time>2026-03-29T09:00:05.708Z</time></trkpt><trkpt lat="45.3794656" lon="10.5565293"><ele>128.0</ele><time>2026-03-29T09:00:06.708Z</time></trkpt><trkpt lat="45.3793378" lon="10.5566772"><ele>128.0</ele><time>2026-03-29T09:00:07.708Z</time></trkpt><trkpt lat="45.379224" lon="10.5568218"><ele>128.0</ele><time>2026-03-29T09:00:08.708Z</time></trkpt><trkpt lat="45.3791307" lon="10.5569796"><ele>128.0</ele><time>2026-03-29T09:00:09.708Z</time></trkpt><trkpt lat="45.3790524" lon="10.5571386"><ele>128.0</ele><time>2026-03-29T09:00:10.708Z</time></trkpt><trkpt lat="45.3789736" lon="10.557306"><ele>128.25</ele><time>2026-03-29T09:00:11.708Z</time></trkpt><trkpt lat="45.3788955" lon="10.5574765"><ele>128.5</ele><time>2026-03-29T09:00:12.708Z</time></trkpt><trkpt lat="45.3788249" lon="10.5576401"><ele>128.75</ele><time>2026-03-29T09:00:13.708Z</time></trkpt><trkpt lat="45.3787635" lon="10.5577953"><ele>129.0</ele><time>2026-03-29T09:00:14.708Z</time></trkpt><trkpt lat="45.3787064" lon="10.557945"><ele>129.4</ele><time>2026-03-29T09:00:15.708Z</time></trkpt><trkpt lat="45.3786513" lon="10.5580924"><ele>129.8</ele><time>2026-03-29T09:00:16.708Z</time></trkpt><trkpt lat="45.3785969" lon="10.5582187"><ele>130.2</ele><time>2026-03-29T09:00:17.708Z</time></trkpt><trkpt lat="45.3785509" lon="10.5583153"><ele>130.6</ele><time>2026-03-29T09:00:18.708Z</time></trkpt><trkpt lat="45.3785202" lon="10.5584459"><ele>131.0</ele><time>2026-03-29T09:00:20.709Z</time></trkpt><trkpt lat="45.3785849" lon="10.5585217"><ele>131.0</ele><time>2026-03-29T09:00:22.708Z</time></trkpt><trkpt lat="45.3786499" lon="10.5585443"><ele>131.0</ele><time>2026-03-29T09:00:23.708Z</time></trkpt><trkpt lat="45.3787304" lon="10.5585874"><ele>131.0</ele><time>2026-03-29T09:00:24.708Z</time></trkpt><trkpt lat="45.3788195" lon="10.5586468"><ele>131.0</ele><time>2026-03-29T09:00:25.708Z</time></trkpt><trkpt lat="45.3789077" lon="10.5587259"><ele>131.0</ele><time>2026-03-29T09:00:26.708Z</time></trkpt><trkpt lat="45.378999" lon="10.5588081"><ele>130.6</ele><time>2026-03-29T09:00:27.708Z</time></trkpt><trkpt lat="45.3790977" lon="10.55889"><ele>130.2</ele><time>2026-03-29T09:00:28.708Z</time></trkpt><trkpt lat="45.3791943" lon="10.5589819"><ele>129.8</ele><time>2026-03-29T09:00:29.708Z</time></trkpt><trkpt lat="45.379279" lon="10.5590832"><ele>129.4</ele><time>2026-03-29T09:00:30.708Z</time></trkpt><trkpt lat="45.3793578" lon="10.5591853"><ele>129.0</ele><time>2026-03-29T09:00:31.708Z</time></trkpt><trkpt lat="45.379421" lon="10.5592974"><ele>129.0</ele><time>2026-03-29T09:00:32.708Z</time></trkpt><trkpt lat="45.3794696" lon="10.5594155"><ele>129.0</ele><time>2026-03-29T09:00:33.708Z</time></trkpt><trkpt lat="45.3795143" lon="10.5595376"><ele>129.0</ele><time>2026-03-29T09:00:34.708Z</time></trkpt><trkpt lat="45.3795631" lon="10.5596636"><ele>129.0</ele><time>2026-03-29T09:00:35.708Z</time></trkpt><trkpt lat="45.3796208" lon="10.5598004"><ele>129.0</ele><time>2026-03-29T09:00:36.708Z</time></trkpt><trkpt lat="45.3796882" lon="10.5599522"><ele>127.0</ele><time>2026-03-29T09:00:37.709Z</time></trkpt><trkpt lat="45.3797578" lon="10.5601114"><ele>125.0</ele><time>2026-03-29T09:00:38.708Z</time></trkpt><trkpt lat="45.3798323" lon="10.5602741"><ele>123.0</ele><time>2026-03-29T09:00:39.708Z</time></trkpt><trkpt lat="45.379923" lon="10.5604153"><ele>121.0</ele><time>2026-03-29T09:00:40.708Z</time></trkpt><trkpt lat="45.3800389" lon="10.5605272"><ele>121.0</ele><time>2026-03-29T09:00:41.708Z</time></trkpt><trkpt lat="45.3801713" lon="10.5606102"><ele>121.0</ele><time>2026-03-29T09:00:42.708Z</time></trkpt><trkpt lat="45.3803174" lon="10.560673"><ele>121.0</ele><time>2026-03-29T09:00:43.708Z</time></trkpt><trkpt lat="45.3804697" lon="10.5607332"><ele>120.0</ele><time>2026-03-29T09:00:44.708Z</time></trkpt><trkpt lat="45.3806304" lon="10.5607901"><ele>119.0</ele><time>2026-03-29T09:00:45.708Z</time></trkpt><trkpt lat="45.3808021" lon="10.5608424"><ele>118.0</ele><time>2026-03-29T09:00:46.708Z</time></trkpt><trkpt lat="45.3809795" lon="10.5608979"><ele>118.0</ele><time>2026-03-29T09:00:47.708Z</time></trkpt><trkpt lat="45.3811622" lon="10.5609559"><ele>118.0</ele><time>2026-03-29T09:00:48.708Z</time></trkpt><trkpt lat="45.3813493" lon="10.561016"><ele>118.0</ele><time>2026-03-29T09:00:49.708Z</time></trkpt><trkpt lat="45.3815385" lon="10.561073"><ele>116.66666666666667</ele><time>2026-03-29T09:00:50.708Z</time></trkpt><trkpt lat="45.3817232" lon="10.5611321"><ele>115.33333333333334</ele><time>2026-03-29T09:00:51.708Z</time></trkpt><trkpt lat="45.3818883" lon="10.5611855"><ele>114.0</ele><time>2026-03-29T09:00:52.708Z</time></trkpt><trkpt lat="45.3820358" lon="10.5612215"><ele>113.33333333333334</ele><time>2026-03-29T09:00:53.708Z</time></trkpt><trkpt lat="45.3821826" lon="10.5612089"><ele>112.66666666666667</ele><time>2026-03-29T09:00:54.708Z</time></trkpt><trkpt lat="45.3823277" lon="10.5611379"><ele>112.0</ele><time>2026-03-29T09:00:55.709Z</time></trkpt><trkpt lat="45.3824577" lon="10.5610168"><ele>112.0</ele><time>2026-03-29T09:00:56.708Z</time></trkpt><trkpt lat="45.3825833" lon="10.5608648"><ele>112.0</ele><time>2026-03-29T09:00:57.708Z</time></trkpt><trkpt lat="45.3827166" lon="10.5607108"><ele>112.0</ele><time>2026-03-29T09:00:58.708Z</time></trkpt><trkpt lat="45.3828556" lon="10.5605618"><ele>112.0</ele><time>2026-03-29T09:00:59.708Z</time></trkpt><trkpt lat="45.3829977" lon="10.5604266"><ele>112.0</ele><time>2026-03-29T09:01:00.708Z</time></trkpt><trkpt lat="45.3831395" lon="10.5603318"><ele>112.0</ele><time>2026-03-29T09:01:01.708Z</time></trkpt><trkpt lat="45.3832963" lon="10.5602773"><ele>112.66666666666667</ele><time>2026-03-29T09:01:02.708Z</time></trkpt><trkpt lat="45.38346" lon="10.5602771"><ele>113.33333333333334</ele><time>2026-03-29T09:01:03.708Z</time></trkpt><trkpt lat="45.383635" lon="10.5603141"><ele>114.0</ele><time>2026-03-29T09:01:04.708Z</time></trkpt><trkpt lat="45.383817" lon="10.5603651"><ele>112.0</ele><time>2026-03-29T09:01:05.708Z</time></trkpt><trkpt lat="45.3840095" lon="10.5604268"><ele>110.0</ele><time>2026-03-29T09:01:06.708Z</time></trkpt><trkpt lat="45.384213" lon="10.5604922"><ele>108.0</ele><time>2026-03-29T09:01:07.708Z</time></trkpt><trkpt lat="45.3844245" lon="10.5605614"><ele>108.0</ele><time>2026-03-29T09:01:08.708Z</time></trkpt><trkpt lat="45.3846388" lon="10.5606274"><ele>108.0</ele><time>2026-03-29T09:01:09.708Z</time></trkpt><trkpt lat="45.3848551" lon="10.5606936"><ele>108.0</ele><time>2026-03-29T09:01:10.708Z</time></trkpt><trkpt lat="45.3850696" lon="10.5607634"><ele>107.33333333333334</ele><time>2026-03-29T09:01:11.708Z</time></trkpt><trkpt lat="45.3852825" lon="10.5608333"><ele>106.66666666666667</ele><time>2026-03-29T09:01:12.708Z</time></trkpt><trkpt lat="45.3854933" lon="10.5609045"><ele>106.0</ele><time>2026-03-29T09:01:13.708Z</time></trkpt><trkpt lat="45.3857038" lon="10.5609761"><ele>105.33333333333334</ele><time>2026-03-29T09:01:14.708Z</time></trkpt><trkpt lat="45.3859137" lon="10.5610445"><ele>104.66666666666666</ele><time>2026-03-29T09:01:15.708Z</time></trkpt><trkpt lat="45.3861197" lon="10.5611119"><ele>104.0</ele><time>2026-03-29T09:01:16.708Z</time></trkpt><trkpt lat="45.3863208" lon="10.5611813"><ele>104.66666666666666</ele><time>2026-03-29T09:01:17.708Z</time></trkpt><trkpt lat="45.3865176" lon="10.5612476"><ele>105.33333333333334</ele><time>2026-03-29T09:01:18.708Z</time></trkpt><trkpt lat="45.3867117" lon="10.561311"><ele>106.0</ele><time>2026-03-29T09:01:19.708Z</time></trkpt><trkpt lat="45.3869" lon="10.5613746"><ele>106.0</ele><time>2026-03-29T09:01:20.708Z</time></trkpt><trkpt lat="45.3870829" lon="10.5614316"><ele>106.0</ele><time>2026-03-29T09:01:21.708Z</time></trkpt><trkpt lat="45.3872502" lon="10.5614583"><ele>106.0</ele><time>2026-03-29T09:01:22.708Z</time></trkpt><trkpt lat="45.3874125" lon="10.5614565"><ele>107.33333333333334</ele><time>2026-03-29T09:01:23.708Z</time></trkpt><trkpt lat="45.3875726" lon="10.5614245"><ele>108.66666666666666</ele><time>2026-03-29T09:01:24.708Z</time></trkpt><trkpt lat="45.3877212" lon="10.5613433"><ele>110.0</ele><time>2026-03-29T09:01:25.708Z</time></trkpt><trkpt lat="45.3878596" lon="10.5612216"><ele>109.0</ele><time>2026-03-29T09:01:26.708Z</time></trkpt><trkpt lat="45.3879939" lon="10.5610893"><ele>108.0</ele><time>2026-03-29T09:01:27.708Z</time></trkpt><trkpt lat="45.388129" lon="10.5609588"><ele>107.0</ele><time>2026-03-29T09:01:28.708Z</time></trkpt><trkpt lat="45.3882689" lon="10.5608461"><ele>111.0</ele><time>2026-03-29T09:01:29.708Z</time></trkpt><trkpt lat="45.388414" lon="10.5607664"><ele>115.0</ele><time>2026-03-29T09:01:30.708Z</time></trkpt><trkpt lat="45.3885687" lon="10.5607384"><ele>119.0</ele><time>2026-03-29T09:01:31.708Z</time></trkpt><trkpt lat="45.388731" lon="10.5607594"><ele>120.66666666666666</ele><time>2026-03-29T09:01:32.708Z</time></trkpt><trkpt lat="45.3888999" lon="10.5608043"><ele>122.33333333333334</ele><time>2026-03-29T09:01:33.708Z</time></trkpt><trkpt lat="45.3890715" lon="10.560854"><ele>124.0</ele><time>2026-03-29T09:01:34.708Z</time></trkpt><trkpt lat="45.3892473" lon="10.5609033"><ele>124.0</ele><time>2026-03-29T09:01:35.708Z</time></trkpt><trkpt lat="45.3894229" lon="10.5609621"><ele>124.0</ele><time>2026-03-29T09:01:36.708Z</time></trkpt><trkpt lat="45.389594" lon="10.5610207"><ele>124.0</ele><time>2026-03-29T09:01:37.708Z</time></trkpt><trkpt lat="45.3897563" lon="10.5610689"><ele>122.33333333333334</ele><time>2026-03-29T09:01:38.708Z</time></trkpt><trkpt lat="45.38993" lon="10.5611141"><ele>120.66666666666666</ele><time>2026-03-29T09:01:39.709Z</time></trkpt><trkpt lat="45.3901076" lon="10.5611719"><ele>119.0</ele><time>2026-03-29T09:01:40.708Z</time></trkpt><trkpt lat="45.3902862" lon="10.5612352"><ele>119.0</ele><time>2026-03-29T09:01:41.708Z</time></trkpt><trkpt lat="45.3904689" lon="10.5612963"><ele>119.0</ele><time>2026-03-29T09:01:42.708Z</time></trkpt><trkpt lat="45.3906532" lon="10.5613569"><ele>119.0</ele><time>2026-03-29T09:01:43.708Z</time></trkpt><trkpt lat="45.3908322" lon="10.56141"><ele>118.0</ele><time>2026-03-29T09:01:44.708Z</time></trkpt><trkpt lat="45.3909987" lon="10.5614493"><ele>117.0</ele><time>2026-03-29T09:01:45.708Z</time></trkpt><trkpt lat="45.3911625" lon="10.5614615"><ele>116.0</ele><time>2026-03-29T09:01:46.708Z</time></trkpt><trkpt lat="45.3913297" lon="10.5614541"><ele>115.75</ele><time>2026-03-29T09:01:47.708Z</time></trkpt><trkpt lat="45.3914979" lon="10.56145"><ele>115.5</ele><time>2026-03-29T09:01:48.708Z</time></trkpt><trkpt lat="45.3916366" lon="10.5614499"><ele>115.25</ele><time>2026-03-29T09:01:49.708Z</time></trkpt><trkpt lat="45.3917635" lon="10.5614472"><ele>115.0</ele><time>2026-03-29T09:01:50.708Z</time></trkpt><trkpt lat="45.3918703" lon="10.5614423"><ele>115.00000000000001</ele><time>2026-03-29T09:01:51.708Z</time></trkpt><trkpt lat="45.3919463" lon="10.5614469"><ele>115.0</ele><time>2026-03-29T09:01:52.708Z</time></trkpt><trkpt lat="45.3920362" lon="10.5614512"><ele>115.0</ele><time>2026-03-29T09:01:54.708Z</time></trkpt><trkpt lat="45.3919687" lon="10.5614146"><ele>115.0</ele><time>2026-03-29T09:02:00.708Z</time></trkpt><trkpt lat="45.3919038" lon="10.5614267"><ele>115.00000000000001</ele><time>2026-03-29T09:02:01.708Z</time></trkpt><trkpt lat="45.3918258" lon="10.561423"><ele>115.0</ele><time>2026-03-29T09:02:02.708Z</time></trkpt><trkpt lat="45.3917422" lon="10.5614272"><ele>115.0</ele><time>2026-03-29T09:02:03.709Z</time></trkpt><trkpt lat="45.3916657" lon="10.5614515"><ele>115.0</ele><time>2026-03-29T09:02:04.708Z</time></trkpt><trkpt lat="45.3916049" lon="10.5615255"><ele>115.0</ele><time>2026-03-29T09:02:05.708Z</time></trkpt><trkpt lat="45.3915417" lon="10.5616573"><ele>115.0</ele><time>2026-03-29T09:02:06.708Z</time></trkpt><trkpt lat="45.3914584" lon="10.561847"><ele>115.0</ele><time>2026-03-29T09:02:07.708Z</time></trkpt><trkpt lat="45.3913568" lon="10.5620903"><ele>115.33333333333334</ele><time>2026-03-29T09:02:08.708Z</time></trkpt><trkpt lat="45.3912613" lon="10.5623303"><ele>115.66666666666666</ele><time>2026-03-29T09:02:09.709Z</time></trkpt><trkpt lat="45.3911907" lon="10.5625267"><ele>116.0</ele><time>2026-03-29T09:02:10.708Z</time></trkpt><trkpt lat="45.3911494" lon="10.5627124"><ele>116.33333333333333</ele><time>2026-03-29T09:02:11.708Z</time></trkpt><trkpt lat="45.3911327" lon="10.5629023"><ele>116.66666666666666</ele><time>2026-03-29T09:02:12.708Z</time></trkpt><trkpt lat="45.3911325" lon="10.5631179"><ele>117.0</ele><time>2026-03-29T09:02:13.708Z</time></trkpt><trkpt lat="45.3911191" lon="10.5633932"><ele>116.33333333333334</ele><time>2026-03-29T09:02:14.708Z</time></trkpt><trkpt lat="45.3910823" lon="10.5637105"><ele>115.66666666666667</ele><time>2026-03-29T09:02:15.708Z</time></trkpt><trkpt lat="45.3910445" lon="10.5639827"><ele>115.0</ele><time>2026-03-29T09:02:16.708Z</time></trkpt><trkpt lat="45.3910093" lon="10.5642124"><ele>115.0</ele><time>2026-03-29T09:02:17.708Z</time></trkpt><trkpt lat="45.3909801" lon="10.5644135"><ele>115.0</ele><time>2026-03-29T09:02:18.708Z</time></trkpt><trkpt lat="45.3909428" lon="10.564594"><ele>115.0</ele><time>2026-03-29T09:02:19.708Z</time></trkpt><trkpt lat="45.3908954" lon="10.5647682"><ele>115.0</ele><time>2026-03-29T09:02:20.708Z</time></trkpt><trkpt lat="45.3908342" lon="10.5649354"><ele>115.5</ele><time>2026-03-29T09:02:21.708Z</time></trkpt><trkpt lat="45.3907734" lon="10.5651049"><ele>116.0</ele><time>2026-03-29T09:02:22.708Z</time></trkpt><trkpt lat="45.3907099" lon="10.5652776"><ele>116.5</ele><time>2026-03-29T09:02:23.708Z</time></trkpt><trkpt lat="45.3906405" lon="10.565446"><ele>117.0</ele><time>2026-03-29T09:02:24.708Z</time></trkpt><trkpt lat="45.3905622" lon="10.5656086"><ele>116.33333333333334</ele><time>2026-03-29T09:02:25.708Z</time></trkpt><trkpt lat="45.3904742" lon="10.5657735"><ele>115.66666666666667</ele><time>2026-03-29T09:02:26.708Z</time></trkpt><trkpt lat="45.3903803" lon="10.5659451"><ele>115.0</ele><time>2026-03-29T09:02:27.708Z</time></trkpt><trkpt lat="45.390282" lon="10.5661158"><ele>114.5</ele><time>2026-03-29T09:02:28.708Z</time></trkpt><trkpt lat="45.3901842" lon="10.5662788"><ele>114.0</ele><time>2026-03-29T09:02:29.708Z</time></trkpt><trkpt lat="45.3900955" lon="10.5664016"><ele>113.5</ele><time>2026-03-29T09:02:30.708Z</time></trkpt><trkpt lat="45.3899941" lon="10.5665022"><ele>113.0</ele><time>2026-03-29T09:02:31.708Z</time></trkpt><trkpt lat="45.38988" lon="10.5665964"><ele>113.0</ele><time>2026-03-29T09:02:32.708Z</time></trkpt><trkpt lat="45.3897572" lon="10.5666873"><ele>113.0</ele><time>2026-03-29T09:02:33.708Z</time></trkpt><trkpt lat="45.3896197" lon="10.5667854"><ele>113.0</ele><time>2026-03-29T09:02:34.708Z</time></trkpt><trkpt lat="45.389472" lon="10.5668838"><ele>113.33333333333333</ele><time>2026-03-29T09:02:35.708Z</time></trkpt><trkpt lat="45.3893252" lon="10.5669823"><ele>113.66666666666666</ele><time>2026-03-29T09:02:36.708Z</time></trkpt><trkpt lat="45.3891909" lon="10.5670774"><ele>114.0</ele><time>2026-03-29T09:02:37.709Z</time></trkpt><trkpt lat="45.3890646" lon="10.5671767"><ele>114.0</ele><time>2026-03-29T09:02:38.708Z</time></trkpt><trkpt lat="45.3889434" lon="10.5673055"><ele>114.0</ele><time>2026-03-29T09:02:39.708Z</time></trkpt><trkpt lat="45.3888274" lon="10.5674498"><ele>114.0</ele><time>2026-03-29T09:02:40.708Z</time></trkpt><trkpt lat="45.3887069" lon="10.5675864"><ele>114.0</ele><time>2026-03-29T09:02:41.708Z</time></trkpt><trkpt lat="45.3885744" lon="10.5677213"><ele>114.0</ele><time>2026-03-29T09:02:42.708Z</time></trkpt><trkpt lat="45.3884432" lon="10.5678604"><ele>114.0</ele><time>2026-03-29T09:02:43.709Z</time></trkpt><trkpt lat="45.3883155" lon="10.5679937"><ele>113.66666666666666</ele><time>2026-03-29T09:02:44.709Z</time></trkpt><trkpt lat="45.3881792" lon="10.568132"><ele>113.33333333333333</ele><time>2026-03-29T09:02:45.708Z</time></trkpt><trkpt lat="45.3880333" lon="10.5682619"><ele>113.0</ele><time>2026-03-29T09:02:46.708Z</time></trkpt><trkpt lat="45.387895" lon="10.568373"><ele>113.0</ele><time>2026-03-29T09:02:47.708Z</time></trkpt><trkpt lat="45.3877658" lon="10.5684733"><ele>113.0</ele><time>2026-03-29T09:02:48.709Z</time></trkpt><trkpt lat="45.3876435" lon="10.5685719"><ele>113.0</ele><time>2026-03-29T09:02:49.708Z</time></trkpt><trkpt lat="45.3875186" lon="10.5686842"><ele>113.0</ele><time>2026-03-29T09:02:50.708Z</time></trkpt><trkpt lat="45.3874073" lon="10.5687906"><ele>113.0</ele><time>2026-03-29T09:02:51.708Z</time></trkpt><trkpt lat="45.3872996" lon="10.5688868"><ele>113.0</ele><time>2026-03-29T09:02:52.708Z</time></trkpt><trkpt lat="45.3871943" lon="10.5689781"><ele>113.0</ele><time>2026-03-29T09:02:53.708Z</time></trkpt><trkpt lat="45.3870974" lon="10.5690766"><ele>113.0</ele><time>2026-03-29T09:02:54.708Z</time></trkpt><trkpt lat="45.3870045" lon="10.5691879"><ele>113.0</ele><time>2026-03-29T09:02:55.708Z</time></trkpt><trkpt lat="45.3869195" lon="10.5693057"><ele>113.0</ele><time>2026-03-29T09:02:56.708Z</time></trkpt><trkpt lat="45.3868312" lon="10.569442"><ele>113.0</ele><time>2026-03-29T09:02:57.708Z</time></trkpt><trkpt lat="45.3867484" lon="10.5695884"><ele>113.0</ele><time>2026-03-29T09:02:58.708Z</time></trkpt><trkpt lat="45.3866716" lon="10.5697406"><ele>113.0</ele><time>2026-03-29T09:02:59.708Z</time></trkpt><trkpt lat="45.3865989" lon="10.5698852"><ele>113.0</ele><time>2026-03-29T09:03:00.708Z</time></trkpt><trkpt lat="45.3865298" lon="10.5700171"><ele>113.0</ele><time>2026-03-29T09:03:01.708Z</time></trkpt><trkpt lat="45.3864636" lon="10.5701393"><ele>113.0</ele><time>2026-03-29T09:03:02.708Z</time></trkpt><trkpt lat="45.3864058" lon="10.5702768"><ele>112.0</ele><time>2026-03-29T09:03:03.708Z</time></trkpt><trkpt lat="45.3863597" lon="10.5704198"><ele>111.0</ele><time>2026-03-29T09:03:04.709Z</time></trkpt><trkpt lat="45.3863255" lon="10.5705735"><ele>110.0</ele><time>2026-03-29T09:03:05.708Z</time></trkpt><trkpt lat="45.3863028" lon="10.5707376"><ele>109.0</ele><time>2026-03-29T09:03:06.708Z</time></trkpt><trkpt lat="45.3862755" lon="10.570889"><ele>109.0</ele><time>2026-03-29T09:03:07.708Z</time></trkpt><trkpt lat="45.3862505" lon="10.5710273"><ele>109.0</ele><time>2026-03-29T09:03:08.709Z</time></trkpt><trkpt lat="45.386231" lon="10.5711608"><ele>109.0</ele><time>2026-03-29T09:03:09.708Z</time></trkpt><trkpt lat="45.386211" lon="10.5712892"><ele>109.0</ele><time>2026-03-29T09:03:10.708Z</time></trkpt><trkpt lat="45.3861991" lon="10.5714073"><ele>109.0</ele><time>2026-03-29T09:03:11.708Z</time></trkpt><trkpt lat="45.3861975" lon="10.57152"><ele>108.83333333333334</ele><time>2026-03-29T09:03:12.708Z</time></trkpt><trkpt lat="45.3862103" lon="10.5716358"><ele>108.66666666666667</ele><time>2026-03-29T09:03:13.708Z</time></trkpt><trkpt lat="45.3862371" lon="10.5717497"><ele>108.5</ele><time>2026-03-29T09:03:14.708Z</time></trkpt><trkpt lat="45.3862713" lon="10.5718486"><ele>108.33333333333334</ele><time>2026-03-29T09:03:15.708Z</time></trkpt><trkpt lat="45.3863141" lon="10.5719396"><ele>108.16666666666667</ele><time>2026-03-29T09:03:16.708Z</time></trkpt><trkpt lat="45.3863695" lon="10.5720156"><ele>108.0</ele><time>2026-03-29T09:03:17.708Z</time></trkpt><trkpt lat="45.3864331" lon="10.5720745"><ele>107.16666666666667</ele><time>2026-03-29T09:03:18.708Z</time></trkpt><trkpt lat="45.3865033" lon="10.5721163"><ele>106.33333333333334</ele><time>2026-03-29T09:03:19.708Z</time></trkpt><trkpt lat="45.3865615" lon="10.5721548"><ele>105.5</ele><time>2026-03-29T09:03:20.708Z</time></trkpt><trkpt lat="45.3866444" lon="10.5722193"><ele>104.66666666666667</ele><time>2026-03-29T09:03:22.708Z</time></trkpt><trkpt lat="45.386679" lon="10.5723258"><ele>103.83333333333334</ele><time>2026-03-29T09:03:24.708Z</time></trkpt><trkpt lat="45.3866533" lon="10.5724492"><ele>103.0</ele><time>2026-03-29T09:03:26.708Z</time></trkpt><trkpt lat="45.3866089" lon="10.5725226"><ele>103.00000000000001</ele><time>2026-03-29T09:03:27.708Z</time></trkpt><trkpt lat="45.3865513" lon="10.5725901"><ele>103.0</ele><time>2026-03-29T09:03:28.708Z</time></trkpt><trkpt lat="45.3864881" lon="10.5726613"><ele>103.0</ele><time>2026-03-29T09:03:29.708Z</time></trkpt><trkpt lat="45.3864372" lon="10.5727388"><ele>103.0</ele><time>2026-03-29T09:03:30.708Z</time></trkpt><trkpt lat="45.3864013" lon="10.5728354"><ele>103.00000000000001</ele><time>2026-03-29T09:03:31.708Z</time></trkpt><trkpt lat="45.3863863" lon="10.5729395"><ele>103.0</ele><time>2026-03-29T09:03:32.708Z</time></trkpt><trkpt lat="45.3863911" lon="10.5730489"><ele>103.0</ele><time>2026-03-29T09:03:33.708Z</time></trkpt><trkpt lat="45.3864087" lon="10.5731697"><ele>103.0</ele><time>2026-03-29T09:03:34.708Z</time></trkpt><trkpt lat="45.3864299" lon="10.5733077"><ele>103.0</ele><time>2026-03-29T09:03:35.708Z</time></trkpt><trkpt lat="45.386451" lon="10.5734596"><ele>103.0</ele><time>2026-03-29T09:03:36.708Z</time></trkpt><trkpt lat="45.3864755" lon="10.5736244"><ele>103.0</ele><time>2026-03-29T09:03:37.708Z</time></trkpt><trkpt lat="45.3865004" lon="10.5737999"><ele>102.80000000000001</ele><time>2026-03-29T09:03:38.708Z</time></trkpt><trkpt lat="45.3865246" lon="10.5739574"><ele>102.6</ele><time>2026-03-29T09:03:39.708Z</time></trkpt><trkpt lat="45.3865453" lon="10.5741139"><ele>102.4</ele><time>2026-03-29T09:03:40.708Z</time></trkpt><trkpt lat="45.3865617" lon="10.5742672"><ele>102.19999999999999</ele><time>2026-03-29T09:03:41.708Z</time></trkpt><trkpt lat="45.3865686" lon="10.5744094"><ele>102.0</ele><time>2026-03-29T09:03:42.708Z</time></trkpt><trkpt lat="45.3865536" lon="10.5745349"><ele>101.8</ele><time>2026-03-29T09:03:43.708Z</time></trkpt><trkpt lat="45.3865196" lon="10.574653"><ele>101.6</ele><time>2026-03-29T09:03:44.708Z</time></trkpt><trkpt lat="45.3864674" lon="10.5747596"><ele>101.39999999999999</ele><time>2026-03-29T09:03:45.708Z</time></trkpt><trkpt lat="45.3864055" lon="10.5748616"><ele>101.19999999999999</ele><time>2026-03-29T09:03:46.708Z</time></trkpt><trkpt lat="45.3863397" lon="10.5749704"><ele>101.0</ele><time>2026-03-29T09:03:47.708Z</time></trkpt><trkpt lat="45.3862663" lon="10.5750651"><ele>102.0</ele><time>2026-03-29T09:03:48.708Z</time></trkpt><trkpt lat="45.3861877" lon="10.5751704"><ele>103.0</ele><time>2026-03-29T09:03:49.708Z</time></trkpt><trkpt lat="45.3861085" lon="10.5752937"><ele>104.0</ele><time>2026-03-29T09:03:50.708Z</time></trkpt><trkpt lat="45.3860394" lon="10.5754342"><ele>105.0</ele><time>2026-03-29T09:03:51.708Z</time></trkpt><trkpt lat="45.3859807" lon="10.5755795"><ele>105.0</ele><time>2026-03-29T09:03:52.708Z</time></trkpt><trkpt lat="45.3859281" lon="10.5757248"><ele>105.0</ele><time>2026-03-29T09:03:53.708Z</time></trkpt><trkpt lat="45.3858786" lon="10.575869"><ele>105.0</ele><time>2026-03-29T09:03:54.708Z</time></trkpt><trkpt lat="45.3858322" lon="10.5760144"><ele>105.0</ele><time>2026-03-29T09:03:55.708Z</time></trkpt><trkpt lat="45.3857922" lon="10.5761547"><ele>105.0</ele><time>2026-03-29T09:03:56.708Z</time></trkpt><trkpt lat="45.3857531" lon="10.576293"><ele>105.4</ele><time>2026-03-29T09:03:57.708Z</time></trkpt><trkpt lat="45.3857201" lon="10.5764183"><ele>105.8</ele><time>2026-03-29T09:03:58.708Z</time></trkpt><trkpt lat="45.3856918" lon="10.5765486"><ele>106.19999999999999</ele><time>2026-03-29T09:03:59.708Z</time></trkpt><trkpt lat="45.3856687" lon="10.5766812"><ele>106.6</ele><time>2026-03-29T09:04:00.708Z</time></trkpt><trkpt lat="45.38565" lon="10.5768137"><ele>107.0</ele><time>2026-03-29T09:04:01.708Z</time></trkpt><trkpt lat="45.3856272" lon="10.5769475"><ele>107.0</ele><time>2026-03-29T09:04:02.708Z</time></trkpt><trkpt lat="45.3856062" lon="10.577082"><ele>106.99999999999999</ele><time>2026-03-29T09:04:03.708Z</time></trkpt><trkpt lat="45.3855889" lon="10.5772131"><ele>106.99999999999999</ele><time>2026-03-29T09:04:04.708Z</time></trkpt><trkpt lat="45.3855695" lon="10.5773388"><ele>107.0</ele><time>2026-03-29T09:04:05.708Z</time></trkpt><trkpt lat="45.3855505" lon="10.5774689"><ele>107.0</ele><time>2026-03-29T09:04:06.708Z</time></trkpt><trkpt lat="45.3855328" lon="10.5776009"><ele>107.0</ele><time>2026-03-29T09:04:07.708Z</time></trkpt><trkpt lat="45.3855144" lon="10.5777385"><ele>106.99999999999999</ele><time>2026-03-29T09:04:08.708Z</time></trkpt><trkpt lat="45.3854941" lon="10.5778793"><ele>106.99999999999999</ele><time>2026-03-29T09:04:09.708Z</time></trkpt><trkpt lat="45.3854781" lon="10.5780121"><ele>107.0</ele><time>2026-03-29T09:04:10.708Z</time></trkpt><trkpt lat="45.385466" lon="10.5781332"><ele>107.0</ele><time>2026-03-29T09:04:11.708Z</time></trkpt><trkpt lat="45.3854515" lon="10.5782436"><ele>106.8</ele><time>2026-03-29T09:04:12.709Z</time></trkpt><trkpt lat="45.3854394" lon="10.5783353"><ele>106.6</ele><time>2026-03-29T09:04:13.709Z</time></trkpt><trkpt lat="45.3854172" lon="10.5784814"><ele>106.39999999999999</ele><time>2026-03-29T09:04:15.708Z</time></trkpt><trkpt lat="45.3853835" lon="10.5785915"><ele>106.19999999999999</ele><time>2026-03-29T09:04:17.708Z</time></trkpt><trkpt lat="45.3853072" lon="10.5786176"><ele>106.0</ele><time>2026-03-29T09:04:19.708Z</time></trkpt><trkpt lat="45.3851636" lon="10.578557"><ele>106.0</ele><time>2026-03-29T09:04:21.708Z</time></trkpt><trkpt lat="45.3850704" lon="10.5785156"><ele>106.0</ele><time>2026-03-29T09:04:22.708Z</time></trkpt><trkpt lat="45.3849677" lon="10.5784699"><ele>106.0</ele><time>2026-03-29T09:04:23.708Z</time></trkpt><trkpt lat="45.3848576" lon="10.5784169"><ele>106.0</ele><time>2026-03-29T09:04:24.708Z</time></trkpt><trkpt lat="45.3847423" lon="10.5783632"><ele>106.0</ele><time>2026-03-29T09:04:25.708Z</time></trkpt><trkpt lat="45.3846272" lon="10.5783149"><ele>106.19999999999999</ele><time>2026-03-29T09:04:26.709Z</time></trkpt><trkpt lat="45.3845245" lon="10.5782704"><ele>106.39999999999999</ele><time>2026-03-29T09:04:27.708Z</time></trkpt><trkpt lat="45.384431" lon="10.5782322"><ele>106.6</ele><time>2026-03-29T09:04:28.708Z</time></trkpt><trkpt lat="45.3843427" lon="10.5782163"><ele>106.8</ele><time>2026-03-29T09:04:29.708Z</time></trkpt><trkpt lat="45.3842584" lon="10.5782308"><ele>107.0</ele><time>2026-03-29T09:04:30.708Z</time></trkpt><trkpt lat="45.3841732" lon="10.5782611"><ele>107.0</ele><time>2026-03-29T09:04:31.708Z</time></trkpt><trkpt lat="45.384082" lon="10.5782726"><ele>106.99999999999999</ele><time>2026-03-29T09:04:32.708Z</time></trkpt><trkpt lat="45.3839853" lon="10.5782549"><ele>106.99999999999999</ele><time>2026-03-29T09:04:33.708Z</time></trkpt><trkpt lat="45.3838849" lon="10.5782376"><ele>107.0</ele><time>2026-03-29T09:04:34.708Z</time></trkpt><trkpt lat="45.3837855" lon="10.5782299"><ele>107.0</ele><time>2026-03-29T09:04:35.708Z</time></trkpt><trkpt lat="45.3837016" lon="10.5781868"><ele>107.5</ele><time>2026-03-29T09:04:36.708Z</time></trkpt><trkpt lat="45.3836229" lon="10.5780903"><ele>108.0</ele><time>2026-03-29T09:04:37.708Z</time></trkpt><trkpt lat="45.3835395" lon="10.5779831"><ele>108.5</ele><time>2026-03-29T09:04:38.708Z</time></trkpt><trkpt lat="45.3834325" lon="10.5778828"><ele>109.0</ele><time>2026-03-29T09:04:39.708Z</time></trkpt><trkpt lat="45.3833112" lon="10.5777841"><ele>109.0</ele><time>2026-03-29T09:04:40.708Z</time></trkpt><trkpt lat="45.3831813" lon="10.577686"><ele>109.0</ele><time>2026-03-29T09:04:41.708Z</time></trkpt><trkpt lat="45.3830422" lon="10.5775939"><ele>109.0</ele><time>2026-03-29T09:04:42.708Z</time></trkpt><trkpt lat="45.3828934" lon="10.5775242"><ele>110.5</ele><time>2026-03-29T09:04:43.708Z</time></trkpt><trkpt lat="45.3827404" lon="10.5774845"><ele>112.0</ele><time>2026-03-29T09:04:44.708Z</time></trkpt><trkpt lat="45.3825919" lon="10.5774753"><ele>113.5</ele><time>2026-03-29T09:04:45.709Z</time></trkpt><trkpt lat="45.3824575" lon="10.5774799"><ele>115.0</ele><time>2026-03-29T09:04:46.708Z</time></trkpt><trkpt lat="45.3823263" lon="10.5774834"><ele>115.0</ele><time>2026-03-29T09:04:47.708Z</time></trkpt><trkpt lat="45.3821923" lon="10.5774963"><ele>115.0</ele><time>2026-03-29T09:04:48.708Z</time></trkpt><trkpt lat="45.3820554" lon="10.5775126"><ele>115.0</ele><time>2026-03-29T09:04:49.708Z</time></trkpt><trkpt lat="45.3819186" lon="10.577527"><ele>115.0</ele><time>2026-03-29T09:04:50.708Z</time></trkpt><trkpt lat="45.3817845" lon="10.5775284"><ele>115.0</ele><time>2026-03-29T09:04:51.708Z</time></trkpt><trkpt lat="45.3816506" lon="10.5775303"><ele>115.0</ele><time>2026-03-29T09:04:52.708Z</time></trkpt><trkpt lat="45.3815173" lon="10.5775298"><ele>115.0</ele><time>2026-03-29T09:04:53.708Z</time></trkpt><trkpt lat="45.3813829" lon="10.5775247"><ele>115.0</ele><time>2026-03-29T09:04:54.708Z</time></trkpt><trkpt lat="45.3812472" lon="10.5775212"><ele>113.0</ele><time>2026-03-29T09:04:55.708Z</time></trkpt><trkpt lat="45.3811105" lon="10.5775048"><ele>111.0</ele><time>2026-03-29T09:04:56.708Z</time></trkpt><trkpt lat="45.3809759" lon="10.5774657"><ele>109.0</ele><time>2026-03-29T09:04:57.708Z</time></trkpt><trkpt lat="45.3808484" lon="10.5774042"><ele>107.0</ele><time>2026-03-29T09:04:58.708Z</time></trkpt><trkpt lat="45.3807608" lon="10.5773244"><ele>106.99999999999999</ele><time>2026-03-29T09:04:59.708Z</time></trkpt><trkpt lat="45.3807221" lon="10.5772291"><ele>107.0</ele><time>2026-03-29T09:05:00.708Z</time></trkpt><trkpt lat="45.3807104" lon="10.5771105"><ele>107.0</ele><time>2026-03-29T09:05:01.708Z</time></trkpt><trkpt lat="45.3807126" lon="10.5769841"><ele>107.0</ele><time>2026-03-29T09:05:02.708Z</time></trkpt><trkpt lat="45.3806911" lon="10.5768601"><ele>106.99999999999999</ele><time>2026-03-29T09:05:03.708Z</time></trkpt><trkpt lat="45.3806299" lon="10.5767456"><ele>107.0</ele><time>2026-03-29T09:05:04.708Z</time></trkpt><trkpt lat="45.3805456" lon="10.5766519"><ele>106.0</ele><time>2026-03-29T09:05:05.708Z</time></trkpt><trkpt lat="45.3804467" lon="10.5765761"><ele>105.0</ele><time>2026-03-29T09:05:06.708Z</time></trkpt><trkpt lat="45.3803369" lon="10.5765146"><ele>104.0</ele><time>2026-03-29T09:05:07.708Z</time></trkpt><trkpt lat="45.3802131" lon="10.5764861"><ele>103.0</ele><time>2026-03-29T09:05:08.708Z</time></trkpt><trkpt lat="45.3800871" lon="10.5764733"><ele>103.0</ele><time>2026-03-29T09:05:09.708Z</time></trkpt><trkpt lat="45.3799722" lon="10.5764218"><ele>103.0</ele><time>2026-03-29T09:05:10.708Z</time></trkpt><trkpt lat="45.3798674" lon="10.5763448"><ele>103.0</ele><time>2026-03-29T09:05:11.708Z</time></trkpt><trkpt lat="45.3797596" lon="10.5762874"><ele>103.0</ele><time>2026-03-29T09:05:12.708Z</time></trkpt><trkpt lat="45.3796408" lon="10.5762599"><ele>103.25</ele><time>2026-03-29T09:05:13.708Z</time></trkpt><trkpt lat="45.3795123" lon="10.5762671"><ele>103.5</ele><time>2026-03-29T09:05:14.708Z</time></trkpt><trkpt lat="45.3793754" lon="10.5762904"><ele>103.75</ele><time>2026-03-29T09:05:15.708Z</time></trkpt><trkpt lat="45.3792298" lon="10.5763083"><ele>104.0</ele><time>2026-03-29T09:05:16.708Z</time></trkpt><trkpt lat="45.3790825" lon="10.5763273"><ele>104.0</ele><time>2026-03-29T09:05:17.709Z</time></trkpt><trkpt lat="45.3789629" lon="10.5763142"><ele>104.0</ele><time>2026-03-29T09:05:18.708Z</time></trkpt><trkpt lat="45.3788798" lon="10.5762458"><ele>104.0</ele><time>2026-03-29T09:05:19.709Z</time></trkpt><trkpt lat="45.3788352" lon="10.5761468"><ele>104.0</ele><time>2026-03-29T09:05:20.708Z</time></trkpt><trkpt lat="45.3788184" lon="10.5760074"><ele>104.0</ele><time>2026-03-29T09:05:21.708Z</time></trkpt><trkpt lat="45.3788065" lon="10.5758484"><ele>104.4</ele><time>2026-03-29T09:05:22.708Z</time></trkpt><trkpt lat="45.3787752" lon="10.5757061"><ele>104.80000000000001</ele><time>2026-03-29T09:05:23.708Z</time></trkpt><trkpt lat="45.3787172" lon="10.5756135"><ele>105.19999999999999</ele><time>2026-03-29T09:05:24.708Z</time></trkpt><trkpt lat="45.3786317" lon="10.5755697"><ele>105.6</ele><time>2026-03-29T09:05:25.708Z</time></trkpt><trkpt lat="45.3785273" lon="10.575577"><ele>106.0</ele><time>2026-03-29T09:05:26.708Z</time></trkpt><trkpt lat="45.3784052" lon="10.5755937"><ele>106.0</ele><time>2026-03-29T09:05:27.708Z</time></trkpt><trkpt lat="45.3782631" lon="10.5756015"><ele>106.0</ele><time>2026-03-29T09:05:28.708Z</time></trkpt><trkpt lat="45.3781053" lon="10.5756192"><ele>106.0</ele><time>2026-03-29T09:05:29.708Z</time></trkpt><trkpt lat="45.3779386" lon="10.5756358"><ele>105.66666666666667</ele><time>2026-03-29T09:05:30.708Z</time></trkpt><trkpt lat="45.3777594" lon="10.5756499"><ele>105.33333333333334</ele><time>2026-03-29T09:05:31.708Z</time></trkpt><trkpt lat="45.3775708" lon="10.5756647"><ele>105.0</ele><time>2026-03-29T09:05:32.708Z</time></trkpt><trkpt lat="45.3773843" lon="10.5756811"><ele>105.0</ele><time>2026-03-29T09:05:33.708Z</time></trkpt><trkpt lat="45.3772119" lon="10.5756957"><ele>105.0</ele><time>2026-03-29T09:05:34.708Z</time></trkpt><trkpt lat="45.3770449" lon="10.5757016"><ele>105.0</ele><time>2026-03-29T09:05:35.708Z</time></trkpt><trkpt lat="45.3768723" lon="10.5756784"><ele>106.66666666666666</ele><time>2026-03-29T09:05:36.708Z</time></trkpt><trkpt lat="45.3767008" lon="10.5756137"><ele>108.33333333333333</ele><time>2026-03-29T09:05:37.708Z</time></trkpt><trkpt lat="45.3765273" lon="10.5755164"><ele>110.0</ele><time>2026-03-29T09:05:38.708Z</time></trkpt><trkpt lat="45.3763486" lon="10.5754177"><ele>110.33333333333333</ele><time>2026-03-29T09:05:39.708Z</time></trkpt><trkpt lat="45.3761652" lon="10.575321"><ele>110.66666666666666</ele><time>2026-03-29T09:05:40.708Z</time></trkpt><trkpt lat="45.3759855" lon="10.5752271"><ele>111.0</ele><time>2026-03-29T09:05:41.708Z</time></trkpt><trkpt lat="45.3758178" lon="10.5751392"><ele>111.0</ele><time>2026-03-29T09:05:42.708Z</time></trkpt><trkpt lat="45.3756628" lon="10.5750498"><ele>111.0</ele><time>2026-03-29T09:05:43.708Z</time></trkpt><trkpt lat="45.3755384" lon="10.5749664"><ele>111.0</ele><time>2026-03-29T09:05:44.708Z</time></trkpt><trkpt lat="45.375463" lon="10.5748993"><ele>111.0</ele><time>2026-03-29T09:05:45.708Z</time></trkpt><trkpt lat="45.3753825" lon="10.574842"><ele>111.16666666666667</ele><time>2026-03-29T09:05:47.708Z</time></trkpt><trkpt lat="45.3753291" lon="10.5748954"><ele>111.33333333333334</ele><time>2026-03-29T09:05:49.708Z</time></trkpt><trkpt lat="45.3753035" lon="10.5750361"><ele>111.5</ele><time>2026-03-29T09:05:51.708Z</time></trkpt><trkpt lat="45.3752964" lon="10.5751367"><ele>111.66666666666667</ele><time>2026-03-29T09:05:52.708Z</time></trkpt><trkpt lat="45.3752847" lon="10.575264"><ele>111.83333333333334</ele><time>2026-03-29T09:05:53.708Z</time></trkpt><trkpt lat="45.3752662" lon="10.5754285"><ele>112.0</ele><time>2026-03-29T09:05:54.709Z</time></trkpt><trkpt lat="45.3752466" lon="10.5756248"><ele>112.0</ele><time>2026-03-29T09:05:55.708Z</time></trkpt><trkpt lat="45.3752223" lon="10.575833"><ele>112.0</ele><time>2026-03-29T09:05:56.708Z</time></trkpt><trkpt lat="45.3752028" lon="10.57605"><ele>112.0</ele><time>2026-03-29T09:05:57.708Z</time></trkpt><trkpt lat="45.3751802" lon="10.5762831"><ele>111.33333333333334</ele><time>2026-03-29T09:05:58.708Z</time></trkpt><trkpt lat="45.3751583" lon="10.5765199"><ele>110.66666666666666</ele><time>2026-03-29T09:05:59.708Z</time></trkpt><trkpt lat="45.3751335" lon="10.5767776"><ele>110.0</ele><time>2026-03-29T09:06:00.708Z</time></trkpt><trkpt lat="45.375109" lon="10.5770373"><ele>110.0</ele><time>2026-03-29T09:06:01.708Z</time></trkpt><trkpt lat="45.37509" lon="10.5772909"><ele>110.0</ele><time>2026-03-29T09:06:02.708Z</time></trkpt><trkpt lat="45.3750705" lon="10.5775366"><ele>110.0</ele><time>2026-03-29T09:06:03.708Z</time></trkpt><trkpt lat="45.3750515" lon="10.5777642"><ele>109.5</ele><time>2026-03-29T09:06:04.708Z</time></trkpt><trkpt lat="45.3750322" lon="10.5779812"><ele>109.0</ele><time>2026-03-29T09:06:05.708Z</time></trkpt><trkpt lat="45.3750266" lon="10.5781606"><ele>108.5</ele><time>2026-03-29T09:06:06.708Z</time></trkpt><trkpt lat="45.3750084" lon="10.5783341"><ele>108.0</ele><time>2026-03-29T09:06:07.708Z</time></trkpt><trkpt lat="45.374993" lon="10.578488"><ele>108.0</ele><time>2026-03-29T09:06:08.708Z</time></trkpt><trkpt lat="45.3749772" lon="10.5786095"><ele>108.00000000000001</ele><time>2026-03-29T09:06:09.708Z</time></trkpt><trkpt lat="45.3749226" lon="10.5787317"><ele>108.00000000000001</ele><time>2026-03-29T09:06:11.708Z</time></trkpt><trkpt lat="45.3748374" lon="10.5787857"><ele>108.0</ele><time>2026-03-29T09:06:13.708Z</time></trkpt><trkpt lat="45.3747615" lon="10.578785"><ele>108.0</ele><time>2026-03-29T09:06:14.708Z</time></trkpt><trkpt lat="45.3746629" lon="10.5787715"><ele>109.75</ele><time>2026-03-29T09:06:15.708Z</time></trkpt><trkpt lat="45.3745544" lon="10.5787625"><ele>111.5</ele><time>2026-03-29T09:06:16.708Z</time></trkpt><trkpt lat="45.3744282" lon="10.5787625"><ele>113.25</ele><time>2026-03-29T09:06:17.708Z</time></trkpt><trkpt lat="45.3742834" lon="10.578768"><ele>115.0</ele><time>2026-03-29T09:06:18.708Z</time></trkpt><trkpt lat="45.3741249" lon="10.578777"><ele>115.0</ele><time>2026-03-29T09:06:19.708Z</time></trkpt><trkpt lat="45.3739645" lon="10.5787921"><ele>115.0</ele><time>2026-03-29T09:06:20.708Z</time></trkpt><trkpt lat="45.3738011" lon="10.5788074"><ele>115.0</ele><time>2026-03-29T09:06:21.708Z</time></trkpt><trkpt lat="45.3736567" lon="10.578819"><ele>115.2</ele><time>2026-03-29T09:06:22.708Z</time></trkpt><trkpt lat="45.3735282" lon="10.5788263"><ele>115.4</ele><time>2026-03-29T09:06:23.708Z</time></trkpt><trkpt lat="45.3734207" lon="10.5788376"><ele>115.6</ele><time>2026-03-29T09:06:24.708Z</time></trkpt><trkpt lat="45.3733305" lon="10.5788597"><ele>115.8</ele><time>2026-03-29T09:06:25.708Z</time></trkpt><trkpt lat="45.373259" lon="10.5788805"><ele>116.0</ele><time>2026-03-29T09:06:26.708Z</time></trkpt><trkpt lat="45.3731426" lon="10.5788723"><ele>116.0</ele><time>2026-03-29T09:06:28.708Z</time></trkpt><trkpt lat="45.3730279" lon="10.5788665"><ele>116.0</ele><time>2026-03-29T09:06:30.708Z</time></trkpt><trkpt lat="45.3729093" lon="10.5788886"><ele>116.0</ele><time>2026-03-29T09:06:32.708Z</time></trkpt><trkpt lat="45.3728028" lon="10.5789232"><ele>116.0</ele><time>2026-03-29T09:06:34.708Z</time></trkpt><trkpt lat="45.3727278" lon="10.5789733"><ele>116.0</ele><time>2026-03-29T09:06:37.708Z</time></trkpt><trkpt lat="45.3726876" lon="10.5790751"><ele>115.6</ele><time>2026-03-29T09:06:40.708Z</time></trkpt><trkpt lat="45.3726471" lon="10.5792565"><ele>115.19999999999999</ele><time>2026-03-29T09:06:42.708Z</time></trkpt><trkpt lat="45.3726167" lon="10.5793864"><ele>114.80000000000001</ele><time>2026-03-29T09:06:43.708Z</time></trkpt><trkpt lat="45.3725775" lon="10.5795073"><ele>114.4</ele><time>2026-03-29T09:06:44.708Z</time></trkpt><trkpt lat="45.3725459" lon="10.5796228"><ele>114.0</ele><time>2026-03-29T09:06:45.708Z</time></trkpt><trkpt lat="45.3725295" lon="10.5797308"><ele>113.83333333333333</ele><time>2026-03-29T09:06:46.708Z</time></trkpt><trkpt lat="45.3725442" lon="10.5798554"><ele>113.66666666666666</ele><time>2026-03-29T09:06:48.708Z</time></trkpt><trkpt lat="45.3725747" lon="10.5799491"><ele>113.5</ele><time>2026-03-29T09:06:51.708Z</time></trkpt><trkpt lat="45.372668" lon="10.5800543"><ele>113.33333333333333</ele><time>2026-03-29T09:06:53.708Z</time></trkpt><trkpt lat="45.3727395" lon="10.5800941"><ele>113.16666666666666</ele><time>2026-03-29T09:06:54.708Z</time></trkpt><trkpt lat="45.3728275" lon="10.5801295"><ele>113.0</ele><time>2026-03-29T09:06:55.708Z</time></trkpt><trkpt lat="45.3729262" lon="10.5801742"><ele>113.0</ele><time>2026-03-29T09:06:56.708Z</time></trkpt><trkpt lat="45.3730349" lon="10.5802306"><ele>113.0</ele><time>2026-03-29T09:06:57.708Z</time></trkpt><trkpt lat="45.3731513" lon="10.5803058"><ele>113.0</ele><time>2026-03-29T09:06:58.708Z</time></trkpt><trkpt lat="45.3732781" lon="10.5803983"><ele>113.0</ele><time>2026-03-29T09:06:59.708Z</time></trkpt><trkpt lat="45.3734038" lon="10.5804979"><ele>112.66666666666666</ele><time>2026-03-29T09:07:00.708Z</time></trkpt><trkpt lat="45.373536" lon="10.5806088"><ele>112.33333333333334</ele><time>2026-03-29T09:07:01.708Z</time></trkpt><trkpt lat="45.3736667" lon="10.5807331"><ele>112.0</ele><time>2026-03-29T09:07:02.708Z</time></trkpt><trkpt lat="45.3738008" lon="10.5808793"><ele>111.66666666666667</ele><time>2026-03-29T09:07:03.708Z</time></trkpt><trkpt lat="45.3739339" lon="10.5810417"><ele>111.33333333333334</ele><time>2026-03-29T09:07:04.708Z</time></trkpt><trkpt lat="45.3740627" lon="10.5812064"><ele>111.0</ele><time>2026-03-29T09:07:05.708Z</time></trkpt><trkpt lat="45.3741894" lon="10.581367"><ele>111.66666666666666</ele><time>2026-03-29T09:07:06.708Z</time></trkpt><trkpt lat="45.3743176" lon="10.5815254"><ele>112.33333333333333</ele><time>2026-03-29T09:07:07.708Z</time></trkpt><trkpt lat="45.3744482" lon="10.5816913"><ele>113.0</ele><time>2026-03-29T09:07:08.708Z</time></trkpt><trkpt lat="45.3745796" lon="10.5818664"><ele>112.33333333333333</ele><time>2026-03-29T09:07:09.708Z</time></trkpt><trkpt lat="45.3747154" lon="10.5820421"><ele>111.66666666666666</ele><time>2026-03-29T09:07:10.708Z</time></trkpt><trkpt lat="45.3748553" lon="10.5822203"><ele>111.0</ele><time>2026-03-29T09:07:11.708Z</time></trkpt><trkpt lat="45.3749999" lon="10.5824076"><ele>111.0</ele><time>2026-03-29T09:07:12.708Z</time></trkpt><trkpt lat="45.3751435" lon="10.5825941"><ele>111.0</ele><time>2026-03-29T09:07:13.708Z</time></trkpt><trkpt lat="45.3752926" lon="10.5827814"><ele>111.0</ele><time>2026-03-29T09:07:14.708Z</time></trkpt><trkpt lat="45.3754442" lon="10.5829672"><ele>111.0</ele><time>2026-03-29T09:07:15.708Z</time></trkpt><trkpt lat="45.3755965" lon="10.5831457"><ele>111.0</ele><time>2026-03-29T09:07:16.708Z</time></trkpt><trkpt lat="45.3757515" lon="10.5833139"><ele>111.0</ele><time>2026-03-29T09:07:17.708Z</time></trkpt><trkpt lat="45.375907" lon="10.5834766"><ele>111.0</ele><time>2026-03-29T09:07:18.708Z</time></trkpt><trkpt lat="45.3760596" lon="10.5836376"><ele>111.0</ele><time>2026-03-29T09:07:19.708Z</time></trkpt><trkpt lat="45.3762107" lon="10.5837981"><ele>111.0</ele><time>2026-03-29T09:07:20.708Z</time></trkpt><trkpt lat="45.3763592" lon="10.583958"><ele>111.0</ele><time>2026-03-29T09:07:21.708Z</time></trkpt><trkpt lat="45.3765087" lon="10.5841178"><ele>111.0</ele><time>2026-03-29T09:07:22.708Z</time></trkpt><trkpt lat="45.3766585" lon="10.584279"><ele>111.0</ele><time>2026-03-29T09:07:23.708Z</time></trkpt><trkpt lat="45.3768048" lon="10.584448"><ele>111.33333333333334</ele><time>2026-03-29T09:07:24.708Z</time></trkpt><trkpt lat="45.3769482" lon="10.5846264"><ele>111.66666666666667</ele><time>2026-03-29T09:07:25.708Z</time></trkpt><trkpt lat="45.3770877" lon="10.5848132"><ele>112.0</ele><time>2026-03-29T09:07:26.708Z</time></trkpt><trkpt lat="45.3772231" lon="10.5850052"><ele>112.0</ele><time>2026-03-29T09:07:27.708Z</time></trkpt><trkpt lat="45.3773535" lon="10.5852044"><ele>112.0</ele><time>2026-03-29T09:07:28.708Z</time></trkpt><trkpt lat="45.3774806" lon="10.5854066"><ele>112.0</ele><time>2026-03-29T09:07:29.708Z</time></trkpt><trkpt lat="45.377605" lon="10.5856123"><ele>112.33333333333334</ele><time>2026-03-29T09:07:30.708Z</time></trkpt><trkpt lat="45.377728" lon="10.5858185"><ele>112.66666666666666</ele><time>2026-03-29T09:07:31.708Z</time></trkpt><trkpt lat="45.3778529" lon="10.5860205"><ele>113.0</ele><time>2026-03-29T09:07:32.708Z</time></trkpt><trkpt lat="45.3779773" lon="10.5862201"><ele>114.33333333333333</ele><time>2026-03-29T09:07:33.708Z</time></trkpt><trkpt lat="45.3780994" lon="10.586421"><ele>115.66666666666666</ele><time>2026-03-29T09:07:34.708Z</time></trkpt><trkpt lat="45.3782138" lon="10.586634"><ele>117.0</ele><time>2026-03-29T09:07:35.708Z</time></trkpt><trkpt lat="45.3783124" lon="10.5868624"><ele>118.0</ele><time>2026-03-29T09:07:36.708Z</time></trkpt><trkpt lat="45.3783986" lon="10.5870984"><ele>119.0</ele><time>2026-03-29T09:07:37.708Z</time></trkpt><trkpt lat="45.3784828" lon="10.587336"><ele>120.0</ele><time>2026-03-29T09:07:38.709Z</time></trkpt><trkpt lat="45.3785658" lon="10.5875681"><ele>120.0</ele><time>2026-03-29T09:07:39.708Z</time></trkpt><trkpt lat="45.3786391" lon="10.5877834"><ele>120.0</ele><time>2026-03-29T09:07:40.708Z</time></trkpt><trkpt lat="45.3786989" lon="10.5879848"><ele>120.0</ele><time>2026-03-29T09:07:41.708Z</time></trkpt><trkpt lat="45.3787474" lon="10.5881876"><ele>120.5</ele><time>2026-03-29T09:07:42.708Z</time></trkpt><trkpt lat="45.3787773" lon="10.5883834"><ele>121.0</ele><time>2026-03-29T09:07:43.708Z</time></trkpt><trkpt lat="45.3787893" lon="10.5885814"><ele>121.5</ele><time>2026-03-29T09:07:44.708Z</time></trkpt><trkpt lat="45.3787878" lon="10.5887825"><ele>122.0</ele><time>2026-03-29T09:07:45.708Z</time></trkpt><trkpt lat="45.3787811" lon="10.5889845"><ele>123.0</ele><time>2026-03-29T09:07:46.708Z</time></trkpt><trkpt lat="45.3787686" lon="10.5891877"><ele>124.0</ele><time>2026-03-29T09:07:47.708Z</time></trkpt><trkpt lat="45.3787512" lon="10.5894116"><ele>125.0</ele><time>2026-03-29T09:07:48.708Z</time></trkpt><trkpt lat="45.378726" lon="10.5896615"><ele>126.0</ele><time>2026-03-29T09:07:49.708Z</time></trkpt><trkpt lat="45.3786945" lon="10.5899247"><ele>127.0</ele><time>2026-03-29T09:07:50.708Z</time></trkpt><trkpt lat="45.3786679" lon="10.5901895"><ele>128.0</ele><time>2026-03-29T09:07:51.708Z</time></trkpt><trkpt lat="45.3786675" lon="10.5904611"><ele>129.0</ele><time>2026-03-29T09:07:52.708Z</time></trkpt><trkpt lat="45.3787009" lon="10.5907394"><ele>130.0</ele><time>2026-03-29T09:07:53.708Z</time></trkpt><trkpt lat="45.3787599" lon="10.5910122"><ele>131.0</ele><time>2026-03-29T09:07:54.708Z</time></trkpt><trkpt lat="45.3788405" lon="10.5912757"><ele>132.66666666666666</ele><time>2026-03-29T09:07:55.708Z</time></trkpt><trkpt lat="45.3789364" lon="10.5915307"><ele>134.33333333333334</ele><time>2026-03-29T09:07:56.708Z</time></trkpt><trkpt lat="45.3790418" lon="10.5917761"><ele>136.0</ele><time>2026-03-29T09:07:57.708Z</time></trkpt><trkpt lat="45.3791472" lon="10.5920156"><ele>136.33333333333334</ele><time>2026-03-29T09:07:58.708Z</time></trkpt><trkpt lat="45.3792413" lon="10.5922588"><ele>136.66666666666666</ele><time>2026-03-29T09:07:59.708Z</time></trkpt><trkpt lat="45.3793257" lon="10.5925067"><ele>137.0</ele><time>2026-03-29T09:08:00.708Z</time></trkpt><trkpt lat="45.3793948" lon="10.5927566"><ele>137.33333333333331</ele><time>2026-03-29T09:08:01.708Z</time></trkpt><trkpt lat="45.3794458" lon="10.5930094"><ele>137.66666666666666</ele><time>2026-03-29T09:08:02.708Z</time></trkpt><trkpt lat="45.3794755" lon="10.5932635"><ele>138.0</ele><time>2026-03-29T09:08:03.708Z</time></trkpt><trkpt lat="45.3794891" lon="10.5935255"><ele>138.0</ele><time>2026-03-29T09:08:04.708Z</time></trkpt><trkpt lat="45.3794987" lon="10.5937935"><ele>138.0</ele><time>2026-03-29T09:08:05.708Z</time></trkpt><trkpt lat="45.379508" lon="10.5940594"><ele>138.0</ele><time>2026-03-29T09:08:06.708Z</time></trkpt><trkpt lat="45.3795106" lon="10.5943241"><ele>138.0</ele><time>2026-03-29T09:08:07.708Z</time></trkpt><trkpt lat="45.3795153" lon="10.5945728"><ele>138.0</ele><time>2026-03-29T09:08:08.708Z</time></trkpt><trkpt lat="45.3795206" lon="10.5948199"><ele>138.0</ele><time>2026-03-29T09:08:09.708Z</time></trkpt><trkpt lat="45.3795335" lon="10.5950702"><ele>138.0</ele><time>2026-03-29T09:08:10.708Z</time></trkpt><trkpt lat="45.3795635" lon="10.5953135"><ele>138.0</ele><time>2026-03-29T09:08:11.708Z</time></trkpt><trkpt lat="45.3796143" lon="10.595551"><ele>138.0</ele><time>2026-03-29T09:08:12.708Z</time></trkpt><trkpt lat="45.3796771" lon="10.5957874"><ele>137.33333333333334</ele><time>2026-03-29T09:08:13.708Z</time></trkpt><trkpt lat="45.3797382" lon="10.5960341"><ele>136.66666666666669</ele><time>2026-03-29T09:08:14.708Z</time></trkpt><trkpt lat="45.3798019" lon="10.5962855"><ele>136.0</ele><time>2026-03-29T09:08:15.708Z</time></trkpt><trkpt lat="45.3798721" lon="10.5965388"><ele>136.0</ele><time>2026-03-29T09:08:16.708Z</time></trkpt><trkpt lat="45.3799399" lon="10.596798"><ele>136.0</ele><time>2026-03-29T09:08:17.708Z</time></trkpt><trkpt lat="45.3800077" lon="10.5970622"><ele>136.0</ele><time>2026-03-29T09:08:18.708Z</time></trkpt><trkpt lat="45.3800777" lon="10.5973265"><ele>136.0</ele><time>2026-03-29T09:08:19.708Z</time></trkpt><trkpt lat="45.3801526" lon="10.5975932"><ele>136.0</ele><time>2026-03-29T09:08:20.708Z</time></trkpt><trkpt lat="45.380224" lon="10.5978665"><ele>136.0</ele><time>2026-03-29T09:08:21.708Z</time></trkpt><trkpt lat="45.3802954" lon="10.5981435"><ele>136.33333333333334</ele><time>2026-03-29T09:08:22.708Z</time></trkpt><trkpt lat="45.3803662" lon="10.598409"><ele>136.66666666666666</ele><time>2026-03-29T09:08:23.708Z</time></trkpt><trkpt lat="45.380434" lon="10.5986572"><ele>137.0</ele><time>2026-03-29T09:08:24.708Z</time></trkpt><trkpt lat="45.3804995" lon="10.5988893"><ele>135.66666666666666</ele><time>2026-03-29T09:08:25.708Z</time></trkpt><trkpt lat="45.3805656" lon="10.5991039"><ele>134.33333333333334</ele><time>2026-03-29T09:08:26.708Z</time></trkpt><trkpt lat="45.3806353" lon="10.5993021"><ele>133.0</ele><time>2026-03-29T09:08:27.709Z</time></trkpt><trkpt lat="45.3807169" lon="10.5994831"><ele>133.0</ele><time>2026-03-29T09:08:28.708Z</time></trkpt><trkpt lat="45.3808101" lon="10.599651"><ele>133.0</ele><time>2026-03-29T09:08:29.708Z</time></trkpt><trkpt lat="45.3809141" lon="10.5998088"><ele>133.0</ele><time>2026-03-29T09:08:30.708Z</time></trkpt><trkpt lat="45.3810204" lon="10.5999544"><ele>133.0</ele><time>2026-03-29T09:08:31.708Z</time></trkpt><trkpt lat="45.3811272" lon="10.6000744"><ele>133.0</ele><time>2026-03-29T09:08:32.708Z</time></trkpt><trkpt lat="45.3812278" lon="10.6001715"><ele>133.0</ele><time>2026-03-29T09:08:33.708Z</time></trkpt><trkpt lat="45.3813133" lon="10.6002483"><ele>133.0</ele><time>2026-03-29T09:08:34.708Z</time></trkpt><trkpt lat="45.3813657" lon="10.6003118"><ele>133.0</ele><time>2026-03-29T09:08:35.708Z</time></trkpt><trkpt lat="45.3813377" lon="10.6004268"><ele>133.0</ele><time>2026-03-29T09:08:38.708Z</time></trkpt><trkpt lat="45.3812304" lon="10.6004444"><ele>133.0</ele><time>2026-03-29T09:08:40.708Z</time></trkpt><trkpt lat="45.3811481" lon="10.6004544"><ele>133.0</ele><time>2026-03-29T09:08:41.708Z</time></trkpt><trkpt lat="45.3810582" lon="10.60047"><ele>133.0</ele><time>2026-03-29T09:08:42.708Z</time></trkpt><trkpt lat="45.3809576" lon="10.600487"><ele>133.0</ele><time>2026-03-29T09:08:43.708Z</time></trkpt><trkpt lat="45.3808519" lon="10.6005057"><ele>133.0</ele><time>2026-03-29T09:08:44.708Z</time></trkpt><trkpt lat="45.3807647" lon="10.6005245"><ele>133.0</ele><time>2026-03-29T09:08:45.708Z</time></trkpt><trkpt lat="45.3806933" lon="10.6005385"><ele>133.0</ele><time>2026-03-29T09:08:46.708Z</time></trkpt><trkpt lat="45.3806301" lon="10.6005476"><ele>133.0</ele><time>2026-03-29T09:08:47.708Z</time></trkpt><trkpt lat="45.3805386" lon="10.6005574"><ele>133.0</ele><time>2026-03-29T09:08:49.708Z</time></trkpt><trkpt lat="45.3804649" lon="10.6005327"><ele>133.0</ele><time>2026-03-29T09:08:53.708Z</time></trkpt><trkpt lat="45.3803812" lon="10.6005667"><ele>133.0</ele><time>2026-03-29T09:08:57.708Z</time></trkpt><trkpt lat="45.3802653" lon="10.6006131"><ele>133.0</ele><time>2026-03-29T09:08:59.708Z</time></trkpt><trkpt lat="45.3801699" lon="10.6006378"><ele>133.0</ele><time>2026-03-29T09:09:00.708Z</time></trkpt><trkpt lat="45.3800547" lon="10.6006601"><ele>133.0</ele><time>2026-03-29T09:09:01.708Z</time></trkpt><trkpt lat="45.3799232" lon="10.6006838"><ele>133.0</ele><time>2026-03-29T09:09:02.708Z</time></trkpt><trkpt lat="45.3797778" lon="10.6007112"><ele>133.0</ele><time>2026-03-29T09:09:03.708Z</time></trkpt><trkpt lat="45.3796221" lon="10.6007424"><ele>133.0</ele><time>2026-03-29T09:09:04.708Z</time></trkpt><trkpt lat="45.3794597" lon="10.6007726"><ele>133.66666666666669</ele><time>2026-03-29T09:09:05.708Z</time></trkpt><trkpt lat="45.3792893" lon="10.6008047"><ele>134.33333333333334</ele><time>2026-03-29T09:09:06.708Z</time></trkpt><trkpt lat="45.3791083" lon="10.6008344"><ele>135.0</ele><time>2026-03-29T09:09:07.708Z</time></trkpt><trkpt lat="45.3789177" lon="10.6008361"><ele>133.33333333333334</ele><time>2026-03-29T09:09:08.708Z</time></trkpt><trkpt lat="45.378723" lon="10.6008071"><ele>131.66666666666669</ele><time>2026-03-29T09:09:09.708Z</time></trkpt><trkpt lat="45.3785282" lon="10.6007673"><ele>130.0</ele><time>2026-03-29T09:09:10.708Z</time></trkpt><trkpt lat="45.3783415" lon="10.6007286"><ele>130.0</ele><time>2026-03-29T09:09:11.708Z</time></trkpt><trkpt lat="45.378159" lon="10.6006984"><ele>130.0</ele><time>2026-03-29T09:09:12.708Z</time></trkpt><trkpt lat="45.3779813" lon="10.6007013"><ele>130.0</ele><time>2026-03-29T09:09:13.708Z</time></trkpt><trkpt lat="45.3778184" lon="10.6007563"><ele>127.33333333333334</ele><time>2026-03-29T09:09:14.708Z</time></trkpt><trkpt lat="45.377664" lon="10.6008623"><ele>124.66666666666666</ele><time>2026-03-29T09:09:15.709Z</time></trkpt><trkpt lat="45.3775129" lon="10.6009987"><ele>122.0</ele><time>2026-03-29T09:09:16.708Z</time></trkpt><trkpt lat="45.3773607" lon="10.601131"><ele>121.66666666666666</ele><time>2026-03-29T09:09:17.708Z</time></trkpt><trkpt lat="45.3772123" lon="10.601249"><ele>121.33333333333334</ele><time>2026-03-29T09:09:18.708Z</time></trkpt><trkpt lat="45.3770663" lon="10.6013492"><ele>121.0</ele><time>2026-03-29T09:09:19.708Z</time></trkpt><trkpt lat="45.3769188" lon="10.6014294"><ele>120.5</ele><time>2026-03-29T09:09:20.708Z</time></trkpt><trkpt lat="45.3767665" lon="10.6014822"><ele>120.0</ele><time>2026-03-29T09:09:21.708Z</time></trkpt><trkpt lat="45.3766216" lon="10.601516"><ele>119.5</ele><time>2026-03-29T09:09:22.708Z</time></trkpt><trkpt lat="45.3764837" lon="10.6015476"><ele>119.0</ele><time>2026-03-29T09:09:23.708Z</time></trkpt><trkpt lat="45.3763542" lon="10.6015776"><ele>119.25</ele><time>2026-03-29T09:09:24.708Z</time></trkpt><trkpt lat="45.3762277" lon="10.6016029"><ele>119.5</ele><time>2026-03-29T09:09:25.708Z</time></trkpt><trkpt lat="45.3760983" lon="10.6016101"><ele>119.75</ele><time>2026-03-29T09:09:26.708Z</time></trkpt><trkpt lat="45.3759608" lon="10.6015921"><ele>120.0</ele><time>2026-03-29T09:09:27.708Z</time></trkpt><trkpt lat="45.3758166" lon="10.601572"><ele>120.0</ele><time>2026-03-29T09:09:28.708Z</time></trkpt><trkpt lat="45.3756673" lon="10.6015525"><ele>120.0</ele><time>2026-03-29T09:09:29.708Z</time></trkpt><trkpt lat="45.3755107" lon="10.601515"><ele>120.0</ele><time>2026-03-29T09:09:30.708Z</time></trkpt><trkpt lat="45.3753559" lon="10.6014438"><ele>118.66666666666666</ele><time>2026-03-29T09:09:31.708Z</time></trkpt><trkpt lat="45.3752056" lon="10.6013461"><ele>117.33333333333333</ele><time>2026-03-29T09:09:32.708Z</time></trkpt><trkpt lat="45.3750539" lon="10.6012335"><ele>116.0</ele><time>2026-03-29T09:09:33.708Z</time></trkpt><trkpt lat="45.3748966" lon="10.6011227"><ele>116.0</ele><time>2026-03-29T09:09:34.708Z</time></trkpt><trkpt lat="45.3747331" lon="10.601016"><ele>116.0</ele><time>2026-03-29T09:09:35.708Z</time></trkpt><trkpt lat="45.3745655" lon="10.6008987"><ele>116.0</ele><time>2026-03-29T09:09:36.708Z</time></trkpt><trkpt lat="45.3743971" lon="10.6007736"><ele>114.33333333333333</ele><time>2026-03-29T09:09:37.708Z</time></trkpt><trkpt lat="45.3742264" lon="10.6006459"><ele>112.66666666666666</ele><time>2026-03-29T09:09:38.709Z</time></trkpt><trkpt lat="45.3740589" lon="10.6005201"><ele>111.0</ele><time>2026-03-29T09:09:39.708Z</time></trkpt><trkpt lat="45.3739059" lon="10.6003966"><ele>111.33333333333334</ele><time>2026-03-29T09:09:40.708Z</time></trkpt><trkpt lat="45.373768" lon="10.6002745"><ele>111.66666666666667</ele><time>2026-03-29T09:09:41.708Z</time></trkpt><trkpt lat="45.373638" lon="10.6001538"><ele>112.0</ele><time>2026-03-29T09:09:42.708Z</time></trkpt><trkpt lat="45.3735175" lon="10.6000437"><ele>112.0</ele><time>2026-03-29T09:09:43.708Z</time></trkpt><trkpt lat="45.3734056" lon="10.5999393"><ele>112.0</ele><time>2026-03-29T09:09:44.708Z</time></trkpt><trkpt lat="45.3733046" lon="10.5998323"><ele>112.0</ele><time>2026-03-29T09:09:45.708Z</time></trkpt><trkpt lat="45.3732199" lon="10.5997075"><ele>112.0</ele><time>2026-03-29T09:09:46.708Z</time></trkpt><trkpt lat="45.3731534" lon="10.5995555"><ele>111.25</ele><time>2026-03-29T09:09:47.708Z</time></trkpt><trkpt lat="45.3731048" lon="10.5993814"><ele>110.5</ele><time>2026-03-29T09:09:48.708Z</time></trkpt><trkpt lat="45.3730695" lon="10.5991916"><ele>109.75</ele><time>2026-03-29T09:09:49.708Z</time></trkpt><trkpt lat="45.3730423" lon="10.5989823"><ele>109.0</ele><time>2026-03-29T09:09:50.708Z</time></trkpt><trkpt lat="45.373018" lon="10.5987576"><ele>108.66666666666667</ele><time>2026-03-29T09:09:51.708Z</time></trkpt><trkpt lat="45.3729839" lon="10.5985227"><ele>108.33333333333334</ele><time>2026-03-29T09:09:52.708Z</time></trkpt><trkpt lat="45.3729297" lon="10.5982811"><ele>108.0</ele><time>2026-03-29T09:09:53.708Z</time></trkpt><trkpt lat="45.3728556" lon="10.5980444"><ele>108.33333333333334</ele><time>2026-03-29T09:09:54.708Z</time></trkpt><trkpt lat="45.3727771" lon="10.5978058"><ele>108.66666666666667</ele><time>2026-03-29T09:09:55.708Z</time></trkpt><trkpt lat="45.3727023" lon="10.5975679"><ele>109.0</ele><time>2026-03-29T09:09:56.708Z</time></trkpt><trkpt lat="45.3726163" lon="10.597363"><ele>109.0</ele><time>2026-03-29T09:09:57.708Z</time></trkpt><trkpt lat="45.3725047" lon="10.5972007"><ele>109.0</ele><time>2026-03-29T09:09:58.708Z</time></trkpt><trkpt lat="45.3723706" lon="10.5970736"><ele>109.0</ele><time>2026-03-29T09:09:59.708Z</time></trkpt><trkpt lat="45.372221" lon="10.5969728"><ele>110.0</ele><time>2026-03-29T09:10:00.708Z</time></trkpt><trkpt lat="45.3720787" lon="10.5968806"><ele>111.0</ele><time>2026-03-29T09:10:01.708Z</time></trkpt><trkpt lat="45.3719352" lon="10.5967919"><ele>112.0</ele><time>2026-03-29T09:10:02.708Z</time></trkpt><trkpt lat="45.3717887" lon="10.5967022"><ele>112.0</ele><time>2026-03-29T09:10:03.708Z</time></trkpt><trkpt lat="45.3716389" lon="10.5966153"><ele>112.0</ele><time>2026-03-29T09:10:04.708Z</time></trkpt><trkpt lat="45.3714898" lon="10.5965231"><ele>112.0</ele><time>2026-03-29T09:10:05.709Z</time></trkpt><trkpt lat="45.3713432" lon="10.5964296"><ele>112.0</ele><time>2026-03-29T09:10:06.708Z</time></trkpt><trkpt lat="45.3711967" lon="10.5963414"><ele>112.0</ele><time>2026-03-29T09:10:07.708Z</time></trkpt><trkpt lat="45.3710508" lon="10.5962611"><ele>112.0</ele><time>2026-03-29T09:10:08.708Z</time></trkpt><trkpt lat="45.3709061" lon="10.5961857"><ele>112.5</ele><time>2026-03-29T09:10:09.708Z</time></trkpt><trkpt lat="45.3707665" lon="10.5961212"><ele>113.0</ele><time>2026-03-29T09:10:10.708Z</time></trkpt><trkpt lat="45.3706372" lon="10.5960716"><ele>113.5</ele><time>2026-03-29T09:10:11.708Z</time></trkpt><trkpt lat="45.3705123" lon="10.5960271"><ele>114.0</ele><time>2026-03-29T09:10:12.708Z</time></trkpt><trkpt lat="45.3703952" lon="10.5959943"><ele>115.0</ele><time>2026-03-29T09:10:13.708Z</time></trkpt><trkpt lat="45.3702855" lon="10.5959943"><ele>116.0</ele><time>2026-03-29T09:10:14.709Z</time></trkpt><trkpt lat="45.3702086" lon="10.5959913"><ele>117.0</ele><time>2026-03-29T09:10:15.708Z</time></trkpt><trkpt lat="45.3701347" lon="10.595924"><ele>118.0</ele><time>2026-03-29T09:10:17.708Z</time></trkpt><trkpt lat="45.3701204" lon="10.5957987"><ele>119.0</ele><time>2026-03-29T09:10:19.708Z</time></trkpt><trkpt lat="45.3701321" lon="10.5956929"><ele>120.0</ele><time>2026-03-29T09:10:20.708Z</time></trkpt><trkpt lat="45.3701462" lon="10.5955505"><ele>120.0</ele><time>2026-03-29T09:10:21.708Z</time></trkpt><trkpt lat="45.3701604" lon="10.5953877"><ele>120.0</ele><time>2026-03-29T09:10:22.708Z</time></trkpt><trkpt lat="45.3701723" lon="10.5952054"><ele>120.0</ele><time>2026-03-29T09:10:23.708Z</time></trkpt><trkpt lat="45.3701832" lon="10.5950021"><ele>120.0</ele><time>2026-03-29T09:10:24.708Z</time></trkpt><trkpt lat="45.3701758" lon="10.5947674"><ele>120.33333333333334</ele><time>2026-03-29T09:10:25.708Z</time></trkpt><trkpt lat="45.3701608" lon="10.5945258"><ele>120.66666666666667</ele><time>2026-03-29T09:10:26.708Z</time></trkpt><trkpt lat="45.3701448" lon="10.5943009"><ele>121.0</ele><time>2026-03-29T09:10:27.708Z</time></trkpt><trkpt lat="45.3701294" lon="10.5940894"><ele>121.5</ele><time>2026-03-29T09:10:28.708Z</time></trkpt><trkpt lat="45.3701128" lon="10.5938927"><ele>122.0</ele><time>2026-03-29T09:10:29.708Z</time></trkpt><trkpt lat="45.3700993" lon="10.5937122"><ele>122.5</ele><time>2026-03-29T09:10:30.708Z</time></trkpt><trkpt lat="45.3701021" lon="10.5935459"><ele>123.0</ele><time>2026-03-29T09:10:31.708Z</time></trkpt><trkpt lat="45.3701252" lon="10.5934088"><ele>123.16666666666667</ele><time>2026-03-29T09:10:32.708Z</time></trkpt><trkpt lat="45.3701621" lon="10.5932786"><ele>123.33333333333334</ele><time>2026-03-29T09:10:33.708Z</time></trkpt><trkpt lat="45.3701969" lon="10.5931673"><ele>123.5</ele><time>2026-03-29T09:10:34.708Z</time></trkpt><trkpt lat="45.3702197" lon="10.5930798"><ele>123.66666666666667</ele><time>2026-03-29T09:10:35.708Z</time></trkpt><trkpt lat="45.3702258" lon="10.5929428"><ele>123.83333333333334</ele><time>2026-03-29T09:10:37.708Z</time></trkpt><trkpt lat="45.370238" lon="10.5928434"><ele>124.0</ele><time>2026-03-29T09:10:39.708Z</time></trkpt><trkpt lat="45.3702915" lon="10.5927596"><ele>124.66666666666667</ele><time>2026-03-29T09:28:40.708Z</time></trkpt><trkpt lat="45.3703656" lon="10.5926862"><ele>125.33333333333334</ele><time>2026-03-29T09:28:43.708Z</time></trkpt><trkpt lat="45.37041" lon="10.5925746"><ele>126.0</ele><time>2026-03-29T09:28:45.708Z</time></trkpt><trkpt lat="45.3704407" lon="10.5924908"><ele>126.66666666666666</ele><time>2026-03-29T09:28:46.708Z</time></trkpt><trkpt lat="45.3704736" lon="10.5924064"><ele>127.33333333333333</ele><time>2026-03-29T09:28:47.708Z</time></trkpt><trkpt lat="45.370512" lon="10.5923048"><ele>128.0</ele><time>2026-03-29T09:28:48.708Z</time></trkpt><trkpt lat="45.3705524" lon="10.5922021"><ele>125.2</ele><time>2026-03-29T09:28:49.708Z</time></trkpt><trkpt lat="45.3705922" lon="10.592095"><ele>122.4</ele><time>2026-03-29T09:28:50.708Z</time></trkpt><trkpt lat="45.3706309" lon="10.5919824"><ele>119.60000000000001</ele><time>2026-03-29T09:28:51.708Z</time></trkpt><trkpt lat="45.370668" lon="10.591861"><ele>116.80000000000001</ele><time>2026-03-29T09:28:52.708Z</time></trkpt><trkpt lat="45.3707026" lon="10.5917343"><ele>114.0</ele><time>2026-03-29T09:28:53.708Z</time></trkpt><trkpt lat="45.3707318" lon="10.5916061"><ele>114.0</ele><time>2026-03-29T09:28:54.708Z</time></trkpt><trkpt lat="45.3707526" lon="10.5914856"><ele>114.0</ele><time>2026-03-29T09:28:55.708Z</time></trkpt><trkpt lat="45.3707646" lon="10.5913666"><ele>114.0</ele><time>2026-03-29T09:28:56.708Z</time></trkpt><trkpt lat="45.3707742" lon="10.5912469"><ele>114.0</ele><time>2026-03-29T09:28:57.708Z</time></trkpt><trkpt lat="45.3707794" lon="10.5911438"><ele>114.0</ele><time>2026-03-29T09:28:58.708Z</time></trkpt><trkpt lat="45.3707717" lon="10.5910474"><ele>114.0</ele><time>2026-03-29T09:28:59.708Z</time></trkpt><trkpt lat="45.3707562" lon="10.5909383"><ele>113.6</ele><time>2026-03-29T09:29:00.708Z</time></trkpt><trkpt lat="45.3707282" lon="10.590835"><ele>113.2</ele><time>2026-03-29T09:29:01.708Z</time></trkpt><trkpt lat="45.3706846" lon="10.5907185"><ele>112.79999999999998</ele><time>2026-03-29T09:29:02.708Z</time></trkpt><trkpt lat="45.3706345" lon="10.5906084"><ele>112.39999999999999</ele><time>2026-03-29T09:29:03.708Z</time></trkpt><trkpt lat="45.3705747" lon="10.5905027"><ele>112.0</ele><time>2026-03-29T09:29:04.708Z</time></trkpt><trkpt lat="45.3705077" lon="10.5904062"><ele>113.83333333333334</ele><time>2026-03-29T09:29:05.708Z</time></trkpt><trkpt lat="45.3704416" lon="10.5903096"><ele>115.66666666666667</ele><time>2026-03-29T09:29:06.708Z</time></trkpt><trkpt lat="45.3703838" lon="10.5902216"><ele>117.5</ele><time>2026-03-29T09:29:07.708Z</time></trkpt><trkpt lat="45.3703413" lon="10.5901279"><ele>119.33333333333334</ele><time>2026-03-29T09:29:08.708Z</time></trkpt><trkpt lat="45.3703067" lon="10.5900121"><ele>121.16666666666667</ele><time>2026-03-29T09:29:09.708Z</time></trkpt><trkpt lat="45.3702774" lon="10.5898987"><ele>123.0</ele><time>2026-03-29T09:29:10.708Z</time></trkpt><trkpt lat="45.3702322" lon="10.5897965"><ele>123.0</ele><time>2026-03-29T09:29:11.708Z</time></trkpt><trkpt lat="45.3701862" lon="10.5897123"><ele>123.0</ele><time>2026-03-29T09:29:12.708Z</time></trkpt><trkpt lat="45.3701321" lon="10.5896489"><ele>123.0</ele><time>2026-03-29T09:29:13.708Z</time></trkpt><trkpt lat="45.3700754" lon="10.5895877"><ele>123.0</ele><time>2026-03-29T09:29:14.708Z</time></trkpt><trkpt lat="45.3699738" lon="10.5895239"><ele>123.0</ele><time>2026-03-29T09:29:15.708Z</time></trkpt><trkpt lat="45.3698896" lon="10.5894582"><ele>123.0</ele><time>2026-03-29T09:29:16.708Z</time></trkpt><trkpt lat="45.369791" lon="10.5893985"><ele>123.2</ele><time>2026-03-29T09:29:17.708Z</time></trkpt><trkpt lat="45.369699" lon="10.5893323"><ele>123.4</ele><time>2026-03-29T09:29:18.708Z</time></trkpt><trkpt lat="45.369613" lon="10.5892653"><ele>123.60000000000001</ele><time>2026-03-29T09:29:19.708Z</time></trkpt><trkpt lat="45.3695402" lon="10.5891904"><ele>123.80000000000001</ele><time>2026-03-29T09:29:20.708Z</time></trkpt><trkpt lat="45.3694766" lon="10.5891023"><ele>124.0</ele><time>2026-03-29T09:29:21.708Z</time></trkpt><trkpt lat="45.369421" lon="10.5890077"><ele>124.0</ele><time>2026-03-29T09:29:22.708Z</time></trkpt><trkpt lat="45.3693546" lon="10.5889109"><ele>124.0</ele><time>2026-03-29T09:29:23.708Z</time></trkpt><trkpt lat="45.3692908" lon="10.5887969"><ele>124.0</ele><time>2026-03-29T09:29:24.708Z</time></trkpt><trkpt lat="45.369232" lon="10.5886792"><ele>124.0</ele><time>2026-03-29T09:29:25.708Z</time></trkpt><trkpt lat="45.3691823" lon="10.5885692"><ele>124.0</ele><time>2026-03-29T09:29:26.708Z</time></trkpt><trkpt lat="45.3691313" lon="10.588456"><ele>124.83333333333334</ele><time>2026-03-29T09:29:27.708Z</time></trkpt><trkpt lat="45.3690753" lon="10.5883456"><ele>125.66666666666667</ele><time>2026-03-29T09:29:28.708Z</time></trkpt><trkpt lat="45.3690165" lon="10.5882555"><ele>126.5</ele><time>2026-03-29T09:29:29.708Z</time></trkpt><trkpt lat="45.3689547" lon="10.588188"><ele>127.33333333333334</ele><time>2026-03-29T09:29:30.708Z</time></trkpt><trkpt lat="45.3688805" lon="10.5881331"><ele>128.16666666666666</ele><time>2026-03-29T09:29:31.708Z</time></trkpt><trkpt lat="45.3687967" lon="10.5880714"><ele>129.0</ele><time>2026-03-29T09:29:32.708Z</time></trkpt><trkpt lat="45.3687058" lon="10.5880075"><ele>129.0</ele><time>2026-03-29T09:29:33.708Z</time></trkpt><trkpt lat="45.3686287" lon="10.5879368"><ele>129.0</ele><time>2026-03-29T09:29:34.708Z</time></trkpt><trkpt lat="45.3685619" lon="10.5878515"><ele>129.0</ele><time>2026-03-29T09:29:35.708Z</time></trkpt><trkpt lat="45.3685048" lon="10.587766"><ele>129.0</ele><time>2026-03-29T09:29:36.708Z</time></trkpt><trkpt lat="45.3684382" lon="10.5876606"><ele>129.0</ele><time>2026-03-29T09:29:37.708Z</time></trkpt><trkpt lat="45.3683773" lon="10.5875466"><ele>128.16666666666666</ele><time>2026-03-29T09:29:38.708Z</time></trkpt><trkpt lat="45.3683412" lon="10.5874287"><ele>127.33333333333334</ele><time>2026-03-29T09:29:39.708Z</time></trkpt><trkpt lat="45.3683005" lon="10.5873273"><ele>126.5</ele><time>2026-03-29T09:29:40.708Z</time></trkpt><trkpt lat="45.3682547" lon="10.5872479"><ele>125.66666666666667</ele><time>2026-03-29T09:29:41.708Z</time></trkpt><trkpt lat="45.3681966" lon="10.5871733"><ele>124.83333333333334</ele><time>2026-03-29T09:29:42.708Z</time></trkpt><trkpt lat="45.3681403" lon="10.5870914"><ele>124.0</ele><time>2026-03-29T09:29:43.708Z</time></trkpt><trkpt lat="45.3680809" lon="10.587015"><ele>123.00000000000001</ele><time>2026-03-29T09:29:44.708Z</time></trkpt><trkpt lat="45.3680382" lon="10.5869089"><ele>122.0</ele><time>2026-03-29T09:29:45.708Z</time></trkpt><trkpt lat="45.3680066" lon="10.5868153"><ele>121.0</ele><time>2026-03-29T09:29:46.708Z</time></trkpt><trkpt lat="45.3679661" lon="10.5867037"><ele>120.0</ele><time>2026-03-29T09:29:47.708Z</time></trkpt><trkpt lat="45.3679212" lon="10.5865988"><ele>119.00000000000001</ele><time>2026-03-29T09:29:48.708Z</time></trkpt><trkpt lat="45.3678754" lon="10.5864936"><ele>118.0</ele><time>2026-03-29T09:29:49.708Z</time></trkpt><trkpt lat="45.3678194" lon="10.5863937"><ele>118.60000000000001</ele><time>2026-03-29T09:29:50.708Z</time></trkpt><trkpt lat="45.3677593" lon="10.5862928"><ele>119.20000000000002</ele><time>2026-03-29T09:29:51.708Z</time></trkpt><trkpt lat="45.3676973" lon="10.5861907"><ele>119.8</ele><time>2026-03-29T09:29:52.708Z</time></trkpt><trkpt lat="45.3676352" lon="10.5860806"><ele>120.4</ele><time>2026-03-29T09:29:53.708Z</time></trkpt><trkpt lat="45.3675767" lon="10.5859716"><ele>121.0</ele><time>2026-03-29T09:29:54.708Z</time></trkpt><trkpt lat="45.3675267" lon="10.5858748"><ele>121.00000000000001</ele><time>2026-03-29T09:29:55.708Z</time></trkpt><trkpt lat="45.3674709" lon="10.5857633"><ele>121.0</ele><time>2026-03-29T09:29:56.708Z</time></trkpt><trkpt lat="45.3674171" lon="10.5856515"><ele>121.0</ele><time>2026-03-29T09:29:57.708Z</time></trkpt><trkpt lat="45.3673615" lon="10.5855421"><ele>121.0</ele><time>2026-03-29T09:29:58.708Z</time></trkpt><trkpt lat="45.3673117" lon="10.5854487"><ele>121.00000000000001</ele><time>2026-03-29T09:29:59.708Z</time></trkpt><trkpt lat="45.3672687" lon="10.5853683"><ele>121.0</ele><time>2026-03-29T09:30:00.708Z</time></trkpt><trkpt lat="45.3672228" lon="10.5852117"><ele>121.19999999999999</ele><time>2026-03-29T09:30:02.708Z</time></trkpt><trkpt lat="45.3672457" lon="10.5850292"><ele>121.39999999999999</ele><time>2026-03-29T09:30:04.708Z</time></trkpt><trkpt lat="45.3672758" lon="10.5849153"><ele>121.6</ele><time>2026-03-29T09:30:05.709Z</time></trkpt><trkpt lat="45.3673175" lon="10.5847969"><ele>121.8</ele><time>2026-03-29T09:30:06.708Z</time></trkpt><trkpt lat="45.3673636" lon="10.5846789"><ele>122.0</ele><time>2026-03-29T09:30:07.708Z</time></trkpt><trkpt lat="45.3674147" lon="10.5845721"><ele>123.0</ele><time>2026-03-29T09:30:08.708Z</time></trkpt><trkpt lat="45.3674777" lon="10.5844506"><ele>123.99999999999999</ele><time>2026-03-29T09:30:09.708Z</time></trkpt><trkpt lat="45.3675387" lon="10.5843284"><ele>124.99999999999999</ele><time>2026-03-29T09:30:10.708Z</time></trkpt><trkpt lat="45.367592" lon="10.5842093"><ele>126.0</ele><time>2026-03-29T09:30:11.708Z</time></trkpt><trkpt lat="45.3676507" lon="10.5840773"><ele>127.0</ele><time>2026-03-29T09:30:12.708Z</time></trkpt><trkpt lat="45.3677157" lon="10.5839397"><ele>127.0</ele><time>2026-03-29T09:30:13.708Z</time></trkpt><trkpt lat="45.3677701" lon="10.5838123"><ele>126.99999999999999</ele><time>2026-03-29T09:30:14.708Z</time></trkpt><trkpt lat="45.3678173" lon="10.5836845"><ele>126.99999999999999</ele><time>2026-03-29T09:30:15.708Z</time></trkpt><trkpt lat="45.3678572" lon="10.5835535"><ele>127.0</ele><time>2026-03-29T09:30:16.708Z</time></trkpt><trkpt lat="45.3678907" lon="10.5834118"><ele>127.0</ele><time>2026-03-29T09:30:17.708Z</time></trkpt><trkpt lat="45.367913" lon="10.5832568"><ele>127.5</ele><time>2026-03-29T09:30:18.708Z</time></trkpt><trkpt lat="45.3679292" lon="10.5830911"><ele>128.0</ele><time>2026-03-29T09:30:19.708Z</time></trkpt><trkpt lat="45.3679529" lon="10.582926"><ele>128.5</ele><time>2026-03-29T09:30:20.708Z</time></trkpt><trkpt lat="45.3679807" lon="10.5827757"><ele>129.0</ele><time>2026-03-29T09:30:21.708Z</time></trkpt><trkpt lat="45.368008" lon="10.5826322"><ele>125.6</ele><time>2026-03-29T09:30:22.708Z</time></trkpt><trkpt lat="45.3680385" lon="10.5824966"><ele>122.2</ele><time>2026-03-29T09:30:23.708Z</time></trkpt><trkpt lat="45.3680695" lon="10.5823539"><ele>118.79999999999998</ele><time>2026-03-29T09:30:24.708Z</time></trkpt><trkpt lat="45.3681074" lon="10.5822222"><ele>115.39999999999999</ele><time>2026-03-29T09:30:25.708Z</time></trkpt><trkpt lat="45.3681437" lon="10.5821022"><ele>112.0</ele><time>2026-03-29T09:30:26.708Z</time></trkpt><trkpt lat="45.3681878" lon="10.5820087"><ele>112.00000000000001</ele><time>2026-03-29T09:30:27.708Z</time></trkpt><trkpt lat="45.3682419" lon="10.5819401"><ele>112.0</ele><time>2026-03-29T09:30:28.708Z</time></trkpt><trkpt lat="45.3683019" lon="10.5819009"><ele>112.0</ele><time>2026-03-29T09:30:29.708Z</time></trkpt><trkpt lat="45.3683785" lon="10.581893"><ele>112.0</ele><time>2026-03-29T09:30:30.708Z</time></trkpt><trkpt lat="45.368475" lon="10.5818759"><ele>112.00000000000001</ele><time>2026-03-29T09:30:31.708Z</time></trkpt><trkpt lat="45.3685891" lon="10.5818385"><ele>112.0</ele><time>2026-03-29T09:30:32.708Z</time></trkpt><trkpt lat="45.3687227" lon="10.5817792"><ele>111.75</ele><time>2026-03-29T09:30:33.709Z</time></trkpt><trkpt lat="45.3688694" lon="10.581701"><ele>111.5</ele><time>2026-03-29T09:30:34.708Z</time></trkpt><trkpt lat="45.3690142" lon="10.5816233"><ele>111.25</ele><time>2026-03-29T09:30:35.708Z</time></trkpt><trkpt lat="45.3691446" lon="10.5815601"><ele>111.0</ele><time>2026-03-29T09:30:36.708Z</time></trkpt><trkpt lat="45.3692516" lon="10.5814979"><ele>111.0</ele><time>2026-03-29T09:30:37.708Z</time></trkpt><trkpt lat="45.3693371" lon="10.5814334"><ele>111.0</ele><time>2026-03-29T09:30:38.708Z</time></trkpt><trkpt lat="45.3693912" lon="10.5813719"><ele>111.0</ele><time>2026-03-29T09:30:39.708Z</time></trkpt><trkpt lat="45.3693991" lon="10.5812669"><ele>111.0</ele><time>2026-03-29T09:30:41.708Z</time></trkpt><trkpt lat="45.3693353" lon="10.5812222"><ele>111.0</ele><time>2026-03-29T09:30:43.709Z</time></trkpt><trkpt lat="45.3692667" lon="10.5812245"><ele>111.0</ele><time>2026-03-29T09:30:44.709Z</time></trkpt><trkpt lat="45.3691726" lon="10.581248"><ele>111.0</ele><time>2026-03-29T09:30:45.708Z</time></trkpt><trkpt lat="45.3690597" lon="10.5812827"><ele>111.0</ele><time>2026-03-29T09:30:46.708Z</time></trkpt><trkpt lat="45.368932" lon="10.5813251"><ele>111.0</ele><time>2026-03-29T09:30:47.708Z</time></trkpt><trkpt lat="45.3687976" lon="10.5813657"><ele>111.0</ele><time>2026-03-29T09:30:48.708Z</time></trkpt><trkpt lat="45.3686486" lon="10.5814077"><ele>111.33333333333334</ele><time>2026-03-29T09:30:49.708Z</time></trkpt><trkpt lat="45.3684933" lon="10.5814369"><ele>111.66666666666667</ele><time>2026-03-29T09:30:50.708Z</time></trkpt><trkpt lat="45.3683201" lon="10.5814626"><ele>112.0</ele><time>2026-03-29T09:30:51.708Z</time></trkpt><trkpt lat="45.3681269" lon="10.5814821"><ele>116.0</ele><time>2026-03-29T09:30:52.708Z</time></trkpt><trkpt lat="45.3679307" lon="10.581499"><ele>120.0</ele><time>2026-03-29T09:30:53.708Z</time></trkpt><trkpt lat="45.3677168" lon="10.5815178"><ele>124.0</ele><time>2026-03-29T09:30:54.708Z</time></trkpt><trkpt lat="45.3674871" lon="10.5815435"><ele>124.0</ele><time>2026-03-29T09:30:55.708Z</time></trkpt><trkpt lat="45.3672469" lon="10.5815725"><ele>124.0</ele><time>2026-03-29T09:30:56.708Z</time></trkpt><trkpt lat="45.3670196" lon="10.581598"><ele>125.66666666666667</ele><time>2026-03-29T09:30:57.708Z</time></trkpt><trkpt lat="45.3668132" lon="10.5816144"><ele>127.33333333333334</ele><time>2026-03-29T09:30:58.708Z</time></trkpt><trkpt lat="45.3666276" lon="10.5816245"><ele>129.0</ele><time>2026-03-29T09:30:59.708Z</time></trkpt><trkpt lat="45.3664668" lon="10.58163"><ele>129.75</ele><time>2026-03-29T09:31:00.708Z</time></trkpt><trkpt lat="45.366327" lon="10.5816268"><ele>130.5</ele><time>2026-03-29T09:31:01.708Z</time></trkpt><trkpt lat="45.3661999" lon="10.5816135"><ele>131.25</ele><time>2026-03-29T09:31:02.708Z</time></trkpt><trkpt lat="45.3660833" lon="10.5815921"><ele>132.0</ele><time>2026-03-29T09:31:03.708Z</time></trkpt><trkpt lat="45.3659787" lon="10.5815539"><ele>132.0</ele><time>2026-03-29T09:31:04.708Z</time></trkpt><trkpt lat="45.3658885" lon="10.5815109"><ele>132.0</ele><time>2026-03-29T09:31:05.708Z</time></trkpt><trkpt lat="45.3658114" lon="10.5814802"><ele>132.0</ele><time>2026-03-29T09:31:06.708Z</time></trkpt><trkpt lat="45.3657491" lon="10.5814644"><ele>132.0</ele><time>2026-03-29T09:31:07.708Z</time></trkpt><trkpt lat="45.3656669" lon="10.5814592"><ele>132.0</ele><time>2026-03-29T09:31:09.708Z</time></trkpt><trkpt lat="45.3655788" lon="10.5814938"><ele>132.0</ele><time>2026-03-29T09:31:20.708Z</time></trkpt><trkpt lat="45.3654563" lon="10.5815786"><ele>133.0</ele><time>2026-03-29T09:31:22.708Z</time></trkpt><trkpt lat="45.3653777" lon="10.581634"><ele>134.0</ele><time>2026-03-29T09:31:23.708Z</time></trkpt><trkpt lat="45.3652855" lon="10.581678"><ele>135.0</ele><time>2026-03-29T09:31:24.708Z</time></trkpt><trkpt lat="45.3651791" lon="10.5817102"><ele>136.0</ele><time>2026-03-29T09:31:25.708Z</time></trkpt><trkpt lat="45.3650634" lon="10.5817359"><ele>137.0</ele><time>2026-03-29T09:31:26.708Z</time></trkpt><trkpt lat="45.3649328" lon="10.5817519"><ele>137.0</ele><time>2026-03-29T09:31:27.708Z</time></trkpt><trkpt lat="45.3647973" lon="10.5817599"><ele>137.0</ele><time>2026-03-29T09:31:28.708Z</time></trkpt><trkpt lat="45.3646529" lon="10.5817697"><ele>137.0</ele><time>2026-03-29T09:31:29.708Z</time></trkpt><trkpt lat="45.3645063" lon="10.5817801"><ele>137.0</ele><time>2026-03-29T09:31:30.708Z</time></trkpt><trkpt lat="45.3643544" lon="10.5817895"><ele>138.25</ele><time>2026-03-29T09:31:31.708Z</time></trkpt><trkpt lat="45.3642033" lon="10.5818"><ele>139.5</ele><time>2026-03-29T09:31:32.708Z</time></trkpt><trkpt lat="45.3640657" lon="10.5818028"><ele>140.75</ele><time>2026-03-29T09:31:33.708Z</time></trkpt><trkpt lat="45.3639281" lon="10.5817941"><ele>142.0</ele><time>2026-03-29T09:31:34.708Z</time></trkpt><trkpt lat="45.3637913" lon="10.5817763"><ele>142.5</ele><time>2026-03-29T09:31:35.708Z</time></trkpt><trkpt lat="45.3636564" lon="10.5817499"><ele>143.0</ele><time>2026-03-29T09:31:36.708Z</time></trkpt><trkpt lat="45.3635172" lon="10.5817142"><ele>143.5</ele><time>2026-03-29T09:31:37.708Z</time></trkpt><trkpt lat="45.3633808" lon="10.5816691"><ele>144.0</ele><time>2026-03-29T09:31:38.708Z</time></trkpt><trkpt lat="45.3632518" lon="10.5816197"><ele>144.0</ele><time>2026-03-29T09:31:39.708Z</time></trkpt><trkpt lat="45.3631332" lon="10.5815725"><ele>144.0</ele><time>2026-03-29T09:31:40.708Z</time></trkpt><trkpt lat="45.3630248" lon="10.581523"><ele>144.0</ele><time>2026-03-29T09:31:41.708Z</time></trkpt><trkpt lat="45.3629231" lon="10.581475"><ele>144.0</ele><time>2026-03-29T09:31:42.708Z</time></trkpt><trkpt lat="45.3628242" lon="10.581423"><ele>144.5</ele><time>2026-03-29T09:31:43.708Z</time></trkpt><trkpt lat="45.3627284" lon="10.5813741"><ele>145.0</ele><time>2026-03-29T09:31:44.708Z</time></trkpt><trkpt lat="45.3626274" lon="10.5813204"><ele>145.5</ele><time>2026-03-29T09:31:45.708Z</time></trkpt><trkpt lat="45.3625194" lon="10.5812523"><ele>146.0</ele><time>2026-03-29T09:31:46.708Z</time></trkpt><trkpt lat="45.3623983" lon="10.5811785"><ele>146.33333333333331</ele><time>2026-03-29T09:31:47.708Z</time></trkpt><trkpt lat="45.3622652" lon="10.5810756"><ele>146.66666666666666</ele><time>2026-03-29T09:31:48.709Z</time></trkpt><trkpt lat="45.3621276" lon="10.5809519"><ele>147.0</ele><time>2026-03-29T09:31:49.708Z</time></trkpt><trkpt lat="45.3619948" lon="10.5808375"><ele>148.25</ele><time>2026-03-29T09:31:50.708Z</time></trkpt><trkpt lat="45.3618754" lon="10.5807314"><ele>149.5</ele><time>2026-03-29T09:31:51.709Z</time></trkpt><trkpt lat="45.3617663" lon="10.5806294"><ele>150.75</ele><time>2026-03-29T09:31:52.708Z</time></trkpt><trkpt lat="45.361675" lon="10.5805396"><ele>152.0</ele><time>2026-03-29T09:31:53.708Z</time></trkpt><trkpt lat="45.361591" lon="10.5804592"><ele>152.0</ele><time>2026-03-29T09:31:54.708Z</time></trkpt><trkpt lat="45.3615187" lon="10.5803918"><ele>152.0</ele><time>2026-03-29T09:31:55.708Z</time></trkpt><trkpt lat="45.3614613" lon="10.5803396"><ele>152.0</ele><time>2026-03-29T09:31:56.708Z</time></trkpt><trkpt lat="45.3613878" lon="10.5802965"><ele>152.0</ele><time>2026-03-29T09:31:58.708Z</time></trkpt><trkpt lat="45.3613755" lon="10.5803861"><ele>152.0</ele><time>2026-03-29T09:32:02.708Z</time></trkpt><trkpt lat="45.361423" lon="10.5804609"><ele>152.0</ele><time>2026-03-29T09:32:04.708Z</time></trkpt><trkpt lat="45.361511" lon="10.5806203"><ele>152.0</ele><time>2026-03-29T09:32:06.708Z</time></trkpt><trkpt lat="45.3615754" lon="10.5807221"><ele>152.0</ele><time>2026-03-29T09:32:07.708Z</time></trkpt><trkpt lat="45.3616599" lon="10.5808181"><ele>152.0</ele><time>2026-03-29T09:32:08.708Z</time></trkpt><trkpt lat="45.3617607" lon="10.5809137"><ele>152.0</ele><time>2026-03-29T09:32:09.709Z</time></trkpt><trkpt lat="45.3618555" lon="10.5810045"><ele>152.0</ele><time>2026-03-29T09:32:10.708Z</time></trkpt><trkpt lat="45.3619432" lon="10.581086"><ele>152.0</ele><time>2026-03-29T09:32:11.708Z</time></trkpt><trkpt lat="45.3620194" lon="10.5811692"><ele>152.0</ele><time>2026-03-29T09:32:12.708Z</time></trkpt><trkpt lat="45.3620858" lon="10.5812676"><ele>152.0</ele><time>2026-03-29T09:32:13.708Z</time></trkpt><trkpt lat="45.3621326" lon="10.5813591"><ele>152.0</ele><time>2026-03-29T09:32:14.708Z</time></trkpt><trkpt lat="45.362166" lon="10.5814636"><ele>152.0</ele><time>2026-03-29T09:32:15.708Z</time></trkpt><trkpt lat="45.3621852" lon="10.5815791"><ele>152.0</ele><time>2026-03-29T09:32:16.708Z</time></trkpt><trkpt lat="45.3621967" lon="10.5817175"><ele>150.5</ele><time>2026-03-29T09:32:17.708Z</time></trkpt><trkpt lat="45.3621985" lon="10.5818739"><ele>149.0</ele><time>2026-03-29T09:32:18.708Z</time></trkpt><trkpt lat="45.3621924" lon="10.5820388"><ele>147.5</ele><time>2026-03-29T09:32:19.708Z</time></trkpt><trkpt lat="45.3621901" lon="10.5822211"><ele>146.0</ele><time>2026-03-29T09:32:20.708Z</time></trkpt><trkpt lat="45.3621827" lon="10.5824025"><ele>145.75</ele><time>2026-03-29T09:32:21.708Z</time></trkpt><trkpt lat="45.3621925" lon="10.582582"><ele>145.5</ele><time>2026-03-29T09:32:22.709Z</time></trkpt><trkpt lat="45.362214" lon="10.5827604"><ele>145.25</ele><time>2026-03-29T09:32:23.708Z</time></trkpt><trkpt lat="45.3622368" lon="10.5829423"><ele>145.0</ele><time>2026-03-29T09:32:24.708Z</time></trkpt><trkpt lat="45.3622681" lon="10.5831197"><ele>146.25</ele><time>2026-03-29T09:32:25.708Z</time></trkpt><trkpt lat="45.3623025" lon="10.5832889"><ele>147.5</ele><time>2026-03-29T09:32:26.708Z</time></trkpt><trkpt lat="45.3623323" lon="10.5834541"><ele>148.75</ele><time>2026-03-29T09:32:27.709Z</time></trkpt><trkpt lat="45.3623613" lon="10.5836182"><ele>150.0</ele><time>2026-03-29T09:32:28.708Z</time></trkpt><trkpt lat="45.3623814" lon="10.583766"><ele>150.6</ele><time>2026-03-29T09:32:29.708Z</time></trkpt><trkpt lat="45.3623959" lon="10.5839103"><ele>151.2</ele><time>2026-03-29T09:32:30.708Z</time></trkpt><trkpt lat="45.3624064" lon="10.5840489"><ele>151.8</ele><time>2026-03-29T09:32:31.708Z</time></trkpt><trkpt lat="45.3624076" lon="10.5841985"><ele>152.4</ele><time>2026-03-29T09:32:32.708Z</time></trkpt><trkpt lat="45.3624167" lon="10.5843257"><ele>153.0</ele><time>2026-03-29T09:32:33.708Z</time></trkpt><trkpt lat="45.3624393" lon="10.584438"><ele>153.16666666666666</ele><time>2026-03-29T09:32:34.708Z</time></trkpt><trkpt lat="45.3624788" lon="10.584535"><ele>153.33333333333334</ele><time>2026-03-29T09:32:35.709Z</time></trkpt><trkpt lat="45.362542" lon="10.5846318"><ele>153.5</ele><time>2026-03-29T09:32:36.708Z</time></trkpt><trkpt lat="45.3625968" lon="10.5847258"><ele>153.66666666666669</ele><time>2026-03-29T09:32:37.709Z</time></trkpt><trkpt lat="45.3626292" lon="10.5848256"><ele>153.83333333333334</ele><time>2026-03-29T09:32:38.708Z</time></trkpt><trkpt lat="45.3626473" lon="10.5849224"><ele>154.0</ele><time>2026-03-29T09:32:39.708Z</time></trkpt><trkpt lat="45.3626497" lon="10.5850164"><ele>154.0</ele><time>2026-03-29T09:32:40.708Z</time></trkpt><trkpt lat="45.362627" lon="10.5851099"><ele>154.0</ele><time>2026-03-29T09:32:41.708Z</time></trkpt><trkpt lat="45.3625848" lon="10.5852047"><ele>154.0</ele><time>2026-03-29T09:32:42.708Z</time></trkpt><trkpt lat="45.362544" lon="10.5853111"><ele>154.0</ele><time>2026-03-29T09:32:43.708Z</time></trkpt><trkpt lat="45.362511" lon="10.5854135"><ele>154.0</ele><time>2026-03-29T09:32:44.708Z</time></trkpt><trkpt lat="45.3624924" lon="10.58553"><ele>154.0</ele><time>2026-03-29T09:32:45.708Z</time></trkpt><trkpt lat="45.3625038" lon="10.585651"><ele>153.8</ele><time>2026-03-29T09:32:46.708Z</time></trkpt><trkpt lat="45.3625375" lon="10.5857692"><ele>153.60000000000002</ele><time>2026-03-29T09:32:47.708Z</time></trkpt><trkpt lat="45.3625763" lon="10.5858844"><ele>153.4</ele><time>2026-03-29T09:32:48.708Z</time></trkpt><trkpt lat="45.362594" lon="10.5859979"><ele>153.20000000000002</ele><time>2026-03-29T09:32:49.708Z</time></trkpt><trkpt lat="45.3626047" lon="10.5861272"><ele>153.0</ele><time>2026-03-29T09:32:50.708Z</time></trkpt><trkpt lat="45.3626083" lon="10.5862659"><ele>153.4</ele><time>2026-03-29T09:32:51.708Z</time></trkpt><trkpt lat="45.3626097" lon="10.5864061"><ele>153.8</ele><time>2026-03-29T09:32:52.708Z</time></trkpt><trkpt lat="45.3626122" lon="10.586528"><ele>154.2</ele><time>2026-03-29T09:32:53.708Z</time></trkpt><trkpt lat="45.3626302" lon="10.5866311"><ele>154.6</ele><time>2026-03-29T09:32:54.708Z</time></trkpt><trkpt lat="45.3627244" lon="10.5867395"><ele>155.0</ele><time>2026-03-29T09:32:56.708Z</time></trkpt><trkpt lat="45.3627996" lon="10.5867805"><ele>155.0</ele><time>2026-03-29T09:32:57.708Z</time></trkpt><trkpt lat="45.3628764" lon="10.5868047"><ele>155.0</ele><time>2026-03-29T09:32:58.708Z</time></trkpt><trkpt lat="45.3629759" lon="10.5868227"><ele>155.0</ele><time>2026-03-29T09:32:59.708Z</time></trkpt><trkpt lat="45.3630861" lon="10.5868194"><ele>155.0</ele><time>2026-03-29T09:33:00.708Z</time></trkpt><trkpt lat="45.3631972" lon="10.5868021"><ele>155.0</ele><time>2026-03-29T09:33:01.708Z</time></trkpt><trkpt lat="45.3633004" lon="10.5868026"><ele>154.42857142857144</ele><time>2026-03-29T09:33:02.708Z</time></trkpt><trkpt lat="45.3633851" lon="10.586813"><ele>153.85714285714286</ele><time>2026-03-29T09:33:03.708Z</time></trkpt><trkpt lat="45.3634539" lon="10.5868555"><ele>153.28571428571428</ele><time>2026-03-29T09:33:04.708Z</time></trkpt><trkpt lat="45.3635044" lon="10.5869191"><ele>152.71428571428572</ele><time>2026-03-29T09:33:05.708Z</time></trkpt><trkpt lat="45.363539" lon="10.5870074"><ele>152.14285714285714</ele><time>2026-03-29T09:33:06.709Z</time></trkpt><trkpt lat="45.3635559" lon="10.5871122"><ele>151.57142857142858</ele><time>2026-03-29T09:33:07.708Z</time></trkpt><trkpt lat="45.3635633" lon="10.587204"><ele>151.0</ele><time>2026-03-29T09:33:08.708Z</time></trkpt><trkpt lat="45.3635581" lon="10.5873931"><ele>151.0</ele><time>2026-03-29T09:33:10.708Z</time></trkpt><trkpt lat="45.3635584" lon="10.5874996"><ele>151.0</ele><time>2026-03-29T09:33:11.708Z</time></trkpt><trkpt lat="45.3635762" lon="10.5875985"><ele>151.0</ele><time>2026-03-29T09:33:12.708Z</time></trkpt><trkpt lat="45.3636203" lon="10.5876813"><ele>151.0</ele><time>2026-03-29T09:33:13.708Z</time></trkpt><trkpt lat="45.363681" lon="10.5877532"><ele>151.0</ele><time>2026-03-29T09:33:14.708Z</time></trkpt><trkpt lat="45.3637603" lon="10.587824"><ele>151.0</ele><time>2026-03-29T09:33:15.708Z</time></trkpt><trkpt lat="45.3638536" lon="10.5879026"><ele>148.83333333333334</ele><time>2026-03-29T09:33:16.708Z</time></trkpt><trkpt lat="45.3639416" lon="10.5879686"><ele>146.66666666666669</ele><time>2026-03-29T09:33:17.708Z</time></trkpt><trkpt lat="45.3640319" lon="10.5880101"><ele>144.5</ele><time>2026-03-29T09:33:18.708Z</time></trkpt><trkpt lat="45.3641114" lon="10.5880438"><ele>142.33333333333334</ele><time>2026-03-29T09:33:19.708Z</time></trkpt><trkpt lat="45.3641876" lon="10.5880755"><ele>140.16666666666666</ele><time>2026-03-29T09:33:20.708Z</time></trkpt><trkpt lat="45.3642665" lon="10.5881083"><ele>138.0</ele><time>2026-03-29T09:33:21.708Z</time></trkpt><trkpt lat="45.364353" lon="10.5881465"><ele>138.0</ele><time>2026-03-29T09:33:22.708Z</time></trkpt><trkpt lat="45.3644452" lon="10.5881862"><ele>138.0</ele><time>2026-03-29T09:33:23.708Z</time></trkpt><trkpt lat="45.3645368" lon="10.588229"><ele>138.0</ele><time>2026-03-29T09:33:24.708Z</time></trkpt><trkpt lat="45.364619" lon="10.5882631"><ele>138.0</ele><time>2026-03-29T09:33:25.708Z</time></trkpt><trkpt lat="45.3647054" lon="10.5883035"><ele>138.0</ele><time>2026-03-29T09:33:26.708Z</time></trkpt><trkpt lat="45.3647946" lon="10.5883442"><ele>138.4</ele><time>2026-03-29T09:33:27.708Z</time></trkpt><trkpt lat="45.3648849" lon="10.5883776"><ele>138.8</ele><time>2026-03-29T09:33:28.708Z</time></trkpt><trkpt lat="45.3649795" lon="10.5884027"><ele>139.2</ele><time>2026-03-29T09:33:29.708Z</time></trkpt><trkpt lat="45.3650746" lon="10.5884074"><ele>139.6</ele><time>2026-03-29T09:33:30.708Z</time></trkpt><trkpt lat="45.3651743" lon="10.5884048"><ele>140.0</ele><time>2026-03-29T09:33:31.708Z</time></trkpt><trkpt lat="45.3652787" lon="10.5883993"><ele>140.0</ele><time>2026-03-29T09:33:32.708Z</time></trkpt><trkpt lat="45.3653853" lon="10.58839"><ele>140.0</ele><time>2026-03-29T09:33:33.708Z</time></trkpt><trkpt lat="45.3654929" lon="10.5883788"><ele>140.0</ele><time>2026-03-29T09:33:34.708Z</time></trkpt><trkpt lat="45.3655984" lon="10.588369"><ele>140.0</ele><time>2026-03-29T09:33:35.708Z</time></trkpt><trkpt lat="45.3656954" lon="10.588372"><ele>140.0</ele><time>2026-03-29T09:33:36.709Z</time></trkpt><trkpt lat="45.3657899" lon="10.5883922"><ele>140.5</ele><time>2026-03-29T09:33:37.708Z</time></trkpt><trkpt lat="45.3658755" lon="10.5884218"><ele>141.0</ele><time>2026-03-29T09:33:38.708Z</time></trkpt><trkpt lat="45.3659485" lon="10.5884477"><ele>141.5</ele><time>2026-03-29T09:33:39.708Z</time></trkpt><trkpt lat="45.3660111" lon="10.5884689"><ele>142.0</ele><time>2026-03-29T09:33:40.708Z</time></trkpt><trkpt lat="45.3660984" lon="10.5885238"><ele>142.5</ele><time>2026-03-29T09:33:42.708Z</time></trkpt><trkpt lat="45.3661155" lon="10.5886354"><ele>143.0</ele><time>2026-03-29T09:33:44.708Z</time></trkpt><trkpt lat="45.366093" lon="10.5887225"><ele>143.25</ele><time>2026-03-29T09:33:45.708Z</time></trkpt><trkpt lat="45.3660523" lon="10.5888579"><ele>143.5</ele><time>2026-03-29T09:33:46.708Z</time></trkpt><trkpt lat="45.3660149" lon="10.5890192"><ele>143.75</ele><time>2026-03-29T09:33:47.708Z</time></trkpt><trkpt lat="45.3659799" lon="10.5891933"><ele>144.0</ele><time>2026-03-29T09:33:48.708Z</time></trkpt><trkpt lat="45.3659445" lon="10.5893878"><ele>144.0</ele><time>2026-03-29T09:33:49.708Z</time></trkpt><trkpt lat="45.3659073" lon="10.5896078"><ele>144.0</ele><time>2026-03-29T09:33:50.708Z</time></trkpt><trkpt lat="45.3658712" lon="10.5898151"><ele>144.0</ele><time>2026-03-29T09:33:51.708Z</time></trkpt><trkpt lat="45.3658375" lon="10.5900222"><ele>144.0</ele><time>2026-03-29T09:33:52.708Z</time></trkpt><trkpt lat="45.3658096" lon="10.5902111"><ele>144.0</ele><time>2026-03-29T09:33:53.708Z</time></trkpt><trkpt lat="45.3657867" lon="10.5903924"><ele>144.0</ele><time>2026-03-29T09:33:54.708Z</time></trkpt><trkpt lat="45.365762" lon="10.5905774"><ele>144.0</ele><time>2026-03-29T09:33:55.708Z</time></trkpt><trkpt lat="45.365737" lon="10.5907884"><ele>144.0</ele><time>2026-03-29T09:33:56.708Z</time></trkpt><trkpt lat="45.3657133" lon="10.5909944"><ele>144.0</ele><time>2026-03-29T09:33:57.708Z</time></trkpt><trkpt lat="45.3656872" lon="10.5911858"><ele>144.0</ele><time>2026-03-29T09:33:58.708Z</time></trkpt><trkpt lat="45.3656559" lon="10.591364"><ele>144.0</ele><time>2026-03-29T09:33:59.708Z</time></trkpt><trkpt lat="45.3656214" lon="10.5915208"><ele>144.0</ele><time>2026-03-29T09:34:00.708Z</time></trkpt><trkpt lat="45.3655896" lon="10.5916651"><ele>144.0</ele><time>2026-03-29T09:34:01.708Z</time></trkpt><trkpt lat="45.3655675" lon="10.5918221"><ele>144.0</ele><time>2026-03-29T09:34:02.708Z</time></trkpt><trkpt lat="45.3655627" lon="10.5919783"><ele>144.0</ele><time>2026-03-29T09:34:03.708Z</time></trkpt><trkpt lat="45.3655644" lon="10.5921361"><ele>144.0</ele><time>2026-03-29T09:34:04.708Z</time></trkpt><trkpt lat="45.3655631" lon="10.592282"><ele>144.0</ele><time>2026-03-29T09:34:05.708Z</time></trkpt><trkpt lat="45.3655608" lon="10.5924221"><ele>144.0</ele><time>2026-03-29T09:34:06.708Z</time></trkpt><trkpt lat="45.3655576" lon="10.5925524"><ele>144.0</ele><time>2026-03-29T09:34:07.708Z</time></trkpt><trkpt lat="45.3655526" lon="10.5926713"><ele>144.0</ele><time>2026-03-29T09:34:08.708Z</time></trkpt><trkpt lat="45.3655485" lon="10.5927842"><ele>144.0</ele><time>2026-03-29T09:34:09.708Z</time></trkpt><trkpt lat="45.3655719" lon="10.5929263"><ele>144.0</ele><time>2026-03-29T09:34:11.708Z</time></trkpt><trkpt lat="45.3656494" lon="10.5929057"><ele>144.0</ele><time>2026-03-29T09:34:14.708Z</time></trkpt><trkpt lat="45.3656831" lon="10.5928145"><ele>144.0</ele><time>2026-03-29T09:34:15.708Z</time></trkpt><trkpt lat="45.3657066" lon="10.5926811"><ele>144.0</ele><time>2026-03-29T09:34:16.708Z</time></trkpt><trkpt lat="45.3657334" lon="10.5925296"><ele>144.0</ele><time>2026-03-29T09:34:17.708Z</time></trkpt><trkpt lat="45.3657596" lon="10.5923688"><ele>144.0</ele><time>2026-03-29T09:34:18.708Z</time></trkpt><trkpt lat="45.3657876" lon="10.5921925"><ele>144.0</ele><time>2026-03-29T09:34:19.708Z</time></trkpt><trkpt lat="45.3658181" lon="10.5920125"><ele>144.0</ele><time>2026-03-29T09:34:20.708Z</time></trkpt><trkpt lat="45.3658438" lon="10.5918177"><ele>144.0</ele><time>2026-03-29T09:34:21.708Z</time></trkpt><trkpt lat="45.3658729" lon="10.5916193"><ele>144.0</ele><time>2026-03-29T09:34:22.708Z</time></trkpt><trkpt lat="45.3659001" lon="10.5914153"><ele>144.0</ele><time>2026-03-29T09:34:23.709Z</time></trkpt><trkpt lat="45.365929" lon="10.5911997"><ele>144.0</ele><time>2026-03-29T09:34:24.708Z</time></trkpt><trkpt lat="45.365959" lon="10.5909964"><ele>144.0</ele><time>2026-03-29T09:34:25.708Z</time></trkpt><trkpt lat="45.3659871" lon="10.5908082"><ele>144.0</ele><time>2026-03-29T09:34:26.708Z</time></trkpt><trkpt lat="45.3660102" lon="10.5906267"><ele>144.0</ele><time>2026-03-29T09:34:27.708Z</time></trkpt><trkpt lat="45.3660374" lon="10.5905009"><ele>144.0</ele><time>2026-03-29T09:34:28.708Z</time></trkpt><trkpt lat="45.3660777" lon="10.5904229"><ele>144.0</ele><time>2026-03-29T09:34:29.708Z</time></trkpt><trkpt lat="45.3661255" lon="10.5903626"><ele>144.0</ele><time>2026-03-29T09:34:30.708Z</time></trkpt><trkpt lat="45.3661985" lon="10.5902095"><ele>144.0</ele><time>2026-03-29T09:34:32.708Z</time></trkpt><trkpt lat="45.3662257" lon="10.5901001"><ele>144.0</ele><time>2026-03-29T09:34:33.708Z</time></trkpt><trkpt lat="45.366273" lon="10.5899726"><ele>144.0</ele><time>2026-03-29T09:34:35.708Z</time></trkpt><trkpt lat="45.3663788" lon="10.5899384"><ele>144.0</ele><time>2026-03-29T09:34:37.708Z</time></trkpt><trkpt lat="45.3664587" lon="10.5899598"><ele>144.0</ele><time>2026-03-29T09:34:38.708Z</time></trkpt><trkpt lat="45.3665436" lon="10.5899648"><ele>144.6</ele><time>2026-03-29T09:34:39.708Z</time></trkpt><trkpt lat="45.3666399" lon="10.5899731"><ele>145.2</ele><time>2026-03-29T09:34:40.708Z</time></trkpt><trkpt lat="45.3667375" lon="10.5899939"><ele>145.79999999999998</ele><time>2026-03-29T09:34:41.708Z</time></trkpt><trkpt lat="45.366838" lon="10.5900269"><ele>146.4</ele><time>2026-03-29T09:34:42.708Z</time></trkpt><trkpt lat="45.3669389" lon="10.5900555"><ele>147.0</ele><time>2026-03-29T09:34:43.708Z</time></trkpt><trkpt lat="45.3670306" lon="10.5900838"><ele>147.0</ele><time>2026-03-29T09:34:44.708Z</time></trkpt><trkpt lat="45.3671228" lon="10.5901105"><ele>147.0</ele><time>2026-03-29T09:34:45.708Z</time></trkpt><trkpt lat="45.3672143" lon="10.5901348"><ele>147.0</ele><time>2026-03-29T09:34:46.708Z</time></trkpt><trkpt lat="45.3673039" lon="10.5901562"><ele>147.0</ele><time>2026-03-29T09:34:47.708Z</time></trkpt><trkpt lat="45.3673832" lon="10.5901711"><ele>147.0</ele><time>2026-03-29T09:34:48.709Z</time></trkpt><trkpt lat="45.36745" lon="10.5901846"><ele>147.0</ele><time>2026-03-29T09:34:49.708Z</time></trkpt><trkpt lat="45.3675129" lon="10.5902036"><ele>147.4</ele><time>2026-03-29T09:34:50.708Z</time></trkpt><trkpt lat="45.3676175" lon="10.5902867"><ele>147.79999999999998</ele><time>2026-03-29T09:34:52.708Z</time></trkpt><trkpt lat="45.3677014" lon="10.5904267"><ele>148.2</ele><time>2026-03-29T09:34:54.708Z</time></trkpt><trkpt lat="45.3677582" lon="10.5904731"><ele>148.6</ele><time>2026-03-29T09:34:55.708Z</time></trkpt><trkpt lat="45.3678853" lon="10.5904839"><ele>149.0</ele><time>2026-03-29T09:34:57.708Z</time></trkpt><trkpt lat="45.3679653" lon="10.5904605"><ele>148.5</ele><time>2026-03-29T09:34:58.708Z</time></trkpt><trkpt lat="45.3680386" lon="10.5904437"><ele>148.0</ele><time>2026-03-29T09:34:59.708Z</time></trkpt><trkpt lat="45.3681113" lon="10.5904474"><ele>147.5</ele><time>2026-03-29T09:35:00.708Z</time></trkpt><trkpt lat="45.3681828" lon="10.5904628"><ele>147.0</ele><time>2026-03-29T09:35:01.708Z</time></trkpt><trkpt lat="45.3682991" lon="10.5904748"><ele>146.5</ele><time>2026-03-29T09:35:03.708Z</time></trkpt><trkpt lat="45.3683662" lon="10.5905029"><ele>146.0</ele><time>2026-03-29T09:35:05.708Z</time></trkpt><trkpt lat="45.3684021" lon="10.5905995"><ele>146.0</ele><time>2026-03-29T09:35:08.708Z</time></trkpt><trkpt lat="45.3683814" lon="10.5907437"><ele>146.0</ele><time>2026-03-29T09:35:10.708Z</time></trkpt><trkpt lat="45.368358" lon="10.5908579"><ele>146.0</ele><time>2026-03-29T09:35:11.708Z</time></trkpt><trkpt lat="45.3683521" lon="10.5909662"><ele>146.0</ele><time>2026-03-29T09:35:12.708Z</time></trkpt><trkpt lat="45.3683368" lon="10.5910745"><ele>146.0</ele><time>2026-03-29T09:35:13.708Z</time></trkpt><trkpt lat="45.3683213" lon="10.5911985"><ele>146.0</ele><time>2026-03-29T09:35:14.708Z</time></trkpt><trkpt lat="45.3683016" lon="10.5913278"><ele>146.2</ele><time>2026-03-29T09:35:15.708Z</time></trkpt><trkpt lat="45.3682767" lon="10.5914638"><ele>146.39999999999998</ele><time>2026-03-29T09:35:16.708Z</time></trkpt><trkpt lat="45.3682531" lon="10.5916003"><ele>146.6</ele><time>2026-03-29T09:35:17.708Z</time></trkpt><trkpt lat="45.3682384" lon="10.5917476"><ele>146.79999999999998</ele><time>2026-03-29T09:35:18.708Z</time></trkpt><trkpt lat="45.3682217" lon="10.5919053"><ele>147.0</ele><time>2026-03-29T09:35:19.708Z</time></trkpt><trkpt lat="45.3681979" lon="10.5920676"><ele>147.4</ele><time>2026-03-29T09:35:20.708Z</time></trkpt><trkpt lat="45.3681709" lon="10.5922266"><ele>147.79999999999998</ele><time>2026-03-29T09:35:21.708Z</time></trkpt><trkpt lat="45.3681461" lon="10.5923755"><ele>148.2</ele><time>2026-03-29T09:35:22.708Z</time></trkpt><trkpt lat="45.3681256" lon="10.592511"><ele>148.6</ele><time>2026-03-29T09:35:23.708Z</time></trkpt><trkpt lat="45.3681075" lon="10.5926406"><ele>149.0</ele><time>2026-03-29T09:35:24.708Z</time></trkpt><trkpt lat="45.3681041" lon="10.5927633"><ele>148.6</ele><time>2026-03-29T09:35:25.708Z</time></trkpt><trkpt lat="45.3681018" lon="10.5928847"><ele>148.2</ele><time>2026-03-29T09:35:26.708Z</time></trkpt><trkpt lat="45.3681052" lon="10.5929902"><ele>147.79999999999998</ele><time>2026-03-29T09:35:27.708Z</time></trkpt><trkpt lat="45.3681406" lon="10.5931296"><ele>147.4</ele><time>2026-03-29T09:35:29.708Z</time></trkpt><trkpt lat="45.368202" lon="10.5931951"><ele>147.0</ele><time>2026-03-29T09:35:31.708Z</time></trkpt><trkpt lat="45.3683176" lon="10.5932259"><ele>147.0</ele><time>2026-03-29T09:35:33.708Z</time></trkpt><trkpt lat="45.3683802" lon="10.5932148"><ele>147.0</ele><time>2026-03-29T09:35:34.708Z</time></trkpt><trkpt lat="45.3684457" lon="10.593214"><ele>147.0</ele><time>2026-03-29T09:35:35.708Z</time></trkpt><trkpt lat="45.368515" lon="10.5932464"><ele>147.0</ele><time>2026-03-29T09:35:36.708Z</time></trkpt><trkpt lat="45.3685726" lon="10.5932916"><ele>147.0</ele><time>2026-03-29T09:35:37.708Z</time></trkpt><trkpt lat="45.3686461" lon="10.5934187"><ele>147.0</ele><time>2026-03-29T09:35:39.708Z</time></trkpt><trkpt lat="45.3686872" lon="10.5935169"><ele>147.0</ele><time>2026-03-29T09:35:40.708Z</time></trkpt><trkpt lat="45.368734" lon="10.5936312"><ele>147.0</ele><time>2026-03-29T09:35:41.708Z</time></trkpt><trkpt lat="45.3687899" lon="10.5937461"><ele>147.0</ele><time>2026-03-29T09:35:42.708Z</time></trkpt><trkpt lat="45.3688489" lon="10.5938651"><ele>147.0</ele><time>2026-03-29T09:35:43.708Z</time></trkpt><trkpt lat="45.3688987" lon="10.5939692"><ele>147.0</ele><time>2026-03-29T09:35:44.709Z</time></trkpt><trkpt lat="45.3689458" lon="10.5940665"><ele>144.83333333333334</ele><time>2026-03-29T09:35:45.708Z</time></trkpt><trkpt lat="45.3689836" lon="10.5941687"><ele>142.66666666666666</ele><time>2026-03-29T09:35:46.708Z</time></trkpt><trkpt lat="45.3690018" lon="10.5942766"><ele>140.5</ele><time>2026-03-29T09:35:47.708Z</time></trkpt><trkpt lat="45.3690112" lon="10.5943922"><ele>138.33333333333331</ele><time>2026-03-29T09:35:48.708Z</time></trkpt><trkpt lat="45.3690098" lon="10.5945274"><ele>136.16666666666666</ele><time>2026-03-29T09:35:49.708Z</time></trkpt><trkpt lat="45.3690039" lon="10.5946715"><ele>134.0</ele><time>2026-03-29T09:35:50.708Z</time></trkpt><trkpt lat="45.36898" lon="10.5948163"><ele>133.6</ele><time>2026-03-29T09:35:51.708Z</time></trkpt><trkpt lat="45.3689634" lon="10.5949604"><ele>133.2</ele><time>2026-03-29T09:35:52.708Z</time></trkpt><trkpt lat="45.3689584" lon="10.5950927"><ele>132.79999999999998</ele><time>2026-03-29T09:35:53.708Z</time></trkpt><trkpt lat="45.3689553" lon="10.5952163"><ele>132.4</ele><time>2026-03-29T09:35:54.708Z</time></trkpt><trkpt lat="45.3689631" lon="10.5953327"><ele>132.0</ele><time>2026-03-29T09:35:55.708Z</time></trkpt><trkpt lat="45.3689811" lon="10.595454"><ele>132.0</ele><time>2026-03-29T09:35:56.708Z</time></trkpt><trkpt lat="45.3690101" lon="10.5955738"><ele>132.0</ele><time>2026-03-29T09:35:57.708Z</time></trkpt><trkpt lat="45.3690517" lon="10.5956883"><ele>132.0</ele><time>2026-03-29T09:35:58.708Z</time></trkpt><trkpt lat="45.369102" lon="10.5958137"><ele>132.0</ele><time>2026-03-29T09:35:59.708Z</time></trkpt><trkpt lat="45.3691503" lon="10.5959417"><ele>132.0</ele><time>2026-03-29T09:36:00.708Z</time></trkpt><trkpt lat="45.3691938" lon="10.5960631"><ele>132.0</ele><time>2026-03-29T09:36:01.708Z</time></trkpt><trkpt lat="45.36923" lon="10.5961686"><ele>132.0</ele><time>2026-03-29T09:36:02.708Z</time></trkpt><trkpt lat="45.3692561" lon="10.5962574"><ele>132.0</ele><time>2026-03-29T09:36:03.708Z</time></trkpt><trkpt lat="45.3692695" lon="10.5963827"><ele>132.0</ele><time>2026-03-29T09:36:05.708Z</time></trkpt><trkpt lat="45.3692305" lon="10.5964843"><ele>132.0</ele><time>2026-03-29T09:36:07.708Z</time></trkpt><trkpt lat="45.369165" lon="10.5965423"><ele>132.0</ele><time>2026-03-29T09:36:08.708Z</time></trkpt><trkpt lat="45.3690772" lon="10.5966081"><ele>131.0</ele><time>2026-03-29T09:36:09.708Z</time></trkpt><trkpt lat="45.3689905" lon="10.5966968"><ele>130.0</ele><time>2026-03-29T09:36:10.708Z</time></trkpt><trkpt lat="45.3689028" lon="10.5967969"><ele>129.0</ele><time>2026-03-29T09:36:11.708Z</time></trkpt><trkpt lat="45.3688093" lon="10.5969038"><ele>128.0</ele><time>2026-03-29T09:36:12.708Z</time></trkpt><trkpt lat="45.3687025" lon="10.5969903"><ele>131.25</ele><time>2026-03-29T09:36:13.708Z</time></trkpt><trkpt lat="45.3685874" lon="10.597017"><ele>134.5</ele><time>2026-03-29T09:36:14.708Z</time></trkpt><trkpt lat="45.3684731" lon="10.596983"><ele>137.75</ele><time>2026-03-29T09:36:15.709Z</time></trkpt><trkpt lat="45.3683568" lon="10.5969039"><ele>141.0</ele><time>2026-03-29T09:36:16.708Z</time></trkpt><trkpt lat="45.3682353" lon="10.5968104"><ele>141.0</ele><time>2026-03-29T09:36:17.708Z</time></trkpt><trkpt lat="45.3681181" lon="10.5967203"><ele>141.0</ele><time>2026-03-29T09:36:18.708Z</time></trkpt><trkpt lat="45.3679982" lon="10.5966373"><ele>141.0</ele><time>2026-03-29T09:36:19.708Z</time></trkpt><trkpt lat="45.3678771" lon="10.5965689"><ele>141.0</ele><time>2026-03-29T09:36:20.708Z</time></trkpt><trkpt lat="45.3677544" lon="10.5965236"><ele>144.0</ele><time>2026-03-29T09:36:21.708Z</time></trkpt><trkpt lat="45.3676315" lon="10.5965151"><ele>147.0</ele><time>2026-03-29T09:36:22.708Z</time></trkpt><trkpt lat="45.3674967" lon="10.5965484"><ele>150.0</ele><time>2026-03-29T09:36:23.708Z</time></trkpt><trkpt lat="45.3673652" lon="10.596622"><ele>153.0</ele><time>2026-03-29T09:36:24.708Z</time></trkpt><trkpt lat="45.3672373" lon="10.5967278"><ele>152.0</ele><time>2026-03-29T09:36:25.708Z</time></trkpt><trkpt lat="45.3671117" lon="10.5968358"><ele>151.0</ele><time>2026-03-29T09:36:26.708Z</time></trkpt><trkpt lat="45.3669747" lon="10.596947"><ele>150.0</ele><time>2026-03-29T09:36:27.708Z</time></trkpt><trkpt lat="45.3668334" lon="10.5970631"><ele>150.0</ele><time>2026-03-29T09:36:28.708Z</time></trkpt><trkpt lat="45.3666907" lon="10.5971813"><ele>150.0</ele><time>2026-03-29T09:36:29.708Z</time></trkpt><trkpt lat="45.366548" lon="10.5973059"><ele>150.0</ele><time>2026-03-29T09:36:30.708Z</time></trkpt><trkpt lat="45.3664051" lon="10.5974268"><ele>147.66666666666666</ele><time>2026-03-29T09:36:31.709Z</time></trkpt><trkpt lat="45.3662687" lon="10.5975397"><ele>145.33333333333331</ele><time>2026-03-29T09:36:32.708Z</time></trkpt><trkpt lat="45.3661407" lon="10.5976553"><ele>143.0</ele><time>2026-03-29T09:36:33.708Z</time></trkpt><trkpt lat="45.3660149" lon="10.5977547"><ele>143.25</ele><time>2026-03-29T09:36:34.708Z</time></trkpt><trkpt lat="45.3658913" lon="10.5978445"><ele>143.5</ele><time>2026-03-29T09:36:35.708Z</time></trkpt><trkpt lat="45.365759" lon="10.5979199"><ele>143.75</ele><time>2026-03-29T09:36:36.708Z</time></trkpt><trkpt lat="45.3656156" lon="10.597965"><ele>144.0</ele><time>2026-03-29T09:36:37.708Z</time></trkpt><trkpt lat="45.3654691" lon="10.5979885"><ele>144.0</ele><time>2026-03-29T09:36:38.708Z</time></trkpt><trkpt lat="45.3653358" lon="10.5980079"><ele>144.0</ele><time>2026-03-29T09:36:39.708Z</time></trkpt><trkpt lat="45.3652142" lon="10.5980179"><ele>144.0</ele><time>2026-03-29T09:36:40.708Z</time></trkpt><trkpt lat="45.3651107" lon="10.5980053"><ele>144.0</ele><time>2026-03-29T09:36:41.708Z</time></trkpt><trkpt lat="45.3650188" lon="10.5979573"><ele>144.0</ele><time>2026-03-29T09:36:42.708Z</time></trkpt><trkpt lat="45.3649445" lon="10.5978867"><ele>144.0</ele><time>2026-03-29T09:36:43.708Z</time></trkpt><trkpt lat="45.3648691" lon="10.5978342"><ele>144.0</ele><time>2026-03-29T09:36:44.708Z</time></trkpt><trkpt lat="45.3647903" lon="10.5978196"><ele>144.0</ele><time>2026-03-29T09:36:45.708Z</time></trkpt><trkpt lat="45.3647184" lon="10.5978353"><ele>144.0</ele><time>2026-03-29T09:36:46.708Z</time></trkpt><trkpt lat="45.3646587" lon="10.5978782"><ele>144.0</ele><time>2026-03-29T09:36:47.708Z</time></trkpt><trkpt lat="45.3646136" lon="10.5979515"><ele>143.0</ele><time>2026-03-29T09:36:48.708Z</time></trkpt><trkpt lat="45.3645899" lon="10.5980636"><ele>142.0</ele><time>2026-03-29T09:36:49.709Z</time></trkpt><trkpt lat="45.3645974" lon="10.5981884"><ele>141.0</ele><time>2026-03-29T09:36:50.708Z</time></trkpt><trkpt lat="45.3646215" lon="10.5983244"><ele>140.0</ele><time>2026-03-29T09:36:51.708Z</time></trkpt><trkpt lat="45.3646111" lon="10.5984754"><ele>139.0</ele><time>2026-03-29T09:36:52.708Z</time></trkpt><trkpt lat="45.3645634" lon="10.5986307"><ele>139.75</ele><time>2026-03-29T09:36:53.708Z</time></trkpt><trkpt lat="45.3644948" lon="10.5987999"><ele>140.5</ele><time>2026-03-29T09:36:54.708Z</time></trkpt><trkpt lat="45.3644174" lon="10.598982"><ele>141.25</ele><time>2026-03-29T09:36:55.708Z</time></trkpt><trkpt lat="45.3643361" lon="10.5991763"><ele>142.0</ele><time>2026-03-29T09:36:56.708Z</time></trkpt><trkpt lat="45.3642552" lon="10.5993711"><ele>143.66666666666669</ele><time>2026-03-29T09:36:57.708Z</time></trkpt><trkpt lat="45.3641736" lon="10.5995717"><ele>145.33333333333334</ele><time>2026-03-29T09:36:58.708Z</time></trkpt><trkpt lat="45.3640888" lon="10.5997719"><ele>147.0</ele><time>2026-03-29T09:36:59.708Z</time></trkpt><trkpt lat="45.3640007" lon="10.5999746"><ele>147.0</ele><time>2026-03-29T09:37:00.708Z</time></trkpt><trkpt lat="45.3639091" lon="10.600184"><ele>147.0</ele><time>2026-03-29T09:37:01.708Z</time></trkpt><trkpt lat="45.3638207" lon="10.6003971"><ele>147.0</ele><time>2026-03-29T09:37:02.708Z</time></trkpt><trkpt lat="45.3637307" lon="10.6006189"><ele>147.0</ele><time>2026-03-29T09:37:03.709Z</time></trkpt><trkpt lat="45.3636401" lon="10.6008417"><ele>147.0</ele><time>2026-03-29T09:37:04.708Z</time></trkpt><trkpt lat="45.3635463" lon="10.6010674"><ele>147.0</ele><time>2026-03-29T09:37:05.708Z</time></trkpt><trkpt lat="45.3634471" lon="10.6012976"><ele>147.0</ele><time>2026-03-29T09:37:06.708Z</time></trkpt><trkpt lat="45.3633493" lon="10.6015371"><ele>147.0</ele><time>2026-03-29T09:37:07.708Z</time></trkpt><trkpt lat="45.363258" lon="10.601791"><ele>147.0</ele><time>2026-03-29T09:37:08.708Z</time></trkpt><trkpt lat="45.3631737" lon="10.6020529"><ele>148.66666666666666</ele><time>2026-03-29T09:37:09.708Z</time></trkpt><trkpt lat="45.3630906" lon="10.6023183"><ele>150.33333333333331</ele><time>2026-03-29T09:37:10.708Z</time></trkpt><trkpt lat="45.3630026" lon="10.6025852"><ele>152.0</ele><time>2026-03-29T09:37:11.708Z</time></trkpt><trkpt lat="45.3629117" lon="10.6028494"><ele>148.66666666666666</ele><time>2026-03-29T09:37:12.708Z</time></trkpt><trkpt lat="45.3628154" lon="10.6031213"><ele>145.33333333333334</ele><time>2026-03-29T09:37:13.708Z</time></trkpt><trkpt lat="45.362716" lon="10.6033899"><ele>142.0</ele><time>2026-03-29T09:37:14.708Z</time></trkpt><trkpt lat="45.3626151" lon="10.6036374"><ele>144.0</ele><time>2026-03-29T09:37:15.708Z</time></trkpt><trkpt lat="45.3625195" lon="10.6038558"><ele>146.0</ele><time>2026-03-29T09:37:16.709Z</time></trkpt><trkpt lat="45.3624312" lon="10.6040391"><ele>148.0</ele><time>2026-03-29T09:37:17.708Z</time></trkpt><trkpt lat="45.3623519" lon="10.6041909"><ele>148.0</ele><time>2026-03-29T09:37:18.708Z</time></trkpt><trkpt lat="45.3622825" lon="10.6042991"><ele>148.0</ele><time>2026-03-29T09:37:19.708Z</time></trkpt><trkpt lat="45.3622097" lon="10.6043472"><ele>148.0</ele><time>2026-03-29T09:37:20.708Z</time></trkpt><trkpt lat="45.362129" lon="10.6043515"><ele>148.0</ele><time>2026-03-29T09:37:21.708Z</time></trkpt><trkpt lat="45.3620301" lon="10.6043393"><ele>148.0</ele><time>2026-03-29T09:37:22.708Z</time></trkpt><trkpt lat="45.3619142" lon="10.6043325"><ele>146.25</ele><time>2026-03-29T09:37:23.708Z</time></trkpt><trkpt lat="45.3617981" lon="10.6043147"><ele>144.5</ele><time>2026-03-29T09:37:24.708Z</time></trkpt><trkpt lat="45.3616856" lon="10.6042807"><ele>142.75</ele><time>2026-03-29T09:37:25.708Z</time></trkpt><trkpt lat="45.3615768" lon="10.6042237"><ele>141.0</ele><time>2026-03-29T09:37:26.708Z</time></trkpt><trkpt lat="45.3614586" lon="10.6041425"><ele>140.5</ele><time>2026-03-29T09:37:27.708Z</time></trkpt><trkpt lat="45.3613397" lon="10.6040481"><ele>140.0</ele><time>2026-03-29T09:37:28.709Z</time></trkpt><trkpt lat="45.3612279" lon="10.6039385"><ele>139.5</ele><time>2026-03-29T09:37:29.708Z</time></trkpt><trkpt lat="45.3611158" lon="10.6038148"><ele>139.0</ele><time>2026-03-29T09:37:30.708Z</time></trkpt><trkpt lat="45.3610082" lon="10.6036846"><ele>138.5</ele><time>2026-03-29T09:37:31.708Z</time></trkpt><trkpt lat="45.3609049" lon="10.6035459"><ele>138.0</ele><time>2026-03-29T09:37:32.708Z</time></trkpt><trkpt lat="45.3608106" lon="10.6034016"><ele>137.5</ele><time>2026-03-29T09:37:33.708Z</time></trkpt><trkpt lat="45.360725" lon="10.6032517"><ele>137.0</ele><time>2026-03-29T09:37:34.708Z</time></trkpt><trkpt lat="45.360648" lon="10.6030931"><ele>137.0</ele><time>2026-03-29T09:37:35.708Z</time></trkpt><trkpt lat="45.3605746" lon="10.6029299"><ele>137.0</ele><time>2026-03-29T09:37:36.708Z</time></trkpt><trkpt lat="45.3604907" lon="10.6027666"><ele>137.0</ele><time>2026-03-29T09:37:37.708Z</time></trkpt><trkpt lat="45.360404" lon="10.6025976"><ele>137.0</ele><time>2026-03-29T09:37:38.708Z</time></trkpt><trkpt lat="45.3603356" lon="10.6024404"><ele>137.0</ele><time>2026-03-29T09:37:39.708Z</time></trkpt><trkpt lat="45.3602822" lon="10.602275"><ele>137.0</ele><time>2026-03-29T09:37:40.708Z</time></trkpt><trkpt lat="45.360237" lon="10.6020985"><ele>137.0</ele><time>2026-03-29T09:37:41.708Z</time></trkpt><trkpt lat="45.3601913" lon="10.6019327"><ele>137.0</ele><time>2026-03-29T09:37:42.708Z</time></trkpt><trkpt lat="45.3601457" lon="10.6017874"><ele>137.0</ele><time>2026-03-29T09:37:43.708Z</time></trkpt><trkpt lat="45.360109" lon="10.601655"><ele>137.0</ele><time>2026-03-29T09:37:44.708Z</time></trkpt><trkpt lat="45.3600777" lon="10.6015394"><ele>137.0</ele><time>2026-03-29T09:37:45.709Z</time></trkpt><trkpt lat="45.3600477" lon="10.6014436"><ele>137.0</ele><time>2026-03-29T09:37:46.709Z</time></trkpt><trkpt lat="45.3600177" lon="10.6013511"><ele>137.0</ele><time>2026-03-29T09:37:47.708Z</time></trkpt><trkpt lat="45.3599836" lon="10.6012608"><ele>137.0</ele><time>2026-03-29T09:37:48.708Z</time></trkpt><trkpt lat="45.3599361" lon="10.6011723"><ele>137.0</ele><time>2026-03-29T09:37:49.708Z</time></trkpt><trkpt lat="45.3598752" lon="10.6010726"><ele>137.0</ele><time>2026-03-29T09:37:50.708Z</time></trkpt><trkpt lat="45.3598013" lon="10.6009672"><ele>137.0</ele><time>2026-03-29T09:37:51.708Z</time></trkpt><trkpt lat="45.3597168" lon="10.6008538"><ele>137.0</ele><time>2026-03-29T09:37:52.708Z</time></trkpt><trkpt lat="45.3596239" lon="10.6007217"><ele>137.0</ele><time>2026-03-29T09:37:53.708Z</time></trkpt><trkpt lat="45.3595318" lon="10.60058"><ele>137.0</ele><time>2026-03-29T09:37:54.708Z</time></trkpt><trkpt lat="45.3594439" lon="10.6004327"><ele>137.0</ele><time>2026-03-29T09:37:55.708Z</time></trkpt><trkpt lat="45.3593664" lon="10.6002915"><ele>137.0</ele><time>2026-03-29T09:37:56.708Z</time></trkpt><trkpt lat="45.3592948" lon="10.6001531"><ele>137.0</ele><time>2026-03-29T09:37:57.709Z</time></trkpt><trkpt lat="45.3592382" lon="10.6000144"><ele>136.0</ele><time>2026-03-29T09:37:58.708Z</time></trkpt><trkpt lat="45.3591949" lon="10.5998624"><ele>135.0</ele><time>2026-03-29T09:37:59.708Z</time></trkpt><trkpt lat="45.3591623" lon="10.5997087"><ele>134.0</ele><time>2026-03-29T09:38:00.708Z</time></trkpt><trkpt lat="45.3591266" lon="10.5995735"><ele>133.0</ele><time>2026-03-29T09:38:01.708Z</time></trkpt><trkpt lat="45.3590701" lon="10.5994597"><ele>132.0</ele><time>2026-03-29T09:38:02.708Z</time></trkpt><trkpt lat="45.3589949" lon="10.5993599"><ele>132.0</ele><time>2026-03-29T09:38:03.708Z</time></trkpt><trkpt lat="45.3588976" lon="10.5992598"><ele>132.0</ele><time>2026-03-29T09:38:04.708Z</time></trkpt><trkpt lat="45.358776" lon="10.5991462"><ele>132.0</ele><time>2026-03-29T09:38:05.708Z</time></trkpt><trkpt lat="45.3586684" lon="10.5990354"><ele>132.0</ele><time>2026-03-29T09:38:06.708Z</time></trkpt><trkpt lat="45.3585766" lon="10.5989264"><ele>132.25</ele><time>2026-03-29T09:38:07.708Z</time></trkpt><trkpt lat="45.35849" lon="10.5988181"><ele>132.5</ele><time>2026-03-29T09:38:08.708Z</time></trkpt><trkpt lat="45.3583994" lon="10.5986914"><ele>132.75</ele><time>2026-03-29T09:38:09.708Z</time></trkpt><trkpt lat="45.3583103" lon="10.5985601"><ele>133.0</ele><time>2026-03-29T09:38:10.708Z</time></trkpt><trkpt lat="45.3582338" lon="10.5984348"><ele>133.20000000000002</ele><time>2026-03-29T09:38:11.708Z</time></trkpt><trkpt lat="45.3581661" lon="10.5983079"><ele>133.4</ele><time>2026-03-29T09:38:12.708Z</time></trkpt><trkpt lat="45.3581044" lon="10.5981867"><ele>133.60000000000002</ele><time>2026-03-29T09:38:13.708Z</time></trkpt><trkpt lat="45.3580607" lon="10.5980909"><ele>133.8</ele><time>2026-03-29T09:38:14.708Z</time></trkpt><trkpt lat="45.3580007" lon="10.5979856"><ele>134.0</ele><time>2026-03-29T09:38:16.708Z</time></trkpt><trkpt lat="45.3578941" lon="10.5979235"><ele>133.8</ele><time>2026-03-29T09:38:18.708Z</time></trkpt><trkpt lat="45.3578182" lon="10.5979057"><ele>133.60000000000002</ele><time>2026-03-29T09:38:19.708Z</time></trkpt><trkpt lat="45.3577211" lon="10.5978802"><ele>133.4</ele><time>2026-03-29T09:38:20.708Z</time></trkpt><trkpt lat="45.357608" lon="10.5978507"><ele>133.20000000000002</ele><time>2026-03-29T09:38:21.708Z</time></trkpt><trkpt lat="45.357482" lon="10.5978112"><ele>133.0</ele><time>2026-03-29T09:38:22.708Z</time></trkpt><trkpt lat="45.3573456" lon="10.5977654"><ele>132.33333333333334</ele><time>2026-03-29T09:38:23.708Z</time></trkpt><trkpt lat="45.3571996" lon="10.5977192"><ele>131.66666666666666</ele><time>2026-03-29T09:38:24.708Z</time></trkpt><trkpt lat="45.3570474" lon="10.597672"><ele>131.0</ele><time>2026-03-29T09:38:25.708Z</time></trkpt><trkpt lat="45.3568892" lon="10.5976362"><ele>131.0</ele><time>2026-03-29T09:38:26.708Z</time></trkpt><trkpt lat="45.3567267" lon="10.5976309"><ele>131.0</ele><time>2026-03-29T09:38:27.708Z</time></trkpt><trkpt lat="45.3565573" lon="10.5976485"><ele>131.0</ele><time>2026-03-29T09:38:28.708Z</time></trkpt><trkpt lat="45.356384" lon="10.5976716"><ele>130.66666666666666</ele><time>2026-03-29T09:38:29.708Z</time></trkpt><trkpt lat="45.3562063" lon="10.5976939"><ele>130.33333333333334</ele><time>2026-03-29T09:38:30.708Z</time></trkpt><trkpt lat="45.3560272" lon="10.59771"><ele>130.0</ele><time>2026-03-29T09:38:31.708Z</time></trkpt><trkpt lat="45.3558461" lon="10.5977081"><ele>130.0</ele><time>2026-03-29T09:38:32.708Z</time></trkpt><trkpt lat="45.35567" lon="10.5976627"><ele>130.0</ele><time>2026-03-29T09:38:33.708Z</time></trkpt><trkpt lat="45.355493" lon="10.5975737"><ele>130.0</ele><time>2026-03-29T09:38:34.708Z</time></trkpt><trkpt lat="45.3553205" lon="10.5974771"><ele>129.0</ele><time>2026-03-29T09:38:35.708Z</time></trkpt><trkpt lat="45.3551532" lon="10.5974074"><ele>128.0</ele><time>2026-03-29T09:38:36.708Z</time></trkpt><trkpt lat="45.3549769" lon="10.5973741"><ele>127.0</ele><time>2026-03-29T09:38:37.708Z</time></trkpt><trkpt lat="45.3547993" lon="10.597384"><ele>128.66666666666669</ele><time>2026-03-29T09:38:38.708Z</time></trkpt><trkpt lat="45.3546209" lon="10.5974172"><ele>130.33333333333334</ele><time>2026-03-29T09:38:39.708Z</time></trkpt><trkpt lat="45.3544427" lon="10.5974587"><ele>132.0</ele><time>2026-03-29T09:38:40.708Z</time></trkpt><trkpt lat="45.3542824" lon="10.5975098"><ele>132.0</ele><time>2026-03-29T09:38:41.708Z</time></trkpt><trkpt lat="45.3541217" lon="10.5975835"><ele>132.0</ele><time>2026-03-29T09:38:42.708Z</time></trkpt><trkpt lat="45.353972" lon="10.5976677"><ele>132.0</ele><time>2026-03-29T09:38:43.708Z</time></trkpt><trkpt lat="45.3538349" lon="10.5977465"><ele>133.79999999999998</ele><time>2026-03-29T09:38:44.708Z</time></trkpt><trkpt lat="45.3537304" lon="10.5978574"><ele>135.6</ele><time>2026-03-29T09:38:45.708Z</time></trkpt><trkpt lat="45.3536679" lon="10.597976"><ele>137.39999999999998</ele><time>2026-03-29T09:38:46.708Z</time></trkpt><trkpt lat="45.3536212" lon="10.5980897"><ele>139.2</ele><time>2026-03-29T09:38:47.708Z</time></trkpt><trkpt lat="45.3535802" lon="10.5982067"><ele>141.0</ele><time>2026-03-29T09:38:48.708Z</time></trkpt><trkpt lat="45.3535472" lon="10.5983119"><ele>141.0</ele><time>2026-03-29T09:38:49.708Z</time></trkpt><trkpt lat="45.3535124" lon="10.5984262"><ele>141.0</ele><time>2026-03-29T09:38:50.708Z</time></trkpt><trkpt lat="45.3534707" lon="10.5985604"><ele>141.0</ele><time>2026-03-29T09:38:51.708Z</time></trkpt><trkpt lat="45.3534261" lon="10.5987064"><ele>141.0</ele><time>2026-03-29T09:38:52.708Z</time></trkpt><trkpt lat="45.3533745" lon="10.5988691"><ele>141.0</ele><time>2026-03-29T09:38:53.708Z</time></trkpt><trkpt lat="45.3533126" lon="10.5990597"><ele>140.66666666666666</ele><time>2026-03-29T09:38:54.708Z</time></trkpt><trkpt lat="45.3532414" lon="10.5992618"><ele>140.33333333333331</ele><time>2026-03-29T09:38:55.708Z</time></trkpt><trkpt lat="45.353154" lon="10.5994818"><ele>140.0</ele><time>2026-03-29T09:38:56.708Z</time></trkpt><trkpt lat="45.3530569" lon="10.5997108"><ele>147.33333333333331</ele><time>2026-03-29T09:38:57.708Z</time></trkpt><trkpt lat="45.3529639" lon="10.5999193"><ele>154.66666666666666</ele><time>2026-03-29T09:38:58.709Z</time></trkpt><trkpt lat="45.3528809" lon="10.6001163"><ele>162.0</ele><time>2026-03-29T09:38:59.708Z</time></trkpt><trkpt lat="45.3527977" lon="10.6003136"><ele>157.66666666666666</ele><time>2026-03-29T09:39:00.708Z</time></trkpt><trkpt lat="45.3527054" lon="10.6005112"><ele>153.33333333333331</ele><time>2026-03-29T09:39:01.708Z</time></trkpt><trkpt lat="45.352595" lon="10.6006874"><ele>149.0</ele><time>2026-03-29T09:39:02.708Z</time></trkpt><trkpt lat="45.352468" lon="10.6008355"><ele>149.0</ele><time>2026-03-29T09:39:03.708Z</time></trkpt><trkpt lat="45.3523502" lon="10.6009368"><ele>149.0</ele><time>2026-03-29T09:39:04.708Z</time></trkpt><trkpt lat="45.3522529" lon="10.6010059"><ele>149.0</ele><time>2026-03-29T09:39:05.708Z</time></trkpt><trkpt lat="45.3521751" lon="10.6010587"><ele>149.0</ele><time>2026-03-29T09:39:06.708Z</time></trkpt><trkpt lat="45.3520971" lon="10.6011528"><ele>149.0</ele><time>2026-03-29T09:39:08.708Z</time></trkpt><trkpt lat="45.3521039" lon="10.6013177"><ele>149.16666666666666</ele><time>2026-03-29T09:39:10.708Z</time></trkpt><trkpt lat="45.3521374" lon="10.6014227"><ele>149.33333333333331</ele><time>2026-03-29T09:39:11.708Z</time></trkpt><trkpt lat="45.3521754" lon="10.601536"><ele>149.5</ele><time>2026-03-29T09:39:12.708Z</time></trkpt><trkpt lat="45.3521945" lon="10.6016535"><ele>149.66666666666666</ele><time>2026-03-29T09:39:13.708Z</time></trkpt><trkpt lat="45.3521794" lon="10.6017691"><ele>149.83333333333334</ele><time>2026-03-29T09:39:14.708Z</time></trkpt><trkpt lat="45.3521501" lon="10.6018914"><ele>150.0</ele><time>2026-03-29T09:39:15.708Z</time></trkpt><trkpt lat="45.3521113" lon="10.6020241"><ele>149.0</ele><time>2026-03-29T09:39:16.708Z</time></trkpt><trkpt lat="45.3520708" lon="10.6021709"><ele>148.0</ele><time>2026-03-29T09:39:17.708Z</time></trkpt><trkpt lat="45.3520325" lon="10.6023312"><ele>147.0</ele><time>2026-03-29T09:39:18.708Z</time></trkpt><trkpt lat="45.3519985" lon="10.6024943"><ele>146.0</ele><time>2026-03-29T09:39:19.708Z</time></trkpt><trkpt lat="45.3519592" lon="10.6026628"><ele>146.0</ele><time>2026-03-29T09:39:20.708Z</time></trkpt><trkpt lat="45.3519175" lon="10.6028293"><ele>146.0</ele><time>2026-03-29T09:39:21.708Z</time></trkpt><trkpt lat="45.3518862" lon="10.6030041"><ele>146.0</ele><time>2026-03-29T09:39:22.708Z</time></trkpt><trkpt lat="45.3518713" lon="10.6031854"><ele>146.0</ele><time>2026-03-29T09:39:23.708Z</time></trkpt><trkpt lat="45.3518464" lon="10.6033683"><ele>146.0</ele><time>2026-03-29T09:39:24.708Z</time></trkpt><trkpt lat="45.3518227" lon="10.6035579"><ele>146.0</ele><time>2026-03-29T09:39:25.708Z</time></trkpt><trkpt lat="45.3518068" lon="10.6037454"><ele>146.0</ele><time>2026-03-29T09:39:26.708Z</time></trkpt><trkpt lat="45.3517954" lon="10.6039237"><ele>146.0</ele><time>2026-03-29T09:39:27.708Z</time></trkpt><trkpt lat="45.3517898" lon="10.6040915"><ele>146.0</ele><time>2026-03-29T09:39:28.708Z</time></trkpt><trkpt lat="45.3517891" lon="10.6042518"><ele>146.0</ele><time>2026-03-29T09:39:29.708Z</time></trkpt><trkpt lat="45.3517929" lon="10.6043975"><ele>146.0</ele><time>2026-03-29T09:39:30.708Z</time></trkpt><trkpt lat="45.3518136" lon="10.6045347"><ele>146.0</ele><time>2026-03-29T09:39:31.708Z</time></trkpt><trkpt lat="45.3518629" lon="10.6046667"><ele>146.0</ele><time>2026-03-29T09:39:32.708Z</time></trkpt><trkpt lat="45.3519297" lon="10.6048017"><ele>146.25</ele><time>2026-03-29T09:39:33.708Z</time></trkpt><trkpt lat="45.3520099" lon="10.6049514"><ele>146.5</ele><time>2026-03-29T09:39:34.708Z</time></trkpt><trkpt lat="45.3520999" lon="10.6051139"><ele>146.75</ele><time>2026-03-29T09:39:35.708Z</time></trkpt><trkpt lat="45.3522014" lon="10.6052928"><ele>147.0</ele><time>2026-03-29T09:39:36.708Z</time></trkpt><trkpt lat="45.3523049" lon="10.605486"><ele>142.66666666666666</ele><time>2026-03-29T09:39:37.709Z</time></trkpt><trkpt lat="45.3524075" lon="10.6056812"><ele>138.33333333333331</ele><time>2026-03-29T09:39:38.708Z</time></trkpt><trkpt lat="45.3525098" lon="10.6058736"><ele>134.0</ele><time>2026-03-29T09:39:39.708Z</time></trkpt><trkpt lat="45.3526064" lon="10.6060653"><ele>134.66666666666666</ele><time>2026-03-29T09:39:40.708Z</time></trkpt><trkpt lat="45.3526924" lon="10.606274"><ele>135.33333333333334</ele><time>2026-03-29T09:39:41.708Z</time></trkpt><trkpt lat="45.3527575" lon="10.6064935"><ele>136.0</ele><time>2026-03-29T09:39:42.708Z</time></trkpt><trkpt lat="45.3528048" lon="10.6067219"><ele>136.0</ele><time>2026-03-29T09:39:43.708Z</time></trkpt><trkpt lat="45.3528431" lon="10.6069514"><ele>136.0</ele><time>2026-03-29T09:39:44.708Z</time></trkpt><trkpt lat="45.3528793" lon="10.6071688"><ele>136.0</ele><time>2026-03-29T09:39:45.708Z</time></trkpt><trkpt lat="45.352921" lon="10.6073841"><ele>136.0</ele><time>2026-03-29T09:39:46.708Z</time></trkpt><trkpt lat="45.3529584" lon="10.6076005"><ele>136.0</ele><time>2026-03-29T09:39:47.708Z</time></trkpt><trkpt lat="45.3529851" lon="10.6078222"><ele>136.0</ele><time>2026-03-29T09:39:48.708Z</time></trkpt><trkpt lat="45.3529967" lon="10.6080506"><ele>136.0</ele><time>2026-03-29T09:39:49.708Z</time></trkpt><trkpt lat="45.3529847" lon="10.6082891"><ele>136.0</ele><time>2026-03-29T09:39:50.709Z</time></trkpt><trkpt lat="45.352954" lon="10.6085286"><ele>136.0</ele><time>2026-03-29T09:39:51.708Z</time></trkpt><trkpt lat="45.3529133" lon="10.6087713"><ele>136.33333333333334</ele><time>2026-03-29T09:39:52.708Z</time></trkpt><trkpt lat="45.3528702" lon="10.60902"><ele>136.66666666666666</ele><time>2026-03-29T09:39:53.708Z</time></trkpt><trkpt lat="45.3528332" lon="10.6092789"><ele>137.0</ele><time>2026-03-29T09:39:54.708Z</time></trkpt><trkpt lat="45.3528042" lon="10.6095446"><ele>137.66666666666666</ele><time>2026-03-29T09:39:55.708Z</time></trkpt><trkpt lat="45.3527878" lon="10.6098178"><ele>138.33333333333334</ele><time>2026-03-29T09:39:56.708Z</time></trkpt><trkpt lat="45.3527938" lon="10.6100946"><ele>139.0</ele><time>2026-03-29T09:39:57.708Z</time></trkpt><trkpt lat="45.3528259" lon="10.6103702"><ele>140.0</ele><time>2026-03-29T09:39:58.708Z</time></trkpt><trkpt lat="45.3528806" lon="10.6106448"><ele>141.0</ele><time>2026-03-29T09:39:59.708Z</time></trkpt><trkpt lat="45.3529567" lon="10.6109141"><ele>142.0</ele><time>2026-03-29T09:40:00.708Z</time></trkpt><trkpt lat="45.3530433" lon="10.6111804"><ele>137.66666666666669</ele><time>2026-03-29T09:40:01.708Z</time></trkpt><trkpt lat="45.3531114" lon="10.6114594"><ele>133.33333333333334</ele><time>2026-03-29T09:40:02.708Z</time></trkpt><trkpt lat="45.3531502" lon="10.6117468"><ele>129.0</ele><time>2026-03-29T09:40:03.708Z</time></trkpt><trkpt lat="45.3531645" lon="10.6120377"><ele>129.0</ele><time>2026-03-29T09:40:04.708Z</time></trkpt><trkpt lat="45.3531638" lon="10.6123345"><ele>129.0</ele><time>2026-03-29T09:40:05.708Z</time></trkpt><trkpt lat="45.3531705" lon="10.6126323"><ele>129.0</ele><time>2026-03-29T09:40:06.708Z</time></trkpt><trkpt lat="45.3532137" lon="10.6129263"><ele>129.33333333333334</ele><time>2026-03-29T09:40:07.708Z</time></trkpt><trkpt lat="45.3532757" lon="10.6132151"><ele>129.66666666666669</ele><time>2026-03-29T09:40:08.708Z</time></trkpt><trkpt lat="45.3533257" lon="10.6135101"><ele>130.0</ele><time>2026-03-29T09:40:09.708Z</time></trkpt><trkpt lat="45.3533588" lon="10.6138123"><ele>131.0</ele><time>2026-03-29T09:40:10.708Z</time></trkpt><trkpt lat="45.3533731" lon="10.6141172"><ele>132.0</ele><time>2026-03-29T09:40:11.708Z</time></trkpt><trkpt lat="45.3533683" lon="10.614423"><ele>133.0</ele><time>2026-03-29T09:40:12.708Z</time></trkpt><trkpt lat="45.3533531" lon="10.6147287"><ele>133.0</ele><time>2026-03-29T09:40:13.708Z</time></trkpt><trkpt lat="45.3533326" lon="10.6150313"><ele>133.0</ele><time>2026-03-29T09:40:14.708Z</time></trkpt><trkpt lat="45.3532998" lon="10.6153291"><ele>133.0</ele><time>2026-03-29T09:40:15.708Z</time></trkpt><trkpt lat="45.3532557" lon="10.6156238"><ele>132.66666666666669</ele><time>2026-03-29T09:40:16.708Z</time></trkpt><trkpt lat="45.3532083" lon="10.6159165"><ele>132.33333333333334</ele><time>2026-03-29T09:40:17.708Z</time></trkpt><trkpt lat="45.3531686" lon="10.6162115"><ele>132.0</ele><time>2026-03-29T09:40:18.708Z</time></trkpt><trkpt lat="45.3531449" lon="10.616512"><ele>132.0</ele><time>2026-03-29T09:40:19.708Z</time></trkpt><trkpt lat="45.3531362" lon="10.6168165"><ele>132.0</ele><time>2026-03-29T09:40:20.708Z</time></trkpt><trkpt lat="45.3531366" lon="10.6171248"><ele>132.0</ele><time>2026-03-29T09:40:21.708Z</time></trkpt><trkpt lat="45.3531395" lon="10.617435"><ele>132.33333333333334</ele><time>2026-03-29T09:40:22.708Z</time></trkpt><trkpt lat="45.3531409" lon="10.6177465"><ele>132.66666666666669</ele><time>2026-03-29T09:40:23.708Z</time></trkpt><trkpt lat="45.3531462" lon="10.6180592"><ele>133.0</ele><time>2026-03-29T09:40:24.708Z</time></trkpt><trkpt lat="45.3531605" lon="10.6183738"><ele>134.0</ele><time>2026-03-29T09:40:25.708Z</time></trkpt><trkpt lat="45.3531774" lon="10.6186702"><ele>135.0</ele><time>2026-03-29T09:40:26.708Z</time></trkpt><trkpt lat="45.3532025" lon="10.6189465"><ele>136.0</ele><time>2026-03-29T09:40:27.708Z</time></trkpt><trkpt lat="45.3532359" lon="10.6192156"><ele>135.66666666666669</ele><time>2026-03-29T09:40:28.708Z</time></trkpt><trkpt lat="45.3532802" lon="10.6194868"><ele>135.33333333333334</ele><time>2026-03-29T09:40:29.708Z</time></trkpt><trkpt lat="45.35334" lon="10.6197474"><ele>135.0</ele><time>2026-03-29T09:40:30.708Z</time></trkpt><trkpt lat="45.353428" lon="10.6199922"><ele>135.0</ele><time>2026-03-29T09:40:31.708Z</time></trkpt><trkpt lat="45.3535364" lon="10.620232"><ele>135.0</ele><time>2026-03-29T09:40:32.708Z</time></trkpt><trkpt lat="45.3536641" lon="10.6204628"><ele>135.0</ele><time>2026-03-29T09:40:33.708Z</time></trkpt><trkpt lat="45.3538025" lon="10.6206793"><ele>135.0</ele><time>2026-03-29T09:40:34.708Z</time></trkpt><trkpt lat="45.3539549" lon="10.6208722"><ele>135.0</ele><time>2026-03-29T09:40:35.708Z</time></trkpt><trkpt lat="45.3541282" lon="10.6210399"><ele>135.0</ele><time>2026-03-29T09:40:36.708Z</time></trkpt><trkpt lat="45.354311" lon="10.6211963"><ele>137.33333333333334</ele><time>2026-03-29T09:40:37.708Z</time></trkpt><trkpt lat="45.3544959" lon="10.621357"><ele>139.66666666666669</ele><time>2026-03-29T09:40:38.708Z</time></trkpt><trkpt lat="45.3546832" lon="10.6215219"><ele>142.0</ele><time>2026-03-29T09:40:39.708Z</time></trkpt><trkpt lat="45.3548719" lon="10.6216861"><ele>142.0</ele><time>2026-03-29T09:40:40.708Z</time></trkpt><trkpt lat="45.3550613" lon="10.6218503"><ele>142.0</ele><time>2026-03-29T09:40:41.708Z</time></trkpt><trkpt lat="45.3552506" lon="10.6220205"><ele>142.0</ele><time>2026-03-29T09:40:42.708Z</time></trkpt><trkpt lat="45.3554347" lon="10.6222073"><ele>144.0</ele><time>2026-03-29T09:40:43.708Z</time></trkpt><trkpt lat="45.3556158" lon="10.6224042"><ele>146.0</ele><time>2026-03-29T09:40:44.708Z</time></trkpt><trkpt lat="45.3557995" lon="10.6225977"><ele>146.0</ele><time>2026-03-29T09:40:45.708Z</time></trkpt><trkpt lat="45.3559901" lon="10.6227778"><ele>146.0</ele><time>2026-03-29T09:40:46.708Z</time></trkpt><trkpt lat="45.3561864" lon="10.6229404"><ele>150.5</ele><time>2026-03-29T09:40:47.708Z</time></trkpt><trkpt lat="45.3563858" lon="10.6230908"><ele>155.0</ele><time>2026-03-29T09:40:48.708Z</time></trkpt><trkpt lat="45.3565845" lon="10.6232385"><ele>155.0</ele><time>2026-03-29T09:40:49.708Z</time></trkpt><trkpt lat="45.3567767" lon="10.6233857"><ele>155.0</ele><time>2026-03-29T09:40:50.708Z</time></trkpt><trkpt lat="45.3569492" lon="10.6235308"><ele>155.0</ele><time>2026-03-29T09:40:51.708Z</time></trkpt><trkpt lat="45.3570954" lon="10.6236925"><ele>156.66666666666666</ele><time>2026-03-29T09:40:52.708Z</time></trkpt><trkpt lat="45.3572196" lon="10.623885"><ele>158.33333333333334</ele><time>2026-03-29T09:40:53.708Z</time></trkpt><trkpt lat="45.3573121" lon="10.6241088"><ele>160.0</ele><time>2026-03-29T09:40:54.708Z</time></trkpt><trkpt lat="45.3573646" lon="10.6243513"><ele>160.33333333333334</ele><time>2026-03-29T09:40:55.708Z</time></trkpt><trkpt lat="45.3573804" lon="10.6245844"><ele>160.66666666666666</ele><time>2026-03-29T09:40:56.708Z</time></trkpt><trkpt lat="45.3573853" lon="10.6248236"><ele>161.0</ele><time>2026-03-29T09:40:57.708Z</time></trkpt><trkpt lat="45.357374" lon="10.6250651"><ele>161.0</ele><time>2026-03-29T09:40:58.708Z</time></trkpt><trkpt lat="45.3573492" lon="10.6253099"><ele>161.0</ele><time>2026-03-29T09:40:59.708Z</time></trkpt><trkpt lat="45.3573213" lon="10.6255581"><ele>161.0</ele><time>2026-03-29T09:41:00.708Z</time></trkpt><trkpt lat="45.3572886" lon="10.6258096"><ele>161.0</ele><time>2026-03-29T09:41:01.708Z</time></trkpt><trkpt lat="45.3572474" lon="10.626065"><ele>161.0</ele><time>2026-03-29T09:41:02.708Z</time></trkpt><trkpt lat="45.3571868" lon="10.6263183"><ele>161.0</ele><time>2026-03-29T09:41:03.708Z</time></trkpt><trkpt lat="45.3571102" lon="10.6265684"><ele>161.0</ele><time>2026-03-29T09:41:04.709Z</time></trkpt><trkpt lat="45.3570311" lon="10.6268107"><ele>161.0</ele><time>2026-03-29T09:41:05.708Z</time></trkpt><trkpt lat="45.3569505" lon="10.6270312"><ele>161.0</ele><time>2026-03-29T09:41:06.708Z</time></trkpt><trkpt lat="45.3568788" lon="10.6271881"><ele>159.5</ele><time>2026-03-29T09:41:07.708Z</time></trkpt><trkpt lat="45.35681" lon="10.6273213"><ele>158.0</ele><time>2026-03-29T09:41:08.708Z</time></trkpt><trkpt lat="45.3567414" lon="10.6274455"><ele>156.5</ele><time>2026-03-29T09:41:09.708Z</time></trkpt><trkpt lat="45.3566705" lon="10.6275687"><ele>155.0</ele><time>2026-03-29T09:41:10.708Z</time></trkpt><trkpt lat="45.3565963" lon="10.6276966"><ele>155.0</ele><time>2026-03-29T09:41:11.708Z</time></trkpt><trkpt lat="45.356539" lon="10.6277951"><ele>155.0</ele><time>2026-03-29T09:41:12.708Z</time></trkpt><trkpt lat="45.3564945" lon="10.6278638"><ele>155.0</ele><time>2026-03-29T09:41:13.708Z</time></trkpt><trkpt lat="45.3564479" lon="10.6279294"><ele>155.0</ele><time>2026-03-29T09:41:15.708Z</time></trkpt><trkpt lat="45.3565229" lon="10.6278709"><ele>155.0</ele><time>2026-03-29T09:41:22.708Z</time></trkpt><trkpt lat="45.3565685" lon="10.6277826"><ele>155.0</ele><time>2026-03-29T09:41:23.708Z</time></trkpt><trkpt lat="45.3566231" lon="10.6276791"><ele>155.0</ele><time>2026-03-29T09:41:24.708Z</time></trkpt><trkpt lat="45.3566834" lon="10.6275631"><ele>155.0</ele><time>2026-03-29T09:41:25.708Z</time></trkpt><trkpt lat="45.3567374" lon="10.6274606"><ele>155.0</ele><time>2026-03-29T09:41:26.708Z</time></trkpt><trkpt lat="45.3567849" lon="10.627379"><ele>155.0</ele><time>2026-03-29T09:41:27.708Z</time></trkpt><trkpt lat="45.3568678" lon="10.6273459"><ele>155.0</ele><time>2026-03-29T09:41:29.708Z</time></trkpt><trkpt lat="45.3568806" lon="10.6274541"><ele>155.0</ele><time>2026-03-29T09:41:31.708Z</time></trkpt><trkpt lat="45.3568505" lon="10.6275575"><ele>155.0</ele><time>2026-03-29T09:41:32.708Z</time></trkpt><trkpt lat="45.3567975" lon="10.6276929"><ele>155.0</ele><time>2026-03-29T09:41:33.708Z</time></trkpt><trkpt lat="45.3567486" lon="10.6278466"><ele>155.0</ele><time>2026-03-29T09:41:34.708Z</time></trkpt><trkpt lat="45.356703" lon="10.6280079"><ele>155.0</ele><time>2026-03-29T09:41:35.708Z</time></trkpt><trkpt lat="45.3566726" lon="10.6281344"><ele>155.0</ele><time>2026-03-29T09:41:36.708Z</time></trkpt><trkpt lat="45.3566685" lon="10.6282269"><ele>154.0</ele><time>2026-03-29T09:41:37.708Z</time></trkpt><trkpt lat="45.3567294" lon="10.6283237"><ele>153.0</ele><time>2026-03-29T09:41:39.708Z</time></trkpt><trkpt lat="45.3568483" lon="10.6283237"><ele>152.0</ele><time>2026-03-29T09:41:41.708Z</time></trkpt><trkpt lat="45.3569375" lon="10.6283032"><ele>151.0</ele><time>2026-03-29T09:41:42.708Z</time></trkpt><trkpt lat="45.3570508" lon="10.6282937"><ele>150.0</ele><time>2026-03-29T09:41:43.708Z</time></trkpt><trkpt lat="45.3571853" lon="10.6283041"><ele>150.5</ele><time>2026-03-29T09:41:44.708Z</time></trkpt><trkpt lat="45.3573144" lon="10.6283149"><ele>151.0</ele><time>2026-03-29T09:41:45.708Z</time></trkpt><trkpt lat="45.3574208" lon="10.6283081"><ele>151.5</ele><time>2026-03-29T09:41:46.708Z</time></trkpt><trkpt lat="45.3575228" lon="10.6282727"><ele>152.0</ele><time>2026-03-29T09:41:47.708Z</time></trkpt><trkpt lat="45.3576292" lon="10.6282025"><ele>152.0</ele><time>2026-03-29T09:41:48.708Z</time></trkpt><trkpt lat="45.3577401" lon="10.6281011"><ele>152.0</ele><time>2026-03-29T09:41:49.708Z</time></trkpt><trkpt lat="45.3578436" lon="10.6279806"><ele>152.0</ele><time>2026-03-29T09:41:50.709Z</time></trkpt><trkpt lat="45.357933" lon="10.6278494"><ele>152.0</ele><time>2026-03-29T09:41:51.708Z</time></trkpt><trkpt lat="45.3580233" lon="10.6277375"><ele>152.0</ele><time>2026-03-29T09:41:52.708Z</time></trkpt><trkpt lat="45.3581245" lon="10.6276507"><ele>152.0</ele><time>2026-03-29T09:41:53.708Z</time></trkpt><trkpt lat="45.3582413" lon="10.6275844"><ele>152.0</ele><time>2026-03-29T09:41:54.708Z</time></trkpt><trkpt lat="45.3583544" lon="10.6275297"><ele>152.0</ele><time>2026-03-29T09:41:55.708Z</time></trkpt><trkpt lat="45.358456" lon="10.6274492"><ele>152.0</ele><time>2026-03-29T09:41:56.708Z</time></trkpt><trkpt lat="45.3585542" lon="10.6273509"><ele>152.0</ele><time>2026-03-29T09:41:57.708Z</time></trkpt><trkpt lat="45.3586349" lon="10.627236"><ele>152.0</ele><time>2026-03-29T09:41:58.708Z</time></trkpt><trkpt lat="45.3586937" lon="10.6271071"><ele>152.0</ele><time>2026-03-29T09:41:59.708Z</time></trkpt><trkpt lat="45.3587338" lon="10.6269674"><ele>152.0</ele><time>2026-03-29T09:42:00.708Z</time></trkpt><trkpt lat="45.3587594" lon="10.6268078"><ele>151.0</ele><time>2026-03-29T09:42:01.709Z</time></trkpt><trkpt lat="45.3587797" lon="10.6266307"><ele>150.0</ele><time>2026-03-29T09:42:02.708Z</time></trkpt><trkpt lat="45.358805" lon="10.6264447"><ele>149.0</ele><time>2026-03-29T09:42:03.708Z</time></trkpt><trkpt lat="45.3588416" lon="10.6262618"><ele>148.0</ele><time>2026-03-29T09:42:04.708Z</time></trkpt><trkpt lat="45.3588965" lon="10.6260972"><ele>148.0</ele><time>2026-03-29T09:42:05.708Z</time></trkpt><trkpt lat="45.3589646" lon="10.6259514"><ele>148.0</ele><time>2026-03-29T09:42:06.708Z</time></trkpt><trkpt lat="45.3590408" lon="10.6258268"><ele>148.0</ele><time>2026-03-29T09:42:07.708Z</time></trkpt><trkpt lat="45.3591225" lon="10.6257241"><ele>148.0</ele><time>2026-03-29T09:42:08.708Z</time></trkpt><trkpt lat="45.3592022" lon="10.6256416"><ele>148.0</ele><time>2026-03-29T09:42:09.708Z</time></trkpt><trkpt lat="45.3592753" lon="10.6255825"><ele>148.0</ele><time>2026-03-29T09:42:10.708Z</time></trkpt><trkpt lat="45.3593391" lon="10.6255515"><ele>148.0</ele><time>2026-03-29T09:42:11.708Z</time></trkpt><trkpt lat="45.3594103" lon="10.6255304"><ele>148.0</ele><time>2026-03-29T09:42:14.708Z</time></trkpt><trkpt lat="45.359484" lon="10.6255076"><ele>148.0</ele><time>2026-03-29T09:42:16.708Z</time></trkpt><trkpt lat="45.3595576" lon="10.6255235"><ele>148.0</ele><time>2026-03-29T09:42:17.708Z</time></trkpt><trkpt lat="45.3596473" lon="10.6255629"><ele>148.0</ele><time>2026-03-29T09:42:18.708Z</time></trkpt><trkpt lat="45.3597395" lon="10.6256204"><ele>148.25</ele><time>2026-03-29T09:42:19.708Z</time></trkpt><trkpt lat="45.3598416" lon="10.6256812"><ele>148.5</ele><time>2026-03-29T09:42:20.708Z</time></trkpt><trkpt lat="45.3599491" lon="10.6257396"><ele>148.75</ele><time>2026-03-29T09:42:21.708Z</time></trkpt><trkpt lat="45.3600567" lon="10.6257994"><ele>149.0</ele><time>2026-03-29T09:42:22.708Z</time></trkpt><trkpt lat="45.3601627" lon="10.625859"><ele>149.0</ele><time>2026-03-29T09:42:23.709Z</time></trkpt><trkpt lat="45.360265" lon="10.6259265"><ele>149.0</ele><time>2026-03-29T09:42:24.709Z</time></trkpt><trkpt lat="45.3603619" lon="10.6260062"><ele>149.0</ele><time>2026-03-29T09:42:25.708Z</time></trkpt><trkpt lat="45.3604551" lon="10.6260977"><ele>149.0</ele><time>2026-03-29T09:42:26.708Z</time></trkpt><trkpt lat="45.3605528" lon="10.6261997"><ele>150.0</ele><time>2026-03-29T09:42:27.709Z</time></trkpt><trkpt lat="45.3606564" lon="10.6263025"><ele>151.0</ele><time>2026-03-29T09:42:28.708Z</time></trkpt><trkpt lat="45.360764" lon="10.626408"><ele>152.0</ele><time>2026-03-29T09:42:29.708Z</time></trkpt><trkpt lat="45.3608717" lon="10.626516"><ele>153.0</ele><time>2026-03-29T09:42:30.708Z</time></trkpt><trkpt lat="45.3609686" lon="10.6266122"><ele>153.0</ele><time>2026-03-29T09:42:31.708Z</time></trkpt><trkpt lat="45.3610584" lon="10.6267058"><ele>153.0</ele><time>2026-03-29T09:42:32.708Z</time></trkpt><trkpt lat="45.3611452" lon="10.6268003"><ele>153.0</ele><time>2026-03-29T09:42:33.708Z</time></trkpt><trkpt lat="45.3612239" lon="10.6268805"><ele>153.0</ele><time>2026-03-29T09:42:34.708Z</time></trkpt><trkpt lat="45.3613146" lon="10.6269664"><ele>153.0</ele><time>2026-03-29T09:42:35.708Z</time></trkpt><trkpt lat="45.3614168" lon="10.6270526"><ele>153.0</ele><time>2026-03-29T09:42:36.708Z</time></trkpt><trkpt lat="45.3615246" lon="10.6271457"><ele>153.0</ele><time>2026-03-29T09:42:37.708Z</time></trkpt><trkpt lat="45.3616411" lon="10.62724"><ele>153.0</ele><time>2026-03-29T09:42:38.708Z</time></trkpt><trkpt lat="45.3617577" lon="10.6273221"><ele>153.0</ele><time>2026-03-29T09:42:39.708Z</time></trkpt><trkpt lat="45.3618667" lon="10.6273982"><ele>153.0</ele><time>2026-03-29T09:42:40.708Z</time></trkpt><trkpt lat="45.3619804" lon="10.6274663"><ele>153.0</ele><time>2026-03-29T09:42:41.708Z</time></trkpt><trkpt lat="45.362092" lon="10.6275156"><ele>153.0</ele><time>2026-03-29T09:42:42.708Z</time></trkpt><trkpt lat="45.3622003" lon="10.6275457"><ele>153.0</ele><time>2026-03-29T09:42:43.708Z</time></trkpt><trkpt lat="45.3622935" lon="10.6275844"><ele>153.0</ele><time>2026-03-29T09:42:44.708Z</time></trkpt><trkpt lat="45.3623791" lon="10.6276028"><ele>153.0</ele><time>2026-03-29T09:42:45.708Z</time></trkpt><trkpt lat="45.3624613" lon="10.6276038"><ele>153.0</ele><time>2026-03-29T09:42:46.708Z</time></trkpt><trkpt lat="45.3625324" lon="10.6275703"><ele>153.0</ele><time>2026-03-29T09:42:47.708Z</time></trkpt><trkpt lat="45.3625956" lon="10.627507"><ele>153.0</ele><time>2026-03-29T09:42:48.708Z</time></trkpt><trkpt lat="45.362664" lon="10.6274372"><ele>153.0</ele><time>2026-03-29T09:42:49.708Z</time></trkpt><trkpt lat="45.3627332" lon="10.6273724"><ele>153.0</ele><time>2026-03-29T09:42:50.708Z</time></trkpt><trkpt lat="45.362805" lon="10.6273184"><ele>153.0</ele><time>2026-03-29T09:42:51.708Z</time></trkpt><trkpt lat="45.3628797" lon="10.6272728"><ele>153.0</ele><time>2026-03-29T09:42:52.708Z</time></trkpt><trkpt lat="45.3629514" lon="10.6272346"><ele>153.0</ele><time>2026-03-29T09:42:53.708Z</time></trkpt><trkpt lat="45.3630163" lon="10.6272029"><ele>153.0</ele><time>2026-03-29T09:42:54.708Z</time></trkpt><trkpt lat="45.3630742" lon="10.6271641"><ele>153.0</ele><time>2026-03-29T09:42:55.708Z</time></trkpt><trkpt lat="45.3631247" lon="10.6270438"><ele>153.0</ele><time>2026-03-29T09:42:57.708Z</time></trkpt><trkpt lat="45.3631157" lon="10.6268768"><ele>152.8</ele><time>2026-03-29T09:42:59.708Z</time></trkpt><trkpt lat="45.3631087" lon="10.6267519"><ele>152.60000000000002</ele><time>2026-03-29T09:43:00.708Z</time></trkpt><trkpt lat="45.363102" lon="10.6266025"><ele>152.39999999999998</ele><time>2026-03-29T09:43:01.708Z</time></trkpt><trkpt lat="45.3630891" lon="10.6264302"><ele>152.2</ele><time>2026-03-29T09:43:02.708Z</time></trkpt><trkpt lat="45.3630833" lon="10.6262598"><ele>152.0</ele><time>2026-03-29T09:43:03.708Z</time></trkpt><trkpt lat="45.3630784" lon="10.6261059"><ele>151.6</ele><time>2026-03-29T09:43:04.708Z</time></trkpt><trkpt lat="45.3630779" lon="10.6259515"><ele>151.2</ele><time>2026-03-29T09:43:05.708Z</time></trkpt><trkpt lat="45.363088" lon="10.6258055"><ele>150.8</ele><time>2026-03-29T09:43:06.708Z</time></trkpt><trkpt lat="45.3631077" lon="10.6256778"><ele>150.4</ele><time>2026-03-29T09:43:07.708Z</time></trkpt><trkpt lat="45.3631434" lon="10.6255599"><ele>150.0</ele><time>2026-03-29T09:43:08.708Z</time></trkpt><trkpt lat="45.3631958" lon="10.6254266"><ele>150.0</ele><time>2026-03-29T09:43:09.708Z</time></trkpt><trkpt lat="45.3632609" lon="10.6253021"><ele>150.0</ele><time>2026-03-29T09:43:10.708Z</time></trkpt><trkpt lat="45.3633247" lon="10.6251892"><ele>150.0</ele><time>2026-03-29T09:43:11.708Z</time></trkpt><trkpt lat="45.3633875" lon="10.6250659"><ele>150.0</ele><time>2026-03-29T09:43:12.708Z</time></trkpt><trkpt lat="45.3634482" lon="10.6249316"><ele>150.0</ele><time>2026-03-29T09:43:13.708Z</time></trkpt><trkpt lat="45.363506" lon="10.6247881"><ele>150.0</ele><time>2026-03-29T09:43:14.708Z</time></trkpt><trkpt lat="45.3635697" lon="10.6246426"><ele>150.0</ele><time>2026-03-29T09:43:15.708Z</time></trkpt><trkpt lat="45.3636254" lon="10.624495"><ele>150.0</ele><time>2026-03-29T09:43:16.708Z</time></trkpt><trkpt lat="45.3636707" lon="10.6243635"><ele>150.0</ele><time>2026-03-29T09:43:17.708Z</time></trkpt><trkpt lat="45.3637237" lon="10.6242432"><ele>150.0</ele><time>2026-03-29T09:43:18.708Z</time></trkpt><trkpt lat="45.3637871" lon="10.6241077"><ele>149.5</ele><time>2026-03-29T09:43:19.708Z</time></trkpt><trkpt lat="45.3638577" lon="10.6239712"><ele>149.0</ele><time>2026-03-29T09:43:20.708Z</time></trkpt><trkpt lat="45.3639365" lon="10.6238356"><ele>148.5</ele><time>2026-03-29T09:43:21.708Z</time></trkpt><trkpt lat="45.3640164" lon="10.6237032"><ele>148.0</ele><time>2026-03-29T09:43:22.708Z</time></trkpt><trkpt lat="45.3640931" lon="10.6235861"><ele>148.0</ele><time>2026-03-29T09:43:23.708Z</time></trkpt><trkpt lat="45.3641619" lon="10.623477"><ele>148.0</ele><time>2026-03-29T09:43:24.708Z</time></trkpt><trkpt lat="45.3642206" lon="10.6233825"><ele>148.0</ele><time>2026-03-29T09:43:25.708Z</time></trkpt><trkpt lat="45.3642526" lon="10.6232901"><ele>148.0</ele><time>2026-03-29T09:43:26.708Z</time></trkpt><trkpt lat="45.364256" lon="10.6231394"><ele>148.0</ele><time>2026-03-29T09:43:28.709Z</time></trkpt><trkpt lat="45.3641937" lon="10.6229662"><ele>148.0</ele><time>2026-03-29T09:43:30.708Z</time></trkpt><trkpt lat="45.3641449" lon="10.6228443"><ele>148.0</ele><time>2026-03-29T09:43:31.708Z</time></trkpt><trkpt lat="45.3640847" lon="10.6227014"><ele>148.0</ele><time>2026-03-29T09:43:32.708Z</time></trkpt><trkpt lat="45.3640296" lon="10.6225634"><ele>148.0</ele><time>2026-03-29T09:43:33.709Z</time></trkpt><trkpt lat="45.36398" lon="10.6224279"><ele>148.0</ele><time>2026-03-29T09:43:34.708Z</time></trkpt><trkpt lat="45.3639406" lon="10.6222922"><ele>147.4</ele><time>2026-03-29T09:43:35.708Z</time></trkpt><trkpt lat="45.3639216" lon="10.6221498"><ele>146.8</ele><time>2026-03-29T09:43:36.708Z</time></trkpt><trkpt lat="45.3639134" lon="10.6219978"><ele>146.2</ele><time>2026-03-29T09:43:37.708Z</time></trkpt><trkpt lat="45.3639158" lon="10.6218431"><ele>145.6</ele><time>2026-03-29T09:43:38.708Z</time></trkpt><trkpt lat="45.3639291" lon="10.621699"><ele>145.0</ele><time>2026-03-29T09:43:39.708Z</time></trkpt><trkpt lat="45.3639522" lon="10.621579"><ele>145.0</ele><time>2026-03-29T09:43:40.708Z</time></trkpt><trkpt lat="45.3639741" lon="10.6214505"><ele>145.0</ele><time>2026-03-29T09:43:41.708Z</time></trkpt><trkpt lat="45.363987" lon="10.6213131"><ele>145.0</ele><time>2026-03-29T09:43:42.708Z</time></trkpt><trkpt lat="45.3639902" lon="10.6211821"><ele>145.0</ele><time>2026-03-29T09:43:43.708Z</time></trkpt><trkpt lat="45.3639811" lon="10.6210479"><ele>145.0</ele><time>2026-03-29T09:43:44.708Z</time></trkpt><trkpt lat="45.3639608" lon="10.6209108"><ele>145.0</ele><time>2026-03-29T09:43:45.708Z</time></trkpt><trkpt lat="45.3639437" lon="10.6207821"><ele>145.0</ele><time>2026-03-29T09:43:46.708Z</time></trkpt><trkpt lat="45.3639215" lon="10.6206697"><ele>145.0</ele><time>2026-03-29T09:43:47.708Z</time></trkpt><trkpt lat="45.3638935" lon="10.6205736"><ele>145.0</ele><time>2026-03-29T09:43:48.708Z</time></trkpt><trkpt lat="45.363847" lon="10.6204777"><ele>145.0</ele><time>2026-03-29T09:43:49.708Z</time></trkpt><trkpt lat="45.3637855" lon="10.6203839"><ele>145.0</ele><time>2026-03-29T09:43:50.708Z</time></trkpt><trkpt lat="45.3637338" lon="10.6202889"><ele>146.4</ele><time>2026-03-29T09:43:51.708Z</time></trkpt><trkpt lat="45.3637018" lon="10.6201936"><ele>147.8</ele><time>2026-03-29T09:43:52.708Z</time></trkpt><trkpt lat="45.3636817" lon="10.6200745"><ele>149.2</ele><time>2026-03-29T09:43:53.708Z</time></trkpt><trkpt lat="45.3636776" lon="10.619941"><ele>150.6</ele><time>2026-03-29T09:43:54.708Z</time></trkpt><trkpt lat="45.3636717" lon="10.6197976"><ele>152.0</ele><time>2026-03-29T09:43:55.708Z</time></trkpt><trkpt lat="45.3636578" lon="10.6196478"><ele>152.0</ele><time>2026-03-29T09:43:56.708Z</time></trkpt><trkpt lat="45.3636441" lon="10.6195161"><ele>152.0</ele><time>2026-03-29T09:43:57.708Z</time></trkpt><trkpt lat="45.3636336" lon="10.6194075"><ele>152.0</ele><time>2026-03-29T09:43:58.708Z</time></trkpt><trkpt lat="45.3636306" lon="10.6193179"><ele>152.0</ele><time>2026-03-29T09:43:59.708Z</time></trkpt><trkpt lat="45.3636402" lon="10.6192274"><ele>152.0</ele><time>2026-03-29T09:44:00.708Z</time></trkpt><trkpt lat="45.3636658" lon="10.6191271"><ele>152.0</ele><time>2026-03-29T09:44:01.708Z</time></trkpt><trkpt lat="45.3637061" lon="10.6190096"><ele>152.2</ele><time>2026-03-29T09:44:02.708Z</time></trkpt><trkpt lat="45.363751" lon="10.618878"><ele>152.39999999999998</ele><time>2026-03-29T09:44:03.708Z</time></trkpt><trkpt lat="45.3637932" lon="10.6187481"><ele>152.60000000000002</ele><time>2026-03-29T09:44:04.708Z</time></trkpt><trkpt lat="45.3638406" lon="10.6186162"><ele>152.8</ele><time>2026-03-29T09:44:05.709Z</time></trkpt><trkpt lat="45.3638924" lon="10.6184723"><ele>153.0</ele><time>2026-03-29T09:44:06.708Z</time></trkpt><trkpt lat="45.3639475" lon="10.6183207"><ele>151.5</ele><time>2026-03-29T09:44:07.708Z</time></trkpt><trkpt lat="45.3640072" lon="10.6181526"><ele>150.0</ele><time>2026-03-29T09:44:08.708Z</time></trkpt><trkpt lat="45.3640695" lon="10.6179758"><ele>148.5</ele><time>2026-03-29T09:44:09.708Z</time></trkpt><trkpt lat="45.3641295" lon="10.6177938"><ele>147.0</ele><time>2026-03-29T09:44:10.708Z</time></trkpt><trkpt lat="45.3641862" lon="10.6176183"><ele>147.0</ele><time>2026-03-29T09:44:11.708Z</time></trkpt><trkpt lat="45.3642389" lon="10.617453"><ele>147.0</ele><time>2026-03-29T09:44:12.708Z</time></trkpt><trkpt lat="45.3642898" lon="10.6172949"><ele>147.0</ele><time>2026-03-29T09:44:13.708Z</time></trkpt><trkpt lat="45.3643403" lon="10.6171408"><ele>147.0</ele><time>2026-03-29T09:44:14.709Z</time></trkpt><trkpt lat="45.3643886" lon="10.617004"><ele>146.66666666666666</ele><time>2026-03-29T09:44:15.708Z</time></trkpt><trkpt lat="45.3644291" lon="10.6168828"><ele>146.33333333333334</ele><time>2026-03-29T09:44:16.708Z</time></trkpt><trkpt lat="45.3644657" lon="10.6167863"><ele>146.0</ele><time>2026-03-29T09:44:17.708Z</time></trkpt><trkpt lat="45.3645109" lon="10.6167206"><ele>145.66666666666669</ele><time>2026-03-29T09:44:18.708Z</time></trkpt><trkpt lat="45.3646214" lon="10.616694"><ele>145.33333333333334</ele><time>2026-03-29T09:44:20.708Z</time></trkpt><trkpt lat="45.3646942" lon="10.6166946"><ele>145.0</ele><time>2026-03-29T09:44:21.708Z</time></trkpt><trkpt lat="45.3647595" lon="10.6166842"><ele>144.33333333333334</ele><time>2026-03-29T09:44:22.708Z</time></trkpt><trkpt lat="45.3648231" lon="10.616652"><ele>143.66666666666669</ele><time>2026-03-29T09:44:23.708Z</time></trkpt><trkpt lat="45.3648803" lon="10.6166115"><ele>143.0</ele><time>2026-03-29T09:44:24.708Z</time></trkpt><trkpt lat="45.3649471" lon="10.6164823"><ele>142.33333333333334</ele><time>2026-03-29T09:44:26.708Z</time></trkpt><trkpt lat="45.3649469" lon="10.6162919"><ele>141.66666666666666</ele><time>2026-03-29T09:44:28.708Z</time></trkpt><trkpt lat="45.3649433" lon="10.6161902"><ele>141.0</ele><time>2026-03-29T09:44:29.708Z</time></trkpt><trkpt lat="45.3649621" lon="10.6161006"><ele>140.4</ele><time>2026-03-29T09:44:30.708Z</time></trkpt><trkpt lat="45.364997" lon="10.6160252"><ele>139.8</ele><time>2026-03-29T09:44:31.708Z</time></trkpt><trkpt lat="45.365044" lon="10.6159594"><ele>139.20000000000002</ele><time>2026-03-29T09:44:32.708Z</time></trkpt><trkpt lat="45.3651007" lon="10.6158066"><ele>138.6</ele><time>2026-03-29T09:44:34.708Z</time></trkpt><trkpt lat="45.3650926" lon="10.6156263"><ele>138.0</ele><time>2026-03-29T09:44:36.708Z</time></trkpt><trkpt lat="45.3650766" lon="10.6155098"><ele>138.0</ele><time>2026-03-29T09:44:37.708Z</time></trkpt><trkpt lat="45.36506" lon="10.6153693"><ele>138.0</ele><time>2026-03-29T09:44:38.708Z</time></trkpt><trkpt lat="45.3650486" lon="10.6152157"><ele>138.0</ele><time>2026-03-29T09:44:39.708Z</time></trkpt><trkpt lat="45.3650423" lon="10.6150478"><ele>138.0</ele><time>2026-03-29T09:44:40.708Z</time></trkpt><trkpt lat="45.3650417" lon="10.6148785"><ele>138.0</ele><time>2026-03-29T09:44:41.708Z</time></trkpt><trkpt lat="45.3650399" lon="10.6147051"><ele>138.0</ele><time>2026-03-29T09:44:42.708Z</time></trkpt><trkpt lat="45.3650353" lon="10.6145326"><ele>138.0</ele><time>2026-03-29T09:44:43.708Z</time></trkpt><trkpt lat="45.3650301" lon="10.6143599"><ele>138.0</ele><time>2026-03-29T09:44:44.708Z</time></trkpt><trkpt lat="45.365021" lon="10.6142013"><ele>138.0</ele><time>2026-03-29T09:44:45.708Z</time></trkpt><trkpt lat="45.3650166" lon="10.6140522"><ele>138.0</ele><time>2026-03-29T09:44:46.708Z</time></trkpt><trkpt lat="45.3650289" lon="10.6138963"><ele>138.0</ele><time>2026-03-29T09:44:47.708Z</time></trkpt><trkpt lat="45.3650516" lon="10.6137471"><ele>138.0</ele><time>2026-03-29T09:44:48.708Z</time></trkpt><trkpt lat="45.3650722" lon="10.6136063"><ele>138.0</ele><time>2026-03-29T09:44:49.708Z</time></trkpt><trkpt lat="45.3650879" lon="10.6134522"><ele>138.0</ele><time>2026-03-29T09:44:50.708Z</time></trkpt><trkpt lat="45.3650942" lon="10.6133023"><ele>138.5</ele><time>2026-03-29T09:44:51.708Z</time></trkpt><trkpt lat="45.3650739" lon="10.6131531"><ele>139.0</ele><time>2026-03-29T09:44:52.708Z</time></trkpt><trkpt lat="45.3650295" lon="10.6129962"><ele>139.5</ele><time>2026-03-29T09:44:53.708Z</time></trkpt><trkpt lat="45.3649717" lon="10.6128314"><ele>140.0</ele><time>2026-03-29T09:44:54.708Z</time></trkpt><trkpt lat="45.3649014" lon="10.6126634"><ele>140.0</ele><time>2026-03-29T09:44:55.708Z</time></trkpt><trkpt lat="45.3648253" lon="10.6124948"><ele>140.0</ele><time>2026-03-29T09:44:56.708Z</time></trkpt><trkpt lat="45.3647578" lon="10.6123394"><ele>140.0</ele><time>2026-03-29T09:44:57.708Z</time></trkpt><trkpt lat="45.3647035" lon="10.6121845"><ele>140.0</ele><time>2026-03-29T09:44:58.708Z</time></trkpt><trkpt lat="45.364671" lon="10.6120283"><ele>141.0</ele><time>2026-03-29T09:44:59.708Z</time></trkpt><trkpt lat="45.3646473" lon="10.611871"><ele>142.0</ele><time>2026-03-29T09:45:00.708Z</time></trkpt><trkpt lat="45.3646228" lon="10.6117048"><ele>143.0</ele><time>2026-03-29T09:45:01.708Z</time></trkpt><trkpt lat="45.3645979" lon="10.6115361"><ele>144.0</ele><time>2026-03-29T09:45:02.708Z</time></trkpt><trkpt lat="45.3645766" lon="10.6113641"><ele>144.0</ele><time>2026-03-29T09:45:03.708Z</time></trkpt><trkpt lat="45.3645502" lon="10.6111887"><ele>144.0</ele><time>2026-03-29T09:45:04.708Z</time></trkpt><trkpt lat="45.364522" lon="10.6110246"><ele>144.0</ele><time>2026-03-29T09:45:05.708Z</time></trkpt><trkpt lat="45.3644945" lon="10.6108764"><ele>144.0</ele><time>2026-03-29T09:45:06.708Z</time></trkpt><trkpt lat="45.3644742" lon="10.6107536"><ele>144.0</ele><time>2026-03-29T09:45:07.708Z</time></trkpt><trkpt lat="45.3644615" lon="10.6106531"><ele>142.8</ele><time>2026-03-29T09:45:08.708Z</time></trkpt><trkpt lat="45.3644863" lon="10.6105667"><ele>141.60000000000002</ele><time>2026-03-29T09:45:10.708Z</time></trkpt><trkpt lat="45.3645775" lon="10.6105519"><ele>140.4</ele><time>2026-03-29T09:45:12.708Z</time></trkpt><trkpt lat="45.3646771" lon="10.6105826"><ele>139.20000000000002</ele><time>2026-03-29T09:45:13.708Z</time></trkpt><trkpt lat="45.3647822" lon="10.6106134"><ele>138.0</ele><time>2026-03-29T09:45:14.708Z</time></trkpt><trkpt lat="45.3649041" lon="10.6106469"><ele>137.0</ele><time>2026-03-29T09:45:15.709Z</time></trkpt><trkpt lat="45.3650427" lon="10.6106752"><ele>136.0</ele><time>2026-03-29T09:45:16.708Z</time></trkpt><trkpt lat="45.3651916" lon="10.6106992"><ele>135.0</ele><time>2026-03-29T09:45:17.708Z</time></trkpt><trkpt lat="45.3653515" lon="10.6107244"><ele>135.0</ele><time>2026-03-29T09:45:18.708Z</time></trkpt><trkpt lat="45.3655137" lon="10.6107553"><ele>135.0</ele><time>2026-03-29T09:45:19.708Z</time></trkpt><trkpt lat="45.365677" lon="10.6107854"><ele>135.0</ele><time>2026-03-29T09:45:20.708Z</time></trkpt><trkpt lat="45.3658373" lon="10.6108056"><ele>136.0</ele><time>2026-03-29T09:45:21.708Z</time></trkpt><trkpt lat="45.3659891" lon="10.6108162"><ele>137.0</ele><time>2026-03-29T09:45:22.708Z</time></trkpt><trkpt lat="45.3661388" lon="10.6108244"><ele>138.0</ele><time>2026-03-29T09:45:23.708Z</time></trkpt><trkpt lat="45.3662826" lon="10.6108329"><ele>139.0</ele><time>2026-03-29T09:45:24.708Z</time></trkpt><trkpt lat="45.3664161" lon="10.6108374"><ele>139.2</ele><time>2026-03-29T09:45:25.708Z</time></trkpt><trkpt lat="45.3665376" lon="10.6108434"><ele>139.4</ele><time>2026-03-29T09:45:26.708Z</time></trkpt><trkpt lat="45.366641" lon="10.6108476"><ele>139.6</ele><time>2026-03-29T09:45:27.708Z</time></trkpt><trkpt lat="45.3667129" lon="10.610848"><ele>139.8</ele><time>2026-03-29T09:45:28.708Z</time></trkpt><trkpt lat="45.366799" lon="10.6108136"><ele>140.0</ele><time>2026-03-29T09:45:30.708Z</time></trkpt><trkpt lat="45.3668509" lon="10.6107197"><ele>140.0</ele><time>2026-03-29T09:45:32.708Z</time></trkpt><trkpt lat="45.3669013" lon="10.6105279"><ele>140.0</ele><time>2026-03-29T09:45:34.708Z</time></trkpt><trkpt lat="45.3669296" lon="10.6103992"><ele>140.0</ele><time>2026-03-29T09:45:35.708Z</time></trkpt><trkpt lat="45.3669567" lon="10.6102679"><ele>140.0</ele><time>2026-03-29T09:45:36.708Z</time></trkpt><trkpt lat="45.366987" lon="10.6101186"><ele>140.0</ele><time>2026-03-29T09:45:37.708Z</time></trkpt><trkpt lat="45.3670223" lon="10.6099542"><ele>139.75</ele><time>2026-03-29T09:45:38.708Z</time></trkpt><trkpt lat="45.3670604" lon="10.6097793"><ele>139.5</ele><time>2026-03-29T09:45:39.709Z</time></trkpt><trkpt lat="45.3671" lon="10.6095943"><ele>139.25</ele><time>2026-03-29T09:45:40.708Z</time></trkpt><trkpt lat="45.3671404" lon="10.6093987"><ele>139.0</ele><time>2026-03-29T09:45:41.708Z</time></trkpt><trkpt lat="45.3671807" lon="10.6092009"><ele>139.5</ele><time>2026-03-29T09:45:42.708Z</time></trkpt><trkpt lat="45.3672253" lon="10.6090038"><ele>140.0</ele><time>2026-03-29T09:45:43.708Z</time></trkpt><trkpt lat="45.3672701" lon="10.6088089"><ele>140.5</ele><time>2026-03-29T09:45:44.708Z</time></trkpt><trkpt lat="45.3673072" lon="10.6086229"><ele>141.0</ele><time>2026-03-29T09:45:45.708Z</time></trkpt><trkpt lat="45.3673358" lon="10.6084474"><ele>141.0</ele><time>2026-03-29T09:45:46.708Z</time></trkpt><trkpt lat="45.367364" lon="10.6082819"><ele>141.0</ele><time>2026-03-29T09:45:47.708Z</time></trkpt><trkpt lat="45.3673963" lon="10.6081198"><ele>141.0</ele><time>2026-03-29T09:45:48.708Z</time></trkpt><trkpt lat="45.3674296" lon="10.607973"><ele>141.0</ele><time>2026-03-29T09:45:49.708Z</time></trkpt><trkpt lat="45.3674626" lon="10.6078351"><ele>141.0</ele><time>2026-03-29T09:45:50.708Z</time></trkpt><trkpt lat="45.3674958" lon="10.6077043"><ele>141.0</ele><time>2026-03-29T09:45:51.708Z</time></trkpt><trkpt lat="45.3675322" lon="10.6075879"><ele>141.0</ele><time>2026-03-29T09:45:52.709Z</time></trkpt><trkpt lat="45.3675774" lon="10.6075037"><ele>141.0</ele><time>2026-03-29T09:45:53.708Z</time></trkpt><trkpt lat="45.3676349" lon="10.607464"><ele>141.0</ele><time>2026-03-29T09:45:54.708Z</time></trkpt><trkpt lat="45.3677102" lon="10.6074591"><ele>141.0</ele><time>2026-03-29T09:45:55.708Z</time></trkpt><trkpt lat="45.3677965" lon="10.6074963"><ele>141.0</ele><time>2026-03-29T09:45:56.708Z</time></trkpt><trkpt lat="45.3678931" lon="10.6075645"><ele>141.0</ele><time>2026-03-29T09:45:57.708Z</time></trkpt><trkpt lat="45.3679959" lon="10.6076301"><ele>141.0</ele><time>2026-03-29T09:45:58.708Z</time></trkpt><trkpt lat="45.3680938" lon="10.6076819"><ele>141.0</ele><time>2026-03-29T09:45:59.708Z</time></trkpt><trkpt lat="45.3681814" lon="10.6077122"><ele>141.0</ele><time>2026-03-29T09:46:00.708Z</time></trkpt><trkpt lat="45.3682634" lon="10.6077024"><ele>141.0</ele><time>2026-03-29T09:46:01.708Z</time></trkpt><trkpt lat="45.3683337" lon="10.6076552"><ele>139.6</ele><time>2026-03-29T09:46:02.708Z</time></trkpt><trkpt lat="45.3684071" lon="10.6075747"><ele>138.2</ele><time>2026-03-29T09:46:03.708Z</time></trkpt><trkpt lat="45.3684814" lon="10.6074768"><ele>136.8</ele><time>2026-03-29T09:46:04.708Z</time></trkpt><trkpt lat="45.3685521" lon="10.6073704"><ele>135.4</ele><time>2026-03-29T09:46:05.708Z</time></trkpt><trkpt lat="45.3686151" lon="10.607251"><ele>134.0</ele><time>2026-03-29T09:46:06.708Z</time></trkpt><trkpt lat="45.3686684" lon="10.6071319"><ele>134.0</ele><time>2026-03-29T09:46:07.708Z</time></trkpt><trkpt lat="45.3687222" lon="10.6070254"><ele>134.0</ele><time>2026-03-29T09:46:08.708Z</time></trkpt><trkpt lat="45.368768" lon="10.6069327"><ele>134.0</ele><time>2026-03-29T09:46:09.708Z</time></trkpt><trkpt lat="45.3688559" lon="10.6068378"><ele>134.0</ele><time>2026-03-29T09:46:11.708Z</time></trkpt><trkpt lat="45.3689343" lon="10.6068232"><ele>134.0</ele><time>2026-03-29T09:46:13.708Z</time></trkpt><trkpt lat="45.3690303" lon="10.6068495"><ele>131.6</ele><time>2026-03-29T09:46:15.708Z</time></trkpt><trkpt lat="45.3691482" lon="10.6069261"><ele>129.2</ele><time>2026-03-29T09:46:17.708Z</time></trkpt><trkpt lat="45.3692161" lon="10.6069856"><ele>126.79999999999998</ele><time>2026-03-29T09:46:18.708Z</time></trkpt><trkpt lat="45.3692957" lon="10.6070529"><ele>124.39999999999999</ele><time>2026-03-29T09:46:19.708Z</time></trkpt><trkpt lat="45.3693719" lon="10.6071122"><ele>122.0</ele><time>2026-03-29T09:46:20.708Z</time></trkpt><trkpt lat="45.3694479" lon="10.6071558"><ele>122.0</ele><time>2026-03-29T09:46:21.708Z</time></trkpt><trkpt lat="45.3695242" lon="10.6071748"><ele>121.99999999999999</ele><time>2026-03-29T09:46:22.708Z</time></trkpt><trkpt lat="45.3695867" lon="10.6071982"><ele>121.99999999999999</ele><time>2026-03-29T09:46:23.708Z</time></trkpt><trkpt lat="45.3696645" lon="10.6072546"><ele>122.0</ele><time>2026-03-29T09:46:25.709Z</time></trkpt><trkpt lat="45.3696878" lon="10.6073931"><ele>122.0</ele><time>2026-03-29T09:46:28.708Z</time></trkpt><trkpt lat="45.3696958" lon="10.6075743"><ele>121.16666666666666</ele><time>2026-03-29T09:46:30.708Z</time></trkpt><trkpt lat="45.3697024" lon="10.607678"><ele>120.33333333333333</ele><time>2026-03-29T09:46:31.708Z</time></trkpt><trkpt lat="45.3697056" lon="10.6077947"><ele>119.5</ele><time>2026-03-29T09:46:32.708Z</time></trkpt><trkpt lat="45.3697232" lon="10.6079085"><ele>118.66666666666666</ele><time>2026-03-29T09:46:33.708Z</time></trkpt><trkpt lat="45.3697572" lon="10.6080168"><ele>117.83333333333333</ele><time>2026-03-29T09:46:34.708Z</time></trkpt><trkpt lat="45.3698033" lon="10.60814"><ele>117.0</ele><time>2026-03-29T09:46:35.708Z</time></trkpt><trkpt lat="45.3698424" lon="10.6082719"><ele>117.0</ele><time>2026-03-29T09:46:36.708Z</time></trkpt><trkpt lat="45.369865" lon="10.6083965"><ele>117.0</ele><time>2026-03-29T09:46:37.708Z</time></trkpt><trkpt lat="45.3698741" lon="10.6085112"><ele>117.0</ele><time>2026-03-29T09:46:38.708Z</time></trkpt><trkpt lat="45.369873" lon="10.6086268"><ele>117.0</ele><time>2026-03-29T09:46:39.708Z</time></trkpt><trkpt lat="45.3698744" lon="10.6087522"><ele>117.0</ele><time>2026-03-29T09:46:40.708Z</time></trkpt><trkpt lat="45.3698914" lon="10.6088863"><ele>117.0</ele><time>2026-03-29T09:46:41.708Z</time></trkpt><trkpt lat="45.3699024" lon="10.6090306"><ele>118.75</ele><time>2026-03-29T09:46:42.708Z</time></trkpt><trkpt lat="45.3699204" lon="10.6091857"><ele>120.5</ele><time>2026-03-29T09:46:43.708Z</time></trkpt><trkpt lat="45.3699531" lon="10.6093446"><ele>122.25</ele><time>2026-03-29T09:46:44.708Z</time></trkpt><trkpt lat="45.3700038" lon="10.6095138"><ele>124.0</ele><time>2026-03-29T09:46:45.708Z</time></trkpt><trkpt lat="45.3700439" lon="10.6096755"><ele>124.6</ele><time>2026-03-29T09:46:46.708Z</time></trkpt><trkpt lat="45.370078" lon="10.6098273"><ele>125.2</ele><time>2026-03-29T09:46:47.708Z</time></trkpt><trkpt lat="45.3701093" lon="10.6099595"><ele>125.79999999999998</ele><time>2026-03-29T09:46:48.708Z</time></trkpt><trkpt lat="45.3701376" lon="10.6100885"><ele>126.39999999999999</ele><time>2026-03-29T09:46:49.708Z</time></trkpt><trkpt lat="45.3701706" lon="10.6102276"><ele>127.0</ele><time>2026-03-29T09:46:50.708Z</time></trkpt><trkpt lat="45.3702005" lon="10.6103731"><ele>127.25</ele><time>2026-03-29T09:46:51.708Z</time></trkpt><trkpt lat="45.3702357" lon="10.6105284"><ele>127.5</ele><time>2026-03-29T09:46:52.708Z</time></trkpt><trkpt lat="45.3702806" lon="10.6106826"><ele>127.75</ele><time>2026-03-29T09:46:53.708Z</time></trkpt><trkpt lat="45.3703249" lon="10.6108372"><ele>128.0</ele><time>2026-03-29T09:46:54.708Z</time></trkpt><trkpt lat="45.3703677" lon="10.6110005"><ele>129.5</ele><time>2026-03-29T09:46:55.708Z</time></trkpt><trkpt lat="45.370409" lon="10.6111716"><ele>131.0</ele><time>2026-03-29T09:46:56.708Z</time></trkpt><trkpt lat="45.3704517" lon="10.6113455"><ele>132.5</ele><time>2026-03-29T09:46:57.708Z</time></trkpt><trkpt lat="45.3704876" lon="10.6115038"><ele>134.0</ele><time>2026-03-29T09:46:58.708Z</time></trkpt><trkpt lat="45.3705128" lon="10.6116228"><ele>132.83333333333331</ele><time>2026-03-29T09:46:59.709Z</time></trkpt><trkpt lat="45.3705323" lon="10.6117248"><ele>131.66666666666666</ele><time>2026-03-29T09:47:00.708Z</time></trkpt><trkpt lat="45.3705517" lon="10.6118827"><ele>130.5</ele><time>2026-03-29T09:47:02.708Z</time></trkpt><trkpt lat="45.3705697" lon="10.6119775"><ele>129.33333333333334</ele><time>2026-03-29T09:47:03.708Z</time></trkpt><trkpt lat="45.3705843" lon="10.6120914"><ele>128.16666666666669</ele><time>2026-03-29T09:47:04.708Z</time></trkpt><trkpt lat="45.3705875" lon="10.6122287"><ele>127.0</ele><time>2026-03-29T09:47:05.708Z</time></trkpt><trkpt lat="45.3705794" lon="10.6123831"><ele>125.6</ele><time>2026-03-29T09:47:06.708Z</time></trkpt><trkpt lat="45.3705653" lon="10.6125391"><ele>124.19999999999999</ele><time>2026-03-29T09:47:07.708Z</time></trkpt><trkpt lat="45.3705663" lon="10.6126869"><ele>122.8</ele><time>2026-03-29T09:47:08.709Z</time></trkpt><trkpt lat="45.3705856" lon="10.61282"><ele>121.4</ele><time>2026-03-29T09:47:09.708Z</time></trkpt><trkpt lat="45.3706325" lon="10.6129268"><ele>120.0</ele><time>2026-03-29T09:47:10.708Z</time></trkpt><trkpt lat="45.37071" lon="10.6130208"><ele>118.75</ele><time>2026-03-29T09:47:11.709Z</time></trkpt><trkpt lat="45.3708065" lon="10.6131114"><ele>117.5</ele><time>2026-03-29T09:47:12.708Z</time></trkpt><trkpt lat="45.3709189" lon="10.6132039"><ele>116.25</ele><time>2026-03-29T09:47:13.708Z</time></trkpt><trkpt lat="45.3710425" lon="10.6133073"><ele>115.0</ele><time>2026-03-29T09:47:14.708Z</time></trkpt><trkpt lat="45.3711737" lon="10.613417"><ele>115.0</ele><time>2026-03-29T09:47:15.709Z</time></trkpt><trkpt lat="45.3713173" lon="10.6135259"><ele>115.0</ele><time>2026-03-29T09:47:16.708Z</time></trkpt><trkpt lat="45.3714675" lon="10.6136377"><ele>115.0</ele><time>2026-03-29T09:47:17.708Z</time></trkpt><trkpt lat="45.3716219" lon="10.6137575"><ele>114.66666666666667</ele><time>2026-03-29T09:47:18.708Z</time></trkpt><trkpt lat="45.3717736" lon="10.6138864"><ele>114.33333333333334</ele><time>2026-03-29T09:47:19.708Z</time></trkpt><trkpt lat="45.371931" lon="10.614022"><ele>114.0</ele><time>2026-03-29T09:47:20.708Z</time></trkpt><trkpt lat="45.3720772" lon="10.6141439"><ele>113.66666666666666</ele><time>2026-03-29T09:47:21.708Z</time></trkpt><trkpt lat="45.372224" lon="10.6142488"><ele>113.33333333333333</ele><time>2026-03-29T09:47:22.708Z</time></trkpt><trkpt lat="45.372384" lon="10.6143194"><ele>113.0</ele><time>2026-03-29T09:47:23.708Z</time></trkpt><trkpt lat="45.3725616" lon="10.6143538"><ele>113.0</ele><time>2026-03-29T09:47:24.708Z</time></trkpt><trkpt lat="45.3727454" lon="10.6143518"><ele>113.0</ele><time>2026-03-29T09:47:25.708Z</time></trkpt><trkpt lat="45.3729356" lon="10.6143492"><ele>113.0</ele><time>2026-03-29T09:47:26.708Z</time></trkpt><trkpt lat="45.3731224" lon="10.6143632"><ele>113.0</ele><time>2026-03-29T09:47:27.708Z</time></trkpt><trkpt lat="45.3733107" lon="10.6144104"><ele>113.0</ele><time>2026-03-29T09:47:28.708Z</time></trkpt><trkpt lat="45.3734964" lon="10.6144757"><ele>113.0</ele><time>2026-03-29T09:47:29.708Z</time></trkpt><trkpt lat="45.3736784" lon="10.6145631"><ele>113.33333333333333</ele><time>2026-03-29T09:47:30.708Z</time></trkpt><trkpt lat="45.3738562" lon="10.614677"><ele>113.66666666666666</ele><time>2026-03-29T09:47:31.708Z</time></trkpt><trkpt lat="45.374024" lon="10.6148157"><ele>114.0</ele><time>2026-03-29T09:47:32.708Z</time></trkpt><trkpt lat="45.3741932" lon="10.6149633"><ele>114.0</ele><time>2026-03-29T09:47:33.708Z</time></trkpt><trkpt lat="45.3743695" lon="10.6151087"><ele>114.0</ele><time>2026-03-29T09:47:34.708Z</time></trkpt><trkpt lat="45.3745454" lon="10.6152574"><ele>114.0</ele><time>2026-03-29T09:47:35.708Z</time></trkpt><trkpt lat="45.3747219" lon="10.6154097"><ele>114.33333333333334</ele><time>2026-03-29T09:47:36.708Z</time></trkpt><trkpt lat="45.3748966" lon="10.615557"><ele>114.66666666666667</ele><time>2026-03-29T09:47:37.709Z</time></trkpt><trkpt lat="45.3750624" lon="10.6156924"><ele>115.0</ele><time>2026-03-29T09:47:38.708Z</time></trkpt><trkpt lat="45.3752159" lon="10.6158161"><ele>115.0</ele><time>2026-03-29T09:47:39.708Z</time></trkpt><trkpt lat="45.3753528" lon="10.615933"><ele>115.0</ele><time>2026-03-29T09:47:40.708Z</time></trkpt><trkpt lat="45.375478" lon="10.616043"><ele>115.0</ele><time>2026-03-29T09:47:41.708Z</time></trkpt><trkpt lat="45.3755953" lon="10.6161417"><ele>115.0</ele><time>2026-03-29T09:47:42.708Z</time></trkpt><trkpt lat="45.3757003" lon="10.6162342"><ele>115.4</ele><time>2026-03-29T09:47:43.709Z</time></trkpt><trkpt lat="45.3757846" lon="10.6163236"><ele>115.8</ele><time>2026-03-29T09:47:44.708Z</time></trkpt><trkpt lat="45.3758476" lon="10.616398"><ele>116.19999999999999</ele><time>2026-03-29T09:47:45.708Z</time></trkpt><trkpt lat="45.3759544" lon="10.6164376"><ele>116.6</ele><time>2026-03-29T09:47:47.708Z</time></trkpt><trkpt lat="45.3760218" lon="10.6164199"><ele>117.0</ele><time>2026-03-29T09:47:48.708Z</time></trkpt><trkpt lat="45.3761058" lon="10.6163946"><ele>117.0</ele><time>2026-03-29T09:47:49.709Z</time></trkpt><trkpt lat="45.3762078" lon="10.6163594"><ele>117.0</ele><time>2026-03-29T09:47:50.708Z</time></trkpt><trkpt lat="45.3763228" lon="10.6163162"><ele>117.0</ele><time>2026-03-29T09:47:51.708Z</time></trkpt><trkpt lat="45.3764407" lon="10.6162702"><ele>117.0</ele><time>2026-03-29T09:47:52.708Z</time></trkpt><trkpt lat="45.3765553" lon="10.6162311"><ele>117.5</ele><time>2026-03-29T09:47:53.708Z</time></trkpt><trkpt lat="45.3766696" lon="10.6162058"><ele>118.0</ele><time>2026-03-29T09:47:54.708Z</time></trkpt><trkpt lat="45.3767895" lon="10.616202"><ele>118.5</ele><time>2026-03-29T09:47:55.708Z</time></trkpt><trkpt lat="45.376921" lon="10.6162197"><ele>119.0</ele><time>2026-03-29T09:47:56.708Z</time></trkpt><trkpt lat="45.3770616" lon="10.6162531"><ele>119.0</ele><time>2026-03-29T09:47:57.708Z</time></trkpt><trkpt lat="45.3772019" lon="10.6162917"><ele>119.0</ele><time>2026-03-29T09:47:58.708Z</time></trkpt><trkpt lat="45.3773451" lon="10.6163391"><ele>119.0</ele><time>2026-03-29T09:47:59.708Z</time></trkpt><trkpt lat="45.377488" lon="10.6163925"><ele>119.0</ele><time>2026-03-29T09:48:00.709Z</time></trkpt><trkpt lat="45.3776184" lon="10.6164415"><ele>119.0</ele><time>2026-03-29T09:48:01.708Z</time></trkpt><trkpt lat="45.3777455" lon="10.61649"><ele>119.0</ele><time>2026-03-29T09:48:02.708Z</time></trkpt><trkpt lat="45.3778683" lon="10.6165126"><ele>119.0</ele><time>2026-03-29T09:48:03.708Z</time></trkpt><trkpt lat="45.3779902" lon="10.6164933"><ele>119.0</ele><time>2026-03-29T09:48:04.709Z</time></trkpt><trkpt lat="45.3781084" lon="10.6164154"><ele>118.0</ele><time>2026-03-29T09:48:05.708Z</time></trkpt><trkpt lat="45.3782173" lon="10.6162949"><ele>117.0</ele><time>2026-03-29T09:48:06.708Z</time></trkpt><trkpt lat="45.3783233" lon="10.6161364"><ele>116.0</ele><time>2026-03-29T09:48:07.708Z</time></trkpt><trkpt lat="45.3784354" lon="10.6159687"><ele>115.0</ele><time>2026-03-29T09:48:08.708Z</time></trkpt><trkpt lat="45.3785457" lon="10.615805"><ele>114.0</ele><time>2026-03-29T09:48:09.708Z</time></trkpt><trkpt lat="45.3786455" lon="10.6156545"><ele>113.0</ele><time>2026-03-29T09:48:10.708Z</time></trkpt><trkpt lat="45.3787505" lon="10.6155359"><ele>112.0</ele><time>2026-03-29T09:48:11.708Z</time></trkpt><trkpt lat="45.3788589" lon="10.6154755"><ele>111.75</ele><time>2026-03-29T09:48:12.709Z</time></trkpt><trkpt lat="45.3789642" lon="10.6154749"><ele>111.5</ele><time>2026-03-29T09:48:13.708Z</time></trkpt><trkpt lat="45.3790753" lon="10.6155206"><ele>111.25</ele><time>2026-03-29T09:48:14.708Z</time></trkpt><trkpt lat="45.3791805" lon="10.6156109"><ele>111.0</ele><time>2026-03-29T09:48:15.708Z</time></trkpt><trkpt lat="45.3792718" lon="10.6157198"><ele>111.0</ele><time>2026-03-29T09:48:16.708Z</time></trkpt><trkpt lat="45.3793564" lon="10.6158056"><ele>111.0</ele><time>2026-03-29T09:48:17.708Z</time></trkpt><trkpt lat="45.3794473" lon="10.6158412"><ele>111.0</ele><time>2026-03-29T09:48:18.708Z</time></trkpt><trkpt lat="45.3795326" lon="10.6158216"><ele>111.0</ele><time>2026-03-29T09:48:19.708Z</time></trkpt><trkpt lat="45.37962" lon="10.6157556"><ele>111.0</ele><time>2026-03-29T09:48:20.708Z</time></trkpt><trkpt lat="45.3797089" lon="10.6156552"><ele>109.5</ele><time>2026-03-29T09:48:21.708Z</time></trkpt><trkpt lat="45.3798059" lon="10.6155575"><ele>108.0</ele><time>2026-03-29T09:48:22.708Z</time></trkpt><trkpt lat="45.3799073" lon="10.6154793"><ele>106.5</ele><time>2026-03-29T09:48:23.708Z</time></trkpt><trkpt lat="45.3800143" lon="10.6154492"><ele>105.0</ele><time>2026-03-29T09:48:24.708Z</time></trkpt><trkpt lat="45.380122" lon="10.6154749"><ele>105.0</ele><time>2026-03-29T09:48:25.708Z</time></trkpt><trkpt lat="45.3802409" lon="10.6155215"><ele>105.0</ele><time>2026-03-29T09:48:26.708Z</time></trkpt><trkpt lat="45.380362" lon="10.6155604"><ele>105.0</ele><time>2026-03-29T09:48:27.708Z</time></trkpt><trkpt lat="45.3804729" lon="10.6155827"><ele>105.0</ele><time>2026-03-29T09:48:28.708Z</time></trkpt><trkpt lat="45.3805752" lon="10.6155958"><ele>104.4</ele><time>2026-03-29T09:48:29.708Z</time></trkpt><trkpt lat="45.380671" lon="10.6155869"><ele>103.8</ele><time>2026-03-29T09:48:30.708Z</time></trkpt><trkpt lat="45.3807593" lon="10.6155592"><ele>103.19999999999999</ele><time>2026-03-29T09:48:31.708Z</time></trkpt><trkpt lat="45.3808533" lon="10.6155124"><ele>102.6</ele><time>2026-03-29T09:48:32.708Z</time></trkpt><trkpt lat="45.3809525" lon="10.6154588"><ele>102.0</ele><time>2026-03-29T09:48:33.708Z</time></trkpt><trkpt lat="45.3810595" lon="10.6154"><ele>102.0</ele><time>2026-03-29T09:48:34.708Z</time></trkpt><trkpt lat="45.3811723" lon="10.6153371"><ele>102.0</ele><time>2026-03-29T09:48:35.708Z</time></trkpt><trkpt lat="45.381281" lon="10.615263"><ele>102.0</ele><time>2026-03-29T09:48:36.708Z</time></trkpt><trkpt lat="45.3813839" lon="10.6151718"><ele>102.0</ele><time>2026-03-29T09:48:37.708Z</time></trkpt><trkpt lat="45.3814763" lon="10.6150601"><ele>102.25</ele><time>2026-03-29T09:48:38.708Z</time></trkpt><trkpt lat="45.3815666" lon="10.6149357"><ele>102.5</ele><time>2026-03-29T09:48:39.708Z</time></trkpt><trkpt lat="45.3816553" lon="10.6148142"><ele>102.75</ele><time>2026-03-29T09:48:40.708Z</time></trkpt><trkpt lat="45.3817413" lon="10.6147004"><ele>103.0</ele><time>2026-03-29T09:48:41.708Z</time></trkpt><trkpt lat="45.3818149" lon="10.6146071"><ele>103.00000000000001</ele><time>2026-03-29T09:48:42.708Z</time></trkpt><trkpt lat="45.38188" lon="10.6145219"><ele>103.0</ele><time>2026-03-29T09:48:43.708Z</time></trkpt><trkpt lat="45.381942" lon="10.6144427"><ele>103.0</ele><time>2026-03-29T09:48:44.708Z</time></trkpt><trkpt lat="45.3819981" lon="10.6143738"><ele>103.0</ele><time>2026-03-29T09:48:45.708Z</time></trkpt><trkpt lat="45.3820618" lon="10.6143026"><ele>103.00000000000001</ele><time>2026-03-29T09:48:47.708Z</time></trkpt><trkpt lat="45.3821132" lon="10.6142051"><ele>103.0</ele><time>2026-03-29T09:49:01.708Z</time></trkpt><trkpt lat="45.3821735" lon="10.614124"><ele>103.0</ele><time>2026-03-29T09:49:03.708Z</time></trkpt><trkpt lat="45.3822202" lon="10.6140591"><ele>103.0</ele><time>2026-03-29T09:49:04.708Z</time></trkpt><trkpt lat="45.3822845" lon="10.6139754"><ele>103.0</ele><time>2026-03-29T09:49:05.708Z</time></trkpt><trkpt lat="45.3823615" lon="10.6138696"><ele>103.0</ele><time>2026-03-29T09:49:06.708Z</time></trkpt><trkpt lat="45.3824548" lon="10.6137414"><ele>103.0</ele><time>2026-03-29T09:49:07.708Z</time></trkpt><trkpt lat="45.3825598" lon="10.6136"><ele>103.0</ele><time>2026-03-29T09:49:08.708Z</time></trkpt><trkpt lat="45.3826706" lon="10.6134487"><ele>103.0</ele><time>2026-03-29T09:49:09.708Z</time></trkpt><trkpt lat="45.3827879" lon="10.613285"><ele>103.0</ele><time>2026-03-29T09:49:10.708Z</time></trkpt><trkpt lat="45.3829161" lon="10.6131213"><ele>103.0</ele><time>2026-03-29T09:49:11.708Z</time></trkpt><trkpt lat="45.3830568" lon="10.6129703"><ele>103.0</ele><time>2026-03-29T09:49:12.708Z</time></trkpt><trkpt lat="45.3832052" lon="10.6128311"><ele>103.0</ele><time>2026-03-29T09:49:13.708Z</time></trkpt><trkpt lat="45.3833585" lon="10.6126947"><ele>103.0</ele><time>2026-03-29T09:49:14.708Z</time></trkpt><trkpt lat="45.3835195" lon="10.6125678"><ele>103.0</ele><time>2026-03-29T09:49:15.708Z</time></trkpt><trkpt lat="45.3836881" lon="10.6124637"><ele>103.0</ele><time>2026-03-29T09:49:16.708Z</time></trkpt><trkpt lat="45.383862" lon="10.6123738"><ele>103.66666666666667</ele><time>2026-03-29T09:49:17.708Z</time></trkpt><trkpt lat="45.3840393" lon="10.6122824"><ele>104.33333333333334</ele><time>2026-03-29T09:49:18.708Z</time></trkpt><trkpt lat="45.384217" lon="10.6121857"><ele>105.0</ele><time>2026-03-29T09:49:19.708Z</time></trkpt><trkpt lat="45.384394" lon="10.6120905"><ele>105.0</ele><time>2026-03-29T09:49:20.708Z</time></trkpt><trkpt lat="45.3845731" lon="10.612001"><ele>105.0</ele><time>2026-03-29T09:49:21.708Z</time></trkpt><trkpt lat="45.384751" lon="10.611908"><ele>105.0</ele><time>2026-03-29T09:49:22.708Z</time></trkpt><trkpt lat="45.3849277" lon="10.6118104"><ele>104.33333333333334</ele><time>2026-03-29T09:49:23.709Z</time></trkpt><trkpt lat="45.385094" lon="10.6116899"><ele>103.66666666666667</ele><time>2026-03-29T09:49:24.708Z</time></trkpt><trkpt lat="45.385247" lon="10.6115431"><ele>103.0</ele><time>2026-03-29T09:49:25.708Z</time></trkpt><trkpt lat="45.3853931" lon="10.6113875"><ele>102.33333333333334</ele><time>2026-03-29T09:49:26.708Z</time></trkpt><trkpt lat="45.3855366" lon="10.6112359"><ele>101.66666666666666</ele><time>2026-03-29T09:49:27.708Z</time></trkpt><trkpt lat="45.3856772" lon="10.6111119"><ele>101.0</ele><time>2026-03-29T09:49:28.709Z</time></trkpt><trkpt lat="45.3858184" lon="10.6110169"><ele>101.0</ele><time>2026-03-29T09:49:29.708Z</time></trkpt><trkpt lat="45.3859653" lon="10.610966"><ele>101.0</ele><time>2026-03-29T09:49:30.708Z</time></trkpt><trkpt lat="45.3861272" lon="10.6109549"><ele>101.0</ele><time>2026-03-29T09:49:31.708Z</time></trkpt><trkpt lat="45.3863005" lon="10.6109725"><ele>100.66666666666666</ele><time>2026-03-29T09:49:32.708Z</time></trkpt><trkpt lat="45.3864844" lon="10.6109963"><ele>100.33333333333334</ele><time>2026-03-29T09:49:33.708Z</time></trkpt><trkpt lat="45.3866765" lon="10.611015"><ele>100.0</ele><time>2026-03-29T09:49:34.708Z</time></trkpt><trkpt lat="45.3868753" lon="10.6110364"><ele>100.0</ele><time>2026-03-29T09:49:35.708Z</time></trkpt><trkpt lat="45.3870803" lon="10.611062"><ele>100.0</ele><time>2026-03-29T09:49:36.708Z</time></trkpt><trkpt lat="45.3872867" lon="10.611089"><ele>100.0</ele><time>2026-03-29T09:49:37.709Z</time></trkpt><trkpt lat="45.3875036" lon="10.6111139"><ele>99.5</ele><time>2026-03-29T09:49:38.708Z</time></trkpt><trkpt lat="45.3877264" lon="10.6111439"><ele>99.0</ele><time>2026-03-29T09:49:39.709Z</time></trkpt><trkpt lat="45.3879548" lon="10.6111739"><ele>99.0</ele><time>2026-03-29T09:49:40.708Z</time></trkpt><trkpt lat="45.3881928" lon="10.6112017"><ele>99.0</ele><time>2026-03-29T09:49:41.708Z</time></trkpt><trkpt lat="45.3884447" lon="10.6112269"><ele>99.0</ele><time>2026-03-29T09:49:42.708Z</time></trkpt><trkpt lat="45.388687" lon="10.6112552"><ele>99.0</ele><time>2026-03-29T09:49:43.708Z</time></trkpt><trkpt lat="45.3889044" lon="10.6112873"><ele>99.0</ele><time>2026-03-29T09:49:44.708Z</time></trkpt><trkpt lat="45.3891057" lon="10.6113293"><ele>99.0</ele><time>2026-03-29T09:49:45.708Z</time></trkpt><trkpt lat="45.389304" lon="10.6114002"><ele>99.0</ele><time>2026-03-29T09:49:46.708Z</time></trkpt><trkpt lat="45.3895078" lon="10.6114961"><ele>98.66666666666666</ele><time>2026-03-29T09:49:47.708Z</time></trkpt><trkpt lat="45.3897187" lon="10.6116019"><ele>98.33333333333333</ele><time>2026-03-29T09:49:48.709Z</time></trkpt><trkpt lat="45.3899302" lon="10.611714"><ele>98.0</ele><time>2026-03-29T09:49:49.708Z</time></trkpt><trkpt lat="45.39013" lon="10.6118247"><ele>98.0</ele><time>2026-03-29T09:49:50.708Z</time></trkpt><trkpt lat="45.3903152" lon="10.6119334"><ele>98.0</ele><time>2026-03-29T09:49:51.708Z</time></trkpt><trkpt lat="45.3904911" lon="10.6120334"><ele>98.0</ele><time>2026-03-29T09:49:52.708Z</time></trkpt><trkpt lat="45.3906562" lon="10.6121197"><ele>97.66666666666666</ele><time>2026-03-29T09:49:53.708Z</time></trkpt><trkpt lat="45.3908201" lon="10.612194"><ele>97.33333333333334</ele><time>2026-03-29T09:49:54.708Z</time></trkpt><trkpt lat="45.3909929" lon="10.6122437"><ele>97.0</ele><time>2026-03-29T09:49:55.708Z</time></trkpt><trkpt lat="45.3911659" lon="10.612248"><ele>97.0</ele><time>2026-03-29T09:49:56.708Z</time></trkpt><trkpt lat="45.391336" lon="10.612225"><ele>97.0</ele><time>2026-03-29T09:49:57.708Z</time></trkpt><trkpt lat="45.3914917" lon="10.6121931"><ele>97.0</ele><time>2026-03-29T09:49:58.708Z</time></trkpt><trkpt lat="45.3916438" lon="10.6121598"><ele>96.6</ele><time>2026-03-29T09:49:59.708Z</time></trkpt><trkpt lat="45.3917851" lon="10.612128"><ele>96.19999999999999</ele><time>2026-03-29T09:50:00.708Z</time></trkpt><trkpt lat="45.3918997" lon="10.6121034"><ele>95.8</ele><time>2026-03-29T09:50:01.708Z</time></trkpt><trkpt lat="45.391989" lon="10.6120876"><ele>95.4</ele><time>2026-03-29T09:50:02.708Z</time></trkpt><trkpt lat="45.3920741" lon="10.6120816"><ele>95.0</ele><time>2026-03-29T09:50:04.708Z</time></trkpt><trkpt lat="45.3921549" lon="10.6121115"><ele>94.6</ele><time>2026-03-29T09:51:22.708Z</time></trkpt><trkpt lat="45.392216" lon="10.6121779"><ele>94.2</ele><time>2026-03-29T09:51:23.708Z</time></trkpt><trkpt lat="45.3922848" lon="10.6122897"><ele>93.80000000000001</ele><time>2026-03-29T09:51:24.708Z</time></trkpt><trkpt lat="45.3923664" lon="10.6124136"><ele>93.4</ele><time>2026-03-29T09:51:25.708Z</time></trkpt><trkpt lat="45.3924572" lon="10.6125497"><ele>93.0</ele><time>2026-03-29T09:51:26.708Z</time></trkpt><trkpt lat="45.3925551" lon="10.6126973"><ele>93.0</ele><time>2026-03-29T09:51:27.708Z</time></trkpt><trkpt lat="45.3926725" lon="10.6128735"><ele>93.0</ele><time>2026-03-29T09:51:28.708Z</time></trkpt><trkpt lat="45.392794" lon="10.6130677"><ele>93.0</ele><time>2026-03-29T09:51:29.708Z</time></trkpt><trkpt lat="45.3929192" lon="10.6132993"><ele>96.0</ele><time>2026-03-29T09:51:30.708Z</time></trkpt><trkpt lat="45.3930459" lon="10.6135717"><ele>99.0</ele><time>2026-03-29T09:51:31.708Z</time></trkpt><trkpt lat="45.3931668" lon="10.6138657"><ele>99.0</ele><time>2026-03-29T09:51:32.708Z</time></trkpt><trkpt lat="45.3932894" lon="10.6141837"><ele>99.0</ele><time>2026-03-29T09:51:33.708Z</time></trkpt><trkpt lat="45.3934077" lon="10.6145003"><ele>97.5</ele><time>2026-03-29T09:51:34.708Z</time></trkpt><trkpt lat="45.3935226" lon="10.614807"><ele>96.0</ele><time>2026-03-29T09:51:35.708Z</time></trkpt><trkpt lat="45.3936289" lon="10.615089"><ele>95.33333333333333</ele><time>2026-03-29T09:51:36.708Z</time></trkpt><trkpt lat="45.3937324" lon="10.6153625"><ele>94.66666666666666</ele><time>2026-03-29T09:51:37.708Z</time></trkpt><trkpt lat="45.3938363" lon="10.6156324"><ele>94.0</ele><time>2026-03-29T09:51:38.708Z</time></trkpt><trkpt lat="45.3939428" lon="10.6158971"><ele>96.0</ele><time>2026-03-29T09:51:39.708Z</time></trkpt><trkpt lat="45.3940552" lon="10.6161594"><ele>98.0</ele><time>2026-03-29T09:51:40.708Z</time></trkpt><trkpt lat="45.3941725" lon="10.6164136"><ele>100.0</ele><time>2026-03-29T09:51:41.708Z</time></trkpt><trkpt lat="45.3942973" lon="10.6166654"><ele>100.0</ele><time>2026-03-29T09:51:42.708Z</time></trkpt><trkpt lat="45.3944224" lon="10.6169158"><ele>100.0</ele><time>2026-03-29T09:51:43.708Z</time></trkpt><trkpt lat="45.3945451" lon="10.6171696"><ele>100.0</ele><time>2026-03-29T09:51:44.708Z</time></trkpt><trkpt lat="45.3946592" lon="10.6174174"><ele>100.66666666666667</ele><time>2026-03-29T09:51:45.708Z</time></trkpt><trkpt lat="45.394762" lon="10.6176566"><ele>101.33333333333334</ele><time>2026-03-29T09:51:46.709Z</time></trkpt><trkpt lat="45.3948605" lon="10.6179001"><ele>102.0</ele><time>2026-03-29T09:51:47.708Z</time></trkpt><trkpt lat="45.3949562" lon="10.6181519"><ele>100.33333333333334</ele><time>2026-03-29T09:51:48.709Z</time></trkpt><trkpt lat="45.3950476" lon="10.6184005"><ele>98.66666666666667</ele><time>2026-03-29T09:51:49.708Z</time></trkpt><trkpt lat="45.3951345" lon="10.6186429"><ele>97.0</ele><time>2026-03-29T09:51:50.708Z</time></trkpt><trkpt lat="45.3952139" lon="10.618867"><ele>96.0</ele><time>2026-03-29T09:51:51.708Z</time></trkpt><trkpt lat="45.3952885" lon="10.6190784"><ele>95.0</ele><time>2026-03-29T09:51:52.708Z</time></trkpt><trkpt lat="45.3953648" lon="10.6192954"><ele>94.0</ele><time>2026-03-29T09:51:53.708Z</time></trkpt><trkpt lat="45.3954417" lon="10.61952"><ele>94.33333333333333</ele><time>2026-03-29T09:51:54.708Z</time></trkpt><trkpt lat="45.3955178" lon="10.6197447"><ele>94.66666666666667</ele><time>2026-03-29T09:51:55.708Z</time></trkpt><trkpt lat="45.3955873" lon="10.6199575"><ele>95.0</ele><time>2026-03-29T09:51:56.708Z</time></trkpt><trkpt lat="45.3956422" lon="10.6201724"><ele>94.33333333333334</ele><time>2026-03-29T09:51:57.708Z</time></trkpt><trkpt lat="45.3956817" lon="10.6204048"><ele>93.66666666666667</ele><time>2026-03-29T09:51:58.708Z</time></trkpt><trkpt lat="45.3957014" lon="10.6206412"><ele>93.0</ele><time>2026-03-29T09:51:59.709Z</time></trkpt><trkpt lat="45.3957082" lon="10.6208627"><ele>93.0</ele><time>2026-03-29T09:52:00.708Z</time></trkpt><trkpt lat="45.3957094" lon="10.6210763"><ele>93.0</ele><time>2026-03-29T09:52:01.708Z</time></trkpt><trkpt lat="45.3957069" lon="10.6212702"><ele>93.0</ele><time>2026-03-29T09:52:02.708Z</time></trkpt><trkpt lat="45.3957014" lon="10.6214603"><ele>93.0</ele><time>2026-03-29T09:52:03.708Z</time></trkpt><trkpt lat="45.395694" lon="10.621646"><ele>92.60000000000001</ele><time>2026-03-29T09:52:04.708Z</time></trkpt><trkpt lat="45.395681" lon="10.6218126"><ele>92.2</ele><time>2026-03-29T09:52:05.708Z</time></trkpt><trkpt lat="45.395659" lon="10.6219549"><ele>91.8</ele><time>2026-03-29T09:52:06.708Z</time></trkpt><trkpt lat="45.3956294" lon="10.622085"><ele>91.4</ele><time>2026-03-29T09:52:07.708Z</time></trkpt><trkpt lat="45.3955816" lon="10.6222061"><ele>91.0</ele><time>2026-03-29T09:52:08.708Z</time></trkpt><trkpt lat="45.39552" lon="10.6223098"><ele>90.75</ele><time>2026-03-29T09:52:09.709Z</time></trkpt><trkpt lat="45.3954416" lon="10.6224308"><ele>90.5</ele><time>2026-03-29T09:52:10.708Z</time></trkpt><trkpt lat="45.3953477" lon="10.6225506"><ele>90.25</ele><time>2026-03-29T09:52:11.708Z</time></trkpt><trkpt lat="45.3952096" lon="10.6226231"><ele>90.0</ele><time>2026-03-29T09:52:12.708Z</time></trkpt><trkpt lat="45.395056" lon="10.6226713"><ele>90.0</ele><time>2026-03-29T09:52:13.708Z</time></trkpt><trkpt lat="45.394881" lon="10.6227291"><ele>90.0</ele><time>2026-03-29T09:52:14.708Z</time></trkpt><trkpt lat="45.3947008" lon="10.6228044"><ele>90.0</ele><time>2026-03-29T09:52:15.708Z</time></trkpt><trkpt lat="45.3945326" lon="10.6229101"><ele>92.66666666666666</ele><time>2026-03-29T09:52:16.708Z</time></trkpt><trkpt lat="45.3943804" lon="10.6230586"><ele>95.33333333333333</ele><time>2026-03-29T09:52:17.708Z</time></trkpt><trkpt lat="45.3942396" lon="10.6232352"><ele>98.0</ele><time>2026-03-29T09:52:18.708Z</time></trkpt><trkpt lat="45.3941162" lon="10.6234327"><ele>99.0</ele><time>2026-03-29T09:52:19.708Z</time></trkpt><trkpt lat="45.3940163" lon="10.6236613"><ele>100.0</ele><time>2026-03-29T09:52:20.708Z</time></trkpt><trkpt lat="45.3939355" lon="10.6239219"><ele>101.0</ele><time>2026-03-29T09:52:21.708Z</time></trkpt><trkpt lat="45.393886" lon="10.624182"><ele>101.0</ele><time>2026-03-29T09:52:22.708Z</time></trkpt><trkpt lat="45.3938605" lon="10.6244485"><ele>101.0</ele><time>2026-03-29T09:52:23.708Z</time></trkpt><trkpt lat="45.3938653" lon="10.6247308"><ele>101.0</ele><time>2026-03-29T09:52:24.708Z</time></trkpt><trkpt lat="45.3938956" lon="10.6250434"><ele>99.5</ele><time>2026-03-29T09:52:25.708Z</time></trkpt><trkpt lat="45.393939" lon="10.6253796"><ele>98.0</ele><time>2026-03-29T09:52:26.708Z</time></trkpt><trkpt lat="45.3939895" lon="10.6257264"><ele>98.0</ele><time>2026-03-29T09:52:27.708Z</time></trkpt><trkpt lat="45.3940421" lon="10.6260971"><ele>98.0</ele><time>2026-03-29T09:52:28.709Z</time></trkpt><trkpt lat="45.3940919" lon="10.6264724"><ele>97.0</ele><time>2026-03-29T09:52:29.708Z</time></trkpt><trkpt lat="45.3941444" lon="10.6268627"><ele>96.0</ele><time>2026-03-29T09:52:30.708Z</time></trkpt><trkpt lat="45.3942046" lon="10.6272743"><ele>95.5</ele><time>2026-03-29T09:52:31.708Z</time></trkpt><trkpt lat="45.3942753" lon="10.6276968"><ele>95.0</ele><time>2026-03-29T09:52:32.708Z</time></trkpt><trkpt lat="45.3943369" lon="10.6281042"><ele>94.5</ele><time>2026-03-29T09:52:33.708Z</time></trkpt><trkpt lat="45.3944381" lon="10.6285097"><ele>94.0</ele><time>2026-03-29T09:52:34.708Z</time></trkpt><trkpt lat="45.394522" lon="10.6288835"><ele>94.0</ele><time>2026-03-29T09:52:35.708Z</time></trkpt><trkpt lat="45.3946074" lon="10.6292478"><ele>94.0</ele><time>2026-03-29T09:52:36.708Z</time></trkpt><trkpt lat="45.3946921" lon="10.6296085"><ele>95.5</ele><time>2026-03-29T09:52:37.708Z</time></trkpt><trkpt lat="45.3947724" lon="10.6299606"><ele>97.0</ele><time>2026-03-29T09:52:38.708Z</time></trkpt><trkpt lat="45.3948484" lon="10.6303017"><ele>97.0</ele><time>2026-03-29T09:52:39.708Z</time></trkpt><trkpt lat="45.3949236" lon="10.6306271"><ele>97.0</ele><time>2026-03-29T09:52:40.708Z</time></trkpt><trkpt lat="45.3949987" lon="10.6309496"><ele>97.5</ele><time>2026-03-29T09:52:41.708Z</time></trkpt><trkpt lat="45.3950792" lon="10.6312661"><ele>98.0</ele><time>2026-03-29T09:52:42.708Z</time></trkpt><trkpt lat="45.3951738" lon="10.6315709"><ele>98.0</ele><time>2026-03-29T09:52:43.708Z</time></trkpt><trkpt lat="45.3952893" lon="10.6318633"><ele>98.0</ele><time>2026-03-29T09:52:44.708Z</time></trkpt><trkpt lat="45.3954171" lon="10.6321361"><ele>98.33333333333333</ele><time>2026-03-29T09:52:45.708Z</time></trkpt><trkpt lat="45.395553" lon="10.6323765"><ele>98.66666666666666</ele><time>2026-03-29T09:52:46.708Z</time></trkpt><trkpt lat="45.3956977" lon="10.632582"><ele>99.0</ele><time>2026-03-29T09:52:47.708Z</time></trkpt><trkpt lat="45.3958545" lon="10.6327694"><ele>99.0</ele><time>2026-03-29T09:52:48.708Z</time></trkpt><trkpt lat="45.3960189" lon="10.6329369"><ele>99.0</ele><time>2026-03-29T09:52:49.708Z</time></trkpt><trkpt lat="45.3961947" lon="10.6330902"><ele>99.0</ele><time>2026-03-29T09:52:50.708Z</time></trkpt><trkpt lat="45.396381" lon="10.6332259"><ele>98.66666666666666</ele><time>2026-03-29T09:52:51.708Z</time></trkpt><trkpt lat="45.3965748" lon="10.6333497"><ele>98.33333333333333</ele><time>2026-03-29T09:52:52.708Z</time></trkpt><trkpt lat="45.3967728" lon="10.6334667"><ele>98.0</ele><time>2026-03-29T09:52:53.708Z</time></trkpt><trkpt lat="45.3969672" lon="10.6335823"><ele>98.0</ele><time>2026-03-29T09:52:54.708Z</time></trkpt><trkpt lat="45.3971483" lon="10.6336931"><ele>98.0</ele><time>2026-03-29T09:52:55.708Z</time></trkpt><trkpt lat="45.397332" lon="10.6338045"><ele>98.0</ele><time>2026-03-29T09:52:56.708Z</time></trkpt><trkpt lat="45.3975172" lon="10.6339187"><ele>98.0</ele><time>2026-03-29T09:52:57.708Z</time></trkpt><trkpt lat="45.3977022" lon="10.6340234"><ele>98.0</ele><time>2026-03-29T09:52:58.708Z</time></trkpt><trkpt lat="45.3978944" lon="10.6341094"><ele>98.0</ele><time>2026-03-29T09:52:59.708Z</time></trkpt><trkpt lat="45.398098" lon="10.6341719"><ele>97.0</ele><time>2026-03-29T09:53:00.708Z</time></trkpt><trkpt lat="45.398297" lon="10.634214"><ele>96.0</ele><time>2026-03-29T09:53:01.708Z</time></trkpt><trkpt lat="45.3984781" lon="10.6342462"><ele>95.0</ele><time>2026-03-29T09:53:02.708Z</time></trkpt><trkpt lat="45.3986393" lon="10.6342838"><ele>95.0</ele><time>2026-03-29T09:53:03.708Z</time></trkpt><trkpt lat="45.3987831" lon="10.634318"><ele>95.0</ele><time>2026-03-29T09:53:04.708Z</time></trkpt><trkpt lat="45.3989109" lon="10.6343473"><ele>95.0</ele><time>2026-03-29T09:53:05.708Z</time></trkpt><trkpt lat="45.3990215" lon="10.63437"><ele>95.0</ele><time>2026-03-29T09:53:06.708Z</time></trkpt><trkpt lat="45.399123" lon="10.6343905"><ele>94.66666666666667</ele><time>2026-03-29T09:53:07.708Z</time></trkpt><trkpt lat="45.3992051" lon="10.6344157"><ele>94.33333333333334</ele><time>2026-03-29T09:53:08.708Z</time></trkpt><trkpt lat="45.3992756" lon="10.6344571"><ele>94.0</ele><time>2026-03-29T09:53:09.708Z</time></trkpt><trkpt lat="45.3993339" lon="10.6345212"><ele>93.66666666666667</ele><time>2026-03-29T09:53:10.708Z</time></trkpt><trkpt lat="45.3993815" lon="10.6345999"><ele>93.33333333333333</ele><time>2026-03-29T09:53:11.708Z</time></trkpt><trkpt lat="45.3994389" lon="10.6346767"><ele>93.0</ele><time>2026-03-29T09:53:12.708Z</time></trkpt><trkpt lat="45.3994918" lon="10.6347311"><ele>93.0</ele><time>2026-03-29T09:53:13.708Z</time></trkpt><trkpt lat="45.3995484" lon="10.6347957"><ele>93.0</ele><time>2026-03-29T09:53:16.708Z</time></trkpt><trkpt lat="45.3996641" lon="10.6347472"><ele>93.0</ele><time>2026-03-29T09:53:57.707Z</time></trkpt><trkpt lat="45.3997512" lon="10.6347378"><ele>93.0</ele><time>2026-03-29T09:53:58.708Z</time></trkpt><trkpt lat="45.3998597" lon="10.6347688"><ele>93.0</ele><time>2026-03-29T09:53:59.7Z</time></trkpt><trkpt lat="45.399972" lon="10.6348488"><ele>92.0</ele><time>2026-03-29T09:54:00.703Z</time></trkpt><trkpt lat="45.4001016" lon="10.6349705"><ele>91.0</ele><time>2026-03-29T09:54:01.709Z</time></trkpt><trkpt lat="45.4002516" lon="10.6351017"><ele>90.0</ele><time>2026-03-29T09:54:02.697Z</time></trkpt><trkpt lat="45.4004414" lon="10.6352589"><ele>89.0</ele><time>2026-03-29T09:54:03.695Z</time></trkpt><trkpt lat="45.4006616" lon="10.6354498"><ele>88.0</ele><time>2026-03-29T09:54:04.709Z</time></trkpt><trkpt lat="45.4009029" lon="10.635665"><ele>88.0</ele><time>2026-03-29T09:54:05.699Z</time></trkpt><trkpt lat="45.4011645" lon="10.6358941"><ele>88.0</ele><time>2026-03-29T09:54:06.7Z</time></trkpt><trkpt lat="45.4014386" lon="10.6361297"><ele>87.5</ele><time>2026-03-29T09:54:07.7Z</time></trkpt><trkpt lat="45.4017068" lon="10.6363604"><ele>87.0</ele><time>2026-03-29T09:54:08.709Z</time></trkpt><trkpt lat="45.4019857" lon="10.6365968"><ele>87.5</ele><time>2026-03-29T09:54:09.707Z</time></trkpt><trkpt lat="45.4022711" lon="10.636835"><ele>88.0</ele><time>2026-03-29T09:54:10.697Z</time></trkpt><trkpt lat="45.4025598" lon="10.637076"><ele>88.5</ele><time>2026-03-29T09:54:11.704Z</time></trkpt><trkpt lat="45.4028455" lon="10.6373171"><ele>89.0</ele><time>2026-03-29T09:54:12.704Z</time></trkpt><trkpt lat="45.4031341" lon="10.6375639"><ele>89.0</ele><time>2026-03-29T09:54:13.702Z</time></trkpt><trkpt lat="45.4034157" lon="10.6378073"><ele>89.0</ele><time>2026-03-29T09:54:14.698Z</time></trkpt><trkpt lat="45.4036931" lon="10.6380466"><ele>89.5</ele><time>2026-03-29T09:54:15.709Z</time></trkpt><trkpt lat="45.4039589" lon="10.6382756"><ele>90.0</ele><time>2026-03-29T09:54:16.701Z</time></trkpt><trkpt lat="45.4042105" lon="10.638494"><ele>91.0</ele><time>2026-03-29T09:54:17.702Z</time></trkpt><trkpt lat="45.4044634" lon="10.6387122"><ele>92.0</ele><time>2026-03-29T09:54:18.7Z</time></trkpt><trkpt lat="45.4047015" lon="10.638916"><ele>92.0</ele><time>2026-03-29T09:54:19.697Z</time></trkpt><trkpt lat="45.4049261" lon="10.6391026"><ele>92.0</ele><time>2026-03-29T09:54:20.698Z</time></trkpt><trkpt lat="45.4051398" lon="10.6392776"><ele>92.0</ele><time>2026-03-29T09:54:21.704Z</time></trkpt><trkpt lat="45.4053334" lon="10.6394246"><ele>92.0</ele><time>2026-03-29T09:54:22.701Z</time></trkpt><trkpt lat="45.4055138" lon="10.639547"><ele>92.0</ele><time>2026-03-29T09:54:23.708Z</time></trkpt><trkpt lat="45.4056873" lon="10.6396645"><ele>90.66666666666667</ele><time>2026-03-29T09:54:24.708Z</time></trkpt><trkpt lat="45.4058493" lon="10.6397661"><ele>89.33333333333333</ele><time>2026-03-29T09:54:25.696Z</time></trkpt><trkpt lat="45.4060247" lon="10.6398614"><ele>88.0</ele><time>2026-03-29T09:54:26.705Z</time></trkpt><trkpt lat="45.406225" lon="10.6399636"><ele>89.5</ele><time>2026-03-29T09:54:27.695Z</time></trkpt><trkpt lat="45.4064456" lon="10.6400754"><ele>91.0</ele><time>2026-03-29T09:54:28.7Z</time></trkpt><trkpt lat="45.4066914" lon="10.6402035"><ele>89.5</ele><time>2026-03-29T09:54:29.707Z</time></trkpt><trkpt lat="45.4069573" lon="10.6403439"><ele>88.0</ele><time>2026-03-29T09:54:30.705Z</time></trkpt><trkpt lat="45.4072441" lon="10.6404932"><ele>88.0</ele><time>2026-03-29T09:54:31.699Z</time></trkpt><trkpt lat="45.4075342" lon="10.6406371"><ele>88.0</ele><time>2026-03-29T09:54:32.698Z</time></trkpt><trkpt lat="45.4077958" lon="10.6407795"><ele>89.0</ele><time>2026-03-29T09:54:33.705Z</time></trkpt><trkpt lat="45.408036" lon="10.6409392"><ele>90.0</ele><time>2026-03-29T09:54:34.703Z</time></trkpt><trkpt lat="45.4082457" lon="10.6411215"><ele>87.5</ele><time>2026-03-29T09:54:35.709Z</time></trkpt><trkpt lat="45.4084386" lon="10.6413144"><ele>85.0</ele><time>2026-03-29T09:54:36.704Z</time></trkpt><trkpt lat="45.4086257" lon="10.6414958"><ele>85.0</ele><time>2026-03-29T09:54:37.707Z</time></trkpt><trkpt lat="45.4088011" lon="10.6416518"><ele>85.0</ele><time>2026-03-29T09:54:38.7Z</time></trkpt><trkpt lat="45.4089671" lon="10.641784"><ele>85.0</ele><time>2026-03-29T09:54:39.698Z</time></trkpt><trkpt lat="45.4091345" lon="10.6418825"><ele>86.0</ele><time>2026-03-29T09:54:40.708Z</time></trkpt><trkpt lat="45.409311" lon="10.6419424"><ele>87.0</ele><time>2026-03-29T09:54:41.699Z</time></trkpt><trkpt lat="45.4094904" lon="10.6419652"><ele>88.0</ele><time>2026-03-29T09:54:42.702Z</time></trkpt><trkpt lat="45.4096711" lon="10.6419484"><ele>89.66666666666666</ele><time>2026-03-29T09:54:43.705Z</time></trkpt><trkpt lat="45.4098408" lon="10.6418955"><ele>91.33333333333333</ele><time>2026-03-29T09:54:44.696Z</time></trkpt><trkpt lat="45.4100036" lon="10.6418122"><ele>93.0</ele><time>2026-03-29T09:54:45.701Z</time></trkpt><trkpt lat="45.4101568" lon="10.6416969"><ele>93.0</ele><time>2026-03-29T09:54:46.703Z</time></trkpt><trkpt lat="45.410286" lon="10.6415585"><ele>93.0</ele><time>2026-03-29T09:54:47.704Z</time></trkpt><trkpt lat="45.4103892" lon="10.6414214"><ele>93.0</ele><time>2026-03-29T09:54:48.706Z</time></trkpt><trkpt lat="45.4104662" lon="10.6413244"><ele>93.0</ele><time>2026-03-29T09:54:49.701Z</time></trkpt><trkpt lat="45.4105217" lon="10.6412663"><ele>94.60000000000001</ele><time>2026-03-29T09:54:50.705Z</time></trkpt><trkpt lat="45.4105845" lon="10.6412217"><ele>96.2</ele><time>2026-03-29T09:54:52.698Z</time></trkpt><trkpt lat="45.4107019" lon="10.6411989"><ele>97.8</ele><time>2026-03-29T09:54:55.704Z</time></trkpt><trkpt lat="45.4107675" lon="10.6412115"><ele>99.4</ele><time>2026-03-29T09:54:56.708Z</time></trkpt><trkpt lat="45.4108527" lon="10.6411912"><ele>101.0</ele><time>2026-03-29T09:54:58.704Z</time></trkpt><trkpt lat="45.4109373" lon="10.6410651"><ele>101.14285714285714</ele><time>2026-03-29T09:55:00.707Z</time></trkpt><trkpt lat="45.4109436" lon="10.6409752"><ele>101.28571428571428</ele><time>2026-03-29T09:55:01.706Z</time></trkpt><trkpt lat="45.4109172" lon="10.6408763"><ele>101.42857142857143</ele><time>2026-03-29T09:55:02.707Z</time></trkpt><trkpt lat="45.4108611" lon="10.6407993"><ele>101.57142857142857</ele><time>2026-03-29T09:55:03.707Z</time></trkpt><trkpt lat="45.4107902" lon="10.6407651"><ele>101.71428571428572</ele><time>2026-03-29T09:55:04.707Z</time></trkpt><trkpt lat="45.4107188" lon="10.6407865"><ele>101.85714285714286</ele><time>2026-03-29T09:55:05.707Z</time></trkpt><trkpt lat="45.4106614" lon="10.6408582"><ele>102.0</ele><time>2026-03-29T09:55:06.707Z</time></trkpt><trkpt lat="45.4106351" lon="10.6409645"><ele>102.0</ele><time>2026-03-29T09:55:07.707Z</time></trkpt><trkpt lat="45.4106414" lon="10.6410763"><ele>102.0</ele><time>2026-03-29T09:55:08.707Z</time></trkpt><trkpt lat="45.4106823" lon="10.6411659"><ele>102.0</ele><time>2026-03-29T09:55:09.707Z</time></trkpt><trkpt lat="45.410746" lon="10.6412157"><ele>102.0</ele><time>2026-03-29T09:55:10.707Z</time></trkpt><trkpt lat="45.4108217" lon="10.6412217"><ele>102.0</ele><time>2026-03-29T09:55:11.707Z</time></trkpt><trkpt lat="45.4108868" lon="10.6411724"><ele>102.0</ele><time>2026-03-29T09:55:12.707Z</time></trkpt><trkpt lat="45.4109317" lon="10.6410832"><ele>102.0</ele><time>2026-03-29T09:55:13.707Z</time></trkpt><trkpt lat="45.4109444" lon="10.6409759"><ele>102.0</ele><time>2026-03-29T09:55:14.707Z</time></trkpt><trkpt lat="45.4109277" lon="10.6408714"><ele>102.0</ele><time>2026-03-29T09:55:15.707Z</time></trkpt><trkpt lat="45.4108809" lon="10.6407847"><ele>102.0</ele><time>2026-03-29T09:55:16.707Z</time></trkpt><trkpt lat="45.4107952" lon="10.6407209"><ele>102.0</ele><time>2026-03-29T09:55:17.707Z</time></trkpt><trkpt lat="45.4106956" lon="10.6406625"><ele>102.0</ele><time>2026-03-29T09:55:18.707Z</time></trkpt><trkpt lat="45.4106066" lon="10.6405442"><ele>102.0</ele><time>2026-03-29T09:55:19.707Z</time></trkpt><trkpt lat="45.4105422" lon="10.64037"><ele>102.0</ele><time>2026-03-29T09:55:20.707Z</time></trkpt><trkpt lat="45.4104959" lon="10.6401403"><ele>102.0</ele><time>2026-03-29T09:55:21.707Z</time></trkpt><trkpt lat="45.4104601" lon="10.6398868"><ele>101.66666666666666</ele><time>2026-03-29T09:55:22.707Z</time></trkpt><trkpt lat="45.4104218" lon="10.639612"><ele>101.33333333333333</ele><time>2026-03-29T09:55:23.707Z</time></trkpt><trkpt lat="45.4103569" lon="10.639307"><ele>101.0</ele><time>2026-03-29T09:55:24.707Z</time></trkpt><trkpt lat="45.410259" lon="10.6389813"><ele>102.0</ele><time>2026-03-29T09:55:25.707Z</time></trkpt><trkpt lat="45.4101422" lon="10.6386381"><ele>103.0</ele><time>2026-03-29T09:55:26.707Z</time></trkpt><trkpt lat="45.4100252" lon="10.6383134"><ele>103.0</ele><time>2026-03-29T09:55:27.707Z</time></trkpt><trkpt lat="45.4099118" lon="10.6380158"><ele>103.0</ele><time>2026-03-29T09:55:28.707Z</time></trkpt><trkpt lat="45.4097986" lon="10.6377227"><ele>103.0</ele><time>2026-03-29T09:55:29.707Z</time></trkpt><trkpt lat="45.4096825" lon="10.6374317"><ele>103.0</ele><time>2026-03-29T09:55:30.707Z</time></trkpt><trkpt lat="45.4095694" lon="10.6371561"><ele>104.66666666666667</ele><time>2026-03-29T09:55:31.707Z</time></trkpt><trkpt lat="45.4094635" lon="10.6369103"><ele>106.33333333333334</ele><time>2026-03-29T09:55:32.707Z</time></trkpt><trkpt lat="45.4093507" lon="10.636679"><ele>108.0</ele><time>2026-03-29T09:55:33.707Z</time></trkpt><trkpt lat="45.4092286" lon="10.6364535"><ele>108.0</ele><time>2026-03-29T09:55:34.707Z</time></trkpt><trkpt lat="45.4091082" lon="10.636233"><ele>108.0</ele><time>2026-03-29T09:55:35.707Z</time></trkpt><trkpt lat="45.4089865" lon="10.6360103"><ele>108.0</ele><time>2026-03-29T09:55:36.707Z</time></trkpt><trkpt lat="45.4088622" lon="10.6357908"><ele>107.66666666666666</ele><time>2026-03-29T09:55:37.707Z</time></trkpt><trkpt lat="45.4087341" lon="10.6355778"><ele>107.33333333333333</ele><time>2026-03-29T09:55:38.707Z</time></trkpt><trkpt lat="45.4085974" lon="10.63537"><ele>107.0</ele><time>2026-03-29T09:55:39.707Z</time></trkpt><trkpt lat="45.4084493" lon="10.6351826"><ele>107.66666666666666</ele><time>2026-03-29T09:55:40.707Z</time></trkpt><trkpt lat="45.4082882" lon="10.6350151"><ele>108.33333333333334</ele><time>2026-03-29T09:55:41.707Z</time></trkpt><trkpt lat="45.4081279" lon="10.6348485"><ele>109.0</ele><time>2026-03-29T09:55:42.707Z</time></trkpt><trkpt lat="45.4079817" lon="10.6346921"><ele>109.0</ele><time>2026-03-29T09:55:43.707Z</time></trkpt><trkpt lat="45.407858" lon="10.6345641"><ele>109.0</ele><time>2026-03-29T09:55:44.707Z</time></trkpt><trkpt lat="45.4077706" lon="10.6344482"><ele>109.0</ele><time>2026-03-29T09:55:45.708Z</time></trkpt><trkpt lat="45.4077386" lon="10.6343366"><ele>109.0</ele><time>2026-03-29T09:55:46.707Z</time></trkpt><trkpt lat="45.4077443" lon="10.6342259"><ele>109.0</ele><time>2026-03-29T09:55:47.707Z</time></trkpt><trkpt lat="45.4077878" lon="10.6341353"><ele>109.25</ele><time>2026-03-29T09:55:48.707Z</time></trkpt><trkpt lat="45.4078681" lon="10.6340719"><ele>109.5</ele><time>2026-03-29T09:55:49.707Z</time></trkpt><trkpt lat="45.407984" lon="10.6340193"><ele>109.75</ele><time>2026-03-29T09:55:50.707Z</time></trkpt><trkpt lat="45.408135" lon="10.6339492"><ele>110.0</ele><time>2026-03-29T09:55:51.707Z</time></trkpt><trkpt lat="45.4082834" lon="10.6338659"><ele>110.33333333333333</ele><time>2026-03-29T09:55:52.707Z</time></trkpt><trkpt lat="45.4084409" lon="10.6337712"><ele>110.66666666666666</ele><time>2026-03-29T09:55:53.707Z</time></trkpt><trkpt lat="45.408586" lon="10.6336677"><ele>111.0</ele><time>2026-03-29T09:55:54.707Z</time></trkpt><trkpt lat="45.4087017" lon="10.6335755"><ele>111.4</ele><time>2026-03-29T09:55:55.707Z</time></trkpt><trkpt lat="45.4087983" lon="10.633498"><ele>111.8</ele><time>2026-03-29T09:55:56.707Z</time></trkpt><trkpt lat="45.4088797" lon="10.6334251"><ele>112.20000000000002</ele><time>2026-03-29T09:55:57.707Z</time></trkpt><trkpt lat="45.408988" lon="10.6333298"><ele>112.60000000000001</ele><time>2026-03-29T09:55:59.707Z</time></trkpt><trkpt lat="45.4090576" lon="10.6332686"><ele>113.0</ele><time>2026-03-29T09:56:00.707Z</time></trkpt><trkpt lat="45.4091409" lon="10.6331947"><ele>113.25</ele><time>2026-03-29T09:56:01.707Z</time></trkpt><trkpt lat="45.4092402" lon="10.6331016"><ele>113.5</ele><time>2026-03-29T09:56:02.707Z</time></trkpt><trkpt lat="45.4093569" lon="10.6329924"><ele>113.75</ele><time>2026-03-29T09:56:03.707Z</time></trkpt><trkpt lat="45.4094878" lon="10.6328604"><ele>114.0</ele><time>2026-03-29T09:56:04.707Z</time></trkpt><trkpt lat="45.4096294" lon="10.6326943"><ele>113.0</ele><time>2026-03-29T09:56:05.707Z</time></trkpt><trkpt lat="45.409778" lon="10.6324891"><ele>112.0</ele><time>2026-03-29T09:56:06.707Z</time></trkpt><trkpt lat="45.4099421" lon="10.6322794"><ele>111.0</ele><time>2026-03-29T09:56:07.707Z</time></trkpt><trkpt lat="45.4101256" lon="10.6321171"><ele>111.0</ele><time>2026-03-29T09:56:08.707Z</time></trkpt><trkpt lat="45.4103044" lon="10.6319872"><ele>111.0</ele><time>2026-03-29T09:56:09.707Z</time></trkpt><trkpt lat="45.4104635" lon="10.6318839"><ele>111.0</ele><time>2026-03-29T09:56:10.707Z</time></trkpt><trkpt lat="45.4106149" lon="10.6318124"><ele>109.8</ele><time>2026-03-29T09:56:11.707Z</time></trkpt><trkpt lat="45.4107437" lon="10.6317687"><ele>108.6</ele><time>2026-03-29T09:56:12.707Z</time></trkpt><trkpt lat="45.4108527" lon="10.631751"><ele>107.4</ele><time>2026-03-29T09:56:13.707Z</time></trkpt><trkpt lat="45.4109469" lon="10.6317699"><ele>106.2</ele><time>2026-03-29T09:56:14.707Z</time></trkpt><trkpt lat="45.411026" lon="10.6318269"><ele>105.0</ele><time>2026-03-29T09:56:15.708Z</time></trkpt><trkpt lat="45.4111061" lon="10.631876"><ele>105.0</ele><time>2026-03-29T09:56:16.707Z</time></trkpt><trkpt lat="45.4111964" lon="10.6318721"><ele>105.0</ele><time>2026-03-29T09:56:17.707Z</time></trkpt><trkpt lat="45.4112718" lon="10.6318239"><ele>105.0</ele><time>2026-03-29T09:56:18.707Z</time></trkpt><trkpt lat="45.411321" lon="10.6317404"><ele>105.0</ele><time>2026-03-29T09:56:19.708Z</time></trkpt><trkpt lat="45.4113434" lon="10.6316294"><ele>105.0</ele><time>2026-03-29T09:56:20.707Z</time></trkpt><trkpt lat="45.4113391" lon="10.6314918"><ele>105.0</ele><time>2026-03-29T09:56:21.707Z</time></trkpt><trkpt lat="45.4113284" lon="10.6313075"><ele>103.0</ele><time>2026-03-29T09:56:22.707Z</time></trkpt><trkpt lat="45.4113342" lon="10.6310699"><ele>101.0</ele><time>2026-03-29T09:56:23.707Z</time></trkpt><trkpt lat="45.4113388" lon="10.6308243"><ele>99.0</ele><time>2026-03-29T09:56:24.707Z</time></trkpt><trkpt lat="45.4113351" lon="10.630525"><ele>99.0</ele><time>2026-03-29T09:56:25.707Z</time></trkpt><trkpt lat="45.4113407" lon="10.6301779"><ele>99.0</ele><time>2026-03-29T09:56:26.707Z</time></trkpt><trkpt lat="45.4113566" lon="10.6298136"><ele>99.0</ele><time>2026-03-29T09:56:27.707Z</time></trkpt><trkpt lat="45.4113691" lon="10.6294157"><ele>99.0</ele><time>2026-03-29T09:56:28.707Z</time></trkpt><trkpt lat="45.4113756" lon="10.6290034"><ele>99.5</ele><time>2026-03-29T09:56:29.707Z</time></trkpt><trkpt lat="45.4113817" lon="10.6286065"><ele>100.0</ele><time>2026-03-29T09:56:30.707Z</time></trkpt><trkpt lat="45.4113763" lon="10.6282298"><ele>100.0</ele><time>2026-03-29T09:56:31.707Z</time></trkpt><trkpt lat="45.4113452" lon="10.6278768"><ele>100.0</ele><time>2026-03-29T09:56:32.707Z</time></trkpt><trkpt lat="45.411294" lon="10.6275497"><ele>100.33333333333334</ele><time>2026-03-29T09:56:33.707Z</time></trkpt><trkpt lat="45.4112263" lon="10.6272506"><ele>100.66666666666666</ele><time>2026-03-29T09:56:34.707Z</time></trkpt><trkpt lat="45.4111479" lon="10.6269841"><ele>101.0</ele><time>2026-03-29T09:56:35.707Z</time></trkpt><trkpt lat="45.4110598" lon="10.6267409"><ele>101.33333333333333</ele><time>2026-03-29T09:56:36.707Z</time></trkpt><trkpt lat="45.4109674" lon="10.6265239"><ele>101.66666666666666</ele><time>2026-03-29T09:56:37.707Z</time></trkpt><trkpt lat="45.4108673" lon="10.626325"><ele>102.0</ele><time>2026-03-29T09:56:38.707Z</time></trkpt><trkpt lat="45.4107698" lon="10.6261547"><ele>101.0</ele><time>2026-03-29T09:56:39.707Z</time></trkpt><trkpt lat="45.4106825" lon="10.6260115"><ele>100.0</ele><time>2026-03-29T09:56:40.707Z</time></trkpt><trkpt lat="45.41061" lon="10.6258825"><ele>99.0</ele><time>2026-03-29T09:56:41.707Z</time></trkpt><trkpt lat="45.4105487" lon="10.6257592"><ele>98.0</ele><time>2026-03-29T09:56:42.707Z</time></trkpt><trkpt lat="45.4105112" lon="10.6256573"><ele>97.0</ele><time>2026-03-29T09:56:43.707Z</time></trkpt><trkpt lat="45.410479" lon="10.6255745"><ele>97.0</ele><time>2026-03-29T09:56:44.707Z</time></trkpt><trkpt lat="45.4104011" lon="10.6254936"><ele>97.0</ele><time>2026-03-29T09:56:46.707Z</time></trkpt><trkpt lat="45.410323" lon="10.6254911"><ele>97.0</ele><time>2026-03-29T09:56:48.707Z</time></trkpt><trkpt lat="45.410261" lon="10.6255341"><ele>97.0</ele><time>2026-03-29T09:56:49.707Z</time></trkpt><trkpt lat="45.4101853" lon="10.6256295"><ele>97.0</ele><time>2026-03-29T09:56:50.707Z</time></trkpt><trkpt lat="45.4100865" lon="10.6257482"><ele>97.0</ele><time>2026-03-29T09:56:51.707Z</time></trkpt><trkpt lat="45.4099626" lon="10.6258821"><ele>97.0</ele><time>2026-03-29T09:56:52.707Z</time></trkpt><trkpt lat="45.4098211" lon="10.6259987"><ele>97.0</ele><time>2026-03-29T09:56:53.707Z</time></trkpt><trkpt lat="45.4096863" lon="10.6261087"><ele>96.5</ele><time>2026-03-29T09:56:54.707Z</time></trkpt><trkpt lat="45.4095658" lon="10.6262144"><ele>96.0</ele><time>2026-03-29T09:56:55.707Z</time></trkpt><trkpt lat="45.4094583" lon="10.6263107"><ele>95.5</ele><time>2026-03-29T09:56:56.707Z</time></trkpt><trkpt lat="45.4093658" lon="10.6263895"><ele>95.0</ele><time>2026-03-29T09:56:57.707Z</time></trkpt><trkpt lat="45.4092827" lon="10.6264551"><ele>95.0</ele><time>2026-03-29T09:56:58.707Z</time></trkpt><trkpt lat="45.409212" lon="10.6265111"><ele>95.0</ele><time>2026-03-29T09:56:59.707Z</time></trkpt><trkpt lat="45.4091576" lon="10.6265576"><ele>95.0</ele><time>2026-03-29T09:57:00.707Z</time></trkpt><trkpt lat="45.4090612" lon="10.6265862"><ele>95.0</ele><time>2026-03-29T09:57:02.707Z</time></trkpt><trkpt lat="45.4089849" lon="10.6265516"><ele>95.0</ele><time>2026-03-29T09:57:04.708Z</time></trkpt><trkpt lat="45.4089249" lon="10.6265232"><ele>95.0</ele><time>2026-03-29T09:57:06.707Z</time></trkpt><trkpt lat="45.4088246" lon="10.626449"><ele>95.16666666666667</ele><time>2026-03-29T09:57:10.707Z</time></trkpt><trkpt lat="45.4087653" lon="10.6263949"><ele>95.33333333333334</ele><time>2026-03-29T09:57:11.707Z</time></trkpt><trkpt lat="45.4087006" lon="10.6263822"><ele>95.5</ele><time>2026-03-29T09:57:12.707Z</time></trkpt><trkpt lat="45.4086344" lon="10.6264088"><ele>95.66666666666667</ele><time>2026-03-29T09:57:13.707Z</time></trkpt><trkpt lat="45.4086024" lon="10.6265298"><ele>95.83333333333333</ele><time>2026-03-29T09:57:15.707Z</time></trkpt><trkpt lat="45.4086756" lon="10.6265321"><ele>96.0</ele><time>2026-03-29T10:01:11.707Z</time></trkpt><trkpt lat="45.4087769" lon="10.6264752"><ele>95.85714285714285</ele><time>2026-03-29T10:05:50.707Z</time></trkpt><trkpt lat="45.4088399" lon="10.6264923"><ele>95.71428571428571</ele><time>2026-03-29T10:05:52.707Z</time></trkpt><trkpt lat="45.4089068" lon="10.6265483"><ele>95.57142857142857</ele><time>2026-03-29T10:05:54.707Z</time></trkpt><trkpt lat="45.4089841" lon="10.6265845"><ele>95.42857142857142</ele><time>2026-03-29T10:05:56.707Z</time></trkpt><trkpt lat="45.4090566" lon="10.6266379"><ele>95.28571428571429</ele><time>2026-03-29T10:06:05.707Z</time></trkpt><trkpt lat="45.4091242" lon="10.6266203"><ele>95.14285714285714</ele><time>2026-03-29T10:06:06.707Z</time></trkpt><trkpt lat="45.4091928" lon="10.6265773"><ele>95.0</ele><time>2026-03-29T10:06:07.707Z</time></trkpt><trkpt lat="45.4092723" lon="10.6265129"><ele>95.0</ele><time>2026-03-29T10:06:08.708Z</time></trkpt><trkpt lat="45.4093594" lon="10.626443"><ele>95.0</ele><time>2026-03-29T10:06:09.707Z</time></trkpt><trkpt lat="45.4094567" lon="10.6263668"><ele>95.0</ele><time>2026-03-29T10:06:10.707Z</time></trkpt><trkpt lat="45.4095626" lon="10.6262845"><ele>95.0</ele><time>2026-03-29T10:06:11.707Z</time></trkpt><trkpt lat="45.4096751" lon="10.6261977"><ele>95.5</ele><time>2026-03-29T10:06:12.707Z</time></trkpt><trkpt lat="45.4097922" lon="10.6261114"><ele>96.0</ele><time>2026-03-29T10:06:13.707Z</time></trkpt><trkpt lat="45.4099091" lon="10.6260226"><ele>96.5</ele><time>2026-03-29T10:06:14.707Z</time></trkpt><trkpt lat="45.4100265" lon="10.6259303"><ele>97.0</ele><time>2026-03-29T10:06:15.707Z</time></trkpt><trkpt lat="45.4101377" lon="10.6258578"><ele>97.0</ele><time>2026-03-29T10:06:16.707Z</time></trkpt><trkpt lat="45.41026" lon="10.6258083"><ele>97.0</ele><time>2026-03-29T10:06:17.707Z</time></trkpt><trkpt lat="45.4103757" lon="10.62582"><ele>97.0</ele><time>2026-03-29T10:06:18.707Z</time></trkpt><trkpt lat="45.4104887" lon="10.6258832"><ele>97.0</ele><time>2026-03-29T10:06:19.707Z</time></trkpt><trkpt lat="45.4105997" lon="10.6259935"><ele>98.25</ele><time>2026-03-29T10:06:20.707Z</time></trkpt><trkpt lat="45.4107061" lon="10.6261234"><ele>99.5</ele><time>2026-03-29T10:06:21.707Z</time></trkpt><trkpt lat="45.4108123" lon="10.626264"><ele>100.75</ele><time>2026-03-29T10:06:22.707Z</time></trkpt><trkpt lat="45.4109184" lon="10.6264334"><ele>102.0</ele><time>2026-03-29T10:06:23.707Z</time></trkpt><trkpt lat="45.4110235" lon="10.6266515"><ele>102.0</ele><time>2026-03-29T10:06:24.707Z</time></trkpt><trkpt lat="45.4111138" lon="10.6269045"><ele>102.0</ele><time>2026-03-29T10:06:25.707Z</time></trkpt><trkpt lat="45.4111896" lon="10.6271734"><ele>102.0</ele><time>2026-03-29T10:06:26.707Z</time></trkpt><trkpt lat="45.4112558" lon="10.6274634"><ele>101.5</ele><time>2026-03-29T10:06:27.707Z</time></trkpt><trkpt lat="45.4113059" lon="10.627773"><ele>101.0</ele><time>2026-03-29T10:06:28.707Z</time></trkpt><trkpt lat="45.411336" lon="10.6280946"><ele>100.5</ele><time>2026-03-29T10:06:29.707Z</time></trkpt><trkpt lat="45.4113468" lon="10.6284391"><ele>100.0</ele><time>2026-03-29T10:06:30.707Z</time></trkpt><trkpt lat="45.411345" lon="10.6287972"><ele>99.5</ele><time>2026-03-29T10:06:31.708Z</time></trkpt><trkpt lat="45.41134" lon="10.6291581"><ele>99.0</ele><time>2026-03-29T10:06:32.707Z</time></trkpt><trkpt lat="45.4113371" lon="10.6295067"><ele>99.0</ele><time>2026-03-29T10:06:33.707Z</time></trkpt><trkpt lat="45.4113333" lon="10.6298289"><ele>99.0</ele><time>2026-03-29T10:06:34.707Z</time></trkpt><trkpt lat="45.4113288" lon="10.6301316"><ele>99.0</ele><time>2026-03-29T10:06:35.708Z</time></trkpt><trkpt lat="45.4113235" lon="10.6304142"><ele>99.0</ele><time>2026-03-29T10:06:36.707Z</time></trkpt><trkpt lat="45.4113122" lon="10.6306861"><ele>99.0</ele><time>2026-03-29T10:06:37.707Z</time></trkpt><trkpt lat="45.4112851" lon="10.6309276"><ele>99.0</ele><time>2026-03-29T10:06:38.707Z</time></trkpt><trkpt lat="45.41124" lon="10.6311315"><ele>100.5</ele><time>2026-03-29T10:06:39.707Z</time></trkpt><trkpt lat="45.4111868" lon="10.6312773"><ele>102.0</ele><time>2026-03-29T10:06:40.707Z</time></trkpt><trkpt lat="45.4111097" lon="10.6313925"><ele>103.5</ele><time>2026-03-29T10:06:41.707Z</time></trkpt><trkpt lat="45.4109989" lon="10.631494"><ele>105.0</ele><time>2026-03-29T10:06:42.707Z</time></trkpt><trkpt lat="45.4108696" lon="10.6316046"><ele>105.0</ele><time>2026-03-29T10:06:43.707Z</time></trkpt><trkpt lat="45.4107048" lon="10.6317101"><ele>105.0</ele><time>2026-03-29T10:06:44.707Z</time></trkpt><trkpt lat="45.4105203" lon="10.6318064"><ele>105.0</ele><time>2026-03-29T10:06:45.707Z</time></trkpt><trkpt lat="45.4103236" lon="10.6319285"><ele>107.0</ele><time>2026-03-29T10:06:46.707Z</time></trkpt><trkpt lat="45.4101378" lon="10.6320609"><ele>109.0</ele><time>2026-03-29T10:06:47.707Z</time></trkpt><trkpt lat="45.4099688" lon="10.6322201"><ele>111.0</ele><time>2026-03-29T10:06:48.708Z</time></trkpt><trkpt lat="45.4098295" lon="10.6323942"><ele>111.0</ele><time>2026-03-29T10:06:49.707Z</time></trkpt><trkpt lat="45.4097008" lon="10.6325771"><ele>111.0</ele><time>2026-03-29T10:06:50.707Z</time></trkpt><trkpt lat="45.409558" lon="10.632752"><ele>111.0</ele><time>2026-03-29T10:06:51.707Z</time></trkpt><trkpt lat="45.4093982" lon="10.6329129"><ele>112.0</ele><time>2026-03-29T10:06:52.707Z</time></trkpt><trkpt lat="45.4092382" lon="10.6330689"><ele>113.0</ele><time>2026-03-29T10:06:53.707Z</time></trkpt><trkpt lat="45.4090875" lon="10.6332092"><ele>114.0</ele><time>2026-03-29T10:06:54.707Z</time></trkpt><trkpt lat="45.4089353" lon="10.6333452"><ele>113.66666666666666</ele><time>2026-03-29T10:06:55.707Z</time></trkpt><trkpt lat="45.4087883" lon="10.6334799"><ele>113.33333333333333</ele><time>2026-03-29T10:06:56.707Z</time></trkpt><trkpt lat="45.4086395" lon="10.6336071"><ele>113.0</ele><time>2026-03-29T10:06:57.707Z</time></trkpt><trkpt lat="45.4084817" lon="10.633715"><ele>112.33333333333333</ele><time>2026-03-29T10:06:58.707Z</time></trkpt><trkpt lat="45.4083157" lon="10.6338098"><ele>111.66666666666666</ele><time>2026-03-29T10:06:59.707Z</time></trkpt><trkpt lat="45.4081609" lon="10.6338897"><ele>111.0</ele><time>2026-03-29T10:07:00.707Z</time></trkpt><trkpt lat="45.4080145" lon="10.6339556"><ele>110.75</ele><time>2026-03-29T10:07:01.707Z</time></trkpt><trkpt lat="45.4078742" lon="10.6339919"><ele>110.5</ele><time>2026-03-29T10:07:02.707Z</time></trkpt><trkpt lat="45.4077523" lon="10.6339782"><ele>110.25</ele><time>2026-03-29T10:07:03.707Z</time></trkpt><trkpt lat="45.4076497" lon="10.6339562"><ele>110.0</ele><time>2026-03-29T10:07:04.707Z</time></trkpt><trkpt lat="45.4075684" lon="10.6339893"><ele>110.0</ele><time>2026-03-29T10:07:05.707Z</time></trkpt><trkpt lat="45.4075238" lon="10.6340597"><ele>110.0</ele><time>2026-03-29T10:07:06.707Z</time></trkpt><trkpt lat="45.4075536" lon="10.6342381"><ele>110.0</ele><time>2026-03-29T10:07:08.707Z</time></trkpt><trkpt lat="45.4076242" lon="10.63433"><ele>110.0</ele><time>2026-03-29T10:07:09.707Z</time></trkpt><trkpt lat="45.407729" lon="10.6344446"><ele>110.0</ele><time>2026-03-29T10:07:10.707Z</time></trkpt><trkpt lat="45.4078645" lon="10.6345948"><ele>110.0</ele><time>2026-03-29T10:07:11.707Z</time></trkpt><trkpt lat="45.4080122" lon="10.6347491"><ele>110.0</ele><time>2026-03-29T10:07:12.707Z</time></trkpt><trkpt lat="45.4081843" lon="10.6349228"><ele>110.0</ele><time>2026-03-29T10:07:13.707Z</time></trkpt><trkpt lat="45.4083523" lon="10.635104"><ele>110.0</ele><time>2026-03-29T10:07:14.707Z</time></trkpt><trkpt lat="45.4085041" lon="10.6352895"><ele>110.0</ele><time>2026-03-29T10:07:15.707Z</time></trkpt><trkpt lat="45.4086364" lon="10.6354782"><ele>110.0</ele><time>2026-03-29T10:07:16.707Z</time></trkpt><trkpt lat="45.4087685" lon="10.6356858"><ele>109.33333333333333</ele><time>2026-03-29T10:07:17.707Z</time></trkpt><trkpt lat="45.4089003" lon="10.6358995"><ele>108.66666666666666</ele><time>2026-03-29T10:07:18.707Z</time></trkpt><trkpt lat="45.4090282" lon="10.6361206"><ele>108.0</ele><time>2026-03-29T10:07:19.707Z</time></trkpt><trkpt lat="45.4091595" lon="10.6363586"><ele>108.0</ele><time>2026-03-29T10:07:20.707Z</time></trkpt><trkpt lat="45.4092949" lon="10.6366128"><ele>108.0</ele><time>2026-03-29T10:07:21.707Z</time></trkpt><trkpt lat="45.4094423" lon="10.6369048"><ele>107.0</ele><time>2026-03-29T10:07:22.707Z</time></trkpt><trkpt lat="45.4095832" lon="10.6372269"><ele>106.0</ele><time>2026-03-29T10:07:23.707Z</time></trkpt><trkpt lat="45.4097123" lon="10.6375573"><ele>104.5</ele><time>2026-03-29T10:07:24.708Z</time></trkpt><trkpt lat="45.4098483" lon="10.6379063"><ele>103.0</ele><time>2026-03-29T10:07:25.707Z</time></trkpt><trkpt lat="45.4099728" lon="10.6382193"><ele>103.0</ele><time>2026-03-29T10:07:26.707Z</time></trkpt><trkpt lat="45.410088" lon="10.6385168"><ele>103.0</ele><time>2026-03-29T10:07:27.707Z</time></trkpt><trkpt lat="45.4101886" lon="10.6388047"><ele>103.66666666666667</ele><time>2026-03-29T10:07:28.707Z</time></trkpt><trkpt lat="45.4102754" lon="10.6390938"><ele>104.33333333333334</ele><time>2026-03-29T10:07:29.707Z</time></trkpt><trkpt lat="45.4103515" lon="10.6393848"><ele>105.0</ele><time>2026-03-29T10:07:30.708Z</time></trkpt><trkpt lat="45.4104034" lon="10.6396616"><ele>104.0</ele><time>2026-03-29T10:07:31.707Z</time></trkpt><trkpt lat="45.4104346" lon="10.639924"><ele>103.0</ele><time>2026-03-29T10:07:32.707Z</time></trkpt><trkpt lat="45.4104698" lon="10.6401654"><ele>102.0</ele><time>2026-03-29T10:07:33.707Z</time></trkpt><trkpt lat="45.4105218" lon="10.640386"><ele>102.0</ele><time>2026-03-29T10:07:34.707Z</time></trkpt><trkpt lat="45.4105719" lon="10.6405822"><ele>102.0</ele><time>2026-03-29T10:07:35.707Z</time></trkpt><trkpt lat="45.410601" lon="10.6407636"><ele>102.0</ele><time>2026-03-29T10:07:36.707Z</time></trkpt><trkpt lat="45.4105986" lon="10.6409314"><ele>102.0</ele><time>2026-03-29T10:07:37.707Z</time></trkpt><trkpt lat="45.4105558" lon="10.6410854"><ele>99.0</ele><time>2026-03-29T10:07:38.708Z</time></trkpt><trkpt lat="45.4104817" lon="10.6412395"><ele>96.0</ele><time>2026-03-29T10:07:39.707Z</time></trkpt><trkpt lat="45.4103792" lon="10.6413954"><ele>93.0</ele><time>2026-03-29T10:07:40.707Z</time></trkpt><trkpt lat="45.410244" lon="10.6415587"><ele>93.0</ele><time>2026-03-29T10:07:41.707Z</time></trkpt><trkpt lat="45.410086" lon="10.6417115"><ele>93.0</ele><time>2026-03-29T10:07:42.707Z</time></trkpt><trkpt lat="45.4099073" lon="10.6418274"><ele>93.0</ele><time>2026-03-29T10:07:43.707Z</time></trkpt><trkpt lat="45.4097107" lon="10.6418978"><ele>92.33333333333333</ele><time>2026-03-29T10:07:44.707Z</time></trkpt><trkpt lat="45.4095039" lon="10.6419243"><ele>91.66666666666666</ele><time>2026-03-29T10:07:45.707Z</time></trkpt><trkpt lat="45.4092952" lon="10.641898"><ele>91.0</ele><time>2026-03-29T10:07:46.707Z</time></trkpt><trkpt lat="45.4090937" lon="10.6418141"><ele>91.0</ele><time>2026-03-29T10:07:47.707Z</time></trkpt><trkpt lat="45.4088994" lon="10.6416716"><ele>91.0</ele><time>2026-03-29T10:07:48.707Z</time></trkpt><trkpt lat="45.4087149" lon="10.6415043"><ele>91.0</ele><time>2026-03-29T10:07:49.707Z</time></trkpt><trkpt lat="45.4085484" lon="10.6413441"><ele>90.66666666666666</ele><time>2026-03-29T10:07:50.707Z</time></trkpt><trkpt lat="45.4083876" lon="10.641194"><ele>90.33333333333333</ele><time>2026-03-29T10:07:51.707Z</time></trkpt><trkpt lat="45.4082331" lon="10.6410522"><ele>90.0</ele><time>2026-03-29T10:07:52.707Z</time></trkpt><trkpt lat="45.4080796" lon="10.6409155"><ele>89.33333333333333</ele><time>2026-03-29T10:07:53.707Z</time></trkpt><trkpt lat="45.4079111" lon="10.6407879"><ele>88.66666666666666</ele><time>2026-03-29T10:07:54.707Z</time></trkpt><trkpt lat="45.4077345" lon="10.6406874"><ele>88.0</ele><time>2026-03-29T10:07:55.707Z</time></trkpt><trkpt lat="45.4075643" lon="10.6406053"><ele>88.0</ele><time>2026-03-29T10:07:56.707Z</time></trkpt><trkpt lat="45.4074102" lon="10.6405287"><ele>88.0</ele><time>2026-03-29T10:07:57.707Z</time></trkpt><trkpt lat="45.4072694" lon="10.6404544"><ele>88.0</ele><time>2026-03-29T10:07:58.707Z</time></trkpt><trkpt lat="45.4071301" lon="10.6403829"><ele>87.66666666666666</ele><time>2026-03-29T10:07:59.707Z</time></trkpt><trkpt lat="45.4069824" lon="10.6403073"><ele>87.33333333333333</ele><time>2026-03-29T10:08:00.707Z</time></trkpt><trkpt lat="45.4068295" lon="10.6402282"><ele>87.0</ele><time>2026-03-29T10:08:01.707Z</time></trkpt><trkpt lat="45.4066701" lon="10.6401464"><ele>87.33333333333333</ele><time>2026-03-29T10:08:02.707Z</time></trkpt><trkpt lat="45.4065085" lon="10.6400662"><ele>87.66666666666666</ele><time>2026-03-29T10:08:03.707Z</time></trkpt><trkpt lat="45.4063386" lon="10.6399842"><ele>88.0</ele><time>2026-03-29T10:08:04.707Z</time></trkpt><trkpt lat="45.4061679" lon="10.6399006"><ele>88.0</ele><time>2026-03-29T10:08:05.707Z</time></trkpt><trkpt lat="45.4060153" lon="10.6398202"><ele>88.0</ele><time>2026-03-29T10:08:06.707Z</time></trkpt><trkpt lat="45.4058736" lon="10.6397432"><ele>88.0</ele><time>2026-03-29T10:08:07.707Z</time></trkpt><trkpt lat="45.4057602" lon="10.6396821"><ele>88.0</ele><time>2026-03-29T10:08:08.707Z</time></trkpt><trkpt lat="45.4056763" lon="10.6396379"><ele>88.0</ele><time>2026-03-29T10:08:09.707Z</time></trkpt><trkpt lat="45.4055806" lon="10.6396312"><ele>88.0</ele><time>2026-03-29T10:08:11.707Z</time></trkpt><trkpt lat="45.405533" lon="10.639726"><ele>88.0</ele><time>2026-03-29T10:08:14.707Z</time></trkpt><trkpt lat="45.4054737" lon="10.6398679"><ele>88.0</ele><time>2026-03-29T10:08:16.707Z</time></trkpt><trkpt lat="45.4054192" lon="10.64"><ele>88.0</ele><time>2026-03-29T10:08:18.707Z</time></trkpt><trkpt lat="45.4054033" lon="10.6400991"><ele>88.0</ele><time>2026-03-29T10:08:20.707Z</time></trkpt><trkpt lat="45.4054309" lon="10.6401849"><ele>88.0</ele><time>2026-03-29T10:08:22.707Z</time></trkpt><trkpt lat="45.4055453" lon="10.6403048"><ele>88.0</ele><time>2026-03-29T10:08:24.707Z</time></trkpt><trkpt lat="45.40562" lon="10.6403658"><ele>88.0</ele><time>2026-03-29T10:08:25.707Z</time></trkpt><trkpt lat="45.4057264" lon="10.6404341"><ele>88.0</ele><time>2026-03-29T10:08:26.707Z</time></trkpt><trkpt lat="45.4058436" lon="10.6404954"><ele>87.25</ele><time>2026-03-29T10:08:27.707Z</time></trkpt><trkpt lat="45.4059725" lon="10.6405594"><ele>86.5</ele><time>2026-03-29T10:08:28.707Z</time></trkpt><trkpt lat="45.4060992" lon="10.6406312"><ele>85.75</ele><time>2026-03-29T10:08:29.707Z</time></trkpt><trkpt lat="45.4062175" lon="10.640716"><ele>85.0</ele><time>2026-03-29T10:08:30.707Z</time></trkpt><trkpt lat="45.4063273" lon="10.6407901"><ele>85.4</ele><time>2026-03-29T10:08:31.707Z</time></trkpt><trkpt lat="45.4064286" lon="10.6408477"><ele>85.8</ele><time>2026-03-29T10:08:32.707Z</time></trkpt><trkpt lat="45.4065254" lon="10.6408819"><ele>86.19999999999999</ele><time>2026-03-29T10:08:33.708Z</time></trkpt><trkpt lat="45.4066205" lon="10.6409015"><ele>86.6</ele><time>2026-03-29T10:08:34.707Z</time></trkpt><trkpt lat="45.4067266" lon="10.6409323"><ele>87.0</ele><time>2026-03-29T10:08:35.707Z</time></trkpt><trkpt lat="45.4068421" lon="10.6409642"><ele>87.0</ele><time>2026-03-29T10:08:36.707Z</time></trkpt><trkpt lat="45.4069489" lon="10.640975"><ele>87.0</ele><time>2026-03-29T10:08:37.707Z</time></trkpt><trkpt lat="45.40705" lon="10.6409763"><ele>87.0</ele><time>2026-03-29T10:08:38.707Z</time></trkpt><trkpt lat="45.4071591" lon="10.6409675"><ele>87.0</ele><time>2026-03-29T10:08:39.707Z</time></trkpt><trkpt lat="45.4072686" lon="10.6409542"><ele>87.0</ele><time>2026-03-29T10:08:40.707Z</time></trkpt><trkpt lat="45.4073767" lon="10.6409523"><ele>87.19999999999999</ele><time>2026-03-29T10:08:41.707Z</time></trkpt><trkpt lat="45.4074907" lon="10.6409668"><ele>87.4</ele><time>2026-03-29T10:08:42.707Z</time></trkpt><trkpt lat="45.4075945" lon="10.6409843"><ele>87.6</ele><time>2026-03-29T10:08:43.707Z</time></trkpt><trkpt lat="45.407688" lon="10.641003"><ele>87.80000000000001</ele><time>2026-03-29T10:08:44.707Z</time></trkpt><trkpt lat="45.4077865" lon="10.6410157"><ele>88.0</ele><time>2026-03-29T10:08:45.707Z</time></trkpt><trkpt lat="45.4078855" lon="10.641048"><ele>88.0</ele><time>2026-03-29T10:08:46.707Z</time></trkpt><trkpt lat="45.4079667" lon="10.6410957"><ele>88.0</ele><time>2026-03-29T10:08:47.707Z</time></trkpt><trkpt lat="45.4080419" lon="10.6411647"><ele>88.0</ele><time>2026-03-29T10:08:48.707Z</time></trkpt><trkpt lat="45.4081138" lon="10.641258"><ele>88.0</ele><time>2026-03-29T10:08:49.707Z</time></trkpt><trkpt lat="45.4081895" lon="10.6413738"><ele>88.0</ele><time>2026-03-29T10:08:50.707Z</time></trkpt><trkpt lat="45.4082658" lon="10.6414967"><ele>87.4</ele><time>2026-03-29T10:08:51.708Z</time></trkpt><trkpt lat="45.4083288" lon="10.6416"><ele>86.80000000000001</ele><time>2026-03-29T10:08:52.707Z</time></trkpt><trkpt lat="45.4083791" lon="10.6417012"><ele>86.2</ele><time>2026-03-29T10:08:53.707Z</time></trkpt><trkpt lat="45.4084294" lon="10.6418241"><ele>85.6</ele><time>2026-03-29T10:08:54.707Z</time></trkpt><trkpt lat="45.408463" lon="10.6419635"><ele>85.0</ele><time>2026-03-29T10:08:55.707Z</time></trkpt><trkpt lat="45.4084809" lon="10.6421332"><ele>85.0</ele><time>2026-03-29T10:08:56.707Z</time></trkpt><trkpt lat="45.4084988" lon="10.6423261"><ele>85.0</ele><time>2026-03-29T10:08:57.707Z</time></trkpt><trkpt lat="45.4085148" lon="10.6425203"><ele>85.0</ele><time>2026-03-29T10:08:58.707Z</time></trkpt><trkpt lat="45.4085289" lon="10.6427025"><ele>85.0</ele><time>2026-03-29T10:08:59.707Z</time></trkpt><trkpt lat="45.4085483" lon="10.6428758"><ele>85.5</ele><time>2026-03-29T10:09:00.707Z</time></trkpt><trkpt lat="45.4085735" lon="10.6430343"><ele>86.0</ele><time>2026-03-29T10:09:01.707Z</time></trkpt><trkpt lat="45.408603" lon="10.6431792"><ele>86.5</ele><time>2026-03-29T10:09:02.707Z</time></trkpt><trkpt lat="45.4086357" lon="10.6433434"><ele>87.0</ele><time>2026-03-29T10:09:03.707Z</time></trkpt><trkpt lat="45.4086712" lon="10.6435128"><ele>87.25</ele><time>2026-03-29T10:09:04.707Z</time></trkpt><trkpt lat="45.4087099" lon="10.6436813"><ele>87.5</ele><time>2026-03-29T10:09:05.707Z</time></trkpt><trkpt lat="45.4087512" lon="10.64384"><ele>87.75</ele><time>2026-03-29T10:09:06.707Z</time></trkpt><trkpt lat="45.4087892" lon="10.6439962"><ele>88.0</ele><time>2026-03-29T10:09:07.707Z</time></trkpt><trkpt lat="45.4088251" lon="10.6441493"><ele>87.80000000000001</ele><time>2026-03-29T10:09:08.708Z</time></trkpt><trkpt lat="45.4088578" lon="10.6442976"><ele>87.6</ele><time>2026-03-29T10:09:09.707Z</time></trkpt><trkpt lat="45.4088875" lon="10.6444402"><ele>87.4</ele><time>2026-03-29T10:09:10.707Z</time></trkpt><trkpt lat="45.4089132" lon="10.6445717"><ele>87.19999999999999</ele><time>2026-03-29T10:09:11.707Z</time></trkpt><trkpt lat="45.4089407" lon="10.6447003"><ele>87.0</ele><time>2026-03-29T10:09:12.707Z</time></trkpt><trkpt lat="45.4089713" lon="10.6448086"><ele>87.0</ele><time>2026-03-29T10:09:13.707Z</time></trkpt><trkpt lat="45.4090179" lon="10.6449145"><ele>87.0</ele><time>2026-03-29T10:09:14.707Z</time></trkpt><trkpt lat="45.4090762" lon="10.6450179"><ele>87.0</ele><time>2026-03-29T10:09:15.707Z</time></trkpt><trkpt lat="45.4091384" lon="10.6451064"><ele>87.0</ele><time>2026-03-29T10:09:16.707Z</time></trkpt><trkpt lat="45.4092157" lon="10.6451966"><ele>87.0</ele><time>2026-03-29T10:09:17.707Z</time></trkpt><trkpt lat="45.4093061" lon="10.6452998"><ele>87.0</ele><time>2026-03-29T10:09:18.707Z</time></trkpt><trkpt lat="45.4094027" lon="10.6454205"><ele>87.0</ele><time>2026-03-29T10:09:19.707Z</time></trkpt><trkpt lat="45.4094905" lon="10.6455348"><ele>87.0</ele><time>2026-03-29T10:09:20.707Z</time></trkpt><trkpt lat="45.409574" lon="10.6456351"><ele>87.0</ele><time>2026-03-29T10:09:21.707Z</time></trkpt><trkpt lat="45.4096576" lon="10.6457192"><ele>87.19999999999999</ele><time>2026-03-29T10:09:22.707Z</time></trkpt><trkpt lat="45.4097489" lon="10.6457996"><ele>87.4</ele><time>2026-03-29T10:09:23.707Z</time></trkpt><trkpt lat="45.4098303" lon="10.6458933"><ele>87.6</ele><time>2026-03-29T10:09:24.707Z</time></trkpt><trkpt lat="45.4099045" lon="10.6460077"><ele>87.80000000000001</ele><time>2026-03-29T10:09:25.708Z</time></trkpt><trkpt lat="45.4099695" lon="10.6461457"><ele>88.0</ele><time>2026-03-29T10:09:26.707Z</time></trkpt><trkpt lat="45.4100424" lon="10.6462925"><ele>88.25</ele><time>2026-03-29T10:09:27.707Z</time></trkpt><trkpt lat="45.4101245" lon="10.6464384"><ele>88.5</ele><time>2026-03-29T10:09:28.707Z</time></trkpt><trkpt lat="45.4102119" lon="10.6465785"><ele>88.75</ele><time>2026-03-29T10:09:29.707Z</time></trkpt><trkpt lat="45.4102913" lon="10.6467009"><ele>89.0</ele><time>2026-03-29T10:09:30.707Z</time></trkpt><trkpt lat="45.4103652" lon="10.6468139"><ele>89.0</ele><time>2026-03-29T10:09:31.708Z</time></trkpt><trkpt lat="45.4104348" lon="10.6469116"><ele>89.0</ele><time>2026-03-29T10:09:32.707Z</time></trkpt><trkpt lat="45.4105136" lon="10.6470105"><ele>89.0</ele><time>2026-03-29T10:09:33.707Z</time></trkpt><trkpt lat="45.4105948" lon="10.647106"><ele>89.0</ele><time>2026-03-29T10:09:34.707Z</time></trkpt><trkpt lat="45.4106618" lon="10.6472237"><ele>89.0</ele><time>2026-03-29T10:09:35.707Z</time></trkpt><trkpt lat="45.4107137" lon="10.6473582"><ele>88.75</ele><time>2026-03-29T10:09:36.707Z</time></trkpt><trkpt lat="45.4107566" lon="10.647503"><ele>88.5</ele><time>2026-03-29T10:09:37.707Z</time></trkpt><trkpt lat="45.4107981" lon="10.6476575"><ele>88.25</ele><time>2026-03-29T10:09:38.707Z</time></trkpt><trkpt lat="45.4108324" lon="10.6478101"><ele>88.0</ele><time>2026-03-29T10:09:39.707Z</time></trkpt><trkpt lat="45.4108607" lon="10.6479682"><ele>88.0</ele><time>2026-03-29T10:09:40.707Z</time></trkpt><trkpt lat="45.4108829" lon="10.6480947"><ele>88.0</ele><time>2026-03-29T10:09:41.707Z</time></trkpt><trkpt lat="45.4109129" lon="10.6481901"><ele>88.0</ele><time>2026-03-29T10:09:42.707Z</time></trkpt><trkpt lat="45.4110041" lon="10.6482648"><ele>88.0</ele><time>2026-03-29T10:09:44.707Z</time></trkpt><trkpt lat="45.4110733" lon="10.6482589"><ele>88.0</ele><time>2026-03-29T10:09:45.707Z</time></trkpt><trkpt lat="45.4111661" lon="10.6482444"><ele>88.0</ele><time>2026-03-29T10:09:46.707Z</time></trkpt><trkpt lat="45.4112784" lon="10.6482232"><ele>89.0</ele><time>2026-03-29T10:09:47.707Z</time></trkpt><trkpt lat="45.4113896" lon="10.6482075"><ele>90.0</ele><time>2026-03-29T10:09:48.707Z</time></trkpt><trkpt lat="45.411502" lon="10.648186"><ele>91.0</ele><time>2026-03-29T10:09:49.707Z</time></trkpt><trkpt lat="45.4115956" lon="10.6481641"><ele>92.0</ele><time>2026-03-29T10:09:50.707Z</time></trkpt><trkpt lat="45.4116772" lon="10.6481483"><ele>93.0</ele><time>2026-03-29T10:09:51.707Z</time></trkpt><trkpt lat="45.4117431" lon="10.6481335"><ele>93.0</ele><time>2026-03-29T10:09:52.707Z</time></trkpt><trkpt lat="45.411843" lon="10.6481153"><ele>93.0</ele><time>2026-03-29T10:09:54.707Z</time></trkpt><trkpt lat="45.4119114" lon="10.6479973"><ele>93.0</ele><time>2026-03-29T10:09:57.707Z</time></trkpt><trkpt lat="45.4119137" lon="10.6478732"><ele>93.0</ele><time>2026-03-29T10:09:58.707Z</time></trkpt><trkpt lat="45.4119074" lon="10.6477248"><ele>93.0</ele><time>2026-03-29T10:09:59.707Z</time></trkpt><trkpt lat="45.411907" lon="10.6475374"><ele>93.0</ele><time>2026-03-29T10:10:00.707Z</time></trkpt><trkpt lat="45.411913" lon="10.6473183"><ele>93.0</ele><time>2026-03-29T10:10:01.707Z</time></trkpt><trkpt lat="45.4119146" lon="10.6470674"><ele>93.0</ele><time>2026-03-29T10:10:02.707Z</time></trkpt><trkpt lat="45.4118946" lon="10.6467751"><ele>93.0</ele><time>2026-03-29T10:10:03.707Z</time></trkpt><trkpt lat="45.4118623" lon="10.6464409"><ele>93.0</ele><time>2026-03-29T10:10:04.707Z</time></trkpt><trkpt lat="45.4118158" lon="10.646094"><ele>94.5</ele><time>2026-03-29T10:10:05.708Z</time></trkpt><trkpt lat="45.4117479" lon="10.6457236"><ele>96.0</ele><time>2026-03-29T10:10:06.707Z</time></trkpt><trkpt lat="45.4116761" lon="10.6453432"><ele>96.5</ele><time>2026-03-29T10:10:07.707Z</time></trkpt><trkpt lat="45.4116014" lon="10.6449402"><ele>97.0</ele><time>2026-03-29T10:10:08.707Z</time></trkpt><trkpt lat="45.4115238" lon="10.6445425"><ele>98.0</ele><time>2026-03-29T10:10:09.707Z</time></trkpt><trkpt lat="45.4114455" lon="10.6441673"><ele>99.0</ele><time>2026-03-29T10:10:10.707Z</time></trkpt><trkpt lat="45.411368" lon="10.643805"><ele>97.5</ele><time>2026-03-29T10:10:11.707Z</time></trkpt><trkpt lat="45.4112901" lon="10.6434392"><ele>96.0</ele><time>2026-03-29T10:10:12.707Z</time></trkpt><trkpt lat="45.4112142" lon="10.6430799"><ele>95.5</ele><time>2026-03-29T10:10:13.707Z</time></trkpt><trkpt lat="45.4111453" lon="10.6427448"><ele>95.0</ele><time>2026-03-29T10:10:14.707Z</time></trkpt><trkpt lat="45.4110827" lon="10.6424337"><ele>95.0</ele><time>2026-03-29T10:10:15.707Z</time></trkpt><trkpt lat="45.4110231" lon="10.6421464"><ele>95.0</ele><time>2026-03-29T10:10:16.707Z</time></trkpt><trkpt lat="45.4109679" lon="10.6418872"><ele>95.0</ele><time>2026-03-29T10:10:17.707Z</time></trkpt><trkpt lat="45.4109196" lon="10.6416715"><ele>96.2</ele><time>2026-03-29T10:10:18.707Z</time></trkpt><trkpt lat="45.4108843" lon="10.6414892"><ele>97.4</ele><time>2026-03-29T10:10:19.707Z</time></trkpt><trkpt lat="45.4108801" lon="10.6413393"><ele>98.6</ele><time>2026-03-29T10:10:20.707Z</time></trkpt><trkpt lat="45.4109133" lon="10.6412144"><ele>99.8</ele><time>2026-03-29T10:10:21.707Z</time></trkpt><trkpt lat="45.4109426" lon="10.6410761"><ele>101.0</ele><time>2026-03-29T10:10:22.707Z</time></trkpt><trkpt lat="45.4109414" lon="10.6409448"><ele>101.19999999999999</ele><time>2026-03-29T10:10:23.707Z</time></trkpt><trkpt lat="45.4109071" lon="10.6408366"><ele>101.39999999999999</ele><time>2026-03-29T10:10:24.707Z</time></trkpt><trkpt lat="45.4108424" lon="10.640763"><ele>101.6</ele><time>2026-03-29T10:10:25.707Z</time></trkpt><trkpt lat="45.4107521" lon="10.6406992"><ele>101.8</ele><time>2026-03-29T10:10:26.707Z</time></trkpt><trkpt lat="45.4106542" lon="10.6406128"><ele>102.0</ele><time>2026-03-29T10:10:27.707Z</time></trkpt><trkpt lat="45.4105733" lon="10.6404582"><ele>101.66666666666666</ele><time>2026-03-29T10:10:28.707Z</time></trkpt><trkpt lat="45.4105117" lon="10.6402481"><ele>101.33333333333333</ele><time>2026-03-29T10:10:29.707Z</time></trkpt><trkpt lat="45.4104696" lon="10.6399995"><ele>101.0</ele><time>2026-03-29T10:10:30.707Z</time></trkpt><trkpt lat="45.4104308" lon="10.6397179"><ele>103.0</ele><time>2026-03-29T10:10:31.707Z</time></trkpt><trkpt lat="45.4103782" lon="10.6394109"><ele>105.0</ele><time>2026-03-29T10:10:32.707Z</time></trkpt><trkpt lat="45.4102969" lon="10.6390887"><ele>105.0</ele><time>2026-03-29T10:10:33.707Z</time></trkpt><trkpt lat="45.4101861" lon="10.6387667"><ele>105.0</ele><time>2026-03-29T10:10:34.707Z</time></trkpt><trkpt lat="45.410066" lon="10.6384389"><ele>104.0</ele><time>2026-03-29T10:10:35.707Z</time></trkpt><trkpt lat="45.4099492" lon="10.6381328"><ele>103.0</ele><time>2026-03-29T10:10:36.707Z</time></trkpt><trkpt lat="45.4098376" lon="10.6378453"><ele>103.0</ele><time>2026-03-29T10:10:37.707Z</time></trkpt><trkpt lat="45.4097315" lon="10.6375713"><ele>103.0</ele><time>2026-03-29T10:10:38.707Z</time></trkpt><trkpt lat="45.4096321" lon="10.6373145"><ele>103.0</ele><time>2026-03-29T10:10:39.707Z</time></trkpt><trkpt lat="45.4095318" lon="10.6370667"><ele>104.66666666666667</ele><time>2026-03-29T10:10:40.707Z</time></trkpt><trkpt lat="45.4094215" lon="10.636826"><ele>106.33333333333334</ele><time>2026-03-29T10:10:41.707Z</time></trkpt><trkpt lat="45.4093016" lon="10.6365979"><ele>108.0</ele><time>2026-03-29T10:10:42.707Z</time></trkpt><trkpt lat="45.4091766" lon="10.636374"><ele>108.0</ele><time>2026-03-29T10:10:43.707Z</time></trkpt><trkpt lat="45.4090556" lon="10.6361472"><ele>108.0</ele><time>2026-03-29T10:10:44.707Z</time></trkpt><trkpt lat="45.4089359" lon="10.635919"><ele>108.0</ele><time>2026-03-29T10:10:45.707Z</time></trkpt><trkpt lat="45.4088126" lon="10.6356974"><ele>107.66666666666666</ele><time>2026-03-29T10:10:46.707Z</time></trkpt><trkpt lat="45.4086799" lon="10.6354879"><ele>107.33333333333333</ele><time>2026-03-29T10:10:47.707Z</time></trkpt><trkpt lat="45.4085342" lon="10.635293"><ele>107.0</ele><time>2026-03-29T10:10:48.707Z</time></trkpt><trkpt lat="45.4083792" lon="10.6351134"><ele>107.66666666666666</ele><time>2026-03-29T10:10:49.707Z</time></trkpt><trkpt lat="45.4082211" lon="10.6349481"><ele>108.33333333333334</ele><time>2026-03-29T10:10:50.707Z</time></trkpt><trkpt lat="45.408074" lon="10.6347972"><ele>109.0</ele><time>2026-03-29T10:10:51.707Z</time></trkpt><trkpt lat="45.4079392" lon="10.6346593"><ele>109.0</ele><time>2026-03-29T10:10:52.707Z</time></trkpt><trkpt lat="45.4078312" lon="10.6345418"><ele>109.0</ele><time>2026-03-29T10:10:53.707Z</time></trkpt><trkpt lat="45.4077647" lon="10.6344307"><ele>109.0</ele><time>2026-03-29T10:10:54.707Z</time></trkpt><trkpt lat="45.4077376" lon="10.6343221"><ele>109.0</ele><time>2026-03-29T10:10:55.707Z</time></trkpt><trkpt lat="45.4077397" lon="10.6342272"><ele>109.0</ele><time>2026-03-29T10:10:56.707Z</time></trkpt><trkpt lat="45.4077423" lon="10.6341233"><ele>109.2</ele><time>2026-03-29T10:10:58.707Z</time></trkpt><trkpt lat="45.407714" lon="10.6340237"><ele>109.4</ele><time>2026-03-29T10:11:00.707Z</time></trkpt><trkpt lat="45.4075975" lon="10.6339485"><ele>109.6</ele><time>2026-03-29T10:11:02.707Z</time></trkpt><trkpt lat="45.407503" lon="10.6340133"><ele>109.8</ele><time>2026-03-29T10:11:04.707Z</time></trkpt><trkpt lat="45.4075048" lon="10.6341804"><ele>110.0</ele><time>2026-03-29T10:11:06.707Z</time></trkpt><trkpt lat="45.4075552" lon="10.6342388"><ele>110.0</ele><time>2026-03-29T10:11:07.707Z</time></trkpt><trkpt lat="45.4076216" lon="10.6342553"><ele>110.0</ele><time>2026-03-29T10:11:08.707Z</time></trkpt><trkpt lat="45.4076935" lon="10.6342217"><ele>110.0</ele><time>2026-03-29T10:11:09.707Z</time></trkpt><trkpt lat="45.4077795" lon="10.6341463"><ele>110.0</ele><time>2026-03-29T10:11:10.707Z</time></trkpt><trkpt lat="45.4078788" lon="10.6340664"><ele>110.0</ele><time>2026-03-29T10:11:11.707Z</time></trkpt><trkpt lat="45.4080055" lon="10.6340051"><ele>110.33333333333333</ele><time>2026-03-29T10:11:12.707Z</time></trkpt><trkpt lat="45.4081436" lon="10.6339409"><ele>110.66666666666666</ele><time>2026-03-29T10:11:13.707Z</time></trkpt><trkpt lat="45.4082912" lon="10.6338605"><ele>111.0</ele><time>2026-03-29T10:11:14.707Z</time></trkpt><trkpt lat="45.4084327" lon="10.6337748"><ele>111.0</ele><time>2026-03-29T10:11:15.707Z</time></trkpt><trkpt lat="45.4085878" lon="10.6336658"><ele>111.0</ele><time>2026-03-29T10:11:16.707Z</time></trkpt><trkpt lat="45.4087595" lon="10.6335252"><ele>111.0</ele><time>2026-03-29T10:11:17.707Z</time></trkpt><trkpt lat="45.4089315" lon="10.6333713"><ele>112.0</ele><time>2026-03-29T10:11:18.707Z</time></trkpt><trkpt lat="45.4091057" lon="10.6332144"><ele>113.0</ele><time>2026-03-29T10:11:19.707Z</time></trkpt><trkpt lat="45.4092662" lon="10.6330692"><ele>114.0</ele><time>2026-03-29T10:11:20.707Z</time></trkpt><trkpt lat="45.4094171" lon="10.6329183"><ele>113.0</ele><time>2026-03-29T10:11:21.707Z</time></trkpt><trkpt lat="45.4095671" lon="10.6327533"><ele>112.0</ele><time>2026-03-29T10:11:22.707Z</time></trkpt><trkpt lat="45.4097119" lon="10.6325779"><ele>111.0</ele><time>2026-03-29T10:11:23.707Z</time></trkpt><trkpt lat="45.4098591" lon="10.6323822"><ele>111.0</ele><time>2026-03-29T10:11:24.707Z</time></trkpt><trkpt lat="45.4100307" lon="10.6321839"><ele>111.0</ele><time>2026-03-29T10:11:25.707Z</time></trkpt><trkpt lat="45.410229" lon="10.6320204"><ele>109.0</ele><time>2026-03-29T10:11:26.707Z</time></trkpt><trkpt lat="45.4104155" lon="10.6319015"><ele>107.0</ele><time>2026-03-29T10:11:27.707Z</time></trkpt><trkpt lat="45.4105883" lon="10.6318117"><ele>105.0</ele><time>2026-03-29T10:11:28.707Z</time></trkpt><trkpt lat="45.4107381" lon="10.6317601"><ele>105.0</ele><time>2026-03-29T10:11:29.707Z</time></trkpt><trkpt lat="45.4108663" lon="10.6317479"><ele>105.0</ele><time>2026-03-29T10:11:30.707Z</time></trkpt><trkpt lat="45.4109699" lon="10.6317813"><ele>105.0</ele><time>2026-03-29T10:11:31.707Z</time></trkpt><trkpt lat="45.4110638" lon="10.6318487"><ele>105.0</ele><time>2026-03-29T10:11:32.707Z</time></trkpt><trkpt lat="45.4111578" lon="10.6318721"><ele>105.0</ele><time>2026-03-29T10:11:33.707Z</time></trkpt><trkpt lat="45.4112426" lon="10.631843"><ele>105.0</ele><time>2026-03-29T10:11:34.707Z</time></trkpt><trkpt lat="45.4113026" lon="10.6317665"><ele>105.0</ele><time>2026-03-29T10:11:35.707Z</time></trkpt><trkpt lat="45.4113333" lon="10.6316516"><ele>105.0</ele><time>2026-03-29T10:11:36.707Z</time></trkpt><trkpt lat="45.4113374" lon="10.6314933"><ele>105.0</ele><time>2026-03-29T10:11:37.707Z</time></trkpt><trkpt lat="45.4113293" lon="10.6312891"><ele>105.0</ele><time>2026-03-29T10:11:38.707Z</time></trkpt><trkpt lat="45.4113337" lon="10.631026"><ele>102.0</ele><time>2026-03-29T10:11:39.708Z</time></trkpt><trkpt lat="45.4113475" lon="10.6307125"><ele>99.0</ele><time>2026-03-29T10:11:40.707Z</time></trkpt><trkpt lat="45.411355" lon="10.6303468"><ele>99.0</ele><time>2026-03-29T10:11:41.707Z</time></trkpt><trkpt lat="45.4113599" lon="10.6299416"><ele>99.0</ele><time>2026-03-29T10:11:42.707Z</time></trkpt><trkpt lat="45.4113648" lon="10.6295068"><ele>99.0</ele><time>2026-03-29T10:11:43.707Z</time></trkpt><trkpt lat="45.4113724" lon="10.629057"><ele>99.0</ele><time>2026-03-29T10:11:44.707Z</time></trkpt><trkpt lat="45.4113781" lon="10.6286497"><ele>99.5</ele><time>2026-03-29T10:11:45.707Z</time></trkpt><trkpt lat="45.4113706" lon="10.6282596"><ele>100.0</ele><time>2026-03-29T10:11:46.707Z</time></trkpt><trkpt lat="45.4113383" lon="10.6278782"><ele>100.5</ele><time>2026-03-29T10:11:47.707Z</time></trkpt><trkpt lat="45.4112775" lon="10.6275112"><ele>101.0</ele><time>2026-03-29T10:11:48.707Z</time></trkpt><trkpt lat="45.4111879" lon="10.6271632"><ele>101.5</ele><time>2026-03-29T10:11:49.708Z</time></trkpt><trkpt lat="45.4110795" lon="10.6268475"><ele>102.0</ele><time>2026-03-29T10:11:50.707Z</time></trkpt><trkpt lat="45.4109605" lon="10.6265681"><ele>102.0</ele><time>2026-03-29T10:11:51.707Z</time></trkpt><trkpt lat="45.4108393" lon="10.6263178"><ele>102.0</ele><time>2026-03-29T10:11:52.707Z</time></trkpt><trkpt lat="45.4107269" lon="10.6260941"><ele>102.0</ele><time>2026-03-29T10:11:53.707Z</time></trkpt><trkpt lat="45.410626" lon="10.6258943"><ele>101.0</ele><time>2026-03-29T10:11:54.707Z</time></trkpt><trkpt lat="45.4105447" lon="10.6257348"><ele>100.0</ele><time>2026-03-29T10:11:55.707Z</time></trkpt><trkpt lat="45.4104797" lon="10.625604"><ele>99.0</ele><time>2026-03-29T10:11:56.707Z</time></trkpt><trkpt lat="45.4104193" lon="10.6255309"><ele>98.0</ele><time>2026-03-29T10:11:57.707Z</time></trkpt><trkpt lat="45.4103431" lon="10.6255117"><ele>97.0</ele><time>2026-03-29T10:11:59.707Z</time></trkpt><trkpt lat="45.4102128" lon="10.6256078"><ele>97.0</ele><time>2026-03-29T10:12:04.708Z</time></trkpt><trkpt lat="45.4101238" lon="10.6257193"><ele>97.0</ele><time>2026-03-29T10:12:05.707Z</time></trkpt><trkpt lat="45.4099856" lon="10.6258664"><ele>97.0</ele><time>2026-03-29T10:12:06.707Z</time></trkpt><trkpt lat="45.4098277" lon="10.6259936"><ele>96.0</ele><time>2026-03-29T10:12:07.707Z</time></trkpt><trkpt lat="45.4096311" lon="10.6261525"><ele>95.0</ele><time>2026-03-29T10:12:08.707Z</time></trkpt><trkpt lat="45.4094132" lon="10.6263386"><ele>95.0</ele><time>2026-03-29T10:12:09.707Z</time></trkpt><trkpt lat="45.4091996" lon="10.6265235"><ele>95.0</ele><time>2026-03-29T10:12:10.707Z</time></trkpt><trkpt lat="45.409" lon="10.6266907"><ele>95.33333333333334</ele><time>2026-03-29T10:12:11.707Z</time></trkpt><trkpt lat="45.4088085" lon="10.6268422"><ele>95.66666666666667</ele><time>2026-03-29T10:12:12.707Z</time></trkpt><trkpt lat="45.4086243" lon="10.6269783"><ele>96.0</ele><time>2026-03-29T10:12:13.707Z</time></trkpt><trkpt lat="45.4084403" lon="10.6271093"><ele>97.33333333333334</ele><time>2026-03-29T10:12:14.707Z</time></trkpt><trkpt lat="45.4082549" lon="10.6272179"><ele>98.66666666666667</ele><time>2026-03-29T10:12:15.707Z</time></trkpt><trkpt lat="45.4080755" lon="10.6272853"><ele>100.0</ele><time>2026-03-29T10:12:16.707Z</time></trkpt><trkpt lat="45.4079018" lon="10.6273337"><ele>100.25</ele><time>2026-03-29T10:12:17.707Z</time></trkpt><trkpt lat="45.4077469" lon="10.6274051"><ele>100.5</ele><time>2026-03-29T10:12:18.707Z</time></trkpt><trkpt lat="45.4076235" lon="10.627486"><ele>100.75</ele><time>2026-03-29T10:12:19.708Z</time></trkpt><trkpt lat="45.4075027" lon="10.6275234"><ele>101.0</ele><time>2026-03-29T10:12:20.707Z</time></trkpt><trkpt lat="45.4073863" lon="10.6275707"><ele>101.0</ele><time>2026-03-29T10:12:21.708Z</time></trkpt><trkpt lat="45.4072656" lon="10.6276403"><ele>101.0</ele><time>2026-03-29T10:12:22.707Z</time></trkpt><trkpt lat="45.4071146" lon="10.627666"><ele>101.0</ele><time>2026-03-29T10:12:23.707Z</time></trkpt><trkpt lat="45.4069356" lon="10.627652"><ele>101.0</ele><time>2026-03-29T10:12:24.707Z</time></trkpt><trkpt lat="45.4067365" lon="10.6276212"><ele>101.0</ele><time>2026-03-29T10:12:25.707Z</time></trkpt><trkpt lat="45.4065098" lon="10.6275721"><ele>101.0</ele><time>2026-03-29T10:12:26.707Z</time></trkpt><trkpt lat="45.4062654" lon="10.6275122"><ele>101.0</ele><time>2026-03-29T10:12:27.707Z</time></trkpt><trkpt lat="45.4060203" lon="10.6274475"><ele>101.0</ele><time>2026-03-29T10:12:28.707Z</time></trkpt><trkpt lat="45.4057786" lon="10.6273749"><ele>101.0</ele><time>2026-03-29T10:12:29.708Z</time></trkpt><trkpt lat="45.4055348" lon="10.6272853"><ele>101.0</ele><time>2026-03-29T10:12:30.707Z</time></trkpt><trkpt lat="45.4052939" lon="10.6271621"><ele>103.0</ele><time>2026-03-29T10:12:31.707Z</time></trkpt><trkpt lat="45.4050828" lon="10.6270537"><ele>105.0</ele><time>2026-03-29T10:12:32.707Z</time></trkpt><trkpt lat="45.404876" lon="10.62698"><ele>107.0</ele><time>2026-03-29T10:12:33.707Z</time></trkpt><trkpt lat="45.4046896" lon="10.6269162"><ele>112.33333333333333</ele><time>2026-03-29T10:12:34.707Z</time></trkpt><trkpt lat="45.4045218" lon="10.6268626"><ele>117.66666666666666</ele><time>2026-03-29T10:12:35.707Z</time></trkpt><trkpt lat="45.4043672" lon="10.6268285"><ele>123.0</ele><time>2026-03-29T10:12:36.707Z</time></trkpt><trkpt lat="45.4041944" lon="10.626808"><ele>123.0</ele><time>2026-03-29T10:12:37.707Z</time></trkpt><trkpt lat="45.4040138" lon="10.6267959"><ele>123.0</ele><time>2026-03-29T10:12:38.707Z</time></trkpt><trkpt lat="45.4038484" lon="10.6268096"><ele>123.0</ele><time>2026-03-29T10:12:39.707Z</time></trkpt><trkpt lat="45.4036938" lon="10.6268199"><ele>123.2</ele><time>2026-03-29T10:12:40.707Z</time></trkpt><trkpt lat="45.4035618" lon="10.6267912"><ele>123.4</ele><time>2026-03-29T10:12:41.707Z</time></trkpt><trkpt lat="45.403457" lon="10.6267447"><ele>123.60000000000001</ele><time>2026-03-29T10:12:42.707Z</time></trkpt><trkpt lat="45.4033926" lon="10.6266927"><ele>123.80000000000001</ele><time>2026-03-29T10:12:43.707Z</time></trkpt><trkpt lat="45.4033757" lon="10.6265305"><ele>124.0</ele><time>2026-03-29T10:12:45.707Z</time></trkpt><trkpt lat="45.4034117" lon="10.6264269"><ele>124.0</ele><time>2026-03-29T10:12:46.707Z</time></trkpt><trkpt lat="45.4034414" lon="10.6262875"><ele>124.0</ele><time>2026-03-29T10:12:47.707Z</time></trkpt><trkpt lat="45.4034643" lon="10.6261363"><ele>124.0</ele><time>2026-03-29T10:12:48.707Z</time></trkpt><trkpt lat="45.4034678" lon="10.6259952"><ele>124.0</ele><time>2026-03-29T10:12:49.707Z</time></trkpt><trkpt lat="45.4034556" lon="10.6258346"><ele>124.0</ele><time>2026-03-29T10:12:50.707Z</time></trkpt><trkpt lat="45.4034495" lon="10.6256714"><ele>124.0</ele><time>2026-03-29T10:12:51.707Z</time></trkpt><trkpt lat="45.4034663" lon="10.6255174"><ele>124.0</ele><time>2026-03-29T10:12:52.707Z</time></trkpt><trkpt lat="45.4035015" lon="10.6253834"><ele>124.0</ele><time>2026-03-29T10:12:53.707Z</time></trkpt><trkpt lat="45.4035406" lon="10.6252833"><ele>124.0</ele><time>2026-03-29T10:12:54.707Z</time></trkpt><trkpt lat="45.4036422" lon="10.6251455"><ele>124.0</ele><time>2026-03-29T10:12:56.707Z</time></trkpt><trkpt lat="45.4037321" lon="10.6250466"><ele>123.2</ele><time>2026-03-29T10:12:57.707Z</time></trkpt><trkpt lat="45.4038161" lon="10.6249459"><ele>122.4</ele><time>2026-03-29T10:12:58.707Z</time></trkpt><trkpt lat="45.4038965" lon="10.6248376"><ele>121.6</ele><time>2026-03-29T10:12:59.707Z</time></trkpt><trkpt lat="45.4039553" lon="10.6247309"><ele>120.8</ele><time>2026-03-29T10:13:00.707Z</time></trkpt><trkpt lat="45.4039707" lon="10.6246183"><ele>120.0</ele><time>2026-03-29T10:13:01.707Z</time></trkpt><trkpt lat="45.4039482" lon="10.6244854"><ele>118.6</ele><time>2026-03-29T10:13:02.707Z</time></trkpt><trkpt lat="45.403905" lon="10.6243294"><ele>117.2</ele><time>2026-03-29T10:13:03.707Z</time></trkpt><trkpt lat="45.4038601" lon="10.6241911"><ele>115.80000000000001</ele><time>2026-03-29T10:13:04.707Z</time></trkpt><trkpt lat="45.4038139" lon="10.6240634"><ele>114.4</ele><time>2026-03-29T10:13:05.707Z</time></trkpt><trkpt lat="45.4037572" lon="10.6239475"><ele>113.0</ele><time>2026-03-29T10:13:06.707Z</time></trkpt><trkpt lat="45.4036922" lon="10.62383"><ele>113.0</ele><time>2026-03-29T10:13:07.707Z</time></trkpt><trkpt lat="45.4036253" lon="10.6237106"><ele>113.00000000000001</ele><time>2026-03-29T10:13:08.707Z</time></trkpt><trkpt lat="45.4035547" lon="10.6235913"><ele>113.00000000000001</ele><time>2026-03-29T10:13:09.707Z</time></trkpt><trkpt lat="45.4034825" lon="10.6234725"><ele>113.0</ele><time>2026-03-29T10:13:10.707Z</time></trkpt><trkpt lat="45.403436" lon="10.623346"><ele>113.0</ele><time>2026-03-29T10:13:11.708Z</time></trkpt><trkpt lat="45.4034243" lon="10.623216"><ele>111.80000000000001</ele><time>2026-03-29T10:13:12.707Z</time></trkpt><trkpt lat="45.4034373" lon="10.6230876"><ele>110.60000000000001</ele><time>2026-03-29T10:13:13.707Z</time></trkpt><trkpt lat="45.4034753" lon="10.6229519"><ele>109.39999999999999</ele><time>2026-03-29T10:13:14.707Z</time></trkpt><trkpt lat="45.4035321" lon="10.6228055"><ele>108.19999999999999</ele><time>2026-03-29T10:13:15.707Z</time></trkpt><trkpt lat="45.4035872" lon="10.6226354"><ele>107.0</ele><time>2026-03-29T10:13:16.707Z</time></trkpt><trkpt lat="45.4036329" lon="10.6224251"><ele>105.33333333333333</ele><time>2026-03-29T10:13:17.707Z</time></trkpt><trkpt lat="45.4036671" lon="10.6221816"><ele>103.66666666666666</ele><time>2026-03-29T10:13:18.707Z</time></trkpt><trkpt lat="45.4037034" lon="10.6219265"><ele>102.0</ele><time>2026-03-29T10:13:19.707Z</time></trkpt><trkpt lat="45.4037372" lon="10.6216803"><ele>100.5</ele><time>2026-03-29T10:13:20.707Z</time></trkpt><trkpt lat="45.4037696" lon="10.6214567"><ele>99.0</ele><time>2026-03-29T10:13:21.707Z</time></trkpt><trkpt lat="45.4038013" lon="10.6212484"><ele>97.5</ele><time>2026-03-29T10:13:22.707Z</time></trkpt><trkpt lat="45.4038288" lon="10.6210656"><ele>96.0</ele><time>2026-03-29T10:13:23.707Z</time></trkpt><trkpt lat="45.4038597" lon="10.6209015"><ele>95.4</ele><time>2026-03-29T10:13:24.707Z</time></trkpt><trkpt lat="45.4038955" lon="10.6207628"><ele>94.8</ele><time>2026-03-29T10:13:25.707Z</time></trkpt><trkpt lat="45.4039364" lon="10.6206398"><ele>94.2</ele><time>2026-03-29T10:13:26.707Z</time></trkpt><trkpt lat="45.4039915" lon="10.6205174"><ele>93.60000000000001</ele><time>2026-03-29T10:13:27.707Z</time></trkpt><trkpt lat="45.4040609" lon="10.6203938"><ele>93.0</ele><time>2026-03-29T10:13:28.707Z</time></trkpt><trkpt lat="45.4041454" lon="10.6202566"><ele>93.0</ele><time>2026-03-29T10:13:29.707Z</time></trkpt><trkpt lat="45.4042452" lon="10.6201102"><ele>93.0</ele><time>2026-03-29T10:13:30.707Z</time></trkpt><trkpt lat="45.4043471" lon="10.6199829"><ele>93.0</ele><time>2026-03-29T10:13:31.707Z</time></trkpt><trkpt lat="45.4044574" lon="10.6198504"><ele>93.0</ele><time>2026-03-29T10:13:32.707Z</time></trkpt><trkpt lat="45.4045777" lon="10.6197213"><ele>92.75</ele><time>2026-03-29T10:13:33.707Z</time></trkpt><trkpt lat="45.4046985" lon="10.6196113"><ele>92.5</ele><time>2026-03-29T10:13:34.707Z</time></trkpt><trkpt lat="45.4048209" lon="10.6195177"><ele>92.25</ele><time>2026-03-29T10:13:35.707Z</time></trkpt><trkpt lat="45.4049511" lon="10.6194138"><ele>92.0</ele><time>2026-03-29T10:13:36.707Z</time></trkpt><trkpt lat="45.4050728" lon="10.6193211"><ele>91.8</ele><time>2026-03-29T10:13:37.707Z</time></trkpt><trkpt lat="45.4051798" lon="10.6192483"><ele>91.6</ele><time>2026-03-29T10:13:38.707Z</time></trkpt><trkpt lat="45.4052807" lon="10.6191889"><ele>91.39999999999999</ele><time>2026-03-29T10:13:39.708Z</time></trkpt><trkpt lat="45.4053775" lon="10.61916"><ele>91.19999999999999</ele><time>2026-03-29T10:13:40.707Z</time></trkpt><trkpt lat="45.4054699" lon="10.619159"><ele>91.0</ele><time>2026-03-29T10:13:41.707Z</time></trkpt><trkpt lat="45.4056879" lon="10.6192123"><ele>91.0</ele><time>2026-03-29T10:13:43.707Z</time></trkpt><trkpt lat="45.4057918" lon="10.6192621"><ele>91.0</ele><time>2026-03-29T10:13:44.707Z</time></trkpt><trkpt lat="45.4059044" lon="10.6193256"><ele>91.0</ele><time>2026-03-29T10:13:45.707Z</time></trkpt><trkpt lat="45.4060144" lon="10.6193893"><ele>91.0</ele><time>2026-03-29T10:13:46.707Z</time></trkpt><trkpt lat="45.4061194" lon="10.6194375"><ele>91.0</ele><time>2026-03-29T10:13:47.707Z</time></trkpt><trkpt lat="45.4062199" lon="10.6194716"><ele>91.0</ele><time>2026-03-29T10:13:48.707Z</time></trkpt><trkpt lat="45.4063155" lon="10.6194883"><ele>91.0</ele><time>2026-03-29T10:13:49.707Z</time></trkpt><trkpt lat="45.4064073" lon="10.6194832"><ele>91.0</ele><time>2026-03-29T10:13:50.707Z</time></trkpt><trkpt lat="45.4064941" lon="10.6194535"><ele>91.0</ele><time>2026-03-29T10:13:51.707Z</time></trkpt><trkpt lat="45.4065699" lon="10.6193983"><ele>91.0</ele><time>2026-03-29T10:13:52.708Z</time></trkpt><trkpt lat="45.4066344" lon="10.6193171"><ele>91.0</ele><time>2026-03-29T10:13:53.707Z</time></trkpt><trkpt lat="45.4066793" lon="10.6192061"><ele>91.0</ele><time>2026-03-29T10:13:54.707Z</time></trkpt><trkpt lat="45.4066992" lon="10.6190726"><ele>91.0</ele><time>2026-03-29T10:13:55.707Z</time></trkpt><trkpt lat="45.4066911" lon="10.6189391"><ele>91.0</ele><time>2026-03-29T10:13:56.707Z</time></trkpt><trkpt lat="45.4066548" lon="10.6188171"><ele>91.0</ele><time>2026-03-29T10:13:57.707Z</time></trkpt><trkpt lat="45.4065973" lon="10.6187117"><ele>91.0</ele><time>2026-03-29T10:13:58.707Z</time></trkpt><trkpt lat="45.4065044" lon="10.6185972"><ele>91.0</ele><time>2026-03-29T10:13:59.707Z</time></trkpt><trkpt lat="45.4063839" lon="10.6184622"><ele>91.0</ele><time>2026-03-29T10:14:00.707Z</time></trkpt><trkpt lat="45.406255" lon="10.6182995"><ele>91.0</ele><time>2026-03-29T10:14:01.707Z</time></trkpt><trkpt lat="45.4061218" lon="10.6181305"><ele>91.0</ele><time>2026-03-29T10:14:02.707Z</time></trkpt><trkpt lat="45.4059916" lon="10.617979"><ele>91.0</ele><time>2026-03-29T10:14:03.707Z</time></trkpt><trkpt lat="45.4058602" lon="10.617863"><ele>92.25</ele><time>2026-03-29T10:14:04.707Z</time></trkpt><trkpt lat="45.4057353" lon="10.6177698"><ele>93.5</ele><time>2026-03-29T10:14:05.707Z</time></trkpt><trkpt lat="45.4056328" lon="10.6176646"><ele>94.75</ele><time>2026-03-29T10:14:06.707Z</time></trkpt><trkpt lat="45.405555" lon="10.6175508"><ele>96.0</ele><time>2026-03-29T10:14:07.707Z</time></trkpt><trkpt lat="45.405508" lon="10.6174325"><ele>95.19999999999999</ele><time>2026-03-29T10:14:08.707Z</time></trkpt><trkpt lat="45.405483" lon="10.6173147"><ele>94.39999999999999</ele><time>2026-03-29T10:14:09.707Z</time></trkpt><trkpt lat="45.4054713" lon="10.6171872"><ele>93.6</ele><time>2026-03-29T10:14:10.707Z</time></trkpt><trkpt lat="45.4054687" lon="10.6170674"><ele>92.8</ele><time>2026-03-29T10:14:11.707Z</time></trkpt><trkpt lat="45.4054564" lon="10.6169146"><ele>92.0</ele><time>2026-03-29T10:14:12.707Z</time></trkpt><trkpt lat="45.405436" lon="10.6167288"><ele>92.0</ele><time>2026-03-29T10:14:13.707Z</time></trkpt><trkpt lat="45.4054206" lon="10.6165234"><ele>92.0</ele><time>2026-03-29T10:14:14.707Z</time></trkpt><trkpt lat="45.405416" lon="10.6163182"><ele>92.0</ele><time>2026-03-29T10:14:15.708Z</time></trkpt><trkpt lat="45.405414" lon="10.6161284"><ele>92.0</ele><time>2026-03-29T10:14:16.707Z</time></trkpt><trkpt lat="45.4054187" lon="10.6159456"><ele>92.19999999999999</ele><time>2026-03-29T10:14:17.707Z</time></trkpt><trkpt lat="45.4054227" lon="10.6157734"><ele>92.4</ele><time>2026-03-29T10:14:18.707Z</time></trkpt><trkpt lat="45.4054246" lon="10.6156122"><ele>92.6</ele><time>2026-03-29T10:14:19.707Z</time></trkpt><trkpt lat="45.4054243" lon="10.6154604"><ele>92.80000000000001</ele><time>2026-03-29T10:14:20.707Z</time></trkpt><trkpt lat="45.4054232" lon="10.6153182"><ele>93.0</ele><time>2026-03-29T10:14:21.707Z</time></trkpt><trkpt lat="45.4054272" lon="10.615185"><ele>93.0</ele><time>2026-03-29T10:14:22.707Z</time></trkpt><trkpt lat="45.4054314" lon="10.6150613"><ele>93.0</ele><time>2026-03-29T10:14:23.707Z</time></trkpt><trkpt lat="45.4054429" lon="10.6149478"><ele>93.0</ele><time>2026-03-29T10:14:24.707Z</time></trkpt><trkpt lat="45.4054612" lon="10.6148329"><ele>93.0</ele><time>2026-03-29T10:14:25.707Z</time></trkpt><trkpt lat="45.405478" lon="10.6147143"><ele>93.0</ele><time>2026-03-29T10:14:26.707Z</time></trkpt><trkpt lat="45.4054966" lon="10.6145903"><ele>93.0</ele><time>2026-03-29T10:14:27.707Z</time></trkpt><trkpt lat="45.4055133" lon="10.6144544"><ele>94.4</ele><time>2026-03-29T10:14:28.707Z</time></trkpt><trkpt lat="45.4055316" lon="10.6143091"><ele>95.80000000000001</ele><time>2026-03-29T10:14:29.707Z</time></trkpt><trkpt lat="45.4055431" lon="10.6141537"><ele>97.2</ele><time>2026-03-29T10:14:30.707Z</time></trkpt><trkpt lat="45.4055426" lon="10.613991"><ele>98.6</ele><time>2026-03-29T10:14:31.707Z</time></trkpt><trkpt lat="45.4055373" lon="10.6138209"><ele>100.0</ele><time>2026-03-29T10:14:32.707Z</time></trkpt><trkpt lat="45.4055295" lon="10.6136475"><ele>100.0</ele><time>2026-03-29T10:14:33.707Z</time></trkpt><trkpt lat="45.4055208" lon="10.6134686"><ele>100.0</ele><time>2026-03-29T10:14:34.707Z</time></trkpt><trkpt lat="45.4055116" lon="10.6132982"><ele>100.0</ele><time>2026-03-29T10:14:35.707Z</time></trkpt><trkpt lat="45.4055067" lon="10.6131333"><ele>100.0</ele><time>2026-03-29T10:14:36.707Z</time></trkpt><trkpt lat="45.4055132" lon="10.6129772"><ele>100.00000000000001</ele><time>2026-03-29T10:14:37.707Z</time></trkpt><trkpt lat="45.4055306" lon="10.6128349"><ele>100.0</ele><time>2026-03-29T10:14:38.707Z</time></trkpt><trkpt lat="45.4055436" lon="10.6127051"><ele>100.0</ele><time>2026-03-29T10:14:39.707Z</time></trkpt><trkpt lat="45.4055416" lon="10.6125834"><ele>100.0</ele><time>2026-03-29T10:14:40.707Z</time></trkpt><trkpt lat="45.4055261" lon="10.6124747"><ele>100.00000000000001</ele><time>2026-03-29T10:14:41.707Z</time></trkpt><trkpt lat="45.4055011" lon="10.6123768"><ele>100.0</ele><time>2026-03-29T10:14:42.707Z</time></trkpt><trkpt lat="45.4054648" lon="10.6122931"><ele>99.71428571428572</ele><time>2026-03-29T10:14:43.707Z</time></trkpt><trkpt lat="45.4054199" lon="10.6122249"><ele>99.42857142857143</ele><time>2026-03-29T10:14:44.707Z</time></trkpt><trkpt lat="45.4053676" lon="10.6121712"><ele>99.14285714285714</ele><time>2026-03-29T10:14:45.707Z</time></trkpt><trkpt lat="45.4053074" lon="10.6121122"><ele>98.85714285714286</ele><time>2026-03-29T10:14:46.707Z</time></trkpt><trkpt lat="45.4052402" lon="10.6120559"><ele>98.57142857142857</ele><time>2026-03-29T10:14:47.707Z</time></trkpt><trkpt lat="45.4051766" lon="10.6119979"><ele>98.28571428571429</ele><time>2026-03-29T10:14:48.707Z</time></trkpt><trkpt lat="45.4051086" lon="10.6119402"><ele>98.0</ele><time>2026-03-29T10:14:49.707Z</time></trkpt><trkpt lat="45.4050371" lon="10.6118777"><ele>97.99999999999999</ele><time>2026-03-29T10:14:50.707Z</time></trkpt><trkpt lat="45.4049825" lon="10.6118057"><ele>98.0</ele><time>2026-03-29T10:14:51.707Z</time></trkpt><trkpt lat="45.4049473" lon="10.6117264"><ele>98.0</ele><time>2026-03-29T10:14:52.707Z</time></trkpt><trkpt lat="45.4049253" lon="10.6116418"><ele>98.0</ele><time>2026-03-29T10:14:53.707Z</time></trkpt><trkpt lat="45.4049099" lon="10.6115377"><ele>97.99999999999999</ele><time>2026-03-29T10:14:54.707Z</time></trkpt><trkpt lat="45.4048957" lon="10.6114215"><ele>98.0</ele><time>2026-03-29T10:14:55.707Z</time></trkpt><trkpt lat="45.4048831" lon="10.611287"><ele>98.2</ele><time>2026-03-29T10:14:56.707Z</time></trkpt><trkpt lat="45.4048675" lon="10.6111413"><ele>98.4</ele><time>2026-03-29T10:14:57.707Z</time></trkpt><trkpt lat="45.4048518" lon="10.6109882"><ele>98.60000000000001</ele><time>2026-03-29T10:14:58.707Z</time></trkpt><trkpt lat="45.4048431" lon="10.610829"><ele>98.80000000000001</ele><time>2026-03-29T10:14:59.707Z</time></trkpt><trkpt lat="45.4048414" lon="10.6106613"><ele>99.0</ele><time>2026-03-29T10:15:00.707Z</time></trkpt><trkpt lat="45.4048451" lon="10.6104976"><ele>99.0</ele><time>2026-03-29T10:15:01.707Z</time></trkpt><trkpt lat="45.4048489" lon="10.610353"><ele>99.0</ele><time>2026-03-29T10:15:02.707Z</time></trkpt><trkpt lat="45.4048511" lon="10.6102225"><ele>99.0</ele><time>2026-03-29T10:15:03.707Z</time></trkpt><trkpt lat="45.4048555" lon="10.6101238"><ele>99.0</ele><time>2026-03-29T10:15:04.707Z</time></trkpt><trkpt lat="45.4048663" lon="10.6099683"><ele>99.0</ele><time>2026-03-29T10:15:06.707Z</time></trkpt><trkpt lat="45.4048747" lon="10.6098631"><ele>99.0</ele><time>2026-03-29T10:15:07.707Z</time></trkpt><trkpt lat="45.4048861" lon="10.6097472"><ele>99.0</ele><time>2026-03-29T10:15:08.708Z</time></trkpt><trkpt lat="45.4048992" lon="10.6096246"><ele>99.0</ele><time>2026-03-29T10:15:09.707Z</time></trkpt><trkpt lat="45.4049137" lon="10.6094942"><ele>99.0</ele><time>2026-03-29T10:15:10.707Z</time></trkpt><trkpt lat="45.4049276" lon="10.6093565"><ele>99.0</ele><time>2026-03-29T10:15:11.707Z</time></trkpt><trkpt lat="45.4049441" lon="10.6092089"><ele>99.0</ele><time>2026-03-29T10:15:12.707Z</time></trkpt><trkpt lat="45.4049608" lon="10.6090563"><ele>99.4</ele><time>2026-03-29T10:15:13.707Z</time></trkpt><trkpt lat="45.4049747" lon="10.6089018"><ele>99.80000000000001</ele><time>2026-03-29T10:15:14.707Z</time></trkpt><trkpt lat="45.4049879" lon="10.6087572"><ele>100.19999999999999</ele><time>2026-03-29T10:15:15.707Z</time></trkpt><trkpt lat="45.405" lon="10.6086219"><ele>100.6</ele><time>2026-03-29T10:15:16.707Z</time></trkpt><trkpt lat="45.4050076" lon="10.6084953"><ele>101.0</ele><time>2026-03-29T10:15:17.707Z</time></trkpt><trkpt lat="45.4050141" lon="10.6083772"><ele>100.99999999999999</ele><time>2026-03-29T10:15:18.707Z</time></trkpt><trkpt lat="45.4050191" lon="10.6082682"><ele>101.0</ele><time>2026-03-29T10:15:19.707Z</time></trkpt><trkpt lat="45.4050213" lon="10.6081631"><ele>101.0</ele><time>2026-03-29T10:15:20.707Z</time></trkpt><trkpt lat="45.4050212" lon="10.6080654"><ele>101.0</ele><time>2026-03-29T10:15:21.707Z</time></trkpt><trkpt lat="45.4050165" lon="10.6078975"><ele>100.99999999999999</ele><time>2026-03-29T10:15:23.707Z</time></trkpt><trkpt lat="45.4050204" lon="10.6077619"><ele>101.0</ele><time>2026-03-29T10:15:25.707Z</time></trkpt><trkpt lat="45.4050275" lon="10.6076439"><ele>100.66666666666666</ele><time>2026-03-29T10:15:27.707Z</time></trkpt><trkpt lat="45.4050345" lon="10.6074711"><ele>100.33333333333333</ele><time>2026-03-29T10:15:29.707Z</time></trkpt><trkpt lat="45.4050359" lon="10.6073609"><ele>100.0</ele><time>2026-03-29T10:15:30.707Z</time></trkpt><trkpt lat="45.4050392" lon="10.6072456"><ele>99.66666666666666</ele><time>2026-03-29T10:15:31.707Z</time></trkpt><trkpt lat="45.4050413" lon="10.6071304"><ele>99.33333333333333</ele><time>2026-03-29T10:15:32.707Z</time></trkpt><trkpt lat="45.4050468" lon="10.6070263"><ele>99.0</ele><time>2026-03-29T10:15:33.707Z</time></trkpt><trkpt lat="45.4050553" lon="10.6069242"><ele>98.66666666666667</ele><time>2026-03-29T10:15:34.707Z</time></trkpt><trkpt lat="45.4050636" lon="10.606817"><ele>98.33333333333334</ele><time>2026-03-29T10:15:35.707Z</time></trkpt><trkpt lat="45.405072" lon="10.6067203"><ele>98.0</ele><time>2026-03-29T10:15:36.707Z</time></trkpt><trkpt lat="45.4050866" lon="10.6066129"><ele>97.66666666666667</ele><time>2026-03-29T10:15:37.707Z</time></trkpt><trkpt lat="45.4051027" lon="10.6065019"><ele>97.33333333333334</ele><time>2026-03-29T10:15:38.707Z</time></trkpt><trkpt lat="45.4051194" lon="10.6063865"><ele>97.0</ele><time>2026-03-29T10:15:39.707Z</time></trkpt><trkpt lat="45.4051364" lon="10.6062806"><ele>97.00000000000001</ele><time>2026-03-29T10:15:40.707Z</time></trkpt><trkpt lat="45.4051523" lon="10.6061876"><ele>97.0</ele><time>2026-03-29T10:15:42.707Z</time></trkpt><trkpt lat="45.4051699" lon="10.6060656"><ele>97.0</ele><time>2026-03-29T10:16:15.707Z</time></trkpt><trkpt lat="45.405184" lon="10.6059645"><ele>97.0</ele><time>2026-03-29T10:16:16.707Z</time></trkpt><trkpt lat="45.4052005" lon="10.6058583"><ele>97.00000000000001</ele><time>2026-03-29T10:16:17.707Z</time></trkpt><trkpt lat="45.4052162" lon="10.6057333"><ele>97.0</ele><time>2026-03-29T10:16:18.707Z</time></trkpt><trkpt lat="45.4052285" lon="10.6055877"><ele>97.19999999999999</ele><time>2026-03-29T10:16:19.707Z</time></trkpt><trkpt lat="45.4052314" lon="10.6054331"><ele>97.4</ele><time>2026-03-29T10:16:20.708Z</time></trkpt><trkpt lat="45.4052306" lon="10.6052709"><ele>97.6</ele><time>2026-03-29T10:16:21.707Z</time></trkpt><trkpt lat="45.4052308" lon="10.6051357"><ele>97.80000000000001</ele><time>2026-03-29T10:16:22.707Z</time></trkpt><trkpt lat="45.4052147" lon="10.6050142"><ele>98.0</ele><time>2026-03-29T10:16:23.707Z</time></trkpt><trkpt lat="45.4051622" lon="10.6048964"><ele>98.0</ele><time>2026-03-29T10:16:24.707Z</time></trkpt><trkpt lat="45.4050965" lon="10.6047637"><ele>98.0</ele><time>2026-03-29T10:16:25.707Z</time></trkpt><trkpt lat="45.4050323" lon="10.6046319"><ele>98.0</ele><time>2026-03-29T10:16:26.707Z</time></trkpt><trkpt lat="45.4049659" lon="10.6045174"><ele>98.0</ele><time>2026-03-29T10:16:27.707Z</time></trkpt><trkpt lat="45.4049001" lon="10.6044164"><ele>98.0</ele><time>2026-03-29T10:16:28.707Z</time></trkpt><trkpt lat="45.4048407" lon="10.6043293"><ele>97.66666666666666</ele><time>2026-03-29T10:16:29.707Z</time></trkpt><trkpt lat="45.4047926" lon="10.6042657"><ele>97.33333333333333</ele><time>2026-03-29T10:16:30.707Z</time></trkpt><trkpt lat="45.4047072" lon="10.6042016"><ele>97.0</ele><time>2026-03-29T10:16:32.707Z</time></trkpt><trkpt lat="45.4046386" lon="10.6042068"><ele>96.66666666666666</ele><time>2026-03-29T10:16:34.707Z</time></trkpt><trkpt lat="45.404551" lon="10.6042297"><ele>96.33333333333333</ele><time>2026-03-29T10:16:36.707Z</time></trkpt><trkpt lat="45.40445" lon="10.6042274"><ele>96.0</ele><time>2026-03-29T10:16:54.707Z</time></trkpt><trkpt lat="45.4043313" lon="10.6041512"><ele>95.5</ele><time>2026-03-29T10:16:56.707Z</time></trkpt><trkpt lat="45.4042681" lon="10.6041033"><ele>95.0</ele><time>2026-03-29T10:16:57.707Z</time></trkpt><trkpt lat="45.4042131" lon="10.6040594"><ele>94.5</ele><time>2026-03-29T10:16:58.707Z</time></trkpt><trkpt lat="45.4041154" lon="10.6040034"><ele>94.0</ele><time>2026-03-29T10:17:00.707Z</time></trkpt><trkpt lat="45.4040107" lon="10.6039297"><ele>93.5</ele><time>2026-03-29T10:17:02.707Z</time></trkpt><trkpt lat="45.4039577" lon="10.6038679"><ele>93.0</ele><time>2026-03-29T10:17:03.707Z</time></trkpt><trkpt lat="45.403898" lon="10.603725"><ele>93.0</ele><time>2026-03-29T10:17:05.707Z</time></trkpt><trkpt lat="45.4039133" lon="10.6035767"><ele>93.0</ele><time>2026-03-29T10:17:07.707Z</time></trkpt><trkpt lat="45.4039415" lon="10.6034804"><ele>93.0</ele><time>2026-03-29T10:17:08.707Z</time></trkpt><trkpt lat="45.4039748" lon="10.6033723"><ele>93.0</ele><time>2026-03-29T10:17:09.707Z</time></trkpt><trkpt lat="45.4039989" lon="10.6032889"><ele>93.0</ele><time>2026-03-29T10:17:10.707Z</time></trkpt><trkpt lat="45.4040014" lon="10.6031586"><ele>93.0</ele><time>2026-03-29T10:17:12.707Z</time></trkpt><trkpt lat="45.4039495" lon="10.6030797"><ele>93.0</ele><time>2026-03-29T10:17:14.707Z</time></trkpt><trkpt lat="45.4038596" lon="10.6030686"><ele>93.0</ele><time>2026-03-29T10:17:16.707Z</time></trkpt><trkpt lat="45.403797" lon="10.6030835"><ele>93.0</ele><time>2026-03-29T10:17:17.707Z</time></trkpt><trkpt lat="45.4036981" lon="10.6030767"><ele>93.0</ele><time>2026-03-29T10:17:19.707Z</time></trkpt><trkpt lat="45.4035761" lon="10.6030477"><ele>93.0</ele><time>2026-03-29T10:17:21.707Z</time></trkpt><trkpt lat="45.4034524" lon="10.6030083"><ele>93.33333333333333</ele><time>2026-03-29T10:17:23.707Z</time></trkpt><trkpt lat="45.4033897" lon="10.6029986"><ele>93.66666666666667</ele><time>2026-03-29T10:17:24.707Z</time></trkpt><trkpt lat="45.4033254" lon="10.6029918"><ele>94.0</ele><time>2026-03-29T10:17:25.707Z</time></trkpt><trkpt lat="45.403233" lon="10.6029673"><ele>94.33333333333334</ele><time>2026-03-29T10:17:27.707Z</time></trkpt><trkpt lat="45.4031367" lon="10.6029154"><ele>94.66666666666667</ele><time>2026-03-29T10:17:29.707Z</time></trkpt><trkpt lat="45.4030569" lon="10.6028754"><ele>95.0</ele><time>2026-03-29T10:17:31.707Z</time></trkpt><trkpt lat="45.4029986" lon="10.602822"><ele>96.8</ele><time>2026-03-29T10:17:34.707Z</time></trkpt><trkpt lat="45.4029771" lon="10.6027203"><ele>98.6</ele><time>2026-03-29T10:17:37.707Z</time></trkpt><trkpt lat="45.4029928" lon="10.6025675"><ele>100.4</ele><time>2026-03-29T10:17:40.707Z</time></trkpt><trkpt lat="45.4029955" lon="10.6023816"><ele>102.2</ele><time>2026-03-29T10:17:42.707Z</time></trkpt><trkpt lat="45.4029956" lon="10.6022475"><ele>104.0</ele><time>2026-03-29T10:17:43.707Z</time></trkpt><trkpt lat="45.4029969" lon="10.6021009"><ele>102.4</ele><time>2026-03-29T10:17:44.708Z</time></trkpt><trkpt lat="45.4030004" lon="10.6019524"><ele>100.80000000000001</ele><time>2026-03-29T10:17:45.707Z</time></trkpt><trkpt lat="45.4030018" lon="10.6018117"><ele>99.19999999999999</ele><time>2026-03-29T10:17:46.707Z</time></trkpt><trkpt lat="45.4030063" lon="10.6016519"><ele>97.6</ele><time>2026-03-29T10:17:47.707Z</time></trkpt><trkpt lat="45.4030115" lon="10.6014924"><ele>96.0</ele><time>2026-03-29T10:17:48.707Z</time></trkpt><trkpt lat="45.4030226" lon="10.6013211"><ele>96.0</ele><time>2026-03-29T10:17:49.707Z</time></trkpt><trkpt lat="45.403037" lon="10.6011447"><ele>96.0</ele><time>2026-03-29T10:17:50.707Z</time></trkpt><trkpt lat="45.4030469" lon="10.6009625"><ele>96.0</ele><time>2026-03-29T10:17:51.707Z</time></trkpt><trkpt lat="45.403055" lon="10.6007761"><ele>96.0</ele><time>2026-03-29T10:17:52.707Z</time></trkpt><trkpt lat="45.4030605" lon="10.6005977"><ele>96.0</ele><time>2026-03-29T10:17:53.707Z</time></trkpt><trkpt lat="45.4030621" lon="10.6004372"><ele>96.0</ele><time>2026-03-29T10:17:54.707Z</time></trkpt><trkpt lat="45.4030574" lon="10.600288"><ele>96.0</ele><time>2026-03-29T10:17:55.707Z</time></trkpt><trkpt lat="45.4030458" lon="10.6001414"><ele>96.0</ele><time>2026-03-29T10:17:56.707Z</time></trkpt><trkpt lat="45.4030286" lon="10.5999889"><ele>96.0</ele><time>2026-03-29T10:17:57.707Z</time></trkpt><trkpt lat="45.4030112" lon="10.5998385"><ele>96.25</ele><time>2026-03-29T10:17:58.707Z</time></trkpt><trkpt lat="45.4030123" lon="10.5996853"><ele>96.5</ele><time>2026-03-29T10:17:59.707Z</time></trkpt><trkpt lat="45.4030337" lon="10.5995286"><ele>96.75</ele><time>2026-03-29T10:18:00.707Z</time></trkpt><trkpt lat="45.4030456" lon="10.5993573"><ele>97.0</ele><time>2026-03-29T10:18:01.707Z</time></trkpt><trkpt lat="45.4030429" lon="10.5991692"><ele>97.0</ele><time>2026-03-29T10:18:02.707Z</time></trkpt><trkpt lat="45.4030353" lon="10.598973"><ele>97.0</ele><time>2026-03-29T10:18:03.707Z</time></trkpt><trkpt lat="45.403028" lon="10.5987939"><ele>97.0</ele><time>2026-03-29T10:18:04.707Z</time></trkpt><trkpt lat="45.4030287" lon="10.5986373"><ele>97.0</ele><time>2026-03-29T10:18:05.707Z</time></trkpt><trkpt lat="45.4030397" lon="10.5984989"><ele>96.83333333333334</ele><time>2026-03-29T10:18:06.707Z</time></trkpt><trkpt lat="45.4030521" lon="10.5983734"><ele>96.66666666666667</ele><time>2026-03-29T10:18:07.707Z</time></trkpt><trkpt lat="45.4030511" lon="10.598255"><ele>96.5</ele><time>2026-03-29T10:18:08.707Z</time></trkpt><trkpt lat="45.4030523" lon="10.5981383"><ele>96.33333333333334</ele><time>2026-03-29T10:18:09.707Z</time></trkpt><trkpt lat="45.4030534" lon="10.5980181"><ele>96.16666666666667</ele><time>2026-03-29T10:18:10.707Z</time></trkpt><trkpt lat="45.4030532" lon="10.5978823"><ele>96.0</ele><time>2026-03-29T10:18:11.708Z</time></trkpt><trkpt lat="45.4030497" lon="10.5977595"><ele>95.83333333333333</ele><time>2026-03-29T10:18:12.707Z</time></trkpt><trkpt lat="45.403048" lon="10.5976526"><ele>95.66666666666667</ele><time>2026-03-29T10:18:13.707Z</time></trkpt><trkpt lat="45.4031075" lon="10.5975233"><ele>95.5</ele><time>2026-03-29T10:18:15.707Z</time></trkpt><trkpt lat="45.4032027" lon="10.5975231"><ele>95.33333333333334</ele><time>2026-03-29T10:18:17.707Z</time></trkpt><trkpt lat="45.4032685" lon="10.5975434"><ele>95.16666666666667</ele><time>2026-03-29T10:18:18.707Z</time></trkpt><trkpt lat="45.4033477" lon="10.5974744"><ele>95.0</ele><time>2026-03-29T10:18:20.707Z</time></trkpt><trkpt lat="45.4033769" lon="10.59731"><ele>95.0</ele><time>2026-03-29T10:18:22.707Z</time></trkpt><trkpt lat="45.4033809" lon="10.5971998"><ele>95.0</ele><time>2026-03-29T10:18:23.707Z</time></trkpt><trkpt lat="45.4033805" lon="10.5971096"><ele>95.0</ele><time>2026-03-29T10:18:24.707Z</time></trkpt><trkpt lat="45.4033769" lon="10.5969857"><ele>95.0</ele><time>2026-03-29T10:18:26.707Z</time></trkpt><trkpt lat="45.4033248" lon="10.5968933"><ele>95.0</ele><time>2026-03-29T10:18:28.707Z</time></trkpt><trkpt lat="45.4032292" lon="10.5968836"><ele>95.0</ele><time>2026-03-29T10:18:30.707Z</time></trkpt><trkpt lat="45.4031593" lon="10.5969021"><ele>95.2</ele><time>2026-03-29T10:18:31.707Z</time></trkpt><trkpt lat="45.403082" lon="10.5969247"><ele>95.4</ele><time>2026-03-29T10:18:32.707Z</time></trkpt><trkpt lat="45.402986" lon="10.5969491"><ele>95.6</ele><time>2026-03-29T10:18:33.707Z</time></trkpt><trkpt lat="45.4028716" lon="10.5969542"><ele>95.8</ele><time>2026-03-29T10:18:34.707Z</time></trkpt><trkpt lat="45.4027487" lon="10.5969443"><ele>96.0</ele><time>2026-03-29T10:18:35.707Z</time></trkpt><trkpt lat="45.4026322" lon="10.5969173"><ele>97.19999999999999</ele><time>2026-03-29T10:18:36.707Z</time></trkpt><trkpt lat="45.4025226" lon="10.5968894"><ele>98.39999999999999</ele><time>2026-03-29T10:18:37.707Z</time></trkpt><trkpt lat="45.4024267" lon="10.5968681"><ele>99.6</ele><time>2026-03-29T10:18:38.707Z</time></trkpt><trkpt lat="45.4023237" lon="10.5968261"><ele>100.8</ele><time>2026-03-29T10:18:39.707Z</time></trkpt><trkpt lat="45.4022188" lon="10.5967948"><ele>102.0</ele><time>2026-03-29T10:18:40.707Z</time></trkpt><trkpt lat="45.4021289" lon="10.5967775"><ele>103.39999999999999</ele><time>2026-03-29T10:18:41.707Z</time></trkpt><trkpt lat="45.4020312" lon="10.5967568"><ele>104.8</ele><time>2026-03-29T10:18:42.707Z</time></trkpt><trkpt lat="45.4019352" lon="10.5967225"><ele>106.2</ele><time>2026-03-29T10:18:43.707Z</time></trkpt><trkpt lat="45.4018528" lon="10.5967084"><ele>107.6</ele><time>2026-03-29T10:18:44.707Z</time></trkpt><trkpt lat="45.4017898" lon="10.5967228"><ele>109.0</ele><time>2026-03-29T10:18:45.707Z</time></trkpt><trkpt lat="45.4016927" lon="10.5968166"><ele>109.00000000000001</ele><time>2026-03-29T10:18:47.707Z</time></trkpt><trkpt lat="45.4016583" lon="10.5968955"><ele>109.0</ele><time>2026-03-29T10:18:48.707Z</time></trkpt><trkpt lat="45.4016191" lon="10.5969662"><ele>109.0</ele><time>2026-03-29T10:18:49.707Z</time></trkpt><trkpt lat="45.4015322" lon="10.5970431"><ele>109.0</ele><time>2026-03-29T10:18:51.707Z</time></trkpt><trkpt lat="45.4014279" lon="10.5970509"><ele>109.00000000000001</ele><time>2026-03-29T10:18:53.707Z</time></trkpt><trkpt lat="45.4013499" lon="10.597058"><ele>109.0</ele><time>2026-03-29T10:18:55.708Z</time></trkpt><trkpt lat="45.4012299" lon="10.5970621"><ele>111.4</ele><time>2026-03-29T10:18:57.707Z</time></trkpt><trkpt lat="45.4011618" lon="10.5970703"><ele>113.80000000000001</ele><time>2026-03-29T10:18:58.707Z</time></trkpt><trkpt lat="45.4010395" lon="10.5971424"><ele>116.19999999999999</ele><time>2026-03-29T10:19:00.707Z</time></trkpt><trkpt lat="45.4009902" lon="10.5972074"><ele>118.6</ele><time>2026-03-29T10:19:01.707Z</time></trkpt><trkpt lat="45.4009472" lon="10.5972783"><ele>121.0</ele><time>2026-03-29T10:19:02.707Z</time></trkpt><trkpt lat="45.4008419" lon="10.5973782"><ele>121.0</ele><time>2026-03-29T10:19:04.707Z</time></trkpt><trkpt lat="45.4007268" lon="10.5974447"><ele>121.0</ele><time>2026-03-29T10:19:06.707Z</time></trkpt><trkpt lat="45.40065" lon="10.597476"><ele>121.0</ele><time>2026-03-29T10:19:07.707Z</time></trkpt><trkpt lat="45.4005554" lon="10.5975074"><ele>121.0</ele><time>2026-03-29T10:19:08.707Z</time></trkpt><trkpt lat="45.4004626" lon="10.5975404"><ele>121.0</ele><time>2026-03-29T10:19:09.707Z</time></trkpt><trkpt lat="45.4003776" lon="10.5975722"><ele>120.16666666666667</ele><time>2026-03-29T10:19:10.707Z</time></trkpt><trkpt lat="45.4003128" lon="10.5975935"><ele>119.33333333333334</ele><time>2026-03-29T10:19:11.707Z</time></trkpt><trkpt lat="45.4002419" lon="10.5976107"><ele>118.5</ele><time>2026-03-29T10:19:13.707Z</time></trkpt><trkpt lat="45.4001765" lon="10.5974957"><ele>117.66666666666666</ele><time>2026-03-29T10:19:29.707Z</time></trkpt><trkpt lat="45.4001693" lon="10.597388"><ele>116.83333333333333</ele><time>2026-03-29T10:19:30.707Z</time></trkpt><trkpt lat="45.4001619" lon="10.5972384"><ele>116.0</ele><time>2026-03-29T10:19:31.707Z</time></trkpt><trkpt lat="45.4001415" lon="10.5970661"><ele>117.0</ele><time>2026-03-29T10:19:32.707Z</time></trkpt><trkpt lat="45.4001146" lon="10.5968603"><ele>118.0</ele><time>2026-03-29T10:19:33.707Z</time></trkpt><trkpt lat="45.400093" lon="10.5966038"><ele>119.0</ele><time>2026-03-29T10:19:34.707Z</time></trkpt><trkpt lat="45.4000877" lon="10.596323"><ele>118.33333333333333</ele><time>2026-03-29T10:19:35.707Z</time></trkpt><trkpt lat="45.4000986" lon="10.5960362"><ele>117.66666666666666</ele><time>2026-03-29T10:19:36.707Z</time></trkpt><trkpt lat="45.4001009" lon="10.5957491"><ele>117.0</ele><time>2026-03-29T10:19:37.707Z</time></trkpt><trkpt lat="45.4000655" lon="10.5954583"><ele>116.33333333333334</ele><time>2026-03-29T10:19:38.707Z</time></trkpt><trkpt lat="45.4000051" lon="10.5951711"><ele>115.66666666666667</ele><time>2026-03-29T10:19:39.707Z</time></trkpt><trkpt lat="45.3999204" lon="10.5948759"><ele>115.0</ele><time>2026-03-29T10:19:40.707Z</time></trkpt><trkpt lat="45.3998097" lon="10.5945896"><ele>115.5</ele><time>2026-03-29T10:19:41.707Z</time></trkpt><trkpt lat="45.3996808" lon="10.5943062"><ele>116.0</ele><time>2026-03-29T10:19:42.707Z</time></trkpt><trkpt lat="45.3995629" lon="10.5940283"><ele>115.66666666666666</ele><time>2026-03-29T10:19:43.707Z</time></trkpt><trkpt lat="45.3994761" lon="10.5937447"><ele>115.33333333333334</ele><time>2026-03-29T10:19:44.707Z</time></trkpt><trkpt lat="45.3994163" lon="10.5934411"><ele>115.0</ele><time>2026-03-29T10:19:45.707Z</time></trkpt><trkpt lat="45.3993992" lon="10.5931471"><ele>115.0</ele><time>2026-03-29T10:19:46.707Z</time></trkpt><trkpt lat="45.3994121" lon="10.5928722"><ele>115.0</ele><time>2026-03-29T10:19:47.707Z</time></trkpt><trkpt lat="45.3994249" lon="10.5926068"><ele>115.0</ele><time>2026-03-29T10:19:48.707Z</time></trkpt><trkpt lat="45.3994219" lon="10.5923294"><ele>115.33333333333334</ele><time>2026-03-29T10:19:49.707Z</time></trkpt><trkpt lat="45.3993997" lon="10.5920458"><ele>115.66666666666666</ele><time>2026-03-29T10:19:50.708Z</time></trkpt><trkpt lat="45.3993669" lon="10.5917516"><ele>116.0</ele><time>2026-03-29T10:19:51.707Z</time></trkpt><trkpt lat="45.3993337" lon="10.5914445"><ele>113.0</ele><time>2026-03-29T10:19:52.707Z</time></trkpt><trkpt lat="45.3992961" lon="10.5911221"><ele>110.0</ele><time>2026-03-29T10:19:53.707Z</time></trkpt><trkpt lat="45.3992575" lon="10.5907929"><ele>110.0</ele><time>2026-03-29T10:19:54.707Z</time></trkpt><trkpt lat="45.3992196" lon="10.5904806"><ele>110.0</ele><time>2026-03-29T10:19:55.707Z</time></trkpt><trkpt lat="45.3991807" lon="10.5901819"><ele>110.0</ele><time>2026-03-29T10:19:56.707Z</time></trkpt><trkpt lat="45.3991421" lon="10.5898806"><ele>110.0</ele><time>2026-03-29T10:19:57.707Z</time></trkpt><trkpt lat="45.3990973" lon="10.5895841"><ele>110.0</ele><time>2026-03-29T10:19:58.707Z</time></trkpt><trkpt lat="45.3990394" lon="10.5892895"><ele>110.0</ele><time>2026-03-29T10:19:59.707Z</time></trkpt><trkpt lat="45.3989735" lon="10.5889934"><ele>109.33333333333333</ele><time>2026-03-29T10:20:00.707Z</time></trkpt><trkpt lat="45.398902" lon="10.5886948"><ele>108.66666666666666</ele><time>2026-03-29T10:20:01.707Z</time></trkpt><trkpt lat="45.3988292" lon="10.5883949"><ele>108.0</ele><time>2026-03-29T10:20:02.707Z</time></trkpt><trkpt lat="45.3987621" lon="10.5881041"><ele>107.33333333333334</ele><time>2026-03-29T10:20:03.707Z</time></trkpt><trkpt lat="45.3986982" lon="10.5878338"><ele>106.66666666666667</ele><time>2026-03-29T10:20:04.707Z</time></trkpt><trkpt lat="45.3986357" lon="10.5875762"><ele>106.0</ele><time>2026-03-29T10:20:05.707Z</time></trkpt><trkpt lat="45.3985736" lon="10.5873156"><ele>106.0</ele><time>2026-03-29T10:20:06.707Z</time></trkpt><trkpt lat="45.3985155" lon="10.5870477"><ele>106.0</ele><time>2026-03-29T10:20:07.707Z</time></trkpt><trkpt lat="45.3984528" lon="10.586773"><ele>106.0</ele><time>2026-03-29T10:20:08.707Z</time></trkpt><trkpt lat="45.3983813" lon="10.5864958"><ele>106.0</ele><time>2026-03-29T10:20:09.707Z</time></trkpt><trkpt lat="45.3983031" lon="10.5862212"><ele>106.0</ele><time>2026-03-29T10:20:10.707Z</time></trkpt><trkpt lat="45.3982288" lon="10.5859726"><ele>106.0</ele><time>2026-03-29T10:20:11.707Z</time></trkpt><trkpt lat="45.3981587" lon="10.5857404"><ele>105.75</ele><time>2026-03-29T10:20:12.707Z</time></trkpt><trkpt lat="45.3980951" lon="10.5855241"><ele>105.5</ele><time>2026-03-29T10:20:13.707Z</time></trkpt><trkpt lat="45.3980367" lon="10.5853314"><ele>105.25</ele><time>2026-03-29T10:20:14.707Z</time></trkpt><trkpt lat="45.3979808" lon="10.5851592"><ele>105.0</ele><time>2026-03-29T10:20:15.707Z</time></trkpt><trkpt lat="45.3979358" lon="10.5850294"><ele>104.6</ele><time>2026-03-29T10:20:16.707Z</time></trkpt><trkpt lat="45.3979211" lon="10.5849327"><ele>104.2</ele><time>2026-03-29T10:20:17.707Z</time></trkpt><trkpt lat="45.3979814" lon="10.5848484"><ele>103.80000000000001</ele><time>2026-03-29T10:20:19.707Z</time></trkpt><trkpt lat="45.3980558" lon="10.5848294"><ele>103.4</ele><time>2026-03-29T10:20:20.707Z</time></trkpt><trkpt lat="45.3981831" lon="10.5848199"><ele>103.0</ele><time>2026-03-29T10:20:21.707Z</time></trkpt><trkpt lat="45.3983567" lon="10.5848101"><ele>103.0</ele><time>2026-03-29T10:20:22.707Z</time></trkpt><trkpt lat="45.3985506" lon="10.5848056"><ele>103.0</ele><time>2026-03-29T10:20:23.707Z</time></trkpt><trkpt lat="45.3987504" lon="10.584816"><ele>103.0</ele><time>2026-03-29T10:20:24.707Z</time></trkpt><trkpt lat="45.3989335" lon="10.5848401"><ele>102.0</ele><time>2026-03-29T10:20:25.707Z</time></trkpt><trkpt lat="45.3991163" lon="10.5848661"><ele>101.0</ele><time>2026-03-29T10:20:26.707Z</time></trkpt><trkpt lat="45.3993027" lon="10.5848835"><ele>100.0</ele><time>2026-03-29T10:20:27.707Z</time></trkpt><trkpt lat="45.3994867" lon="10.5848873"><ele>99.33333333333334</ele><time>2026-03-29T10:20:28.707Z</time></trkpt><trkpt lat="45.3996726" lon="10.5848861"><ele>98.66666666666666</ele><time>2026-03-29T10:20:29.707Z</time></trkpt><trkpt lat="45.3998618" lon="10.5848933"><ele>98.0</ele><time>2026-03-29T10:20:30.707Z</time></trkpt><trkpt lat="45.4000515" lon="10.5848928"><ele>98.0</ele><time>2026-03-29T10:20:31.707Z</time></trkpt><trkpt lat="45.4002319" lon="10.5848768"><ele>98.0</ele><time>2026-03-29T10:20:32.707Z</time></trkpt><trkpt lat="45.4003831" lon="10.5848566"><ele>98.0</ele><time>2026-03-29T10:20:33.707Z</time></trkpt><trkpt lat="45.4005149" lon="10.5848397"><ele>98.75</ele><time>2026-03-29T10:20:34.707Z</time></trkpt><trkpt lat="45.4006386" lon="10.5848209"><ele>99.5</ele><time>2026-03-29T10:20:35.707Z</time></trkpt><trkpt lat="45.4007602" lon="10.5847989"><ele>100.25</ele><time>2026-03-29T10:20:36.707Z</time></trkpt><trkpt lat="45.4008863" lon="10.5847816"><ele>101.0</ele><time>2026-03-29T10:20:37.707Z</time></trkpt><trkpt lat="45.4010106" lon="10.584774"><ele>101.0</ele><time>2026-03-29T10:20:38.707Z</time></trkpt><trkpt lat="45.4011179" lon="10.5847691"><ele>101.0</ele><time>2026-03-29T10:20:39.707Z</time></trkpt><trkpt lat="45.4012242" lon="10.5847756"><ele>101.0</ele><time>2026-03-29T10:20:40.707Z</time></trkpt><trkpt lat="45.4013402" lon="10.5847935"><ele>101.0</ele><time>2026-03-29T10:20:41.708Z</time></trkpt><trkpt lat="45.4014585" lon="10.5848056"><ele>101.0</ele><time>2026-03-29T10:20:42.707Z</time></trkpt><trkpt lat="45.4015771" lon="10.5848226"><ele>100.4</ele><time>2026-03-29T10:20:43.707Z</time></trkpt><trkpt lat="45.4016979" lon="10.584848"><ele>99.8</ele><time>2026-03-29T10:20:44.708Z</time></trkpt><trkpt lat="45.4018082" lon="10.5848843"><ele>99.2</ele><time>2026-03-29T10:20:45.707Z</time></trkpt><trkpt lat="45.4019148" lon="10.5849171"><ele>98.60000000000001</ele><time>2026-03-29T10:20:46.707Z</time></trkpt><trkpt lat="45.4020145" lon="10.5849455"><ele>98.0</ele><time>2026-03-29T10:20:47.707Z</time></trkpt><trkpt lat="45.4021091" lon="10.5849711"><ele>97.83333333333333</ele><time>2026-03-29T10:20:48.707Z</time></trkpt><trkpt lat="45.4021965" lon="10.5849952"><ele>97.66666666666666</ele><time>2026-03-29T10:20:49.708Z</time></trkpt><trkpt lat="45.4022686" lon="10.5849901"><ele>97.5</ele><time>2026-03-29T10:20:50.707Z</time></trkpt><trkpt lat="45.4023322" lon="10.5848969"><ele>97.33333333333334</ele><time>2026-03-29T10:20:52.707Z</time></trkpt><trkpt lat="45.4023592" lon="10.584798"><ele>97.16666666666667</ele><time>2026-03-29T10:20:53.707Z</time></trkpt><trkpt lat="45.4023985" lon="10.5846403"><ele>97.0</ele><time>2026-03-29T10:20:54.707Z</time></trkpt><trkpt lat="45.4024518" lon="10.5844327"><ele>97.0</ele><time>2026-03-29T10:20:55.707Z</time></trkpt><trkpt lat="45.4025105" lon="10.5842042"><ele>97.0</ele><time>2026-03-29T10:20:56.707Z</time></trkpt><trkpt lat="45.4025868" lon="10.5839434"><ele>97.0</ele><time>2026-03-29T10:20:57.707Z</time></trkpt><trkpt lat="45.4026776" lon="10.5836968"><ele>97.33333333333334</ele><time>2026-03-29T10:20:58.707Z</time></trkpt><trkpt lat="45.4027741" lon="10.5834439"><ele>97.66666666666666</ele><time>2026-03-29T10:20:59.707Z</time></trkpt><trkpt lat="45.4028714" lon="10.5831897"><ele>98.0</ele><time>2026-03-29T10:21:00.707Z</time></trkpt><trkpt lat="45.4029654" lon="10.5829559"><ele>97.0</ele><time>2026-03-29T10:21:01.707Z</time></trkpt><trkpt lat="45.4030599" lon="10.5827359"><ele>96.0</ele><time>2026-03-29T10:21:02.707Z</time></trkpt><trkpt lat="45.4031613" lon="10.5825217"><ele>95.0</ele><time>2026-03-29T10:21:03.707Z</time></trkpt><trkpt lat="45.4032654" lon="10.582312"><ele>95.0</ele><time>2026-03-29T10:21:04.707Z</time></trkpt><trkpt lat="45.4033617" lon="10.5820823"><ele>95.0</ele><time>2026-03-29T10:21:05.707Z</time></trkpt><trkpt lat="45.4034509" lon="10.5818404"><ele>95.0</ele><time>2026-03-29T10:21:06.707Z</time></trkpt><trkpt lat="45.4035443" lon="10.5815832"><ele>95.0</ele><time>2026-03-29T10:21:07.707Z</time></trkpt><trkpt lat="45.403649" lon="10.581306"><ele>95.0</ele><time>2026-03-29T10:21:08.707Z</time></trkpt><trkpt lat="45.4037509" lon="10.5810573"><ele>95.0</ele><time>2026-03-29T10:21:09.707Z</time></trkpt><trkpt lat="45.4038499" lon="10.5808102"><ele>94.66666666666667</ele><time>2026-03-29T10:21:10.707Z</time></trkpt><trkpt lat="45.4039317" lon="10.5805701"><ele>94.33333333333333</ele><time>2026-03-29T10:21:11.707Z</time></trkpt><trkpt lat="45.4040109" lon="10.5803476"><ele>94.0</ele><time>2026-03-29T10:21:12.707Z</time></trkpt><trkpt lat="45.4040926" lon="10.5801204"><ele>94.66666666666666</ele><time>2026-03-29T10:21:13.708Z</time></trkpt><trkpt lat="45.4041841" lon="10.5798641"><ele>95.33333333333333</ele><time>2026-03-29T10:21:14.707Z</time></trkpt><trkpt lat="45.4042861" lon="10.5795929"><ele>96.0</ele><time>2026-03-29T10:21:15.707Z</time></trkpt><trkpt lat="45.4043972" lon="10.5793075"><ele>96.5</ele><time>2026-03-29T10:21:16.707Z</time></trkpt><trkpt lat="45.4045292" lon="10.5790059"><ele>97.0</ele><time>2026-03-29T10:21:17.707Z</time></trkpt><trkpt lat="45.4046642" lon="10.5786989"><ele>95.5</ele><time>2026-03-29T10:21:18.707Z</time></trkpt><trkpt lat="45.4048005" lon="10.5783836"><ele>94.0</ele><time>2026-03-29T10:21:19.707Z</time></trkpt><trkpt lat="45.4049315" lon="10.5780839"><ele>94.5</ele><time>2026-03-29T10:21:20.707Z</time></trkpt><trkpt lat="45.4050525" lon="10.5778025"><ele>95.0</ele><time>2026-03-29T10:21:21.707Z</time></trkpt><trkpt lat="45.4051628" lon="10.5775109"><ele>95.0</ele><time>2026-03-29T10:21:22.707Z</time></trkpt><trkpt lat="45.4052462" lon="10.5772513"><ele>95.0</ele><time>2026-03-29T10:21:23.707Z</time></trkpt><trkpt lat="45.4053116" lon="10.5770321"><ele>95.0</ele><time>2026-03-29T10:21:24.707Z</time></trkpt><trkpt lat="45.4053689" lon="10.5768504"><ele>95.2</ele><time>2026-03-29T10:21:25.707Z</time></trkpt><trkpt lat="45.4054106" lon="10.5767157"><ele>95.4</ele><time>2026-03-29T10:21:26.707Z</time></trkpt><trkpt lat="45.4054183" lon="10.5766174"><ele>95.6</ele><time>2026-03-29T10:21:27.707Z</time></trkpt><trkpt lat="45.4053438" lon="10.5764842"><ele>95.8</ele><time>2026-03-29T10:21:29.707Z</time></trkpt><trkpt lat="45.4052484" lon="10.576413"><ele>96.0</ele><time>2026-03-29T10:21:30.707Z</time></trkpt><trkpt lat="45.4051144" lon="10.576323"><ele>96.0</ele><time>2026-03-29T10:21:31.708Z</time></trkpt><trkpt lat="45.4049414" lon="10.5762125"><ele>96.0</ele><time>2026-03-29T10:21:32.707Z</time></trkpt><trkpt lat="45.404741" lon="10.5760928"><ele>96.0</ele><time>2026-03-29T10:21:33.707Z</time></trkpt><trkpt lat="45.4045156" lon="10.5759618"><ele>96.5</ele><time>2026-03-29T10:21:34.707Z</time></trkpt><trkpt lat="45.4042818" lon="10.5758239"><ele>97.0</ele><time>2026-03-29T10:21:35.707Z</time></trkpt><trkpt lat="45.4040673" lon="10.575693"><ele>97.0</ele><time>2026-03-29T10:21:36.707Z</time></trkpt><trkpt lat="45.4038619" lon="10.575567"><ele>97.0</ele><time>2026-03-29T10:21:37.707Z</time></trkpt><trkpt lat="45.403658" lon="10.5754432"><ele>97.0</ele><time>2026-03-29T10:21:38.707Z</time></trkpt><trkpt lat="45.403469" lon="10.5753342"><ele>97.33333333333334</ele><time>2026-03-29T10:21:39.707Z</time></trkpt><trkpt lat="45.4032962" lon="10.575226"><ele>97.66666666666666</ele><time>2026-03-29T10:21:40.707Z</time></trkpt><trkpt lat="45.4031462" lon="10.5751278"><ele>98.0</ele><time>2026-03-29T10:21:41.707Z</time></trkpt><trkpt lat="45.4030148" lon="10.5750507"><ele>98.0</ele><time>2026-03-29T10:21:42.707Z</time></trkpt><trkpt lat="45.4028919" lon="10.5749976"><ele>98.0</ele><time>2026-03-29T10:21:43.707Z</time></trkpt><trkpt lat="45.4027684" lon="10.5749711"><ele>98.0</ele><time>2026-03-29T10:21:44.707Z</time></trkpt><trkpt lat="45.4026501" lon="10.5749483"><ele>98.0</ele><time>2026-03-29T10:21:45.707Z</time></trkpt><trkpt lat="45.4025271" lon="10.574889"><ele>98.0</ele><time>2026-03-29T10:21:46.707Z</time></trkpt><trkpt lat="45.402413" lon="10.5747888"><ele>98.0</ele><time>2026-03-29T10:21:47.707Z</time></trkpt><trkpt lat="45.402316" lon="10.5746662"><ele>98.0</ele><time>2026-03-29T10:21:48.707Z</time></trkpt><trkpt lat="45.4022098" lon="10.5745304"><ele>98.0</ele><time>2026-03-29T10:21:49.707Z</time></trkpt><trkpt lat="45.4020923" lon="10.5743757"><ele>98.0</ele><time>2026-03-29T10:21:50.708Z</time></trkpt><trkpt lat="45.4019573" lon="10.5741927"><ele>98.0</ele><time>2026-03-29T10:21:51.707Z</time></trkpt><trkpt lat="45.4018134" lon="10.5739785"><ele>98.0</ele><time>2026-03-29T10:21:52.707Z</time></trkpt><trkpt lat="45.4016588" lon="10.5737539"><ele>97.66666666666666</ele><time>2026-03-29T10:21:53.707Z</time></trkpt><trkpt lat="45.4015091" lon="10.5735371"><ele>97.33333333333334</ele><time>2026-03-29T10:21:54.707Z</time></trkpt><trkpt lat="45.401372" lon="10.5733311"><ele>97.0</ele><time>2026-03-29T10:21:55.707Z</time></trkpt><trkpt lat="45.4012392" lon="10.5731372"><ele>97.0</ele><time>2026-03-29T10:21:56.707Z</time></trkpt><trkpt lat="45.4011129" lon="10.5729565"><ele>97.0</ele><time>2026-03-29T10:21:57.707Z</time></trkpt><trkpt lat="45.4010026" lon="10.5727872"><ele>97.0</ele><time>2026-03-29T10:21:58.707Z</time></trkpt><trkpt lat="45.400919" lon="10.5726411"><ele>97.6</ele><time>2026-03-29T10:21:59.707Z</time></trkpt><trkpt lat="45.4008743" lon="10.5725071"><ele>98.19999999999999</ele><time>2026-03-29T10:22:00.707Z</time></trkpt><trkpt lat="45.4008716" lon="10.5723754"><ele>98.8</ele><time>2026-03-29T10:22:01.707Z</time></trkpt><trkpt lat="45.4009025" lon="10.5722853"><ele>99.4</ele><time>2026-03-29T10:22:02.707Z</time></trkpt><trkpt lat="45.4009973" lon="10.5721631"><ele>100.0</ele><time>2026-03-29T10:22:04.707Z</time></trkpt><trkpt lat="45.4010518" lon="10.5721031"><ele>100.2</ele><time>2026-03-29T10:22:05.707Z</time></trkpt><trkpt lat="45.4011413" lon="10.5720039"><ele>100.4</ele><time>2026-03-29T10:22:07.707Z</time></trkpt><trkpt lat="45.4012177" lon="10.5719186"><ele>100.6</ele><time>2026-03-29T10:22:09.707Z</time></trkpt><trkpt lat="45.4013072" lon="10.5718206"><ele>100.8</ele><time>2026-03-29T10:22:11.707Z</time></trkpt><trkpt lat="45.4013696" lon="10.5717667"><ele>101.0</ele><time>2026-03-29T10:22:12.707Z</time></trkpt><trkpt lat="45.401434" lon="10.5717002"><ele>101.0</ele><time>2026-03-29T10:22:13.708Z</time></trkpt><trkpt lat="45.4015076" lon="10.5716158"><ele>101.0</ele><time>2026-03-29T10:22:14.707Z</time></trkpt><trkpt lat="45.4015876" lon="10.5715299"><ele>101.0</ele><time>2026-03-29T10:22:15.707Z</time></trkpt><trkpt lat="45.4016801" lon="10.5714326"><ele>101.0</ele><time>2026-03-29T10:22:16.707Z</time></trkpt><trkpt lat="45.4017842" lon="10.5713213"><ele>101.0</ele><time>2026-03-29T10:22:17.707Z</time></trkpt><trkpt lat="45.4018948" lon="10.5711976"><ele>101.33333333333333</ele><time>2026-03-29T10:22:18.707Z</time></trkpt><trkpt lat="45.4020088" lon="10.5710657"><ele>101.66666666666666</ele><time>2026-03-29T10:22:19.707Z</time></trkpt><trkpt lat="45.4021244" lon="10.5709198"><ele>102.0</ele><time>2026-03-29T10:22:20.707Z</time></trkpt><trkpt lat="45.4022394" lon="10.570771"><ele>101.33333333333334</ele><time>2026-03-29T10:22:21.707Z</time></trkpt><trkpt lat="45.4023591" lon="10.5706341"><ele>100.66666666666667</ele><time>2026-03-29T10:22:22.707Z</time></trkpt><trkpt lat="45.4024853" lon="10.5704823"><ele>100.0</ele><time>2026-03-29T10:22:23.707Z</time></trkpt><trkpt lat="45.402609" lon="10.570325"><ele>100.0</ele><time>2026-03-29T10:22:24.707Z</time></trkpt><trkpt lat="45.4027352" lon="10.5701793"><ele>100.0</ele><time>2026-03-29T10:22:25.707Z</time></trkpt><trkpt lat="45.4028614" lon="10.5700334"><ele>100.0</ele><time>2026-03-29T10:22:26.707Z</time></trkpt><trkpt lat="45.4029918" lon="10.569887"><ele>99.0</ele><time>2026-03-29T10:22:27.707Z</time></trkpt><trkpt lat="45.4031201" lon="10.5697399"><ele>98.0</ele><time>2026-03-29T10:22:28.707Z</time></trkpt><trkpt lat="45.4032434" lon="10.5695886"><ele>97.0</ele><time>2026-03-29T10:22:29.707Z</time></trkpt><trkpt lat="45.4033643" lon="10.5694493"><ele>97.0</ele><time>2026-03-29T10:22:30.707Z</time></trkpt><trkpt lat="45.4034787" lon="10.569321"><ele>97.0</ele><time>2026-03-29T10:22:31.707Z</time></trkpt><trkpt lat="45.4035959" lon="10.5691903"><ele>97.0</ele><time>2026-03-29T10:22:32.707Z</time></trkpt><trkpt lat="45.4037166" lon="10.5690525"><ele>97.0</ele><time>2026-03-29T10:22:33.707Z</time></trkpt><trkpt lat="45.4038315" lon="10.5689239"><ele>97.25</ele><time>2026-03-29T10:22:34.707Z</time></trkpt><trkpt lat="45.4039383" lon="10.5688033"><ele>97.5</ele><time>2026-03-29T10:22:35.707Z</time></trkpt><trkpt lat="45.4040481" lon="10.5686698"><ele>97.75</ele><time>2026-03-29T10:22:36.707Z</time></trkpt><trkpt lat="45.4041633" lon="10.5685282"><ele>98.0</ele><time>2026-03-29T10:22:37.707Z</time></trkpt><trkpt lat="45.4042717" lon="10.5683834"><ele>98.0</ele><time>2026-03-29T10:22:38.707Z</time></trkpt><trkpt lat="45.4043749" lon="10.5682364"><ele>98.0</ele><time>2026-03-29T10:22:39.707Z</time></trkpt><trkpt lat="45.4044829" lon="10.5680836"><ele>98.0</ele><time>2026-03-29T10:22:40.707Z</time></trkpt><trkpt lat="45.4045869" lon="10.5679252"><ele>97.0</ele><time>2026-03-29T10:22:41.707Z</time></trkpt><trkpt lat="45.4046984" lon="10.5677457"><ele>96.0</ele><time>2026-03-29T10:22:42.707Z</time></trkpt><trkpt lat="45.4048051" lon="10.5675615"><ele>95.0</ele><time>2026-03-29T10:22:43.707Z</time></trkpt><trkpt lat="45.4049013" lon="10.5673897"><ele>95.0</ele><time>2026-03-29T10:22:44.707Z</time></trkpt><trkpt lat="45.4049965" lon="10.5672286"><ele>95.0</ele><time>2026-03-29T10:22:45.707Z</time></trkpt><trkpt lat="45.4050974" lon="10.5670562"><ele>95.0</ele><time>2026-03-29T10:22:46.707Z</time></trkpt><trkpt lat="45.4051973" lon="10.5668737"><ele>95.33333333333334</ele><time>2026-03-29T10:22:47.708Z</time></trkpt><trkpt lat="45.4052992" lon="10.566695"><ele>95.66666666666667</ele><time>2026-03-29T10:22:48.707Z</time></trkpt><trkpt lat="45.4053973" lon="10.5665191"><ele>96.0</ele><time>2026-03-29T10:22:49.707Z</time></trkpt><trkpt lat="45.4054924" lon="10.5663525"><ele>96.0</ele><time>2026-03-29T10:22:50.707Z</time></trkpt><trkpt lat="45.4055836" lon="10.5661924"><ele>96.0</ele><time>2026-03-29T10:22:51.707Z</time></trkpt><trkpt lat="45.4056737" lon="10.566038"><ele>96.0</ele><time>2026-03-29T10:22:52.707Z</time></trkpt><trkpt lat="45.4057708" lon="10.565884"><ele>96.0</ele><time>2026-03-29T10:22:53.707Z</time></trkpt><trkpt lat="45.4058628" lon="10.5657397"><ele>96.0</ele><time>2026-03-29T10:22:54.707Z</time></trkpt><trkpt lat="45.4059419" lon="10.5656137"><ele>96.0</ele><time>2026-03-29T10:22:55.707Z</time></trkpt><trkpt lat="45.4060072" lon="10.5655105"><ele>96.0</ele><time>2026-03-29T10:22:56.707Z</time></trkpt><trkpt lat="45.4060577" lon="10.5654309"><ele>96.0</ele><time>2026-03-29T10:22:57.707Z</time></trkpt><trkpt lat="45.4061155" lon="10.5652852"><ele>96.0</ele><time>2026-03-29T10:22:59.707Z</time></trkpt><trkpt lat="45.4061127" lon="10.5651937"><ele>96.16666666666667</ele><time>2026-03-29T10:23:00.707Z</time></trkpt><trkpt lat="45.4060892" lon="10.5650831"><ele>96.33333333333334</ele><time>2026-03-29T10:23:01.708Z</time></trkpt><trkpt lat="45.4060571" lon="10.5649679"><ele>96.5</ele><time>2026-03-29T10:23:02.707Z</time></trkpt><trkpt lat="45.406033" lon="10.5648712"><ele>96.66666666666667</ele><time>2026-03-29T10:23:03.707Z</time></trkpt><trkpt lat="45.4060214" lon="10.5647795"><ele>96.83333333333334</ele><time>2026-03-29T10:23:04.707Z</time></trkpt><trkpt lat="45.4060591" lon="10.5646132"><ele>97.0</ele><time>2026-03-29T10:23:06.707Z</time></trkpt><trkpt lat="45.4061104" lon="10.5645474"><ele>97.0</ele><time>2026-03-29T10:23:07.707Z</time></trkpt><trkpt lat="45.4061933" lon="10.5644846"><ele>97.0</ele><time>2026-03-29T10:23:08.707Z</time></trkpt><trkpt lat="45.4062951" lon="10.5643933"><ele>97.0</ele><time>2026-03-29T10:23:09.707Z</time></trkpt><trkpt lat="45.4064187" lon="10.5642906"><ele>97.0</ele><time>2026-03-29T10:23:10.707Z</time></trkpt><trkpt lat="45.4065595" lon="10.5641796"><ele>97.0</ele><time>2026-03-29T10:23:11.707Z</time></trkpt><trkpt lat="45.4067132" lon="10.5640564"><ele>97.0</ele><time>2026-03-29T10:23:12.707Z</time></trkpt><trkpt lat="45.4068761" lon="10.5639314"><ele>97.0</ele><time>2026-03-29T10:23:13.707Z</time></trkpt><trkpt lat="45.4070472" lon="10.5638068"><ele>97.33333333333334</ele><time>2026-03-29T10:23:14.707Z</time></trkpt><trkpt lat="45.4072064" lon="10.5636968"><ele>97.66666666666666</ele><time>2026-03-29T10:23:15.707Z</time></trkpt><trkpt lat="45.4073526" lon="10.563593"><ele>98.0</ele><time>2026-03-29T10:23:16.707Z</time></trkpt><trkpt lat="45.4074922" lon="10.5634949"><ele>98.0</ele><time>2026-03-29T10:23:17.708Z</time></trkpt><trkpt lat="45.4076397" lon="10.5633989"><ele>98.0</ele><time>2026-03-29T10:23:18.707Z</time></trkpt><trkpt lat="45.4077928" lon="10.5633113"><ele>98.0</ele><time>2026-03-29T10:23:19.707Z</time></trkpt><trkpt lat="45.4079636" lon="10.5632245"><ele>97.66666666666666</ele><time>2026-03-29T10:23:20.707Z</time></trkpt><trkpt lat="45.4081392" lon="10.5631377"><ele>97.33333333333334</ele><time>2026-03-29T10:23:21.707Z</time></trkpt><trkpt lat="45.4083119" lon="10.5630546"><ele>97.0</ele><time>2026-03-29T10:23:22.707Z</time></trkpt><trkpt lat="45.4084696" lon="10.5629883"><ele>97.0</ele><time>2026-03-29T10:23:23.707Z</time></trkpt><trkpt lat="45.4086158" lon="10.5629241"><ele>97.0</ele><time>2026-03-29T10:23:24.707Z</time></trkpt><trkpt lat="45.4087649" lon="10.5628551"><ele>97.0</ele><time>2026-03-29T10:23:25.707Z</time></trkpt><trkpt lat="45.4089209" lon="10.5627939"><ele>96.66666666666667</ele><time>2026-03-29T10:23:26.707Z</time></trkpt><trkpt lat="45.4090879" lon="10.5627333"><ele>96.33333333333334</ele><time>2026-03-29T10:23:27.708Z</time></trkpt><trkpt lat="45.409252" lon="10.5626641"><ele>96.0</ele><time>2026-03-29T10:23:28.707Z</time></trkpt><trkpt lat="45.4093967" lon="10.5626024"><ele>96.0</ele><time>2026-03-29T10:23:29.707Z</time></trkpt><trkpt lat="45.4095361" lon="10.5625449"><ele>96.0</ele><time>2026-03-29T10:23:30.707Z</time></trkpt><trkpt lat="45.409673" lon="10.5624827"><ele>96.0</ele><time>2026-03-29T10:23:31.707Z</time></trkpt><trkpt lat="45.4097876" lon="10.5624268"><ele>96.0</ele><time>2026-03-29T10:23:32.707Z</time></trkpt><trkpt lat="45.4098869" lon="10.5623775"><ele>96.0</ele><time>2026-03-29T10:23:33.707Z</time></trkpt><trkpt lat="45.4099934" lon="10.5623405"><ele>96.0</ele><time>2026-03-29T10:23:34.707Z</time></trkpt><trkpt lat="45.4101096" lon="10.5623075"><ele>96.0</ele><time>2026-03-29T10:23:35.707Z</time></trkpt><trkpt lat="45.410219" lon="10.562285"><ele>96.0</ele><time>2026-03-29T10:23:36.707Z</time></trkpt><trkpt lat="45.410335" lon="10.5622869"><ele>96.0</ele><time>2026-03-29T10:23:37.707Z</time></trkpt><trkpt lat="45.4104612" lon="10.56231"><ele>96.0</ele><time>2026-03-29T10:23:38.707Z</time></trkpt><trkpt lat="45.4106057" lon="10.5623507"><ele>96.0</ele><time>2026-03-29T10:23:39.707Z</time></trkpt><trkpt lat="45.4107755" lon="10.5624036"><ele>96.0</ele><time>2026-03-29T10:23:40.707Z</time></trkpt><trkpt lat="45.4109429" lon="10.5624569"><ele>97.0</ele><time>2026-03-29T10:23:41.708Z</time></trkpt><trkpt lat="45.4111029" lon="10.5625163"><ele>98.0</ele><time>2026-03-29T10:23:42.707Z</time></trkpt><trkpt lat="45.4112592" lon="10.5625975"><ele>99.0</ele><time>2026-03-29T10:23:43.707Z</time></trkpt><trkpt lat="45.4114182" lon="10.5627064"><ele>98.66666666666666</ele><time>2026-03-29T10:23:44.707Z</time></trkpt><trkpt lat="45.4115821" lon="10.5628351"><ele>98.33333333333333</ele><time>2026-03-29T10:23:45.708Z</time></trkpt><trkpt lat="45.4117371" lon="10.5629629"><ele>98.0</ele><time>2026-03-29T10:23:46.707Z</time></trkpt><trkpt lat="45.4118799" lon="10.563084"><ele>98.0</ele><time>2026-03-29T10:23:47.707Z</time></trkpt><trkpt lat="45.4120277" lon="10.5632102"><ele>98.0</ele><time>2026-03-29T10:23:48.707Z</time></trkpt><trkpt lat="45.4121705" lon="10.5633449"><ele>98.0</ele><time>2026-03-29T10:23:49.707Z</time></trkpt><trkpt lat="45.4123015" lon="10.5634725"><ele>97.66666666666666</ele><time>2026-03-29T10:23:50.707Z</time></trkpt><trkpt lat="45.4124213" lon="10.5635994"><ele>97.33333333333334</ele><time>2026-03-29T10:23:51.707Z</time></trkpt><trkpt lat="45.4125367" lon="10.5637417"><ele>97.0</ele><time>2026-03-29T10:23:52.707Z</time></trkpt><trkpt lat="45.4126525" lon="10.5638891"><ele>97.0</ele><time>2026-03-29T10:23:53.707Z</time></trkpt><trkpt lat="45.4127675" lon="10.5640326"><ele>97.0</ele><time>2026-03-29T10:23:54.707Z</time></trkpt><trkpt lat="45.4128949" lon="10.5641676"><ele>97.0</ele><time>2026-03-29T10:23:55.707Z</time></trkpt><trkpt lat="45.4130328" lon="10.5642821"><ele>97.0</ele><time>2026-03-29T10:23:56.707Z</time></trkpt><trkpt lat="45.4131641" lon="10.5643823"><ele>97.0</ele><time>2026-03-29T10:23:57.707Z</time></trkpt><trkpt lat="45.4132892" lon="10.5644772"><ele>97.0</ele><time>2026-03-29T10:23:58.707Z</time></trkpt><trkpt lat="45.4134047" lon="10.5645541"><ele>97.0</ele><time>2026-03-29T10:23:59.707Z</time></trkpt><trkpt lat="45.4135134" lon="10.5646121"><ele>97.19999999999999</ele><time>2026-03-29T10:24:00.707Z</time></trkpt><trkpt lat="45.4136114" lon="10.5646528"><ele>97.4</ele><time>2026-03-29T10:24:01.707Z</time></trkpt><trkpt lat="45.413698" lon="10.5646724"><ele>97.6</ele><time>2026-03-29T10:24:02.707Z</time></trkpt><trkpt lat="45.4137778" lon="10.5646702"><ele>97.80000000000001</ele><time>2026-03-29T10:24:03.707Z</time></trkpt><trkpt lat="45.4138618" lon="10.564636"><ele>98.0</ele><time>2026-03-29T10:24:04.707Z</time></trkpt><trkpt lat="45.4139612" lon="10.5645765"><ele>98.66666666666666</ele><time>2026-03-29T10:24:05.707Z</time></trkpt><trkpt lat="45.4140934" lon="10.5644857"><ele>99.33333333333334</ele><time>2026-03-29T10:24:06.707Z</time></trkpt><trkpt lat="45.4142633" lon="10.5643746"><ele>100.0</ele><time>2026-03-29T10:24:07.707Z</time></trkpt><trkpt lat="45.4144609" lon="10.5642491"><ele>101.66666666666667</ele><time>2026-03-29T10:24:08.707Z</time></trkpt><trkpt lat="45.4146696" lon="10.5641285"><ele>103.33333333333334</ele><time>2026-03-29T10:24:09.707Z</time></trkpt><trkpt lat="45.4148576" lon="10.564042"><ele>105.0</ele><time>2026-03-29T10:24:10.707Z</time></trkpt><trkpt lat="45.4150462" lon="10.5639914"><ele>105.0</ele><time>2026-03-29T10:24:11.707Z</time></trkpt><trkpt lat="45.4152214" lon="10.5639825"><ele>105.0</ele><time>2026-03-29T10:24:12.707Z</time></trkpt><trkpt lat="45.4153813" lon="10.5639757"><ele>105.0</ele><time>2026-03-29T10:24:13.707Z</time></trkpt><trkpt lat="45.4155382" lon="10.5639466"><ele>105.66666666666666</ele><time>2026-03-29T10:24:14.707Z</time></trkpt><trkpt lat="45.4156966" lon="10.5638886"><ele>106.33333333333333</ele><time>2026-03-29T10:24:15.707Z</time></trkpt><trkpt lat="45.415846" lon="10.5638074"><ele>107.0</ele><time>2026-03-29T10:24:16.707Z</time></trkpt><trkpt lat="45.4159959" lon="10.5637263"><ele>106.66666666666666</ele><time>2026-03-29T10:24:17.707Z</time></trkpt><trkpt lat="45.4161433" lon="10.5636499"><ele>106.33333333333334</ele><time>2026-03-29T10:24:18.707Z</time></trkpt><trkpt lat="45.4162875" lon="10.5635738"><ele>106.0</ele><time>2026-03-29T10:24:19.707Z</time></trkpt><trkpt lat="45.4164295" lon="10.5635134"><ele>106.5</ele><time>2026-03-29T10:24:20.707Z</time></trkpt><trkpt lat="45.4165651" lon="10.5634965"><ele>107.0</ele><time>2026-03-29T10:24:21.707Z</time></trkpt><trkpt lat="45.4166986" lon="10.5635186"><ele>107.5</ele><time>2026-03-29T10:24:22.707Z</time></trkpt><trkpt lat="45.4168311" lon="10.5635818"><ele>108.0</ele><time>2026-03-29T10:24:23.707Z</time></trkpt><trkpt lat="45.4169564" lon="10.5636885"><ele>107.66666666666666</ele><time>2026-03-29T10:24:24.707Z</time></trkpt><trkpt lat="45.4170801" lon="10.5638374"><ele>107.33333333333333</ele><time>2026-03-29T10:24:25.707Z</time></trkpt><trkpt lat="45.4172094" lon="10.563989"><ele>107.0</ele><time>2026-03-29T10:24:26.707Z</time></trkpt><trkpt lat="45.4173482" lon="10.564092"><ele>107.0</ele><time>2026-03-29T10:24:27.707Z</time></trkpt><trkpt lat="45.4175056" lon="10.5641543"><ele>107.0</ele><time>2026-03-29T10:24:28.707Z</time></trkpt><trkpt lat="45.4176831" lon="10.5641709"><ele>107.0</ele><time>2026-03-29T10:24:29.707Z</time></trkpt><trkpt lat="45.4178842" lon="10.5641414"><ele>105.5</ele><time>2026-03-29T10:24:30.707Z</time></trkpt><trkpt lat="45.418109" lon="10.5640956"><ele>104.0</ele><time>2026-03-29T10:24:31.707Z</time></trkpt><trkpt lat="45.4183634" lon="10.5640484"><ele>104.0</ele><time>2026-03-29T10:24:32.707Z</time></trkpt><trkpt lat="45.4186365" lon="10.5640054"><ele>104.0</ele><time>2026-03-29T10:24:33.707Z</time></trkpt><trkpt lat="45.4189211" lon="10.5639716"><ele>102.0</ele><time>2026-03-29T10:24:34.707Z</time></trkpt><trkpt lat="45.4192161" lon="10.5639414"><ele>100.0</ele><time>2026-03-29T10:24:35.707Z</time></trkpt><trkpt lat="45.4195157" lon="10.5639116"><ele>99.5</ele><time>2026-03-29T10:24:36.707Z</time></trkpt><trkpt lat="45.419823" lon="10.5638977"><ele>99.0</ele><time>2026-03-29T10:24:37.707Z</time></trkpt><trkpt lat="45.4201347" lon="10.5638933"><ele>99.0</ele><time>2026-03-29T10:24:38.707Z</time></trkpt><trkpt lat="45.4204339" lon="10.5638931"><ele>99.0</ele><time>2026-03-29T10:24:39.707Z</time></trkpt><trkpt lat="45.4207102" lon="10.563895"><ele>98.0</ele><time>2026-03-29T10:24:40.707Z</time></trkpt><trkpt lat="45.4209696" lon="10.5638994"><ele>97.0</ele><time>2026-03-29T10:24:41.707Z</time></trkpt><trkpt lat="45.42121" lon="10.5639031"><ele>97.0</ele><time>2026-03-29T10:24:42.707Z</time></trkpt><trkpt lat="45.421436" lon="10.5639011"><ele>97.0</ele><time>2026-03-29T10:24:43.707Z</time></trkpt><trkpt lat="45.4216472" lon="10.5638994"><ele>97.0</ele><time>2026-03-29T10:24:44.707Z</time></trkpt><trkpt lat="45.421845" lon="10.5638988"><ele>97.0</ele><time>2026-03-29T10:24:45.707Z</time></trkpt><trkpt lat="45.42203" lon="10.5638934"><ele>97.0</ele><time>2026-03-29T10:24:46.707Z</time></trkpt><trkpt lat="45.4222008" lon="10.5638853"><ele>97.0</ele><time>2026-03-29T10:24:47.707Z</time></trkpt><trkpt lat="45.4223608" lon="10.5638778"><ele>97.25</ele><time>2026-03-29T10:24:48.707Z</time></trkpt><trkpt lat="45.4225118" lon="10.56387"><ele>97.5</ele><time>2026-03-29T10:24:49.707Z</time></trkpt><trkpt lat="45.42265" lon="10.5638574"><ele>97.75</ele><time>2026-03-29T10:24:50.707Z</time></trkpt><trkpt lat="45.4227772" lon="10.5638396"><ele>98.0</ele><time>2026-03-29T10:24:51.707Z</time></trkpt><trkpt lat="45.4228852" lon="10.5638181"><ele>97.99999999999999</ele><time>2026-03-29T10:24:52.707Z</time></trkpt><trkpt lat="45.4229596" lon="10.5638017"><ele>98.0</ele><time>2026-03-29T10:24:53.707Z</time></trkpt><trkpt lat="45.4230568" lon="10.5637899"><ele>98.0</ele><time>2026-03-29T10:24:55.707Z</time></trkpt><trkpt lat="45.4231135" lon="10.5637384"><ele>98.0</ele><time>2026-03-29T10:24:58.707Z</time></trkpt><trkpt lat="45.4230128" lon="10.5637124"><ele>97.99999999999999</ele><time>2026-03-29T10:25:01.707Z</time></trkpt><trkpt lat="45.4229196" lon="10.5637454"><ele>98.0</ele><time>2026-03-29T10:25:02.707Z</time></trkpt><trkpt lat="45.4228023" lon="10.5637841"><ele>98.0</ele><time>2026-03-29T10:25:03.708Z</time></trkpt><trkpt lat="45.4226366" lon="10.563817"><ele>98.0</ele><time>2026-03-29T10:25:04.707Z</time></trkpt><trkpt lat="45.4224314" lon="10.5638299"><ele>98.0</ele><time>2026-03-29T10:25:05.707Z</time></trkpt><trkpt lat="45.4221928" lon="10.5638413"><ele>97.5</ele><time>2026-03-29T10:25:06.707Z</time></trkpt><trkpt lat="45.4219227" lon="10.5638517"><ele>97.0</ele><time>2026-03-29T10:25:07.707Z</time></trkpt><trkpt lat="45.4216302" lon="10.5638612"><ele>97.0</ele><time>2026-03-29T10:25:08.707Z</time></trkpt><trkpt lat="45.421312" lon="10.5638699"><ele>97.0</ele><time>2026-03-29T10:25:09.707Z</time></trkpt><trkpt lat="45.4209731" lon="10.5638731"><ele>97.0</ele><time>2026-03-29T10:25:10.707Z</time></trkpt><trkpt lat="45.4206258" lon="10.5638759"><ele>97.0</ele><time>2026-03-29T10:25:11.707Z</time></trkpt><trkpt lat="45.4202673" lon="10.5638772"><ele>98.0</ele><time>2026-03-29T10:25:12.708Z</time></trkpt><trkpt lat="45.4199415" lon="10.5638784"><ele>99.0</ele><time>2026-03-29T10:25:13.707Z</time></trkpt><trkpt lat="45.4196341" lon="10.5638861"><ele>99.5</ele><time>2026-03-29T10:25:14.707Z</time></trkpt><trkpt lat="45.4193462" lon="10.5639009"><ele>100.0</ele><time>2026-03-29T10:25:15.707Z</time></trkpt><trkpt lat="45.4190741" lon="10.5639265"><ele>100.0</ele><time>2026-03-29T10:25:16.707Z</time></trkpt><trkpt lat="45.4188202" lon="10.5639586"><ele>100.0</ele><time>2026-03-29T10:25:17.707Z</time></trkpt><trkpt lat="45.4185814" lon="10.5639918"><ele>101.33333333333334</ele><time>2026-03-29T10:25:18.707Z</time></trkpt><trkpt lat="45.4183585" lon="10.5640257"><ele>102.66666666666666</ele><time>2026-03-29T10:25:19.707Z</time></trkpt><trkpt lat="45.4181511" lon="10.5640661"><ele>104.0</ele><time>2026-03-29T10:25:20.707Z</time></trkpt><trkpt lat="45.4179612" lon="10.5641111"><ele>105.0</ele><time>2026-03-29T10:25:21.707Z</time></trkpt><trkpt lat="45.417794" lon="10.5641504"><ele>106.0</ele><time>2026-03-29T10:25:22.707Z</time></trkpt><trkpt lat="45.4176467" lon="10.5641655"><ele>107.0</ele><time>2026-03-29T10:25:23.707Z</time></trkpt><trkpt lat="45.4175121" lon="10.5641427"><ele>107.0</ele><time>2026-03-29T10:25:24.707Z</time></trkpt><trkpt lat="45.4173713" lon="10.5640809"><ele>107.0</ele><time>2026-03-29T10:25:25.707Z</time></trkpt><trkpt lat="45.4172359" lon="10.5639697"><ele>107.0</ele><time>2026-03-29T10:25:26.707Z</time></trkpt><trkpt lat="45.417098" lon="10.5638125"><ele>107.25</ele><time>2026-03-29T10:25:27.707Z</time></trkpt><trkpt lat="45.4169742" lon="10.5636784"><ele>107.5</ele><time>2026-03-29T10:25:28.707Z</time></trkpt><trkpt lat="45.4168572" lon="10.5635756"><ele>107.75</ele><time>2026-03-29T10:25:29.707Z</time></trkpt><trkpt lat="45.4167557" lon="10.5635129"><ele>108.0</ele><time>2026-03-29T10:25:30.707Z</time></trkpt><trkpt lat="45.4166851" lon="10.5634694"><ele>108.0</ele><time>2026-03-29T10:25:31.707Z</time></trkpt><trkpt lat="45.4166475" lon="10.5633689"><ele>108.0</ele><time>2026-03-29T10:25:33.707Z</time></trkpt><trkpt lat="45.416686" lon="10.5632754"><ele>108.0</ele><time>2026-03-29T10:25:35.707Z</time></trkpt><trkpt lat="45.4167361" lon="10.5632136"><ele>108.0</ele><time>2026-03-29T10:25:36.707Z</time></trkpt><trkpt lat="45.4168082" lon="10.5631554"><ele>108.0</ele><time>2026-03-29T10:25:37.707Z</time></trkpt><trkpt lat="45.4168835" lon="10.5630965"><ele>108.0</ele><time>2026-03-29T10:25:38.707Z</time></trkpt><trkpt lat="45.4169646" lon="10.5630379"><ele>108.0</ele><time>2026-03-29T10:25:39.707Z</time></trkpt><trkpt lat="45.4170393" lon="10.5629952"><ele>108.0</ele><time>2026-03-29T10:25:40.707Z</time></trkpt><trkpt lat="45.4171113" lon="10.5629559"><ele>108.0</ele><time>2026-03-29T10:25:41.707Z</time></trkpt><trkpt lat="45.4171769" lon="10.5629226"><ele>108.0</ele><time>2026-03-29T10:25:42.707Z</time></trkpt><trkpt lat="45.41724" lon="10.562893"><ele>108.0</ele><time>2026-03-29T10:25:43.707Z</time></trkpt><trkpt lat="45.417301" lon="10.5628677"><ele>108.0</ele><time>2026-03-29T10:25:44.707Z</time></trkpt><trkpt lat="45.4173695" lon="10.5628441"><ele>108.0</ele><time>2026-03-29T10:25:45.707Z</time></trkpt><trkpt lat="45.4174413" lon="10.5628138"><ele>108.0</ele><time>2026-03-29T10:25:46.707Z</time></trkpt><trkpt lat="45.4175226" lon="10.5627704"><ele>108.00000000000001</ele><time>2026-03-29T10:25:47.707Z</time></trkpt><trkpt lat="45.4176064" lon="10.5627115"><ele>108.00000000000001</ele><time>2026-03-29T10:25:48.707Z</time></trkpt><trkpt lat="45.4176915" lon="10.5626284"><ele>108.0</ele><time>2026-03-29T10:25:49.707Z</time></trkpt><trkpt lat="45.4177758" lon="10.5625273"><ele>108.0</ele><time>2026-03-29T10:25:50.707Z</time></trkpt><trkpt lat="45.4178601" lon="10.5624101"><ele>108.0</ele><time>2026-03-29T10:25:51.708Z</time></trkpt><trkpt lat="45.4179338" lon="10.5622868"><ele>108.0</ele><time>2026-03-29T10:25:52.707Z</time></trkpt><trkpt lat="45.4180105" lon="10.562155"><ele>108.0</ele><time>2026-03-29T10:25:53.707Z</time></trkpt><trkpt lat="45.4180946" lon="10.5620223"><ele>108.0</ele><time>2026-03-29T10:25:54.707Z</time></trkpt><trkpt lat="45.4181801" lon="10.5618882"><ele>108.0</ele><time>2026-03-29T10:25:55.707Z</time></trkpt><trkpt lat="45.4182683" lon="10.5617526"><ele>108.0</ele><time>2026-03-29T10:25:56.707Z</time></trkpt><trkpt lat="45.4183624" lon="10.561623"><ele>108.0</ele><time>2026-03-29T10:25:57.707Z</time></trkpt><trkpt lat="45.4184551" lon="10.5614971"><ele>108.0</ele><time>2026-03-29T10:25:58.707Z</time></trkpt><trkpt lat="45.4185478" lon="10.5613694"><ele>108.0</ele><time>2026-03-29T10:25:59.707Z</time></trkpt><trkpt lat="45.4186411" lon="10.5612426"><ele>108.0</ele><time>2026-03-29T10:26:00.707Z</time></trkpt><trkpt lat="45.4187387" lon="10.5611136"><ele>108.0</ele><time>2026-03-29T10:26:01.707Z</time></trkpt><trkpt lat="45.4188383" lon="10.5609923"><ele>108.0</ele><time>2026-03-29T10:26:02.707Z</time></trkpt><trkpt lat="45.4189496" lon="10.5608676"><ele>109.25</ele><time>2026-03-29T10:26:03.707Z</time></trkpt><trkpt lat="45.4190688" lon="10.5607438"><ele>110.5</ele><time>2026-03-29T10:26:04.707Z</time></trkpt><trkpt lat="45.4191892" lon="10.5606361"><ele>111.75</ele><time>2026-03-29T10:26:05.707Z</time></trkpt><trkpt lat="45.4193164" lon="10.5605357"><ele>113.0</ele><time>2026-03-29T10:26:06.707Z</time></trkpt><trkpt lat="45.4194464" lon="10.5604369"><ele>112.5</ele><time>2026-03-29T10:26:07.707Z</time></trkpt><trkpt lat="45.4195749" lon="10.5603339"><ele>112.0</ele><time>2026-03-29T10:26:08.707Z</time></trkpt><trkpt lat="45.419701" lon="10.5602376"><ele>111.5</ele><time>2026-03-29T10:26:09.707Z</time></trkpt><trkpt lat="45.4198197" lon="10.5601564"><ele>111.0</ele><time>2026-03-29T10:26:10.707Z</time></trkpt><trkpt lat="45.4199353" lon="10.5600939"><ele>111.8</ele><time>2026-03-29T10:26:11.707Z</time></trkpt><trkpt lat="45.4200425" lon="10.5600434"><ele>112.6</ele><time>2026-03-29T10:26:12.707Z</time></trkpt><trkpt lat="45.4201437" lon="10.5599819"><ele>113.4</ele><time>2026-03-29T10:26:13.707Z</time></trkpt><trkpt lat="45.4202318" lon="10.5599028"><ele>114.2</ele><time>2026-03-29T10:26:14.707Z</time></trkpt><trkpt lat="45.4203179" lon="10.5598017"><ele>115.0</ele><time>2026-03-29T10:26:15.707Z</time></trkpt><trkpt lat="45.4204011" lon="10.5596873"><ele>115.0</ele><time>2026-03-29T10:26:16.707Z</time></trkpt><trkpt lat="45.4204806" lon="10.5595611"><ele>115.0</ele><time>2026-03-29T10:26:17.707Z</time></trkpt><trkpt lat="45.4205649" lon="10.5594109"><ele>115.0</ele><time>2026-03-29T10:26:18.708Z</time></trkpt><trkpt lat="45.4206564" lon="10.559247"><ele>115.0</ele><time>2026-03-29T10:26:19.707Z</time></trkpt><trkpt lat="45.4207462" lon="10.5590856"><ele>115.0</ele><time>2026-03-29T10:26:20.707Z</time></trkpt><trkpt lat="45.4208314" lon="10.5589269"><ele>115.0</ele><time>2026-03-29T10:26:21.707Z</time></trkpt><trkpt lat="45.4209222" lon="10.5587754"><ele>115.0</ele><time>2026-03-29T10:26:22.707Z</time></trkpt><trkpt lat="45.4210298" lon="10.5586265"><ele>115.0</ele><time>2026-03-29T10:26:23.707Z</time></trkpt><trkpt lat="45.4211432" lon="10.5584748"><ele>114.66666666666667</ele><time>2026-03-29T10:26:24.707Z</time></trkpt><trkpt lat="45.4212458" lon="10.5583108"><ele>114.33333333333334</ele><time>2026-03-29T10:26:25.707Z</time></trkpt><trkpt lat="45.421344" lon="10.5581379"><ele>114.0</ele><time>2026-03-29T10:26:26.707Z</time></trkpt><trkpt lat="45.4214366" lon="10.5579616"><ele>114.0</ele><time>2026-03-29T10:26:27.707Z</time></trkpt><trkpt lat="45.4215147" lon="10.5578005"><ele>114.0</ele><time>2026-03-29T10:26:28.707Z</time></trkpt><trkpt lat="45.421589" lon="10.5576426"><ele>114.0</ele><time>2026-03-29T10:26:29.707Z</time></trkpt><trkpt lat="45.4216586" lon="10.5574754"><ele>114.0</ele><time>2026-03-29T10:26:30.707Z</time></trkpt><trkpt lat="45.421714" lon="10.5573113"><ele>114.0</ele><time>2026-03-29T10:26:31.707Z</time></trkpt><trkpt lat="45.4217638" lon="10.5571556"><ele>114.0</ele><time>2026-03-29T10:26:32.707Z</time></trkpt><trkpt lat="45.4218087" lon="10.5570042"><ele>114.0</ele><time>2026-03-29T10:26:33.707Z</time></trkpt><trkpt lat="45.421852" lon="10.5568608"><ele>114.0</ele><time>2026-03-29T10:26:34.707Z</time></trkpt><trkpt lat="45.421893" lon="10.5567218"><ele>113.66666666666667</ele><time>2026-03-29T10:26:35.707Z</time></trkpt><trkpt lat="45.4219259" lon="10.5565916"><ele>113.33333333333334</ele><time>2026-03-29T10:26:36.707Z</time></trkpt><trkpt lat="45.4219517" lon="10.5564658"><ele>113.0</ele><time>2026-03-29T10:26:37.707Z</time></trkpt><trkpt lat="45.4219711" lon="10.55635"><ele>112.66666666666667</ele><time>2026-03-29T10:26:38.707Z</time></trkpt><trkpt lat="45.4219821" lon="10.5562371"><ele>112.33333333333334</ele><time>2026-03-29T10:26:39.707Z</time></trkpt><trkpt lat="45.4219935" lon="10.5561036"><ele>112.0</ele><time>2026-03-29T10:26:40.707Z</time></trkpt><trkpt lat="45.422002" lon="10.5559569"><ele>111.5</ele><time>2026-03-29T10:26:41.707Z</time></trkpt><trkpt lat="45.4220217" lon="10.5558009"><ele>111.0</ele><time>2026-03-29T10:26:42.708Z</time></trkpt><trkpt lat="45.4220553" lon="10.5556648"><ele>110.5</ele><time>2026-03-29T10:26:43.707Z</time></trkpt><trkpt lat="45.4221064" lon="10.5555071"><ele>110.0</ele><time>2026-03-29T10:26:44.707Z</time></trkpt><trkpt lat="45.4221731" lon="10.5553527"><ele>110.8</ele><time>2026-03-29T10:26:45.707Z</time></trkpt><trkpt lat="45.4222418" lon="10.5552277"><ele>111.6</ele><time>2026-03-29T10:26:46.707Z</time></trkpt><trkpt lat="45.4222984" lon="10.5551246"><ele>112.4</ele><time>2026-03-29T10:26:47.708Z</time></trkpt><trkpt lat="45.4223254" lon="10.5550276"><ele>113.2</ele><time>2026-03-29T10:26:48.707Z</time></trkpt><trkpt lat="45.4222532" lon="10.5548677"><ele>114.0</ele><time>2026-03-29T10:26:50.707Z</time></trkpt><trkpt lat="45.4221723" lon="10.5547865"><ele>112.75</ele><time>2026-03-29T10:26:51.707Z</time></trkpt><trkpt lat="45.4220621" lon="10.5546709"><ele>111.5</ele><time>2026-03-29T10:26:52.707Z</time></trkpt><trkpt lat="45.4219488" lon="10.5545244"><ele>110.25</ele><time>2026-03-29T10:26:53.707Z</time></trkpt><trkpt lat="45.4218599" lon="10.5543681"><ele>109.0</ele><time>2026-03-29T10:26:54.707Z</time></trkpt><trkpt lat="45.4217775" lon="10.5542195"><ele>108.5</ele><time>2026-03-29T10:26:55.707Z</time></trkpt><trkpt lat="45.4216836" lon="10.5541008"><ele>108.0</ele><time>2026-03-29T10:26:56.707Z</time></trkpt><trkpt lat="45.4215766" lon="10.5540147"><ele>107.5</ele><time>2026-03-29T10:26:57.707Z</time></trkpt><trkpt lat="45.4214497" lon="10.5539247"><ele>107.0</ele><time>2026-03-29T10:26:58.707Z</time></trkpt><trkpt lat="45.4213216" lon="10.5538363"><ele>106.0</ele><time>2026-03-29T10:26:59.707Z</time></trkpt><trkpt lat="45.4212023" lon="10.5537542"><ele>105.0</ele><time>2026-03-29T10:27:00.707Z</time></trkpt><trkpt lat="45.4210914" lon="10.553679"><ele>104.0</ele><time>2026-03-29T10:27:01.707Z</time></trkpt><trkpt lat="45.4209833" lon="10.5536067"><ele>103.0</ele><time>2026-03-29T10:27:02.707Z</time></trkpt><trkpt lat="45.4208771" lon="10.5535408"><ele>103.0</ele><time>2026-03-29T10:27:03.707Z</time></trkpt><trkpt lat="45.4207909" lon="10.5534818"><ele>103.0</ele><time>2026-03-29T10:27:04.707Z</time></trkpt><trkpt lat="45.4207346" lon="10.553417"><ele>103.0</ele><time>2026-03-29T10:27:05.707Z</time></trkpt><trkpt lat="45.4207507" lon="10.5532401"><ele>103.0</ele><time>2026-03-29T10:27:07.707Z</time></trkpt><trkpt lat="45.420788" lon="10.5531185"><ele>103.0</ele><time>2026-03-29T10:27:08.707Z</time></trkpt><trkpt lat="45.420831" lon="10.5530042"><ele>103.0</ele><time>2026-03-29T10:27:09.707Z</time></trkpt><trkpt lat="45.4208607" lon="10.5529158"><ele>103.0</ele><time>2026-03-29T10:27:10.707Z</time></trkpt><trkpt lat="45.4208224" lon="10.5527944"><ele>103.0</ele><time>2026-03-29T10:27:12.707Z</time></trkpt><trkpt lat="45.4207568" lon="10.5527448"><ele>103.0</ele><time>2026-03-29T10:27:13.707Z</time></trkpt><trkpt lat="45.4206569" lon="10.5526837"><ele>103.0</ele><time>2026-03-29T10:27:14.707Z</time></trkpt><trkpt lat="45.4205349" lon="10.5526013"><ele>102.0</ele><time>2026-03-29T10:27:15.707Z</time></trkpt><trkpt lat="45.4203967" lon="10.5525041"><ele>101.0</ele><time>2026-03-29T10:27:16.707Z</time></trkpt><trkpt lat="45.4202444" lon="10.552377"><ele>100.0</ele><time>2026-03-29T10:27:17.707Z</time></trkpt><trkpt lat="45.4200885" lon="10.5522112"><ele>100.0</ele><time>2026-03-29T10:27:18.707Z</time></trkpt><trkpt lat="45.4199249" lon="10.5520097"><ele>100.0</ele><time>2026-03-29T10:27:19.707Z</time></trkpt><trkpt lat="45.4197714" lon="10.551823"><ele>100.0</ele><time>2026-03-29T10:27:20.707Z</time></trkpt><trkpt lat="45.4196335" lon="10.5516391"><ele>100.33333333333334</ele><time>2026-03-29T10:27:21.707Z</time></trkpt><trkpt lat="45.4195251" lon="10.5514609"><ele>100.66666666666666</ele><time>2026-03-29T10:27:22.707Z</time></trkpt><trkpt lat="45.4194531" lon="10.5512798"><ele>101.0</ele><time>2026-03-29T10:27:23.707Z</time></trkpt><trkpt lat="45.4194035" lon="10.5510957"><ele>101.0</ele><time>2026-03-29T10:27:24.708Z</time></trkpt><trkpt lat="45.4193602" lon="10.5509207"><ele>101.0</ele><time>2026-03-29T10:27:25.707Z</time></trkpt><trkpt lat="45.4193218" lon="10.550748"><ele>101.0</ele><time>2026-03-29T10:27:26.707Z</time></trkpt><trkpt lat="45.4192793" lon="10.5505901"><ele>101.0</ele><time>2026-03-29T10:27:27.707Z</time></trkpt><trkpt lat="45.4192325" lon="10.5504365"><ele>101.75</ele><time>2026-03-29T10:27:28.707Z</time></trkpt><trkpt lat="45.4191815" lon="10.5502851"><ele>102.5</ele><time>2026-03-29T10:27:29.707Z</time></trkpt><trkpt lat="45.4191241" lon="10.5501442"><ele>103.25</ele><time>2026-03-29T10:27:30.707Z</time></trkpt><trkpt lat="45.4190586" lon="10.5500236"><ele>104.0</ele><time>2026-03-29T10:27:31.707Z</time></trkpt><trkpt lat="45.4189822" lon="10.5499008"><ele>104.0</ele><time>2026-03-29T10:27:32.707Z</time></trkpt><trkpt lat="45.4188925" lon="10.5497562"><ele>104.0</ele><time>2026-03-29T10:27:33.707Z</time></trkpt><trkpt lat="45.4188044" lon="10.5496131"><ele>104.0</ele><time>2026-03-29T10:27:34.707Z</time></trkpt><trkpt lat="45.4187332" lon="10.549483"><ele>104.0</ele><time>2026-03-29T10:27:35.707Z</time></trkpt><trkpt lat="45.4186696" lon="10.5493649"><ele>104.83333333333333</ele><time>2026-03-29T10:27:36.707Z</time></trkpt><trkpt lat="45.418606" lon="10.5492674"><ele>105.66666666666666</ele><time>2026-03-29T10:27:37.707Z</time></trkpt><trkpt lat="45.4185403" lon="10.5492053"><ele>106.5</ele><time>2026-03-29T10:27:38.707Z</time></trkpt><trkpt lat="45.4184697" lon="10.549178"><ele>107.33333333333334</ele><time>2026-03-29T10:27:39.707Z</time></trkpt><trkpt lat="45.4184004" lon="10.5491882"><ele>108.16666666666667</ele><time>2026-03-29T10:27:40.707Z</time></trkpt><trkpt lat="45.4183187" lon="10.5492269"><ele>109.0</ele><time>2026-03-29T10:27:41.707Z</time></trkpt><trkpt lat="45.418221" lon="10.5492814"><ele>109.00000000000001</ele><time>2026-03-29T10:27:42.707Z</time></trkpt><trkpt lat="45.4181374" lon="10.5493218"><ele>109.0</ele><time>2026-03-29T10:27:43.707Z</time></trkpt><trkpt lat="45.4180581" lon="10.5493356"><ele>109.0</ele><time>2026-03-29T10:27:44.707Z</time></trkpt><trkpt lat="45.4179899" lon="10.5493048"><ele>109.0</ele><time>2026-03-29T10:27:45.707Z</time></trkpt><trkpt lat="45.4179405" lon="10.5492428"><ele>109.00000000000001</ele><time>2026-03-29T10:27:46.707Z</time></trkpt><trkpt lat="45.4178866" lon="10.5491385"><ele>109.0</ele><time>2026-03-29T10:27:47.707Z</time></trkpt><trkpt lat="45.4178406" lon="10.5490057"><ele>108.75</ele><time>2026-03-29T10:27:48.707Z</time></trkpt><trkpt lat="45.4177817" lon="10.5488474"><ele>108.5</ele><time>2026-03-29T10:27:49.707Z</time></trkpt><trkpt lat="45.4177119" lon="10.5486694"><ele>108.25</ele><time>2026-03-29T10:27:50.707Z</time></trkpt><trkpt lat="45.4176336" lon="10.548477"><ele>108.0</ele><time>2026-03-29T10:27:51.707Z</time></trkpt><trkpt lat="45.4175555" lon="10.5482874"><ele>108.0</ele><time>2026-03-29T10:27:52.707Z</time></trkpt><trkpt lat="45.4174714" lon="10.548082"><ele>108.0</ele><time>2026-03-29T10:27:53.707Z</time></trkpt><trkpt lat="45.4173886" lon="10.5478651"><ele>108.0</ele><time>2026-03-29T10:27:54.707Z</time></trkpt><trkpt lat="45.4173043" lon="10.5476451"><ele>107.66666666666666</ele><time>2026-03-29T10:27:55.707Z</time></trkpt><trkpt lat="45.4172177" lon="10.5474361"><ele>107.33333333333333</ele><time>2026-03-29T10:27:56.707Z</time></trkpt><trkpt lat="45.4171285" lon="10.5472335"><ele>107.0</ele><time>2026-03-29T10:27:57.707Z</time></trkpt><trkpt lat="45.4170318" lon="10.5470344"><ele>106.66666666666666</ele><time>2026-03-29T10:27:58.707Z</time></trkpt><trkpt lat="45.4169329" lon="10.5468383"><ele>106.33333333333334</ele><time>2026-03-29T10:27:59.707Z</time></trkpt><trkpt lat="45.416822" lon="10.5466463"><ele>106.0</ele><time>2026-03-29T10:28:00.707Z</time></trkpt><trkpt lat="45.4167031" lon="10.5464676"><ele>106.0</ele><time>2026-03-29T10:28:01.707Z</time></trkpt><trkpt lat="45.4165728" lon="10.5462929"><ele>106.0</ele><time>2026-03-29T10:28:02.707Z</time></trkpt><trkpt lat="45.4164348" lon="10.5461147"><ele>106.0</ele><time>2026-03-29T10:28:03.707Z</time></trkpt><trkpt lat="45.4162937" lon="10.5459344"><ele>107.33333333333334</ele><time>2026-03-29T10:28:04.707Z</time></trkpt><trkpt lat="45.4161591" lon="10.5457547"><ele>108.66666666666666</ele><time>2026-03-29T10:28:05.707Z</time></trkpt><trkpt lat="45.4160361" lon="10.5455877"><ele>110.0</ele><time>2026-03-29T10:28:06.707Z</time></trkpt><trkpt lat="45.4159208" lon="10.5454196"><ele>110.66666666666666</ele><time>2026-03-29T10:28:07.707Z</time></trkpt><trkpt lat="45.4158159" lon="10.5452444"><ele>111.33333333333334</ele><time>2026-03-29T10:28:08.707Z</time></trkpt><trkpt lat="45.4157152" lon="10.5450641"><ele>112.0</ele><time>2026-03-29T10:28:09.707Z</time></trkpt><trkpt lat="45.4156311" lon="10.5449001"><ele>112.0</ele><time>2026-03-29T10:28:10.707Z</time></trkpt><trkpt lat="45.4155535" lon="10.5447484"><ele>111.99999999999999</ele><time>2026-03-29T10:28:11.707Z</time></trkpt><trkpt lat="45.4154829" lon="10.5446134"><ele>111.99999999999999</ele><time>2026-03-29T10:28:12.707Z</time></trkpt><trkpt lat="45.4154297" lon="10.544506"><ele>112.0</ele><time>2026-03-29T10:28:13.707Z</time></trkpt><trkpt lat="45.4153987" lon="10.5444257"><ele>112.0</ele><time>2026-03-29T10:28:14.707Z</time></trkpt><trkpt lat="45.4153988" lon="10.5443355"><ele>112.39999999999999</ele><time>2026-03-29T10:28:16.707Z</time></trkpt><trkpt lat="45.4154633" lon="10.5442934"><ele>112.79999999999998</ele><time>2026-03-29T10:28:18.707Z</time></trkpt><trkpt lat="45.415599" lon="10.5442652"><ele>113.2</ele><time>2026-03-29T10:28:20.707Z</time></trkpt><trkpt lat="45.4156958" lon="10.5442402"><ele>113.6</ele><time>2026-03-29T10:28:21.707Z</time></trkpt><trkpt lat="45.4158008" lon="10.5442109"><ele>114.0</ele><time>2026-03-29T10:28:22.707Z</time></trkpt><trkpt lat="45.4159215" lon="10.5441757"><ele>114.0</ele><time>2026-03-29T10:28:23.707Z</time></trkpt><trkpt lat="45.416055" lon="10.5441406"><ele>114.0</ele><time>2026-03-29T10:28:24.707Z</time></trkpt><trkpt lat="45.416183" lon="10.5441144"><ele>114.0</ele><time>2026-03-29T10:28:25.707Z</time></trkpt><trkpt lat="45.4162994" lon="10.5440859"><ele>114.0</ele><time>2026-03-29T10:28:26.707Z</time></trkpt><trkpt lat="45.4164111" lon="10.5440585"><ele>112.75</ele><time>2026-03-29T10:28:27.707Z</time></trkpt><trkpt lat="45.4165198" lon="10.5440236"><ele>111.5</ele><time>2026-03-29T10:28:28.707Z</time></trkpt><trkpt lat="45.4166252" lon="10.5439782"><ele>110.25</ele><time>2026-03-29T10:28:29.707Z</time></trkpt><trkpt lat="45.4167302" lon="10.5439201"><ele>109.0</ele><time>2026-03-29T10:28:30.707Z</time></trkpt><trkpt lat="45.4168386" lon="10.5438445"><ele>109.0</ele><time>2026-03-29T10:28:31.707Z</time></trkpt><trkpt lat="45.4169454" lon="10.543753"><ele>109.0</ele><time>2026-03-29T10:28:32.707Z</time></trkpt><trkpt lat="45.4170459" lon="10.5436505"><ele>109.0</ele><time>2026-03-29T10:28:33.707Z</time></trkpt><trkpt lat="45.4171421" lon="10.5435299"><ele>109.0</ele><time>2026-03-29T10:28:34.707Z</time></trkpt><trkpt lat="45.417226" lon="10.5433941"><ele>109.0</ele><time>2026-03-29T10:28:35.707Z</time></trkpt><trkpt lat="45.4173077" lon="10.5432376"><ele>109.0</ele><time>2026-03-29T10:28:36.707Z</time></trkpt><trkpt lat="45.4173902" lon="10.5430668"><ele>109.0</ele><time>2026-03-29T10:28:37.707Z</time></trkpt><trkpt lat="45.41748" lon="10.5428859"><ele>109.0</ele><time>2026-03-29T10:28:38.708Z</time></trkpt><trkpt lat="45.417578" lon="10.5427027"><ele>109.0</ele><time>2026-03-29T10:28:39.707Z</time></trkpt><trkpt lat="45.4176693" lon="10.5425185"><ele>109.0</ele><time>2026-03-29T10:28:40.707Z</time></trkpt><trkpt lat="45.4177588" lon="10.5423329"><ele>109.0</ele><time>2026-03-29T10:28:41.707Z</time></trkpt><trkpt lat="45.4178486" lon="10.542144"><ele>109.0</ele><time>2026-03-29T10:28:42.707Z</time></trkpt><trkpt lat="45.4179284" lon="10.5419729"><ele>109.0</ele><time>2026-03-29T10:28:43.708Z</time></trkpt><trkpt lat="45.4180051" lon="10.5418103"><ele>109.0</ele><time>2026-03-29T10:28:44.707Z</time></trkpt><trkpt lat="45.4180825" lon="10.5416669"><ele>109.0</ele><time>2026-03-29T10:28:45.708Z</time></trkpt><trkpt lat="45.4181658" lon="10.5415314"><ele>109.0</ele><time>2026-03-29T10:28:46.707Z</time></trkpt><trkpt lat="45.4182622" lon="10.5413954"><ele>109.0</ele><time>2026-03-29T10:28:47.707Z</time></trkpt><trkpt lat="45.4183742" lon="10.5412655"><ele>109.0</ele><time>2026-03-29T10:28:48.707Z</time></trkpt><trkpt lat="45.4184997" lon="10.5411403"><ele>109.0</ele><time>2026-03-29T10:28:49.707Z</time></trkpt><trkpt lat="45.4186328" lon="10.5410078"><ele>110.33333333333334</ele><time>2026-03-29T10:28:50.707Z</time></trkpt><trkpt lat="45.4187747" lon="10.5408648"><ele>111.66666666666666</ele><time>2026-03-29T10:28:51.707Z</time></trkpt><trkpt lat="45.4188994" lon="10.540746"><ele>113.0</ele><time>2026-03-29T10:28:52.707Z</time></trkpt><trkpt lat="45.4190199" lon="10.5406428"><ele>113.0</ele><time>2026-03-29T10:28:53.707Z</time></trkpt><trkpt lat="45.4191454" lon="10.5405482"><ele>113.0</ele><time>2026-03-29T10:28:54.707Z</time></trkpt><trkpt lat="45.4192877" lon="10.5404657"><ele>113.0</ele><time>2026-03-29T10:28:55.707Z</time></trkpt><trkpt lat="45.4194403" lon="10.5403922"><ele>113.5</ele><time>2026-03-29T10:28:56.707Z</time></trkpt><trkpt lat="45.4195827" lon="10.5403175"><ele>114.0</ele><time>2026-03-29T10:28:57.707Z</time></trkpt><trkpt lat="45.4197135" lon="10.5402471"><ele>114.5</ele><time>2026-03-29T10:28:58.707Z</time></trkpt><trkpt lat="45.4198384" lon="10.5401654"><ele>115.0</ele><time>2026-03-29T10:28:59.707Z</time></trkpt><trkpt lat="45.4199621" lon="10.5400687"><ele>115.25</ele><time>2026-03-29T10:29:00.707Z</time></trkpt><trkpt lat="45.4200818" lon="10.5399728"><ele>115.5</ele><time>2026-03-29T10:29:01.707Z</time></trkpt><trkpt lat="45.4201947" lon="10.5398733"><ele>115.75</ele><time>2026-03-29T10:29:02.707Z</time></trkpt><trkpt lat="45.4203009" lon="10.5397551"><ele>116.0</ele><time>2026-03-29T10:29:03.707Z</time></trkpt><trkpt lat="45.4203974" lon="10.5396344"><ele>117.25</ele><time>2026-03-29T10:29:04.708Z</time></trkpt><trkpt lat="45.4204825" lon="10.5395316"><ele>118.5</ele><time>2026-03-29T10:29:05.707Z</time></trkpt><trkpt lat="45.4205736" lon="10.5394389"><ele>119.75</ele><time>2026-03-29T10:29:06.707Z</time></trkpt><trkpt lat="45.4206775" lon="10.5393656"><ele>121.0</ele><time>2026-03-29T10:29:07.707Z</time></trkpt><trkpt lat="45.4207896" lon="10.539304"><ele>121.0</ele><time>2026-03-29T10:29:08.708Z</time></trkpt><trkpt lat="45.4209181" lon="10.5392366"><ele>121.0</ele><time>2026-03-29T10:29:09.707Z</time></trkpt><trkpt lat="45.4210518" lon="10.5391795"><ele>121.0</ele><time>2026-03-29T10:29:10.707Z</time></trkpt><trkpt lat="45.4211911" lon="10.5391297"><ele>121.0</ele><time>2026-03-29T10:29:11.707Z</time></trkpt><trkpt lat="45.4213284" lon="10.5390796"><ele>120.5</ele><time>2026-03-29T10:29:12.707Z</time></trkpt><trkpt lat="45.4214661" lon="10.5390227"><ele>120.0</ele><time>2026-03-29T10:29:13.707Z</time></trkpt><trkpt lat="45.4215959" lon="10.5389618"><ele>119.5</ele><time>2026-03-29T10:29:14.707Z</time></trkpt><trkpt lat="45.4217146" lon="10.5389011"><ele>119.0</ele><time>2026-03-29T10:29:15.707Z</time></trkpt><trkpt lat="45.421823" lon="10.5388416"><ele>119.0</ele><time>2026-03-29T10:29:16.707Z</time></trkpt><trkpt lat="45.421913" lon="10.5387908"><ele>119.0</ele><time>2026-03-29T10:29:17.707Z</time></trkpt><trkpt lat="45.4219926" lon="10.538745"><ele>119.0</ele><time>2026-03-29T10:29:18.707Z</time></trkpt><trkpt lat="45.4220855" lon="10.538685"><ele>119.0</ele><time>2026-03-29T10:29:19.707Z</time></trkpt><trkpt lat="45.4221962" lon="10.5386167"><ele>119.0</ele><time>2026-03-29T10:29:20.707Z</time></trkpt><trkpt lat="45.4223234" lon="10.5385463"><ele>120.25</ele><time>2026-03-29T10:29:21.707Z</time></trkpt><trkpt lat="45.4224548" lon="10.5384747"><ele>121.5</ele><time>2026-03-29T10:29:22.707Z</time></trkpt><trkpt lat="45.42259" lon="10.5384075"><ele>122.75</ele><time>2026-03-29T10:29:23.707Z</time></trkpt><trkpt lat="45.4227358" lon="10.538349"><ele>124.0</ele><time>2026-03-29T10:29:24.707Z</time></trkpt><trkpt lat="45.4228943" lon="10.5382961"><ele>124.66666666666667</ele><time>2026-03-29T10:29:25.707Z</time></trkpt><trkpt lat="45.4230613" lon="10.5382394"><ele>125.33333333333334</ele><time>2026-03-29T10:29:26.707Z</time></trkpt><trkpt lat="45.4232324" lon="10.5381799"><ele>126.0</ele><time>2026-03-29T10:29:27.707Z</time></trkpt><trkpt lat="45.4233994" lon="10.5381198"><ele>126.0</ele><time>2026-03-29T10:29:28.707Z</time></trkpt><trkpt lat="45.4235534" lon="10.5380581"><ele>126.0</ele><time>2026-03-29T10:29:29.707Z</time></trkpt><trkpt lat="45.4237099" lon="10.5379966"><ele>126.0</ele><time>2026-03-29T10:29:30.707Z</time></trkpt><trkpt lat="45.4238609" lon="10.5379576"><ele>125.5</ele><time>2026-03-29T10:29:31.707Z</time></trkpt><trkpt lat="45.4240028" lon="10.5379415"><ele>125.0</ele><time>2026-03-29T10:29:32.707Z</time></trkpt><trkpt lat="45.4241349" lon="10.5379316"><ele>124.5</ele><time>2026-03-29T10:29:33.707Z</time></trkpt><trkpt lat="45.4242558" lon="10.5379316"><ele>124.0</ele><time>2026-03-29T10:29:34.708Z</time></trkpt><trkpt lat="45.4243765" lon="10.5379496"><ele>124.0</ele><time>2026-03-29T10:29:35.707Z</time></trkpt><trkpt lat="45.4245083" lon="10.5379856"><ele>124.0</ele><time>2026-03-29T10:29:36.707Z</time></trkpt><trkpt lat="45.4246426" lon="10.5380675"><ele>124.0</ele><time>2026-03-29T10:29:37.707Z</time></trkpt><trkpt lat="45.424767" lon="10.5381972"><ele>124.0</ele><time>2026-03-29T10:29:38.707Z</time></trkpt><trkpt lat="45.4248998" lon="10.5383305"><ele>122.66666666666667</ele><time>2026-03-29T10:29:39.708Z</time></trkpt><trkpt lat="45.4250456" lon="10.538453"><ele>121.33333333333334</ele><time>2026-03-29T10:29:40.707Z</time></trkpt><trkpt lat="45.4251894" lon="10.5385457"><ele>120.0</ele><time>2026-03-29T10:29:41.707Z</time></trkpt><trkpt lat="45.4253307" lon="10.5386269"><ele>119.33333333333334</ele><time>2026-03-29T10:29:42.707Z</time></trkpt><trkpt lat="45.4254847" lon="10.5386977"><ele>118.66666666666667</ele><time>2026-03-29T10:29:43.707Z</time></trkpt><trkpt lat="45.425647" lon="10.5387491"><ele>118.0</ele><time>2026-03-29T10:29:44.707Z</time></trkpt><trkpt lat="45.4258111" lon="10.5387957"><ele>117.0</ele><time>2026-03-29T10:29:45.707Z</time></trkpt><trkpt lat="45.4259485" lon="10.5388263"><ele>116.00000000000001</ele><time>2026-03-29T10:29:46.707Z</time></trkpt><trkpt lat="45.4260472" lon="10.5388413"><ele>115.00000000000001</ele><time>2026-03-29T10:29:47.707Z</time></trkpt><trkpt lat="45.426138" lon="10.5388374"><ele>114.0</ele><time>2026-03-29T10:29:48.707Z</time></trkpt><trkpt lat="45.4262384" lon="10.5388237"><ele>113.0</ele><time>2026-03-29T10:29:49.707Z</time></trkpt><trkpt lat="45.4263507" lon="10.5388032"><ele>113.0</ele><time>2026-03-29T10:29:50.707Z</time></trkpt><trkpt lat="45.4264754" lon="10.5387868"><ele>113.0</ele><time>2026-03-29T10:29:51.707Z</time></trkpt><trkpt lat="45.4266184" lon="10.5387823"><ele>113.0</ele><time>2026-03-29T10:29:52.707Z</time></trkpt><trkpt lat="45.426766" lon="10.538776"><ele>113.0</ele><time>2026-03-29T10:29:53.707Z</time></trkpt><trkpt lat="45.4269059" lon="10.5387706"><ele>113.0</ele><time>2026-03-29T10:29:54.707Z</time></trkpt><trkpt lat="45.4270358" lon="10.5387652"><ele>113.00000000000001</ele><time>2026-03-29T10:29:55.707Z</time></trkpt><trkpt lat="45.4271528" lon="10.5387503"><ele>113.00000000000001</ele><time>2026-03-29T10:29:56.707Z</time></trkpt><trkpt lat="45.4272533" lon="10.5387388"><ele>113.0</ele><time>2026-03-29T10:29:57.707Z</time></trkpt><trkpt lat="45.4273324" lon="10.5387326"><ele>113.0</ele><time>2026-03-29T10:29:58.707Z</time></trkpt><trkpt lat="45.4274067" lon="10.5387458"><ele>112.80000000000001</ele><time>2026-03-29T10:30:00.707Z</time></trkpt><trkpt lat="45.4274774" lon="10.5387872"><ele>112.60000000000001</ele><time>2026-03-29T10:30:02.708Z</time></trkpt><trkpt lat="45.4275303" lon="10.5388806"><ele>112.39999999999999</ele><time>2026-03-29T10:30:03.707Z</time></trkpt><trkpt lat="45.4275972" lon="10.539007"><ele>112.19999999999999</ele><time>2026-03-29T10:30:04.707Z</time></trkpt><trkpt lat="45.427681" lon="10.5391478"><ele>112.0</ele><time>2026-03-29T10:30:05.707Z</time></trkpt><trkpt lat="45.4277811" lon="10.5393129"><ele>112.0</ele><time>2026-03-29T10:30:06.707Z</time></trkpt><trkpt lat="45.4278824" lon="10.5394942"><ele>112.0</ele><time>2026-03-29T10:30:07.707Z</time></trkpt><trkpt lat="45.4279899" lon="10.5396855"><ele>112.0</ele><time>2026-03-29T10:30:08.707Z</time></trkpt><trkpt lat="45.4280966" lon="10.5398716"><ele>111.0</ele><time>2026-03-29T10:30:09.707Z</time></trkpt><trkpt lat="45.4281985" lon="10.5400384"><ele>110.0</ele><time>2026-03-29T10:30:10.707Z</time></trkpt><trkpt lat="45.4282924" lon="10.5401984"><ele>109.0</ele><time>2026-03-29T10:30:11.707Z</time></trkpt><trkpt lat="45.428384" lon="10.5403635"><ele>108.0</ele><time>2026-03-29T10:30:12.707Z</time></trkpt><trkpt lat="45.4284767" lon="10.540534"><ele>106.66666666666666</ele><time>2026-03-29T10:30:13.707Z</time></trkpt><trkpt lat="45.4285701" lon="10.5407043"><ele>105.33333333333333</ele><time>2026-03-29T10:30:14.707Z</time></trkpt><trkpt lat="45.4286651" lon="10.5408809"><ele>104.0</ele><time>2026-03-29T10:30:15.707Z</time></trkpt><trkpt lat="45.4287649" lon="10.5410545"><ele>105.0</ele><time>2026-03-29T10:30:16.707Z</time></trkpt><trkpt lat="45.428869" lon="10.5412273"><ele>106.0</ele><time>2026-03-29T10:30:17.707Z</time></trkpt><trkpt lat="45.4289731" lon="10.5414057"><ele>107.0</ele><time>2026-03-29T10:30:18.707Z</time></trkpt><trkpt lat="45.429078" lon="10.5415922"><ele>107.0</ele><time>2026-03-29T10:30:19.707Z</time></trkpt><trkpt lat="45.429182" lon="10.541782"><ele>107.0</ele><time>2026-03-29T10:30:20.707Z</time></trkpt><trkpt lat="45.4292851" lon="10.5419712"><ele>107.0</ele><time>2026-03-29T10:30:21.707Z</time></trkpt><trkpt lat="45.4293803" lon="10.5421422"><ele>106.75</ele><time>2026-03-29T10:30:22.707Z</time></trkpt><trkpt lat="45.4294724" lon="10.5423015"><ele>106.5</ele><time>2026-03-29T10:30:23.707Z</time></trkpt><trkpt lat="45.4295568" lon="10.5424494"><ele>106.25</ele><time>2026-03-29T10:30:24.707Z</time></trkpt><trkpt lat="45.4296352" lon="10.5425914"><ele>106.0</ele><time>2026-03-29T10:30:25.707Z</time></trkpt><trkpt lat="45.4297086" lon="10.5427251"><ele>106.0</ele><time>2026-03-29T10:30:26.707Z</time></trkpt><trkpt lat="45.4297791" lon="10.5428509"><ele>106.0</ele><time>2026-03-29T10:30:27.707Z</time></trkpt><trkpt lat="45.4298457" lon="10.5429683"><ele>106.0</ele><time>2026-03-29T10:30:28.707Z</time></trkpt><trkpt lat="45.4299086" lon="10.5430789"><ele>106.0</ele><time>2026-03-29T10:30:29.707Z</time></trkpt><trkpt lat="45.4299656" lon="10.543185"><ele>106.0</ele><time>2026-03-29T10:30:30.707Z</time></trkpt><trkpt lat="45.4300173" lon="10.5432782"><ele>105.83333333333334</ele><time>2026-03-29T10:30:31.707Z</time></trkpt><trkpt lat="45.4300583" lon="10.5433522"><ele>105.66666666666667</ele><time>2026-03-29T10:30:32.707Z</time></trkpt><trkpt lat="45.4301059" lon="10.5434497"><ele>105.5</ele><time>2026-03-29T10:30:34.707Z</time></trkpt><trkpt lat="45.4301737" lon="10.5436107"><ele>105.33333333333334</ele><time>2026-03-29T10:30:52.707Z</time></trkpt><trkpt lat="45.4302178" lon="10.5436896"><ele>105.16666666666667</ele><time>2026-03-29T10:30:53.707Z</time></trkpt><trkpt lat="45.430278" lon="10.5437896"><ele>105.0</ele><time>2026-03-29T10:30:54.707Z</time></trkpt><trkpt lat="45.4303436" lon="10.5439119"><ele>105.0</ele><time>2026-03-29T10:30:55.707Z</time></trkpt><trkpt lat="45.4304182" lon="10.544052"><ele>105.0</ele><time>2026-03-29T10:30:56.707Z</time></trkpt><trkpt lat="45.4304974" lon="10.5442053"><ele>105.0</ele><time>2026-03-29T10:30:57.707Z</time></trkpt><trkpt lat="45.4305853" lon="10.5443657"><ele>105.0</ele><time>2026-03-29T10:30:58.707Z</time></trkpt><trkpt lat="45.4306766" lon="10.5445375"><ele>105.0</ele><time>2026-03-29T10:30:59.707Z</time></trkpt><trkpt lat="45.4307687" lon="10.5447264"><ele>105.0</ele><time>2026-03-29T10:31:00.708Z</time></trkpt><trkpt lat="45.4308569" lon="10.5449281"><ele>105.0</ele><time>2026-03-29T10:31:01.707Z</time></trkpt><trkpt lat="45.4309367" lon="10.5451307"><ele>105.0</ele><time>2026-03-29T10:31:02.707Z</time></trkpt><trkpt lat="45.431008" lon="10.5453249"><ele>105.0</ele><time>2026-03-29T10:31:03.707Z</time></trkpt><trkpt lat="45.4310808" lon="10.5455182"><ele>105.0</ele><time>2026-03-29T10:31:04.707Z</time></trkpt><trkpt lat="45.4311484" lon="10.5456993"><ele>105.0</ele><time>2026-03-29T10:31:05.707Z</time></trkpt><trkpt lat="45.4312117" lon="10.5458678"><ele>105.0</ele><time>2026-03-29T10:31:06.707Z</time></trkpt><trkpt lat="45.4312697" lon="10.5460262"><ele>105.0</ele><time>2026-03-29T10:31:07.707Z</time></trkpt><trkpt lat="45.4313182" lon="10.5461768"><ele>105.0</ele><time>2026-03-29T10:31:08.707Z</time></trkpt><trkpt lat="45.4313305" lon="10.5463134"><ele>105.16666666666667</ele><time>2026-03-29T10:31:09.708Z</time></trkpt><trkpt lat="45.4312902" lon="10.5464107"><ele>105.33333333333334</ele><time>2026-03-29T10:31:10.707Z</time></trkpt><trkpt lat="45.431268" lon="10.5465082"><ele>105.5</ele><time>2026-03-29T10:31:11.707Z</time></trkpt><trkpt lat="45.4312867" lon="10.5466066"><ele>105.66666666666667</ele><time>2026-03-29T10:31:12.707Z</time></trkpt><trkpt lat="45.4313327" lon="10.5467166"><ele>105.83333333333334</ele><time>2026-03-29T10:31:13.707Z</time></trkpt><trkpt lat="45.4314007" lon="10.5468394"><ele>106.0</ele><time>2026-03-29T10:31:14.707Z</time></trkpt><trkpt lat="45.4314807" lon="10.5469724"><ele>106.66666666666667</ele><time>2026-03-29T10:31:15.707Z</time></trkpt><trkpt lat="45.4315748" lon="10.5471266"><ele>107.33333333333334</ele><time>2026-03-29T10:31:16.707Z</time></trkpt><trkpt lat="45.4316737" lon="10.5472953"><ele>108.0</ele><time>2026-03-29T10:31:17.707Z</time></trkpt><trkpt lat="45.4317862" lon="10.5474601"><ele>108.0</ele><time>2026-03-29T10:31:18.707Z</time></trkpt><trkpt lat="45.4319127" lon="10.547622"><ele>108.0</ele><time>2026-03-29T10:31:19.707Z</time></trkpt><trkpt lat="45.4320451" lon="10.547783"><ele>108.0</ele><time>2026-03-29T10:31:20.707Z</time></trkpt><trkpt lat="45.4321767" lon="10.5479514"><ele>108.33333333333334</ele><time>2026-03-29T10:31:21.707Z</time></trkpt><trkpt lat="45.4323053" lon="10.5481276"><ele>108.66666666666667</ele><time>2026-03-29T10:31:22.707Z</time></trkpt><trkpt lat="45.4324283" lon="10.5482968"><ele>109.0</ele><time>2026-03-29T10:31:23.707Z</time></trkpt><trkpt lat="45.4325458" lon="10.5484659"><ele>109.0</ele><time>2026-03-29T10:31:24.708Z</time></trkpt><trkpt lat="45.4326639" lon="10.5486298"><ele>109.0</ele><time>2026-03-29T10:31:25.707Z</time></trkpt><trkpt lat="45.4327929" lon="10.5487678"><ele>109.0</ele><time>2026-03-29T10:31:26.707Z</time></trkpt><trkpt lat="45.4329339" lon="10.5488591"><ele>109.2</ele><time>2026-03-29T10:31:27.707Z</time></trkpt><trkpt lat="45.4330518" lon="10.5489345"><ele>109.4</ele><time>2026-03-29T10:31:28.707Z</time></trkpt><trkpt lat="45.4331383" lon="10.5490179"><ele>109.6</ele><time>2026-03-29T10:31:29.707Z</time></trkpt><trkpt lat="45.4331892" lon="10.549115"><ele>109.8</ele><time>2026-03-29T10:31:30.707Z</time></trkpt><trkpt lat="45.4332061" lon="10.5492318"><ele>110.0</ele><time>2026-03-29T10:31:31.707Z</time></trkpt><trkpt lat="45.4332434" lon="10.5493232"><ele>110.0</ele><time>2026-03-29T10:31:32.707Z</time></trkpt><trkpt lat="45.4333026" lon="10.5493647"><ele>110.0</ele><time>2026-03-29T10:31:33.707Z</time></trkpt><trkpt lat="45.4333741" lon="10.549358"><ele>110.0</ele><time>2026-03-29T10:31:34.707Z</time></trkpt><trkpt lat="45.4334608" lon="10.5493043"><ele>110.0</ele><time>2026-03-29T10:31:35.707Z</time></trkpt><trkpt lat="45.4335806" lon="10.5492274"><ele>110.0</ele><time>2026-03-29T10:31:36.707Z</time></trkpt><trkpt lat="45.4337422" lon="10.549138"><ele>111.0</ele><time>2026-03-29T10:31:37.707Z</time></trkpt><trkpt lat="45.4339063" lon="10.5490339"><ele>112.0</ele><time>2026-03-29T10:31:38.707Z</time></trkpt><trkpt lat="45.4340648" lon="10.5488994"><ele>113.0</ele><time>2026-03-29T10:31:39.707Z</time></trkpt><trkpt lat="45.4342247" lon="10.5487554"><ele>112.33333333333333</ele><time>2026-03-29T10:31:40.707Z</time></trkpt><trkpt lat="45.4343782" lon="10.5486136"><ele>111.66666666666666</ele><time>2026-03-29T10:31:41.707Z</time></trkpt><trkpt lat="45.4345166" lon="10.548469"><ele>111.0</ele><time>2026-03-29T10:31:42.707Z</time></trkpt><trkpt lat="45.4346405" lon="10.5483241"><ele>111.0</ele><time>2026-03-29T10:31:43.707Z</time></trkpt><trkpt lat="45.4347487" lon="10.548182"><ele>111.0</ele><time>2026-03-29T10:31:44.707Z</time></trkpt><trkpt lat="45.434849" lon="10.5480531"><ele>111.0</ele><time>2026-03-29T10:31:45.707Z</time></trkpt><trkpt lat="45.4349537" lon="10.5479472"><ele>111.0</ele><time>2026-03-29T10:31:46.707Z</time></trkpt><trkpt lat="45.4350523" lon="10.5478711"><ele>110.66666666666667</ele><time>2026-03-29T10:31:47.707Z</time></trkpt><trkpt lat="45.4351378" lon="10.5478118"><ele>110.33333333333334</ele><time>2026-03-29T10:31:48.707Z</time></trkpt><trkpt lat="45.4352244" lon="10.547759"><ele>110.0</ele><time>2026-03-29T10:31:49.707Z</time></trkpt><trkpt lat="45.4353029" lon="10.5477233"><ele>109.66666666666667</ele><time>2026-03-29T10:31:50.707Z</time></trkpt><trkpt lat="45.4353754" lon="10.5477106"><ele>109.33333333333334</ele><time>2026-03-29T10:31:51.707Z</time></trkpt><trkpt lat="45.4354573" lon="10.547693"><ele>109.0</ele><time>2026-03-29T10:31:53.707Z</time></trkpt><trkpt lat="45.4353976" lon="10.5476243"><ele>109.00000000000001</ele><time>2026-03-29T10:32:01.707Z</time></trkpt><trkpt lat="45.4353275" lon="10.5476566"><ele>109.0</ele><time>2026-03-29T10:32:02.707Z</time></trkpt><trkpt lat="45.435246" lon="10.547699"><ele>109.0</ele><time>2026-03-29T10:32:03.707Z</time></trkpt><trkpt lat="45.4351748" lon="10.5477386"><ele>109.0</ele><time>2026-03-29T10:32:04.707Z</time></trkpt><trkpt lat="45.4350714" lon="10.5477774"><ele>109.00000000000001</ele><time>2026-03-29T10:32:06.707Z</time></trkpt><trkpt lat="45.4350645" lon="10.5476851"><ele>109.0</ele><time>2026-03-29T10:32:08.707Z</time></trkpt><trkpt lat="45.4351291" lon="10.5474919"><ele>109.0</ele><time>2026-03-29T10:32:10.707Z</time></trkpt><trkpt lat="45.4351829" lon="10.5473426"><ele>109.0</ele><time>2026-03-29T10:32:11.707Z</time></trkpt><trkpt lat="45.4352438" lon="10.5471881"><ele>109.0</ele><time>2026-03-29T10:32:12.707Z</time></trkpt><trkpt lat="45.435321" lon="10.5470056"><ele>109.0</ele><time>2026-03-29T10:32:13.707Z</time></trkpt><trkpt lat="45.4354145" lon="10.546822"><ele>108.33333333333334</ele><time>2026-03-29T10:32:14.707Z</time></trkpt><trkpt lat="45.4355221" lon="10.546638"><ele>107.66666666666666</ele><time>2026-03-29T10:32:15.707Z</time></trkpt><trkpt lat="45.4356417" lon="10.5464458"><ele>107.0</ele><time>2026-03-29T10:32:16.707Z</time></trkpt><trkpt lat="45.4357716" lon="10.5462484"><ele>107.0</ele><time>2026-03-29T10:32:17.707Z</time></trkpt><trkpt lat="45.4359162" lon="10.5460331"><ele>107.0</ele><time>2026-03-29T10:32:18.707Z</time></trkpt><trkpt lat="45.4360561" lon="10.5458238"><ele>107.0</ele><time>2026-03-29T10:32:19.707Z</time></trkpt><trkpt lat="45.4361896" lon="10.5456281"><ele>107.0</ele><time>2026-03-29T10:32:20.707Z</time></trkpt><trkpt lat="45.4363248" lon="10.5454316"><ele>107.0</ele><time>2026-03-29T10:32:21.707Z</time></trkpt><trkpt lat="45.4364653" lon="10.5452287"><ele>107.0</ele><time>2026-03-29T10:32:22.707Z</time></trkpt><trkpt lat="45.4365975" lon="10.5450415"><ele>107.0</ele><time>2026-03-29T10:32:23.707Z</time></trkpt><trkpt lat="45.4367289" lon="10.5448537"><ele>107.0</ele><time>2026-03-29T10:32:24.707Z</time></trkpt><trkpt lat="45.4368598" lon="10.5446596"><ele>107.0</ele><time>2026-03-29T10:32:25.707Z</time></trkpt><trkpt lat="45.4369924" lon="10.544465"><ele>106.33333333333333</ele><time>2026-03-29T10:32:26.707Z</time></trkpt><trkpt lat="45.4371245" lon="10.5442699"><ele>105.66666666666666</ele><time>2026-03-29T10:32:27.707Z</time></trkpt><trkpt lat="45.4372482" lon="10.5440693"><ele>105.0</ele><time>2026-03-29T10:32:28.707Z</time></trkpt><trkpt lat="45.437359" lon="10.5438636"><ele>105.66666666666666</ele><time>2026-03-29T10:32:29.707Z</time></trkpt><trkpt lat="45.4374662" lon="10.5436584"><ele>106.33333333333333</ele><time>2026-03-29T10:32:30.707Z</time></trkpt><trkpt lat="45.4375594" lon="10.5434762"><ele>107.0</ele><time>2026-03-29T10:32:31.707Z</time></trkpt><trkpt lat="45.4376426" lon="10.5433083"><ele>107.0</ele><time>2026-03-29T10:32:32.707Z</time></trkpt><trkpt lat="45.4377323" lon="10.5431367"><ele>107.0</ele><time>2026-03-29T10:32:33.707Z</time></trkpt><trkpt lat="45.4378265" lon="10.5429606"><ele>107.0</ele><time>2026-03-29T10:32:34.707Z</time></trkpt><trkpt lat="45.4379207" lon="10.542776"><ele>107.0</ele><time>2026-03-29T10:32:35.707Z</time></trkpt><trkpt lat="45.4380168" lon="10.5425848"><ele>107.0</ele><time>2026-03-29T10:32:36.707Z</time></trkpt><trkpt lat="45.4381227" lon="10.5423774"><ele>107.0</ele><time>2026-03-29T10:32:37.707Z</time></trkpt><trkpt lat="45.4382295" lon="10.542161"><ele>106.66666666666666</ele><time>2026-03-29T10:32:38.707Z</time></trkpt><trkpt lat="45.4383407" lon="10.5419451"><ele>106.33333333333334</ele><time>2026-03-29T10:32:39.707Z</time></trkpt><trkpt lat="45.4384522" lon="10.5417411"><ele>106.0</ele><time>2026-03-29T10:32:40.707Z</time></trkpt><trkpt lat="45.4385696" lon="10.5415344"><ele>106.0</ele><time>2026-03-29T10:32:41.707Z</time></trkpt><trkpt lat="45.4386919" lon="10.5413278"><ele>106.0</ele><time>2026-03-29T10:32:42.707Z</time></trkpt><trkpt lat="45.4388131" lon="10.5411282"><ele>106.0</ele><time>2026-03-29T10:32:43.707Z</time></trkpt><trkpt lat="45.4389324" lon="10.540943"><ele>106.33333333333334</ele><time>2026-03-29T10:32:44.707Z</time></trkpt><trkpt lat="45.4390545" lon="10.5407514"><ele>106.66666666666666</ele><time>2026-03-29T10:32:45.707Z</time></trkpt><trkpt lat="45.4391712" lon="10.5405519"><ele>107.0</ele><time>2026-03-29T10:32:46.707Z</time></trkpt><trkpt lat="45.4392813" lon="10.5403453"><ele>107.0</ele><time>2026-03-29T10:32:47.707Z</time></trkpt><trkpt lat="45.4393783" lon="10.540142"><ele>107.0</ele><time>2026-03-29T10:32:48.707Z</time></trkpt><trkpt lat="45.4394564" lon="10.5399518"><ele>107.0</ele><time>2026-03-29T10:32:49.707Z</time></trkpt><trkpt lat="45.439517" lon="10.5397716"><ele>107.0</ele><time>2026-03-29T10:32:50.707Z</time></trkpt><trkpt lat="45.4395682" lon="10.5395978"><ele>107.0</ele><time>2026-03-29T10:32:51.707Z</time></trkpt><trkpt lat="45.4396164" lon="10.5394231"><ele>107.0</ele><time>2026-03-29T10:32:52.707Z</time></trkpt><trkpt lat="45.4396691" lon="10.5392409"><ele>107.0</ele><time>2026-03-29T10:32:53.707Z</time></trkpt><trkpt lat="45.4397343" lon="10.5390447"><ele>106.66666666666666</ele><time>2026-03-29T10:32:54.707Z</time></trkpt><trkpt lat="45.4398108" lon="10.5388374"><ele>106.33333333333334</ele><time>2026-03-29T10:32:55.708Z</time></trkpt><trkpt lat="45.4398892" lon="10.5386265"><ele>106.0</ele><time>2026-03-29T10:32:56.707Z</time></trkpt><trkpt lat="45.4399622" lon="10.5384354"><ele>106.0</ele><time>2026-03-29T10:32:57.707Z</time></trkpt><trkpt lat="45.4400418" lon="10.538231"><ele>106.0</ele><time>2026-03-29T10:32:58.707Z</time></trkpt><trkpt lat="45.4401264" lon="10.538023"><ele>106.0</ele><time>2026-03-29T10:32:59.707Z</time></trkpt><trkpt lat="45.4402197" lon="10.5378062"><ele>106.0</ele><time>2026-03-29T10:33:00.707Z</time></trkpt><trkpt lat="45.4403232" lon="10.5375872"><ele>106.0</ele><time>2026-03-29T10:33:01.707Z</time></trkpt><trkpt lat="45.4404308" lon="10.537364"><ele>106.0</ele><time>2026-03-29T10:33:02.707Z</time></trkpt><trkpt lat="45.4405418" lon="10.5371346"><ele>106.66666666666667</ele><time>2026-03-29T10:33:03.707Z</time></trkpt><trkpt lat="45.4406555" lon="10.536902"><ele>107.33333333333334</ele><time>2026-03-29T10:33:04.707Z</time></trkpt><trkpt lat="45.4407727" lon="10.5366711"><ele>108.0</ele><time>2026-03-29T10:33:05.707Z</time></trkpt><trkpt lat="45.4408863" lon="10.536446"><ele>108.0</ele><time>2026-03-29T10:33:06.707Z</time></trkpt><trkpt lat="45.4409946" lon="10.5362294"><ele>108.0</ele><time>2026-03-29T10:33:07.707Z</time></trkpt><trkpt lat="45.4411016" lon="10.5360157"><ele>108.0</ele><time>2026-03-29T10:33:08.707Z</time></trkpt><trkpt lat="45.4412062" lon="10.5358107"><ele>108.0</ele><time>2026-03-29T10:33:09.707Z</time></trkpt><trkpt lat="45.4413089" lon="10.5356147"><ele>108.0</ele><time>2026-03-29T10:33:10.707Z</time></trkpt><trkpt lat="45.4414143" lon="10.5354122"><ele>108.0</ele><time>2026-03-29T10:33:11.707Z</time></trkpt><trkpt lat="45.4415199" lon="10.5352109"><ele>108.0</ele><time>2026-03-29T10:33:12.707Z</time></trkpt><trkpt lat="45.4416244" lon="10.5350103"><ele>108.0</ele><time>2026-03-29T10:33:13.707Z</time></trkpt><trkpt lat="45.4417219" lon="10.5348183"><ele>108.0</ele><time>2026-03-29T10:33:14.708Z</time></trkpt><trkpt lat="45.4417992" lon="10.5346696"><ele>108.2</ele><time>2026-03-29T10:33:15.707Z</time></trkpt><trkpt lat="45.4418625" lon="10.5345436"><ele>108.4</ele><time>2026-03-29T10:33:16.707Z</time></trkpt><trkpt lat="45.4419126" lon="10.5344348"><ele>108.60000000000001</ele><time>2026-03-29T10:33:17.707Z</time></trkpt><trkpt lat="45.4419444" lon="10.5343288"><ele>108.80000000000001</ele><time>2026-03-29T10:33:18.707Z</time></trkpt><trkpt lat="45.4419497" lon="10.5342351"><ele>109.0</ele><time>2026-03-29T10:33:19.707Z</time></trkpt><trkpt lat="45.4418941" lon="10.5340769"><ele>109.0</ele><time>2026-03-29T10:33:21.707Z</time></trkpt><trkpt lat="45.4418367" lon="10.5339879"><ele>109.0</ele><time>2026-03-29T10:33:22.707Z</time></trkpt><trkpt lat="45.4417556" lon="10.5338792"><ele>109.0</ele><time>2026-03-29T10:33:23.707Z</time></trkpt><trkpt lat="45.441652" lon="10.5337581"><ele>109.0</ele><time>2026-03-29T10:33:24.707Z</time></trkpt><trkpt lat="45.4415223" lon="10.5336173"><ele>109.66666666666667</ele><time>2026-03-29T10:33:25.707Z</time></trkpt><trkpt lat="45.4413707" lon="10.5334585"><ele>110.33333333333334</ele><time>2026-03-29T10:33:26.707Z</time></trkpt><trkpt lat="45.4412132" lon="10.5332834"><ele>111.0</ele><time>2026-03-29T10:33:27.707Z</time></trkpt><trkpt lat="45.4410729" lon="10.5331238"><ele>110.5</ele><time>2026-03-29T10:33:28.707Z</time></trkpt><trkpt lat="45.4409401" lon="10.5329745"><ele>110.0</ele><time>2026-03-29T10:33:29.707Z</time></trkpt><trkpt lat="45.440824" lon="10.532841"><ele>109.5</ele><time>2026-03-29T10:33:30.707Z</time></trkpt><trkpt lat="45.4407256" lon="10.5327282"><ele>109.0</ele><time>2026-03-29T10:33:31.707Z</time></trkpt><trkpt lat="45.4406365" lon="10.5326292"><ele>109.00000000000001</ele><time>2026-03-29T10:33:32.707Z</time></trkpt><trkpt lat="45.4405577" lon="10.5325421"><ele>109.0</ele><time>2026-03-29T10:33:33.707Z</time></trkpt><trkpt lat="45.4404812" lon="10.5324628"><ele>109.0</ele><time>2026-03-29T10:33:34.707Z</time></trkpt><trkpt lat="45.4404147" lon="10.5323934"><ele>109.0</ele><time>2026-03-29T10:33:35.707Z</time></trkpt><trkpt lat="45.4403533" lon="10.5323414"><ele>109.00000000000001</ele><time>2026-03-29T10:33:36.707Z</time></trkpt><trkpt lat="45.440289" lon="10.5322966"><ele>109.0</ele><time>2026-03-29T10:33:37.707Z</time></trkpt><trkpt lat="45.440215" lon="10.5322756"><ele>108.75</ele><time>2026-03-29T10:33:38.707Z</time></trkpt><trkpt lat="45.4401253" lon="10.5322753"><ele>108.5</ele><time>2026-03-29T10:33:39.707Z</time></trkpt><trkpt lat="45.4400113" lon="10.532295"><ele>108.25</ele><time>2026-03-29T10:33:40.707Z</time></trkpt><trkpt lat="45.4398562" lon="10.5323316"><ele>108.0</ele><time>2026-03-29T10:33:41.707Z</time></trkpt><trkpt lat="45.4396822" lon="10.5323718"><ele>108.66666666666666</ele><time>2026-03-29T10:33:42.707Z</time></trkpt><trkpt lat="45.4395013" lon="10.5324117"><ele>109.33333333333333</ele><time>2026-03-29T10:33:43.707Z</time></trkpt><trkpt lat="45.4393106" lon="10.5324542"><ele>110.0</ele><time>2026-03-29T10:33:44.708Z</time></trkpt><trkpt lat="45.4391159" lon="10.5325003"><ele>110.0</ele><time>2026-03-29T10:33:45.707Z</time></trkpt><trkpt lat="45.4389242" lon="10.532548"><ele>110.0</ele><time>2026-03-29T10:33:46.707Z</time></trkpt><trkpt lat="45.4387334" lon="10.5325927"><ele>110.0</ele><time>2026-03-29T10:33:47.707Z</time></trkpt><trkpt lat="45.4385453" lon="10.5326324"><ele>110.0</ele><time>2026-03-29T10:33:48.707Z</time></trkpt><trkpt lat="45.438359" lon="10.5326724"><ele>110.0</ele><time>2026-03-29T10:33:49.707Z</time></trkpt><trkpt lat="45.4381767" lon="10.5327124"><ele>110.0</ele><time>2026-03-29T10:33:50.707Z</time></trkpt><trkpt lat="45.4379762" lon="10.5327615"><ele>109.33333333333333</ele><time>2026-03-29T10:33:51.707Z</time></trkpt><trkpt lat="45.4377679" lon="10.5328186"><ele>108.66666666666666</ele><time>2026-03-29T10:33:52.707Z</time></trkpt><trkpt lat="45.4375777" lon="10.5328744"><ele>108.0</ele><time>2026-03-29T10:33:53.707Z</time></trkpt><trkpt lat="45.4373948" lon="10.5329174"><ele>107.66666666666666</ele><time>2026-03-29T10:33:54.707Z</time></trkpt><trkpt lat="45.4372108" lon="10.5329557"><ele>107.33333333333333</ele><time>2026-03-29T10:33:55.707Z</time></trkpt><trkpt lat="45.4370087" lon="10.5330038"><ele>107.0</ele><time>2026-03-29T10:33:56.707Z</time></trkpt><trkpt lat="45.4368049" lon="10.5330592"><ele>107.0</ele><time>2026-03-29T10:33:57.707Z</time></trkpt><trkpt lat="45.4366182" lon="10.5331065"><ele>107.0</ele><time>2026-03-29T10:33:58.707Z</time></trkpt><trkpt lat="45.4364534" lon="10.5331475"><ele>107.0</ele><time>2026-03-29T10:33:59.707Z</time></trkpt><trkpt lat="45.4363159" lon="10.5331842"><ele>107.16666666666666</ele><time>2026-03-29T10:34:00.707Z</time></trkpt><trkpt lat="45.4362029" lon="10.5332195"><ele>107.33333333333333</ele><time>2026-03-29T10:34:01.707Z</time></trkpt><trkpt lat="45.4361155" lon="10.53325"><ele>107.5</ele><time>2026-03-29T10:34:02.707Z</time></trkpt><trkpt lat="45.4360465" lon="10.5332686"><ele>107.66666666666666</ele><time>2026-03-29T10:34:03.707Z</time></trkpt><trkpt lat="45.435963" lon="10.5332264"><ele>107.83333333333333</ele><time>2026-03-29T10:34:05.707Z</time></trkpt><trkpt lat="45.435946" lon="10.5331268"><ele>108.0</ele><time>2026-03-29T10:34:07.707Z</time></trkpt><trkpt lat="45.4359567" lon="10.5330201"><ele>107.75</ele><time>2026-03-29T10:34:08.707Z</time></trkpt><trkpt lat="45.4360042" lon="10.5328805"><ele>107.5</ele><time>2026-03-29T10:34:09.707Z</time></trkpt><trkpt lat="45.4360667" lon="10.5327021"><ele>107.25</ele><time>2026-03-29T10:34:10.707Z</time></trkpt><trkpt lat="45.4361473" lon="10.5324699"><ele>107.0</ele><time>2026-03-29T10:34:11.707Z</time></trkpt><trkpt lat="45.4362337" lon="10.5322048"><ele>106.0</ele><time>2026-03-29T10:34:12.707Z</time></trkpt><trkpt lat="45.436333" lon="10.5319072"><ele>105.0</ele><time>2026-03-29T10:34:13.708Z</time></trkpt><trkpt lat="45.4364523" lon="10.5315611"><ele>108.5</ele><time>2026-03-29T10:34:14.707Z</time></trkpt><trkpt lat="45.4365747" lon="10.531198"><ele>112.0</ele><time>2026-03-29T10:34:15.707Z</time></trkpt><trkpt lat="45.436687" lon="10.530879"><ele>112.0</ele><time>2026-03-29T10:34:16.707Z</time></trkpt><trkpt lat="45.4367891" lon="10.5305947"><ele>112.0</ele><time>2026-03-29T10:34:17.707Z</time></trkpt><trkpt lat="45.4368837" lon="10.5303393"><ele>112.0</ele><time>2026-03-29T10:34:18.707Z</time></trkpt><trkpt lat="45.4369635" lon="10.5301103"><ele>113.0</ele><time>2026-03-29T10:34:19.707Z</time></trkpt><trkpt lat="45.4370177" lon="10.5298954"><ele>114.0</ele><time>2026-03-29T10:34:20.707Z</time></trkpt><trkpt lat="45.4370419" lon="10.5296787"><ele>115.0</ele><time>2026-03-29T10:34:21.708Z</time></trkpt><trkpt lat="45.4370269" lon="10.5294647"><ele>117.5</ele><time>2026-03-29T10:34:22.707Z</time></trkpt><trkpt lat="45.4369831" lon="10.5292544"><ele>120.0</ele><time>2026-03-29T10:34:23.707Z</time></trkpt><trkpt lat="45.4369323" lon="10.5290584"><ele>122.5</ele><time>2026-03-29T10:34:24.707Z</time></trkpt><trkpt lat="45.4368829" lon="10.5288851"><ele>125.0</ele><time>2026-03-29T10:34:25.707Z</time></trkpt><trkpt lat="45.4368339" lon="10.5287295"><ele>127.0</ele><time>2026-03-29T10:34:26.707Z</time></trkpt><trkpt lat="45.436787" lon="10.5285741"><ele>129.0</ele><time>2026-03-29T10:34:27.707Z</time></trkpt><trkpt lat="45.436746" lon="10.5284209"><ele>131.0</ele><time>2026-03-29T10:34:28.707Z</time></trkpt><trkpt lat="45.4367124" lon="10.528268"><ele>133.0</ele><time>2026-03-29T10:34:29.707Z</time></trkpt><trkpt lat="45.4366858" lon="10.5281191"><ele>133.0</ele><time>2026-03-29T10:34:30.707Z</time></trkpt><trkpt lat="45.4366744" lon="10.5279766"><ele>133.0</ele><time>2026-03-29T10:34:31.707Z</time></trkpt><trkpt lat="45.4366807" lon="10.5278521"><ele>133.0</ele><time>2026-03-29T10:34:32.707Z</time></trkpt><trkpt lat="45.4367031" lon="10.5277279"><ele>133.0</ele><time>2026-03-29T10:34:33.707Z</time></trkpt><trkpt lat="45.4367291" lon="10.5276001"><ele>133.0</ele><time>2026-03-29T10:34:34.707Z</time></trkpt><trkpt lat="45.4367545" lon="10.5274818"><ele>133.8</ele><time>2026-03-29T10:34:35.707Z</time></trkpt><trkpt lat="45.4367745" lon="10.5273617"><ele>134.60000000000002</ele><time>2026-03-29T10:34:36.707Z</time></trkpt><trkpt lat="45.4367886" lon="10.527231"><ele>135.39999999999998</ele><time>2026-03-29T10:34:37.707Z</time></trkpt><trkpt lat="45.4367991" lon="10.5270949"><ele>136.2</ele><time>2026-03-29T10:34:38.707Z</time></trkpt><trkpt lat="45.4368171" lon="10.5269471"><ele>137.0</ele><time>2026-03-29T10:34:39.707Z</time></trkpt><trkpt lat="45.4368403" lon="10.526788"><ele>137.25</ele><time>2026-03-29T10:34:40.707Z</time></trkpt><trkpt lat="45.4368663" lon="10.5266249"><ele>137.5</ele><time>2026-03-29T10:34:41.707Z</time></trkpt><trkpt lat="45.4368923" lon="10.5264573"><ele>137.75</ele><time>2026-03-29T10:34:42.707Z</time></trkpt><trkpt lat="45.4369213" lon="10.5262835"><ele>138.0</ele><time>2026-03-29T10:34:43.707Z</time></trkpt><trkpt lat="45.4369487" lon="10.5261103"><ele>138.25</ele><time>2026-03-29T10:34:44.707Z</time></trkpt><trkpt lat="45.4369765" lon="10.5259422"><ele>138.5</ele><time>2026-03-29T10:34:45.707Z</time></trkpt><trkpt lat="45.4370067" lon="10.5257664"><ele>138.75</ele><time>2026-03-29T10:34:46.707Z</time></trkpt><trkpt lat="45.4370379" lon="10.5255806"><ele>139.0</ele><time>2026-03-29T10:34:47.707Z</time></trkpt><trkpt lat="45.4370688" lon="10.5253861"><ele>139.0</ele><time>2026-03-29T10:34:48.707Z</time></trkpt><trkpt lat="45.4370975" lon="10.525178"><ele>139.0</ele><time>2026-03-29T10:34:49.707Z</time></trkpt><trkpt lat="45.437119" lon="10.5249353"><ele>139.0</ele><time>2026-03-29T10:34:50.707Z</time></trkpt><trkpt lat="45.4371466" lon="10.5246362"><ele>138.5</ele><time>2026-03-29T10:34:51.707Z</time></trkpt><trkpt lat="45.4371899" lon="10.5243003"><ele>138.0</ele><time>2026-03-29T10:34:52.707Z</time></trkpt><trkpt lat="45.4372229" lon="10.5239359"><ele>133.0</ele><time>2026-03-29T10:34:53.707Z</time></trkpt><trkpt lat="45.4372399" lon="10.5235325"><ele>128.0</ele><time>2026-03-29T10:34:54.707Z</time></trkpt><trkpt lat="45.4372559" lon="10.5230976"><ele>126.0</ele><time>2026-03-29T10:34:55.707Z</time></trkpt><trkpt lat="45.4372725" lon="10.5226548"><ele>124.0</ele><time>2026-03-29T10:34:56.707Z</time></trkpt><trkpt lat="45.4372861" lon="10.5222146"><ele>124.0</ele><time>2026-03-29T10:34:57.707Z</time></trkpt><trkpt lat="45.4372967" lon="10.5218046"><ele>124.0</ele><time>2026-03-29T10:34:58.707Z</time></trkpt><trkpt lat="45.4373058" lon="10.5214121"><ele>122.0</ele><time>2026-03-29T10:34:59.707Z</time></trkpt><trkpt lat="45.4373141" lon="10.521053"><ele>120.0</ele><time>2026-03-29T10:35:00.707Z</time></trkpt><trkpt lat="45.4373179" lon="10.5207162"><ele>120.0</ele><time>2026-03-29T10:35:01.707Z</time></trkpt><trkpt lat="45.4373238" lon="10.5203983"><ele>120.0</ele><time>2026-03-29T10:35:02.707Z</time></trkpt><trkpt lat="45.4373311" lon="10.5200771"><ele>120.0</ele><time>2026-03-29T10:35:03.707Z</time></trkpt><trkpt lat="45.4373381" lon="10.5197775"><ele>121.0</ele><time>2026-03-29T10:35:04.707Z</time></trkpt><trkpt lat="45.437346" lon="10.5195026"><ele>122.0</ele><time>2026-03-29T10:35:05.707Z</time></trkpt><trkpt lat="45.4373493" lon="10.5192434"><ele>123.0</ele><time>2026-03-29T10:35:06.707Z</time></trkpt><trkpt lat="45.4373519" lon="10.5190089"><ele>123.0</ele><time>2026-03-29T10:35:07.707Z</time></trkpt><trkpt lat="45.437356" lon="10.5188275"><ele>123.00000000000001</ele><time>2026-03-29T10:35:08.707Z</time></trkpt><trkpt lat="45.4373657" lon="10.5186894"><ele>123.00000000000001</ele><time>2026-03-29T10:35:09.707Z</time></trkpt><trkpt lat="45.4373941" lon="10.518603"><ele>123.0</ele><time>2026-03-29T10:35:10.708Z</time></trkpt><trkpt lat="45.4375203" lon="10.5185346"><ele>123.0</ele><time>2026-03-29T10:35:12.707Z</time></trkpt><trkpt lat="45.437636" lon="10.5185403"><ele>123.33333333333334</ele><time>2026-03-29T10:35:13.707Z</time></trkpt><trkpt lat="45.4377857" lon="10.5185157"><ele>123.66666666666667</ele><time>2026-03-29T10:35:14.707Z</time></trkpt><trkpt lat="45.4379723" lon="10.5184553"><ele>124.0</ele><time>2026-03-29T10:35:15.707Z</time></trkpt><trkpt lat="45.4381863" lon="10.5184248"><ele>124.0</ele><time>2026-03-29T10:35:16.707Z</time></trkpt><trkpt lat="45.4384176" lon="10.518439"><ele>124.0</ele><time>2026-03-29T10:35:17.707Z</time></trkpt><trkpt lat="45.4386715" lon="10.5184658"><ele>125.0</ele><time>2026-03-29T10:35:18.707Z</time></trkpt><trkpt lat="45.4389067" lon="10.5184955"><ele>126.0</ele><time>2026-03-29T10:35:19.707Z</time></trkpt><trkpt lat="45.4391235" lon="10.5185398"><ele>126.0</ele><time>2026-03-29T10:35:20.707Z</time></trkpt><trkpt lat="45.4393206" lon="10.518608"><ele>126.0</ele><time>2026-03-29T10:35:21.707Z</time></trkpt><trkpt lat="45.4394988" lon="10.5187017"><ele>126.0</ele><time>2026-03-29T10:35:22.707Z</time></trkpt><trkpt lat="45.4396745" lon="10.5188164"><ele>127.33333333333334</ele><time>2026-03-29T10:35:23.707Z</time></trkpt><trkpt lat="45.4398434" lon="10.5189508"><ele>128.66666666666669</ele><time>2026-03-29T10:35:24.707Z</time></trkpt><trkpt lat="45.4399912" lon="10.5191204"><ele>130.0</ele><time>2026-03-29T10:35:25.707Z</time></trkpt><trkpt lat="45.4401246" lon="10.5193334"><ele>130.0</ele><time>2026-03-29T10:35:26.707Z</time></trkpt><trkpt lat="45.440246" lon="10.5195667"><ele>130.0</ele><time>2026-03-29T10:35:27.707Z</time></trkpt><trkpt lat="45.4403615" lon="10.5197768"><ele>130.0</ele><time>2026-03-29T10:35:28.707Z</time></trkpt><trkpt lat="45.4404826" lon="10.5199559"><ele>130.66666666666669</ele><time>2026-03-29T10:35:29.707Z</time></trkpt><trkpt lat="45.4406092" lon="10.5200976"><ele>131.33333333333334</ele><time>2026-03-29T10:35:30.707Z</time></trkpt><trkpt lat="45.4407417" lon="10.5201951"><ele>132.0</ele><time>2026-03-29T10:35:31.707Z</time></trkpt><trkpt lat="45.4408908" lon="10.5202514"><ele>132.0</ele><time>2026-03-29T10:35:32.707Z</time></trkpt><trkpt lat="45.4410446" lon="10.5202673"><ele>132.0</ele><time>2026-03-29T10:35:33.707Z</time></trkpt><trkpt lat="45.4412085" lon="10.5202725"><ele>132.0</ele><time>2026-03-29T10:35:34.708Z</time></trkpt><trkpt lat="45.4413759" lon="10.5202767"><ele>131.66666666666666</ele><time>2026-03-29T10:35:35.707Z</time></trkpt><trkpt lat="45.4415523" lon="10.5202825"><ele>131.33333333333331</ele><time>2026-03-29T10:35:36.707Z</time></trkpt><trkpt lat="45.4417418" lon="10.5202841"><ele>131.0</ele><time>2026-03-29T10:35:37.707Z</time></trkpt><trkpt lat="45.4419439" lon="10.5202897"><ele>130.66666666666666</ele><time>2026-03-29T10:35:38.707Z</time></trkpt><trkpt lat="45.4421583" lon="10.5202945"><ele>130.33333333333334</ele><time>2026-03-29T10:35:39.707Z</time></trkpt><trkpt lat="45.4423686" lon="10.5202972"><ele>130.0</ele><time>2026-03-29T10:35:40.707Z</time></trkpt><trkpt lat="45.442548" lon="10.5203043"><ele>130.0</ele><time>2026-03-29T10:35:41.707Z</time></trkpt><trkpt lat="45.4427044" lon="10.5203087"><ele>130.0</ele><time>2026-03-29T10:35:42.707Z</time></trkpt><trkpt lat="45.4428509" lon="10.520313"><ele>130.0</ele><time>2026-03-29T10:35:43.707Z</time></trkpt><trkpt lat="45.4429817" lon="10.520316"><ele>130.0</ele><time>2026-03-29T10:35:44.707Z</time></trkpt><trkpt lat="45.4430958" lon="10.5203186"><ele>130.33333333333334</ele><time>2026-03-29T10:35:45.707Z</time></trkpt><trkpt lat="45.4431867" lon="10.5203196"><ele>130.66666666666669</ele><time>2026-03-29T10:35:46.707Z</time></trkpt><trkpt lat="45.4432846" lon="10.5203259"><ele>131.0</ele><time>2026-03-29T10:35:48.707Z</time></trkpt><trkpt lat="45.443366" lon="10.5203067"><ele>131.33333333333334</ele><time>2026-03-29T10:35:53.707Z</time></trkpt><trkpt lat="45.4434323" lon="10.5202016"><ele>131.66666666666666</ele><time>2026-03-29T10:35:55.707Z</time></trkpt><trkpt lat="45.4434497" lon="10.5201147"><ele>132.0</ele><time>2026-03-29T10:35:56.707Z</time></trkpt><trkpt lat="45.4434901" lon="10.5200239"><ele>132.0</ele><time>2026-03-29T10:35:57.707Z</time></trkpt><trkpt lat="45.4435673" lon="10.5199695"><ele>132.0</ele><time>2026-03-29T10:35:58.707Z</time></trkpt><trkpt lat="45.4436555" lon="10.5199521"><ele>132.0</ele><time>2026-03-29T10:35:59.707Z</time></trkpt><trkpt lat="45.4437538" lon="10.5199316"><ele>132.0</ele><time>2026-03-29T10:36:00.707Z</time></trkpt><trkpt lat="45.4438577" lon="10.5199088"><ele>132.0</ele><time>2026-03-29T10:36:01.707Z</time></trkpt><trkpt lat="45.443972" lon="10.5198934"><ele>132.2</ele><time>2026-03-29T10:36:02.707Z</time></trkpt><trkpt lat="45.444088" lon="10.5198681"><ele>132.39999999999998</ele><time>2026-03-29T10:36:03.707Z</time></trkpt><trkpt lat="45.4441823" lon="10.5198068"><ele>132.60000000000002</ele><time>2026-03-29T10:36:04.707Z</time></trkpt><trkpt lat="45.4442439" lon="10.5197074"><ele>132.8</ele><time>2026-03-29T10:36:05.707Z</time></trkpt><trkpt lat="45.4442785" lon="10.519608"><ele>133.0</ele><time>2026-03-29T10:36:06.707Z</time></trkpt><trkpt lat="45.444297" lon="10.5194989"><ele>133.33333333333334</ele><time>2026-03-29T10:36:07.708Z</time></trkpt><trkpt lat="45.4443108" lon="10.5193929"><ele>133.66666666666669</ele><time>2026-03-29T10:36:08.707Z</time></trkpt><trkpt lat="45.4443354" lon="10.5193011"><ele>134.0</ele><time>2026-03-29T10:36:09.707Z</time></trkpt><trkpt lat="45.4443761" lon="10.5192195"><ele>134.33333333333334</ele><time>2026-03-29T10:36:10.708Z</time></trkpt><trkpt lat="45.4444337" lon="10.5191567"><ele>134.66666666666666</ele><time>2026-03-29T10:36:11.707Z</time></trkpt><trkpt lat="45.4445031" lon="10.519127"><ele>135.0</ele><time>2026-03-29T10:36:12.707Z</time></trkpt><trkpt lat="45.4445929" lon="10.5191442"><ele>134.75</ele><time>2026-03-29T10:36:13.708Z</time></trkpt><trkpt lat="45.4446948" lon="10.5191932"><ele>134.5</ele><time>2026-03-29T10:36:14.707Z</time></trkpt><trkpt lat="45.4448096" lon="10.5192544"><ele>134.25</ele><time>2026-03-29T10:36:15.707Z</time></trkpt><trkpt lat="45.4449316" lon="10.5193167"><ele>134.0</ele><time>2026-03-29T10:36:16.707Z</time></trkpt><trkpt lat="45.4450477" lon="10.5193761"><ele>134.0</ele><time>2026-03-29T10:36:17.707Z</time></trkpt><trkpt lat="45.4451536" lon="10.5194312"><ele>134.0</ele><time>2026-03-29T10:36:18.707Z</time></trkpt><trkpt lat="45.4452506" lon="10.5194848"><ele>134.0</ele><time>2026-03-29T10:36:19.707Z</time></trkpt><trkpt lat="45.4453369" lon="10.519532"><ele>134.0</ele><time>2026-03-29T10:36:20.707Z</time></trkpt><trkpt lat="45.4454142" lon="10.5195737"><ele>134.0</ele><time>2026-03-29T10:36:21.707Z</time></trkpt><trkpt lat="45.445486" lon="10.5196107"><ele>133.83333333333331</ele><time>2026-03-29T10:36:22.707Z</time></trkpt><trkpt lat="45.4455573" lon="10.5196474"><ele>133.66666666666666</ele><time>2026-03-29T10:36:23.707Z</time></trkpt><trkpt lat="45.4456316" lon="10.5196819"><ele>133.5</ele><time>2026-03-29T10:36:24.707Z</time></trkpt><trkpt lat="45.4457044" lon="10.5197151"><ele>133.33333333333334</ele><time>2026-03-29T10:36:25.707Z</time></trkpt><trkpt lat="45.4457826" lon="10.5197485"><ele>133.16666666666669</ele><time>2026-03-29T10:36:26.707Z</time></trkpt><trkpt lat="45.4458684" lon="10.5197802"><ele>133.0</ele><time>2026-03-29T10:36:27.707Z</time></trkpt><trkpt lat="45.4459665" lon="10.5198203"><ele>133.0</ele><time>2026-03-29T10:36:28.707Z</time></trkpt><trkpt lat="45.4460698" lon="10.5198796"><ele>133.0</ele><time>2026-03-29T10:36:29.707Z</time></trkpt><trkpt lat="45.4461865" lon="10.5199352"><ele>133.0</ele><time>2026-03-29T10:36:30.707Z</time></trkpt><trkpt lat="45.4463254" lon="10.5199776"><ele>133.0</ele><time>2026-03-29T10:36:31.707Z</time></trkpt><trkpt lat="45.4464631" lon="10.5200106"><ele>133.25</ele><time>2026-03-29T10:36:32.707Z</time></trkpt><trkpt lat="45.4465928" lon="10.5200488"><ele>133.5</ele><time>2026-03-29T10:36:33.707Z</time></trkpt><trkpt lat="45.4467192" lon="10.5200848"><ele>133.75</ele><time>2026-03-29T10:36:34.707Z</time></trkpt><trkpt lat="45.4468532" lon="10.5201214"><ele>134.0</ele><time>2026-03-29T10:36:35.707Z</time></trkpt><trkpt lat="45.446987" lon="10.5201675"><ele>134.0</ele><time>2026-03-29T10:36:36.707Z</time></trkpt><trkpt lat="45.4471203" lon="10.5202096"><ele>134.0</ele><time>2026-03-29T10:36:37.707Z</time></trkpt><trkpt lat="45.4472459" lon="10.5202521"><ele>134.0</ele><time>2026-03-29T10:36:38.707Z</time></trkpt><trkpt lat="45.4473654" lon="10.5202931"><ele>134.0</ele><time>2026-03-29T10:36:39.707Z</time></trkpt><trkpt lat="45.4474716" lon="10.5203314"><ele>134.0</ele><time>2026-03-29T10:36:40.707Z</time></trkpt><trkpt lat="45.4475733" lon="10.5203632"><ele>134.0</ele><time>2026-03-29T10:36:41.707Z</time></trkpt><trkpt lat="45.4476664" lon="10.520387"><ele>134.0</ele><time>2026-03-29T10:36:42.707Z</time></trkpt><trkpt lat="45.4477535" lon="10.5203968"><ele>134.0</ele><time>2026-03-29T10:36:43.707Z</time></trkpt><trkpt lat="45.447843" lon="10.5203699"><ele>134.0</ele><time>2026-03-29T10:36:44.707Z</time></trkpt><trkpt lat="45.447918" lon="10.5202972"><ele>134.2</ele><time>2026-03-29T10:36:45.707Z</time></trkpt><trkpt lat="45.4479841" lon="10.5201944"><ele>134.4</ele><time>2026-03-29T10:36:46.707Z</time></trkpt><trkpt lat="45.4480536" lon="10.5200777"><ele>134.6</ele><time>2026-03-29T10:36:47.707Z</time></trkpt><trkpt lat="45.4481231" lon="10.5199634"><ele>134.8</ele><time>2026-03-29T10:36:48.707Z</time></trkpt><trkpt lat="45.4481906" lon="10.5198563"><ele>135.0</ele><time>2026-03-29T10:36:49.707Z</time></trkpt><trkpt lat="45.4482584" lon="10.519751"><ele>135.0</ele><time>2026-03-29T10:36:50.707Z</time></trkpt><trkpt lat="45.448319" lon="10.5196556"><ele>135.0</ele><time>2026-03-29T10:36:51.707Z</time></trkpt><trkpt lat="45.4483783" lon="10.5195568"><ele>135.0</ele><time>2026-03-29T10:36:52.707Z</time></trkpt><trkpt lat="45.4484399" lon="10.5194513"><ele>135.0</ele><time>2026-03-29T10:36:53.707Z</time></trkpt><trkpt lat="45.4484954" lon="10.5193503"><ele>135.0</ele><time>2026-03-29T10:36:54.707Z</time></trkpt><trkpt lat="45.4485375" lon="10.5192467"><ele>135.0</ele><time>2026-03-29T10:36:55.707Z</time></trkpt><trkpt lat="45.4485563" lon="10.5191217"><ele>135.0</ele><time>2026-03-29T10:36:56.707Z</time></trkpt><trkpt lat="45.448542" lon="10.5189846"><ele>135.0</ele><time>2026-03-29T10:36:57.707Z</time></trkpt><trkpt lat="45.4484986" lon="10.5188476"><ele>135.0</ele><time>2026-03-29T10:36:58.707Z</time></trkpt><trkpt lat="45.4484522" lon="10.5187083"><ele>135.0</ele><time>2026-03-29T10:36:59.707Z</time></trkpt><trkpt lat="45.4484225" lon="10.5185576"><ele>134.8</ele><time>2026-03-29T10:37:00.708Z</time></trkpt><trkpt lat="45.4484081" lon="10.5184143"><ele>134.6</ele><time>2026-03-29T10:37:01.707Z</time></trkpt><trkpt lat="45.4484095" lon="10.5182605"><ele>134.4</ele><time>2026-03-29T10:37:02.707Z</time></trkpt><trkpt lat="45.4484277" lon="10.5180984"><ele>134.2</ele><time>2026-03-29T10:37:03.707Z</time></trkpt><trkpt lat="45.4484667" lon="10.5179394"><ele>134.0</ele><time>2026-03-29T10:37:04.707Z</time></trkpt><trkpt lat="45.4485193" lon="10.517799"><ele>134.0</ele><time>2026-03-29T10:37:05.707Z</time></trkpt><trkpt lat="45.4485815" lon="10.5176806"><ele>134.0</ele><time>2026-03-29T10:37:06.707Z</time></trkpt><trkpt lat="45.4486554" lon="10.5175706"><ele>134.0</ele><time>2026-03-29T10:37:07.707Z</time></trkpt><trkpt lat="45.4487406" lon="10.5174737"><ele>134.0</ele><time>2026-03-29T10:37:08.707Z</time></trkpt><trkpt lat="45.4488236" lon="10.5173959"><ele>134.0</ele><time>2026-03-29T10:37:09.707Z</time></trkpt><trkpt lat="45.4489058" lon="10.5173167"><ele>134.0</ele><time>2026-03-29T10:37:10.707Z</time></trkpt><trkpt lat="45.4489881" lon="10.5172342"><ele>134.0</ele><time>2026-03-29T10:37:11.707Z</time></trkpt><trkpt lat="45.4490629" lon="10.5171339"><ele>134.0</ele><time>2026-03-29T10:37:12.707Z</time></trkpt><trkpt lat="45.4491452" lon="10.5169937"><ele>134.0</ele><time>2026-03-29T10:37:13.707Z</time></trkpt><trkpt lat="45.4492188" lon="10.5168356"><ele>134.0</ele><time>2026-03-29T10:37:14.707Z</time></trkpt><trkpt lat="45.4492704" lon="10.5166994"><ele>134.0</ele><time>2026-03-29T10:37:15.707Z</time></trkpt><trkpt lat="45.4493067" lon="10.5165868"><ele>134.0</ele><time>2026-03-29T10:37:16.707Z</time></trkpt><trkpt lat="45.4493359" lon="10.5164888"><ele>134.0</ele><time>2026-03-29T10:37:17.707Z</time></trkpt><trkpt lat="45.4493647" lon="10.5163994"><ele>134.0</ele><time>2026-03-29T10:37:18.707Z</time></trkpt><trkpt lat="45.4494014" lon="10.516313"><ele>134.0</ele><time>2026-03-29T10:37:19.707Z</time></trkpt><trkpt lat="45.4494345" lon="10.5162052"><ele>133.8</ele><time>2026-03-29T10:37:20.707Z</time></trkpt><trkpt lat="45.449447" lon="10.5160689"><ele>133.60000000000002</ele><time>2026-03-29T10:37:21.707Z</time></trkpt><trkpt lat="45.4494722" lon="10.5159181"><ele>133.4</ele><time>2026-03-29T10:37:22.707Z</time></trkpt><trkpt lat="45.4495294" lon="10.5157768"><ele>133.20000000000002</ele><time>2026-03-29T10:37:23.707Z</time></trkpt><trkpt lat="45.4495917" lon="10.5156377"><ele>133.0</ele><time>2026-03-29T10:37:24.707Z</time></trkpt><trkpt lat="45.449657" lon="10.5154942"><ele>133.5</ele><time>2026-03-29T10:37:25.707Z</time></trkpt><trkpt lat="45.4497209" lon="10.5153624"><ele>134.0</ele><time>2026-03-29T10:37:26.707Z</time></trkpt><trkpt lat="45.4497724" lon="10.5152295"><ele>134.5</ele><time>2026-03-29T10:37:27.707Z</time></trkpt><trkpt lat="45.4498112" lon="10.5150714"><ele>135.0</ele><time>2026-03-29T10:37:28.707Z</time></trkpt><trkpt lat="45.4498362" lon="10.5148872"><ele>135.0</ele><time>2026-03-29T10:37:29.707Z</time></trkpt><trkpt lat="45.4498536" lon="10.5146933"><ele>135.0</ele><time>2026-03-29T10:37:30.707Z</time></trkpt><trkpt lat="45.4498669" lon="10.5145031"><ele>135.0</ele><time>2026-03-29T10:37:31.707Z</time></trkpt><trkpt lat="45.4498772" lon="10.5143237"><ele>135.0</ele><time>2026-03-29T10:37:32.707Z</time></trkpt><trkpt lat="45.4498897" lon="10.514141"><ele>135.25</ele><time>2026-03-29T10:37:33.707Z</time></trkpt><trkpt lat="45.4499107" lon="10.5139473"><ele>135.5</ele><time>2026-03-29T10:37:34.707Z</time></trkpt><trkpt lat="45.4499304" lon="10.5137403"><ele>135.75</ele><time>2026-03-29T10:37:35.707Z</time></trkpt><trkpt lat="45.4499449" lon="10.5135208"><ele>136.0</ele><time>2026-03-29T10:37:36.707Z</time></trkpt><trkpt lat="45.4499617" lon="10.5132958"><ele>137.0</ele><time>2026-03-29T10:37:37.707Z</time></trkpt><trkpt lat="45.4499795" lon="10.5130628"><ele>138.0</ele><time>2026-03-29T10:37:38.707Z</time></trkpt><trkpt lat="45.4499986" lon="10.5127994"><ele>139.0</ele><time>2026-03-29T10:37:39.707Z</time></trkpt><trkpt lat="45.4500329" lon="10.5125383"><ele>139.25</ele><time>2026-03-29T10:37:40.707Z</time></trkpt><trkpt lat="45.4500859" lon="10.512317"><ele>139.5</ele><time>2026-03-29T10:37:41.707Z</time></trkpt><trkpt lat="45.4501387" lon="10.5121186"><ele>139.75</ele><time>2026-03-29T10:37:42.707Z</time></trkpt><trkpt lat="45.4501784" lon="10.5119466"><ele>140.0</ele><time>2026-03-29T10:37:43.707Z</time></trkpt><trkpt lat="45.4502036" lon="10.5117926"><ele>141.0</ele><time>2026-03-29T10:37:44.707Z</time></trkpt><trkpt lat="45.4502221" lon="10.5116587"><ele>142.0</ele><time>2026-03-29T10:37:45.707Z</time></trkpt><trkpt lat="45.4502412" lon="10.5115452"><ele>143.0</ele><time>2026-03-29T10:37:46.707Z</time></trkpt><trkpt lat="45.4502487" lon="10.5114504"><ele>144.0</ele><time>2026-03-29T10:37:47.707Z</time></trkpt><trkpt lat="45.4503064" lon="10.5113386"><ele>145.0</ele><time>2026-03-29T10:37:49.707Z</time></trkpt><trkpt lat="45.4504262" lon="10.5113229"><ele>145.0</ele><time>2026-03-29T10:37:51.707Z</time></trkpt><trkpt lat="45.450515" lon="10.5113436"><ele>145.0</ele><time>2026-03-29T10:37:52.707Z</time></trkpt><trkpt lat="45.4506043" lon="10.51135"><ele>145.0</ele><time>2026-03-29T10:37:53.707Z</time></trkpt><trkpt lat="45.450693" lon="10.5113689"><ele>145.0</ele><time>2026-03-29T10:37:54.707Z</time></trkpt><trkpt lat="45.450745" lon="10.5114382"><ele>145.0</ele><time>2026-03-29T10:37:55.707Z</time></trkpt><trkpt lat="45.4508081" lon="10.5114437"><ele>145.0</ele><time>2026-03-29T10:37:56.707Z</time></trkpt><trkpt lat="45.4508591" lon="10.5113302"><ele>146.0</ele><time>2026-03-29T10:37:58.707Z</time></trkpt><trkpt lat="45.450802" lon="10.5111656"><ele>147.0</ele><time>2026-03-29T10:38:00.707Z</time></trkpt><trkpt lat="45.4507849" lon="10.5110496"><ele>148.0</ele><time>2026-03-29T10:38:01.707Z</time></trkpt><trkpt lat="45.4507796" lon="10.5109167"><ele>149.0</ele><time>2026-03-29T10:38:02.707Z</time></trkpt><trkpt lat="45.4507875" lon="10.510758"><ele>150.0</ele><time>2026-03-29T10:38:03.707Z</time></trkpt><trkpt lat="45.4508017" lon="10.5105422"><ele>152.33333333333334</ele><time>2026-03-29T10:38:04.707Z</time></trkpt><trkpt lat="45.4508166" lon="10.5102857"><ele>154.66666666666669</ele><time>2026-03-29T10:38:05.707Z</time></trkpt><trkpt lat="45.4508284" lon="10.5099911"><ele>157.0</ele><time>2026-03-29T10:38:06.707Z</time></trkpt><trkpt lat="45.4508537" lon="10.5096621"><ele>159.0</ele><time>2026-03-29T10:38:07.707Z</time></trkpt><trkpt lat="45.4508807" lon="10.5093268"><ele>161.0</ele><time>2026-03-29T10:38:08.707Z</time></trkpt><trkpt lat="45.4509069" lon="10.5090044"><ele>161.66666666666666</ele><time>2026-03-29T10:38:09.707Z</time></trkpt><trkpt lat="45.4509293" lon="10.5087317"><ele>162.33333333333334</ele><time>2026-03-29T10:38:10.707Z</time></trkpt><trkpt lat="45.4509454" lon="10.5085121"><ele>163.0</ele><time>2026-03-29T10:38:11.707Z</time></trkpt><trkpt lat="45.4509613" lon="10.5083217"><ele>163.0</ele><time>2026-03-29T10:38:12.707Z</time></trkpt><trkpt lat="45.450988" lon="10.5081607"><ele>163.0</ele><time>2026-03-29T10:38:13.707Z</time></trkpt><trkpt lat="45.4510428" lon="10.5079798"><ele>163.0</ele><time>2026-03-29T10:38:14.707Z</time></trkpt><trkpt lat="45.4511369" lon="10.5077827"><ele>163.0</ele><time>2026-03-29T10:38:15.707Z</time></trkpt><trkpt lat="45.4512304" lon="10.5075774"><ele>167.33333333333334</ele><time>2026-03-29T10:38:16.707Z</time></trkpt><trkpt lat="45.4513003" lon="10.5073365"><ele>171.66666666666666</ele><time>2026-03-29T10:38:17.707Z</time></trkpt><trkpt lat="45.451359" lon="10.5070765"><ele>176.0</ele><time>2026-03-29T10:38:18.707Z</time></trkpt><trkpt lat="45.4514084" lon="10.506837"><ele>177.33333333333331</ele><time>2026-03-29T10:38:19.707Z</time></trkpt><trkpt lat="45.4514588" lon="10.5066268"><ele>178.66666666666666</ele><time>2026-03-29T10:38:20.707Z</time></trkpt><trkpt lat="45.451508" lon="10.5064237"><ele>180.0</ele><time>2026-03-29T10:38:21.707Z</time></trkpt><trkpt lat="45.4515565" lon="10.5062157"><ele>181.0</ele><time>2026-03-29T10:38:22.707Z</time></trkpt><trkpt lat="45.4516086" lon="10.5059966"><ele>182.0</ele><time>2026-03-29T10:38:23.707Z</time></trkpt><trkpt lat="45.4516738" lon="10.5057807"><ele>183.0</ele><time>2026-03-29T10:38:24.707Z</time></trkpt><trkpt lat="45.4517596" lon="10.5055805"><ele>181.66666666666666</ele><time>2026-03-29T10:38:25.707Z</time></trkpt><trkpt lat="45.4518511" lon="10.5053927"><ele>180.33333333333331</ele><time>2026-03-29T10:38:26.707Z</time></trkpt><trkpt lat="45.4519309" lon="10.5051927"><ele>179.0</ele><time>2026-03-29T10:38:27.707Z</time></trkpt><trkpt lat="45.4520048" lon="10.5049731"><ele>179.0</ele><time>2026-03-29T10:38:28.707Z</time></trkpt><trkpt lat="45.4520714" lon="10.5047459"><ele>179.0</ele><time>2026-03-29T10:38:29.707Z</time></trkpt><trkpt lat="45.4521283" lon="10.5045243"><ele>179.0</ele><time>2026-03-29T10:38:30.707Z</time></trkpt><trkpt lat="45.4521669" lon="10.5042997"><ele>181.33333333333331</ele><time>2026-03-29T10:38:31.707Z</time></trkpt><trkpt lat="45.4521875" lon="10.5040846"><ele>183.66666666666666</ele><time>2026-03-29T10:38:32.707Z</time></trkpt><trkpt lat="45.4522047" lon="10.5038796"><ele>186.0</ele><time>2026-03-29T10:38:33.707Z</time></trkpt><trkpt lat="45.452223" lon="10.5036637"><ele>186.0</ele><time>2026-03-29T10:38:34.707Z</time></trkpt><trkpt lat="45.452249" lon="10.5034454"><ele>186.0</ele><time>2026-03-29T10:38:35.707Z</time></trkpt><trkpt lat="45.4522773" lon="10.5032358"><ele>186.0</ele><time>2026-03-29T10:38:36.707Z</time></trkpt><trkpt lat="45.4523084" lon="10.5030325"><ele>185.75</ele><time>2026-03-29T10:38:37.707Z</time></trkpt><trkpt lat="45.452358" lon="10.5028488"><ele>185.5</ele><time>2026-03-29T10:38:38.707Z</time></trkpt><trkpt lat="45.4524235" lon="10.5026764"><ele>185.25</ele><time>2026-03-29T10:38:39.707Z</time></trkpt><trkpt lat="45.4525077" lon="10.5024971"><ele>185.0</ele><time>2026-03-29T10:38:40.707Z</time></trkpt><trkpt lat="45.4526164" lon="10.5023092"><ele>185.0</ele><time>2026-03-29T10:38:41.707Z</time></trkpt><trkpt lat="45.4527355" lon="10.502116"><ele>185.0</ele><time>2026-03-29T10:38:42.707Z</time></trkpt><trkpt lat="45.4528631" lon="10.5019093"><ele>185.0</ele><time>2026-03-29T10:38:43.707Z</time></trkpt><trkpt lat="45.4530007" lon="10.5016944"><ele>183.0</ele><time>2026-03-29T10:38:44.707Z</time></trkpt><trkpt lat="45.4531449" lon="10.5014438"><ele>181.0</ele><time>2026-03-29T10:38:45.707Z</time></trkpt><trkpt lat="45.4532789" lon="10.5011538"><ele>181.0</ele><time>2026-03-29T10:38:46.707Z</time></trkpt><trkpt lat="45.4533958" lon="10.5008796"><ele>181.0</ele><time>2026-03-29T10:38:47.707Z</time></trkpt><trkpt lat="45.4535009" lon="10.5006182"><ele>181.0</ele><time>2026-03-29T10:38:48.707Z</time></trkpt><trkpt lat="45.4535845" lon="10.5003694"><ele>182.0</ele><time>2026-03-29T10:38:49.707Z</time></trkpt><trkpt lat="45.4536474" lon="10.5001263"><ele>183.0</ele><time>2026-03-29T10:38:50.707Z</time></trkpt><trkpt lat="45.4537009" lon="10.4999225"><ele>184.0</ele><time>2026-03-29T10:38:51.707Z</time></trkpt><trkpt lat="45.4537794" lon="10.4997337"><ele>184.66666666666669</ele><time>2026-03-29T10:38:52.707Z</time></trkpt><trkpt lat="45.4538826" lon="10.4995261"><ele>185.33333333333334</ele><time>2026-03-29T10:38:53.707Z</time></trkpt><trkpt lat="45.4540004" lon="10.4993087"><ele>186.0</ele><time>2026-03-29T10:38:54.707Z</time></trkpt><trkpt lat="45.4541296" lon="10.49908"><ele>186.0</ele><time>2026-03-29T10:38:55.707Z</time></trkpt><trkpt lat="45.4542657" lon="10.4988769"><ele>186.0</ele><time>2026-03-29T10:38:56.707Z</time></trkpt><trkpt lat="45.4544411" lon="10.4987209"><ele>186.0</ele><time>2026-03-29T10:38:57.707Z</time></trkpt><trkpt lat="45.4546111" lon="10.4985448"><ele>185.66666666666666</ele><time>2026-03-29T10:38:58.707Z</time></trkpt><trkpt lat="45.4547539" lon="10.4983589"><ele>185.33333333333331</ele><time>2026-03-29T10:38:59.707Z</time></trkpt><trkpt lat="45.4548632" lon="10.4981832"><ele>185.0</ele><time>2026-03-29T10:39:00.707Z</time></trkpt><trkpt lat="45.4549542" lon="10.4980139"><ele>184.0</ele><time>2026-03-29T10:39:01.707Z</time></trkpt><trkpt lat="45.4550263" lon="10.4978298"><ele>183.0</ele><time>2026-03-29T10:39:02.707Z</time></trkpt><trkpt lat="45.4550786" lon="10.4976274"><ele>182.0</ele><time>2026-03-29T10:39:03.707Z</time></trkpt><trkpt lat="45.4551207" lon="10.4974231"><ele>181.0</ele><time>2026-03-29T10:39:04.707Z</time></trkpt><trkpt lat="45.4551486" lon="10.4972032"><ele>179.66666666666669</ele><time>2026-03-29T10:39:05.707Z</time></trkpt><trkpt lat="45.4551793" lon="10.4969749"><ele>178.33333333333334</ele><time>2026-03-29T10:39:06.707Z</time></trkpt><trkpt lat="45.4552251" lon="10.4967423"><ele>177.0</ele><time>2026-03-29T10:39:07.707Z</time></trkpt><trkpt lat="45.4552753" lon="10.4965043"><ele>177.0</ele><time>2026-03-29T10:39:08.707Z</time></trkpt><trkpt lat="45.4553284" lon="10.4962611"><ele>177.0</ele><time>2026-03-29T10:39:09.707Z</time></trkpt><trkpt lat="45.455385" lon="10.4960057"><ele>177.0</ele><time>2026-03-29T10:39:10.708Z</time></trkpt><trkpt lat="45.4554353" lon="10.495732"><ele>177.0</ele><time>2026-03-29T10:39:11.707Z</time></trkpt><trkpt lat="45.4554652" lon="10.4954463"><ele>177.0</ele><time>2026-03-29T10:39:12.707Z</time></trkpt><trkpt lat="45.4554885" lon="10.4951524"><ele>177.0</ele><time>2026-03-29T10:39:13.707Z</time></trkpt><trkpt lat="45.4555123" lon="10.4948684"><ele>176.33333333333334</ele><time>2026-03-29T10:39:14.707Z</time></trkpt><trkpt lat="45.4555396" lon="10.4946024"><ele>175.66666666666669</ele><time>2026-03-29T10:39:15.707Z</time></trkpt><trkpt lat="45.455571" lon="10.4943488"><ele>175.0</ele><time>2026-03-29T10:39:16.707Z</time></trkpt><trkpt lat="45.4556062" lon="10.4940979"><ele>174.66666666666669</ele><time>2026-03-29T10:39:17.707Z</time></trkpt><trkpt lat="45.455646" lon="10.4938641"><ele>174.33333333333334</ele><time>2026-03-29T10:39:18.707Z</time></trkpt><trkpt lat="45.4556973" lon="10.4936383"><ele>174.0</ele><time>2026-03-29T10:39:19.707Z</time></trkpt><trkpt lat="45.4557625" lon="10.4934211"><ele>172.66666666666666</ele><time>2026-03-29T10:39:20.707Z</time></trkpt><trkpt lat="45.4558415" lon="10.4932238"><ele>171.33333333333331</ele><time>2026-03-29T10:39:21.707Z</time></trkpt><trkpt lat="45.4559249" lon="10.4930264"><ele>170.0</ele><time>2026-03-29T10:39:22.707Z</time></trkpt><trkpt lat="45.4560019" lon="10.4928448"><ele>169.25</ele><time>2026-03-29T10:39:23.707Z</time></trkpt><trkpt lat="45.4560837" lon="10.4926706"><ele>168.5</ele><time>2026-03-29T10:39:24.707Z</time></trkpt><trkpt lat="45.4561557" lon="10.4924949"><ele>167.75</ele><time>2026-03-29T10:39:25.707Z</time></trkpt><trkpt lat="45.4561892" lon="10.4923111"><ele>167.0</ele><time>2026-03-29T10:39:26.707Z</time></trkpt><trkpt lat="45.4562019" lon="10.4921602"><ele>166.16666666666666</ele><time>2026-03-29T10:39:27.707Z</time></trkpt><trkpt lat="45.4562109" lon="10.4920612"><ele>165.33333333333331</ele><time>2026-03-29T10:39:28.707Z</time></trkpt><trkpt lat="45.456216" lon="10.4919491"><ele>164.5</ele><time>2026-03-29T10:39:30.708Z</time></trkpt><trkpt lat="45.4561902" lon="10.4918181"><ele>163.66666666666666</ele><time>2026-03-29T10:39:34.707Z</time></trkpt><trkpt lat="45.4561692" lon="10.4917205"><ele>162.83333333333334</ele><time>2026-03-29T10:39:36.707Z</time></trkpt><trkpt lat="45.4561761" lon="10.4916274"><ele>162.0</ele><time>2026-03-29T10:39:38.707Z</time></trkpt><trkpt lat="45.4562019" lon="10.4914633"><ele>162.0</ele><time>2026-03-29T10:40:38.707Z</time></trkpt><trkpt lat="45.4562239" lon="10.491345"><ele>162.0</ele><time>2026-03-29T10:40:39.707Z</time></trkpt><trkpt lat="45.4562614" lon="10.4912244"><ele>162.0</ele><time>2026-03-29T10:40:40.707Z</time></trkpt><trkpt lat="45.456323" lon="10.4911046"><ele>162.0</ele><time>2026-03-29T10:40:41.707Z</time></trkpt><trkpt lat="45.4564028" lon="10.490992"><ele>162.0</ele><time>2026-03-29T10:40:42.707Z</time></trkpt><trkpt lat="45.45648" lon="10.4908843"><ele>161.8</ele><time>2026-03-29T10:40:43.707Z</time></trkpt><trkpt lat="45.4565623" lon="10.4907728"><ele>161.6</ele><time>2026-03-29T10:40:44.707Z</time></trkpt><trkpt lat="45.4566471" lon="10.4906762"><ele>161.4</ele><time>2026-03-29T10:40:45.707Z</time></trkpt><trkpt lat="45.4567301" lon="10.4905861"><ele>161.20000000000002</ele><time>2026-03-29T10:40:46.707Z</time></trkpt><trkpt lat="45.4568162" lon="10.4904942"><ele>161.0</ele><time>2026-03-29T10:40:47.707Z</time></trkpt><trkpt lat="45.4569089" lon="10.4904002"><ele>161.0</ele><time>2026-03-29T10:40:48.707Z</time></trkpt><trkpt lat="45.4569968" lon="10.4903032"><ele>161.0</ele><time>2026-03-29T10:40:49.707Z</time></trkpt><trkpt lat="45.4570794" lon="10.4902119"><ele>161.0</ele><time>2026-03-29T10:40:50.707Z</time></trkpt><trkpt lat="45.4571626" lon="10.4901188"><ele>161.0</ele><time>2026-03-29T10:40:51.707Z</time></trkpt><trkpt lat="45.4572376" lon="10.4900326"><ele>161.0</ele><time>2026-03-29T10:40:52.707Z</time></trkpt><trkpt lat="45.4572999" lon="10.4899729"><ele>161.5</ele><time>2026-03-29T10:40:53.707Z</time></trkpt><trkpt lat="45.4573757" lon="10.4899386"><ele>162.0</ele><time>2026-03-29T10:40:55.707Z</time></trkpt><trkpt lat="45.457481" lon="10.4898663"><ele>162.5</ele><time>2026-03-29T10:40:57.707Z</time></trkpt><trkpt lat="45.457546" lon="10.4898156"><ele>163.0</ele><time>2026-03-29T10:40:58.707Z</time></trkpt><trkpt lat="45.4576235" lon="10.4897568"><ele>163.5</ele><time>2026-03-29T10:40:59.707Z</time></trkpt><trkpt lat="45.4576986" lon="10.4896982"><ele>164.0</ele><time>2026-03-29T10:41:00.707Z</time></trkpt><trkpt lat="45.4577707" lon="10.4896437"><ele>164.0</ele><time>2026-03-29T10:41:01.707Z</time></trkpt><trkpt lat="45.4578434" lon="10.4895924"><ele>164.0</ele><time>2026-03-29T10:41:02.707Z</time></trkpt><trkpt lat="45.4579144" lon="10.4895413"><ele>164.0</ele><time>2026-03-29T10:41:03.707Z</time></trkpt><trkpt lat="45.4579803" lon="10.4894928"><ele>164.0</ele><time>2026-03-29T10:41:04.707Z</time></trkpt><trkpt lat="45.4580446" lon="10.4894522"><ele>164.0</ele><time>2026-03-29T10:41:05.707Z</time></trkpt><trkpt lat="45.4581561" lon="10.4893929"><ele>164.0</ele><time>2026-03-29T10:41:07.707Z</time></trkpt><trkpt lat="45.4582229" lon="10.4893481"><ele>163.75</ele><time>2026-03-29T10:41:08.707Z</time></trkpt><trkpt lat="45.4583123" lon="10.4892851"><ele>163.5</ele><time>2026-03-29T10:41:09.707Z</time></trkpt><trkpt lat="45.4584138" lon="10.4892263"><ele>163.25</ele><time>2026-03-29T10:41:10.707Z</time></trkpt><trkpt lat="45.4585273" lon="10.4891615"><ele>163.0</ele><time>2026-03-29T10:41:11.707Z</time></trkpt><trkpt lat="45.4586512" lon="10.4891074"><ele>163.0</ele><time>2026-03-29T10:41:12.707Z</time></trkpt><trkpt lat="45.4587786" lon="10.4890614"><ele>163.0</ele><time>2026-03-29T10:41:13.707Z</time></trkpt><trkpt lat="45.4589085" lon="10.4890337"><ele>163.0</ele><time>2026-03-29T10:41:14.707Z</time></trkpt><trkpt lat="45.4590428" lon="10.4890255"><ele>163.0</ele><time>2026-03-29T10:41:15.707Z</time></trkpt><trkpt lat="45.4591792" lon="10.4890345"><ele>162.75</ele><time>2026-03-29T10:41:16.707Z</time></trkpt><trkpt lat="45.4593134" lon="10.4890629"><ele>162.5</ele><time>2026-03-29T10:41:17.707Z</time></trkpt><trkpt lat="45.4594446" lon="10.4891085"><ele>162.25</ele><time>2026-03-29T10:41:18.707Z</time></trkpt><trkpt lat="45.4595735" lon="10.4891623"><ele>162.0</ele><time>2026-03-29T10:41:19.707Z</time></trkpt><trkpt lat="45.4597002" lon="10.4892259"><ele>162.0</ele><time>2026-03-29T10:41:20.707Z</time></trkpt><trkpt lat="45.4598151" lon="10.4892936"><ele>162.0</ele><time>2026-03-29T10:41:21.707Z</time></trkpt><trkpt lat="45.4599246" lon="10.4893732"><ele>162.0</ele><time>2026-03-29T10:41:22.707Z</time></trkpt><trkpt lat="45.4600341" lon="10.4894633"><ele>162.0</ele><time>2026-03-29T10:41:23.707Z</time></trkpt><trkpt lat="45.4601351" lon="10.489567"><ele>161.8</ele><time>2026-03-29T10:41:24.707Z</time></trkpt><trkpt lat="45.460228" lon="10.4896819"><ele>161.6</ele><time>2026-03-29T10:41:25.707Z</time></trkpt><trkpt lat="45.4603063" lon="10.4898042"><ele>161.4</ele><time>2026-03-29T10:41:26.707Z</time></trkpt><trkpt lat="45.4603708" lon="10.4899205"><ele>161.20000000000002</ele><time>2026-03-29T10:41:27.707Z</time></trkpt><trkpt lat="45.4604289" lon="10.4900285"><ele>161.0</ele><time>2026-03-29T10:41:28.707Z</time></trkpt><trkpt lat="45.460478" lon="10.4901243"><ele>161.0</ele><time>2026-03-29T10:41:29.707Z</time></trkpt><trkpt lat="45.4605218" lon="10.4902143"><ele>161.0</ele><time>2026-03-29T10:41:30.707Z</time></trkpt><trkpt lat="45.4605612" lon="10.4902939"><ele>161.0</ele><time>2026-03-29T10:41:31.707Z</time></trkpt><trkpt lat="45.4606109" lon="10.4904378"><ele>161.0</ele><time>2026-03-29T10:41:33.708Z</time></trkpt><trkpt lat="45.4606282" lon="10.4905967"><ele>161.0</ele><time>2026-03-29T10:41:35.707Z</time></trkpt><trkpt lat="45.4606177" lon="10.4906974"><ele>161.0</ele><time>2026-03-29T10:41:36.707Z</time></trkpt><trkpt lat="45.4606121" lon="10.4908124"><ele>161.5</ele><time>2026-03-29T10:41:37.707Z</time></trkpt><trkpt lat="45.4606322" lon="10.490916"><ele>162.0</ele><time>2026-03-29T10:41:38.707Z</time></trkpt><trkpt lat="45.460672" lon="10.4910074"><ele>162.5</ele><time>2026-03-29T10:41:39.707Z</time></trkpt><trkpt lat="45.460732" lon="10.4910781"><ele>163.0</ele><time>2026-03-29T10:41:40.707Z</time></trkpt><trkpt lat="45.4608021" lon="10.4911218"><ele>163.5</ele><time>2026-03-29T10:41:41.707Z</time></trkpt><trkpt lat="45.4608779" lon="10.4911309"><ele>164.0</ele><time>2026-03-29T10:41:42.707Z</time></trkpt><trkpt lat="45.4609516" lon="10.4911033"><ele>164.0</ele><time>2026-03-29T10:41:43.707Z</time></trkpt><trkpt lat="45.4610118" lon="10.4910391"><ele>164.0</ele><time>2026-03-29T10:41:44.707Z</time></trkpt><trkpt lat="45.4610511" lon="10.4909493"><ele>164.0</ele><time>2026-03-29T10:41:45.707Z</time></trkpt><trkpt lat="45.461074" lon="10.4908505"><ele>164.0</ele><time>2026-03-29T10:41:46.707Z</time></trkpt><trkpt lat="45.4610891" lon="10.4907547"><ele>164.0</ele><time>2026-03-29T10:41:47.707Z</time></trkpt><trkpt lat="45.4611141" lon="10.4906426"><ele>164.0</ele><time>2026-03-29T10:41:48.707Z</time></trkpt><trkpt lat="45.4611568" lon="10.4905268"><ele>164.39999999999998</ele><time>2026-03-29T10:41:49.707Z</time></trkpt><trkpt lat="45.4612186" lon="10.490416"><ele>164.8</ele><time>2026-03-29T10:41:50.707Z</time></trkpt><trkpt lat="45.4612867" lon="10.4902989"><ele>165.2</ele><time>2026-03-29T10:41:51.707Z</time></trkpt><trkpt lat="45.4613586" lon="10.490161"><ele>165.60000000000002</ele><time>2026-03-29T10:41:52.707Z</time></trkpt><trkpt lat="45.4614239" lon="10.4900367"><ele>166.0</ele><time>2026-03-29T10:41:53.707Z</time></trkpt><trkpt lat="45.4614963" lon="10.4899364"><ele>166.0</ele><time>2026-03-29T10:41:54.707Z</time></trkpt><trkpt lat="45.4615822" lon="10.4898752"><ele>166.0</ele><time>2026-03-29T10:41:55.707Z</time></trkpt><trkpt lat="45.4616756" lon="10.4898359"><ele>166.0</ele><time>2026-03-29T10:41:56.707Z</time></trkpt><trkpt lat="45.461779" lon="10.4898005"><ele>166.0</ele><time>2026-03-29T10:41:57.707Z</time></trkpt><trkpt lat="45.4618855" lon="10.4898045"><ele>166.0</ele><time>2026-03-29T10:41:58.707Z</time></trkpt><trkpt lat="45.4619886" lon="10.489861"><ele>166.0</ele><time>2026-03-29T10:41:59.707Z</time></trkpt><trkpt lat="45.4620967" lon="10.4899325"><ele>166.0</ele><time>2026-03-29T10:42:00.707Z</time></trkpt><trkpt lat="45.4622094" lon="10.4900048"><ele>166.0</ele><time>2026-03-29T10:42:01.707Z</time></trkpt><trkpt lat="45.4623256" lon="10.4900723"><ele>166.0</ele><time>2026-03-29T10:42:02.707Z</time></trkpt><trkpt lat="45.4624504" lon="10.4901285"><ele>166.5</ele><time>2026-03-29T10:42:03.707Z</time></trkpt><trkpt lat="45.4625829" lon="10.4901627"><ele>167.0</ele><time>2026-03-29T10:42:04.707Z</time></trkpt><trkpt lat="45.4627197" lon="10.4901671"><ele>167.5</ele><time>2026-03-29T10:42:05.707Z</time></trkpt><trkpt lat="45.4628561" lon="10.4901276"><ele>168.0</ele><time>2026-03-29T10:42:06.707Z</time></trkpt><trkpt lat="45.4629854" lon="10.4900562"><ele>168.0</ele><time>2026-03-29T10:42:07.707Z</time></trkpt><trkpt lat="45.4631111" lon="10.4899676"><ele>168.0</ele><time>2026-03-29T10:42:08.707Z</time></trkpt><trkpt lat="45.4632408" lon="10.4898754"><ele>168.0</ele><time>2026-03-29T10:42:09.707Z</time></trkpt><trkpt lat="45.4633637" lon="10.4897817"><ele>168.0</ele><time>2026-03-29T10:42:10.707Z</time></trkpt><trkpt lat="45.4634771" lon="10.4896883"><ele>168.0</ele><time>2026-03-29T10:42:11.707Z</time></trkpt><trkpt lat="45.4635912" lon="10.4895954"><ele>168.0</ele><time>2026-03-29T10:42:12.707Z</time></trkpt><trkpt lat="45.46371" lon="10.4895003"><ele>168.0</ele><time>2026-03-29T10:42:13.707Z</time></trkpt><trkpt lat="45.4638266" lon="10.489409"><ele>168.0</ele><time>2026-03-29T10:42:14.707Z</time></trkpt><trkpt lat="45.4639453" lon="10.4893218"><ele>168.0</ele><time>2026-03-29T10:42:15.707Z</time></trkpt><trkpt lat="45.4640574" lon="10.4892347"><ele>168.0</ele><time>2026-03-29T10:42:16.707Z</time></trkpt><trkpt lat="45.4641766" lon="10.489143"><ele>168.0</ele><time>2026-03-29T10:42:17.707Z</time></trkpt><trkpt lat="45.4643157" lon="10.4890509"><ele>168.0</ele><time>2026-03-29T10:42:18.707Z</time></trkpt><trkpt lat="45.4644666" lon="10.4889669"><ele>167.0</ele><time>2026-03-29T10:42:19.707Z</time></trkpt><trkpt lat="45.4646335" lon="10.4888943"><ele>166.0</ele><time>2026-03-29T10:42:20.707Z</time></trkpt><trkpt lat="45.4648121" lon="10.4888413"><ele>165.0</ele><time>2026-03-29T10:42:21.707Z</time></trkpt><trkpt lat="45.4649981" lon="10.4888112"><ele>165.0</ele><time>2026-03-29T10:42:22.707Z</time></trkpt><trkpt lat="45.4651866" lon="10.4888061"><ele>165.0</ele><time>2026-03-29T10:42:23.707Z</time></trkpt><trkpt lat="45.4653833" lon="10.4888213"><ele>165.0</ele><time>2026-03-29T10:42:24.707Z</time></trkpt><trkpt lat="45.4655823" lon="10.4888482"><ele>163.0</ele><time>2026-03-29T10:42:25.707Z</time></trkpt><trkpt lat="45.465784" lon="10.4888889"><ele>161.0</ele><time>2026-03-29T10:42:26.707Z</time></trkpt><trkpt lat="45.4659886" lon="10.4889395"><ele>159.0</ele><time>2026-03-29T10:42:27.707Z</time></trkpt><trkpt lat="45.466192" lon="10.4889844"><ele>161.33333333333334</ele><time>2026-03-29T10:42:28.707Z</time></trkpt><trkpt lat="45.46638" lon="10.4890231"><ele>163.66666666666669</ele><time>2026-03-29T10:42:29.707Z</time></trkpt><trkpt lat="45.466559" lon="10.4890653"><ele>166.0</ele><time>2026-03-29T10:42:30.707Z</time></trkpt><trkpt lat="45.4667382" lon="10.4891112"><ele>166.0</ele><time>2026-03-29T10:42:31.707Z</time></trkpt><trkpt lat="45.4669126" lon="10.4891618"><ele>166.0</ele><time>2026-03-29T10:42:32.707Z</time></trkpt><trkpt lat="45.4670864" lon="10.4892126"><ele>166.0</ele><time>2026-03-29T10:42:33.707Z</time></trkpt><trkpt lat="45.4672637" lon="10.4892715"><ele>166.66666666666669</ele><time>2026-03-29T10:42:34.707Z</time></trkpt><trkpt lat="45.467451" lon="10.489339"><ele>167.33333333333334</ele><time>2026-03-29T10:42:35.707Z</time></trkpt><trkpt lat="45.4676446" lon="10.4894135"><ele>168.0</ele><time>2026-03-29T10:42:36.707Z</time></trkpt><trkpt lat="45.4678411" lon="10.4894946"><ele>169.0</ele><time>2026-03-29T10:42:37.707Z</time></trkpt><trkpt lat="45.4680251" lon="10.4895738"><ele>170.0</ele><time>2026-03-29T10:42:38.707Z</time></trkpt><trkpt lat="45.4682014" lon="10.4896503"><ele>171.0</ele><time>2026-03-29T10:42:39.707Z</time></trkpt><trkpt lat="45.4683773" lon="10.4897299"><ele>169.0</ele><time>2026-03-29T10:42:40.707Z</time></trkpt><trkpt lat="45.4685439" lon="10.4898033"><ele>167.0</ele><time>2026-03-29T10:42:41.707Z</time></trkpt><trkpt lat="45.4687061" lon="10.4898729"><ele>165.0</ele><time>2026-03-29T10:42:42.707Z</time></trkpt><trkpt lat="45.4688693" lon="10.4899448"><ele>163.66666666666666</ele><time>2026-03-29T10:42:43.707Z</time></trkpt><trkpt lat="45.4690327" lon="10.4900198"><ele>162.33333333333331</ele><time>2026-03-29T10:42:44.707Z</time></trkpt><trkpt lat="45.4691972" lon="10.4900955"><ele>161.0</ele><time>2026-03-29T10:42:45.707Z</time></trkpt><trkpt lat="45.4693679" lon="10.4901711"><ele>161.0</ele><time>2026-03-29T10:42:46.707Z</time></trkpt><trkpt lat="45.469542" lon="10.4902462"><ele>161.0</ele><time>2026-03-29T10:42:47.707Z</time></trkpt><trkpt lat="45.4697196" lon="10.4903223"><ele>161.0</ele><time>2026-03-29T10:42:48.707Z</time></trkpt><trkpt lat="45.4699005" lon="10.490401"><ele>160.0</ele><time>2026-03-29T10:42:49.707Z</time></trkpt><trkpt lat="45.4700847" lon="10.4904828"><ele>159.0</ele><time>2026-03-29T10:42:50.707Z</time></trkpt><trkpt lat="45.470273" lon="10.4905667"><ele>158.0</ele><time>2026-03-29T10:42:51.707Z</time></trkpt><trkpt lat="45.4704641" lon="10.4906514"><ele>157.33333333333331</ele><time>2026-03-29T10:42:52.707Z</time></trkpt><trkpt lat="45.4706576" lon="10.4907338"><ele>156.66666666666666</ele><time>2026-03-29T10:42:53.707Z</time></trkpt><trkpt lat="45.4708535" lon="10.4908155"><ele>156.0</ele><time>2026-03-29T10:42:54.707Z</time></trkpt><trkpt lat="45.4710468" lon="10.4908993"><ele>156.0</ele><time>2026-03-29T10:42:55.707Z</time></trkpt><trkpt lat="45.471227" lon="10.4909796"><ele>156.0</ele><time>2026-03-29T10:42:56.707Z</time></trkpt><trkpt lat="45.4713982" lon="10.4910552"><ele>156.0</ele><time>2026-03-29T10:42:57.707Z</time></trkpt><trkpt lat="45.4715704" lon="10.4911319"><ele>155.33333333333334</ele><time>2026-03-29T10:42:58.707Z</time></trkpt><trkpt lat="45.4717326" lon="10.4912048"><ele>154.66666666666669</ele><time>2026-03-29T10:42:59.707Z</time></trkpt><trkpt lat="45.4718889" lon="10.4912715"><ele>154.0</ele><time>2026-03-29T10:43:00.707Z</time></trkpt><trkpt lat="45.4720349" lon="10.4913363"><ele>153.5</ele><time>2026-03-29T10:43:01.707Z</time></trkpt><trkpt lat="45.4721733" lon="10.4913949"><ele>153.0</ele><time>2026-03-29T10:43:02.707Z</time></trkpt><trkpt lat="45.4723059" lon="10.4914541"><ele>152.5</ele><time>2026-03-29T10:43:03.707Z</time></trkpt><trkpt lat="45.4724318" lon="10.4915123"><ele>152.0</ele><time>2026-03-29T10:43:04.707Z</time></trkpt><trkpt lat="45.4725487" lon="10.4915627"><ele>152.0</ele><time>2026-03-29T10:43:05.707Z</time></trkpt><trkpt lat="45.472647" lon="10.491605"><ele>152.0</ele><time>2026-03-29T10:43:06.707Z</time></trkpt><trkpt lat="45.4727199" lon="10.4916263"><ele>152.0</ele><time>2026-03-29T10:43:07.707Z</time></trkpt><trkpt lat="45.472812" lon="10.4915848"><ele>152.0</ele><time>2026-03-29T10:43:09.707Z</time></trkpt><trkpt lat="45.4728429" lon="10.4915026"><ele>152.0</ele><time>2026-03-29T10:43:10.707Z</time></trkpt><trkpt lat="45.4728712" lon="10.4913562"><ele>152.0</ele><time>2026-03-29T10:43:11.707Z</time></trkpt><trkpt lat="45.4728946" lon="10.4912056"><ele>152.79999999999998</ele><time>2026-03-29T10:43:12.707Z</time></trkpt><trkpt lat="45.4729142" lon="10.4910566"><ele>153.6</ele><time>2026-03-29T10:43:13.707Z</time></trkpt><trkpt lat="45.4729396" lon="10.4909286"><ele>154.39999999999998</ele><time>2026-03-29T10:43:14.707Z</time></trkpt><trkpt lat="45.4729905" lon="10.4908517"><ele>155.2</ele><time>2026-03-29T10:43:15.707Z</time></trkpt><trkpt lat="45.4731181" lon="10.4907956"><ele>156.0</ele><time>2026-03-29T10:43:17.707Z</time></trkpt><trkpt lat="45.4732232" lon="10.4908508"><ele>156.16666666666666</ele><time>2026-03-29T10:43:18.707Z</time></trkpt><trkpt lat="45.4733186" lon="10.4908716"><ele>156.33333333333334</ele><time>2026-03-29T10:43:19.707Z</time></trkpt><trkpt lat="45.4734117" lon="10.4908847"><ele>156.5</ele><time>2026-03-29T10:43:20.707Z</time></trkpt><trkpt lat="45.4734923" lon="10.4908728"><ele>156.66666666666669</ele><time>2026-03-29T10:43:21.707Z</time></trkpt><trkpt lat="45.4735597" lon="10.4908153"><ele>156.83333333333334</ele><time>2026-03-29T10:43:22.707Z</time></trkpt><trkpt lat="45.4736191" lon="10.4907435"><ele>157.0</ele><time>2026-03-29T10:43:23.707Z</time></trkpt><trkpt lat="45.4736695" lon="10.4906826"><ele>157.0</ele><time>2026-03-29T10:43:24.707Z</time></trkpt><trkpt lat="45.4737716" lon="10.4906059"><ele>157.0</ele><time>2026-03-29T10:43:26.707Z</time></trkpt><trkpt lat="45.4738459" lon="10.4905957"><ele>157.0</ele><time>2026-03-29T10:43:27.707Z</time></trkpt><trkpt lat="45.4739473" lon="10.4906093"><ele>157.0</ele><time>2026-03-29T10:43:28.708Z</time></trkpt><trkpt lat="45.4740554" lon="10.4906279"><ele>157.0</ele><time>2026-03-29T10:43:29.707Z</time></trkpt><trkpt lat="45.4741781" lon="10.4906553"><ele>157.75</ele><time>2026-03-29T10:43:30.707Z</time></trkpt><trkpt lat="45.4743078" lon="10.4906808"><ele>158.5</ele><time>2026-03-29T10:43:31.707Z</time></trkpt><trkpt lat="45.4744438" lon="10.4907046"><ele>159.25</ele><time>2026-03-29T10:43:32.707Z</time></trkpt><trkpt lat="45.4745642" lon="10.4907242"><ele>160.0</ele><time>2026-03-29T10:43:33.707Z</time></trkpt><trkpt lat="45.4746739" lon="10.4907339"><ele>160.6</ele><time>2026-03-29T10:43:34.707Z</time></trkpt><trkpt lat="45.4747739" lon="10.4907045"><ele>161.2</ele><time>2026-03-29T10:43:35.708Z</time></trkpt><trkpt lat="45.474869" lon="10.4906411"><ele>161.8</ele><time>2026-03-29T10:43:36.707Z</time></trkpt><trkpt lat="45.4749682" lon="10.4905674"><ele>162.4</ele><time>2026-03-29T10:43:37.707Z</time></trkpt><trkpt lat="45.4750768" lon="10.4905063"><ele>163.0</ele><time>2026-03-29T10:43:38.707Z</time></trkpt><trkpt lat="45.4751775" lon="10.4904556"><ele>163.0</ele><time>2026-03-29T10:43:39.707Z</time></trkpt><trkpt lat="45.475271" lon="10.4904325"><ele>163.0</ele><time>2026-03-29T10:43:40.707Z</time></trkpt><trkpt lat="45.4753665" lon="10.490448"><ele>163.0</ele><time>2026-03-29T10:43:41.708Z</time></trkpt><trkpt lat="45.4754654" lon="10.4904875"><ele>163.0</ele><time>2026-03-29T10:43:42.707Z</time></trkpt><trkpt lat="45.4755758" lon="10.490536"><ele>163.0</ele><time>2026-03-29T10:43:43.707Z</time></trkpt><trkpt lat="45.475703" lon="10.4905734"><ele>164.0</ele><time>2026-03-29T10:43:44.707Z</time></trkpt><trkpt lat="45.4758269" lon="10.4906177"><ele>165.0</ele><time>2026-03-29T10:43:45.707Z</time></trkpt><trkpt lat="45.4759468" lon="10.4906856"><ele>166.0</ele><time>2026-03-29T10:43:46.707Z</time></trkpt><trkpt lat="45.4760512" lon="10.4907843"><ele>167.0</ele><time>2026-03-29T10:43:47.707Z</time></trkpt><trkpt lat="45.4761689" lon="10.4908935"><ele>168.25</ele><time>2026-03-29T10:43:48.707Z</time></trkpt><trkpt lat="45.476291" lon="10.4909903"><ele>169.5</ele><time>2026-03-29T10:43:49.707Z</time></trkpt><trkpt lat="45.4764048" lon="10.4910696"><ele>170.75</ele><time>2026-03-29T10:43:50.707Z</time></trkpt><trkpt lat="45.4765239" lon="10.4911545"><ele>172.0</ele><time>2026-03-29T10:43:51.707Z</time></trkpt><trkpt lat="45.4766462" lon="10.4912392"><ele>170.75</ele><time>2026-03-29T10:43:52.707Z</time></trkpt><trkpt lat="45.4767642" lon="10.4913248"><ele>169.5</ele><time>2026-03-29T10:43:53.707Z</time></trkpt><trkpt lat="45.4768776" lon="10.4914196"><ele>168.25</ele><time>2026-03-29T10:43:54.707Z</time></trkpt><trkpt lat="45.4769829" lon="10.491531"><ele>167.0</ele><time>2026-03-29T10:43:55.707Z</time></trkpt><trkpt lat="45.4770901" lon="10.4916535"><ele>168.0</ele><time>2026-03-29T10:43:56.707Z</time></trkpt><trkpt lat="45.4771968" lon="10.4917839"><ele>169.0</ele><time>2026-03-29T10:43:57.707Z</time></trkpt><trkpt lat="45.4772937" lon="10.4919148"><ele>170.0</ele><time>2026-03-29T10:43:58.707Z</time></trkpt><trkpt lat="45.47739" lon="10.4920296"><ele>171.0</ele><time>2026-03-29T10:43:59.707Z</time></trkpt><trkpt lat="45.4774916" lon="10.4921465"><ele>171.0</ele><time>2026-03-29T10:44:00.707Z</time></trkpt><trkpt lat="45.4775963" lon="10.492273"><ele>171.0</ele><time>2026-03-29T10:44:01.708Z</time></trkpt><trkpt lat="45.4776988" lon="10.4923948"><ele>171.0</ele><time>2026-03-29T10:44:02.707Z</time></trkpt><trkpt lat="45.4777904" lon="10.492496"><ele>171.0</ele><time>2026-03-29T10:44:03.707Z</time></trkpt><trkpt lat="45.477856" lon="10.4925623"><ele>170.60000000000002</ele><time>2026-03-29T10:44:04.707Z</time></trkpt><trkpt lat="45.4779578" lon="10.4926551"><ele>170.2</ele><time>2026-03-29T10:44:06.707Z</time></trkpt><trkpt lat="45.4780319" lon="10.4927236"><ele>169.8</ele><time>2026-03-29T10:44:07.707Z</time></trkpt><trkpt lat="45.4781066" lon="10.4928178"><ele>169.39999999999998</ele><time>2026-03-29T10:44:08.707Z</time></trkpt><trkpt lat="45.4781987" lon="10.4929284"><ele>169.0</ele><time>2026-03-29T10:44:09.707Z</time></trkpt><trkpt lat="45.4782882" lon="10.4930375"><ele>169.0</ele><time>2026-03-29T10:44:10.707Z</time></trkpt><trkpt lat="45.4783773" lon="10.4931404"><ele>169.0</ele><time>2026-03-29T10:44:11.707Z</time></trkpt><trkpt lat="45.4784653" lon="10.4932086"><ele>169.0</ele><time>2026-03-29T10:44:12.707Z</time></trkpt><trkpt lat="45.4785408" lon="10.4932491"><ele>169.0</ele><time>2026-03-29T10:44:13.707Z</time></trkpt><trkpt lat="45.4786052" lon="10.4932514"><ele>169.0</ele><time>2026-03-29T10:44:14.707Z</time></trkpt><trkpt lat="45.4787042" lon="10.49312"><ele>169.0</ele><time>2026-03-29T10:44:16.707Z</time></trkpt><trkpt lat="45.4787356" lon="10.4929891"><ele>169.0</ele><time>2026-03-29T10:44:17.707Z</time></trkpt><trkpt lat="45.4787732" lon="10.4928171"><ele>169.0</ele><time>2026-03-29T10:44:18.707Z</time></trkpt><trkpt lat="45.4788143" lon="10.4926145"><ele>169.0</ele><time>2026-03-29T10:44:19.707Z</time></trkpt><trkpt lat="45.4788533" lon="10.4924091"><ele>170.25</ele><time>2026-03-29T10:44:20.707Z</time></trkpt><trkpt lat="45.4788825" lon="10.4922234"><ele>171.5</ele><time>2026-03-29T10:44:21.707Z</time></trkpt><trkpt lat="45.4789192" lon="10.4920579"><ele>172.75</ele><time>2026-03-29T10:44:22.707Z</time></trkpt><trkpt lat="45.4789676" lon="10.4919037"><ele>174.0</ele><time>2026-03-29T10:44:23.707Z</time></trkpt><trkpt lat="45.4790243" lon="10.4917665"><ele>174.6</ele><time>2026-03-29T10:44:24.707Z</time></trkpt><trkpt lat="45.4790894" lon="10.4916599"><ele>175.2</ele><time>2026-03-29T10:44:25.707Z</time></trkpt><trkpt lat="45.4791661" lon="10.4915842"><ele>175.79999999999998</ele><time>2026-03-29T10:44:26.708Z</time></trkpt><trkpt lat="45.4792543" lon="10.4915455"><ele>176.39999999999998</ele><time>2026-03-29T10:44:27.708Z</time></trkpt><trkpt lat="45.4793548" lon="10.4915377"><ele>177.0</ele><time>2026-03-29T10:44:28.707Z</time></trkpt><trkpt lat="45.4794717" lon="10.4915516"><ele>177.5</ele><time>2026-03-29T10:44:29.707Z</time></trkpt><trkpt lat="45.4796023" lon="10.4915729"><ele>178.0</ele><time>2026-03-29T10:44:30.707Z</time></trkpt><trkpt lat="45.4797463" lon="10.4916061"><ele>178.5</ele><time>2026-03-29T10:44:31.707Z</time></trkpt><trkpt lat="45.4798994" lon="10.4916403"><ele>179.0</ele><time>2026-03-29T10:44:32.707Z</time></trkpt><trkpt lat="45.4800504" lon="10.4916567"><ele>179.0</ele><time>2026-03-29T10:44:33.708Z</time></trkpt><trkpt lat="45.4801831" lon="10.4916587"><ele>179.0</ele><time>2026-03-29T10:44:34.707Z</time></trkpt><trkpt lat="45.4803084" lon="10.4916528"><ele>179.0</ele><time>2026-03-29T10:44:35.707Z</time></trkpt><trkpt lat="45.4804243" lon="10.4916546"><ele>179.0</ele><time>2026-03-29T10:44:36.707Z</time></trkpt><trkpt lat="45.480545" lon="10.491665"><ele>179.5</ele><time>2026-03-29T10:44:37.707Z</time></trkpt><trkpt lat="45.4806606" lon="10.4916954"><ele>180.0</ele><time>2026-03-29T10:44:38.707Z</time></trkpt><trkpt lat="45.480777" lon="10.4917489"><ele>180.5</ele><time>2026-03-29T10:44:39.707Z</time></trkpt><trkpt lat="45.4808994" lon="10.4918094"><ele>181.0</ele><time>2026-03-29T10:44:40.707Z</time></trkpt><trkpt lat="45.4810286" lon="10.4918651"><ele>181.0</ele><time>2026-03-29T10:44:41.707Z</time></trkpt><trkpt lat="45.481161" lon="10.4919006"><ele>181.0</ele><time>2026-03-29T10:44:42.707Z</time></trkpt><trkpt lat="45.4812862" lon="10.4919232"><ele>181.0</ele><time>2026-03-29T10:44:43.707Z</time></trkpt><trkpt lat="45.4814155" lon="10.4919432"><ele>181.0</ele><time>2026-03-29T10:44:44.707Z</time></trkpt><trkpt lat="45.4815475" lon="10.491961"><ele>182.25</ele><time>2026-03-29T10:44:45.707Z</time></trkpt><trkpt lat="45.4816784" lon="10.4919833"><ele>183.5</ele><time>2026-03-29T10:44:46.707Z</time></trkpt><trkpt lat="45.4818049" lon="10.4920163"><ele>184.75</ele><time>2026-03-29T10:44:47.707Z</time></trkpt><trkpt lat="45.4819166" lon="10.4920502"><ele>186.0</ele><time>2026-03-29T10:44:48.707Z</time></trkpt><trkpt lat="45.4820196" lon="10.4920798"><ele>185.16666666666666</ele><time>2026-03-29T10:44:49.707Z</time></trkpt><trkpt lat="45.4821132" lon="10.4921057"><ele>184.33333333333334</ele><time>2026-03-29T10:44:50.708Z</time></trkpt><trkpt lat="45.4821946" lon="10.4921191"><ele>183.5</ele><time>2026-03-29T10:44:51.707Z</time></trkpt><trkpt lat="45.4822682" lon="10.4921186"><ele>182.66666666666669</ele><time>2026-03-29T10:44:52.707Z</time></trkpt><trkpt lat="45.4823706" lon="10.4920877"><ele>181.83333333333334</ele><time>2026-03-29T10:44:54.707Z</time></trkpt><trkpt lat="45.4823902" lon="10.4919953"><ele>181.0</ele><time>2026-03-29T10:44:56.707Z</time></trkpt><trkpt lat="45.4822984" lon="10.4918089"><ele>182.25</ele><time>2026-03-29T10:44:58.707Z</time></trkpt><trkpt lat="45.48222" lon="10.4916862"><ele>183.5</ele><time>2026-03-29T10:44:59.707Z</time></trkpt><trkpt lat="45.4821321" lon="10.4915514"><ele>184.75</ele><time>2026-03-29T10:45:00.707Z</time></trkpt><trkpt lat="45.4820478" lon="10.4914143"><ele>186.0</ele><time>2026-03-29T10:45:01.707Z</time></trkpt><trkpt lat="45.4819345" lon="10.491234"><ele>188.33333333333331</ele><time>2026-03-29T10:45:02.707Z</time></trkpt><trkpt lat="45.4818186" lon="10.4910549"><ele>190.66666666666666</ele><time>2026-03-29T10:45:03.707Z</time></trkpt><trkpt lat="45.4816998" lon="10.4908778"><ele>193.0</ele><time>2026-03-29T10:45:04.707Z</time></trkpt><trkpt lat="45.4815913" lon="10.4907077"><ele>193.0</ele><time>2026-03-29T10:45:05.707Z</time></trkpt><trkpt lat="45.4814924" lon="10.4905587"><ele>193.0</ele><time>2026-03-29T10:45:06.707Z</time></trkpt><trkpt lat="45.4814264" lon="10.4904422"><ele>193.0</ele><time>2026-03-29T10:45:07.707Z</time></trkpt><trkpt lat="45.4813594" lon="10.4903455"><ele>193.0</ele><time>2026-03-29T10:45:08.708Z</time></trkpt><trkpt lat="45.4813181" lon="10.4902736"><ele>193.0</ele><time>2026-03-29T10:45:09.707Z</time></trkpt><trkpt lat="45.4812655" lon="10.490191"><ele>192.33333333333331</ele><time>2026-03-29T10:45:10.707Z</time></trkpt><trkpt lat="45.4812216" lon="10.4901183"><ele>191.66666666666666</ele><time>2026-03-29T10:45:11.707Z</time></trkpt><trkpt lat="45.4811778" lon="10.4900438"><ele>191.0</ele><time>2026-03-29T10:45:12.707Z</time></trkpt><trkpt lat="45.4811314" lon="10.4899738"><ele>190.33333333333331</ele><time>2026-03-29T10:45:13.707Z</time></trkpt><trkpt lat="45.4810487" lon="10.4898534"><ele>189.66666666666666</ele><time>2026-03-29T10:45:15.707Z</time></trkpt><trkpt lat="45.480977" lon="10.4897596"><ele>189.0</ele><time>2026-03-29T10:45:17.707Z</time></trkpt><trkpt lat="45.4808887" lon="10.4896754"><ele>189.0</ele><time>2026-03-29T10:45:19.707Z</time></trkpt><trkpt lat="45.480763" lon="10.4896322"><ele>189.0</ele><time>2026-03-29T10:45:21.707Z</time></trkpt><trkpt lat="45.4806676" lon="10.4896147"><ele>189.0</ele><time>2026-03-29T10:45:22.708Z</time></trkpt><trkpt lat="45.4805625" lon="10.4896074"><ele>189.0</ele><time>2026-03-29T10:45:23.707Z</time></trkpt><trkpt lat="45.4804668" lon="10.4895929"><ele>189.0</ele><time>2026-03-29T10:45:24.707Z</time></trkpt><trkpt lat="45.4803807" lon="10.4895565"><ele>190.79999999999998</ele><time>2026-03-29T10:45:25.707Z</time></trkpt><trkpt lat="45.4802943" lon="10.4894898"><ele>192.6</ele><time>2026-03-29T10:45:26.707Z</time></trkpt><trkpt lat="45.4802193" lon="10.4894361"><ele>194.4</ele><time>2026-03-29T10:45:27.707Z</time></trkpt><trkpt lat="45.4801264" lon="10.4893316"><ele>196.2</ele><time>2026-03-29T10:45:28.707Z</time></trkpt><trkpt lat="45.4800485" lon="10.4892293"><ele>198.0</ele><time>2026-03-29T10:45:29.707Z</time></trkpt><trkpt lat="45.4799746" lon="10.489104"><ele>198.0</ele><time>2026-03-29T10:45:30.707Z</time></trkpt><trkpt lat="45.4798954" lon="10.4889615"><ele>198.0</ele><time>2026-03-29T10:45:31.707Z</time></trkpt><trkpt lat="45.4798251" lon="10.488818"><ele>198.0</ele><time>2026-03-29T10:45:32.707Z</time></trkpt><trkpt lat="45.479766" lon="10.4886626"><ele>198.0</ele><time>2026-03-29T10:45:33.707Z</time></trkpt><trkpt lat="45.4797119" lon="10.4884972"><ele>197.5</ele><time>2026-03-29T10:45:34.707Z</time></trkpt><trkpt lat="45.4796494" lon="10.4883178"><ele>197.0</ele><time>2026-03-29T10:45:35.707Z</time></trkpt><trkpt lat="45.4795988" lon="10.4881518"><ele>196.5</ele><time>2026-03-29T10:45:36.707Z</time></trkpt><trkpt lat="45.479548" lon="10.4879947"><ele>196.0</ele><time>2026-03-29T10:45:37.707Z</time></trkpt><trkpt lat="45.4795017" lon="10.4878626"><ele>197.16666666666666</ele><time>2026-03-29T10:45:38.707Z</time></trkpt><trkpt lat="45.4794554" lon="10.487765"><ele>198.33333333333331</ele><time>2026-03-29T10:45:39.707Z</time></trkpt><trkpt lat="45.4794033" lon="10.4876921"><ele>199.5</ele><time>2026-03-29T10:45:40.707Z</time></trkpt><trkpt lat="45.4793588" lon="10.4876195"><ele>200.66666666666669</ele><time>2026-03-29T10:45:41.707Z</time></trkpt><trkpt lat="45.4793" lon="10.4875595"><ele>201.83333333333334</ele><time>2026-03-29T10:45:42.707Z</time></trkpt><trkpt lat="45.4792217" lon="10.4874734"><ele>203.0</ele><time>2026-03-29T10:45:44.707Z</time></trkpt><trkpt lat="45.4792118" lon="10.4873521"><ele>203.0</ele><time>2026-03-29T10:45:46.707Z</time></trkpt><trkpt lat="45.4792722" lon="10.4871783"><ele>203.0</ele><time>2026-03-29T10:45:48.707Z</time></trkpt><trkpt lat="45.4793264" lon="10.4870347"><ele>203.0</ele><time>2026-03-29T10:45:49.707Z</time></trkpt><trkpt lat="45.4793765" lon="10.4868834"><ele>203.0</ele><time>2026-03-29T10:45:50.707Z</time></trkpt><trkpt lat="45.4794317" lon="10.4866987"><ele>204.0</ele><time>2026-03-29T10:45:51.707Z</time></trkpt><trkpt lat="45.4795122" lon="10.4864752"><ele>205.0</ele><time>2026-03-29T10:45:52.707Z</time></trkpt><trkpt lat="45.4795829" lon="10.4862682"><ele>206.0</ele><time>2026-03-29T10:45:53.707Z</time></trkpt><trkpt lat="45.4796589" lon="10.4860821"><ele>207.33333333333334</ele><time>2026-03-29T10:45:54.707Z</time></trkpt><trkpt lat="45.4797498" lon="10.485888"><ele>208.66666666666669</ele><time>2026-03-29T10:45:55.707Z</time></trkpt><trkpt lat="45.4798336" lon="10.4856989"><ele>210.0</ele><time>2026-03-29T10:45:56.707Z</time></trkpt><trkpt lat="45.4799059" lon="10.4855341"><ele>210.8</ele><time>2026-03-29T10:45:57.707Z</time></trkpt><trkpt lat="45.4799728" lon="10.4853879"><ele>211.6</ele><time>2026-03-29T10:45:58.707Z</time></trkpt><trkpt lat="45.4800326" lon="10.4852597"><ele>212.39999999999998</ele><time>2026-03-29T10:45:59.707Z</time></trkpt><trkpt lat="45.4800824" lon="10.4851426"><ele>213.2</ele><time>2026-03-29T10:46:00.707Z</time></trkpt><trkpt lat="45.480099" lon="10.485022"><ele>214.0</ele><time>2026-03-29T10:46:01.707Z</time></trkpt><trkpt lat="45.480141" lon="10.4848863"><ele>214.0</ele><time>2026-03-29T10:46:02.707Z</time></trkpt><trkpt lat="45.4801853" lon="10.4847342"><ele>213.99999999999997</ele><time>2026-03-29T10:46:03.707Z</time></trkpt><trkpt lat="45.4802218" lon="10.4845868"><ele>213.99999999999997</ele><time>2026-03-29T10:46:04.707Z</time></trkpt><trkpt lat="45.4802478" lon="10.4844317"><ele>214.0</ele><time>2026-03-29T10:46:05.707Z</time></trkpt><trkpt lat="45.4802432" lon="10.4842882"><ele>214.0</ele><time>2026-03-29T10:46:06.707Z</time></trkpt><trkpt lat="45.480219" lon="10.4841456"><ele>215.0</ele><time>2026-03-29T10:46:07.707Z</time></trkpt><trkpt lat="45.480149" lon="10.4839582"><ele>216.0</ele><time>2026-03-29T10:46:08.707Z</time></trkpt><trkpt lat="45.4800981" lon="10.4838035"><ele>217.0</ele><time>2026-03-29T10:46:09.707Z</time></trkpt><trkpt lat="45.4800358" lon="10.4836645"><ele>218.0</ele><time>2026-03-29T10:46:10.707Z</time></trkpt><trkpt lat="45.4799476" lon="10.4835306"><ele>219.0</ele><time>2026-03-29T10:46:11.707Z</time></trkpt><trkpt lat="45.479858" lon="10.48341"><ele>220.0</ele><time>2026-03-29T10:46:12.707Z</time></trkpt><trkpt lat="45.4797982" lon="10.4832917"><ele>221.0</ele><time>2026-03-29T10:46:13.707Z</time></trkpt><trkpt lat="45.4797235" lon="10.4832197"><ele>222.0</ele><time>2026-03-29T10:46:14.707Z</time></trkpt><trkpt lat="45.4797315" lon="10.4831063"><ele>223.0</ele><time>2026-03-29T10:46:15.707Z</time></trkpt><trkpt lat="45.4797327" lon="10.4829782"><ele>224.0</ele><time>2026-03-29T10:46:16.707Z</time></trkpt><trkpt lat="45.4797261" lon="10.4828301"><ele>225.0</ele><time>2026-03-29T10:46:17.707Z</time></trkpt><trkpt lat="45.479705" lon="10.4826699"><ele>226.0</ele><time>2026-03-29T10:46:18.707Z</time></trkpt><trkpt lat="45.4796822" lon="10.4825372"><ele>227.0</ele><time>2026-03-29T10:46:19.707Z</time></trkpt><trkpt lat="45.4796665" lon="10.4824284"><ele>228.0</ele><time>2026-03-29T10:46:20.707Z</time></trkpt><trkpt lat="45.4796475" lon="10.4823216"><ele>228.0</ele><time>2026-03-29T10:46:21.707Z</time></trkpt><trkpt lat="45.4796566" lon="10.4821482"><ele>228.0</ele><time>2026-03-29T10:46:23.707Z</time></trkpt><trkpt lat="45.4796515" lon="10.4820349"><ele>228.0</ele><time>2026-03-29T10:46:24.707Z</time></trkpt><trkpt lat="45.4796254" lon="10.4819256"><ele>228.0</ele><time>2026-03-29T10:46:25.707Z</time></trkpt><trkpt lat="45.4795789" lon="10.4818018"><ele>228.0</ele><time>2026-03-29T10:46:26.707Z</time></trkpt><trkpt lat="45.4795241" lon="10.4816751"><ele>227.2</ele><time>2026-03-29T10:46:27.707Z</time></trkpt><trkpt lat="45.4794666" lon="10.4815447"><ele>226.4</ele><time>2026-03-29T10:46:28.707Z</time></trkpt><trkpt lat="45.4794077" lon="10.4814068"><ele>225.59999999999997</ele><time>2026-03-29T10:46:29.707Z</time></trkpt><trkpt lat="45.4793576" lon="10.4812575"><ele>224.79999999999998</ele><time>2026-03-29T10:46:30.707Z</time></trkpt><trkpt lat="45.4793098" lon="10.4811146"><ele>224.0</ele><time>2026-03-29T10:46:31.707Z</time></trkpt><trkpt lat="45.4792739" lon="10.4809754"><ele>222.66666666666669</ele><time>2026-03-29T10:46:32.707Z</time></trkpt><trkpt lat="45.479251" lon="10.480852"><ele>221.33333333333334</ele><time>2026-03-29T10:46:33.707Z</time></trkpt><trkpt lat="45.4792293" lon="10.4807473"><ele>220.0</ele><time>2026-03-29T10:46:34.707Z</time></trkpt><trkpt lat="45.4791911" lon="10.4806296"><ele>218.66666666666669</ele><time>2026-03-29T10:46:36.707Z</time></trkpt><trkpt lat="45.4791282" lon="10.4805825"><ele>217.33333333333334</ele><time>2026-03-29T10:46:42.707Z</time></trkpt><trkpt lat="45.4790287" lon="10.480562"><ele>216.0</ele><time>2026-03-29T10:46:44.707Z</time></trkpt><trkpt lat="45.4789627" lon="10.4805478"><ele>216.0</ele><time>2026-03-29T10:46:45.707Z</time></trkpt><trkpt lat="45.4788784" lon="10.4805373"><ele>216.0</ele><time>2026-03-29T10:46:46.707Z</time></trkpt><trkpt lat="45.4787818" lon="10.4805228"><ele>216.0</ele><time>2026-03-29T10:46:47.707Z</time></trkpt><trkpt lat="45.4786831" lon="10.4805031"><ele>216.0</ele><time>2026-03-29T10:46:48.707Z</time></trkpt><trkpt lat="45.4786009" lon="10.4804811"><ele>216.0</ele><time>2026-03-29T10:46:49.707Z</time></trkpt><trkpt lat="45.4785301" lon="10.4804493"><ele>216.0</ele><time>2026-03-29T10:46:50.707Z</time></trkpt><trkpt lat="45.4784749" lon="10.4803975"><ele>215.66666666666666</ele><time>2026-03-29T10:46:51.707Z</time></trkpt><trkpt lat="45.4784424" lon="10.4803201"><ele>215.33333333333331</ele><time>2026-03-29T10:46:52.707Z</time></trkpt><trkpt lat="45.4784229" lon="10.4802133"><ele>215.0</ele><time>2026-03-29T10:46:53.707Z</time></trkpt><trkpt lat="45.4784117" lon="10.4800787"><ele>214.66666666666666</ele><time>2026-03-29T10:46:54.707Z</time></trkpt><trkpt lat="45.478391" lon="10.4799661"><ele>214.33333333333331</ele><time>2026-03-29T10:46:55.707Z</time></trkpt><trkpt lat="45.4783571" lon="10.4798754"><ele>214.0</ele><time>2026-03-29T10:46:56.707Z</time></trkpt><trkpt lat="45.4783124" lon="10.4798061"><ele>214.0</ele><time>2026-03-29T10:46:57.707Z</time></trkpt><trkpt lat="45.4781883" lon="10.4797485"><ele>213.99999999999997</ele><time>2026-03-29T10:46:59.707Z</time></trkpt><trkpt lat="45.4781002" lon="10.4797349"><ele>213.99999999999997</ele><time>2026-03-29T10:47:00.707Z</time></trkpt><trkpt lat="45.4779955" lon="10.4797286"><ele>214.0</ele><time>2026-03-29T10:47:01.707Z</time></trkpt><trkpt lat="45.4778878" lon="10.4797372"><ele>214.0</ele><time>2026-03-29T10:47:02.707Z</time></trkpt><trkpt lat="45.4777904" lon="10.4797371"><ele>213.5</ele><time>2026-03-29T10:47:03.707Z</time></trkpt><trkpt lat="45.477691" lon="10.4797092"><ele>213.0</ele><time>2026-03-29T10:47:04.707Z</time></trkpt><trkpt lat="45.4775933" lon="10.4796587"><ele>212.5</ele><time>2026-03-29T10:47:05.707Z</time></trkpt><trkpt lat="45.4774709" lon="10.479576"><ele>212.0</ele><time>2026-03-29T10:47:06.707Z</time></trkpt><trkpt lat="45.4773622" lon="10.4794927"><ele>211.39999999999998</ele><time>2026-03-29T10:47:07.707Z</time></trkpt><trkpt lat="45.4772614" lon="10.4794126"><ele>210.79999999999998</ele><time>2026-03-29T10:47:08.707Z</time></trkpt><trkpt lat="45.4771835" lon="10.4793378"><ele>210.2</ele><time>2026-03-29T10:47:09.707Z</time></trkpt><trkpt lat="45.4771235" lon="10.4792421"><ele>209.6</ele><time>2026-03-29T10:47:10.707Z</time></trkpt><trkpt lat="45.477082" lon="10.4791352"><ele>209.0</ele><time>2026-03-29T10:47:11.707Z</time></trkpt><trkpt lat="45.4770497" lon="10.478999"><ele>208.79999999999998</ele><time>2026-03-29T10:47:12.707Z</time></trkpt><trkpt lat="45.4770167" lon="10.4788716"><ele>208.6</ele><time>2026-03-29T10:47:13.707Z</time></trkpt><trkpt lat="45.4769677" lon="10.4787698"><ele>208.4</ele><time>2026-03-29T10:47:14.707Z</time></trkpt><trkpt lat="45.4768949" lon="10.4786679"><ele>208.2</ele><time>2026-03-29T10:47:15.707Z</time></trkpt><trkpt lat="45.4768073" lon="10.4785684"><ele>208.0</ele><time>2026-03-29T10:47:16.707Z</time></trkpt><trkpt lat="45.4767108" lon="10.4784779"><ele>207.75</ele><time>2026-03-29T10:47:17.707Z</time></trkpt><trkpt lat="45.4765933" lon="10.4783718"><ele>207.5</ele><time>2026-03-29T10:47:18.707Z</time></trkpt><trkpt lat="45.4764928" lon="10.4782807"><ele>207.25</ele><time>2026-03-29T10:47:19.707Z</time></trkpt><trkpt lat="45.4764055" lon="10.4781962"><ele>207.0</ele><time>2026-03-29T10:47:20.707Z</time></trkpt><trkpt lat="45.4763424" lon="10.4781114"><ele>207.0</ele><time>2026-03-29T10:47:21.707Z</time></trkpt><trkpt lat="45.4762917" lon="10.4780145"><ele>207.0</ele><time>2026-03-29T10:47:22.707Z</time></trkpt><trkpt lat="45.4762464" lon="10.4779021"><ele>207.0</ele><time>2026-03-29T10:47:23.707Z</time></trkpt><trkpt lat="45.4762074" lon="10.4777996"><ele>207.0</ele><time>2026-03-29T10:47:24.707Z</time></trkpt><trkpt lat="45.476175" lon="10.4777059"><ele>207.0</ele><time>2026-03-29T10:47:25.707Z</time></trkpt><trkpt lat="45.4761499" lon="10.4776231"><ele>207.0</ele><time>2026-03-29T10:47:26.707Z</time></trkpt><trkpt lat="45.4761134" lon="10.4775356"><ele>205.8</ele><time>2026-03-29T10:47:28.707Z</time></trkpt><trkpt lat="45.4760171" lon="10.4775013"><ele>204.6</ele><time>2026-03-29T10:47:37.707Z</time></trkpt><trkpt lat="45.4759528" lon="10.4775472"><ele>203.4</ele><time>2026-03-29T10:47:38.707Z</time></trkpt><trkpt lat="45.4758845" lon="10.4776089"><ele>202.20000000000002</ele><time>2026-03-29T10:47:39.707Z</time></trkpt><trkpt lat="45.4757857" lon="10.4777043"><ele>201.0</ele><time>2026-03-29T10:47:40.707Z</time></trkpt><trkpt lat="45.47565" lon="10.4778339"><ele>200.0</ele><time>2026-03-29T10:47:41.707Z</time></trkpt><trkpt lat="45.4754976" lon="10.4779617"><ele>199.0</ele><time>2026-03-29T10:47:42.707Z</time></trkpt><trkpt lat="45.4753638" lon="10.4780633"><ele>198.0</ele><time>2026-03-29T10:47:43.707Z</time></trkpt><trkpt lat="45.4752331" lon="10.4781252"><ele>198.0</ele><time>2026-03-29T10:47:44.707Z</time></trkpt><trkpt lat="45.4751228" lon="10.4781513"><ele>198.0</ele><time>2026-03-29T10:47:45.707Z</time></trkpt><trkpt lat="45.4750371" lon="10.4781695"><ele>198.0</ele><time>2026-03-29T10:47:46.707Z</time></trkpt><trkpt lat="45.4749582" lon="10.4781708"><ele>198.0</ele><time>2026-03-29T10:47:47.707Z</time></trkpt><trkpt lat="45.4748881" lon="10.4781507"><ele>198.0</ele><time>2026-03-29T10:47:48.707Z</time></trkpt><trkpt lat="45.4748055" lon="10.4780983"><ele>198.0</ele><time>2026-03-29T10:47:49.707Z</time></trkpt><trkpt lat="45.4747175" lon="10.4780076"><ele>197.75</ele><time>2026-03-29T10:47:50.707Z</time></trkpt><trkpt lat="45.4746572" lon="10.4778619"><ele>197.5</ele><time>2026-03-29T10:47:51.707Z</time></trkpt><trkpt lat="45.4746326" lon="10.4776699"><ele>197.25</ele><time>2026-03-29T10:47:52.707Z</time></trkpt><trkpt lat="45.4746391" lon="10.4774295"><ele>197.0</ele><time>2026-03-29T10:47:53.707Z</time></trkpt><trkpt lat="45.4746672" lon="10.4771431"><ele>196.0</ele><time>2026-03-29T10:47:54.707Z</time></trkpt><trkpt lat="45.4747044" lon="10.4767973"><ele>195.0</ele><time>2026-03-29T10:47:55.707Z</time></trkpt><trkpt lat="45.4747345" lon="10.4764108"><ele>194.0</ele><time>2026-03-29T10:47:56.707Z</time></trkpt><trkpt lat="45.4747392" lon="10.4759917"><ele>193.0</ele><time>2026-03-29T10:47:57.707Z</time></trkpt><trkpt lat="45.4747054" lon="10.4755642"><ele>191.5</ele><time>2026-03-29T10:47:58.707Z</time></trkpt><trkpt lat="45.4746467" lon="10.4751387"><ele>190.0</ele><time>2026-03-29T10:47:59.707Z</time></trkpt><trkpt lat="45.4745794" lon="10.4747409"><ele>187.5</ele><time>2026-03-29T10:48:00.707Z</time></trkpt><trkpt lat="45.474512" lon="10.4743648"><ele>185.0</ele><time>2026-03-29T10:48:01.708Z</time></trkpt><trkpt lat="45.4744369" lon="10.4740067"><ele>183.5</ele><time>2026-03-29T10:48:02.707Z</time></trkpt><trkpt lat="45.4743554" lon="10.4736756"><ele>182.0</ele><time>2026-03-29T10:48:03.707Z</time></trkpt><trkpt lat="45.4742729" lon="10.473365"><ele>182.0</ele><time>2026-03-29T10:48:04.707Z</time></trkpt><trkpt lat="45.4741982" lon="10.4730858"><ele>182.0</ele><time>2026-03-29T10:48:05.707Z</time></trkpt><trkpt lat="45.4741331" lon="10.4728441"><ele>182.0</ele><time>2026-03-29T10:48:06.707Z</time></trkpt><trkpt lat="45.4740901" lon="10.4726287"><ele>181.75</ele><time>2026-03-29T10:48:07.707Z</time></trkpt><trkpt lat="45.4740728" lon="10.4724086"><ele>181.5</ele><time>2026-03-29T10:48:08.707Z</time></trkpt><trkpt lat="45.4740933" lon="10.4722135"><ele>181.25</ele><time>2026-03-29T10:48:09.707Z</time></trkpt><trkpt lat="45.4741623" lon="10.4720228"><ele>181.0</ele><time>2026-03-29T10:48:10.707Z</time></trkpt><trkpt lat="45.4742742" lon="10.4718695"><ele>180.25</ele><time>2026-03-29T10:48:11.707Z</time></trkpt><trkpt lat="45.4744079" lon="10.4717618"><ele>179.5</ele><time>2026-03-29T10:48:12.707Z</time></trkpt><trkpt lat="45.4745468" lon="10.4716749"><ele>178.75</ele><time>2026-03-29T10:48:13.707Z</time></trkpt><trkpt lat="45.4746685" lon="10.4715986"><ele>178.0</ele><time>2026-03-29T10:48:14.707Z</time></trkpt><trkpt lat="45.4747731" lon="10.4715239"><ele>178.0</ele><time>2026-03-29T10:48:15.707Z</time></trkpt><trkpt lat="45.4748573" lon="10.4714627"><ele>178.0</ele><time>2026-03-29T10:48:16.707Z</time></trkpt><trkpt lat="45.4749241" lon="10.4714237"><ele>178.0</ele><time>2026-03-29T10:48:17.707Z</time></trkpt><trkpt lat="45.4750359" lon="10.4714397"><ele>178.0</ele><time>2026-03-29T10:48:19.707Z</time></trkpt><trkpt lat="45.4751068" lon="10.4714487"><ele>178.0</ele><time>2026-03-29T10:48:20.707Z</time></trkpt><trkpt lat="45.4751916" lon="10.4714462"><ele>178.0</ele><time>2026-03-29T10:48:21.708Z</time></trkpt><trkpt lat="45.475277" lon="10.4714277"><ele>178.0</ele><time>2026-03-29T10:48:22.707Z</time></trkpt><trkpt lat="45.4753535" lon="10.4713887"><ele>178.0</ele><time>2026-03-29T10:48:23.707Z</time></trkpt><trkpt lat="45.4754512" lon="10.4712851"><ele>178.0</ele><time>2026-03-29T10:48:25.707Z</time></trkpt><trkpt lat="45.4755217" lon="10.4711639"><ele>178.0</ele><time>2026-03-29T10:48:27.707Z</time></trkpt><trkpt lat="45.4755902" lon="10.4710629"><ele>178.0</ele><time>2026-03-29T10:48:29.707Z</time></trkpt><trkpt lat="45.4756458" lon="10.4709724"><ele>177.16666666666669</ele><time>2026-03-29T10:48:31.707Z</time></trkpt><trkpt lat="45.4756919" lon="10.470889"><ele>176.33333333333334</ele><time>2026-03-29T10:48:34.707Z</time></trkpt><trkpt lat="45.4757382" lon="10.4707812"><ele>175.5</ele><time>2026-03-29T10:48:36.707Z</time></trkpt><trkpt lat="45.4757785" lon="10.4706943"><ele>174.66666666666666</ele><time>2026-03-29T10:48:37.707Z</time></trkpt><trkpt lat="45.4758301" lon="10.4705996"><ele>173.83333333333331</ele><time>2026-03-29T10:48:38.707Z</time></trkpt><trkpt lat="45.4758784" lon="10.4705169"><ele>173.0</ele><time>2026-03-29T10:48:39.707Z</time></trkpt><trkpt lat="45.4759252" lon="10.4704337"><ele>172.5</ele><time>2026-03-29T10:48:40.707Z</time></trkpt><trkpt lat="45.4759835" lon="10.4703241"><ele>172.0</ele><time>2026-03-29T10:48:41.707Z</time></trkpt><trkpt lat="45.4760586" lon="10.4701967"><ele>171.5</ele><time>2026-03-29T10:48:42.707Z</time></trkpt><trkpt lat="45.4761715" lon="10.470006"><ele>171.0</ele><time>2026-03-29T10:48:43.707Z</time></trkpt><trkpt lat="45.4762709" lon="10.4698546"><ele>171.0</ele><time>2026-03-29T10:48:44.707Z</time></trkpt><trkpt lat="45.4763614" lon="10.469726"><ele>171.0</ele><time>2026-03-29T10:48:45.707Z</time></trkpt><trkpt lat="45.4764371" lon="10.4696201"><ele>171.0</ele><time>2026-03-29T10:48:46.707Z</time></trkpt><trkpt lat="45.4764791" lon="10.469546"><ele>171.0</ele><time>2026-03-29T10:48:47.707Z</time></trkpt><trkpt lat="45.4765092" lon="10.4694636"><ele>171.0</ele><time>2026-03-29T10:48:49.707Z</time></trkpt><trkpt lat="45.4764274" lon="10.4696332"><ele>171.0</ele><time>2026-03-29T10:49:07.707Z</time></trkpt><trkpt lat="45.4763476" lon="10.4697386"><ele>171.0</ele><time>2026-03-29T10:49:08.707Z</time></trkpt><trkpt lat="45.4762637" lon="10.4698609"><ele>171.0</ele><time>2026-03-29T10:49:09.707Z</time></trkpt><trkpt lat="45.4761749" lon="10.4699967"><ele>171.0</ele><time>2026-03-29T10:49:10.707Z</time></trkpt><trkpt lat="45.4760863" lon="10.4701342"><ele>171.0</ele><time>2026-03-29T10:49:11.707Z</time></trkpt><trkpt lat="45.4760021" lon="10.4702796"><ele>171.0</ele><time>2026-03-29T10:49:12.707Z</time></trkpt><trkpt lat="45.47592" lon="10.4704374"><ele>171.0</ele><time>2026-03-29T10:49:13.707Z</time></trkpt><trkpt lat="45.4758311" lon="10.470614"><ele>171.0</ele><time>2026-03-29T10:49:14.707Z</time></trkpt><trkpt lat="45.4757234" lon="10.4708104"><ele>171.5</ele><time>2026-03-29T10:49:15.707Z</time></trkpt><trkpt lat="45.4756285" lon="10.4709871"><ele>172.0</ele><time>2026-03-29T10:49:16.707Z</time></trkpt><trkpt lat="45.4755455" lon="10.4711452"><ele>172.5</ele><time>2026-03-29T10:49:17.707Z</time></trkpt><trkpt lat="45.4754715" lon="10.4712685"><ele>173.0</ele><time>2026-03-29T10:49:18.707Z</time></trkpt><trkpt lat="45.4754022" lon="10.4713558"><ele>172.5</ele><time>2026-03-29T10:49:19.707Z</time></trkpt><trkpt lat="45.4753229" lon="10.4714146"><ele>172.0</ele><time>2026-03-29T10:49:20.707Z</time></trkpt><trkpt lat="45.4752387" lon="10.4714477"><ele>171.5</ele><time>2026-03-29T10:49:21.707Z</time></trkpt><trkpt lat="45.475152" lon="10.4714515"><ele>171.0</ele><time>2026-03-29T10:49:22.707Z</time></trkpt><trkpt lat="45.4750709" lon="10.4714262"><ele>170.5</ele><time>2026-03-29T10:49:23.707Z</time></trkpt><trkpt lat="45.4750158" lon="10.4713648"><ele>170.0</ele><time>2026-03-29T10:49:24.707Z</time></trkpt><trkpt lat="45.474999" lon="10.4711977"><ele>170.0</ele><time>2026-03-29T10:49:26.707Z</time></trkpt><trkpt lat="45.4750309" lon="10.4710604"><ele>170.0</ele><time>2026-03-29T10:49:27.707Z</time></trkpt><trkpt lat="45.4750652" lon="10.4708702"><ele>170.0</ele><time>2026-03-29T10:49:28.707Z</time></trkpt><trkpt lat="45.4750762" lon="10.4706271"><ele>170.0</ele><time>2026-03-29T10:49:29.707Z</time></trkpt><trkpt lat="45.4750847" lon="10.4703377"><ele>168.0</ele><time>2026-03-29T10:49:30.707Z</time></trkpt><trkpt lat="45.475099" lon="10.4700178"><ele>166.0</ele><time>2026-03-29T10:49:31.707Z</time></trkpt><trkpt lat="45.4751178" lon="10.469672"><ele>166.0</ele><time>2026-03-29T10:49:32.707Z</time></trkpt><trkpt lat="45.4751356" lon="10.4693123"><ele>166.0</ele><time>2026-03-29T10:49:33.707Z</time></trkpt><trkpt lat="45.4751493" lon="10.4689685"><ele>165.0</ele><time>2026-03-29T10:49:34.707Z</time></trkpt><trkpt lat="45.4751612" lon="10.4686395"><ele>164.0</ele><time>2026-03-29T10:49:35.707Z</time></trkpt><trkpt lat="45.4751715" lon="10.4683278"><ele>164.0</ele><time>2026-03-29T10:49:36.707Z</time></trkpt><trkpt lat="45.4751834" lon="10.4680315"><ele>164.0</ele><time>2026-03-29T10:49:37.707Z</time></trkpt><trkpt lat="45.4751954" lon="10.4677459"><ele>164.0</ele><time>2026-03-29T10:49:38.707Z</time></trkpt><trkpt lat="45.4752085" lon="10.4674596"><ele>163.33333333333331</ele><time>2026-03-29T10:49:39.707Z</time></trkpt><trkpt lat="45.4752246" lon="10.4671692"><ele>162.66666666666666</ele><time>2026-03-29T10:49:40.707Z</time></trkpt><trkpt lat="45.4752432" lon="10.4668784"><ele>162.0</ele><time>2026-03-29T10:49:41.707Z</time></trkpt><trkpt lat="45.4752685" lon="10.4665882"><ele>161.66666666666666</ele><time>2026-03-29T10:49:42.707Z</time></trkpt><trkpt lat="45.4752947" lon="10.4662957"><ele>161.33333333333331</ele><time>2026-03-29T10:49:43.707Z</time></trkpt><trkpt lat="45.4753191" lon="10.4660045"><ele>161.0</ele><time>2026-03-29T10:49:44.707Z</time></trkpt><trkpt lat="45.475342" lon="10.4657189"><ele>160.0</ele><time>2026-03-29T10:49:45.707Z</time></trkpt><trkpt lat="45.4753622" lon="10.465436"><ele>159.0</ele><time>2026-03-29T10:49:46.707Z</time></trkpt><trkpt lat="45.47538" lon="10.4651607"><ele>158.0</ele><time>2026-03-29T10:49:47.707Z</time></trkpt><trkpt lat="45.4753954" lon="10.4648832"><ele>157.66666666666666</ele><time>2026-03-29T10:49:48.707Z</time></trkpt><trkpt lat="45.4754026" lon="10.4646014"><ele>157.33333333333334</ele><time>2026-03-29T10:49:49.707Z</time></trkpt><trkpt lat="45.4753962" lon="10.4643212"><ele>157.0</ele><time>2026-03-29T10:49:50.707Z</time></trkpt><trkpt lat="45.4753877" lon="10.4640554"><ele>157.0</ele><time>2026-03-29T10:49:51.707Z</time></trkpt><trkpt lat="45.4753751" lon="10.4638001"><ele>157.0</ele><time>2026-03-29T10:49:52.707Z</time></trkpt><trkpt lat="45.4753633" lon="10.4635425"><ele>157.0</ele><time>2026-03-29T10:49:53.707Z</time></trkpt><trkpt lat="45.4753582" lon="10.4633026"><ele>156.66666666666669</ele><time>2026-03-29T10:49:54.707Z</time></trkpt><trkpt lat="45.475374" lon="10.4630748"><ele>156.33333333333334</ele><time>2026-03-29T10:49:55.707Z</time></trkpt><trkpt lat="45.4754157" lon="10.4628525"><ele>156.0</ele><time>2026-03-29T10:49:56.707Z</time></trkpt><trkpt lat="45.4754867" lon="10.4626552"><ele>155.33333333333334</ele><time>2026-03-29T10:49:57.707Z</time></trkpt><trkpt lat="45.4755842" lon="10.4624923"><ele>154.66666666666669</ele><time>2026-03-29T10:49:58.707Z</time></trkpt><trkpt lat="45.4756981" lon="10.4623379"><ele>154.0</ele><time>2026-03-29T10:49:59.707Z</time></trkpt><trkpt lat="45.4758104" lon="10.4621792"><ele>154.0</ele><time>2026-03-29T10:50:00.707Z</time></trkpt><trkpt lat="45.4759088" lon="10.4620025"><ele>154.0</ele><time>2026-03-29T10:50:01.708Z</time></trkpt><trkpt lat="45.4759958" lon="10.4618026"><ele>154.0</ele><time>2026-03-29T10:50:02.707Z</time></trkpt><trkpt lat="45.4760774" lon="10.4615893"><ele>154.0</ele><time>2026-03-29T10:50:03.707Z</time></trkpt><trkpt lat="45.4761527" lon="10.4613753"><ele>154.0</ele><time>2026-03-29T10:50:04.707Z</time></trkpt><trkpt lat="45.4762236" lon="10.461162"><ele>154.0</ele><time>2026-03-29T10:50:05.707Z</time></trkpt><trkpt lat="45.4762853" lon="10.4609529"><ele>154.33333333333334</ele><time>2026-03-29T10:50:06.707Z</time></trkpt><trkpt lat="45.4763338" lon="10.460752"><ele>154.66666666666666</ele><time>2026-03-29T10:50:07.707Z</time></trkpt><trkpt lat="45.4763801" lon="10.4605409"><ele>155.0</ele><time>2026-03-29T10:50:08.707Z</time></trkpt><trkpt lat="45.4764254" lon="10.46033"><ele>155.0</ele><time>2026-03-29T10:50:09.707Z</time></trkpt><trkpt lat="45.4764772" lon="10.4601181"><ele>155.0</ele><time>2026-03-29T10:50:10.707Z</time></trkpt><trkpt lat="45.4765322" lon="10.4599114"><ele>155.0</ele><time>2026-03-29T10:50:11.707Z</time></trkpt><trkpt lat="45.4765907" lon="10.4597039"><ele>155.0</ele><time>2026-03-29T10:50:12.707Z</time></trkpt><trkpt lat="45.4766526" lon="10.4594977"><ele>155.0</ele><time>2026-03-29T10:50:13.707Z</time></trkpt><trkpt lat="45.4767173" lon="10.4592871"><ele>155.0</ele><time>2026-03-29T10:50:14.707Z</time></trkpt><trkpt lat="45.476779" lon="10.4590735"><ele>155.0</ele><time>2026-03-29T10:50:15.707Z</time></trkpt><trkpt lat="45.4768317" lon="10.4588509"><ele>155.0</ele><time>2026-03-29T10:50:16.707Z</time></trkpt><trkpt lat="45.4768699" lon="10.4586471"><ele>155.0</ele><time>2026-03-29T10:50:17.707Z</time></trkpt><trkpt lat="45.4769009" lon="10.4584631"><ele>155.0</ele><time>2026-03-29T10:50:18.707Z</time></trkpt><trkpt lat="45.4769325" lon="10.4582884"><ele>155.0</ele><time>2026-03-29T10:50:19.707Z</time></trkpt><trkpt lat="45.4769655" lon="10.4581065"><ele>155.0</ele><time>2026-03-29T10:50:20.707Z</time></trkpt><trkpt lat="45.4770026" lon="10.4579211"><ele>155.0</ele><time>2026-03-29T10:50:21.707Z</time></trkpt><trkpt lat="45.477042" lon="10.4577392"><ele>155.0</ele><time>2026-03-29T10:50:22.707Z</time></trkpt><trkpt lat="45.4770788" lon="10.4575688"><ele>154.5</ele><time>2026-03-29T10:50:23.707Z</time></trkpt><trkpt lat="45.4771097" lon="10.457391"><ele>154.0</ele><time>2026-03-29T10:50:24.707Z</time></trkpt><trkpt lat="45.4771427" lon="10.4572082"><ele>153.5</ele><time>2026-03-29T10:50:25.707Z</time></trkpt><trkpt lat="45.477178" lon="10.4570277"><ele>153.0</ele><time>2026-03-29T10:50:26.707Z</time></trkpt><trkpt lat="45.4772112" lon="10.4568514"><ele>153.0</ele><time>2026-03-29T10:50:27.707Z</time></trkpt><trkpt lat="45.4772484" lon="10.4566808"><ele>153.0</ele><time>2026-03-29T10:50:28.707Z</time></trkpt><trkpt lat="45.47729" lon="10.4565194"><ele>153.0</ele><time>2026-03-29T10:50:29.707Z</time></trkpt><trkpt lat="45.4773297" lon="10.4563716"><ele>153.0</ele><time>2026-03-29T10:50:30.707Z</time></trkpt><trkpt lat="45.4773846" lon="10.4562403"><ele>153.20000000000002</ele><time>2026-03-29T10:50:31.707Z</time></trkpt><trkpt lat="45.4774506" lon="10.4561326"><ele>153.4</ele><time>2026-03-29T10:50:32.707Z</time></trkpt><trkpt lat="45.4775253" lon="10.4560381"><ele>153.60000000000002</ele><time>2026-03-29T10:50:33.707Z</time></trkpt><trkpt lat="45.4776113" lon="10.4559386"><ele>153.8</ele><time>2026-03-29T10:50:34.707Z</time></trkpt><trkpt lat="45.4777036" lon="10.4558309"><ele>154.0</ele><time>2026-03-29T10:50:35.707Z</time></trkpt><trkpt lat="45.4778023" lon="10.4557113"><ele>154.0</ele><time>2026-03-29T10:50:36.707Z</time></trkpt><trkpt lat="45.4779074" lon="10.4555806"><ele>154.0</ele><time>2026-03-29T10:50:37.707Z</time></trkpt><trkpt lat="45.4780181" lon="10.4554428"><ele>154.0</ele><time>2026-03-29T10:50:38.707Z</time></trkpt><trkpt lat="45.4781361" lon="10.4553"><ele>154.0</ele><time>2026-03-29T10:50:39.707Z</time></trkpt><trkpt lat="45.4782572" lon="10.455149"><ele>153.0</ele><time>2026-03-29T10:50:40.707Z</time></trkpt><trkpt lat="45.4783811" lon="10.4549882"><ele>152.0</ele><time>2026-03-29T10:50:41.707Z</time></trkpt><trkpt lat="45.4785082" lon="10.4548289"><ele>151.0</ele><time>2026-03-29T10:50:42.707Z</time></trkpt><trkpt lat="45.4786375" lon="10.4546702"><ele>151.0</ele><time>2026-03-29T10:50:43.707Z</time></trkpt><trkpt lat="45.4787687" lon="10.4545098"><ele>151.0</ele><time>2026-03-29T10:50:44.707Z</time></trkpt><trkpt lat="45.4788977" lon="10.4543499"><ele>151.0</ele><time>2026-03-29T10:50:45.707Z</time></trkpt><trkpt lat="45.4790254" lon="10.4541879"><ele>151.0</ele><time>2026-03-29T10:50:46.707Z</time></trkpt><trkpt lat="45.479152" lon="10.4540342"><ele>151.0</ele><time>2026-03-29T10:50:47.707Z</time></trkpt><trkpt lat="45.479272" lon="10.4539003"><ele>151.0</ele><time>2026-03-29T10:50:48.707Z</time></trkpt><trkpt lat="45.4793878" lon="10.4537832"><ele>151.0</ele><time>2026-03-29T10:50:49.707Z</time></trkpt><trkpt lat="45.4795069" lon="10.453667"><ele>151.0</ele><time>2026-03-29T10:50:50.707Z</time></trkpt><trkpt lat="45.479619" lon="10.4535636"><ele>151.0</ele><time>2026-03-29T10:50:51.707Z</time></trkpt><trkpt lat="45.4797104" lon="10.4534892"><ele>151.0</ele><time>2026-03-29T10:50:52.707Z</time></trkpt><trkpt lat="45.4797889" lon="10.4534292"><ele>151.2</ele><time>2026-03-29T10:50:53.707Z</time></trkpt><trkpt lat="45.4798625" lon="10.4533731"><ele>151.39999999999998</ele><time>2026-03-29T10:50:54.707Z</time></trkpt><trkpt lat="45.4799273" lon="10.453332"><ele>151.6</ele><time>2026-03-29T10:50:55.707Z</time></trkpt><trkpt lat="45.4800403" lon="10.4532951"><ele>151.79999999999998</ele><time>2026-03-29T10:50:57.708Z</time></trkpt><trkpt lat="45.4801648" lon="10.4533048"><ele>152.0</ele><time>2026-03-29T10:50:59.707Z</time></trkpt><trkpt lat="45.4802465" lon="10.4533072"><ele>152.0</ele><time>2026-03-29T10:51:00.707Z</time></trkpt><trkpt lat="45.4803383" lon="10.4533138"><ele>152.0</ele><time>2026-03-29T10:51:01.707Z</time></trkpt><trkpt lat="45.4804488" lon="10.4533273"><ele>152.0</ele><time>2026-03-29T10:51:02.708Z</time></trkpt><trkpt lat="45.4805722" lon="10.4533465"><ele>152.0</ele><time>2026-03-29T10:51:03.707Z</time></trkpt><trkpt lat="45.4807091" lon="10.453363"><ele>152.0</ele><time>2026-03-29T10:51:04.707Z</time></trkpt><trkpt lat="45.4808516" lon="10.4533821"><ele>152.0</ele><time>2026-03-29T10:51:05.707Z</time></trkpt><trkpt lat="45.4809895" lon="10.4534015"><ele>152.0</ele><time>2026-03-29T10:51:06.707Z</time></trkpt><trkpt lat="45.4811302" lon="10.4534219"><ele>152.0</ele><time>2026-03-29T10:51:07.707Z</time></trkpt><trkpt lat="45.4812683" lon="10.4534445"><ele>152.0</ele><time>2026-03-29T10:51:08.707Z</time></trkpt><trkpt lat="45.4813903" lon="10.4534665"><ele>152.0</ele><time>2026-03-29T10:51:09.707Z</time></trkpt><trkpt lat="45.481504" lon="10.4534816"><ele>152.0</ele><time>2026-03-29T10:51:10.707Z</time></trkpt><trkpt lat="45.4816075" lon="10.4534951"><ele>152.0</ele><time>2026-03-29T10:51:11.707Z</time></trkpt><trkpt lat="45.481697" lon="10.4535118"><ele>152.0</ele><time>2026-03-29T10:51:12.707Z</time></trkpt><trkpt lat="45.4817858" lon="10.4535272"><ele>152.0</ele><time>2026-03-29T10:51:13.707Z</time></trkpt><trkpt lat="45.4818881" lon="10.4535461"><ele>152.0</ele><time>2026-03-29T10:51:14.707Z</time></trkpt><trkpt lat="45.4819845" lon="10.4535654"><ele>152.0</ele><time>2026-03-29T10:51:15.707Z</time></trkpt><trkpt lat="45.4820853" lon="10.4535822"><ele>152.0</ele><time>2026-03-29T10:51:16.708Z</time></trkpt><trkpt lat="45.4821985" lon="10.4536015"><ele>152.0</ele><time>2026-03-29T10:51:17.707Z</time></trkpt><trkpt lat="45.4823177" lon="10.4536198"><ele>152.0</ele><time>2026-03-29T10:51:18.707Z</time></trkpt><trkpt lat="45.4824389" lon="10.4536358"><ele>152.0</ele><time>2026-03-29T10:51:19.707Z</time></trkpt><trkpt lat="45.4825641" lon="10.4536552"><ele>152.0</ele><time>2026-03-29T10:51:20.707Z</time></trkpt><trkpt lat="45.4826794" lon="10.4536742"><ele>152.0</ele><time>2026-03-29T10:51:21.707Z</time></trkpt><trkpt lat="45.4827957" lon="10.4536928"><ele>152.0</ele><time>2026-03-29T10:51:22.707Z</time></trkpt><trkpt lat="45.4829108" lon="10.4537104"><ele>152.0</ele><time>2026-03-29T10:51:23.707Z</time></trkpt><trkpt lat="45.4830412" lon="10.453717"><ele>152.0</ele><time>2026-03-29T10:51:24.707Z</time></trkpt><trkpt lat="45.483168" lon="10.4537283"><ele>152.0</ele><time>2026-03-29T10:51:25.707Z</time></trkpt><trkpt lat="45.4833154" lon="10.4537496"><ele>152.33333333333331</ele><time>2026-03-29T10:51:26.707Z</time></trkpt><trkpt lat="45.4834786" lon="10.4537735"><ele>152.66666666666666</ele><time>2026-03-29T10:51:27.707Z</time></trkpt><trkpt lat="45.4836379" lon="10.453799"><ele>153.0</ele><time>2026-03-29T10:51:28.707Z</time></trkpt><trkpt lat="45.4837892" lon="10.4538233"><ele>153.5</ele><time>2026-03-29T10:51:29.707Z</time></trkpt><trkpt lat="45.4839332" lon="10.4538486"><ele>154.0</ele><time>2026-03-29T10:51:30.707Z</time></trkpt><trkpt lat="45.4840651" lon="10.4538724"><ele>154.5</ele><time>2026-03-29T10:51:31.707Z</time></trkpt><trkpt lat="45.4841833" lon="10.4538899"><ele>155.0</ele><time>2026-03-29T10:51:32.707Z</time></trkpt><trkpt lat="45.4842905" lon="10.4539033"><ele>155.0</ele><time>2026-03-29T10:51:33.707Z</time></trkpt><trkpt lat="45.4843896" lon="10.4539155"><ele>155.0</ele><time>2026-03-29T10:51:34.707Z</time></trkpt><trkpt lat="45.4844685" lon="10.453926"><ele>155.0</ele><time>2026-03-29T10:51:35.707Z</time></trkpt><trkpt lat="45.4845294" lon="10.45395"><ele>155.0</ele><time>2026-03-29T10:51:36.707Z</time></trkpt><trkpt lat="45.4845874" lon="10.4540471"><ele>155.0</ele><time>2026-03-29T10:51:38.707Z</time></trkpt><trkpt lat="45.4845862" lon="10.4542398"><ele>155.0</ele><time>2026-03-29T10:51:40.708Z</time></trkpt><trkpt lat="45.4845762" lon="10.4543885"><ele>155.0</ele><time>2026-03-29T10:51:41.707Z</time></trkpt><trkpt lat="45.4845686" lon="10.454547"><ele>155.0</ele><time>2026-03-29T10:51:42.707Z</time></trkpt><trkpt lat="45.4845646" lon="10.4547069"><ele>155.0</ele><time>2026-03-29T10:51:43.707Z</time></trkpt><trkpt lat="45.4845608" lon="10.4548678"><ele>155.0</ele><time>2026-03-29T10:51:44.707Z</time></trkpt><trkpt lat="45.4845595" lon="10.4550517"><ele>155.25</ele><time>2026-03-29T10:51:45.707Z</time></trkpt><trkpt lat="45.4845578" lon="10.4552647"><ele>155.5</ele><time>2026-03-29T10:51:46.707Z</time></trkpt><trkpt lat="45.4845571" lon="10.4554774"><ele>155.75</ele><time>2026-03-29T10:51:47.707Z</time></trkpt><trkpt lat="45.484552" lon="10.4556782"><ele>156.0</ele><time>2026-03-29T10:51:48.707Z</time></trkpt><trkpt lat="45.4845522" lon="10.4558812"><ele>156.25</ele><time>2026-03-29T10:51:49.707Z</time></trkpt><trkpt lat="45.4845557" lon="10.4560723"><ele>156.5</ele><time>2026-03-29T10:51:50.707Z</time></trkpt><trkpt lat="45.4845586" lon="10.4562658"><ele>156.75</ele><time>2026-03-29T10:51:51.707Z</time></trkpt><trkpt lat="45.4845584" lon="10.4564525"><ele>157.0</ele><time>2026-03-29T10:51:52.708Z</time></trkpt><trkpt lat="45.4845593" lon="10.4566446"><ele>157.0</ele><time>2026-03-29T10:51:53.707Z</time></trkpt><trkpt lat="45.484558" lon="10.4568391"><ele>157.0</ele><time>2026-03-29T10:51:54.707Z</time></trkpt><trkpt lat="45.4845576" lon="10.4570425"><ele>157.0</ele><time>2026-03-29T10:51:55.707Z</time></trkpt><trkpt lat="45.4845556" lon="10.4572474"><ele>157.0</ele><time>2026-03-29T10:51:56.707Z</time></trkpt><trkpt lat="45.4845493" lon="10.4574372"><ele>157.0</ele><time>2026-03-29T10:51:57.707Z</time></trkpt><trkpt lat="45.4845427" lon="10.4576179"><ele>157.0</ele><time>2026-03-29T10:51:58.707Z</time></trkpt><trkpt lat="45.4845375" lon="10.4577794"><ele>157.0</ele><time>2026-03-29T10:51:59.707Z</time></trkpt><trkpt lat="45.4845284" lon="10.4579211"><ele>157.0</ele><time>2026-03-29T10:52:00.707Z</time></trkpt><trkpt lat="45.484507" lon="10.458041"><ele>157.0</ele><time>2026-03-29T10:52:01.707Z</time></trkpt><trkpt lat="45.4844696" lon="10.4581581"><ele>157.2</ele><time>2026-03-29T10:52:02.707Z</time></trkpt><trkpt lat="45.4844046" lon="10.4582888"><ele>157.39999999999998</ele><time>2026-03-29T10:52:03.707Z</time></trkpt><trkpt lat="45.4843337" lon="10.4584138"><ele>157.60000000000002</ele><time>2026-03-29T10:52:04.707Z</time></trkpt><trkpt lat="45.4842627" lon="10.4585188"><ele>157.8</ele><time>2026-03-29T10:52:05.707Z</time></trkpt><trkpt lat="45.4841827" lon="10.4586374"><ele>158.0</ele><time>2026-03-29T10:52:06.708Z</time></trkpt><trkpt lat="45.4841054" lon="10.4587685"><ele>158.60000000000002</ele><time>2026-03-29T10:52:07.708Z</time></trkpt><trkpt lat="45.484023" lon="10.458897"><ele>159.20000000000002</ele><time>2026-03-29T10:52:08.707Z</time></trkpt><trkpt lat="45.4839469" lon="10.4590215"><ele>159.8</ele><time>2026-03-29T10:52:09.707Z</time></trkpt><trkpt lat="45.4838781" lon="10.4591326"><ele>160.4</ele><time>2026-03-29T10:52:10.707Z</time></trkpt><trkpt lat="45.4838211" lon="10.459235"><ele>161.0</ele><time>2026-03-29T10:52:11.707Z</time></trkpt><trkpt lat="45.4837891" lon="10.4593258"><ele>161.0</ele><time>2026-03-29T10:52:12.707Z</time></trkpt><trkpt lat="45.4838007" lon="10.4595014"><ele>161.0</ele><time>2026-03-29T10:52:14.707Z</time></trkpt><trkpt lat="45.483828" lon="10.4596346"><ele>161.0</ele><time>2026-03-29T10:52:15.707Z</time></trkpt><trkpt lat="45.4838579" lon="10.4597853"><ele>161.0</ele><time>2026-03-29T10:52:16.707Z</time></trkpt><trkpt lat="45.483879" lon="10.4599491"><ele>161.0</ele><time>2026-03-29T10:52:17.707Z</time></trkpt><trkpt lat="45.4839023" lon="10.4601334"><ele>161.25</ele><time>2026-03-29T10:52:18.707Z</time></trkpt><trkpt lat="45.4839225" lon="10.460314"><ele>161.5</ele><time>2026-03-29T10:52:19.707Z</time></trkpt><trkpt lat="45.4839422" lon="10.4605079"><ele>161.75</ele><time>2026-03-29T10:52:20.707Z</time></trkpt><trkpt lat="45.4839519" lon="10.4607074"><ele>162.0</ele><time>2026-03-29T10:52:21.707Z</time></trkpt><trkpt lat="45.4839546" lon="10.4608928"><ele>162.0</ele><time>2026-03-29T10:52:22.707Z</time></trkpt><trkpt lat="45.4839533" lon="10.4610597"><ele>162.0</ele><time>2026-03-29T10:52:23.707Z</time></trkpt><trkpt lat="45.483949" lon="10.4612212"><ele>162.0</ele><time>2026-03-29T10:52:24.707Z</time></trkpt><trkpt lat="45.4839455" lon="10.4613893"><ele>162.0</ele><time>2026-03-29T10:52:25.707Z</time></trkpt><trkpt lat="45.4839363" lon="10.4615373"><ele>162.0</ele><time>2026-03-29T10:52:26.707Z</time></trkpt><trkpt lat="45.4839305" lon="10.4616638"><ele>162.0</ele><time>2026-03-29T10:52:27.707Z</time></trkpt><trkpt lat="45.483933" lon="10.4617557"><ele>162.0</ele><time>2026-03-29T10:52:28.707Z</time></trkpt><trkpt lat="45.483989" lon="10.461892"><ele>162.0</ele><time>2026-03-29T10:52:30.707Z</time></trkpt><trkpt lat="45.4840407" lon="10.4619775"><ele>162.0</ele><time>2026-03-29T10:52:31.707Z</time></trkpt><trkpt lat="45.4840916" lon="10.4620939"><ele>162.0</ele><time>2026-03-29T10:52:32.707Z</time></trkpt><trkpt lat="45.484152" lon="10.4622299"><ele>162.2</ele><time>2026-03-29T10:52:33.707Z</time></trkpt><trkpt lat="45.4842191" lon="10.4623628"><ele>162.39999999999998</ele><time>2026-03-29T10:52:34.707Z</time></trkpt><trkpt lat="45.4842722" lon="10.462505"><ele>162.60000000000002</ele><time>2026-03-29T10:52:35.707Z</time></trkpt><trkpt lat="45.4843068" lon="10.4626637"><ele>162.8</ele><time>2026-03-29T10:52:36.707Z</time></trkpt><trkpt lat="45.4843467" lon="10.4627969"><ele>163.0</ele><time>2026-03-29T10:52:37.707Z</time></trkpt><trkpt lat="45.4844035" lon="10.4629126"><ele>163.16666666666669</ele><time>2026-03-29T10:52:38.707Z</time></trkpt><trkpt lat="45.4844604" lon="10.4630034"><ele>163.33333333333334</ele><time>2026-03-29T10:52:39.707Z</time></trkpt><trkpt lat="45.4845122" lon="10.4630793"><ele>163.5</ele><time>2026-03-29T10:52:40.707Z</time></trkpt><trkpt lat="45.4845504" lon="10.4631574"><ele>163.66666666666666</ele><time>2026-03-29T10:52:41.707Z</time></trkpt><trkpt lat="45.4845717" lon="10.4632473"><ele>163.83333333333331</ele><time>2026-03-29T10:52:42.707Z</time></trkpt><trkpt lat="45.484581" lon="10.4633598"><ele>164.0</ele><time>2026-03-29T10:52:43.707Z</time></trkpt><trkpt lat="45.4845851" lon="10.4635037"><ele>164.0</ele><time>2026-03-29T10:52:44.707Z</time></trkpt><trkpt lat="45.484592" lon="10.4636875"><ele>164.0</ele><time>2026-03-29T10:52:45.707Z</time></trkpt><trkpt lat="45.4846074" lon="10.4638981"><ele>164.0</ele><time>2026-03-29T10:52:46.707Z</time></trkpt><trkpt lat="45.4846263" lon="10.4641165"><ele>164.0</ele><time>2026-03-29T10:52:47.707Z</time></trkpt><trkpt lat="45.4846537" lon="10.4643432"><ele>164.25</ele><time>2026-03-29T10:52:48.707Z</time></trkpt><trkpt lat="45.4846755" lon="10.464552"><ele>164.5</ele><time>2026-03-29T10:52:49.707Z</time></trkpt><trkpt lat="45.4846937" lon="10.4647533"><ele>164.75</ele><time>2026-03-29T10:52:50.707Z</time></trkpt><trkpt lat="45.4847133" lon="10.464951"><ele>165.0</ele><time>2026-03-29T10:52:51.707Z</time></trkpt><trkpt lat="45.4847399" lon="10.4651754"><ele>165.33333333333334</ele><time>2026-03-29T10:52:52.707Z</time></trkpt><trkpt lat="45.4847702" lon="10.4654211"><ele>165.66666666666669</ele><time>2026-03-29T10:52:53.707Z</time></trkpt><trkpt lat="45.4848044" lon="10.4656921"><ele>166.0</ele><time>2026-03-29T10:52:54.707Z</time></trkpt><trkpt lat="45.4848356" lon="10.4659715"><ele>166.33333333333334</ele><time>2026-03-29T10:52:55.707Z</time></trkpt><trkpt lat="45.4848647" lon="10.4662307"><ele>166.66666666666666</ele><time>2026-03-29T10:52:56.707Z</time></trkpt><trkpt lat="45.4848925" lon="10.4664731"><ele>167.0</ele><time>2026-03-29T10:52:57.707Z</time></trkpt><trkpt lat="45.4849314" lon="10.4667083"><ele>167.66666666666666</ele><time>2026-03-29T10:52:58.707Z</time></trkpt><trkpt lat="45.4849685" lon="10.4669339"><ele>168.33333333333334</ele><time>2026-03-29T10:52:59.707Z</time></trkpt><trkpt lat="45.4849984" lon="10.4671698"><ele>169.0</ele><time>2026-03-29T10:53:00.707Z</time></trkpt><trkpt lat="45.485023" lon="10.4674034"><ele>169.0</ele><time>2026-03-29T10:53:01.707Z</time></trkpt><trkpt lat="45.4850438" lon="10.467639"><ele>169.0</ele><time>2026-03-29T10:53:02.707Z</time></trkpt><trkpt lat="45.4850606" lon="10.4678502"><ele>169.0</ele><time>2026-03-29T10:53:03.707Z</time></trkpt><trkpt lat="45.4850731" lon="10.4680377"><ele>169.0</ele><time>2026-03-29T10:53:04.707Z</time></trkpt><trkpt lat="45.4850821" lon="10.4682045"><ele>169.2</ele><time>2026-03-29T10:53:05.707Z</time></trkpt><trkpt lat="45.4850873" lon="10.4683635"><ele>169.39999999999998</ele><time>2026-03-29T10:53:06.707Z</time></trkpt><trkpt lat="45.4850913" lon="10.4685291"><ele>169.6</ele><time>2026-03-29T10:53:07.707Z</time></trkpt><trkpt lat="45.4850998" lon="10.4686754"><ele>169.8</ele><time>2026-03-29T10:53:08.707Z</time></trkpt><trkpt lat="45.4851082" lon="10.468804"><ele>170.0</ele><time>2026-03-29T10:53:09.707Z</time></trkpt><trkpt lat="45.4851099" lon="10.4689202"><ele>170.2</ele><time>2026-03-29T10:53:10.707Z</time></trkpt><trkpt lat="45.4851161" lon="10.4690277"><ele>170.4</ele><time>2026-03-29T10:53:11.707Z</time></trkpt><trkpt lat="45.4851186" lon="10.4691607"><ele>170.60000000000002</ele><time>2026-03-29T10:53:12.707Z</time></trkpt><trkpt lat="45.4851163" lon="10.4693212"><ele>170.8</ele><time>2026-03-29T10:53:13.707Z</time></trkpt><trkpt lat="45.4851105" lon="10.4694599"><ele>171.0</ele><time>2026-03-29T10:53:14.707Z</time></trkpt><trkpt lat="45.4851121" lon="10.4695957"><ele>171.20000000000002</ele><time>2026-03-29T10:53:15.707Z</time></trkpt><trkpt lat="45.4851236" lon="10.4697334"><ele>171.4</ele><time>2026-03-29T10:53:16.707Z</time></trkpt><trkpt lat="45.4851444" lon="10.4698838"><ele>171.6</ele><time>2026-03-29T10:53:17.707Z</time></trkpt><trkpt lat="45.4851672" lon="10.4700426"><ele>171.8</ele><time>2026-03-29T10:53:18.707Z</time></trkpt><trkpt lat="45.4851909" lon="10.4702093"><ele>172.0</ele><time>2026-03-29T10:53:19.707Z</time></trkpt><trkpt lat="45.4852144" lon="10.4703675"><ele>172.75</ele><time>2026-03-29T10:53:20.707Z</time></trkpt><trkpt lat="45.4852354" lon="10.4705195"><ele>173.5</ele><time>2026-03-29T10:53:21.707Z</time></trkpt><trkpt lat="45.4852561" lon="10.4706886"><ele>174.25</ele><time>2026-03-29T10:53:22.707Z</time></trkpt><trkpt lat="45.4852802" lon="10.4708677"><ele>175.0</ele><time>2026-03-29T10:53:23.707Z</time></trkpt><trkpt lat="45.4853105" lon="10.4710481"><ele>175.0</ele><time>2026-03-29T10:53:24.707Z</time></trkpt><trkpt lat="45.485348" lon="10.4712292"><ele>175.0</ele><time>2026-03-29T10:53:25.707Z</time></trkpt><trkpt lat="45.4853861" lon="10.4714004"><ele>175.0</ele><time>2026-03-29T10:53:26.707Z</time></trkpt><trkpt lat="45.4854282" lon="10.4715624"><ele>175.0</ele><time>2026-03-29T10:53:27.707Z</time></trkpt><trkpt lat="45.4854701" lon="10.471723"><ele>176.0</ele><time>2026-03-29T10:53:28.707Z</time></trkpt><trkpt lat="45.485505" lon="10.4718965"><ele>177.0</ele><time>2026-03-29T10:53:29.707Z</time></trkpt><trkpt lat="45.4855338" lon="10.4720617"><ele>178.0</ele><time>2026-03-29T10:53:30.707Z</time></trkpt><trkpt lat="45.4855678" lon="10.4722103"><ele>179.0</ele><time>2026-03-29T10:53:31.707Z</time></trkpt><trkpt lat="45.4856037" lon="10.4723198"><ele>180.0</ele><time>2026-03-29T10:53:32.707Z</time></trkpt><trkpt lat="45.4857043" lon="10.4723684"><ele>180.6</ele><time>2026-03-29T10:53:34.707Z</time></trkpt><trkpt lat="45.4858245" lon="10.4723687"><ele>181.2</ele><time>2026-03-29T10:53:36.707Z</time></trkpt><trkpt lat="45.4858897" lon="10.4724202"><ele>181.8</ele><time>2026-03-29T10:53:37.707Z</time></trkpt><trkpt lat="45.4859506" lon="10.4725345"><ele>182.4</ele><time>2026-03-29T10:53:38.707Z</time></trkpt><trkpt lat="45.4860153" lon="10.4726016"><ele>183.0</ele><time>2026-03-29T10:53:39.707Z</time></trkpt><trkpt lat="45.4861142" lon="10.4726787"><ele>183.0</ele><time>2026-03-29T10:53:40.707Z</time></trkpt><trkpt lat="45.4861562" lon="10.4727786"><ele>183.0</ele><time>2026-03-29T10:53:41.707Z</time></trkpt><trkpt lat="45.4861846" lon="10.4728618"><ele>183.0</ele><time>2026-03-29T10:53:42.707Z</time></trkpt><trkpt lat="45.4862313" lon="10.4729384"><ele>183.0</ele><time>2026-03-29T10:54:30.707Z</time></trkpt><trkpt lat="45.4863055" lon="10.4729592"><ele>183.0</ele><time>2026-03-29T10:54:31.707Z</time></trkpt><trkpt lat="45.4863805" lon="10.4729319"><ele>183.0</ele><time>2026-03-29T10:54:32.707Z</time></trkpt><trkpt lat="45.4864612" lon="10.472839"><ele>182.0</ele><time>2026-03-29T10:54:33.707Z</time></trkpt><trkpt lat="45.4865549" lon="10.4727125"><ele>181.0</ele><time>2026-03-29T10:54:34.707Z</time></trkpt><trkpt lat="45.4866683" lon="10.4725615"><ele>180.0</ele><time>2026-03-29T10:54:35.707Z</time></trkpt><trkpt lat="45.4868046" lon="10.4723864"><ele>180.0</ele><time>2026-03-29T10:54:36.707Z</time></trkpt><trkpt lat="45.4869663" lon="10.4721709"><ele>180.0</ele><time>2026-03-29T10:54:37.708Z</time></trkpt><trkpt lat="45.4871132" lon="10.4719676"><ele>180.0</ele><time>2026-03-29T10:54:38.707Z</time></trkpt><trkpt lat="45.4872549" lon="10.4717535"><ele>179.0</ele><time>2026-03-29T10:54:39.707Z</time></trkpt><trkpt lat="45.4873909" lon="10.4715163"><ele>178.0</ele><time>2026-03-29T10:54:40.707Z</time></trkpt><trkpt lat="45.487518" lon="10.471274"><ele>177.0</ele><time>2026-03-29T10:54:41.707Z</time></trkpt><trkpt lat="45.4876329" lon="10.4710457"><ele>176.66666666666666</ele><time>2026-03-29T10:54:42.707Z</time></trkpt><trkpt lat="45.4877443" lon="10.4708333"><ele>176.33333333333331</ele><time>2026-03-29T10:54:43.707Z</time></trkpt><trkpt lat="45.4878451" lon="10.4706458"><ele>176.0</ele><time>2026-03-29T10:54:44.707Z</time></trkpt><trkpt lat="45.4879316" lon="10.470485"><ele>176.0</ele><time>2026-03-29T10:54:45.707Z</time></trkpt><trkpt lat="45.4879989" lon="10.4703595"><ele>176.0</ele><time>2026-03-29T10:54:46.707Z</time></trkpt><trkpt lat="45.488054" lon="10.4702667"><ele>176.0</ele><time>2026-03-29T10:54:47.707Z</time></trkpt><trkpt lat="45.4880936" lon="10.4701938"><ele>176.0</ele><time>2026-03-29T10:54:48.707Z</time></trkpt><trkpt lat="45.4880535" lon="10.4699846"><ele>176.0</ele><time>2026-03-29T10:54:50.707Z</time></trkpt><trkpt lat="45.488026" lon="10.4698248"><ele>175.33333333333331</ele><time>2026-03-29T10:54:51.707Z</time></trkpt><trkpt lat="45.4880135" lon="10.4695848"><ele>174.66666666666666</ele><time>2026-03-29T10:54:52.707Z</time></trkpt><trkpt lat="45.4880105" lon="10.4693066"><ele>174.0</ele><time>2026-03-29T10:54:53.707Z</time></trkpt><trkpt lat="45.488003" lon="10.4690102"><ele>173.0</ele><time>2026-03-29T10:54:54.707Z</time></trkpt><trkpt lat="45.4879898" lon="10.4686907"><ele>172.0</ele><time>2026-03-29T10:54:55.707Z</time></trkpt><trkpt lat="45.4879776" lon="10.4683632"><ele>172.0</ele><time>2026-03-29T10:54:56.707Z</time></trkpt><trkpt lat="45.4879657" lon="10.4680276"><ele>172.0</ele><time>2026-03-29T10:54:57.707Z</time></trkpt><trkpt lat="45.4879513" lon="10.4676841"><ele>172.0</ele><time>2026-03-29T10:54:58.707Z</time></trkpt><trkpt lat="45.487932" lon="10.4673389"><ele>172.0</ele><time>2026-03-29T10:54:59.707Z</time></trkpt><trkpt lat="45.4879123" lon="10.4669926"><ele>172.0</ele><time>2026-03-29T10:55:00.707Z</time></trkpt><trkpt lat="45.4878987" lon="10.4666428"><ele>172.0</ele><time>2026-03-29T10:55:01.707Z</time></trkpt><trkpt lat="45.4878959" lon="10.4662923"><ele>171.0</ele><time>2026-03-29T10:55:02.707Z</time></trkpt><trkpt lat="45.4878985" lon="10.4659317"><ele>170.0</ele><time>2026-03-29T10:55:03.707Z</time></trkpt><trkpt lat="45.4879035" lon="10.4655925"><ele>169.5</ele><time>2026-03-29T10:55:04.707Z</time></trkpt><trkpt lat="45.4879108" lon="10.4652677"><ele>169.0</ele><time>2026-03-29T10:55:05.707Z</time></trkpt><trkpt lat="45.4879208" lon="10.4649495"><ele>168.33333333333334</ele><time>2026-03-29T10:55:06.707Z</time></trkpt><trkpt lat="45.4879271" lon="10.4646468"><ele>167.66666666666666</ele><time>2026-03-29T10:55:07.707Z</time></trkpt><trkpt lat="45.487923" lon="10.4643483"><ele>167.0</ele><time>2026-03-29T10:55:08.707Z</time></trkpt><trkpt lat="45.4879004" lon="10.4640415"><ele>166.66666666666666</ele><time>2026-03-29T10:55:09.707Z</time></trkpt><trkpt lat="45.4878721" lon="10.4637319"><ele>166.33333333333334</ele><time>2026-03-29T10:55:10.707Z</time></trkpt><trkpt lat="45.4878466" lon="10.4634156"><ele>166.0</ele><time>2026-03-29T10:55:11.707Z</time></trkpt><trkpt lat="45.4878187" lon="10.4630963"><ele>165.5</ele><time>2026-03-29T10:55:12.707Z</time></trkpt><trkpt lat="45.4877889" lon="10.4627743"><ele>165.0</ele><time>2026-03-29T10:55:13.707Z</time></trkpt><trkpt lat="45.4877524" lon="10.4624502"><ele>165.0</ele><time>2026-03-29T10:55:14.707Z</time></trkpt><trkpt lat="45.4877129" lon="10.4621299"><ele>165.0</ele><time>2026-03-29T10:55:15.707Z</time></trkpt><trkpt lat="45.4876774" lon="10.4618245"><ele>165.0</ele><time>2026-03-29T10:55:16.707Z</time></trkpt><trkpt lat="45.487657" lon="10.4615321"><ele>164.0</ele><time>2026-03-29T10:55:17.707Z</time></trkpt><trkpt lat="45.4876626" lon="10.4612379"><ele>163.0</ele><time>2026-03-29T10:55:18.707Z</time></trkpt><trkpt lat="45.4876872" lon="10.4609427"><ele>162.0</ele><time>2026-03-29T10:55:19.707Z</time></trkpt><trkpt lat="45.4877148" lon="10.4606439"><ele>161.66666666666666</ele><time>2026-03-29T10:55:20.707Z</time></trkpt><trkpt lat="45.4877428" lon="10.4603397"><ele>161.33333333333331</ele><time>2026-03-29T10:55:21.707Z</time></trkpt><trkpt lat="45.4877608" lon="10.460022"><ele>161.0</ele><time>2026-03-29T10:55:22.707Z</time></trkpt><trkpt lat="45.4877612" lon="10.4596813"><ele>161.0</ele><time>2026-03-29T10:55:23.707Z</time></trkpt><trkpt lat="45.4877472" lon="10.4593306"><ele>161.0</ele><time>2026-03-29T10:55:24.707Z</time></trkpt><trkpt lat="45.487737" lon="10.4589682"><ele>160.0</ele><time>2026-03-29T10:55:25.707Z</time></trkpt><trkpt lat="45.4877443" lon="10.4586032"><ele>159.0</ele><time>2026-03-29T10:55:26.707Z</time></trkpt><trkpt lat="45.4877702" lon="10.4582512"><ele>159.0</ele><time>2026-03-29T10:55:27.707Z</time></trkpt><trkpt lat="45.4878054" lon="10.4579232"><ele>159.0</ele><time>2026-03-29T10:55:28.707Z</time></trkpt><trkpt lat="45.487838" lon="10.4576119"><ele>159.0</ele><time>2026-03-29T10:55:29.707Z</time></trkpt><trkpt lat="45.4878623" lon="10.4573162"><ele>159.0</ele><time>2026-03-29T10:55:30.707Z</time></trkpt><trkpt lat="45.4878785" lon="10.4570253"><ele>159.0</ele><time>2026-03-29T10:55:31.707Z</time></trkpt><trkpt lat="45.4878871" lon="10.4567245"><ele>159.0</ele><time>2026-03-29T10:55:32.707Z</time></trkpt><trkpt lat="45.487887" lon="10.4564168"><ele>159.0</ele><time>2026-03-29T10:55:33.707Z</time></trkpt><trkpt lat="45.4878863" lon="10.4561062"><ele>159.0</ele><time>2026-03-29T10:55:34.707Z</time></trkpt><trkpt lat="45.4878965" lon="10.4557929"><ele>159.0</ele><time>2026-03-29T10:55:35.707Z</time></trkpt><trkpt lat="45.4879161" lon="10.4554764"><ele>159.0</ele><time>2026-03-29T10:55:36.707Z</time></trkpt><trkpt lat="45.4879366" lon="10.4551735"><ele>159.0</ele><time>2026-03-29T10:55:37.707Z</time></trkpt><trkpt lat="45.4879516" lon="10.4548903"><ele>159.33333333333334</ele><time>2026-03-29T10:55:38.707Z</time></trkpt><trkpt lat="45.4879669" lon="10.4546267"><ele>159.66666666666669</ele><time>2026-03-29T10:55:39.707Z</time></trkpt><trkpt lat="45.4879825" lon="10.4543757"><ele>160.0</ele><time>2026-03-29T10:55:40.707Z</time></trkpt><trkpt lat="45.4879966" lon="10.4541417"><ele>160.0</ele><time>2026-03-29T10:55:41.707Z</time></trkpt><trkpt lat="45.4880124" lon="10.4539157"><ele>160.0</ele><time>2026-03-29T10:55:42.707Z</time></trkpt><trkpt lat="45.4880295" lon="10.4536962"><ele>160.0</ele><time>2026-03-29T10:55:43.707Z</time></trkpt><trkpt lat="45.4880473" lon="10.4534827"><ele>159.75</ele><time>2026-03-29T10:55:44.707Z</time></trkpt><trkpt lat="45.4880629" lon="10.4532768"><ele>159.5</ele><time>2026-03-29T10:55:45.707Z</time></trkpt><trkpt lat="45.4880783" lon="10.4530891"><ele>159.25</ele><time>2026-03-29T10:55:46.707Z</time></trkpt><trkpt lat="45.4880912" lon="10.4529101"><ele>159.0</ele><time>2026-03-29T10:55:47.707Z</time></trkpt><trkpt lat="45.4881033" lon="10.4527408"><ele>158.75</ele><time>2026-03-29T10:55:48.707Z</time></trkpt><trkpt lat="45.48812" lon="10.4525655"><ele>158.5</ele><time>2026-03-29T10:55:49.707Z</time></trkpt><trkpt lat="45.4881447" lon="10.452387"><ele>158.25</ele><time>2026-03-29T10:55:50.707Z</time></trkpt><trkpt lat="45.4881805" lon="10.4522"><ele>158.0</ele><time>2026-03-29T10:55:51.707Z</time></trkpt><trkpt lat="45.4882217" lon="10.4520023"><ele>157.66666666666666</ele><time>2026-03-29T10:55:52.707Z</time></trkpt><trkpt lat="45.4882587" lon="10.451792"><ele>157.33333333333334</ele><time>2026-03-29T10:55:53.707Z</time></trkpt><trkpt lat="45.4882844" lon="10.4515699"><ele>157.0</ele><time>2026-03-29T10:55:54.707Z</time></trkpt><trkpt lat="45.4882906" lon="10.4513341"><ele>156.66666666666669</ele><time>2026-03-29T10:55:55.707Z</time></trkpt><trkpt lat="45.4882943" lon="10.4510885"><ele>156.33333333333334</ele><time>2026-03-29T10:55:56.707Z</time></trkpt><trkpt lat="45.4883043" lon="10.4508331"><ele>156.0</ele><time>2026-03-29T10:55:57.707Z</time></trkpt><trkpt lat="45.4883154" lon="10.4505549"><ele>156.0</ele><time>2026-03-29T10:55:58.707Z</time></trkpt><trkpt lat="45.4883217" lon="10.4502699"><ele>156.0</ele><time>2026-03-29T10:55:59.707Z</time></trkpt><trkpt lat="45.4883312" lon="10.4499994"><ele>156.0</ele><time>2026-03-29T10:56:00.707Z</time></trkpt><trkpt lat="45.4883433" lon="10.4497283"><ele>155.66666666666666</ele><time>2026-03-29T10:56:01.707Z</time></trkpt><trkpt lat="45.4883494" lon="10.4494803"><ele>155.33333333333331</ele><time>2026-03-29T10:56:02.707Z</time></trkpt><trkpt lat="45.4883509" lon="10.449239"><ele>155.0</ele><time>2026-03-29T10:56:03.707Z</time></trkpt><trkpt lat="45.4883422" lon="10.4490129"><ele>154.66666666666666</ele><time>2026-03-29T10:56:04.707Z</time></trkpt><trkpt lat="45.4883196" lon="10.448791"><ele>154.33333333333334</ele><time>2026-03-29T10:56:05.707Z</time></trkpt><trkpt lat="45.4882937" lon="10.4485619"><ele>154.0</ele><time>2026-03-29T10:56:06.707Z</time></trkpt><trkpt lat="45.4882814" lon="10.4483255"><ele>154.0</ele><time>2026-03-29T10:56:07.707Z</time></trkpt><trkpt lat="45.4882859" lon="10.4480782"><ele>154.0</ele><time>2026-03-29T10:56:08.707Z</time></trkpt><trkpt lat="45.4882966" lon="10.4478186"><ele>154.0</ele><time>2026-03-29T10:56:09.707Z</time></trkpt><trkpt lat="45.4883044" lon="10.4475559"><ele>154.0</ele><time>2026-03-29T10:56:10.707Z</time></trkpt><trkpt lat="45.4883129" lon="10.4472929"><ele>154.0</ele><time>2026-03-29T10:56:11.707Z</time></trkpt><trkpt lat="45.4883291" lon="10.4470286"><ele>154.0</ele><time>2026-03-29T10:56:12.707Z</time></trkpt><trkpt lat="45.4883521" lon="10.4467684"><ele>154.0</ele><time>2026-03-29T10:56:13.707Z</time></trkpt><trkpt lat="45.4883751" lon="10.4465218"><ele>154.0</ele><time>2026-03-29T10:56:14.707Z</time></trkpt><trkpt lat="45.4883969" lon="10.4462909"><ele>154.0</ele><time>2026-03-29T10:56:15.707Z</time></trkpt><trkpt lat="45.4884211" lon="10.4460699"><ele>154.2</ele><time>2026-03-29T10:56:16.707Z</time></trkpt><trkpt lat="45.488446" lon="10.4458854"><ele>154.4</ele><time>2026-03-29T10:56:17.707Z</time></trkpt><trkpt lat="45.4884651" lon="10.4457412"><ele>154.6</ele><time>2026-03-29T10:56:18.707Z</time></trkpt><trkpt lat="45.4884829" lon="10.4456399"><ele>154.8</ele><time>2026-03-29T10:56:19.707Z</time></trkpt><trkpt lat="45.4885094" lon="10.4455475"><ele>155.0</ele><time>2026-03-29T10:56:21.707Z</time></trkpt><trkpt lat="45.4886058" lon="10.4455354"><ele>155.0</ele><time>2026-03-29T10:56:23.707Z</time></trkpt><trkpt lat="45.4886893" lon="10.445574"><ele>155.0</ele><time>2026-03-29T10:56:24.707Z</time></trkpt><trkpt lat="45.4888025" lon="10.4456348"><ele>155.0</ele><time>2026-03-29T10:56:25.707Z</time></trkpt><trkpt lat="45.4889279" lon="10.4456948"><ele>155.0</ele><time>2026-03-29T10:56:26.707Z</time></trkpt><trkpt lat="45.4890584" lon="10.4457597"><ele>155.66666666666666</ele><time>2026-03-29T10:56:27.707Z</time></trkpt><trkpt lat="45.4892061" lon="10.4458345"><ele>156.33333333333334</ele><time>2026-03-29T10:56:28.707Z</time></trkpt><trkpt lat="45.4893611" lon="10.4459163"><ele>157.0</ele><time>2026-03-29T10:56:29.707Z</time></trkpt><trkpt lat="45.4895271" lon="10.4459972"><ele>156.66666666666669</ele><time>2026-03-29T10:56:30.707Z</time></trkpt><trkpt lat="45.4897008" lon="10.4460784"><ele>156.33333333333334</ele><time>2026-03-29T10:56:31.707Z</time></trkpt><trkpt lat="45.489879" lon="10.4461585"><ele>156.0</ele><time>2026-03-29T10:56:32.707Z</time></trkpt><trkpt lat="45.4900646" lon="10.4462337"><ele>156.0</ele><time>2026-03-29T10:56:33.707Z</time></trkpt><trkpt lat="45.4902556" lon="10.4462944"><ele>156.0</ele><time>2026-03-29T10:56:34.707Z</time></trkpt><trkpt lat="45.4904573" lon="10.4463462"><ele>156.0</ele><time>2026-03-29T10:56:35.707Z</time></trkpt><trkpt lat="45.490668" lon="10.4463963"><ele>157.0</ele><time>2026-03-29T10:56:36.707Z</time></trkpt><trkpt lat="45.4908879" lon="10.4464416"><ele>158.0</ele><time>2026-03-29T10:56:37.707Z</time></trkpt><trkpt lat="45.491114" lon="10.4464824"><ele>158.0</ele><time>2026-03-29T10:56:38.707Z</time></trkpt><trkpt lat="45.4913499" lon="10.4465399"><ele>158.0</ele><time>2026-03-29T10:56:39.708Z</time></trkpt><trkpt lat="45.4915988" lon="10.4466102"><ele>158.0</ele><time>2026-03-29T10:56:40.707Z</time></trkpt><trkpt lat="45.4918572" lon="10.446697"><ele>158.0</ele><time>2026-03-29T10:56:41.707Z</time></trkpt><trkpt lat="45.492117" lon="10.4467987"><ele>159.0</ele><time>2026-03-29T10:56:42.707Z</time></trkpt><trkpt lat="45.4923722" lon="10.4469034"><ele>160.0</ele><time>2026-03-29T10:56:43.708Z</time></trkpt><trkpt lat="45.4926101" lon="10.4470039"><ele>160.0</ele><time>2026-03-29T10:56:44.708Z</time></trkpt><trkpt lat="45.4928333" lon="10.4470972"><ele>160.0</ele><time>2026-03-29T10:56:45.707Z</time></trkpt><trkpt lat="45.4930532" lon="10.4471877"><ele>160.33333333333334</ele><time>2026-03-29T10:56:46.707Z</time></trkpt><trkpt lat="45.4932674" lon="10.4472746"><ele>160.66666666666666</ele><time>2026-03-29T10:56:47.707Z</time></trkpt><trkpt lat="45.4934778" lon="10.4473561"><ele>161.0</ele><time>2026-03-29T10:56:48.707Z</time></trkpt><trkpt lat="45.4936878" lon="10.44744"><ele>161.0</ele><time>2026-03-29T10:56:49.708Z</time></trkpt><trkpt lat="45.4938908" lon="10.4475252"><ele>161.0</ele><time>2026-03-29T10:56:50.707Z</time></trkpt><trkpt lat="45.4940766" lon="10.4476025"><ele>161.0</ele><time>2026-03-29T10:56:51.707Z</time></trkpt><trkpt lat="45.494257" lon="10.4476774"><ele>161.0</ele><time>2026-03-29T10:56:52.707Z</time></trkpt><trkpt lat="45.4944303" lon="10.4477516"><ele>161.0</ele><time>2026-03-29T10:56:53.707Z</time></trkpt><trkpt lat="45.4946029" lon="10.4478262"><ele>161.0</ele><time>2026-03-29T10:56:54.707Z</time></trkpt><trkpt lat="45.4947647" lon="10.4478948"><ele>161.5</ele><time>2026-03-29T10:56:55.707Z</time></trkpt><trkpt lat="45.4949143" lon="10.4479522"><ele>162.0</ele><time>2026-03-29T10:56:56.707Z</time></trkpt><trkpt lat="45.4950491" lon="10.4480052"><ele>162.5</ele><time>2026-03-29T10:56:57.707Z</time></trkpt><trkpt lat="45.4951584" lon="10.4480487"><ele>163.0</ele><time>2026-03-29T10:56:58.707Z</time></trkpt><trkpt lat="45.4952428" lon="10.4480686"><ele>163.0</ele><time>2026-03-29T10:56:59.707Z</time></trkpt><trkpt lat="45.4953078" lon="10.4480516"><ele>163.0</ele><time>2026-03-29T10:57:00.707Z</time></trkpt><trkpt lat="45.4953846" lon="10.4479277"><ele>163.0</ele><time>2026-03-29T10:57:02.707Z</time></trkpt><trkpt lat="45.4954106" lon="10.4478122"><ele>163.0</ele><time>2026-03-29T10:57:03.707Z</time></trkpt><trkpt lat="45.4954373" lon="10.4476726"><ele>163.0</ele><time>2026-03-29T10:57:04.707Z</time></trkpt><trkpt lat="45.4954701" lon="10.4474829"><ele>163.0</ele><time>2026-03-29T10:57:05.707Z</time></trkpt><trkpt lat="45.4955034" lon="10.4472992"><ele>163.0</ele><time>2026-03-29T10:57:06.707Z</time></trkpt><trkpt lat="45.4955394" lon="10.4471419"><ele>163.0</ele><time>2026-03-29T10:57:07.707Z</time></trkpt><trkpt lat="45.4955802" lon="10.4470073"><ele>163.0</ele><time>2026-03-29T10:57:08.707Z</time></trkpt><trkpt lat="45.4956281" lon="10.4469061"><ele>163.0</ele><time>2026-03-29T10:57:09.707Z</time></trkpt><trkpt lat="45.4957085" lon="10.4468249"><ele>163.4</ele><time>2026-03-29T10:57:11.707Z</time></trkpt><trkpt lat="45.4958182" lon="10.4468131"><ele>163.8</ele><time>2026-03-29T10:57:13.707Z</time></trkpt><trkpt lat="45.4958821" lon="10.4468045"><ele>164.2</ele><time>2026-03-29T10:57:14.707Z</time></trkpt><trkpt lat="45.4959926" lon="10.4467326"><ele>164.6</ele><time>2026-03-29T10:57:16.707Z</time></trkpt><trkpt lat="45.4960475" lon="10.4466437"><ele>165.0</ele><time>2026-03-29T10:57:17.707Z</time></trkpt><trkpt lat="45.4961048" lon="10.4465521"><ele>165.0</ele><time>2026-03-29T10:57:18.707Z</time></trkpt><trkpt lat="45.496199" lon="10.4464218"><ele>165.0</ele><time>2026-03-29T10:57:19.707Z</time></trkpt><trkpt lat="45.4962989" lon="10.446287"><ele>165.0</ele><time>2026-03-29T10:57:20.707Z</time></trkpt><trkpt lat="45.4963893" lon="10.4461739"><ele>165.0</ele><time>2026-03-29T10:57:21.707Z</time></trkpt><trkpt lat="45.4964757" lon="10.4460721"><ele>164.5</ele><time>2026-03-29T10:57:22.707Z</time></trkpt><trkpt lat="45.4965624" lon="10.4459575"><ele>164.0</ele><time>2026-03-29T10:57:23.707Z</time></trkpt><trkpt lat="45.4966552" lon="10.4458122"><ele>163.5</ele><time>2026-03-29T10:57:24.707Z</time></trkpt><trkpt lat="45.4967483" lon="10.4456476"><ele>163.0</ele><time>2026-03-29T10:57:25.707Z</time></trkpt><trkpt lat="45.4968507" lon="10.4454659"><ele>162.66666666666669</ele><time>2026-03-29T10:57:26.707Z</time></trkpt><trkpt lat="45.4969607" lon="10.4452885"><ele>162.33333333333334</ele><time>2026-03-29T10:57:27.707Z</time></trkpt><trkpt lat="45.4970713" lon="10.445126"><ele>162.0</ele><time>2026-03-29T10:57:28.707Z</time></trkpt><trkpt lat="45.4971757" lon="10.4449754"><ele>161.75</ele><time>2026-03-29T10:57:29.707Z</time></trkpt><trkpt lat="45.4972852" lon="10.4448249"><ele>161.5</ele><time>2026-03-29T10:57:30.707Z</time></trkpt><trkpt lat="45.4973889" lon="10.4446825"><ele>161.25</ele><time>2026-03-29T10:57:31.707Z</time></trkpt><trkpt lat="45.4975046" lon="10.4445485"><ele>161.0</ele><time>2026-03-29T10:57:32.707Z</time></trkpt><trkpt lat="45.4976305" lon="10.4444265"><ele>161.0</ele><time>2026-03-29T10:57:33.707Z</time></trkpt><trkpt lat="45.4977638" lon="10.4443057"><ele>161.0</ele><time>2026-03-29T10:57:34.707Z</time></trkpt><trkpt lat="45.4978848" lon="10.4441986"><ele>161.0</ele><time>2026-03-29T10:57:35.708Z</time></trkpt><trkpt lat="45.4979992" lon="10.4441007"><ele>161.0</ele><time>2026-03-29T10:57:36.707Z</time></trkpt><trkpt lat="45.498104" lon="10.4440091"><ele>162.0</ele><time>2026-03-29T10:57:37.707Z</time></trkpt><trkpt lat="45.4982114" lon="10.4439117"><ele>163.0</ele><time>2026-03-29T10:57:38.707Z</time></trkpt><trkpt lat="45.4983165" lon="10.4438108"><ele>164.0</ele><time>2026-03-29T10:57:39.707Z</time></trkpt><trkpt lat="45.4984286" lon="10.4437114"><ele>165.0</ele><time>2026-03-29T10:57:40.707Z</time></trkpt><trkpt lat="45.4985462" lon="10.4435898"><ele>165.0</ele><time>2026-03-29T10:57:41.707Z</time></trkpt><trkpt lat="45.4986575" lon="10.4434504"><ele>165.0</ele><time>2026-03-29T10:57:42.707Z</time></trkpt><trkpt lat="45.4987522" lon="10.4433052"><ele>165.0</ele><time>2026-03-29T10:57:43.707Z</time></trkpt><trkpt lat="45.4988534" lon="10.4431529"><ele>165.0</ele><time>2026-03-29T10:57:44.707Z</time></trkpt><trkpt lat="45.4989531" lon="10.4430292"><ele>165.4</ele><time>2026-03-29T10:57:45.707Z</time></trkpt><trkpt lat="45.4990474" lon="10.4429065"><ele>165.8</ele><time>2026-03-29T10:57:46.707Z</time></trkpt><trkpt lat="45.4991288" lon="10.442794"><ele>166.2</ele><time>2026-03-29T10:57:47.707Z</time></trkpt><trkpt lat="45.499198" lon="10.4426906"><ele>166.6</ele><time>2026-03-29T10:57:48.707Z</time></trkpt><trkpt lat="45.4992607" lon="10.4426011"><ele>167.0</ele><time>2026-03-29T10:57:49.707Z</time></trkpt><trkpt lat="45.4993326" lon="10.4425034"><ele>167.0</ele><time>2026-03-29T10:57:50.707Z</time></trkpt><trkpt lat="45.4994159" lon="10.4423829"><ele>167.0</ele><time>2026-03-29T10:57:51.707Z</time></trkpt><trkpt lat="45.4994879" lon="10.442276"><ele>167.0</ele><time>2026-03-29T10:57:52.707Z</time></trkpt><trkpt lat="45.4995593" lon="10.4421778"><ele>167.0</ele><time>2026-03-29T10:57:53.707Z</time></trkpt><trkpt lat="45.499629" lon="10.4420759"><ele>167.0</ele><time>2026-03-29T10:57:54.707Z</time></trkpt><trkpt lat="45.4996879" lon="10.4419922"><ele>166.83333333333331</ele><time>2026-03-29T10:57:55.707Z</time></trkpt><trkpt lat="45.4997363" lon="10.4419296"><ele>166.66666666666666</ele><time>2026-03-29T10:57:56.707Z</time></trkpt><trkpt lat="45.4998531" lon="10.4418357"><ele>166.5</ele><time>2026-03-29T10:57:58.707Z</time></trkpt><trkpt lat="45.4999224" lon="10.4417965"><ele>166.33333333333334</ele><time>2026-03-29T10:57:59.707Z</time></trkpt><trkpt lat="45.499985" lon="10.4417437"><ele>166.16666666666669</ele><time>2026-03-29T10:58:00.707Z</time></trkpt><trkpt lat="45.5000536" lon="10.4416589"><ele>166.0</ele><time>2026-03-29T10:58:01.707Z</time></trkpt><trkpt lat="45.5001238" lon="10.4415497"><ele>166.0</ele><time>2026-03-29T10:58:02.707Z</time></trkpt><trkpt lat="45.5001902" lon="10.4414125"><ele>166.0</ele><time>2026-03-29T10:58:03.707Z</time></trkpt><trkpt lat="45.5002499" lon="10.4412618"><ele>166.0</ele><time>2026-03-29T10:58:04.707Z</time></trkpt><trkpt lat="45.5003018" lon="10.4411237"><ele>166.0</ele><time>2026-03-29T10:58:05.707Z</time></trkpt><trkpt lat="45.5003681" lon="10.4410268"><ele>166.0</ele><time>2026-03-29T10:58:06.707Z</time></trkpt><trkpt lat="45.5004471" lon="10.4409855"><ele>165.75</ele><time>2026-03-29T10:58:07.707Z</time></trkpt><trkpt lat="45.5005353" lon="10.4409984"><ele>165.5</ele><time>2026-03-29T10:58:08.707Z</time></trkpt><trkpt lat="45.5006387" lon="10.4410425"><ele>165.25</ele><time>2026-03-29T10:58:09.707Z</time></trkpt><trkpt lat="45.5007631" lon="10.441065"><ele>165.0</ele><time>2026-03-29T10:58:10.707Z</time></trkpt><trkpt lat="45.5009269" lon="10.4410737"><ele>165.0</ele><time>2026-03-29T10:58:11.707Z</time></trkpt><trkpt lat="45.5011099" lon="10.4410788"><ele>165.0</ele><time>2026-03-29T10:58:12.707Z</time></trkpt><trkpt lat="45.5012916" lon="10.4410708"><ele>165.0</ele><time>2026-03-29T10:58:13.707Z</time></trkpt><trkpt lat="45.5014582" lon="10.4410507"><ele>164.75</ele><time>2026-03-29T10:58:14.707Z</time></trkpt><trkpt lat="45.5016032" lon="10.4410357"><ele>164.5</ele><time>2026-03-29T10:58:15.707Z</time></trkpt><trkpt lat="45.501725" lon="10.441035"><ele>164.25</ele><time>2026-03-29T10:58:16.707Z</time></trkpt><trkpt lat="45.5018194" lon="10.441082"><ele>164.0</ele><time>2026-03-29T10:58:17.707Z</time></trkpt><trkpt lat="45.5019136" lon="10.441132"><ele>164.0</ele><time>2026-03-29T10:58:18.707Z</time></trkpt><trkpt lat="45.501906" lon="10.4412625"><ele>164.0</ele><time>2026-03-29T10:58:19.707Z</time></trkpt><trkpt lat="45.5019126" lon="10.4414193"><ele>164.0</ele><time>2026-03-29T10:58:20.707Z</time></trkpt><trkpt lat="45.5019095" lon="10.4416063"><ele>164.0</ele><time>2026-03-29T10:58:21.707Z</time></trkpt><trkpt lat="45.5019166" lon="10.4417738"><ele>164.16666666666666</ele><time>2026-03-29T10:58:22.707Z</time></trkpt><trkpt lat="45.5019174" lon="10.4419299"><ele>164.33333333333331</ele><time>2026-03-29T10:58:23.707Z</time></trkpt><trkpt lat="45.5019177" lon="10.4420515"><ele>164.5</ele><time>2026-03-29T10:58:24.708Z</time></trkpt><trkpt lat="45.5019183" lon="10.4421873"><ele>164.66666666666666</ele><time>2026-03-29T10:58:26.707Z</time></trkpt><trkpt lat="45.5019234" lon="10.442304"><ele>164.83333333333334</ele><time>2026-03-29T10:58:30.707Z</time></trkpt><trkpt lat="45.5019237" lon="10.442409"><ele>165.0</ele><time>2026-03-29T10:58:33.707Z</time></trkpt><trkpt lat="45.5019373" lon="10.4425127"><ele>165.14285714285717</ele><time>2026-03-29T10:58:36.707Z</time></trkpt><trkpt lat="45.5019919" lon="10.4425682"><ele>165.28571428571428</ele><time>2026-03-29T10:58:39.707Z</time></trkpt><trkpt lat="45.5020759" lon="10.4425642"><ele>165.42857142857144</ele><time>2026-03-29T10:58:42.707Z</time></trkpt><trkpt lat="45.5021484" lon="10.4425534"><ele>165.57142857142858</ele><time>2026-03-29T10:58:45.707Z</time></trkpt><trkpt lat="45.5022122" lon="10.4425448"><ele>165.71428571428572</ele><time>2026-03-29T10:58:48.708Z</time></trkpt><trkpt lat="45.5022855" lon="10.4425331"><ele>165.85714285714286</ele><time>2026-03-29T10:58:51.707Z</time></trkpt><trkpt lat="45.5023507" lon="10.442529"><ele>166.0</ele><time>2026-03-29T10:58:54.707Z</time></trkpt><trkpt lat="45.5024194" lon="10.4425214"><ele>166.16666666666669</ele><time>2026-03-29T10:58:57.707Z</time></trkpt><trkpt lat="45.5025029" lon="10.4425216"><ele>166.33333333333334</ele><time>2026-03-29T10:59:00.707Z</time></trkpt><trkpt lat="45.5025776" lon="10.4425186"><ele>166.5</ele><time>2026-03-29T10:59:03.707Z</time></trkpt><trkpt lat="45.50266" lon="10.4425124"><ele>166.66666666666666</ele><time>2026-03-29T10:59:06.707Z</time></trkpt><trkpt lat="45.502761" lon="10.4425179"><ele>166.83333333333331</ele><time>2026-03-29T10:59:09.707Z</time></trkpt><trkpt lat="45.5028264" lon="10.4425875"><ele>167.0</ele><time>2026-03-29T10:59:11.708Z</time></trkpt><trkpt lat="45.5028213" lon="10.4427192"><ele>167.0</ele><time>2026-03-29T10:59:13.707Z</time></trkpt><trkpt lat="45.5027896" lon="10.4428293"><ele>167.0</ele><time>2026-03-29T10:59:14.707Z</time></trkpt><trkpt lat="45.502745" lon="10.4429732"><ele>167.0</ele><time>2026-03-29T10:59:15.707Z</time></trkpt><trkpt lat="45.5026966" lon="10.4431337"><ele>167.0</ele><time>2026-03-29T10:59:16.707Z</time></trkpt><trkpt lat="45.5026447" lon="10.4433174"><ele>167.0</ele><time>2026-03-29T10:59:17.707Z</time></trkpt><trkpt lat="45.5025891" lon="10.443494"><ele>167.0</ele><time>2026-03-29T10:59:18.707Z</time></trkpt><trkpt lat="45.5025283" lon="10.443645"><ele>167.0</ele><time>2026-03-29T10:59:19.707Z</time></trkpt><trkpt lat="45.5024624" lon="10.4438128"><ele>167.0</ele><time>2026-03-29T10:59:20.707Z</time></trkpt><trkpt lat="45.5023911" lon="10.4439932"><ele>167.0</ele><time>2026-03-29T10:59:21.707Z</time></trkpt><trkpt lat="45.5023197" lon="10.4441578"><ele>167.0</ele><time>2026-03-29T10:59:22.707Z</time></trkpt><trkpt lat="45.5022392" lon="10.4443457"><ele>167.0</ele><time>2026-03-29T10:59:23.707Z</time></trkpt><trkpt lat="45.5021528" lon="10.4445351"><ele>167.0</ele><time>2026-03-29T10:59:24.707Z</time></trkpt><trkpt lat="45.5020501" lon="10.4447555"><ele>167.0</ele><time>2026-03-29T10:59:25.707Z</time></trkpt><trkpt lat="45.5019552" lon="10.4449615"><ele>167.0</ele><time>2026-03-29T10:59:26.707Z</time></trkpt><trkpt lat="45.5018623" lon="10.44517"><ele>167.0</ele><time>2026-03-29T10:59:27.707Z</time></trkpt><trkpt lat="45.5017707" lon="10.4453687"><ele>167.5</ele><time>2026-03-29T10:59:28.707Z</time></trkpt><trkpt lat="45.5016815" lon="10.4455468"><ele>168.0</ele><time>2026-03-29T10:59:29.707Z</time></trkpt><trkpt lat="45.5016045" lon="10.4457108"><ele>168.5</ele><time>2026-03-29T10:59:30.707Z</time></trkpt><trkpt lat="45.5015291" lon="10.4458842"><ele>169.0</ele><time>2026-03-29T10:59:31.707Z</time></trkpt><trkpt lat="45.5014597" lon="10.446053"><ele>169.0</ele><time>2026-03-29T10:59:32.707Z</time></trkpt><trkpt lat="45.5014014" lon="10.4462083"><ele>169.0</ele><time>2026-03-29T10:59:33.707Z</time></trkpt><trkpt lat="45.5013558" lon="10.4463577"><ele>169.0</ele><time>2026-03-29T10:59:34.707Z</time></trkpt><trkpt lat="45.5013369" lon="10.4465008"><ele>169.0</ele><time>2026-03-29T10:59:35.707Z</time></trkpt><trkpt lat="45.5013418" lon="10.446658"><ele>169.0</ele><time>2026-03-29T10:59:36.707Z</time></trkpt><trkpt lat="45.5013522" lon="10.446819"><ele>169.0</ele><time>2026-03-29T10:59:37.707Z</time></trkpt><trkpt lat="45.5013333" lon="10.4469604"><ele>169.0</ele><time>2026-03-29T10:59:38.707Z</time></trkpt><trkpt lat="45.501284" lon="10.4471008"><ele>169.0</ele><time>2026-03-29T10:59:39.707Z</time></trkpt><trkpt lat="45.5012048" lon="10.4472649"><ele>168.66666666666669</ele><time>2026-03-29T10:59:40.707Z</time></trkpt><trkpt lat="45.5011032" lon="10.4474646"><ele>168.33333333333334</ele><time>2026-03-29T10:59:41.707Z</time></trkpt><trkpt lat="45.5009884" lon="10.4476938"><ele>168.0</ele><time>2026-03-29T10:59:42.707Z</time></trkpt><trkpt lat="45.5008809" lon="10.4479252"><ele>168.0</ele><time>2026-03-29T10:59:43.707Z</time></trkpt><trkpt lat="45.5007877" lon="10.4481365"><ele>168.0</ele><time>2026-03-29T10:59:44.707Z</time></trkpt><trkpt lat="45.500703" lon="10.4483387"><ele>168.0</ele><time>2026-03-29T10:59:45.707Z</time></trkpt><trkpt lat="45.5006239" lon="10.4485249"><ele>168.0</ele><time>2026-03-29T10:59:46.707Z</time></trkpt><trkpt lat="45.5005539" lon="10.4487013"><ele>168.0</ele><time>2026-03-29T10:59:47.707Z</time></trkpt><trkpt lat="45.5004939" lon="10.448862"><ele>168.0</ele><time>2026-03-29T10:59:48.708Z</time></trkpt><trkpt lat="45.500444" lon="10.4489953"><ele>168.0</ele><time>2026-03-29T10:59:49.707Z</time></trkpt><trkpt lat="45.5004107" lon="10.4491081"><ele>168.0</ele><time>2026-03-29T10:59:50.707Z</time></trkpt><trkpt lat="45.5004219" lon="10.449273"><ele>168.0</ele><time>2026-03-29T10:59:52.707Z</time></trkpt><trkpt lat="45.5004606" lon="10.4493468"><ele>168.0</ele><time>2026-03-29T10:59:53.707Z</time></trkpt><trkpt lat="45.5005246" lon="10.4494181"><ele>168.0</ele><time>2026-03-29T10:59:54.707Z</time></trkpt><trkpt lat="45.5006265" lon="10.4495154"><ele>168.0</ele><time>2026-03-29T10:59:55.707Z</time></trkpt><trkpt lat="45.5007265" lon="10.4496194"><ele>168.0</ele><time>2026-03-29T10:59:56.707Z</time></trkpt><trkpt lat="45.5007983" lon="10.4497013"><ele>168.0</ele><time>2026-03-29T10:59:57.707Z</time></trkpt><trkpt lat="45.5008673" lon="10.4497473"><ele>168.0</ele><time>2026-03-29T10:59:58.707Z</time></trkpt><trkpt lat="45.5009303" lon="10.4497458"><ele>168.0</ele><time>2026-03-29T10:59:59.707Z</time></trkpt><trkpt lat="45.5010261" lon="10.4496192"><ele>168.0</ele><time>2026-03-29T11:00:01.707Z</time></trkpt><trkpt lat="45.5010753" lon="10.4494926"><ele>168.0</ele><time>2026-03-29T11:00:02.707Z</time></trkpt><trkpt lat="45.5011222" lon="10.4494125"><ele>168.0</ele><time>2026-03-29T11:00:03.707Z</time></trkpt><trkpt lat="45.5011806" lon="10.4493661"><ele>168.0</ele><time>2026-03-29T11:00:04.707Z</time></trkpt><trkpt lat="45.5012551" lon="10.4493526"><ele>168.0</ele><time>2026-03-29T11:00:05.707Z</time></trkpt><trkpt lat="45.5013528" lon="10.4493836"><ele>168.0</ele><time>2026-03-29T11:00:06.707Z</time></trkpt><trkpt lat="45.5014759" lon="10.4494435"><ele>168.0</ele><time>2026-03-29T11:00:07.707Z</time></trkpt><trkpt lat="45.5016201" lon="10.4495109"><ele>168.33333333333334</ele><time>2026-03-29T11:00:08.707Z</time></trkpt><trkpt lat="45.5017749" lon="10.4495862"><ele>168.66666666666669</ele><time>2026-03-29T11:00:09.707Z</time></trkpt><trkpt lat="45.5019408" lon="10.4496603"><ele>169.0</ele><time>2026-03-29T11:00:10.707Z</time></trkpt><trkpt lat="45.5020941" lon="10.4497212"><ele>169.33333333333334</ele><time>2026-03-29T11:00:11.707Z</time></trkpt><trkpt lat="45.5022479" lon="10.4497665"><ele>169.66666666666666</ele><time>2026-03-29T11:00:12.707Z</time></trkpt><trkpt lat="45.502404" lon="10.4497914"><ele>170.0</ele><time>2026-03-29T11:00:13.707Z</time></trkpt><trkpt lat="45.5025605" lon="10.4498095"><ele>170.0</ele><time>2026-03-29T11:00:14.707Z</time></trkpt><trkpt lat="45.5027257" lon="10.4498312"><ele>170.0</ele><time>2026-03-29T11:00:15.707Z</time></trkpt><trkpt lat="45.5028824" lon="10.4498455"><ele>170.0</ele><time>2026-03-29T11:00:16.707Z</time></trkpt><trkpt lat="45.5030234" lon="10.449847"><ele>170.0</ele><time>2026-03-29T11:00:17.707Z</time></trkpt><trkpt lat="45.5031661" lon="10.4498169"><ele>170.0</ele><time>2026-03-29T11:00:18.707Z</time></trkpt><trkpt lat="45.5033134" lon="10.4497524"><ele>170.0</ele><time>2026-03-29T11:00:19.707Z</time></trkpt><trkpt lat="45.5034724" lon="10.4496525"><ele>170.0</ele><time>2026-03-29T11:00:20.707Z</time></trkpt><trkpt lat="45.5036137" lon="10.4495539"><ele>170.0</ele><time>2026-03-29T11:00:21.707Z</time></trkpt><trkpt lat="45.5037449" lon="10.4494646"><ele>170.0</ele><time>2026-03-29T11:00:22.707Z</time></trkpt><trkpt lat="45.5038753" lon="10.4493876"><ele>170.0</ele><time>2026-03-29T11:00:23.708Z</time></trkpt><trkpt lat="45.5040077" lon="10.4493062"><ele>170.25</ele><time>2026-03-29T11:00:24.707Z</time></trkpt><trkpt lat="45.5041255" lon="10.4492388"><ele>170.5</ele><time>2026-03-29T11:00:25.707Z</time></trkpt><trkpt lat="45.5042536" lon="10.4491675"><ele>170.75</ele><time>2026-03-29T11:00:26.707Z</time></trkpt><trkpt lat="45.5043863" lon="10.4491011"><ele>171.0</ele><time>2026-03-29T11:00:27.707Z</time></trkpt><trkpt lat="45.5045348" lon="10.4490356"><ele>171.66666666666666</ele><time>2026-03-29T11:00:28.707Z</time></trkpt><trkpt lat="45.5046933" lon="10.4489649"><ele>172.33333333333331</ele><time>2026-03-29T11:00:29.707Z</time></trkpt><trkpt lat="45.504852" lon="10.4489002"><ele>173.0</ele><time>2026-03-29T11:00:30.707Z</time></trkpt><trkpt lat="45.5049981" lon="10.4488442"><ele>173.0</ele><time>2026-03-29T11:00:31.707Z</time></trkpt><trkpt lat="45.5051507" lon="10.4487847"><ele>173.0</ele><time>2026-03-29T11:00:32.707Z</time></trkpt><trkpt lat="45.5052974" lon="10.4487292"><ele>173.0</ele><time>2026-03-29T11:00:33.707Z</time></trkpt><trkpt lat="45.5054301" lon="10.4486804"><ele>173.0</ele><time>2026-03-29T11:00:34.707Z</time></trkpt><trkpt lat="45.5055482" lon="10.4486356"><ele>173.2</ele><time>2026-03-29T11:00:35.707Z</time></trkpt><trkpt lat="45.5056499" lon="10.4485902"><ele>173.4</ele><time>2026-03-29T11:00:36.707Z</time></trkpt><trkpt lat="45.505733" lon="10.448555"><ele>173.6</ele><time>2026-03-29T11:00:37.707Z</time></trkpt><trkpt lat="45.5057999" lon="10.4485273"><ele>173.79999999999998</ele><time>2026-03-29T11:00:38.707Z</time></trkpt><trkpt lat="45.5058712" lon="10.448502"><ele>174.0</ele><time>2026-03-29T11:00:40.707Z</time></trkpt><trkpt lat="45.5059865" lon="10.4484311"><ele>174.0</ele><time>2026-03-29T11:00:42.707Z</time></trkpt><trkpt lat="45.5060939" lon="10.4483542"><ele>174.0</ele><time>2026-03-29T11:00:43.707Z</time></trkpt><trkpt lat="45.5062452" lon="10.4482465"><ele>174.0</ele><time>2026-03-29T11:00:44.707Z</time></trkpt><trkpt lat="45.5064304" lon="10.4481027"><ele>174.33333333333334</ele><time>2026-03-29T11:00:45.707Z</time></trkpt><trkpt lat="45.5066318" lon="10.4479393"><ele>174.66666666666669</ele><time>2026-03-29T11:00:46.707Z</time></trkpt><trkpt lat="45.5068039" lon="10.4477798"><ele>175.0</ele><time>2026-03-29T11:00:47.707Z</time></trkpt><trkpt lat="45.5069667" lon="10.4476231"><ele>174.66666666666669</ele><time>2026-03-29T11:00:48.707Z</time></trkpt><trkpt lat="45.5071197" lon="10.4474743"><ele>174.33333333333334</ele><time>2026-03-29T11:00:49.707Z</time></trkpt><trkpt lat="45.5072681" lon="10.4473293"><ele>174.0</ele><time>2026-03-29T11:00:50.707Z</time></trkpt><trkpt lat="45.5074285" lon="10.447158"><ele>175.0</ele><time>2026-03-29T11:00:51.707Z</time></trkpt><trkpt lat="45.5075971" lon="10.4469572"><ele>176.0</ele><time>2026-03-29T11:00:52.707Z</time></trkpt><trkpt lat="45.5077913" lon="10.4467436"><ele>175.5</ele><time>2026-03-29T11:00:53.707Z</time></trkpt><trkpt lat="45.5079999" lon="10.4465201"><ele>175.0</ele><time>2026-03-29T11:00:54.707Z</time></trkpt><trkpt lat="45.5081875" lon="10.4462945"><ele>175.0</ele><time>2026-03-29T11:00:55.707Z</time></trkpt><trkpt lat="45.5083707" lon="10.4460814"><ele>175.0</ele><time>2026-03-29T11:00:56.707Z</time></trkpt><trkpt lat="45.5085436" lon="10.4458862"><ele>175.0</ele><time>2026-03-29T11:00:57.707Z</time></trkpt><trkpt lat="45.5087054" lon="10.4457021"><ele>175.0</ele><time>2026-03-29T11:00:58.707Z</time></trkpt><trkpt lat="45.5088567" lon="10.445528"><ele>175.0</ele><time>2026-03-29T11:00:59.707Z</time></trkpt><trkpt lat="45.5090032" lon="10.4453647"><ele>175.66666666666669</ele><time>2026-03-29T11:01:00.707Z</time></trkpt><trkpt lat="45.5091461" lon="10.4451981"><ele>176.33333333333334</ele><time>2026-03-29T11:01:01.707Z</time></trkpt><trkpt lat="45.5092839" lon="10.4450186"><ele>177.0</ele><time>2026-03-29T11:01:02.707Z</time></trkpt><trkpt lat="45.5094088" lon="10.4448181"><ele>176.66666666666666</ele><time>2026-03-29T11:01:03.707Z</time></trkpt><trkpt lat="45.5095157" lon="10.4446009"><ele>176.33333333333331</ele><time>2026-03-29T11:01:04.707Z</time></trkpt><trkpt lat="45.5096185" lon="10.4443794"><ele>176.0</ele><time>2026-03-29T11:01:05.707Z</time></trkpt><trkpt lat="45.5097218" lon="10.444162"><ele>176.0</ele><time>2026-03-29T11:01:06.707Z</time></trkpt><trkpt lat="45.5098276" lon="10.4439473"><ele>176.0</ele><time>2026-03-29T11:01:07.707Z</time></trkpt><trkpt lat="45.5099302" lon="10.4437417"><ele>176.0</ele><time>2026-03-29T11:01:08.707Z</time></trkpt><trkpt lat="45.5100328" lon="10.4435278"><ele>176.0</ele><time>2026-03-29T11:01:09.707Z</time></trkpt><trkpt lat="45.510128" lon="10.4433206"><ele>176.0</ele><time>2026-03-29T11:01:10.707Z</time></trkpt><trkpt lat="45.510215" lon="10.4431384"><ele>176.0</ele><time>2026-03-29T11:01:11.707Z</time></trkpt><trkpt lat="45.5102971" lon="10.4429797"><ele>176.25</ele><time>2026-03-29T11:01:12.707Z</time></trkpt><trkpt lat="45.5103791" lon="10.4428582"><ele>176.5</ele><time>2026-03-29T11:01:13.707Z</time></trkpt><trkpt lat="45.510486" lon="10.4427656"><ele>176.75</ele><time>2026-03-29T11:01:14.707Z</time></trkpt><trkpt lat="45.5106228" lon="10.4427078"><ele>177.0</ele><time>2026-03-29T11:01:15.707Z</time></trkpt><trkpt lat="45.5107611" lon="10.4426986"><ele>177.0</ele><time>2026-03-29T11:01:16.707Z</time></trkpt><trkpt lat="45.5108893" lon="10.4427092"><ele>177.0</ele><time>2026-03-29T11:01:17.707Z</time></trkpt><trkpt lat="45.5110132" lon="10.4427245"><ele>177.0</ele><time>2026-03-29T11:01:18.707Z</time></trkpt><trkpt lat="45.5111169" lon="10.4427348"><ele>177.0</ele><time>2026-03-29T11:01:19.707Z</time></trkpt><trkpt lat="45.511205" lon="10.4427536"><ele>177.0</ele><time>2026-03-29T11:01:20.707Z</time></trkpt><trkpt lat="45.5112808" lon="10.4427976"><ele>177.0</ele><time>2026-03-29T11:01:21.707Z</time></trkpt><trkpt lat="45.5113466" lon="10.4428658"><ele>177.0</ele><time>2026-03-29T11:01:22.707Z</time></trkpt><trkpt lat="45.5113939" lon="10.4429669"><ele>177.0</ele><time>2026-03-29T11:01:23.707Z</time></trkpt><trkpt lat="45.5114211" lon="10.4430956"><ele>177.0</ele><time>2026-03-29T11:01:24.707Z</time></trkpt><trkpt lat="45.5114623" lon="10.4432202"><ele>177.0</ele><time>2026-03-29T11:01:25.707Z</time></trkpt><trkpt lat="45.5115301" lon="10.4433161"><ele>177.0</ele><time>2026-03-29T11:01:26.707Z</time></trkpt><trkpt lat="45.5116136" lon="10.4433703"><ele>177.0</ele><time>2026-03-29T11:01:27.707Z</time></trkpt><trkpt lat="45.5116998" lon="10.4433738"><ele>177.0</ele><time>2026-03-29T11:01:28.707Z</time></trkpt><trkpt lat="45.5117741" lon="10.443321"><ele>177.0</ele><time>2026-03-29T11:01:29.707Z</time></trkpt><trkpt lat="45.5118321" lon="10.4432174"><ele>177.0</ele><time>2026-03-29T11:01:30.707Z</time></trkpt><trkpt lat="45.5118725" lon="10.4430846"><ele>177.0</ele><time>2026-03-29T11:01:31.707Z</time></trkpt><trkpt lat="45.5119131" lon="10.4429329"><ele>177.0</ele><time>2026-03-29T11:01:32.708Z</time></trkpt><trkpt lat="45.5119628" lon="10.4427637"><ele>177.0</ele><time>2026-03-29T11:01:33.707Z</time></trkpt><trkpt lat="45.5120456" lon="10.4426006"><ele>177.0</ele><time>2026-03-29T11:01:34.707Z</time></trkpt><trkpt lat="45.5121599" lon="10.442423"><ele>177.33333333333334</ele><time>2026-03-29T11:01:35.707Z</time></trkpt><trkpt lat="45.5122824" lon="10.4422428"><ele>177.66666666666669</ele><time>2026-03-29T11:01:36.707Z</time></trkpt><trkpt lat="45.5124122" lon="10.4420591"><ele>178.0</ele><time>2026-03-29T11:01:37.707Z</time></trkpt><trkpt lat="45.5125439" lon="10.4418802"><ele>178.0</ele><time>2026-03-29T11:01:38.707Z</time></trkpt><trkpt lat="45.5126761" lon="10.4416984"><ele>178.0</ele><time>2026-03-29T11:01:39.707Z</time></trkpt><trkpt lat="45.5128045" lon="10.4415122"><ele>178.0</ele><time>2026-03-29T11:01:40.707Z</time></trkpt><trkpt lat="45.5129322" lon="10.4413164"><ele>178.33333333333334</ele><time>2026-03-29T11:01:41.707Z</time></trkpt><trkpt lat="45.5130546" lon="10.4411066"><ele>178.66666666666666</ele><time>2026-03-29T11:01:42.707Z</time></trkpt><trkpt lat="45.5131853" lon="10.440872"><ele>179.0</ele><time>2026-03-29T11:01:43.707Z</time></trkpt><trkpt lat="45.5133187" lon="10.4406138"><ele>178.5</ele><time>2026-03-29T11:01:44.707Z</time></trkpt><trkpt lat="45.5134647" lon="10.4403245"><ele>178.0</ele><time>2026-03-29T11:01:45.707Z</time></trkpt><trkpt lat="45.5136112" lon="10.440026"><ele>178.5</ele><time>2026-03-29T11:01:46.707Z</time></trkpt><trkpt lat="45.5137434" lon="10.4397197"><ele>179.0</ele><time>2026-03-29T11:01:47.707Z</time></trkpt><trkpt lat="45.5138629" lon="10.4394092"><ele>179.5</ele><time>2026-03-29T11:01:48.707Z</time></trkpt><trkpt lat="45.5139697" lon="10.4390935"><ele>180.0</ele><time>2026-03-29T11:01:49.707Z</time></trkpt><trkpt lat="45.5140603" lon="10.4387824"><ele>180.0</ele><time>2026-03-29T11:01:50.707Z</time></trkpt><trkpt lat="45.5141415" lon="10.4384901"><ele>180.0</ele><time>2026-03-29T11:01:51.707Z</time></trkpt><trkpt lat="45.5142197" lon="10.438212"><ele>180.0</ele><time>2026-03-29T11:01:52.707Z</time></trkpt><trkpt lat="45.5142902" lon="10.4379477"><ele>180.33333333333334</ele><time>2026-03-29T11:01:53.707Z</time></trkpt><trkpt lat="45.5143558" lon="10.4377022"><ele>180.66666666666669</ele><time>2026-03-29T11:01:54.707Z</time></trkpt><trkpt lat="45.5144282" lon="10.4374827"><ele>181.0</ele><time>2026-03-29T11:01:55.707Z</time></trkpt><trkpt lat="45.5145231" lon="10.4373049"><ele>181.25</ele><time>2026-03-29T11:01:56.707Z</time></trkpt><trkpt lat="45.5146286" lon="10.4371634"><ele>181.5</ele><time>2026-03-29T11:01:57.707Z</time></trkpt><trkpt lat="45.5147097" lon="10.4370233"><ele>181.75</ele><time>2026-03-29T11:01:58.707Z</time></trkpt><trkpt lat="45.5147622" lon="10.4368788"><ele>182.0</ele><time>2026-03-29T11:01:59.707Z</time></trkpt><trkpt lat="45.5147801" lon="10.4367212"><ele>182.25</ele><time>2026-03-29T11:02:00.707Z</time></trkpt><trkpt lat="45.5147541" lon="10.4365433"><ele>182.5</ele><time>2026-03-29T11:02:01.707Z</time></trkpt><trkpt lat="45.5146999" lon="10.436352"><ele>182.75</ele><time>2026-03-29T11:02:02.707Z</time></trkpt><trkpt lat="45.5146591" lon="10.4361309"><ele>183.0</ele><time>2026-03-29T11:02:03.707Z</time></trkpt><trkpt lat="45.5146394" lon="10.4358736"><ele>183.0</ele><time>2026-03-29T11:02:04.707Z</time></trkpt><trkpt lat="45.5146325" lon="10.4355872"><ele>183.0</ele><time>2026-03-29T11:02:05.707Z</time></trkpt><trkpt lat="45.5146248" lon="10.4352813"><ele>183.0</ele><time>2026-03-29T11:02:06.707Z</time></trkpt><trkpt lat="45.5146079" lon="10.4349542"><ele>182.0</ele><time>2026-03-29T11:02:07.707Z</time></trkpt><trkpt lat="45.5145922" lon="10.4345866"><ele>181.0</ele><time>2026-03-29T11:02:08.707Z</time></trkpt><trkpt lat="45.5145773" lon="10.4342148"><ele>181.0</ele><time>2026-03-29T11:02:09.707Z</time></trkpt><trkpt lat="45.514558" lon="10.4338498"><ele>181.0</ele><time>2026-03-29T11:02:10.707Z</time></trkpt><trkpt lat="45.5145352" lon="10.4334958"><ele>182.5</ele><time>2026-03-29T11:02:11.707Z</time></trkpt><trkpt lat="45.5145153" lon="10.4331518"><ele>184.0</ele><time>2026-03-29T11:02:12.707Z</time></trkpt><trkpt lat="45.5145064" lon="10.4328188"><ele>184.0</ele><time>2026-03-29T11:02:13.707Z</time></trkpt><trkpt lat="45.5144995" lon="10.4324957"><ele>184.0</ele><time>2026-03-29T11:02:14.707Z</time></trkpt><trkpt lat="45.5144987" lon="10.432181"><ele>184.0</ele><time>2026-03-29T11:02:15.707Z</time></trkpt><trkpt lat="45.5144995" lon="10.4318669"><ele>183.5</ele><time>2026-03-29T11:02:16.707Z</time></trkpt><trkpt lat="45.5145087" lon="10.4315458"><ele>183.0</ele><time>2026-03-29T11:02:17.707Z</time></trkpt><trkpt lat="45.5145248" lon="10.4312207"><ele>182.5</ele><time>2026-03-29T11:02:18.707Z</time></trkpt><trkpt lat="45.5145454" lon="10.4308885"><ele>182.0</ele><time>2026-03-29T11:02:19.708Z</time></trkpt><trkpt lat="45.5145691" lon="10.4305561"><ele>183.0</ele><time>2026-03-29T11:02:20.707Z</time></trkpt><trkpt lat="45.5145926" lon="10.4302259"><ele>184.0</ele><time>2026-03-29T11:02:21.707Z</time></trkpt><trkpt lat="45.5146149" lon="10.4298894"><ele>184.0</ele><time>2026-03-29T11:02:22.707Z</time></trkpt><trkpt lat="45.5146423" lon="10.4295526"><ele>184.0</ele><time>2026-03-29T11:02:23.707Z</time></trkpt><trkpt lat="45.5146734" lon="10.4292125"><ele>184.0</ele><time>2026-03-29T11:02:24.707Z</time></trkpt><trkpt lat="45.5147066" lon="10.4288674"><ele>184.0</ele><time>2026-03-29T11:02:25.707Z</time></trkpt><trkpt lat="45.5147399" lon="10.4285205"><ele>184.0</ele><time>2026-03-29T11:02:26.707Z</time></trkpt><trkpt lat="45.5147725" lon="10.4281691"><ele>184.0</ele><time>2026-03-29T11:02:27.707Z</time></trkpt><trkpt lat="45.5148005" lon="10.4278158"><ele>184.0</ele><time>2026-03-29T11:02:28.707Z</time></trkpt><trkpt lat="45.514828" lon="10.4274593"><ele>184.0</ele><time>2026-03-29T11:02:29.707Z</time></trkpt><trkpt lat="45.5148585" lon="10.4271002"><ele>183.0</ele><time>2026-03-29T11:02:30.707Z</time></trkpt><trkpt lat="45.5148873" lon="10.4267381"><ele>182.0</ele><time>2026-03-29T11:02:31.707Z</time></trkpt><trkpt lat="45.5149161" lon="10.4263751"><ele>182.5</ele><time>2026-03-29T11:02:32.707Z</time></trkpt><trkpt lat="45.5149471" lon="10.4260121"><ele>183.0</ele><time>2026-03-29T11:02:33.707Z</time></trkpt><trkpt lat="45.5149793" lon="10.42565"><ele>182.0</ele><time>2026-03-29T11:02:34.707Z</time></trkpt><trkpt lat="45.5150111" lon="10.4252897"><ele>181.0</ele><time>2026-03-29T11:02:35.707Z</time></trkpt><trkpt lat="45.5150435" lon="10.4249328"><ele>180.5</ele><time>2026-03-29T11:02:36.707Z</time></trkpt><trkpt lat="45.515072" lon="10.4245974"><ele>180.0</ele><time>2026-03-29T11:02:37.707Z</time></trkpt><trkpt lat="45.5151" lon="10.4242762"><ele>180.0</ele><time>2026-03-29T11:02:38.707Z</time></trkpt><trkpt lat="45.515125" lon="10.4239744"><ele>180.0</ele><time>2026-03-29T11:02:39.707Z</time></trkpt><trkpt lat="45.515153" lon="10.4237015"><ele>180.0</ele><time>2026-03-29T11:02:40.707Z</time></trkpt><trkpt lat="45.5152032" lon="10.4234637"><ele>180.25</ele><time>2026-03-29T11:02:41.707Z</time></trkpt><trkpt lat="45.5152819" lon="10.4232739"><ele>180.5</ele><time>2026-03-29T11:02:42.707Z</time></trkpt><trkpt lat="45.5153476" lon="10.4230987"><ele>180.75</ele><time>2026-03-29T11:02:43.707Z</time></trkpt><trkpt lat="45.5153827" lon="10.4229077"><ele>181.0</ele><time>2026-03-29T11:02:44.707Z</time></trkpt><trkpt lat="45.5153757" lon="10.4227156"><ele>181.66666666666669</ele><time>2026-03-29T11:02:45.707Z</time></trkpt><trkpt lat="45.5153306" lon="10.4225132"><ele>182.33333333333334</ele><time>2026-03-29T11:02:46.707Z</time></trkpt><trkpt lat="45.5152873" lon="10.4222724"><ele>183.0</ele><time>2026-03-29T11:02:47.707Z</time></trkpt><trkpt lat="45.5152809" lon="10.4219936"><ele>183.0</ele><time>2026-03-29T11:02:48.707Z</time></trkpt><trkpt lat="45.5152862" lon="10.4216785"><ele>183.0</ele><time>2026-03-29T11:02:49.707Z</time></trkpt><trkpt lat="45.5152983" lon="10.4213118"><ele>183.0</ele><time>2026-03-29T11:02:50.707Z</time></trkpt><trkpt lat="45.5153159" lon="10.420898"><ele>183.0</ele><time>2026-03-29T11:02:51.707Z</time></trkpt><trkpt lat="45.5153366" lon="10.420449"><ele>183.0</ele><time>2026-03-29T11:02:52.707Z</time></trkpt><trkpt lat="45.5153577" lon="10.4199712"><ele>183.0</ele><time>2026-03-29T11:02:53.707Z</time></trkpt><trkpt lat="45.5153809" lon="10.4195123"><ele>183.0</ele><time>2026-03-29T11:02:54.707Z</time></trkpt><trkpt lat="45.5153897" lon="10.4190793"><ele>183.0</ele><time>2026-03-29T11:02:55.707Z</time></trkpt><trkpt lat="45.515375" lon="10.4186728"><ele>183.0</ele><time>2026-03-29T11:02:56.707Z</time></trkpt><trkpt lat="45.5153343" lon="10.4182883"><ele>183.0</ele><time>2026-03-29T11:02:57.707Z</time></trkpt><trkpt lat="45.5152597" lon="10.4179229"><ele>182.0</ele><time>2026-03-29T11:02:58.707Z</time></trkpt><trkpt lat="45.5151575" lon="10.4175776"><ele>181.0</ele><time>2026-03-29T11:02:59.707Z</time></trkpt><trkpt lat="45.515026" lon="10.4172542"><ele>179.5</ele><time>2026-03-29T11:03:00.707Z</time></trkpt><trkpt lat="45.5148711" lon="10.4169636"><ele>178.0</ele><time>2026-03-29T11:03:01.707Z</time></trkpt><trkpt lat="45.5146946" lon="10.4167039"><ele>178.0</ele><time>2026-03-29T11:03:02.707Z</time></trkpt><trkpt lat="45.5145032" lon="10.416469"><ele>178.0</ele><time>2026-03-29T11:03:03.707Z</time></trkpt><trkpt lat="45.5142964" lon="10.4162614"><ele>178.0</ele><time>2026-03-29T11:03:04.707Z</time></trkpt><trkpt lat="45.5140813" lon="10.4160892"><ele>178.0</ele><time>2026-03-29T11:03:05.707Z</time></trkpt><trkpt lat="45.5138692" lon="10.415951"><ele>177.0</ele><time>2026-03-29T11:03:06.707Z</time></trkpt><trkpt lat="45.5136651" lon="10.41583"><ele>176.0</ele><time>2026-03-29T11:03:07.707Z</time></trkpt><trkpt lat="45.5134752" lon="10.415713"><ele>175.0</ele><time>2026-03-29T11:03:08.707Z</time></trkpt><trkpt lat="45.5133079" lon="10.4156054"><ele>175.0</ele><time>2026-03-29T11:03:09.707Z</time></trkpt><trkpt lat="45.5131655" lon="10.4155169"><ele>175.0</ele><time>2026-03-29T11:03:10.707Z</time></trkpt><trkpt lat="45.5130551" lon="10.4154412"><ele>175.0</ele><time>2026-03-29T11:03:11.707Z</time></trkpt><trkpt lat="45.5129908" lon="10.4153552"><ele>175.0</ele><time>2026-03-29T11:03:12.707Z</time></trkpt><trkpt lat="45.5129671" lon="10.415261"><ele>175.0</ele><time>2026-03-29T11:03:13.707Z</time></trkpt><trkpt lat="45.5129679" lon="10.4151661"><ele>175.8</ele><time>2026-03-29T11:03:14.707Z</time></trkpt><trkpt lat="45.513002" lon="10.4150705"><ele>176.6</ele><time>2026-03-29T11:03:15.707Z</time></trkpt><trkpt lat="45.5130568" lon="10.4149716"><ele>177.39999999999998</ele><time>2026-03-29T11:03:16.707Z</time></trkpt><trkpt lat="45.513132" lon="10.4148841"><ele>178.2</ele><time>2026-03-29T11:03:17.707Z</time></trkpt><trkpt lat="45.5132255" lon="10.4148383"><ele>179.0</ele><time>2026-03-29T11:03:18.707Z</time></trkpt><trkpt lat="45.5133241" lon="10.4148182"><ele>179.0</ele><time>2026-03-29T11:03:19.707Z</time></trkpt><trkpt lat="45.5134238" lon="10.414792"><ele>179.0</ele><time>2026-03-29T11:03:20.707Z</time></trkpt><trkpt lat="45.5135244" lon="10.4147686"><ele>179.0</ele><time>2026-03-29T11:03:21.707Z</time></trkpt><trkpt lat="45.5136197" lon="10.4147443"><ele>179.0</ele><time>2026-03-29T11:03:22.707Z</time></trkpt><trkpt lat="45.5137087" lon="10.4147098"><ele>179.0</ele><time>2026-03-29T11:03:23.707Z</time></trkpt><trkpt lat="45.5137762" lon="10.4146704"><ele>180.39999999999998</ele><time>2026-03-29T11:03:24.707Z</time></trkpt><trkpt lat="45.5138892" lon="10.414679"><ele>181.8</ele><time>2026-03-29T11:03:26.707Z</time></trkpt><trkpt lat="45.5139667" lon="10.4147189"><ele>183.2</ele><time>2026-03-29T11:03:27.707Z</time></trkpt><trkpt lat="45.5140576" lon="10.4147698"><ele>184.60000000000002</ele><time>2026-03-29T11:03:28.707Z</time></trkpt><trkpt lat="45.5141537" lon="10.4148271"><ele>186.0</ele><time>2026-03-29T11:03:29.707Z</time></trkpt><trkpt lat="45.5142638" lon="10.4148871"><ele>186.0</ele><time>2026-03-29T11:03:30.707Z</time></trkpt><trkpt lat="45.5143772" lon="10.4149528"><ele>186.0</ele><time>2026-03-29T11:03:31.707Z</time></trkpt><trkpt lat="45.5144952" lon="10.4150241"><ele>186.0</ele><time>2026-03-29T11:03:32.707Z</time></trkpt><trkpt lat="45.5146047" lon="10.4150955"><ele>186.0</ele><time>2026-03-29T11:03:33.707Z</time></trkpt><trkpt lat="45.5147138" lon="10.415171"><ele>186.5</ele><time>2026-03-29T11:03:34.707Z</time></trkpt><trkpt lat="45.5148558" lon="10.4152135"><ele>187.0</ele><time>2026-03-29T11:03:35.707Z</time></trkpt><trkpt lat="45.5149883" lon="10.4152542"><ele>187.5</ele><time>2026-03-29T11:03:36.707Z</time></trkpt><trkpt lat="45.5151276" lon="10.4152767"><ele>188.0</ele><time>2026-03-29T11:03:37.708Z</time></trkpt><trkpt lat="45.5152635" lon="10.4152758"><ele>188.0</ele><time>2026-03-29T11:03:38.707Z</time></trkpt><trkpt lat="45.5154017" lon="10.4152694"><ele>188.0</ele><time>2026-03-29T11:03:39.707Z</time></trkpt><trkpt lat="45.5155442" lon="10.4152467"><ele>188.0</ele><time>2026-03-29T11:03:40.707Z</time></trkpt><trkpt lat="45.5156944" lon="10.4152044"><ele>188.0</ele><time>2026-03-29T11:03:41.707Z</time></trkpt><trkpt lat="45.5158475" lon="10.4151456"><ele>189.66666666666666</ele><time>2026-03-29T11:03:42.707Z</time></trkpt><trkpt lat="45.5160044" lon="10.4150772"><ele>191.33333333333331</ele><time>2026-03-29T11:03:43.707Z</time></trkpt><trkpt lat="45.5161648" lon="10.4150079"><ele>193.0</ele><time>2026-03-29T11:03:44.707Z</time></trkpt><trkpt lat="45.5163279" lon="10.4149445"><ele>193.0</ele><time>2026-03-29T11:03:45.707Z</time></trkpt><trkpt lat="45.5164912" lon="10.414886"><ele>193.0</ele><time>2026-03-29T11:03:46.707Z</time></trkpt><trkpt lat="45.5166509" lon="10.4148208"><ele>193.0</ele><time>2026-03-29T11:03:47.707Z</time></trkpt><trkpt lat="45.5167966" lon="10.4147554"><ele>193.0</ele><time>2026-03-29T11:03:48.707Z</time></trkpt><trkpt lat="45.5169282" lon="10.4147087"><ele>193.0</ele><time>2026-03-29T11:03:49.707Z</time></trkpt><trkpt lat="45.5170487" lon="10.4146785"><ele>193.0</ele><time>2026-03-29T11:03:50.708Z</time></trkpt><trkpt lat="45.5171436" lon="10.4146726"><ele>193.0</ele><time>2026-03-29T11:03:51.707Z</time></trkpt><trkpt lat="45.5172068" lon="10.4146475"><ele>193.0</ele><time>2026-03-29T11:03:52.707Z</time></trkpt><trkpt lat="45.5172616" lon="10.4145128"><ele>193.8</ele><time>2026-03-29T11:03:54.707Z</time></trkpt><trkpt lat="45.5172611" lon="10.4143724"><ele>194.60000000000002</ele><time>2026-03-29T11:03:55.707Z</time></trkpt><trkpt lat="45.5172424" lon="10.4141992"><ele>195.39999999999998</ele><time>2026-03-29T11:03:56.707Z</time></trkpt><trkpt lat="45.5172285" lon="10.4140375"><ele>196.2</ele><time>2026-03-29T11:03:57.707Z</time></trkpt><trkpt lat="45.5172211" lon="10.413889"><ele>197.0</ele><time>2026-03-29T11:03:58.707Z</time></trkpt><trkpt lat="45.5172195" lon="10.4137662"><ele>197.0</ele><time>2026-03-29T11:03:59.707Z</time></trkpt><trkpt lat="45.5172476" lon="10.4136849"><ele>197.0</ele><time>2026-03-29T11:04:00.707Z</time></trkpt><trkpt lat="45.5173123" lon="10.413646"><ele>197.0</ele><time>2026-03-29T11:04:02.707Z</time></trkpt><trkpt lat="45.5173953" lon="10.413657"><ele>197.0</ele><time>2026-03-29T11:04:04.707Z</time></trkpt><trkpt lat="45.5174647" lon="10.4136683"><ele>197.0</ele><time>2026-03-29T11:04:06.707Z</time></trkpt><trkpt lat="45.5175317" lon="10.4136969"><ele>197.0</ele><time>2026-03-29T11:04:10.707Z</time></trkpt><trkpt lat="45.5175711" lon="10.4137896"><ele>197.0</ele><time>2026-03-29T11:04:27.707Z</time></trkpt><trkpt lat="45.5175457" lon="10.4138755"><ele>197.0</ele><time>2026-03-29T11:04:32.707Z</time></trkpt><trkpt lat="45.5174759" lon="10.4138769"><ele>197.0</ele><time>2026-03-29T11:04:34.707Z</time></trkpt></trkseg></trk></gpx>